<?xml version="1.0" encoding="UTF-8" standalone="no" ?>
<gpx xmlns="http://www.topografix.com/GPX/1/1" xmlns:xsi="http://www.w3.org/2001/XMLSchema-instance" xsi:schemaLocation="http://www.topografix.com/GPX/1/1 http://www.topografix.com/GPX/1/1/gpx.xsd" version="1.1" creator="VisuGPX - https://www.visugpx.com">
  <metadata>
    <name>Roquesteron</name>
    <desc><![CDATA[Rando ASCVTT
Relevé Terrain: 31,5 Km / + 1350 m
Roquesteron, Cuébris, Ascros, Sigale par pistes et sentiers
Parcours Validé !]]></desc>
  </metadata>
  <trk>
    <name><![CDATA[2019-12-07T08:42:40Z]]></name>
    <trkseg>
      <trkpt lat="43.86936" lon="7.00918">
        <ele>308.5999756</ele>
        <time>2019-12-07T08:42:40Z</time>
      </trkpt>
      <trkpt lat="43.86936" lon="7.00919">
        <ele>308.5999756</ele>
        <time>2019-12-07T08:42:53Z</time>
      </trkpt>
      <trkpt lat="43.86937" lon="7.00923">
        <ele>308.5999756</ele>
        <time>2019-12-07T08:42:55Z</time>
      </trkpt>
      <trkpt lat="43.86938" lon="7.00939">
        <ele>309</ele>
        <time>2019-12-07T08:42:59Z</time>
      </trkpt>
      <trkpt lat="43.86948" lon="7.00948">
        <ele>309.2000122</ele>
        <time>2019-12-07T08:43:02Z</time>
      </trkpt>
      <trkpt lat="43.86956" lon="7.00948">
        <ele>309.7999878</ele>
        <time>2019-12-07T08:43:05Z</time>
      </trkpt>
      <trkpt lat="43.86958" lon="7.00947">
        <ele>310</ele>
        <time>2019-12-07T08:43:06Z</time>
      </trkpt>
      <trkpt lat="43.86962" lon="7.00945">
        <ele>310.7999878</ele>
        <time>2019-12-07T08:43:08Z</time>
      </trkpt>
      <trkpt lat="43.86968" lon="7.00941">
        <ele>312</ele>
        <time>2019-12-07T08:43:11Z</time>
      </trkpt>
      <trkpt lat="43.86969" lon="7.0094">
        <ele>312.2000122</ele>
        <time>2019-12-07T08:43:12Z</time>
      </trkpt>
      <trkpt lat="43.86972" lon="7.00937">
        <ele>313</ele>
        <time>2019-12-07T08:43:14Z</time>
      </trkpt>
      <trkpt lat="43.86975" lon="7.0093">
        <ele>313.5999756</ele>
        <time>2019-12-07T08:43:17Z</time>
      </trkpt>
      <trkpt lat="43.86978" lon="7.00925">
        <ele>314.4000244</ele>
        <time>2019-12-07T08:43:19Z</time>
      </trkpt>
      <trkpt lat="43.86983" lon="7.00913">
        <ele>315.2000122</ele>
        <time>2019-12-07T08:43:24Z</time>
      </trkpt>
      <trkpt lat="43.86986" lon="7.00909">
        <ele>315.4000244</ele>
        <time>2019-12-07T08:43:26Z</time>
      </trkpt>
      <trkpt lat="43.86989" lon="7.00908">
        <ele>316</ele>
        <time>2019-12-07T08:43:28Z</time>
      </trkpt>
      <trkpt lat="43.86992" lon="7.00909">
        <ele>316.4000244</ele>
        <time>2019-12-07T08:43:30Z</time>
      </trkpt>
      <trkpt lat="43.86994" lon="7.0091">
        <ele>316.5999756</ele>
        <time>2019-12-07T08:43:31Z</time>
      </trkpt>
      <trkpt lat="43.86999" lon="7.00915">
        <ele>317.5999756</ele>
        <time>2019-12-07T08:43:35Z</time>
      </trkpt>
      <trkpt lat="43.86999" lon="7.00917">
        <ele>317.7999878</ele>
        <time>2019-12-07T08:43:36Z</time>
      </trkpt>
      <trkpt lat="43.87" lon="7.00918">
        <ele>318</ele>
        <time>2019-12-07T08:43:37Z</time>
      </trkpt>
      <trkpt lat="43.87001" lon="7.00921">
        <ele>318.5999756</ele>
        <time>2019-12-07T08:43:39Z</time>
      </trkpt>
      <trkpt lat="43.87002" lon="7.00923">
        <ele>318.7999878</ele>
        <time>2019-12-07T08:43:40Z</time>
      </trkpt>
      <trkpt lat="43.87002" lon="7.00927">
        <ele>319.5999756</ele>
        <time>2019-12-07T08:43:42Z</time>
      </trkpt>
      <trkpt lat="43.87003" lon="7.00929">
        <ele>320</ele>
        <time>2019-12-07T08:43:43Z</time>
      </trkpt>
      <trkpt lat="43.87003" lon="7.00931">
        <ele>320.4000244</ele>
        <time>2019-12-07T08:43:44Z</time>
      </trkpt>
      <trkpt lat="43.87003" lon="7.00933">
        <ele>320.7999878</ele>
        <time>2019-12-07T08:43:45Z</time>
      </trkpt>
      <trkpt lat="43.87003" lon="7.00935">
        <ele>321</ele>
        <time>2019-12-07T08:43:46Z</time>
      </trkpt>
      <trkpt lat="43.87003" lon="7.00937">
        <ele>321.4000244</ele>
        <time>2019-12-07T08:43:47Z</time>
      </trkpt>
      <trkpt lat="43.87002" lon="7.00944">
        <ele>322.2000122</ele>
        <time>2019-12-07T08:43:50Z</time>
      </trkpt>
      <trkpt lat="43.86999" lon="7.00953">
        <ele>323.2000122</ele>
        <time>2019-12-07T08:43:54Z</time>
      </trkpt>
      <trkpt lat="43.86998" lon="7.00955">
        <ele>323.2000122</ele>
        <time>2019-12-07T08:43:55Z</time>
      </trkpt>
      <trkpt lat="43.86996" lon="7.00964">
        <ele>324.2000122</ele>
        <time>2019-12-07T08:43:59Z</time>
      </trkpt>
      <trkpt lat="43.86995" lon="7.00966">
        <ele>324.5999756</ele>
        <time>2019-12-07T08:44:00Z</time>
      </trkpt>
      <trkpt lat="43.86994" lon="7.00971">
        <ele>325</ele>
        <time>2019-12-07T08:44:02Z</time>
      </trkpt>
      <trkpt lat="43.86993" lon="7.00976">
        <ele>325.5999756</ele>
        <time>2019-12-07T08:44:05Z</time>
      </trkpt>
      <trkpt lat="43.86991" lon="7.00982">
        <ele>326.5999756</ele>
        <time>2019-12-07T08:44:08Z</time>
      </trkpt>
      <trkpt lat="43.86989" lon="7.00987">
        <ele>327.2000122</ele>
        <time>2019-12-07T08:44:11Z</time>
      </trkpt>
      <trkpt lat="43.86988" lon="7.0099">
        <ele>327.5999756</ele>
        <time>2019-12-07T08:44:13Z</time>
      </trkpt>
      <trkpt lat="43.86986" lon="7.00997">
        <ele>329</ele>
        <time>2019-12-07T08:44:17Z</time>
      </trkpt>
      <trkpt lat="43.86985" lon="7.01001">
        <ele>329.4000244</ele>
        <time>2019-12-07T08:44:19Z</time>
      </trkpt>
      <trkpt lat="43.86984" lon="7.01006">
        <ele>330</ele>
        <time>2019-12-07T08:44:22Z</time>
      </trkpt>
      <trkpt lat="43.86981" lon="7.01011">
        <ele>330.4000244</ele>
        <time>2019-12-07T08:44:25Z</time>
      </trkpt>
      <trkpt lat="43.86979" lon="7.01018">
        <ele>331.2000122</ele>
        <time>2019-12-07T08:44:29Z</time>
      </trkpt>
      <trkpt lat="43.86978" lon="7.01021">
        <ele>332</ele>
        <time>2019-12-07T08:44:31Z</time>
      </trkpt>
      <trkpt lat="43.86978" lon="7.01022">
        <ele>332.4000244</ele>
        <time>2019-12-07T08:44:32Z</time>
      </trkpt>
      <trkpt lat="43.86981" lon="7.01023">
        <ele>332.7999878</ele>
        <time>2019-12-07T08:44:35Z</time>
      </trkpt>
      <trkpt lat="43.86984" lon="7.0102">
        <ele>333.2000122</ele>
        <time>2019-12-07T08:44:37Z</time>
      </trkpt>
      <trkpt lat="43.86987" lon="7.01016">
        <ele>333.4000244</ele>
        <time>2019-12-07T08:44:39Z</time>
      </trkpt>
      <trkpt lat="43.86992" lon="7.0101">
        <ele>333.4000244</ele>
        <time>2019-12-07T08:44:42Z</time>
      </trkpt>
      <trkpt lat="43.86993" lon="7.01008">
        <ele>333.4000244</ele>
        <time>2019-12-07T08:44:43Z</time>
      </trkpt>
      <trkpt lat="43.87" lon="7.00995">
        <ele>332.4000244</ele>
        <time>2019-12-07T08:44:49Z</time>
      </trkpt>
      <trkpt lat="43.87007" lon="7.00977">
        <ele>331.7999878</ele>
        <time>2019-12-07T08:44:55Z</time>
      </trkpt>
      <trkpt lat="43.87016" lon="7.0095">
        <ele>331.2000122</ele>
        <time>2019-12-07T08:45:02Z</time>
      </trkpt>
      <trkpt lat="43.87018" lon="7.00946">
        <ele>331</ele>
        <time>2019-12-07T08:45:03Z</time>
      </trkpt>
      <trkpt lat="43.87026" lon="7.00917">
        <ele>330.4000244</ele>
        <time>2019-12-07T08:45:10Z</time>
      </trkpt>
      <trkpt lat="43.8703" lon="7.00886">
        <ele>331.2000122</ele>
        <time>2019-12-07T08:45:17Z</time>
      </trkpt>
      <trkpt lat="43.87038" lon="7.00848">
        <ele>331.7999878</ele>
        <time>2019-12-07T08:45:25Z</time>
      </trkpt>
      <trkpt lat="43.87047" lon="7.00816">
        <ele>332</ele>
        <time>2019-12-07T08:45:32Z</time>
      </trkpt>
      <trkpt lat="43.87052" lon="7.00795">
        <ele>331.7999878</ele>
        <time>2019-12-07T08:45:37Z</time>
      </trkpt>
      <trkpt lat="43.87063" lon="7.00772">
        <ele>331.4000244</ele>
        <time>2019-12-07T08:45:43Z</time>
      </trkpt>
      <trkpt lat="43.8708" lon="7.0074">
        <ele>331</ele>
        <time>2019-12-07T08:45:52Z</time>
      </trkpt>
      <trkpt lat="43.87099" lon="7.00711">
        <ele>331</ele>
        <time>2019-12-07T08:46:01Z</time>
      </trkpt>
      <trkpt lat="43.87112" lon="7.00692">
        <ele>330.2000122</ele>
        <time>2019-12-07T08:46:07Z</time>
      </trkpt>
      <trkpt lat="43.87128" lon="7.00672">
        <ele>330</ele>
        <time>2019-12-07T08:46:14Z</time>
      </trkpt>
      <trkpt lat="43.87141" lon="7.00664">
        <ele>329.5999756</ele>
        <time>2019-12-07T08:46:19Z</time>
      </trkpt>
      <trkpt lat="43.87161" lon="7.00659">
        <ele>329.7999878</ele>
        <time>2019-12-07T08:46:26Z</time>
      </trkpt>
      <trkpt lat="43.87182" lon="7.00665">
        <ele>329.7999878</ele>
        <time>2019-12-07T08:46:33Z</time>
      </trkpt>
      <trkpt lat="43.87189" lon="7.00668">
        <ele>329</ele>
        <time>2019-12-07T08:46:36Z</time>
      </trkpt>
      <trkpt lat="43.8719" lon="7.00669">
        <ele>328.7999878</ele>
        <time>2019-12-07T08:46:37Z</time>
      </trkpt>
      <trkpt lat="43.87194" lon="7.00674">
        <ele>328</ele>
        <time>2019-12-07T08:46:42Z</time>
      </trkpt>
      <trkpt lat="43.87196" lon="7.00673">
        <ele>328</ele>
        <time>2019-12-07T08:46:43Z</time>
      </trkpt>
      <trkpt lat="43.87193" lon="7.00668">
        <ele>328.4000244</ele>
        <time>2019-12-07T08:46:46Z</time>
      </trkpt>
      <trkpt lat="43.87192" lon="7.00667">
        <ele>328.4000244</ele>
        <time>2019-12-07T08:46:51Z</time>
      </trkpt>
      <trkpt lat="43.87191" lon="7.00667">
        <ele>328.5999756</ele>
        <time>2019-12-07T08:46:59Z</time>
      </trkpt>
      <trkpt lat="43.8719" lon="7.00667">
        <ele>328.5999756</ele>
        <time>2019-12-07T08:47:00Z</time>
      </trkpt>
      <trkpt lat="43.87187" lon="7.00665">
        <ele>328.5999756</ele>
        <time>2019-12-07T08:47:02Z</time>
      </trkpt>
      <trkpt lat="43.87188" lon="7.00663">
        <ele>328.5999756</ele>
        <time>2019-12-07T08:47:04Z</time>
      </trkpt>
      <trkpt lat="43.8719" lon="7.00653">
        <ele>329.2000122</ele>
        <time>2019-12-07T08:47:08Z</time>
      </trkpt>
      <trkpt lat="43.8719" lon="7.0065">
        <ele>329.4000244</ele>
        <time>2019-12-07T08:47:09Z</time>
      </trkpt>
      <trkpt lat="43.87189" lon="7.00647">
        <ele>329.5999756</ele>
        <time>2019-12-07T08:47:10Z</time>
      </trkpt>
      <trkpt lat="43.87185" lon="7.00645">
        <ele>330</ele>
        <time>2019-12-07T08:47:12Z</time>
      </trkpt>
      <trkpt lat="43.87183" lon="7.00644">
        <ele>330.2000122</ele>
        <time>2019-12-07T08:47:13Z</time>
      </trkpt>
      <trkpt lat="43.87182" lon="7.00643">
        <ele>330.5999756</ele>
        <time>2019-12-07T08:47:14Z</time>
      </trkpt>
      <trkpt lat="43.87179" lon="7.0064">
        <ele>331.2000122</ele>
        <time>2019-12-07T08:47:17Z</time>
      </trkpt>
      <trkpt lat="43.87178" lon="7.00635">
        <ele>332</ele>
        <time>2019-12-07T08:47:23Z</time>
      </trkpt>
      <trkpt lat="43.87179" lon="7.00634">
        <ele>332.2000122</ele>
        <time>2019-12-07T08:47:24Z</time>
      </trkpt>
      <trkpt lat="43.87182" lon="7.00633">
        <ele>331.7999878</ele>
        <time>2019-12-07T08:47:28Z</time>
      </trkpt>
      <trkpt lat="43.87183" lon="7.00632">
        <ele>331.5999756</ele>
        <time>2019-12-07T08:47:29Z</time>
      </trkpt>
      <trkpt lat="43.87187" lon="7.0063">
        <ele>330.5999756</ele>
        <time>2019-12-07T08:47:34Z</time>
      </trkpt>
      <trkpt lat="43.87188" lon="7.00629">
        <ele>330.7999878</ele>
        <time>2019-12-07T08:47:39Z</time>
      </trkpt>
      <trkpt lat="43.87189" lon="7.00625">
        <ele>330.7999878</ele>
        <time>2019-12-07T08:47:43Z</time>
      </trkpt>
      <trkpt lat="43.8719" lon="7.00619">
        <ele>330.4000244</ele>
        <time>2019-12-07T08:47:45Z</time>
      </trkpt>
      <trkpt lat="43.87191" lon="7.00614">
        <ele>330</ele>
        <time>2019-12-07T08:47:46Z</time>
      </trkpt>
      <trkpt lat="43.87192" lon="7.00609">
        <ele>329.2000122</ele>
        <time>2019-12-07T08:47:47Z</time>
      </trkpt>
      <trkpt lat="43.87193" lon="7.00605">
        <ele>328.2000122</ele>
        <time>2019-12-07T08:47:48Z</time>
      </trkpt>
      <trkpt lat="43.87194" lon="7.006">
        <ele>327.2000122</ele>
        <time>2019-12-07T08:47:49Z</time>
      </trkpt>
      <trkpt lat="43.87194" lon="7.00591">
        <ele>326</ele>
        <time>2019-12-07T08:47:51Z</time>
      </trkpt>
      <trkpt lat="43.87195" lon="7.00579">
        <ele>324.7999878</ele>
        <time>2019-12-07T08:47:55Z</time>
      </trkpt>
      <trkpt lat="43.87194" lon="7.00577">
        <ele>324.5999756</ele>
        <time>2019-12-07T08:48:00Z</time>
      </trkpt>
      <trkpt lat="43.87194" lon="7.00577">
        <ele>324.5999756</ele>
        <time>2019-12-07T08:48:07Z</time>
      </trkpt>
      <trkpt lat="43.87194" lon="7.00577">
        <ele>324.5999756</ele>
        <time>2019-12-07T08:48:15Z</time>
      </trkpt>
      <trkpt lat="43.87194" lon="7.00577">
        <ele>324.5999756</ele>
        <time>2019-12-07T08:48:25Z</time>
      </trkpt>
      <trkpt lat="43.87194" lon="7.00577">
        <ele>324.5999756</ele>
        <time>2019-12-07T08:48:35Z</time>
      </trkpt>
      <trkpt lat="43.87194" lon="7.00577">
        <ele>324.5999756</ele>
        <time>2019-12-07T08:48:42Z</time>
      </trkpt>
      <trkpt lat="43.87194" lon="7.00577">
        <ele>324.5999756</ele>
        <time>2019-12-07T08:48:58Z</time>
      </trkpt>
      <trkpt lat="43.87194" lon="7.00577">
        <ele>324.5999756</ele>
        <time>2019-12-07T08:49:06Z</time>
      </trkpt>
      <trkpt lat="43.87195" lon="7.00578">
        <ele>324.5999756</ele>
        <time>2019-12-07T08:49:13Z</time>
      </trkpt>
      <trkpt lat="43.87197" lon="7.00579">
        <ele>324.4000244</ele>
        <time>2019-12-07T08:49:14Z</time>
      </trkpt>
      <trkpt lat="43.87203" lon="7.00582">
        <ele>323.7999878</ele>
        <time>2019-12-07T08:49:17Z</time>
      </trkpt>
      <trkpt lat="43.87206" lon="7.00583">
        <ele>323.5999756</ele>
        <time>2019-12-07T08:49:18Z</time>
      </trkpt>
      <trkpt lat="43.87216" lon="7.00589">
        <ele>322.7999878</ele>
        <time>2019-12-07T08:49:22Z</time>
      </trkpt>
      <trkpt lat="43.87223" lon="7.00595">
        <ele>321.7999878</ele>
        <time>2019-12-07T08:49:25Z</time>
      </trkpt>
      <trkpt lat="43.87232" lon="7.00602">
        <ele>320.5999756</ele>
        <time>2019-12-07T08:49:29Z</time>
      </trkpt>
      <trkpt lat="43.87235" lon="7.00603">
        <ele>320.5999756</ele>
        <time>2019-12-07T08:49:31Z</time>
      </trkpt>
      <trkpt lat="43.87237" lon="7.00605">
        <ele>320.7999878</ele>
        <time>2019-12-07T08:49:32Z</time>
      </trkpt>
      <trkpt lat="43.87243" lon="7.00611">
        <ele>320.5999756</ele>
        <time>2019-12-07T08:49:35Z</time>
      </trkpt>
      <trkpt lat="43.87246" lon="7.0061">
        <ele>320</ele>
        <time>2019-12-07T08:49:37Z</time>
      </trkpt>
      <trkpt lat="43.8725" lon="7.00606">
        <ele>320</ele>
        <time>2019-12-07T08:49:39Z</time>
      </trkpt>
      <trkpt lat="43.87255" lon="7.00602">
        <ele>319.5999756</ele>
        <time>2019-12-07T08:49:41Z</time>
      </trkpt>
      <trkpt lat="43.87266" lon="7.00602">
        <ele>320</ele>
        <time>2019-12-07T08:49:45Z</time>
      </trkpt>
      <trkpt lat="43.87281" lon="7.00606">
        <ele>320.7999878</ele>
        <time>2019-12-07T08:49:51Z</time>
      </trkpt>
      <trkpt lat="43.87284" lon="7.00607">
        <ele>321.2000122</ele>
        <time>2019-12-07T08:49:52Z</time>
      </trkpt>
      <trkpt lat="43.8729" lon="7.00607">
        <ele>321.7999878</ele>
        <time>2019-12-07T08:49:54Z</time>
      </trkpt>
      <trkpt lat="43.873" lon="7.00609">
        <ele>323</ele>
        <time>2019-12-07T08:49:58Z</time>
      </trkpt>
      <trkpt lat="43.87314" lon="7.00612">
        <ele>322.5999756</ele>
        <time>2019-12-07T08:50:04Z</time>
      </trkpt>
      <trkpt lat="43.87328" lon="7.00624">
        <ele>322.5999756</ele>
        <time>2019-12-07T08:50:09Z</time>
      </trkpt>
      <trkpt lat="43.87344" lon="7.0065">
        <ele>322.2000122</ele>
        <time>2019-12-07T08:50:16Z</time>
      </trkpt>
      <trkpt lat="43.8735" lon="7.00655">
        <ele>322</ele>
        <time>2019-12-07T08:50:18Z</time>
      </trkpt>
      <trkpt lat="43.87362" lon="7.0066">
        <ele>321.2000122</ele>
        <time>2019-12-07T08:50:22Z</time>
      </trkpt>
      <trkpt lat="43.87375" lon="7.00665">
        <ele>320.7999878</ele>
        <time>2019-12-07T08:50:26Z</time>
      </trkpt>
      <trkpt lat="43.87384" lon="7.00671">
        <ele>320.7999878</ele>
        <time>2019-12-07T08:50:29Z</time>
      </trkpt>
      <trkpt lat="43.87395" lon="7.00687">
        <ele>320.2000122</ele>
        <time>2019-12-07T08:50:34Z</time>
      </trkpt>
      <trkpt lat="43.87407" lon="7.00714">
        <ele>320.2000122</ele>
        <time>2019-12-07T08:50:41Z</time>
      </trkpt>
      <trkpt lat="43.87415" lon="7.00727">
        <ele>319.7999878</ele>
        <time>2019-12-07T08:50:44Z</time>
      </trkpt>
      <trkpt lat="43.87419" lon="7.00737">
        <ele>319.7999878</ele>
        <time>2019-12-07T08:50:46Z</time>
      </trkpt>
      <trkpt lat="43.87432" lon="7.00763">
        <ele>320</ele>
        <time>2019-12-07T08:50:52Z</time>
      </trkpt>
      <trkpt lat="43.87446" lon="7.00795">
        <ele>319.5999756</ele>
        <time>2019-12-07T08:50:59Z</time>
      </trkpt>
      <trkpt lat="43.87459" lon="7.00826">
        <ele>320</ele>
        <time>2019-12-07T08:51:06Z</time>
      </trkpt>
      <trkpt lat="43.87473" lon="7.00862">
        <ele>320.7999878</ele>
        <time>2019-12-07T08:51:14Z</time>
      </trkpt>
      <trkpt lat="43.87476" lon="7.00872">
        <ele>320.7999878</ele>
        <time>2019-12-07T08:51:16Z</time>
      </trkpt>
      <trkpt lat="43.87479" lon="7.00892">
        <ele>321.7999878</ele>
        <time>2019-12-07T08:51:20Z</time>
      </trkpt>
      <trkpt lat="43.87479" lon="7.00897">
        <ele>322.2000122</ele>
        <time>2019-12-07T08:51:21Z</time>
      </trkpt>
      <trkpt lat="43.87484" lon="7.00919">
        <ele>322.5999756</ele>
        <time>2019-12-07T08:51:27Z</time>
      </trkpt>
      <trkpt lat="43.87489" lon="7.00914">
        <ele>322.7999878</ele>
        <time>2019-12-07T08:51:30Z</time>
      </trkpt>
      <trkpt lat="43.87491" lon="7.00909">
        <ele>323</ele>
        <time>2019-12-07T08:51:32Z</time>
      </trkpt>
      <trkpt lat="43.87491" lon="7.00899">
        <ele>323.7999878</ele>
        <time>2019-12-07T08:51:35Z</time>
      </trkpt>
      <trkpt lat="43.8749" lon="7.00895">
        <ele>324.4000244</ele>
        <time>2019-12-07T08:51:36Z</time>
      </trkpt>
      <trkpt lat="43.87489" lon="7.00892">
        <ele>325</ele>
        <time>2019-12-07T08:51:37Z</time>
      </trkpt>
      <trkpt lat="43.87489" lon="7.00885">
        <ele>325.5999756</ele>
        <time>2019-12-07T08:51:39Z</time>
      </trkpt>
      <trkpt lat="43.87488" lon="7.00874">
        <ele>326.5999756</ele>
        <time>2019-12-07T08:51:42Z</time>
      </trkpt>
      <trkpt lat="43.87487" lon="7.0087">
        <ele>327</ele>
        <time>2019-12-07T08:51:43Z</time>
      </trkpt>
      <trkpt lat="43.87486" lon="7.00862">
        <ele>328.4000244</ele>
        <time>2019-12-07T08:51:45Z</time>
      </trkpt>
      <trkpt lat="43.87482" lon="7.0085">
        <ele>329.7999878</ele>
        <time>2019-12-07T08:51:48Z</time>
      </trkpt>
      <trkpt lat="43.87481" lon="7.00847">
        <ele>330</ele>
        <time>2019-12-07T08:51:49Z</time>
      </trkpt>
      <trkpt lat="43.87478" lon="7.00836">
        <ele>330.7999878</ele>
        <time>2019-12-07T08:51:52Z</time>
      </trkpt>
      <trkpt lat="43.87473" lon="7.00821">
        <ele>331.7999878</ele>
        <time>2019-12-07T08:51:56Z</time>
      </trkpt>
      <trkpt lat="43.87469" lon="7.00815">
        <ele>332.2000122</ele>
        <time>2019-12-07T08:51:58Z</time>
      </trkpt>
      <trkpt lat="43.87463" lon="7.00793">
        <ele>333.2000122</ele>
        <time>2019-12-07T08:52:04Z</time>
      </trkpt>
      <trkpt lat="43.87461" lon="7.00789">
        <ele>333.4000244</ele>
        <time>2019-12-07T08:52:05Z</time>
      </trkpt>
      <trkpt lat="43.87457" lon="7.00775">
        <ele>334.5999756</ele>
        <time>2019-12-07T08:52:09Z</time>
      </trkpt>
      <trkpt lat="43.87452" lon="7.0076">
        <ele>335.4000244</ele>
        <time>2019-12-07T08:52:13Z</time>
      </trkpt>
      <trkpt lat="43.87451" lon="7.00757">
        <ele>335.5999756</ele>
        <time>2019-12-07T08:52:14Z</time>
      </trkpt>
      <trkpt lat="43.87444" lon="7.00736">
        <ele>336.5999756</ele>
        <time>2019-12-07T08:52:19Z</time>
      </trkpt>
      <trkpt lat="43.87441" lon="7.00729">
        <ele>337.4000244</ele>
        <time>2019-12-07T08:52:21Z</time>
      </trkpt>
      <trkpt lat="43.87437" lon="7.00718">
        <ele>337.7999878</ele>
        <time>2019-12-07T08:52:24Z</time>
      </trkpt>
      <trkpt lat="43.87433" lon="7.00708">
        <ele>338</ele>
        <time>2019-12-07T08:52:27Z</time>
      </trkpt>
      <trkpt lat="43.87428" lon="7.00695">
        <ele>338.7999878</ele>
        <time>2019-12-07T08:52:31Z</time>
      </trkpt>
      <trkpt lat="43.87423" lon="7.00681">
        <ele>339.2000122</ele>
        <time>2019-12-07T08:52:35Z</time>
      </trkpt>
      <trkpt lat="43.87418" lon="7.00661">
        <ele>340</ele>
        <time>2019-12-07T08:52:41Z</time>
      </trkpt>
      <trkpt lat="43.87418" lon="7.00657">
        <ele>340.4000244</ele>
        <time>2019-12-07T08:52:42Z</time>
      </trkpt>
      <trkpt lat="43.8742" lon="7.00629">
        <ele>341</ele>
        <time>2019-12-07T08:52:50Z</time>
      </trkpt>
      <trkpt lat="43.8742" lon="7.00608">
        <ele>342</ele>
        <time>2019-12-07T08:52:56Z</time>
      </trkpt>
      <trkpt lat="43.87422" lon="7.00596">
        <ele>343</ele>
        <time>2019-12-07T08:52:59Z</time>
      </trkpt>
      <trkpt lat="43.87422" lon="7.00588">
        <ele>343.2000122</ele>
        <time>2019-12-07T08:53:01Z</time>
      </trkpt>
      <trkpt lat="43.87423" lon="7.00569">
        <ele>343.5999756</ele>
        <time>2019-12-07T08:53:06Z</time>
      </trkpt>
      <trkpt lat="43.87423" lon="7.00539">
        <ele>343.7999878</ele>
        <time>2019-12-07T08:53:14Z</time>
      </trkpt>
      <trkpt lat="43.87424" lon="7.00532">
        <ele>344.2000122</ele>
        <time>2019-12-07T08:53:16Z</time>
      </trkpt>
      <trkpt lat="43.87424" lon="7.00514">
        <ele>345</ele>
        <time>2019-12-07T08:53:21Z</time>
      </trkpt>
      <trkpt lat="43.87423" lon="7.00488">
        <ele>345.4000244</ele>
        <time>2019-12-07T08:53:28Z</time>
      </trkpt>
      <trkpt lat="43.87423" lon="7.00465">
        <ele>346.2000122</ele>
        <time>2019-12-07T08:53:34Z</time>
      </trkpt>
      <trkpt lat="43.87423" lon="7.00458">
        <ele>346.4000244</ele>
        <time>2019-12-07T08:53:36Z</time>
      </trkpt>
      <trkpt lat="43.87422" lon="7.00441">
        <ele>346.5999756</ele>
        <time>2019-12-07T08:53:41Z</time>
      </trkpt>
      <trkpt lat="43.87422" lon="7.00414">
        <ele>346.4000244</ele>
        <time>2019-12-07T08:53:48Z</time>
      </trkpt>
      <trkpt lat="43.87422" lon="7.00386">
        <ele>346.4000244</ele>
        <time>2019-12-07T08:53:55Z</time>
      </trkpt>
      <trkpt lat="43.87418" lon="7.00366">
        <ele>345.7999878</ele>
        <time>2019-12-07T08:54:01Z</time>
      </trkpt>
      <trkpt lat="43.87416" lon="7.0034">
        <ele>347.4000244</ele>
        <time>2019-12-07T08:54:09Z</time>
      </trkpt>
      <trkpt lat="43.87416" lon="7.00336">
        <ele>347.5999756</ele>
        <time>2019-12-07T08:54:10Z</time>
      </trkpt>
      <trkpt lat="43.87414" lon="7.00328">
        <ele>348.5999756</ele>
        <time>2019-12-07T08:54:13Z</time>
      </trkpt>
      <trkpt lat="43.87412" lon="7.00319">
        <ele>349</ele>
        <time>2019-12-07T08:54:16Z</time>
      </trkpt>
      <trkpt lat="43.87409" lon="7.00309">
        <ele>349.5999756</ele>
        <time>2019-12-07T08:54:20Z</time>
      </trkpt>
      <trkpt lat="43.87407" lon="7.00298">
        <ele>351.2000122</ele>
        <time>2019-12-07T08:54:24Z</time>
      </trkpt>
      <trkpt lat="43.87406" lon="7.00294">
        <ele>351.5999756</ele>
        <time>2019-12-07T08:54:25Z</time>
      </trkpt>
      <trkpt lat="43.87405" lon="7.00288">
        <ele>352.2000122</ele>
        <time>2019-12-07T08:54:27Z</time>
      </trkpt>
      <trkpt lat="43.87403" lon="7.00279">
        <ele>353.5999756</ele>
        <time>2019-12-07T08:54:30Z</time>
      </trkpt>
      <trkpt lat="43.87402" lon="7.00269">
        <ele>354.5999756</ele>
        <time>2019-12-07T08:54:33Z</time>
      </trkpt>
      <trkpt lat="43.87402" lon="7.00266">
        <ele>354.7999878</ele>
        <time>2019-12-07T08:54:34Z</time>
      </trkpt>
      <trkpt lat="43.874" lon="7.00249">
        <ele>355.7999878</ele>
        <time>2019-12-07T08:54:39Z</time>
      </trkpt>
      <trkpt lat="43.87396" lon="7.00235">
        <ele>357.2000122</ele>
        <time>2019-12-07T08:54:43Z</time>
      </trkpt>
      <trkpt lat="43.87394" lon="7.00225">
        <ele>358.2000122</ele>
        <time>2019-12-07T08:54:46Z</time>
      </trkpt>
      <trkpt lat="43.87394" lon="7.00222">
        <ele>358.5999756</ele>
        <time>2019-12-07T08:54:47Z</time>
      </trkpt>
      <trkpt lat="43.87393" lon="7.00212">
        <ele>359.2000122</ele>
        <time>2019-12-07T08:54:50Z</time>
      </trkpt>
      <trkpt lat="43.87392" lon="7.002">
        <ele>359.7999878</ele>
        <time>2019-12-07T08:54:54Z</time>
      </trkpt>
      <trkpt lat="43.87394" lon="7.00175">
        <ele>359.4000244</ele>
        <time>2019-12-07T08:55:02Z</time>
      </trkpt>
      <trkpt lat="43.87395" lon="7.00154">
        <ele>360.2000122</ele>
        <time>2019-12-07T08:55:08Z</time>
      </trkpt>
      <trkpt lat="43.87396" lon="7.00151">
        <ele>360.2000122</ele>
        <time>2019-12-07T08:55:09Z</time>
      </trkpt>
      <trkpt lat="43.87398" lon="7.00142">
        <ele>359.2000122</ele>
        <time>2019-12-07T08:55:12Z</time>
      </trkpt>
      <trkpt lat="43.87403" lon="7.00132">
        <ele>358.4000244</ele>
        <time>2019-12-07T08:55:16Z</time>
      </trkpt>
      <trkpt lat="43.87419" lon="7.0012">
        <ele>358.4000244</ele>
        <time>2019-12-07T08:55:24Z</time>
      </trkpt>
      <trkpt lat="43.87431" lon="7.00102">
        <ele>358.7999878</ele>
        <time>2019-12-07T08:55:31Z</time>
      </trkpt>
      <trkpt lat="43.87441" lon="7.00079">
        <ele>359</ele>
        <time>2019-12-07T08:55:39Z</time>
      </trkpt>
      <trkpt lat="43.8745" lon="7.00053">
        <ele>360</ele>
        <time>2019-12-07T08:55:48Z</time>
      </trkpt>
      <trkpt lat="43.87451" lon="7.00051">
        <ele>360.4000244</ele>
        <time>2019-12-07T08:55:49Z</time>
      </trkpt>
      <trkpt lat="43.8746" lon="7.00045">
        <ele>361</ele>
        <time>2019-12-07T08:55:54Z</time>
      </trkpt>
      <trkpt lat="43.87468" lon="7.00053">
        <ele>361.2000122</ele>
        <time>2019-12-07T08:55:59Z</time>
      </trkpt>
      <trkpt lat="43.8747" lon="7.00058">
        <ele>361.4000244</ele>
        <time>2019-12-07T08:56:01Z</time>
      </trkpt>
      <trkpt lat="43.8747" lon="7.0007">
        <ele>361.7999878</ele>
        <time>2019-12-07T08:56:05Z</time>
      </trkpt>
      <trkpt lat="43.87467" lon="7.00094">
        <ele>362.7999878</ele>
        <time>2019-12-07T08:56:13Z</time>
      </trkpt>
      <trkpt lat="43.87465" lon="7.00123">
        <ele>363</ele>
        <time>2019-12-07T08:56:22Z</time>
      </trkpt>
      <trkpt lat="43.87467" lon="7.00142">
        <ele>363.5999756</ele>
        <time>2019-12-07T08:56:29Z</time>
      </trkpt>
      <trkpt lat="43.87467" lon="7.0015">
        <ele>364</ele>
        <time>2019-12-07T08:56:32Z</time>
      </trkpt>
      <trkpt lat="43.87467" lon="7.00161">
        <ele>365.2000122</ele>
        <time>2019-12-07T08:56:36Z</time>
      </trkpt>
      <trkpt lat="43.87468" lon="7.00175">
        <ele>366.4000244</ele>
        <time>2019-12-07T08:56:41Z</time>
      </trkpt>
      <trkpt lat="43.87468" lon="7.00178">
        <ele>366.5999756</ele>
        <time>2019-12-07T08:56:42Z</time>
      </trkpt>
      <trkpt lat="43.87468" lon="7.00197">
        <ele>367.4000244</ele>
        <time>2019-12-07T08:56:50Z</time>
      </trkpt>
      <trkpt lat="43.87468" lon="7.002">
        <ele>367.5999756</ele>
        <time>2019-12-07T08:56:51Z</time>
      </trkpt>
      <trkpt lat="43.87469" lon="7.00219">
        <ele>368</ele>
        <time>2019-12-07T08:56:58Z</time>
      </trkpt>
      <trkpt lat="43.87469" lon="7.00222">
        <ele>368.4000244</ele>
        <time>2019-12-07T08:56:59Z</time>
      </trkpt>
      <trkpt lat="43.87471" lon="7.0023">
        <ele>369.7999878</ele>
        <time>2019-12-07T08:57:02Z</time>
      </trkpt>
      <trkpt lat="43.87473" lon="7.00235">
        <ele>370.2000122</ele>
        <time>2019-12-07T08:57:04Z</time>
      </trkpt>
      <trkpt lat="43.87476" lon="7.00241">
        <ele>370.7999878</ele>
        <time>2019-12-07T08:57:07Z</time>
      </trkpt>
      <trkpt lat="43.87484" lon="7.0025">
        <ele>371.7999878</ele>
        <time>2019-12-07T08:57:12Z</time>
      </trkpt>
      <trkpt lat="43.87493" lon="7.00261">
        <ele>373.2000122</ele>
        <time>2019-12-07T08:57:18Z</time>
      </trkpt>
      <trkpt lat="43.87496" lon="7.00265">
        <ele>373.7999878</ele>
        <time>2019-12-07T08:57:20Z</time>
      </trkpt>
      <trkpt lat="43.875" lon="7.00268">
        <ele>374.4000244</ele>
        <time>2019-12-07T08:57:22Z</time>
      </trkpt>
      <trkpt lat="43.87503" lon="7.00271">
        <ele>375.4000244</ele>
        <time>2019-12-07T08:57:24Z</time>
      </trkpt>
      <trkpt lat="43.87505" lon="7.00273">
        <ele>375.7999878</ele>
        <time>2019-12-07T08:57:25Z</time>
      </trkpt>
      <trkpt lat="43.87511" lon="7.00281">
        <ele>376.4000244</ele>
        <time>2019-12-07T08:57:29Z</time>
      </trkpt>
      <trkpt lat="43.87517" lon="7.0029">
        <ele>377.5999756</ele>
        <time>2019-12-07T08:57:33Z</time>
      </trkpt>
      <trkpt lat="43.87521" lon="7.00299">
        <ele>378.5999756</ele>
        <time>2019-12-07T08:57:37Z</time>
      </trkpt>
      <trkpt lat="43.87525" lon="7.00307">
        <ele>380</ele>
        <time>2019-12-07T08:57:40Z</time>
      </trkpt>
      <trkpt lat="43.87527" lon="7.00314">
        <ele>381.4000244</ele>
        <time>2019-12-07T08:57:43Z</time>
      </trkpt>
      <trkpt lat="43.8753" lon="7.00322">
        <ele>382.4000244</ele>
        <time>2019-12-07T08:57:46Z</time>
      </trkpt>
      <trkpt lat="43.87534" lon="7.00333">
        <ele>383</ele>
        <time>2019-12-07T08:57:50Z</time>
      </trkpt>
      <trkpt lat="43.87541" lon="7.0035">
        <ele>383</ele>
        <time>2019-12-07T08:57:57Z</time>
      </trkpt>
      <trkpt lat="43.87548" lon="7.00364">
        <ele>383.2000122</ele>
        <time>2019-12-07T08:58:03Z</time>
      </trkpt>
      <trkpt lat="43.87551" lon="7.00369">
        <ele>383.4000244</ele>
        <time>2019-12-07T08:58:05Z</time>
      </trkpt>
      <trkpt lat="43.87557" lon="7.00384">
        <ele>384.5999756</ele>
        <time>2019-12-07T08:58:11Z</time>
      </trkpt>
      <trkpt lat="43.87565" lon="7.00401">
        <ele>385.4000244</ele>
        <time>2019-12-07T08:58:18Z</time>
      </trkpt>
      <trkpt lat="43.87567" lon="7.00406">
        <ele>385.5999756</ele>
        <time>2019-12-07T08:58:20Z</time>
      </trkpt>
      <trkpt lat="43.87572" lon="7.00419">
        <ele>387</ele>
        <time>2019-12-07T08:58:25Z</time>
      </trkpt>
      <trkpt lat="43.87578" lon="7.0044">
        <ele>387.5999756</ele>
        <time>2019-12-07T08:58:33Z</time>
      </trkpt>
      <trkpt lat="43.87582" lon="7.0046">
        <ele>387.5999756</ele>
        <time>2019-12-07T08:58:40Z</time>
      </trkpt>
      <trkpt lat="43.87586" lon="7.00468">
        <ele>388.2000122</ele>
        <time>2019-12-07T08:58:43Z</time>
      </trkpt>
      <trkpt lat="43.87591" lon="7.00472">
        <ele>388.2000122</ele>
        <time>2019-12-07T08:58:46Z</time>
      </trkpt>
      <trkpt lat="43.87599" lon="7.00465">
        <ele>389.2000122</ele>
        <time>2019-12-07T08:58:51Z</time>
      </trkpt>
      <trkpt lat="43.87602" lon="7.00448">
        <ele>389.2000122</ele>
        <time>2019-12-07T08:58:57Z</time>
      </trkpt>
      <trkpt lat="43.87597" lon="7.00437">
        <ele>390.4000244</ele>
        <time>2019-12-07T08:59:02Z</time>
      </trkpt>
      <trkpt lat="43.87594" lon="7.00428">
        <ele>391.4000244</ele>
        <time>2019-12-07T08:59:05Z</time>
      </trkpt>
      <trkpt lat="43.87591" lon="7.00421">
        <ele>392</ele>
        <time>2019-12-07T08:59:07Z</time>
      </trkpt>
      <trkpt lat="43.8759" lon="7.00418">
        <ele>392.4000244</ele>
        <time>2019-12-07T08:59:08Z</time>
      </trkpt>
      <trkpt lat="43.87587" lon="7.00408">
        <ele>393.7999878</ele>
        <time>2019-12-07T08:59:11Z</time>
      </trkpt>
      <trkpt lat="43.87585" lon="7.00392">
        <ele>394.5999756</ele>
        <time>2019-12-07T08:59:16Z</time>
      </trkpt>
      <trkpt lat="43.87581" lon="7.00375">
        <ele>394.7999878</ele>
        <time>2019-12-07T08:59:22Z</time>
      </trkpt>
      <trkpt lat="43.8758" lon="7.00371">
        <ele>394.7999878</ele>
        <time>2019-12-07T08:59:23Z</time>
      </trkpt>
      <trkpt lat="43.87575" lon="7.00354">
        <ele>395.7999878</ele>
        <time>2019-12-07T08:59:29Z</time>
      </trkpt>
      <trkpt lat="43.87574" lon="7.00351">
        <ele>395.7999878</ele>
        <time>2019-12-07T08:59:30Z</time>
      </trkpt>
      <trkpt lat="43.87574" lon="7.00334">
        <ele>396.7999878</ele>
        <time>2019-12-07T08:59:36Z</time>
      </trkpt>
      <trkpt lat="43.87578" lon="7.00341">
        <ele>396.4000244</ele>
        <time>2019-12-07T08:59:39Z</time>
      </trkpt>
      <trkpt lat="43.87579" lon="7.00344">
        <ele>396.4000244</ele>
        <time>2019-12-07T08:59:40Z</time>
      </trkpt>
      <trkpt lat="43.87584" lon="7.00358">
        <ele>396.5999756</ele>
        <time>2019-12-07T08:59:45Z</time>
      </trkpt>
      <trkpt lat="43.8759" lon="7.00374">
        <ele>396.2000122</ele>
        <time>2019-12-07T08:59:51Z</time>
      </trkpt>
      <trkpt lat="43.87597" lon="7.00388">
        <ele>396.7999878</ele>
        <time>2019-12-07T08:59:57Z</time>
      </trkpt>
      <trkpt lat="43.87598" lon="7.00391">
        <ele>397.2000122</ele>
        <time>2019-12-07T08:59:58Z</time>
      </trkpt>
      <trkpt lat="43.87606" lon="7.00407">
        <ele>398</ele>
        <time>2019-12-07T09:00:05Z</time>
      </trkpt>
      <trkpt lat="43.87608" lon="7.00409">
        <ele>398.2000122</ele>
        <time>2019-12-07T09:00:06Z</time>
      </trkpt>
      <trkpt lat="43.87611" lon="7.00418">
        <ele>399.4000244</ele>
        <time>2019-12-07T09:00:09Z</time>
      </trkpt>
      <trkpt lat="43.87614" lon="7.00424">
        <ele>399.5999756</ele>
        <time>2019-12-07T09:00:11Z</time>
      </trkpt>
      <trkpt lat="43.87617" lon="7.00442">
        <ele>400.4000244</ele>
        <time>2019-12-07T09:00:17Z</time>
      </trkpt>
      <trkpt lat="43.87618" lon="7.00466">
        <ele>401</ele>
        <time>2019-12-07T09:00:25Z</time>
      </trkpt>
      <trkpt lat="43.87619" lon="7.00477">
        <ele>401.5999756</ele>
        <time>2019-12-07T09:00:29Z</time>
      </trkpt>
      <trkpt lat="43.8762" lon="7.00491">
        <ele>402.2000122</ele>
        <time>2019-12-07T09:00:34Z</time>
      </trkpt>
      <trkpt lat="43.8762" lon="7.005">
        <ele>402.7999878</ele>
        <time>2019-12-07T09:00:37Z</time>
      </trkpt>
      <trkpt lat="43.87622" lon="7.00514">
        <ele>403.5999756</ele>
        <time>2019-12-07T09:00:42Z</time>
      </trkpt>
      <trkpt lat="43.87622" lon="7.00517">
        <ele>403.7999878</ele>
        <time>2019-12-07T09:00:43Z</time>
      </trkpt>
      <trkpt lat="43.87625" lon="7.00536">
        <ele>404.7999878</ele>
        <time>2019-12-07T09:00:50Z</time>
      </trkpt>
      <trkpt lat="43.87625" lon="7.00539">
        <ele>405.2000122</ele>
        <time>2019-12-07T09:00:51Z</time>
      </trkpt>
      <trkpt lat="43.87627" lon="7.00555">
        <ele>406</ele>
        <time>2019-12-07T09:00:57Z</time>
      </trkpt>
      <trkpt lat="43.87629" lon="7.00563">
        <ele>406.5999756</ele>
        <time>2019-12-07T09:01:00Z</time>
      </trkpt>
      <trkpt lat="43.8763" lon="7.00568">
        <ele>407</ele>
        <time>2019-12-07T09:01:02Z</time>
      </trkpt>
      <trkpt lat="43.87632" lon="7.00585">
        <ele>407.5999756</ele>
        <time>2019-12-07T09:01:08Z</time>
      </trkpt>
      <trkpt lat="43.87634" lon="7.00596">
        <ele>408.2000122</ele>
        <time>2019-12-07T09:01:12Z</time>
      </trkpt>
      <trkpt lat="43.87637" lon="7.00604">
        <ele>409</ele>
        <time>2019-12-07T09:01:15Z</time>
      </trkpt>
      <trkpt lat="43.87638" lon="7.00606">
        <ele>409.2000122</ele>
        <time>2019-12-07T09:01:16Z</time>
      </trkpt>
      <trkpt lat="43.87645" lon="7.0062">
        <ele>410.4000244</ele>
        <time>2019-12-07T09:01:22Z</time>
      </trkpt>
      <trkpt lat="43.8765" lon="7.00629">
        <ele>411.5999756</ele>
        <time>2019-12-07T09:01:26Z</time>
      </trkpt>
      <trkpt lat="43.87656" lon="7.00638">
        <ele>412</ele>
        <time>2019-12-07T09:01:30Z</time>
      </trkpt>
      <trkpt lat="43.87661" lon="7.00647">
        <ele>412.5999756</ele>
        <time>2019-12-07T09:01:34Z</time>
      </trkpt>
      <trkpt lat="43.87666" lon="7.00653">
        <ele>413.4000244</ele>
        <time>2019-12-07T09:01:37Z</time>
      </trkpt>
      <trkpt lat="43.87669" lon="7.00656">
        <ele>413.5999756</ele>
        <time>2019-12-07T09:01:39Z</time>
      </trkpt>
      <trkpt lat="43.87676" lon="7.00674">
        <ele>414.5999756</ele>
        <time>2019-12-07T09:01:46Z</time>
      </trkpt>
      <trkpt lat="43.87677" lon="7.00676">
        <ele>414.5999756</ele>
        <time>2019-12-07T09:01:47Z</time>
      </trkpt>
      <trkpt lat="43.87683" lon="7.00693">
        <ele>415.4000244</ele>
        <time>2019-12-07T09:01:54Z</time>
      </trkpt>
      <trkpt lat="43.87687" lon="7.00702">
        <ele>415.5999756</ele>
        <time>2019-12-07T09:01:57Z</time>
      </trkpt>
      <trkpt lat="43.8769" lon="7.00711">
        <ele>415.5999756</ele>
        <time>2019-12-07T09:02:00Z</time>
      </trkpt>
      <trkpt lat="43.87696" lon="7.00732">
        <ele>416</ele>
        <time>2019-12-07T09:02:06Z</time>
      </trkpt>
      <trkpt lat="43.87704" lon="7.00746">
        <ele>416.5999756</ele>
        <time>2019-12-07T09:02:12Z</time>
      </trkpt>
      <trkpt lat="43.87705" lon="7.00749">
        <ele>416.7999878</ele>
        <time>2019-12-07T09:02:13Z</time>
      </trkpt>
      <trkpt lat="43.8771" lon="7.00764">
        <ele>417.7999878</ele>
        <time>2019-12-07T09:02:18Z</time>
      </trkpt>
      <trkpt lat="43.87713" lon="7.00771">
        <ele>418.5999756</ele>
        <time>2019-12-07T09:02:21Z</time>
      </trkpt>
      <trkpt lat="43.87713" lon="7.00773">
        <ele>418.7999878</ele>
        <time>2019-12-07T09:02:22Z</time>
      </trkpt>
      <trkpt lat="43.8772" lon="7.00792">
        <ele>419.5999756</ele>
        <time>2019-12-07T09:02:29Z</time>
      </trkpt>
      <trkpt lat="43.87721" lon="7.00797">
        <ele>420</ele>
        <time>2019-12-07T09:02:31Z</time>
      </trkpt>
      <trkpt lat="43.87726" lon="7.00811">
        <ele>420.7999878</ele>
        <time>2019-12-07T09:02:36Z</time>
      </trkpt>
      <trkpt lat="43.87728" lon="7.00817">
        <ele>421.2000122</ele>
        <time>2019-12-07T09:02:38Z</time>
      </trkpt>
      <trkpt lat="43.87731" lon="7.00829">
        <ele>422</ele>
        <time>2019-12-07T09:02:43Z</time>
      </trkpt>
      <trkpt lat="43.87733" lon="7.00834">
        <ele>422.2000122</ele>
        <time>2019-12-07T09:02:45Z</time>
      </trkpt>
      <trkpt lat="43.87738" lon="7.00847">
        <ele>423.4000244</ele>
        <time>2019-12-07T09:02:50Z</time>
      </trkpt>
      <trkpt lat="43.87744" lon="7.00862">
        <ele>424.5999756</ele>
        <time>2019-12-07T09:02:56Z</time>
      </trkpt>
      <trkpt lat="43.87745" lon="7.00865">
        <ele>424.7999878</ele>
        <time>2019-12-07T09:02:57Z</time>
      </trkpt>
      <trkpt lat="43.87749" lon="7.00871">
        <ele>425.7999878</ele>
        <time>2019-12-07T09:03:00Z</time>
      </trkpt>
      <trkpt lat="43.87756" lon="7.00878">
        <ele>426.5999756</ele>
        <time>2019-12-07T09:03:04Z</time>
      </trkpt>
      <trkpt lat="43.87758" lon="7.00879">
        <ele>427</ele>
        <time>2019-12-07T09:03:05Z</time>
      </trkpt>
      <trkpt lat="43.87768" lon="7.00887">
        <ele>428</ele>
        <time>2019-12-07T09:03:11Z</time>
      </trkpt>
      <trkpt lat="43.8777" lon="7.00887">
        <ele>428.4000244</ele>
        <time>2019-12-07T09:03:12Z</time>
      </trkpt>
      <trkpt lat="43.87778" lon="7.00893">
        <ele>429.4000244</ele>
        <time>2019-12-07T09:03:18Z</time>
      </trkpt>
      <trkpt lat="43.87787" lon="7.00901">
        <ele>430.2000122</ele>
        <time>2019-12-07T09:03:24Z</time>
      </trkpt>
      <trkpt lat="43.87789" lon="7.00903">
        <ele>430.5999756</ele>
        <time>2019-12-07T09:03:25Z</time>
      </trkpt>
      <trkpt lat="43.878" lon="7.00908">
        <ele>431.5999756</ele>
        <time>2019-12-07T09:03:30Z</time>
      </trkpt>
      <trkpt lat="43.87813" lon="7.00916">
        <ele>432.5999756</ele>
        <time>2019-12-07T09:03:36Z</time>
      </trkpt>
      <trkpt lat="43.87829" lon="7.00926">
        <ele>433</ele>
        <time>2019-12-07T09:03:44Z</time>
      </trkpt>
      <trkpt lat="43.87843" lon="7.00935">
        <ele>433.2000122</ele>
        <time>2019-12-07T09:03:51Z</time>
      </trkpt>
      <trkpt lat="43.87859" lon="7.00942">
        <ele>432.5999756</ele>
        <time>2019-12-07T09:03:58Z</time>
      </trkpt>
      <trkpt lat="43.87872" lon="7.00947">
        <ele>432.7999878</ele>
        <time>2019-12-07T09:04:04Z</time>
      </trkpt>
      <trkpt lat="43.87885" lon="7.00959">
        <ele>432.2000122</ele>
        <time>2019-12-07T09:04:11Z</time>
      </trkpt>
      <trkpt lat="43.87887" lon="7.00974">
        <ele>432.4000244</ele>
        <time>2019-12-07T09:04:16Z</time>
      </trkpt>
      <trkpt lat="43.87885" lon="7.00986">
        <ele>433.4000244</ele>
        <time>2019-12-07T09:04:20Z</time>
      </trkpt>
      <trkpt lat="43.87884" lon="7.00988">
        <ele>433.7999878</ele>
        <time>2019-12-07T09:04:21Z</time>
      </trkpt>
      <trkpt lat="43.87882" lon="7.00993">
        <ele>434.2000122</ele>
        <time>2019-12-07T09:04:23Z</time>
      </trkpt>
      <trkpt lat="43.8788" lon="7.01004">
        <ele>434.7999878</ele>
        <time>2019-12-07T09:04:27Z</time>
      </trkpt>
      <trkpt lat="43.87878" lon="7.01011">
        <ele>435</ele>
        <time>2019-12-07T09:04:30Z</time>
      </trkpt>
      <trkpt lat="43.87874" lon="7.01021">
        <ele>436</ele>
        <time>2019-12-07T09:04:34Z</time>
      </trkpt>
      <trkpt lat="43.87872" lon="7.01025">
        <ele>436</ele>
        <time>2019-12-07T09:04:36Z</time>
      </trkpt>
      <trkpt lat="43.87868" lon="7.01032">
        <ele>435.7999878</ele>
        <time>2019-12-07T09:04:39Z</time>
      </trkpt>
      <trkpt lat="43.87862" lon="7.0104">
        <ele>436.4000244</ele>
        <time>2019-12-07T09:04:43Z</time>
      </trkpt>
      <trkpt lat="43.87853" lon="7.01048">
        <ele>437</ele>
        <time>2019-12-07T09:04:48Z</time>
      </trkpt>
      <trkpt lat="43.87851" lon="7.01051">
        <ele>437</ele>
        <time>2019-12-07T09:04:50Z</time>
      </trkpt>
      <trkpt lat="43.8784" lon="7.01068">
        <ele>438</ele>
        <time>2019-12-07T09:04:58Z</time>
      </trkpt>
      <trkpt lat="43.87839" lon="7.01071">
        <ele>438.2000122</ele>
        <time>2019-12-07T09:04:59Z</time>
      </trkpt>
      <trkpt lat="43.87837" lon="7.01088">
        <ele>437.4000244</ele>
        <time>2019-12-07T09:05:05Z</time>
      </trkpt>
      <trkpt lat="43.8784" lon="7.01105">
        <ele>438.4000244</ele>
        <time>2019-12-07T09:05:12Z</time>
      </trkpt>
      <trkpt lat="43.87847" lon="7.01127">
        <ele>439.2000122</ele>
        <time>2019-12-07T09:05:21Z</time>
      </trkpt>
      <trkpt lat="43.87852" lon="7.01145">
        <ele>440</ele>
        <time>2019-12-07T09:05:28Z</time>
      </trkpt>
      <trkpt lat="43.87852" lon="7.01148">
        <ele>440.4000244</ele>
        <time>2019-12-07T09:05:29Z</time>
      </trkpt>
      <trkpt lat="43.87852" lon="7.01164">
        <ele>440.7999878</ele>
        <time>2019-12-07T09:05:34Z</time>
      </trkpt>
      <trkpt lat="43.87851" lon="7.01173">
        <ele>441.4000244</ele>
        <time>2019-12-07T09:05:37Z</time>
      </trkpt>
      <trkpt lat="43.87848" lon="7.01185">
        <ele>441.7999878</ele>
        <time>2019-12-07T09:05:41Z</time>
      </trkpt>
      <trkpt lat="43.87841" lon="7.01205">
        <ele>442</ele>
        <time>2019-12-07T09:05:48Z</time>
      </trkpt>
      <trkpt lat="43.87837" lon="7.01223">
        <ele>442.5999756</ele>
        <time>2019-12-07T09:05:54Z</time>
      </trkpt>
      <trkpt lat="43.87837" lon="7.01226">
        <ele>442.7999878</ele>
        <time>2019-12-07T09:05:55Z</time>
      </trkpt>
      <trkpt lat="43.87838" lon="7.01232">
        <ele>443.7999878</ele>
        <time>2019-12-07T09:05:58Z</time>
      </trkpt>
      <trkpt lat="43.87841" lon="7.01243">
        <ele>445</ele>
        <time>2019-12-07T09:06:02Z</time>
      </trkpt>
      <trkpt lat="43.87841" lon="7.01245">
        <ele>445.4000244</ele>
        <time>2019-12-07T09:06:03Z</time>
      </trkpt>
      <trkpt lat="43.87847" lon="7.01261">
        <ele>446.2000122</ele>
        <time>2019-12-07T09:06:10Z</time>
      </trkpt>
      <trkpt lat="43.87848" lon="7.01263">
        <ele>446.5999756</ele>
        <time>2019-12-07T09:06:11Z</time>
      </trkpt>
      <trkpt lat="43.8785" lon="7.01267">
        <ele>447.5999756</ele>
        <time>2019-12-07T09:06:13Z</time>
      </trkpt>
      <trkpt lat="43.87855" lon="7.01279">
        <ele>448.5999756</ele>
        <time>2019-12-07T09:06:18Z</time>
      </trkpt>
      <trkpt lat="43.87856" lon="7.01299">
        <ele>449.2000122</ele>
        <time>2019-12-07T09:06:26Z</time>
      </trkpt>
      <trkpt lat="43.87851" lon="7.01311">
        <ele>449.4000244</ele>
        <time>2019-12-07T09:06:31Z</time>
      </trkpt>
      <trkpt lat="43.8785" lon="7.01314">
        <ele>449.4000244</ele>
        <time>2019-12-07T09:06:32Z</time>
      </trkpt>
      <trkpt lat="43.87844" lon="7.01323">
        <ele>449.7999878</ele>
        <time>2019-12-07T09:06:35Z</time>
      </trkpt>
      <trkpt lat="43.87841" lon="7.01335">
        <ele>450.2000122</ele>
        <time>2019-12-07T09:06:39Z</time>
      </trkpt>
      <trkpt lat="43.8784" lon="7.01351">
        <ele>450.7999878</ele>
        <time>2019-12-07T09:06:44Z</time>
      </trkpt>
      <trkpt lat="43.87841" lon="7.01358">
        <ele>451.2000122</ele>
        <time>2019-12-07T09:06:46Z</time>
      </trkpt>
      <trkpt lat="43.87842" lon="7.01361">
        <ele>451.7999878</ele>
        <time>2019-12-07T09:06:47Z</time>
      </trkpt>
      <trkpt lat="43.87848" lon="7.01382">
        <ele>452.5999756</ele>
        <time>2019-12-07T09:06:55Z</time>
      </trkpt>
      <trkpt lat="43.87849" lon="7.01385">
        <ele>453</ele>
        <time>2019-12-07T09:06:56Z</time>
      </trkpt>
      <trkpt lat="43.87851" lon="7.01392">
        <ele>454.5999756</ele>
        <time>2019-12-07T09:06:59Z</time>
      </trkpt>
      <trkpt lat="43.87856" lon="7.01403">
        <ele>455.7999878</ele>
        <time>2019-12-07T09:07:03Z</time>
      </trkpt>
      <trkpt lat="43.87867" lon="7.01424">
        <ele>456.7999878</ele>
        <time>2019-12-07T09:07:12Z</time>
      </trkpt>
      <trkpt lat="43.87871" lon="7.01431">
        <ele>457.7999878</ele>
        <time>2019-12-07T09:07:15Z</time>
      </trkpt>
      <trkpt lat="43.87875" lon="7.01438">
        <ele>459</ele>
        <time>2019-12-07T09:07:18Z</time>
      </trkpt>
      <trkpt lat="43.87878" lon="7.01443">
        <ele>459.4000244</ele>
        <time>2019-12-07T09:07:20Z</time>
      </trkpt>
      <trkpt lat="43.87885" lon="7.01455">
        <ele>460.2000122</ele>
        <time>2019-12-07T09:07:25Z</time>
      </trkpt>
      <trkpt lat="43.87889" lon="7.01467">
        <ele>461.4000244</ele>
        <time>2019-12-07T09:07:29Z</time>
      </trkpt>
      <trkpt lat="43.8789" lon="7.01475">
        <ele>462.4000244</ele>
        <time>2019-12-07T09:07:32Z</time>
      </trkpt>
      <trkpt lat="43.8789" lon="7.01483">
        <ele>463</ele>
        <time>2019-12-07T09:07:35Z</time>
      </trkpt>
      <trkpt lat="43.87891" lon="7.01486">
        <ele>463.5999756</ele>
        <time>2019-12-07T09:07:36Z</time>
      </trkpt>
      <trkpt lat="43.87891" lon="7.01504">
        <ele>464.2000122</ele>
        <time>2019-12-07T09:07:42Z</time>
      </trkpt>
      <trkpt lat="43.87889" lon="7.01526">
        <ele>464.5999756</ele>
        <time>2019-12-07T09:07:49Z</time>
      </trkpt>
      <trkpt lat="43.87892" lon="7.01544">
        <ele>464.4000244</ele>
        <time>2019-12-07T09:07:55Z</time>
      </trkpt>
      <trkpt lat="43.87895" lon="7.01551">
        <ele>464.5999756</ele>
        <time>2019-12-07T09:07:58Z</time>
      </trkpt>
      <trkpt lat="43.87896" lon="7.01553">
        <ele>465.4000244</ele>
        <time>2019-12-07T09:07:59Z</time>
      </trkpt>
      <trkpt lat="43.87897" lon="7.01556">
        <ele>465.7999878</ele>
        <time>2019-12-07T09:08:00Z</time>
      </trkpt>
      <trkpt lat="43.87897" lon="7.01558">
        <ele>466.4000244</ele>
        <time>2019-12-07T09:08:01Z</time>
      </trkpt>
      <trkpt lat="43.879" lon="7.01563">
        <ele>467.2000122</ele>
        <time>2019-12-07T09:08:03Z</time>
      </trkpt>
      <trkpt lat="43.87905" lon="7.01575">
        <ele>468</ele>
        <time>2019-12-07T09:08:08Z</time>
      </trkpt>
      <trkpt lat="43.87906" lon="7.01578">
        <ele>468.7999878</ele>
        <time>2019-12-07T09:08:09Z</time>
      </trkpt>
      <trkpt lat="43.8791" lon="7.01593">
        <ele>469.7999878</ele>
        <time>2019-12-07T09:08:14Z</time>
      </trkpt>
      <trkpt lat="43.87911" lon="7.01596">
        <ele>470</ele>
        <time>2019-12-07T09:08:15Z</time>
      </trkpt>
      <trkpt lat="43.87915" lon="7.01603">
        <ele>470.7999878</ele>
        <time>2019-12-07T09:08:18Z</time>
      </trkpt>
      <trkpt lat="43.8792" lon="7.01609">
        <ele>471.7999878</ele>
        <time>2019-12-07T09:08:21Z</time>
      </trkpt>
      <trkpt lat="43.87922" lon="7.01611">
        <ele>472.2000122</ele>
        <time>2019-12-07T09:08:22Z</time>
      </trkpt>
      <trkpt lat="43.87929" lon="7.01621">
        <ele>473</ele>
        <time>2019-12-07T09:08:26Z</time>
      </trkpt>
      <trkpt lat="43.87932" lon="7.01629">
        <ele>473.2000122</ele>
        <time>2019-12-07T09:08:29Z</time>
      </trkpt>
      <trkpt lat="43.87933" lon="7.01648">
        <ele>474</ele>
        <time>2019-12-07T09:08:35Z</time>
      </trkpt>
      <trkpt lat="43.87933" lon="7.01651">
        <ele>474.2000122</ele>
        <time>2019-12-07T09:08:36Z</time>
      </trkpt>
      <trkpt lat="43.87939" lon="7.01662">
        <ele>474.7999878</ele>
        <time>2019-12-07T09:08:41Z</time>
      </trkpt>
      <trkpt lat="43.87943" lon="7.01665">
        <ele>475.2000122</ele>
        <time>2019-12-07T09:08:43Z</time>
      </trkpt>
      <trkpt lat="43.87951" lon="7.01669">
        <ele>476.2000122</ele>
        <time>2019-12-07T09:08:48Z</time>
      </trkpt>
      <trkpt lat="43.8796" lon="7.01671">
        <ele>477.2000122</ele>
        <time>2019-12-07T09:08:52Z</time>
      </trkpt>
      <trkpt lat="43.87968" lon="7.01678">
        <ele>478</ele>
        <time>2019-12-07T09:08:56Z</time>
      </trkpt>
      <trkpt lat="43.8797" lon="7.01681">
        <ele>478.2000122</ele>
        <time>2019-12-07T09:08:57Z</time>
      </trkpt>
      <trkpt lat="43.87975" lon="7.01694">
        <ele>478.5999756</ele>
        <time>2019-12-07T09:09:02Z</time>
      </trkpt>
      <trkpt lat="43.87971" lon="7.01713">
        <ele>478.4000244</ele>
        <time>2019-12-07T09:09:08Z</time>
      </trkpt>
      <trkpt lat="43.87974" lon="7.01729">
        <ele>478.7999878</ele>
        <time>2019-12-07T09:09:14Z</time>
      </trkpt>
      <trkpt lat="43.87979" lon="7.01745">
        <ele>479.5999756</ele>
        <time>2019-12-07T09:09:20Z</time>
      </trkpt>
      <trkpt lat="43.87983" lon="7.01768">
        <ele>480.4000244</ele>
        <time>2019-12-07T09:09:28Z</time>
      </trkpt>
      <trkpt lat="43.87983" lon="7.01773">
        <ele>480.7999878</ele>
        <time>2019-12-07T09:09:30Z</time>
      </trkpt>
      <trkpt lat="43.87984" lon="7.01792">
        <ele>481.5999756</ele>
        <time>2019-12-07T09:09:36Z</time>
      </trkpt>
      <trkpt lat="43.87985" lon="7.01797">
        <ele>481.7999878</ele>
        <time>2019-12-07T09:09:38Z</time>
      </trkpt>
      <trkpt lat="43.87987" lon="7.01805">
        <ele>482.7999878</ele>
        <time>2019-12-07T09:09:41Z</time>
      </trkpt>
      <trkpt lat="43.87989" lon="7.0181">
        <ele>483.2000122</ele>
        <time>2019-12-07T09:09:43Z</time>
      </trkpt>
      <trkpt lat="43.87997" lon="7.01821">
        <ele>483.7999878</ele>
        <time>2019-12-07T09:09:48Z</time>
      </trkpt>
      <trkpt lat="43.87999" lon="7.01822">
        <ele>484</ele>
        <time>2019-12-07T09:09:49Z</time>
      </trkpt>
      <trkpt lat="43.88005" lon="7.0183">
        <ele>485.4000244</ele>
        <time>2019-12-07T09:09:53Z</time>
      </trkpt>
      <trkpt lat="43.8801" lon="7.01837">
        <ele>486.2000122</ele>
        <time>2019-12-07T09:09:56Z</time>
      </trkpt>
      <trkpt lat="43.88015" lon="7.01846">
        <ele>486.4000244</ele>
        <time>2019-12-07T09:10:00Z</time>
      </trkpt>
      <trkpt lat="43.88021" lon="7.01853">
        <ele>487.2000122</ele>
        <time>2019-12-07T09:10:04Z</time>
      </trkpt>
      <trkpt lat="43.88023" lon="7.01854">
        <ele>487.4000244</ele>
        <time>2019-12-07T09:10:05Z</time>
      </trkpt>
      <trkpt lat="43.88034" lon="7.01858">
        <ele>488</ele>
        <time>2019-12-07T09:10:10Z</time>
      </trkpt>
      <trkpt lat="43.88049" lon="7.0187">
        <ele>488.4000244</ele>
        <time>2019-12-07T09:10:17Z</time>
      </trkpt>
      <trkpt lat="43.88062" lon="7.01879">
        <ele>488.4000244</ele>
        <time>2019-12-07T09:10:23Z</time>
      </trkpt>
      <trkpt lat="43.88066" lon="7.01881">
        <ele>488.5999756</ele>
        <time>2019-12-07T09:10:25Z</time>
      </trkpt>
      <trkpt lat="43.88075" lon="7.01888">
        <ele>489</ele>
        <time>2019-12-07T09:10:29Z</time>
      </trkpt>
      <trkpt lat="43.88081" lon="7.01896">
        <ele>488.4000244</ele>
        <time>2019-12-07T09:10:32Z</time>
      </trkpt>
      <trkpt lat="43.88083" lon="7.01903">
        <ele>488.2000122</ele>
        <time>2019-12-07T09:10:34Z</time>
      </trkpt>
      <trkpt lat="43.88083" lon="7.01911">
        <ele>487.7999878</ele>
        <time>2019-12-07T09:10:36Z</time>
      </trkpt>
      <trkpt lat="43.88084" lon="7.01925">
        <ele>487.2000122</ele>
        <time>2019-12-07T09:10:40Z</time>
      </trkpt>
      <trkpt lat="43.88085" lon="7.01932">
        <ele>486.2000122</ele>
        <time>2019-12-07T09:10:42Z</time>
      </trkpt>
      <trkpt lat="43.8809" lon="7.01949">
        <ele>485.2000122</ele>
        <time>2019-12-07T09:10:47Z</time>
      </trkpt>
      <trkpt lat="43.88092" lon="7.01952">
        <ele>485</ele>
        <time>2019-12-07T09:10:48Z</time>
      </trkpt>
      <trkpt lat="43.88101" lon="7.0197">
        <ele>485</ele>
        <time>2019-12-07T09:10:54Z</time>
      </trkpt>
      <trkpt lat="43.88112" lon="7.01997">
        <ele>485.4000244</ele>
        <time>2019-12-07T09:11:02Z</time>
      </trkpt>
      <trkpt lat="43.88123" lon="7.02023">
        <ele>485.4000244</ele>
        <time>2019-12-07T09:11:10Z</time>
      </trkpt>
      <trkpt lat="43.88132" lon="7.02026">
        <ele>486</ele>
        <time>2019-12-07T09:11:14Z</time>
      </trkpt>
      <trkpt lat="43.88135" lon="7.02026">
        <ele>486.4000244</ele>
        <time>2019-12-07T09:11:15Z</time>
      </trkpt>
      <trkpt lat="43.88145" lon="7.02026">
        <ele>487.5999756</ele>
        <time>2019-12-07T09:11:19Z</time>
      </trkpt>
      <trkpt lat="43.88148" lon="7.02027">
        <ele>487.7999878</ele>
        <time>2019-12-07T09:11:20Z</time>
      </trkpt>
      <trkpt lat="43.88155" lon="7.02031">
        <ele>488.7999878</ele>
        <time>2019-12-07T09:11:23Z</time>
      </trkpt>
      <trkpt lat="43.88158" lon="7.02035">
        <ele>489</ele>
        <time>2019-12-07T09:11:25Z</time>
      </trkpt>
      <trkpt lat="43.88162" lon="7.02041">
        <ele>489.7999878</ele>
        <time>2019-12-07T09:11:28Z</time>
      </trkpt>
      <trkpt lat="43.88168" lon="7.02045">
        <ele>490.7999878</ele>
        <time>2019-12-07T09:11:31Z</time>
      </trkpt>
      <trkpt lat="43.8817" lon="7.02045">
        <ele>491.2000122</ele>
        <time>2019-12-07T09:11:32Z</time>
      </trkpt>
      <trkpt lat="43.88181" lon="7.02047">
        <ele>492.4000244</ele>
        <time>2019-12-07T09:11:37Z</time>
      </trkpt>
      <trkpt lat="43.88184" lon="7.02047">
        <ele>492.5999756</ele>
        <time>2019-12-07T09:11:38Z</time>
      </trkpt>
      <trkpt lat="43.88188" lon="7.02046">
        <ele>493.4000244</ele>
        <time>2019-12-07T09:11:40Z</time>
      </trkpt>
      <trkpt lat="43.88195" lon="7.02047">
        <ele>494.4000244</ele>
        <time>2019-12-07T09:11:43Z</time>
      </trkpt>
      <trkpt lat="43.88204" lon="7.0205">
        <ele>495.4000244</ele>
        <time>2019-12-07T09:11:48Z</time>
      </trkpt>
      <trkpt lat="43.88206" lon="7.02051">
        <ele>495.5999756</ele>
        <time>2019-12-07T09:11:49Z</time>
      </trkpt>
      <trkpt lat="43.88217" lon="7.02052">
        <ele>496.4000244</ele>
        <time>2019-12-07T09:11:54Z</time>
      </trkpt>
      <trkpt lat="43.88219" lon="7.02052">
        <ele>496.7999878</ele>
        <time>2019-12-07T09:11:55Z</time>
      </trkpt>
      <trkpt lat="43.88233" lon="7.02053">
        <ele>498</ele>
        <time>2019-12-07T09:12:01Z</time>
      </trkpt>
      <trkpt lat="43.88235" lon="7.02054">
        <ele>498</ele>
        <time>2019-12-07T09:12:02Z</time>
      </trkpt>
      <trkpt lat="43.88246" lon="7.02064">
        <ele>498.7999878</ele>
        <time>2019-12-07T09:12:08Z</time>
      </trkpt>
      <trkpt lat="43.88248" lon="7.02068">
        <ele>499.2000122</ele>
        <time>2019-12-07T09:12:10Z</time>
      </trkpt>
      <trkpt lat="43.88255" lon="7.02078">
        <ele>500</ele>
        <time>2019-12-07T09:12:15Z</time>
      </trkpt>
      <trkpt lat="43.88261" lon="7.02084">
        <ele>500.2000122</ele>
        <time>2019-12-07T09:12:19Z</time>
      </trkpt>
      <trkpt lat="43.88266" lon="7.02085">
        <ele>500.7999878</ele>
        <time>2019-12-07T09:12:22Z</time>
      </trkpt>
      <trkpt lat="43.88269" lon="7.02084">
        <ele>501.4000244</ele>
        <time>2019-12-07T09:12:24Z</time>
      </trkpt>
      <trkpt lat="43.88274" lon="7.02081">
        <ele>501.5999756</ele>
        <time>2019-12-07T09:12:27Z</time>
      </trkpt>
      <trkpt lat="43.88276" lon="7.02079">
        <ele>501.5999756</ele>
        <time>2019-12-07T09:12:28Z</time>
      </trkpt>
      <trkpt lat="43.88287" lon="7.0207">
        <ele>502</ele>
        <time>2019-12-07T09:12:34Z</time>
      </trkpt>
      <trkpt lat="43.8829" lon="7.02068">
        <ele>502.5999756</ele>
        <time>2019-12-07T09:12:36Z</time>
      </trkpt>
      <trkpt lat="43.88295" lon="7.02064">
        <ele>503.2000122</ele>
        <time>2019-12-07T09:12:39Z</time>
      </trkpt>
      <trkpt lat="43.88296" lon="7.02063">
        <ele>503.5999756</ele>
        <time>2019-12-07T09:12:40Z</time>
      </trkpt>
      <trkpt lat="43.88307" lon="7.02054">
        <ele>504.5999756</ele>
        <time>2019-12-07T09:12:45Z</time>
      </trkpt>
      <trkpt lat="43.88313" lon="7.0205">
        <ele>505.7999878</ele>
        <time>2019-12-07T09:12:48Z</time>
      </trkpt>
      <trkpt lat="43.88318" lon="7.02048">
        <ele>507</ele>
        <time>2019-12-07T09:12:51Z</time>
      </trkpt>
      <trkpt lat="43.88326" lon="7.02042">
        <ele>508</ele>
        <time>2019-12-07T09:12:55Z</time>
      </trkpt>
      <trkpt lat="43.88331" lon="7.02039">
        <ele>508.5999756</ele>
        <time>2019-12-07T09:12:57Z</time>
      </trkpt>
      <trkpt lat="43.88334" lon="7.02037">
        <ele>509.7999878</ele>
        <time>2019-12-07T09:12:59Z</time>
      </trkpt>
      <trkpt lat="43.8834" lon="7.02034">
        <ele>511</ele>
        <time>2019-12-07T09:13:02Z</time>
      </trkpt>
      <trkpt lat="43.88341" lon="7.02034">
        <ele>511.2000122</ele>
        <time>2019-12-07T09:13:03Z</time>
      </trkpt>
      <trkpt lat="43.88348" lon="7.02029">
        <ele>512</ele>
        <time>2019-12-07T09:13:07Z</time>
      </trkpt>
      <trkpt lat="43.88353" lon="7.02024">
        <ele>512.5999756</ele>
        <time>2019-12-07T09:13:10Z</time>
      </trkpt>
      <trkpt lat="43.8836" lon="7.0202">
        <ele>513.2000122</ele>
        <time>2019-12-07T09:13:14Z</time>
      </trkpt>
      <trkpt lat="43.88364" lon="7.02017">
        <ele>513.2000122</ele>
        <time>2019-12-07T09:13:16Z</time>
      </trkpt>
      <trkpt lat="43.88375" lon="7.02014">
        <ele>513.7999878</ele>
        <time>2019-12-07T09:13:21Z</time>
      </trkpt>
      <trkpt lat="43.88378" lon="7.02013">
        <ele>514.2000122</ele>
        <time>2019-12-07T09:13:23Z</time>
      </trkpt>
      <trkpt lat="43.8839" lon="7.02014">
        <ele>515</ele>
        <time>2019-12-07T09:13:28Z</time>
      </trkpt>
      <trkpt lat="43.88403" lon="7.02008">
        <ele>514</ele>
        <time>2019-12-07T09:13:33Z</time>
      </trkpt>
      <trkpt lat="43.88412" lon="7.01995">
        <ele>513.7999878</ele>
        <time>2019-12-07T09:13:39Z</time>
      </trkpt>
      <trkpt lat="43.88422" lon="7.01977">
        <ele>513.7999878</ele>
        <time>2019-12-07T09:13:46Z</time>
      </trkpt>
      <trkpt lat="43.88426" lon="7.01973">
        <ele>514</ele>
        <time>2019-12-07T09:13:48Z</time>
      </trkpt>
      <trkpt lat="43.88434" lon="7.01969">
        <ele>514.4000244</ele>
        <time>2019-12-07T09:13:52Z</time>
      </trkpt>
      <trkpt lat="43.88445" lon="7.01963">
        <ele>515.2000122</ele>
        <time>2019-12-07T09:13:57Z</time>
      </trkpt>
      <trkpt lat="43.88448" lon="7.01959">
        <ele>515.2000122</ele>
        <time>2019-12-07T09:13:59Z</time>
      </trkpt>
      <trkpt lat="43.88462" lon="7.01944">
        <ele>516.2000122</ele>
        <time>2019-12-07T09:14:07Z</time>
      </trkpt>
      <trkpt lat="43.88464" lon="7.01942">
        <ele>516.5999756</ele>
        <time>2019-12-07T09:14:08Z</time>
      </trkpt>
      <trkpt lat="43.88468" lon="7.01939">
        <ele>516.5999756</ele>
        <time>2019-12-07T09:14:11Z</time>
      </trkpt>
      <trkpt lat="43.88472" lon="7.01937">
        <ele>516.5999756</ele>
        <time>2019-12-07T09:14:13Z</time>
      </trkpt>
      <trkpt lat="43.88475" lon="7.01936">
        <ele>516.7999878</ele>
        <time>2019-12-07T09:14:15Z</time>
      </trkpt>
      <trkpt lat="43.88481" lon="7.0194">
        <ele>517.4000244</ele>
        <time>2019-12-07T09:14:18Z</time>
      </trkpt>
      <trkpt lat="43.88483" lon="7.01942">
        <ele>517.7999878</ele>
        <time>2019-12-07T09:14:19Z</time>
      </trkpt>
      <trkpt lat="43.88489" lon="7.01954">
        <ele>517.4000244</ele>
        <time>2019-12-07T09:14:24Z</time>
      </trkpt>
      <trkpt lat="43.88498" lon="7.01963">
        <ele>518.4000244</ele>
        <time>2019-12-07T09:14:30Z</time>
      </trkpt>
      <trkpt lat="43.88501" lon="7.01964">
        <ele>519</ele>
        <time>2019-12-07T09:14:32Z</time>
      </trkpt>
      <trkpt lat="43.88503" lon="7.01964">
        <ele>519.2000122</ele>
        <time>2019-12-07T09:14:33Z</time>
      </trkpt>
      <trkpt lat="43.8851" lon="7.01962">
        <ele>520.2000122</ele>
        <time>2019-12-07T09:14:36Z</time>
      </trkpt>
      <trkpt lat="43.88515" lon="7.01959">
        <ele>520.5999756</ele>
        <time>2019-12-07T09:14:38Z</time>
      </trkpt>
      <trkpt lat="43.88521" lon="7.01954">
        <ele>521.4000244</ele>
        <time>2019-12-07T09:14:41Z</time>
      </trkpt>
      <trkpt lat="43.88524" lon="7.01951">
        <ele>521.7999878</ele>
        <time>2019-12-07T09:14:43Z</time>
      </trkpt>
      <trkpt lat="43.88536" lon="7.01949">
        <ele>522.4000244</ele>
        <time>2019-12-07T09:14:48Z</time>
      </trkpt>
      <trkpt lat="43.88539" lon="7.01949">
        <ele>522.4000244</ele>
        <time>2019-12-07T09:14:49Z</time>
      </trkpt>
      <trkpt lat="43.8855" lon="7.01959">
        <ele>522.7999878</ele>
        <time>2019-12-07T09:14:54Z</time>
      </trkpt>
      <trkpt lat="43.88562" lon="7.01975">
        <ele>522.4000244</ele>
        <time>2019-12-07T09:15:01Z</time>
      </trkpt>
      <trkpt lat="43.88571" lon="7.01988">
        <ele>522.4000244</ele>
        <time>2019-12-07T09:15:07Z</time>
      </trkpt>
      <trkpt lat="43.88581" lon="7.02">
        <ele>522</ele>
        <time>2019-12-07T09:15:15Z</time>
      </trkpt>
      <trkpt lat="43.88584" lon="7.02001">
        <ele>521.7999878</ele>
        <time>2019-12-07T09:15:20Z</time>
      </trkpt>
      <trkpt lat="43.88586" lon="7.02002">
        <ele>521.7999878</ele>
        <time>2019-12-07T09:15:24Z</time>
      </trkpt>
      <trkpt lat="43.88587" lon="7.02002">
        <ele>521.5999756</ele>
        <time>2019-12-07T09:15:25Z</time>
      </trkpt>
      <trkpt lat="43.88593" lon="7.02005">
        <ele>521.4000244</ele>
        <time>2019-12-07T09:15:29Z</time>
      </trkpt>
      <trkpt lat="43.88594" lon="7.02007">
        <ele>521.2000122</ele>
        <time>2019-12-07T09:15:31Z</time>
      </trkpt>
      <trkpt lat="43.88596" lon="7.02009">
        <ele>521.4000244</ele>
        <time>2019-12-07T09:15:32Z</time>
      </trkpt>
      <trkpt lat="43.88599" lon="7.02016">
        <ele>522.2000122</ele>
        <time>2019-12-07T09:15:36Z</time>
      </trkpt>
      <trkpt lat="43.886" lon="7.02018">
        <ele>522.4000244</ele>
        <time>2019-12-07T09:15:37Z</time>
      </trkpt>
      <trkpt lat="43.88601" lon="7.02019">
        <ele>522.5999756</ele>
        <time>2019-12-07T09:15:38Z</time>
      </trkpt>
      <trkpt lat="43.88602" lon="7.02019">
        <ele>522.7999878</ele>
        <time>2019-12-07T09:15:39Z</time>
      </trkpt>
      <trkpt lat="43.88605" lon="7.02021">
        <ele>523.5999756</ele>
        <time>2019-12-07T09:15:42Z</time>
      </trkpt>
      <trkpt lat="43.88608" lon="7.02015">
        <ele>524.1999512</ele>
        <time>2019-12-07T09:15:46Z</time>
      </trkpt>
      <trkpt lat="43.88608" lon="7.0201">
        <ele>525</ele>
        <time>2019-12-07T09:15:48Z</time>
      </trkpt>
      <trkpt lat="43.88607" lon="7.02008">
        <ele>526</ele>
        <time>2019-12-07T09:15:50Z</time>
      </trkpt>
      <trkpt lat="43.88605" lon="7.02005">
        <ele>527.4000244</ele>
        <time>2019-12-07T09:15:52Z</time>
      </trkpt>
      <trkpt lat="43.88603" lon="7.02003">
        <ele>528.8000488</ele>
        <time>2019-12-07T09:15:54Z</time>
      </trkpt>
      <trkpt lat="43.88601" lon="7.02001">
        <ele>530</ele>
        <time>2019-12-07T09:15:56Z</time>
      </trkpt>
      <trkpt lat="43.88599" lon="7.01999">
        <ele>531.1999512</ele>
        <time>2019-12-07T09:15:58Z</time>
      </trkpt>
      <trkpt lat="43.88598" lon="7.01997">
        <ele>531.5999756</ele>
        <time>2019-12-07T09:15:59Z</time>
      </trkpt>
      <trkpt lat="43.88596" lon="7.01995">
        <ele>532.5999756</ele>
        <time>2019-12-07T09:16:01Z</time>
      </trkpt>
      <trkpt lat="43.88596" lon="7.01993">
        <ele>533</ele>
        <time>2019-12-07T09:16:02Z</time>
      </trkpt>
      <trkpt lat="43.88597" lon="7.01989">
        <ele>533.8000488</ele>
        <time>2019-12-07T09:16:04Z</time>
      </trkpt>
      <trkpt lat="43.88599" lon="7.01987">
        <ele>534.5999756</ele>
        <time>2019-12-07T09:16:06Z</time>
      </trkpt>
      <trkpt lat="43.886" lon="7.01986">
        <ele>535</ele>
        <time>2019-12-07T09:16:07Z</time>
      </trkpt>
      <trkpt lat="43.88602" lon="7.01987">
        <ele>536</ele>
        <time>2019-12-07T09:16:09Z</time>
      </trkpt>
      <trkpt lat="43.88603" lon="7.01987">
        <ele>536.4000244</ele>
        <time>2019-12-07T09:16:10Z</time>
      </trkpt>
      <trkpt lat="43.88605" lon="7.01989">
        <ele>537.1999512</ele>
        <time>2019-12-07T09:16:12Z</time>
      </trkpt>
      <trkpt lat="43.88605" lon="7.0199">
        <ele>537.5999756</ele>
        <time>2019-12-07T09:16:13Z</time>
      </trkpt>
      <trkpt lat="43.88606" lon="7.01993">
        <ele>538</ele>
        <time>2019-12-07T09:16:15Z</time>
      </trkpt>
      <trkpt lat="43.88609" lon="7.01997">
        <ele>538.8000488</ele>
        <time>2019-12-07T09:16:19Z</time>
      </trkpt>
      <trkpt lat="43.88609" lon="7.01998">
        <ele>539</ele>
        <time>2019-12-07T09:16:20Z</time>
      </trkpt>
      <trkpt lat="43.88612" lon="7.02001">
        <ele>539.5999756</ele>
        <time>2019-12-07T09:16:24Z</time>
      </trkpt>
      <trkpt lat="43.88613" lon="7.02003">
        <ele>539.8000488</ele>
        <time>2019-12-07T09:16:26Z</time>
      </trkpt>
      <trkpt lat="43.88613" lon="7.02004">
        <ele>540</ele>
        <time>2019-12-07T09:16:27Z</time>
      </trkpt>
      <trkpt lat="43.88615" lon="7.02005">
        <ele>541</ele>
        <time>2019-12-07T09:16:30Z</time>
      </trkpt>
      <trkpt lat="43.88615" lon="7.02005">
        <ele>541</ele>
        <time>2019-12-07T09:16:33Z</time>
      </trkpt>
      <trkpt lat="43.88618" lon="7.02009">
        <ele>542.1999512</ele>
        <time>2019-12-07T09:16:37Z</time>
      </trkpt>
      <trkpt lat="43.88619" lon="7.0201">
        <ele>542.5999756</ele>
        <time>2019-12-07T09:16:38Z</time>
      </trkpt>
      <trkpt lat="43.88622" lon="7.02013">
        <ele>543.4000244</ele>
        <time>2019-12-07T09:16:40Z</time>
      </trkpt>
      <trkpt lat="43.88627" lon="7.02016">
        <ele>544</ele>
        <time>2019-12-07T09:16:43Z</time>
      </trkpt>
      <trkpt lat="43.88629" lon="7.02016">
        <ele>544.4000244</ele>
        <time>2019-12-07T09:16:44Z</time>
      </trkpt>
      <trkpt lat="43.88631" lon="7.02016">
        <ele>544.5999756</ele>
        <time>2019-12-07T09:16:45Z</time>
      </trkpt>
      <trkpt lat="43.88639" lon="7.02019">
        <ele>545.5999756</ele>
        <time>2019-12-07T09:16:50Z</time>
      </trkpt>
      <trkpt lat="43.88645" lon="7.02021">
        <ele>545.8000488</ele>
        <time>2019-12-07T09:16:54Z</time>
      </trkpt>
      <trkpt lat="43.88651" lon="7.02022">
        <ele>545.8000488</ele>
        <time>2019-12-07T09:17:00Z</time>
      </trkpt>
      <trkpt lat="43.88663" lon="7.02015">
        <ele>544.4000244</ele>
        <time>2019-12-07T09:17:05Z</time>
      </trkpt>
      <trkpt lat="43.88666" lon="7.02013">
        <ele>544</ele>
        <time>2019-12-07T09:17:06Z</time>
      </trkpt>
      <trkpt lat="43.88668" lon="7.02011">
        <ele>543.8000488</ele>
        <time>2019-12-07T09:17:07Z</time>
      </trkpt>
      <trkpt lat="43.88673" lon="7.02006">
        <ele>543.1999512</ele>
        <time>2019-12-07T09:17:09Z</time>
      </trkpt>
      <trkpt lat="43.88675" lon="7.01999">
        <ele>542.1999512</ele>
        <time>2019-12-07T09:17:11Z</time>
      </trkpt>
      <trkpt lat="43.88675" lon="7.01994">
        <ele>541.1999512</ele>
        <time>2019-12-07T09:17:12Z</time>
      </trkpt>
      <trkpt lat="43.88675" lon="7.0199">
        <ele>540.5999756</ele>
        <time>2019-12-07T09:17:13Z</time>
      </trkpt>
      <trkpt lat="43.88674" lon="7.01977">
        <ele>539</ele>
        <time>2019-12-07T09:17:16Z</time>
      </trkpt>
      <trkpt lat="43.88675" lon="7.01971">
        <ele>538</ele>
        <time>2019-12-07T09:17:18Z</time>
      </trkpt>
      <trkpt lat="43.88677" lon="7.01969">
        <ele>537.4000244</ele>
        <time>2019-12-07T09:17:19Z</time>
      </trkpt>
      <trkpt lat="43.88683" lon="7.01963">
        <ele>537.1999512</ele>
        <time>2019-12-07T09:17:23Z</time>
      </trkpt>
      <trkpt lat="43.88687" lon="7.0196">
        <ele>537.1999512</ele>
        <time>2019-12-07T09:17:26Z</time>
      </trkpt>
      <trkpt lat="43.88692" lon="7.01956">
        <ele>537</ele>
        <time>2019-12-07T09:17:30Z</time>
      </trkpt>
      <trkpt lat="43.88697" lon="7.01951">
        <ele>537.1999512</ele>
        <time>2019-12-07T09:17:33Z</time>
      </trkpt>
      <trkpt lat="43.88706" lon="7.01942">
        <ele>536.5999756</ele>
        <time>2019-12-07T09:17:41Z</time>
      </trkpt>
      <trkpt lat="43.88715" lon="7.01932">
        <ele>536.4000244</ele>
        <time>2019-12-07T09:17:48Z</time>
      </trkpt>
      <trkpt lat="43.88719" lon="7.01924">
        <ele>536</ele>
        <time>2019-12-07T09:17:53Z</time>
      </trkpt>
      <trkpt lat="43.88721" lon="7.0192">
        <ele>536.1999512</ele>
        <time>2019-12-07T09:17:56Z</time>
      </trkpt>
      <trkpt lat="43.88727" lon="7.0191">
        <ele>536.4000244</ele>
        <time>2019-12-07T09:18:02Z</time>
      </trkpt>
      <trkpt lat="43.8873" lon="7.01896">
        <ele>537.1999512</ele>
        <time>2019-12-07T09:18:08Z</time>
      </trkpt>
      <trkpt lat="43.88732" lon="7.01879">
        <ele>538.1999512</ele>
        <time>2019-12-07T09:18:14Z</time>
      </trkpt>
      <trkpt lat="43.88732" lon="7.01877">
        <ele>538.4000244</ele>
        <time>2019-12-07T09:18:15Z</time>
      </trkpt>
      <trkpt lat="43.88733" lon="7.01868">
        <ele>538.8000488</ele>
        <time>2019-12-07T09:18:21Z</time>
      </trkpt>
      <trkpt lat="43.88734" lon="7.01857">
        <ele>538.4000244</ele>
        <time>2019-12-07T09:18:27Z</time>
      </trkpt>
      <trkpt lat="43.88739" lon="7.01841">
        <ele>538.1999512</ele>
        <time>2019-12-07T09:18:35Z</time>
      </trkpt>
      <trkpt lat="43.88744" lon="7.01826">
        <ele>538.4000244</ele>
        <time>2019-12-07T09:18:43Z</time>
      </trkpt>
      <trkpt lat="43.88747" lon="7.01812">
        <ele>538.4000244</ele>
        <time>2019-12-07T09:18:51Z</time>
      </trkpt>
      <trkpt lat="43.88748" lon="7.01802">
        <ele>539.1999512</ele>
        <time>2019-12-07T09:18:56Z</time>
      </trkpt>
      <trkpt lat="43.88748" lon="7.018">
        <ele>539.1999512</ele>
        <time>2019-12-07T09:18:57Z</time>
      </trkpt>
      <trkpt lat="43.88748" lon="7.01798">
        <ele>539</ele>
        <time>2019-12-07T09:18:58Z</time>
      </trkpt>
      <trkpt lat="43.88746" lon="7.01792">
        <ele>539.5999756</ele>
        <time>2019-12-07T09:19:01Z</time>
      </trkpt>
      <trkpt lat="43.88745" lon="7.01788">
        <ele>540.8000488</ele>
        <time>2019-12-07T09:19:03Z</time>
      </trkpt>
      <trkpt lat="43.88745" lon="7.01783">
        <ele>541.5999756</ele>
        <time>2019-12-07T09:19:05Z</time>
      </trkpt>
      <trkpt lat="43.88745" lon="7.01781">
        <ele>542</ele>
        <time>2019-12-07T09:19:06Z</time>
      </trkpt>
      <trkpt lat="43.88744" lon="7.0177">
        <ele>543</ele>
        <time>2019-12-07T09:19:11Z</time>
      </trkpt>
      <trkpt lat="43.88743" lon="7.01764">
        <ele>544.4000244</ele>
        <time>2019-12-07T09:19:14Z</time>
      </trkpt>
      <trkpt lat="43.88742" lon="7.01754">
        <ele>545.4000244</ele>
        <time>2019-12-07T09:19:19Z</time>
      </trkpt>
      <trkpt lat="43.88743" lon="7.01742">
        <ele>546.5999756</ele>
        <time>2019-12-07T09:19:25Z</time>
      </trkpt>
      <trkpt lat="43.88744" lon="7.01739">
        <ele>546.8000488</ele>
        <time>2019-12-07T09:19:27Z</time>
      </trkpt>
      <trkpt lat="43.88746" lon="7.01735">
        <ele>547.1999512</ele>
        <time>2019-12-07T09:19:30Z</time>
      </trkpt>
      <trkpt lat="43.88749" lon="7.01737">
        <ele>547.4000244</ele>
        <time>2019-12-07T09:19:32Z</time>
      </trkpt>
      <trkpt lat="43.88754" lon="7.0174">
        <ele>547.5999756</ele>
        <time>2019-12-07T09:19:35Z</time>
      </trkpt>
      <trkpt lat="43.88758" lon="7.01739">
        <ele>547.5999756</ele>
        <time>2019-12-07T09:19:37Z</time>
      </trkpt>
      <trkpt lat="43.8876" lon="7.01739">
        <ele>547.8000488</ele>
        <time>2019-12-07T09:19:38Z</time>
      </trkpt>
      <trkpt lat="43.88772" lon="7.01739">
        <ele>547.8000488</ele>
        <time>2019-12-07T09:19:44Z</time>
      </trkpt>
      <trkpt lat="43.88782" lon="7.01748">
        <ele>548</ele>
        <time>2019-12-07T09:19:50Z</time>
      </trkpt>
      <trkpt lat="43.88791" lon="7.01759">
        <ele>548.4000244</ele>
        <time>2019-12-07T09:19:57Z</time>
      </trkpt>
      <trkpt lat="43.88792" lon="7.01763">
        <ele>548.5999756</ele>
        <time>2019-12-07T09:19:59Z</time>
      </trkpt>
      <trkpt lat="43.88797" lon="7.01772">
        <ele>548.4000244</ele>
        <time>2019-12-07T09:20:03Z</time>
      </trkpt>
      <trkpt lat="43.88807" lon="7.01789">
        <ele>548</ele>
        <time>2019-12-07T09:20:11Z</time>
      </trkpt>
      <trkpt lat="43.88817" lon="7.01803">
        <ele>549</ele>
        <time>2019-12-07T09:20:18Z</time>
      </trkpt>
      <trkpt lat="43.88825" lon="7.01817">
        <ele>549.1999512</ele>
        <time>2019-12-07T09:20:26Z</time>
      </trkpt>
      <trkpt lat="43.88829" lon="7.01828">
        <ele>549.8000488</ele>
        <time>2019-12-07T09:20:30Z</time>
      </trkpt>
      <trkpt lat="43.8883" lon="7.01834">
        <ele>550.1999512</ele>
        <time>2019-12-07T09:20:32Z</time>
      </trkpt>
      <trkpt lat="43.88834" lon="7.01841">
        <ele>550.1999512</ele>
        <time>2019-12-07T09:20:35Z</time>
      </trkpt>
      <trkpt lat="43.88838" lon="7.01842">
        <ele>550</ele>
        <time>2019-12-07T09:20:37Z</time>
      </trkpt>
      <trkpt lat="43.88847" lon="7.01848">
        <ele>550.5999756</ele>
        <time>2019-12-07T09:20:42Z</time>
      </trkpt>
      <trkpt lat="43.8885" lon="7.01849">
        <ele>550.8000488</ele>
        <time>2019-12-07T09:20:44Z</time>
      </trkpt>
      <trkpt lat="43.88853" lon="7.01849">
        <ele>551.4000244</ele>
        <time>2019-12-07T09:20:47Z</time>
      </trkpt>
      <trkpt lat="43.88857" lon="7.01848">
        <ele>551.8000488</ele>
        <time>2019-12-07T09:20:49Z</time>
      </trkpt>
      <trkpt lat="43.88858" lon="7.01847">
        <ele>552</ele>
        <time>2019-12-07T09:20:50Z</time>
      </trkpt>
      <trkpt lat="43.88862" lon="7.01844">
        <ele>552.8000488</ele>
        <time>2019-12-07T09:20:53Z</time>
      </trkpt>
      <trkpt lat="43.88863" lon="7.01843">
        <ele>553.1999512</ele>
        <time>2019-12-07T09:20:54Z</time>
      </trkpt>
      <trkpt lat="43.88868" lon="7.0184">
        <ele>554.4000244</ele>
        <time>2019-12-07T09:20:58Z</time>
      </trkpt>
      <trkpt lat="43.8887" lon="7.01839">
        <ele>554.8000488</ele>
        <time>2019-12-07T09:21:00Z</time>
      </trkpt>
      <trkpt lat="43.88875" lon="7.01835">
        <ele>555.5999756</ele>
        <time>2019-12-07T09:21:04Z</time>
      </trkpt>
      <trkpt lat="43.88877" lon="7.01834">
        <ele>556.1999512</ele>
        <time>2019-12-07T09:21:06Z</time>
      </trkpt>
      <trkpt lat="43.88878" lon="7.01834">
        <ele>556.5999756</ele>
        <time>2019-12-07T09:21:07Z</time>
      </trkpt>
      <trkpt lat="43.88881" lon="7.01831">
        <ele>557.5999756</ele>
        <time>2019-12-07T09:21:10Z</time>
      </trkpt>
      <trkpt lat="43.88884" lon="7.01828">
        <ele>558.1999512</ele>
        <time>2019-12-07T09:21:12Z</time>
      </trkpt>
      <trkpt lat="43.88889" lon="7.01824">
        <ele>558.5999756</ele>
        <time>2019-12-07T09:21:16Z</time>
      </trkpt>
      <trkpt lat="43.88896" lon="7.0182">
        <ele>559.1999512</ele>
        <time>2019-12-07T09:21:21Z</time>
      </trkpt>
      <trkpt lat="43.88898" lon="7.01817">
        <ele>559.5999756</ele>
        <time>2019-12-07T09:21:23Z</time>
      </trkpt>
      <trkpt lat="43.88902" lon="7.01812">
        <ele>561</ele>
        <time>2019-12-07T09:21:27Z</time>
      </trkpt>
      <trkpt lat="43.88903" lon="7.0181">
        <ele>561.4000244</ele>
        <time>2019-12-07T09:21:28Z</time>
      </trkpt>
      <trkpt lat="43.88904" lon="7.01809">
        <ele>561.8000488</ele>
        <time>2019-12-07T09:21:29Z</time>
      </trkpt>
      <trkpt lat="43.88905" lon="7.01808">
        <ele>562.4000244</ele>
        <time>2019-12-07T09:21:30Z</time>
      </trkpt>
      <trkpt lat="43.88908" lon="7.01805">
        <ele>563.1999512</ele>
        <time>2019-12-07T09:21:33Z</time>
      </trkpt>
      <trkpt lat="43.8891" lon="7.01804">
        <ele>563.4000244</ele>
        <time>2019-12-07T09:21:34Z</time>
      </trkpt>
      <trkpt lat="43.88911" lon="7.01803">
        <ele>563.5999756</ele>
        <time>2019-12-07T09:21:35Z</time>
      </trkpt>
      <trkpt lat="43.88915" lon="7.018">
        <ele>565</ele>
        <time>2019-12-07T09:21:38Z</time>
      </trkpt>
      <trkpt lat="43.88917" lon="7.01798">
        <ele>566</ele>
        <time>2019-12-07T09:21:41Z</time>
      </trkpt>
      <trkpt lat="43.8892" lon="7.01795">
        <ele>566.8000488</ele>
        <time>2019-12-07T09:21:43Z</time>
      </trkpt>
      <trkpt lat="43.8892" lon="7.01795">
        <ele>567.1999512</ele>
        <time>2019-12-07T09:21:44Z</time>
      </trkpt>
      <trkpt lat="43.88924" lon="7.01792">
        <ele>568.4000244</ele>
        <time>2019-12-07T09:21:47Z</time>
      </trkpt>
      <trkpt lat="43.88928" lon="7.01788">
        <ele>569.4000244</ele>
        <time>2019-12-07T09:21:51Z</time>
      </trkpt>
      <trkpt lat="43.88933" lon="7.01783">
        <ele>570.5999756</ele>
        <time>2019-12-07T09:21:56Z</time>
      </trkpt>
      <trkpt lat="43.88935" lon="7.0178">
        <ele>571</ele>
        <time>2019-12-07T09:21:58Z</time>
      </trkpt>
      <trkpt lat="43.88935" lon="7.01777">
        <ele>571.1999512</ele>
        <time>2019-12-07T09:22:00Z</time>
      </trkpt>
      <trkpt lat="43.88936" lon="7.01772">
        <ele>572</ele>
        <time>2019-12-07T09:22:03Z</time>
      </trkpt>
      <trkpt lat="43.88935" lon="7.01766">
        <ele>572.5999756</ele>
        <time>2019-12-07T09:22:06Z</time>
      </trkpt>
      <trkpt lat="43.88934" lon="7.01761">
        <ele>573</ele>
        <time>2019-12-07T09:22:09Z</time>
      </trkpt>
      <trkpt lat="43.88934" lon="7.01754">
        <ele>573.5999756</ele>
        <time>2019-12-07T09:22:13Z</time>
      </trkpt>
      <trkpt lat="43.88933" lon="7.01753">
        <ele>574.1999512</ele>
        <time>2019-12-07T09:22:14Z</time>
      </trkpt>
      <trkpt lat="43.88933" lon="7.01748">
        <ele>575.4000244</ele>
        <time>2019-12-07T09:22:17Z</time>
      </trkpt>
      <trkpt lat="43.88934" lon="7.01745">
        <ele>575.8000488</ele>
        <time>2019-12-07T09:22:19Z</time>
      </trkpt>
      <trkpt lat="43.88935" lon="7.01742">
        <ele>576.4000244</ele>
        <time>2019-12-07T09:22:21Z</time>
      </trkpt>
      <trkpt lat="43.8894" lon="7.01731">
        <ele>577.5999756</ele>
        <time>2019-12-07T09:22:28Z</time>
      </trkpt>
      <trkpt lat="43.8894" lon="7.01729">
        <ele>578.1999512</ele>
        <time>2019-12-07T09:22:29Z</time>
      </trkpt>
      <trkpt lat="43.88942" lon="7.01726">
        <ele>578.8000488</ele>
        <time>2019-12-07T09:22:31Z</time>
      </trkpt>
      <trkpt lat="43.88944" lon="7.01717">
        <ele>579.4000244</ele>
        <time>2019-12-07T09:22:36Z</time>
      </trkpt>
      <trkpt lat="43.88946" lon="7.01709">
        <ele>580</ele>
        <time>2019-12-07T09:22:41Z</time>
      </trkpt>
      <trkpt lat="43.88948" lon="7.01706">
        <ele>580.1999512</ele>
        <time>2019-12-07T09:22:43Z</time>
      </trkpt>
      <trkpt lat="43.88951" lon="7.01694">
        <ele>580.8000488</ele>
        <time>2019-12-07T09:22:50Z</time>
      </trkpt>
      <trkpt lat="43.88951" lon="7.01692">
        <ele>581</ele>
        <time>2019-12-07T09:22:51Z</time>
      </trkpt>
      <trkpt lat="43.88952" lon="7.01691">
        <ele>581.4000244</ele>
        <time>2019-12-07T09:22:52Z</time>
      </trkpt>
      <trkpt lat="43.88953" lon="7.01684">
        <ele>581.8000488</ele>
        <time>2019-12-07T09:22:56Z</time>
      </trkpt>
      <trkpt lat="43.88956" lon="7.01675">
        <ele>582.1999512</ele>
        <time>2019-12-07T09:23:01Z</time>
      </trkpt>
      <trkpt lat="43.88956" lon="7.01672">
        <ele>582.4000244</ele>
        <time>2019-12-07T09:23:03Z</time>
      </trkpt>
      <trkpt lat="43.88959" lon="7.0166">
        <ele>583</ele>
        <time>2019-12-07T09:23:10Z</time>
      </trkpt>
      <trkpt lat="43.88959" lon="7.01658">
        <ele>583.1999512</ele>
        <time>2019-12-07T09:23:11Z</time>
      </trkpt>
      <trkpt lat="43.88959" lon="7.01657">
        <ele>583.4000244</ele>
        <time>2019-12-07T09:23:12Z</time>
      </trkpt>
      <trkpt lat="43.8896" lon="7.01653">
        <ele>584</ele>
        <time>2019-12-07T09:23:14Z</time>
      </trkpt>
      <trkpt lat="43.8896" lon="7.01644">
        <ele>584.5999756</ele>
        <time>2019-12-07T09:23:19Z</time>
      </trkpt>
      <trkpt lat="43.8896" lon="7.01641">
        <ele>585</ele>
        <time>2019-12-07T09:23:21Z</time>
      </trkpt>
      <trkpt lat="43.88961" lon="7.01634">
        <ele>585.8000488</ele>
        <time>2019-12-07T09:23:25Z</time>
      </trkpt>
      <trkpt lat="43.88961" lon="7.01633">
        <ele>586</ele>
        <time>2019-12-07T09:23:26Z</time>
      </trkpt>
      <trkpt lat="43.88962" lon="7.01626">
        <ele>586.4000244</ele>
        <time>2019-12-07T09:23:30Z</time>
      </trkpt>
      <trkpt lat="43.88963" lon="7.01623">
        <ele>586.5999756</ele>
        <time>2019-12-07T09:23:32Z</time>
      </trkpt>
      <trkpt lat="43.88965" lon="7.0162">
        <ele>587</ele>
        <time>2019-12-07T09:23:34Z</time>
      </trkpt>
      <trkpt lat="43.88967" lon="7.01616">
        <ele>588.4000244</ele>
        <time>2019-12-07T09:23:37Z</time>
      </trkpt>
      <trkpt lat="43.88968" lon="7.01613">
        <ele>589</ele>
        <time>2019-12-07T09:23:39Z</time>
      </trkpt>
      <trkpt lat="43.88973" lon="7.01605">
        <ele>589.4000244</ele>
        <time>2019-12-07T09:23:44Z</time>
      </trkpt>
      <trkpt lat="43.88974" lon="7.01603">
        <ele>589.8000488</ele>
        <time>2019-12-07T09:23:45Z</time>
      </trkpt>
      <trkpt lat="43.88977" lon="7.01598">
        <ele>590.4000244</ele>
        <time>2019-12-07T09:23:48Z</time>
      </trkpt>
      <trkpt lat="43.8898" lon="7.01592">
        <ele>591.1999512</ele>
        <time>2019-12-07T09:23:52Z</time>
      </trkpt>
      <trkpt lat="43.8898" lon="7.0159">
        <ele>591.4000244</ele>
        <time>2019-12-07T09:23:53Z</time>
      </trkpt>
      <trkpt lat="43.88982" lon="7.01587">
        <ele>591.5999756</ele>
        <time>2019-12-07T09:23:55Z</time>
      </trkpt>
      <trkpt lat="43.88982" lon="7.01585">
        <ele>591.5999756</ele>
        <time>2019-12-07T09:23:56Z</time>
      </trkpt>
      <trkpt lat="43.88984" lon="7.01582">
        <ele>591.5999756</ele>
        <time>2019-12-07T09:23:58Z</time>
      </trkpt>
      <trkpt lat="43.88985" lon="7.01571">
        <ele>591.4000244</ele>
        <time>2019-12-07T09:24:03Z</time>
      </trkpt>
      <trkpt lat="43.88985" lon="7.01569">
        <ele>591.5999756</ele>
        <time>2019-12-07T09:24:04Z</time>
      </trkpt>
      <trkpt lat="43.88987" lon="7.01556">
        <ele>592.1999512</ele>
        <time>2019-12-07T09:24:11Z</time>
      </trkpt>
      <trkpt lat="43.88986" lon="7.01554">
        <ele>592.5999756</ele>
        <time>2019-12-07T09:24:12Z</time>
      </trkpt>
      <trkpt lat="43.88988" lon="7.01543">
        <ele>593.1999512</ele>
        <time>2019-12-07T09:24:18Z</time>
      </trkpt>
      <trkpt lat="43.88988" lon="7.01539">
        <ele>593.5999756</ele>
        <time>2019-12-07T09:24:20Z</time>
      </trkpt>
      <trkpt lat="43.88988" lon="7.01528">
        <ele>594.5999756</ele>
        <time>2019-12-07T09:24:26Z</time>
      </trkpt>
      <trkpt lat="43.88988" lon="7.01526">
        <ele>594.8000488</ele>
        <time>2019-12-07T09:24:27Z</time>
      </trkpt>
      <trkpt lat="43.88987" lon="7.01517">
        <ele>595.8000488</ele>
        <time>2019-12-07T09:24:32Z</time>
      </trkpt>
      <trkpt lat="43.88987" lon="7.01512">
        <ele>596.5999756</ele>
        <time>2019-12-07T09:24:35Z</time>
      </trkpt>
      <trkpt lat="43.88986" lon="7.01508">
        <ele>597</ele>
        <time>2019-12-07T09:24:37Z</time>
      </trkpt>
      <trkpt lat="43.88985" lon="7.01499">
        <ele>597.4000244</ele>
        <time>2019-12-07T09:24:42Z</time>
      </trkpt>
      <trkpt lat="43.88984" lon="7.01496">
        <ele>598</ele>
        <time>2019-12-07T09:24:44Z</time>
      </trkpt>
      <trkpt lat="43.88983" lon="7.01491">
        <ele>599.4000244</ele>
        <time>2019-12-07T09:24:47Z</time>
      </trkpt>
      <trkpt lat="43.88981" lon="7.01485">
        <ele>600.4000244</ele>
        <time>2019-12-07T09:24:51Z</time>
      </trkpt>
      <trkpt lat="43.8898" lon="7.01479">
        <ele>601.5999756</ele>
        <time>2019-12-07T09:24:54Z</time>
      </trkpt>
      <trkpt lat="43.88979" lon="7.01476">
        <ele>602.8000488</ele>
        <time>2019-12-07T09:24:56Z</time>
      </trkpt>
      <trkpt lat="43.88978" lon="7.01472">
        <ele>603.8000488</ele>
        <time>2019-12-07T09:24:59Z</time>
      </trkpt>
      <trkpt lat="43.88975" lon="7.01466">
        <ele>605.1999512</ele>
        <time>2019-12-07T09:25:03Z</time>
      </trkpt>
      <trkpt lat="43.88974" lon="7.01461">
        <ele>606.1999512</ele>
        <time>2019-12-07T09:25:06Z</time>
      </trkpt>
      <trkpt lat="43.88971" lon="7.01453">
        <ele>607.5999756</ele>
        <time>2019-12-07T09:25:11Z</time>
      </trkpt>
      <trkpt lat="43.8897" lon="7.01449">
        <ele>608.5999756</ele>
        <time>2019-12-07T09:25:13Z</time>
      </trkpt>
      <trkpt lat="43.8897" lon="7.01447">
        <ele>609</ele>
        <time>2019-12-07T09:25:14Z</time>
      </trkpt>
      <trkpt lat="43.88966" lon="7.01431">
        <ele>610.1999512</ele>
        <time>2019-12-07T09:25:22Z</time>
      </trkpt>
      <trkpt lat="43.88965" lon="7.01419">
        <ele>611.4000244</ele>
        <time>2019-12-07T09:25:29Z</time>
      </trkpt>
      <trkpt lat="43.88965" lon="7.01417">
        <ele>611.5999756</ele>
        <time>2019-12-07T09:25:30Z</time>
      </trkpt>
      <trkpt lat="43.88966" lon="7.01412">
        <ele>611.8000488</ele>
        <time>2019-12-07T09:25:33Z</time>
      </trkpt>
      <trkpt lat="43.88968" lon="7.01402">
        <ele>611.4000244</ele>
        <time>2019-12-07T09:25:38Z</time>
      </trkpt>
      <trkpt lat="43.88971" lon="7.01393">
        <ele>612.4000244</ele>
        <time>2019-12-07T09:25:44Z</time>
      </trkpt>
      <trkpt lat="43.88972" lon="7.01391">
        <ele>612.5999756</ele>
        <time>2019-12-07T09:25:45Z</time>
      </trkpt>
      <trkpt lat="43.88973" lon="7.01387">
        <ele>613.5999756</ele>
        <time>2019-12-07T09:25:48Z</time>
      </trkpt>
      <trkpt lat="43.88977" lon="7.01376">
        <ele>614.5999756</ele>
        <time>2019-12-07T09:25:54Z</time>
      </trkpt>
      <trkpt lat="43.88981" lon="7.01368">
        <ele>615.5999756</ele>
        <time>2019-12-07T09:25:59Z</time>
      </trkpt>
      <trkpt lat="43.88983" lon="7.01363">
        <ele>617</ele>
        <time>2019-12-07T09:26:02Z</time>
      </trkpt>
      <trkpt lat="43.88986" lon="7.01356">
        <ele>618.5999756</ele>
        <time>2019-12-07T09:26:05Z</time>
      </trkpt>
      <trkpt lat="43.88988" lon="7.0135">
        <ele>619.1999512</ele>
        <time>2019-12-07T09:26:08Z</time>
      </trkpt>
      <trkpt lat="43.88989" lon="7.01346">
        <ele>619.8000488</ele>
        <time>2019-12-07T09:26:10Z</time>
      </trkpt>
      <trkpt lat="43.88994" lon="7.01337">
        <ele>620.8000488</ele>
        <time>2019-12-07T09:26:15Z</time>
      </trkpt>
      <trkpt lat="43.88995" lon="7.01335">
        <ele>621.1999512</ele>
        <time>2019-12-07T09:26:16Z</time>
      </trkpt>
      <trkpt lat="43.89004" lon="7.01321">
        <ele>621.8000488</ele>
        <time>2019-12-07T09:26:24Z</time>
      </trkpt>
      <trkpt lat="43.89005" lon="7.01319">
        <ele>622</ele>
        <time>2019-12-07T09:26:25Z</time>
      </trkpt>
      <trkpt lat="43.89012" lon="7.01307">
        <ele>621.8000488</ele>
        <time>2019-12-07T09:26:31Z</time>
      </trkpt>
      <trkpt lat="43.89023" lon="7.01294">
        <ele>621.8000488</ele>
        <time>2019-12-07T09:26:38Z</time>
      </trkpt>
      <trkpt lat="43.89032" lon="7.01285">
        <ele>621.8000488</ele>
        <time>2019-12-07T09:26:44Z</time>
      </trkpt>
      <trkpt lat="43.89042" lon="7.01272">
        <ele>622.4000244</ele>
        <time>2019-12-07T09:26:51Z</time>
      </trkpt>
      <trkpt lat="43.89051" lon="7.01258">
        <ele>622.4000244</ele>
        <time>2019-12-07T09:26:58Z</time>
      </trkpt>
      <trkpt lat="43.89059" lon="7.01242">
        <ele>622.4000244</ele>
        <time>2019-12-07T09:27:05Z</time>
      </trkpt>
      <trkpt lat="43.89063" lon="7.01221">
        <ele>622.4000244</ele>
        <time>2019-12-07T09:27:12Z</time>
      </trkpt>
      <trkpt lat="43.89061" lon="7.01204">
        <ele>622.5999756</ele>
        <time>2019-12-07T09:27:18Z</time>
      </trkpt>
      <trkpt lat="43.8906" lon="7.01194">
        <ele>623</ele>
        <time>2019-12-07T09:27:22Z</time>
      </trkpt>
      <trkpt lat="43.89059" lon="7.0119">
        <ele>623.4000244</ele>
        <time>2019-12-07T09:27:24Z</time>
      </trkpt>
      <trkpt lat="43.89058" lon="7.01181">
        <ele>624.1999512</ele>
        <time>2019-12-07T09:27:28Z</time>
      </trkpt>
      <trkpt lat="43.89057" lon="7.01179">
        <ele>624.4000244</ele>
        <time>2019-12-07T09:27:29Z</time>
      </trkpt>
      <trkpt lat="43.89051" lon="7.01164">
        <ele>623.8000488</ele>
        <time>2019-12-07T09:27:36Z</time>
      </trkpt>
      <trkpt lat="43.89045" lon="7.01148">
        <ele>624.4000244</ele>
        <time>2019-12-07T09:27:43Z</time>
      </trkpt>
      <trkpt lat="43.89044" lon="7.01137">
        <ele>625.1999512</ele>
        <time>2019-12-07T09:27:47Z</time>
      </trkpt>
      <trkpt lat="43.89044" lon="7.01129">
        <ele>625.5999756</ele>
        <time>2019-12-07T09:27:50Z</time>
      </trkpt>
      <trkpt lat="43.89042" lon="7.01118">
        <ele>626.4000244</ele>
        <time>2019-12-07T09:27:54Z</time>
      </trkpt>
      <trkpt lat="43.89041" lon="7.01104">
        <ele>627.4000244</ele>
        <time>2019-12-07T09:27:59Z</time>
      </trkpt>
      <trkpt lat="43.89042" lon="7.01101">
        <ele>627.4000244</ele>
        <time>2019-12-07T09:28:00Z</time>
      </trkpt>
      <trkpt lat="43.89041" lon="7.01086">
        <ele>627.8000488</ele>
        <time>2019-12-07T09:28:06Z</time>
      </trkpt>
      <trkpt lat="43.8904" lon="7.01078">
        <ele>628.4000244</ele>
        <time>2019-12-07T09:28:09Z</time>
      </trkpt>
      <trkpt lat="43.89038" lon="7.01057">
        <ele>629.4000244</ele>
        <time>2019-12-07T09:28:17Z</time>
      </trkpt>
      <trkpt lat="43.89038" lon="7.01055">
        <ele>629.5999756</ele>
        <time>2019-12-07T09:28:18Z</time>
      </trkpt>
      <trkpt lat="43.89033" lon="7.01039">
        <ele>630.1999512</ele>
        <time>2019-12-07T09:28:25Z</time>
      </trkpt>
      <trkpt lat="43.8903" lon="7.01027">
        <ele>630.8000488</ele>
        <time>2019-12-07T09:28:30Z</time>
      </trkpt>
      <trkpt lat="43.89029" lon="7.01019">
        <ele>631.4000244</ele>
        <time>2019-12-07T09:28:33Z</time>
      </trkpt>
      <trkpt lat="43.89028" lon="7.01001">
        <ele>630.8000488</ele>
        <time>2019-12-07T09:28:40Z</time>
      </trkpt>
      <trkpt lat="43.89029" lon="7.00985">
        <ele>631.8000488</ele>
        <time>2019-12-07T09:28:46Z</time>
      </trkpt>
      <trkpt lat="43.89029" lon="7.00983">
        <ele>631.8000488</ele>
        <time>2019-12-07T09:28:47Z</time>
      </trkpt>
      <trkpt lat="43.8903" lon="7.00972">
        <ele>633</ele>
        <time>2019-12-07T09:28:51Z</time>
      </trkpt>
      <trkpt lat="43.8903" lon="7.00962">
        <ele>634.4000244</ele>
        <time>2019-12-07T09:28:55Z</time>
      </trkpt>
      <trkpt lat="43.89031" lon="7.00952">
        <ele>635.5999756</ele>
        <time>2019-12-07T09:28:59Z</time>
      </trkpt>
      <trkpt lat="43.89032" lon="7.00947">
        <ele>636</ele>
        <time>2019-12-07T09:29:01Z</time>
      </trkpt>
      <trkpt lat="43.89032" lon="7.00942">
        <ele>636.5999756</ele>
        <time>2019-12-07T09:29:03Z</time>
      </trkpt>
      <trkpt lat="43.89033" lon="7.00932">
        <ele>637.8000488</ele>
        <time>2019-12-07T09:29:07Z</time>
      </trkpt>
      <trkpt lat="43.89033" lon="7.00929">
        <ele>638</ele>
        <time>2019-12-07T09:29:08Z</time>
      </trkpt>
      <trkpt lat="43.89035" lon="7.00907">
        <ele>639.1999512</ele>
        <time>2019-12-07T09:29:16Z</time>
      </trkpt>
      <trkpt lat="43.89037" lon="7.00891">
        <ele>640</ele>
        <time>2019-12-07T09:29:23Z</time>
      </trkpt>
      <trkpt lat="43.89037" lon="7.00886">
        <ele>640.4000244</ele>
        <time>2019-12-07T09:29:25Z</time>
      </trkpt>
      <trkpt lat="43.89041" lon="7.00875">
        <ele>641</ele>
        <time>2019-12-07T09:29:30Z</time>
      </trkpt>
      <trkpt lat="43.8905" lon="7.00862">
        <ele>641.5999756</ele>
        <time>2019-12-07T09:29:37Z</time>
      </trkpt>
      <trkpt lat="43.89051" lon="7.00859">
        <ele>642</ele>
        <time>2019-12-07T09:29:38Z</time>
      </trkpt>
      <trkpt lat="43.89052" lon="7.00851">
        <ele>642.5999756</ele>
        <time>2019-12-07T09:29:41Z</time>
      </trkpt>
      <trkpt lat="43.8905" lon="7.00845">
        <ele>642.5999756</ele>
        <time>2019-12-07T09:29:44Z</time>
      </trkpt>
      <trkpt lat="43.89047" lon="7.00842">
        <ele>643.4000244</ele>
        <time>2019-12-07T09:29:46Z</time>
      </trkpt>
      <trkpt lat="43.89046" lon="7.00841">
        <ele>644</ele>
        <time>2019-12-07T09:29:47Z</time>
      </trkpt>
      <trkpt lat="43.89042" lon="7.00838">
        <ele>645.4000244</ele>
        <time>2019-12-07T09:29:49Z</time>
      </trkpt>
      <trkpt lat="43.89037" lon="7.00835">
        <ele>646.8000488</ele>
        <time>2019-12-07T09:29:52Z</time>
      </trkpt>
      <trkpt lat="43.89035" lon="7.00834">
        <ele>647.4000244</ele>
        <time>2019-12-07T09:29:53Z</time>
      </trkpt>
      <trkpt lat="43.89034" lon="7.00832">
        <ele>647.8000488</ele>
        <time>2019-12-07T09:29:54Z</time>
      </trkpt>
      <trkpt lat="43.8903" lon="7.00827">
        <ele>649</ele>
        <time>2019-12-07T09:29:57Z</time>
      </trkpt>
      <trkpt lat="43.89026" lon="7.00821">
        <ele>649.5999756</ele>
        <time>2019-12-07T09:30:00Z</time>
      </trkpt>
      <trkpt lat="43.89022" lon="7.00814">
        <ele>650</ele>
        <time>2019-12-07T09:30:03Z</time>
      </trkpt>
      <trkpt lat="43.89017" lon="7.00801">
        <ele>651.1999512</ele>
        <time>2019-12-07T09:30:09Z</time>
      </trkpt>
      <trkpt lat="43.89016" lon="7.0079">
        <ele>652.4000244</ele>
        <time>2019-12-07T09:30:14Z</time>
      </trkpt>
      <trkpt lat="43.89015" lon="7.00788">
        <ele>652.8000488</ele>
        <time>2019-12-07T09:30:15Z</time>
      </trkpt>
      <trkpt lat="43.89017" lon="7.00772">
        <ele>653.1999512</ele>
        <time>2019-12-07T09:30:21Z</time>
      </trkpt>
      <trkpt lat="43.89017" lon="7.00769">
        <ele>653.4000244</ele>
        <time>2019-12-07T09:30:22Z</time>
      </trkpt>
      <trkpt lat="43.89019" lon="7.00753">
        <ele>653.1999512</ele>
        <time>2019-12-07T09:30:29Z</time>
      </trkpt>
      <trkpt lat="43.89022" lon="7.00743">
        <ele>652.4000244</ele>
        <time>2019-12-07T09:30:34Z</time>
      </trkpt>
      <trkpt lat="43.89024" lon="7.00734">
        <ele>652.4000244</ele>
        <time>2019-12-07T09:30:38Z</time>
      </trkpt>
      <trkpt lat="43.89026" lon="7.00718">
        <ele>653.5999756</ele>
        <time>2019-12-07T09:30:46Z</time>
      </trkpt>
      <trkpt lat="43.89027" lon="7.00716">
        <ele>653.8000488</ele>
        <time>2019-12-07T09:30:47Z</time>
      </trkpt>
      <trkpt lat="43.89027" lon="7.00712">
        <ele>654.8000488</ele>
        <time>2019-12-07T09:30:49Z</time>
      </trkpt>
      <trkpt lat="43.89028" lon="7.00706">
        <ele>656</ele>
        <time>2019-12-07T09:30:52Z</time>
      </trkpt>
      <trkpt lat="43.89029" lon="7.00702">
        <ele>657.1999512</ele>
        <time>2019-12-07T09:30:55Z</time>
      </trkpt>
      <trkpt lat="43.89031" lon="7.00692">
        <ele>658.1999512</ele>
        <time>2019-12-07T09:31:00Z</time>
      </trkpt>
      <trkpt lat="43.89031" lon="7.00689">
        <ele>659.4000244</ele>
        <time>2019-12-07T09:31:02Z</time>
      </trkpt>
      <trkpt lat="43.89032" lon="7.00685">
        <ele>660.4000244</ele>
        <time>2019-12-07T09:31:05Z</time>
      </trkpt>
      <trkpt lat="43.89035" lon="7.00679">
        <ele>661.8000488</ele>
        <time>2019-12-07T09:31:08Z</time>
      </trkpt>
      <trkpt lat="43.89036" lon="7.00677">
        <ele>662.1999512</ele>
        <time>2019-12-07T09:31:09Z</time>
      </trkpt>
      <trkpt lat="43.89036" lon="7.00673">
        <ele>663.1999512</ele>
        <time>2019-12-07T09:31:11Z</time>
      </trkpt>
      <trkpt lat="43.89037" lon="7.00668">
        <ele>664.5999756</ele>
        <time>2019-12-07T09:31:13Z</time>
      </trkpt>
      <trkpt lat="43.89039" lon="7.00665">
        <ele>665.5999756</ele>
        <time>2019-12-07T09:31:15Z</time>
      </trkpt>
      <trkpt lat="43.89041" lon="7.00663">
        <ele>666.4000244</ele>
        <time>2019-12-07T09:31:17Z</time>
      </trkpt>
      <trkpt lat="43.89041" lon="7.00661">
        <ele>667</ele>
        <time>2019-12-07T09:31:18Z</time>
      </trkpt>
      <trkpt lat="43.89044" lon="7.00656">
        <ele>668.5999756</ele>
        <time>2019-12-07T09:31:21Z</time>
      </trkpt>
      <trkpt lat="43.89045" lon="7.00654">
        <ele>669.8000488</ele>
        <time>2019-12-07T09:31:23Z</time>
      </trkpt>
      <trkpt lat="43.89046" lon="7.00651">
        <ele>671</ele>
        <time>2019-12-07T09:31:25Z</time>
      </trkpt>
      <trkpt lat="43.89049" lon="7.00647">
        <ele>672</ele>
        <time>2019-12-07T09:31:27Z</time>
      </trkpt>
      <trkpt lat="43.8905" lon="7.00646">
        <ele>672.4000244</ele>
        <time>2019-12-07T09:31:28Z</time>
      </trkpt>
      <trkpt lat="43.89053" lon="7.00642">
        <ele>673.8000488</ele>
        <time>2019-12-07T09:31:31Z</time>
      </trkpt>
      <trkpt lat="43.89056" lon="7.00638">
        <ele>674</ele>
        <time>2019-12-07T09:31:33Z</time>
      </trkpt>
      <trkpt lat="43.89064" lon="7.00631">
        <ele>675.1999512</ele>
        <time>2019-12-07T09:31:38Z</time>
      </trkpt>
      <trkpt lat="43.89065" lon="7.00627">
        <ele>676</ele>
        <time>2019-12-07T09:31:40Z</time>
      </trkpt>
      <trkpt lat="43.89065" lon="7.00626">
        <ele>676.5999756</ele>
        <time>2019-12-07T09:31:41Z</time>
      </trkpt>
      <trkpt lat="43.89068" lon="7.00626">
        <ele>678</ele>
        <time>2019-12-07T09:31:44Z</time>
      </trkpt>
      <trkpt lat="43.89069" lon="7.00627">
        <ele>678.5999756</ele>
        <time>2019-12-07T09:31:45Z</time>
      </trkpt>
      <trkpt lat="43.8907" lon="7.00628">
        <ele>678.8000488</ele>
        <time>2019-12-07T09:31:46Z</time>
      </trkpt>
      <trkpt lat="43.89071" lon="7.00634">
        <ele>678.5999756</ele>
        <time>2019-12-07T09:31:50Z</time>
      </trkpt>
      <trkpt lat="43.89071" lon="7.00636">
        <ele>678.4000244</ele>
        <time>2019-12-07T09:31:51Z</time>
      </trkpt>
      <trkpt lat="43.8907" lon="7.00642">
        <ele>676.8000488</ele>
        <time>2019-12-07T09:31:54Z</time>
      </trkpt>
      <trkpt lat="43.8907" lon="7.00644">
        <ele>676.4000244</ele>
        <time>2019-12-07T09:31:55Z</time>
      </trkpt>
      <trkpt lat="43.89069" lon="7.00649">
        <ele>675.8000488</ele>
        <time>2019-12-07T09:31:57Z</time>
      </trkpt>
      <trkpt lat="43.89069" lon="7.00656">
        <ele>674.5999756</ele>
        <time>2019-12-07T09:32:00Z</time>
      </trkpt>
      <trkpt lat="43.89069" lon="7.00658">
        <ele>674.1999512</ele>
        <time>2019-12-07T09:32:01Z</time>
      </trkpt>
      <trkpt lat="43.8907" lon="7.00662">
        <ele>673.4000244</ele>
        <time>2019-12-07T09:32:03Z</time>
      </trkpt>
      <trkpt lat="43.89072" lon="7.00674">
        <ele>673.5999756</ele>
        <time>2019-12-07T09:32:09Z</time>
      </trkpt>
      <trkpt lat="43.89075" lon="7.00681">
        <ele>674.5999756</ele>
        <time>2019-12-07T09:32:14Z</time>
      </trkpt>
      <trkpt lat="43.89076" lon="7.00684">
        <ele>674.8000488</ele>
        <time>2019-12-07T09:32:16Z</time>
      </trkpt>
      <trkpt lat="43.89079" lon="7.00692">
        <ele>675.1999512</ele>
        <time>2019-12-07T09:32:21Z</time>
      </trkpt>
      <trkpt lat="43.89082" lon="7.00698">
        <ele>675.5999756</ele>
        <time>2019-12-07T09:32:25Z</time>
      </trkpt>
      <trkpt lat="43.89085" lon="7.00706">
        <ele>676.5999756</ele>
        <time>2019-12-07T09:32:29Z</time>
      </trkpt>
      <trkpt lat="43.89086" lon="7.00707">
        <ele>676.8000488</ele>
        <time>2019-12-07T09:32:30Z</time>
      </trkpt>
      <trkpt lat="43.89089" lon="7.00714">
        <ele>677.1999512</ele>
        <time>2019-12-07T09:32:35Z</time>
      </trkpt>
      <trkpt lat="43.89093" lon="7.0072">
        <ele>677.5999756</ele>
        <time>2019-12-07T09:32:39Z</time>
      </trkpt>
      <trkpt lat="43.89095" lon="7.00724">
        <ele>678</ele>
        <time>2019-12-07T09:32:41Z</time>
      </trkpt>
      <trkpt lat="43.89097" lon="7.00727">
        <ele>678.5999756</ele>
        <time>2019-12-07T09:32:43Z</time>
      </trkpt>
      <trkpt lat="43.89101" lon="7.00735">
        <ele>679.1999512</ele>
        <time>2019-12-07T09:32:47Z</time>
      </trkpt>
      <trkpt lat="43.89103" lon="7.00738">
        <ele>679.4000244</ele>
        <time>2019-12-07T09:32:49Z</time>
      </trkpt>
      <trkpt lat="43.89111" lon="7.00756">
        <ele>680</ele>
        <time>2019-12-07T09:32:58Z</time>
      </trkpt>
      <trkpt lat="43.89114" lon="7.00761">
        <ele>680.4000244</ele>
        <time>2019-12-07T09:33:01Z</time>
      </trkpt>
      <trkpt lat="43.89117" lon="7.00767">
        <ele>681.5999756</ele>
        <time>2019-12-07T09:33:05Z</time>
      </trkpt>
      <trkpt lat="43.89121" lon="7.00774">
        <ele>682.4000244</ele>
        <time>2019-12-07T09:33:09Z</time>
      </trkpt>
      <trkpt lat="43.89122" lon="7.00776">
        <ele>682.5999756</ele>
        <time>2019-12-07T09:33:11Z</time>
      </trkpt>
      <trkpt lat="43.89122" lon="7.00777">
        <ele>683.4000244</ele>
        <time>2019-12-07T09:33:19Z</time>
      </trkpt>
      <trkpt lat="43.89123" lon="7.00782">
        <ele>683.8000488</ele>
        <time>2019-12-07T09:33:25Z</time>
      </trkpt>
      <trkpt lat="43.89123" lon="7.00781">
        <ele>683.5999756</ele>
        <time>2019-12-07T09:33:31Z</time>
      </trkpt>
      <trkpt lat="43.89123" lon="7.00781">
        <ele>683.5999756</ele>
        <time>2019-12-07T09:33:41Z</time>
      </trkpt>
      <trkpt lat="43.89123" lon="7.00781">
        <ele>683.5999756</ele>
        <time>2019-12-07T09:33:57Z</time>
      </trkpt>
      <trkpt lat="43.89123" lon="7.00781">
        <ele>683.5999756</ele>
        <time>2019-12-07T09:34:10Z</time>
      </trkpt>
      <trkpt lat="43.89123" lon="7.00781">
        <ele>683.5999756</ele>
        <time>2019-12-07T09:34:19Z</time>
      </trkpt>
      <trkpt lat="43.89123" lon="7.00781">
        <ele>683.5999756</ele>
        <time>2019-12-07T09:34:37Z</time>
      </trkpt>
      <trkpt lat="43.89123" lon="7.00781">
        <ele>683.4000244</ele>
        <time>2019-12-07T09:34:51Z</time>
      </trkpt>
      <trkpt lat="43.89123" lon="7.00781">
        <ele>683.4000244</ele>
        <time>2019-12-07T09:35:09Z</time>
      </trkpt>
      <trkpt lat="43.89123" lon="7.00781">
        <ele>683.4000244</ele>
        <time>2019-12-07T09:35:29Z</time>
      </trkpt>
      <trkpt lat="43.89123" lon="7.00781">
        <ele>683.4000244</ele>
        <time>2019-12-07T09:35:39Z</time>
      </trkpt>
      <trkpt lat="43.89123" lon="7.00781">
        <ele>683.4000244</ele>
        <time>2019-12-07T09:35:52Z</time>
      </trkpt>
      <trkpt lat="43.89124" lon="7.00789">
        <ele>683</ele>
        <time>2019-12-07T09:35:58Z</time>
      </trkpt>
      <trkpt lat="43.89124" lon="7.00792">
        <ele>682.5999756</ele>
        <time>2019-12-07T09:36:00Z</time>
      </trkpt>
      <trkpt lat="43.89125" lon="7.00801">
        <ele>683</ele>
        <time>2019-12-07T09:36:04Z</time>
      </trkpt>
      <trkpt lat="43.89128" lon="7.00816">
        <ele>683.5999756</ele>
        <time>2019-12-07T09:36:12Z</time>
      </trkpt>
      <trkpt lat="43.89129" lon="7.00826">
        <ele>684.8000488</ele>
        <time>2019-12-07T09:36:16Z</time>
      </trkpt>
      <trkpt lat="43.8913" lon="7.0083">
        <ele>685.4000244</ele>
        <time>2019-12-07T09:36:18Z</time>
      </trkpt>
      <trkpt lat="43.89132" lon="7.00838">
        <ele>685.8000488</ele>
        <time>2019-12-07T09:36:21Z</time>
      </trkpt>
      <trkpt lat="43.89134" lon="7.00846">
        <ele>686.1999512</ele>
        <time>2019-12-07T09:36:24Z</time>
      </trkpt>
      <trkpt lat="43.89138" lon="7.00867">
        <ele>686.8000488</ele>
        <time>2019-12-07T09:36:32Z</time>
      </trkpt>
      <trkpt lat="43.8914" lon="7.00876">
        <ele>687</ele>
        <time>2019-12-07T09:36:36Z</time>
      </trkpt>
      <trkpt lat="43.8914" lon="7.00882">
        <ele>686.8000488</ele>
        <time>2019-12-07T09:36:39Z</time>
      </trkpt>
      <trkpt lat="43.89142" lon="7.00892">
        <ele>687.4000244</ele>
        <time>2019-12-07T09:36:44Z</time>
      </trkpt>
      <trkpt lat="43.89142" lon="7.00897">
        <ele>688</ele>
        <time>2019-12-07T09:36:46Z</time>
      </trkpt>
      <trkpt lat="43.89142" lon="7.00907">
        <ele>689.4000244</ele>
        <time>2019-12-07T09:36:50Z</time>
      </trkpt>
      <trkpt lat="43.89142" lon="7.0091">
        <ele>689.5999756</ele>
        <time>2019-12-07T09:36:51Z</time>
      </trkpt>
      <trkpt lat="43.89145" lon="7.00922">
        <ele>690.4000244</ele>
        <time>2019-12-07T09:36:56Z</time>
      </trkpt>
      <trkpt lat="43.89148" lon="7.00928">
        <ele>691</ele>
        <time>2019-12-07T09:36:59Z</time>
      </trkpt>
      <trkpt lat="43.8915" lon="7.00931">
        <ele>691.4000244</ele>
        <time>2019-12-07T09:37:01Z</time>
      </trkpt>
      <trkpt lat="43.89155" lon="7.00942">
        <ele>692</ele>
        <time>2019-12-07T09:37:07Z</time>
      </trkpt>
      <trkpt lat="43.89159" lon="7.00946">
        <ele>692.5999756</ele>
        <time>2019-12-07T09:37:10Z</time>
      </trkpt>
      <trkpt lat="43.89161" lon="7.00949">
        <ele>694</ele>
        <time>2019-12-07T09:37:13Z</time>
      </trkpt>
      <trkpt lat="43.89162" lon="7.00951">
        <ele>694.4000244</ele>
        <time>2019-12-07T09:37:14Z</time>
      </trkpt>
      <trkpt lat="43.89166" lon="7.00958">
        <ele>695.1999512</ele>
        <time>2019-12-07T09:37:18Z</time>
      </trkpt>
      <trkpt lat="43.89172" lon="7.00965">
        <ele>695.8000488</ele>
        <time>2019-12-07T09:37:23Z</time>
      </trkpt>
      <trkpt lat="43.89175" lon="7.00968">
        <ele>696.5999756</ele>
        <time>2019-12-07T09:37:25Z</time>
      </trkpt>
      <trkpt lat="43.89182" lon="7.00974">
        <ele>697.1999512</ele>
        <time>2019-12-07T09:37:30Z</time>
      </trkpt>
      <trkpt lat="43.89183" lon="7.00975">
        <ele>697.5999756</ele>
        <time>2019-12-07T09:37:31Z</time>
      </trkpt>
      <trkpt lat="43.89186" lon="7.00978">
        <ele>698.8000488</ele>
        <time>2019-12-07T09:37:34Z</time>
      </trkpt>
      <trkpt lat="43.8919" lon="7.00981">
        <ele>699.5999756</ele>
        <time>2019-12-07T09:37:37Z</time>
      </trkpt>
      <trkpt lat="43.89197" lon="7.00985">
        <ele>699.8000488</ele>
        <time>2019-12-07T09:37:41Z</time>
      </trkpt>
      <trkpt lat="43.89202" lon="7.00987">
        <ele>701</ele>
        <time>2019-12-07T09:37:44Z</time>
      </trkpt>
      <trkpt lat="43.89204" lon="7.00987">
        <ele>701.1999512</ele>
        <time>2019-12-07T09:37:45Z</time>
      </trkpt>
      <trkpt lat="43.89208" lon="7.00989">
        <ele>702</ele>
        <time>2019-12-07T09:37:48Z</time>
      </trkpt>
      <trkpt lat="43.89216" lon="7.00993">
        <ele>703.4000244</ele>
        <time>2019-12-07T09:37:53Z</time>
      </trkpt>
      <trkpt lat="43.89217" lon="7.00994">
        <ele>703.5999756</ele>
        <time>2019-12-07T09:37:54Z</time>
      </trkpt>
      <trkpt lat="43.89221" lon="7.00996">
        <ele>704.5999756</ele>
        <time>2019-12-07T09:37:57Z</time>
      </trkpt>
      <trkpt lat="43.89226" lon="7.00999">
        <ele>705.5999756</ele>
        <time>2019-12-07T09:38:01Z</time>
      </trkpt>
      <trkpt lat="43.89228" lon="7.01">
        <ele>705.8000488</ele>
        <time>2019-12-07T09:38:02Z</time>
      </trkpt>
      <trkpt lat="43.89236" lon="7.01004">
        <ele>706.5999756</ele>
        <time>2019-12-07T09:38:07Z</time>
      </trkpt>
      <trkpt lat="43.89238" lon="7.01005">
        <ele>707</ele>
        <time>2019-12-07T09:38:08Z</time>
      </trkpt>
      <trkpt lat="43.89243" lon="7.01006">
        <ele>707.5999756</ele>
        <time>2019-12-07T09:38:11Z</time>
      </trkpt>
      <trkpt lat="43.89246" lon="7.01008">
        <ele>708</ele>
        <time>2019-12-07T09:38:13Z</time>
      </trkpt>
      <trkpt lat="43.89248" lon="7.01008">
        <ele>708.1999512</ele>
        <time>2019-12-07T09:38:14Z</time>
      </trkpt>
      <trkpt lat="43.89259" lon="7.01003">
        <ele>709.4000244</ele>
        <time>2019-12-07T09:38:20Z</time>
      </trkpt>
      <trkpt lat="43.89261" lon="7.01002">
        <ele>709.4000244</ele>
        <time>2019-12-07T09:38:21Z</time>
      </trkpt>
      <trkpt lat="43.89271" lon="7.00994">
        <ele>710.4000244</ele>
        <time>2019-12-07T09:38:28Z</time>
      </trkpt>
      <trkpt lat="43.89278" lon="7.00987">
        <ele>710</ele>
        <time>2019-12-07T09:38:33Z</time>
      </trkpt>
      <trkpt lat="43.89285" lon="7.00973">
        <ele>710.1999512</ele>
        <time>2019-12-07T09:38:40Z</time>
      </trkpt>
      <trkpt lat="43.89288" lon="7.00964">
        <ele>710.4000244</ele>
        <time>2019-12-07T09:38:45Z</time>
      </trkpt>
      <trkpt lat="43.89292" lon="7.00951">
        <ele>710.5999756</ele>
        <time>2019-12-07T09:38:51Z</time>
      </trkpt>
      <trkpt lat="43.89301" lon="7.0094">
        <ele>710.5999756</ele>
        <time>2019-12-07T09:38:56Z</time>
      </trkpt>
      <trkpt lat="43.89309" lon="7.00939">
        <ele>711</ele>
        <time>2019-12-07T09:39:01Z</time>
      </trkpt>
      <trkpt lat="43.89312" lon="7.00939">
        <ele>711.8000488</ele>
        <time>2019-12-07T09:39:03Z</time>
      </trkpt>
      <trkpt lat="43.89318" lon="7.00939">
        <ele>713.1999512</ele>
        <time>2019-12-07T09:39:06Z</time>
      </trkpt>
      <trkpt lat="43.8932" lon="7.00939">
        <ele>713.4000244</ele>
        <time>2019-12-07T09:39:07Z</time>
      </trkpt>
      <trkpt lat="43.89326" lon="7.00939">
        <ele>714.1999512</ele>
        <time>2019-12-07T09:39:10Z</time>
      </trkpt>
      <trkpt lat="43.89332" lon="7.00941">
        <ele>715.4000244</ele>
        <time>2019-12-07T09:39:13Z</time>
      </trkpt>
      <trkpt lat="43.89336" lon="7.00941">
        <ele>716.1999512</ele>
        <time>2019-12-07T09:39:15Z</time>
      </trkpt>
      <trkpt lat="43.89341" lon="7.00941">
        <ele>716.4000244</ele>
        <time>2019-12-07T09:39:18Z</time>
      </trkpt>
      <trkpt lat="43.89347" lon="7.00943">
        <ele>717.5999756</ele>
        <time>2019-12-07T09:39:22Z</time>
      </trkpt>
      <trkpt lat="43.89357" lon="7.00942">
        <ele>718.8000488</ele>
        <time>2019-12-07T09:39:27Z</time>
      </trkpt>
      <trkpt lat="43.89363" lon="7.00941">
        <ele>719</ele>
        <time>2019-12-07T09:39:30Z</time>
      </trkpt>
      <trkpt lat="43.89369" lon="7.00941">
        <ele>720.1999512</ele>
        <time>2019-12-07T09:39:33Z</time>
      </trkpt>
      <trkpt lat="43.89375" lon="7.00942">
        <ele>721.1999512</ele>
        <time>2019-12-07T09:39:36Z</time>
      </trkpt>
      <trkpt lat="43.89385" lon="7.00948">
        <ele>721.4000244</ele>
        <time>2019-12-07T09:39:42Z</time>
      </trkpt>
      <trkpt lat="43.89389" lon="7.00963">
        <ele>721.8000488</ele>
        <time>2019-12-07T09:39:48Z</time>
      </trkpt>
      <trkpt lat="43.89391" lon="7.00985">
        <ele>721.5999756</ele>
        <time>2019-12-07T09:39:56Z</time>
      </trkpt>
      <trkpt lat="43.8939" lon="7.01003">
        <ele>720.1999512</ele>
        <time>2019-12-07T09:40:03Z</time>
      </trkpt>
      <trkpt lat="43.8939" lon="7.01005">
        <ele>720.1999512</ele>
        <time>2019-12-07T09:40:04Z</time>
      </trkpt>
      <trkpt lat="43.8939" lon="7.01016">
        <ele>720</ele>
        <time>2019-12-07T09:40:08Z</time>
      </trkpt>
      <trkpt lat="43.89392" lon="7.01034">
        <ele>720.5999756</ele>
        <time>2019-12-07T09:40:15Z</time>
      </trkpt>
      <trkpt lat="43.89395" lon="7.01044">
        <ele>721.1999512</ele>
        <time>2019-12-07T09:40:19Z</time>
      </trkpt>
      <trkpt lat="43.89398" lon="7.01052">
        <ele>722.5999756</ele>
        <time>2019-12-07T09:40:23Z</time>
      </trkpt>
      <trkpt lat="43.89405" lon="7.0106">
        <ele>723.8000488</ele>
        <time>2019-12-07T09:40:28Z</time>
      </trkpt>
      <trkpt lat="43.89408" lon="7.01062">
        <ele>724.4000244</ele>
        <time>2019-12-07T09:40:30Z</time>
      </trkpt>
      <trkpt lat="43.89411" lon="7.01063">
        <ele>724.8000488</ele>
        <time>2019-12-07T09:40:32Z</time>
      </trkpt>
      <trkpt lat="43.89418" lon="7.01063">
        <ele>726</ele>
        <time>2019-12-07T09:40:36Z</time>
      </trkpt>
      <trkpt lat="43.89427" lon="7.01065">
        <ele>726.1999512</ele>
        <time>2019-12-07T09:40:41Z</time>
      </trkpt>
      <trkpt lat="43.89433" lon="7.01072">
        <ele>727</ele>
        <time>2019-12-07T09:40:46Z</time>
      </trkpt>
      <trkpt lat="43.89433" lon="7.01073">
        <ele>727</ele>
        <time>2019-12-07T09:40:47Z</time>
      </trkpt>
      <trkpt lat="43.89437" lon="7.01084">
        <ele>728.1999512</ele>
        <time>2019-12-07T09:40:52Z</time>
      </trkpt>
      <trkpt lat="43.89439" lon="7.01099">
        <ele>729.1999512</ele>
        <time>2019-12-07T09:40:59Z</time>
      </trkpt>
      <trkpt lat="43.8944" lon="7.01117">
        <ele>730.4000244</ele>
        <time>2019-12-07T09:41:06Z</time>
      </trkpt>
      <trkpt lat="43.8944" lon="7.01119">
        <ele>730.5999756</ele>
        <time>2019-12-07T09:41:07Z</time>
      </trkpt>
      <trkpt lat="43.89444" lon="7.01135">
        <ele>730.5999756</ele>
        <time>2019-12-07T09:41:14Z</time>
      </trkpt>
      <trkpt lat="43.8945" lon="7.01148">
        <ele>731.5999756</ele>
        <time>2019-12-07T09:41:20Z</time>
      </trkpt>
      <trkpt lat="43.89451" lon="7.0115">
        <ele>731.8000488</ele>
        <time>2019-12-07T09:41:21Z</time>
      </trkpt>
      <trkpt lat="43.89455" lon="7.01161">
        <ele>732.5999756</ele>
        <time>2019-12-07T09:41:26Z</time>
      </trkpt>
      <trkpt lat="43.89459" lon="7.01173">
        <ele>733.8000488</ele>
        <time>2019-12-07T09:41:31Z</time>
      </trkpt>
      <trkpt lat="43.8946" lon="7.01175">
        <ele>733.8000488</ele>
        <time>2019-12-07T09:41:32Z</time>
      </trkpt>
      <trkpt lat="43.89465" lon="7.01196">
        <ele>734.8000488</ele>
        <time>2019-12-07T09:41:41Z</time>
      </trkpt>
      <trkpt lat="43.89465" lon="7.01198">
        <ele>735.1999512</ele>
        <time>2019-12-07T09:41:42Z</time>
      </trkpt>
      <trkpt lat="43.89468" lon="7.01216">
        <ele>735.1999512</ele>
        <time>2019-12-07T09:41:49Z</time>
      </trkpt>
      <trkpt lat="43.89467" lon="7.01232">
        <ele>735.4000244</ele>
        <time>2019-12-07T09:41:55Z</time>
      </trkpt>
      <trkpt lat="43.89464" lon="7.01248">
        <ele>736.4000244</ele>
        <time>2019-12-07T09:42:03Z</time>
      </trkpt>
      <trkpt lat="43.89461" lon="7.01254">
        <ele>737.4000244</ele>
        <time>2019-12-07T09:42:06Z</time>
      </trkpt>
      <trkpt lat="43.89459" lon="7.0126">
        <ele>737.8000488</ele>
        <time>2019-12-07T09:42:09Z</time>
      </trkpt>
      <trkpt lat="43.89457" lon="7.01267">
        <ele>738.5999756</ele>
        <time>2019-12-07T09:42:12Z</time>
      </trkpt>
      <trkpt lat="43.89454" lon="7.01277">
        <ele>739.1999512</ele>
        <time>2019-12-07T09:42:16Z</time>
      </trkpt>
      <trkpt lat="43.89447" lon="7.01292">
        <ele>739.4000244</ele>
        <time>2019-12-07T09:42:23Z</time>
      </trkpt>
      <trkpt lat="43.89441" lon="7.01302">
        <ele>739.1999512</ele>
        <time>2019-12-07T09:42:29Z</time>
      </trkpt>
      <trkpt lat="43.89434" lon="7.01312">
        <ele>739.4000244</ele>
        <time>2019-12-07T09:42:36Z</time>
      </trkpt>
      <trkpt lat="43.89431" lon="7.01316">
        <ele>739.8000488</ele>
        <time>2019-12-07T09:42:38Z</time>
      </trkpt>
      <trkpt lat="43.89422" lon="7.01324">
        <ele>740.4000244</ele>
        <time>2019-12-07T09:42:43Z</time>
      </trkpt>
      <trkpt lat="43.89418" lon="7.01328">
        <ele>741.1999512</ele>
        <time>2019-12-07T09:42:45Z</time>
      </trkpt>
      <trkpt lat="43.89415" lon="7.01332">
        <ele>741.8000488</ele>
        <time>2019-12-07T09:42:47Z</time>
      </trkpt>
      <trkpt lat="43.89412" lon="7.01338">
        <ele>742.4000244</ele>
        <time>2019-12-07T09:42:49Z</time>
      </trkpt>
      <trkpt lat="43.89409" lon="7.01345">
        <ele>742.4000244</ele>
        <time>2019-12-07T09:42:52Z</time>
      </trkpt>
      <trkpt lat="43.89406" lon="7.01357">
        <ele>743.1999512</ele>
        <time>2019-12-07T09:42:57Z</time>
      </trkpt>
      <trkpt lat="43.89405" lon="7.0136">
        <ele>743.5999756</ele>
        <time>2019-12-07T09:42:58Z</time>
      </trkpt>
      <trkpt lat="43.89404" lon="7.01378">
        <ele>744.1999512</ele>
        <time>2019-12-07T09:43:06Z</time>
      </trkpt>
      <trkpt lat="43.89404" lon="7.01383">
        <ele>744.8000488</ele>
        <time>2019-12-07T09:43:08Z</time>
      </trkpt>
      <trkpt lat="43.89404" lon="7.014">
        <ele>745.5999756</ele>
        <time>2019-12-07T09:43:15Z</time>
      </trkpt>
      <trkpt lat="43.89403" lon="7.01407">
        <ele>746</ele>
        <time>2019-12-07T09:43:18Z</time>
      </trkpt>
      <trkpt lat="43.89404" lon="7.01415">
        <ele>746.1999512</ele>
        <time>2019-12-07T09:43:21Z</time>
      </trkpt>
      <trkpt lat="43.89404" lon="7.01422">
        <ele>747</ele>
        <time>2019-12-07T09:43:24Z</time>
      </trkpt>
      <trkpt lat="43.89403" lon="7.01434">
        <ele>747.8000488</ele>
        <time>2019-12-07T09:43:29Z</time>
      </trkpt>
      <trkpt lat="43.89403" lon="7.01436">
        <ele>748</ele>
        <time>2019-12-07T09:43:30Z</time>
      </trkpt>
      <trkpt lat="43.89405" lon="7.01449">
        <ele>748.5999756</ele>
        <time>2019-12-07T09:43:36Z</time>
      </trkpt>
      <trkpt lat="43.89409" lon="7.01455">
        <ele>749.1999512</ele>
        <time>2019-12-07T09:43:39Z</time>
      </trkpt>
      <trkpt lat="43.89414" lon="7.01457">
        <ele>750.4000244</ele>
        <time>2019-12-07T09:43:42Z</time>
      </trkpt>
      <trkpt lat="43.89417" lon="7.01459">
        <ele>751.5999756</ele>
        <time>2019-12-07T09:43:45Z</time>
      </trkpt>
      <trkpt lat="43.8942" lon="7.01459">
        <ele>752.4000244</ele>
        <time>2019-12-07T09:43:47Z</time>
      </trkpt>
      <trkpt lat="43.89422" lon="7.01459">
        <ele>752.8000488</ele>
        <time>2019-12-07T09:43:48Z</time>
      </trkpt>
      <trkpt lat="43.89427" lon="7.01458">
        <ele>754</ele>
        <time>2019-12-07T09:43:51Z</time>
      </trkpt>
      <trkpt lat="43.8943" lon="7.01458">
        <ele>755</ele>
        <time>2019-12-07T09:43:53Z</time>
      </trkpt>
      <trkpt lat="43.89432" lon="7.01458">
        <ele>755.4000244</ele>
        <time>2019-12-07T09:43:54Z</time>
      </trkpt>
      <trkpt lat="43.89435" lon="7.01458">
        <ele>756.4000244</ele>
        <time>2019-12-07T09:43:56Z</time>
      </trkpt>
      <trkpt lat="43.8944" lon="7.01458">
        <ele>757.8000488</ele>
        <time>2019-12-07T09:43:59Z</time>
      </trkpt>
      <trkpt lat="43.89445" lon="7.01459">
        <ele>759</ele>
        <time>2019-12-07T09:44:02Z</time>
      </trkpt>
      <trkpt lat="43.8945" lon="7.01462">
        <ele>760</ele>
        <time>2019-12-07T09:44:05Z</time>
      </trkpt>
      <trkpt lat="43.89455" lon="7.01465">
        <ele>761</ele>
        <time>2019-12-07T09:44:09Z</time>
      </trkpt>
      <trkpt lat="43.89456" lon="7.01467">
        <ele>761.1999512</ele>
        <time>2019-12-07T09:44:10Z</time>
      </trkpt>
      <trkpt lat="43.89461" lon="7.01474">
        <ele>762.4000244</ele>
        <time>2019-12-07T09:44:14Z</time>
      </trkpt>
      <trkpt lat="43.89472" lon="7.01493">
        <ele>762.8000488</ele>
        <time>2019-12-07T09:44:23Z</time>
      </trkpt>
      <trkpt lat="43.89477" lon="7.01504">
        <ele>763.5999756</ele>
        <time>2019-12-07T09:44:29Z</time>
      </trkpt>
      <trkpt lat="43.89478" lon="7.01506">
        <ele>763.8000488</ele>
        <time>2019-12-07T09:44:30Z</time>
      </trkpt>
      <trkpt lat="43.8948" lon="7.01511">
        <ele>764.5999756</ele>
        <time>2019-12-07T09:44:32Z</time>
      </trkpt>
      <trkpt lat="43.89489" lon="7.01522">
        <ele>765.1999512</ele>
        <time>2019-12-07T09:44:38Z</time>
      </trkpt>
      <trkpt lat="43.89493" lon="7.01527">
        <ele>765.5999756</ele>
        <time>2019-12-07T09:44:41Z</time>
      </trkpt>
      <trkpt lat="43.89503" lon="7.01538">
        <ele>765.5999756</ele>
        <time>2019-12-07T09:44:47Z</time>
      </trkpt>
      <trkpt lat="43.89512" lon="7.01556">
        <ele>766.4000244</ele>
        <time>2019-12-07T09:44:54Z</time>
      </trkpt>
      <trkpt lat="43.89513" lon="7.01572">
        <ele>765.8000488</ele>
        <time>2019-12-07T09:44:58Z</time>
      </trkpt>
      <trkpt lat="43.89511" lon="7.01586">
        <ele>764.5999756</ele>
        <time>2019-12-07T09:45:03Z</time>
      </trkpt>
      <trkpt lat="43.89512" lon="7.01589">
        <ele>764.4000244</ele>
        <time>2019-12-07T09:45:04Z</time>
      </trkpt>
      <trkpt lat="43.8951" lon="7.01603">
        <ele>763.5999756</ele>
        <time>2019-12-07T09:45:08Z</time>
      </trkpt>
      <trkpt lat="43.89511" lon="7.0161">
        <ele>763.4000244</ele>
        <time>2019-12-07T09:45:10Z</time>
      </trkpt>
      <trkpt lat="43.89517" lon="7.01631">
        <ele>764.1999512</ele>
        <time>2019-12-07T09:45:17Z</time>
      </trkpt>
      <trkpt lat="43.8952" lon="7.0165">
        <ele>764</ele>
        <time>2019-12-07T09:45:23Z</time>
      </trkpt>
      <trkpt lat="43.89518" lon="7.01665">
        <ele>764.8000488</ele>
        <time>2019-12-07T09:45:27Z</time>
      </trkpt>
      <trkpt lat="43.89516" lon="7.01671">
        <ele>764.8000488</ele>
        <time>2019-12-07T09:45:29Z</time>
      </trkpt>
      <trkpt lat="43.89512" lon="7.01687">
        <ele>766</ele>
        <time>2019-12-07T09:45:34Z</time>
      </trkpt>
      <trkpt lat="43.8951" lon="7.01695">
        <ele>766.8000488</ele>
        <time>2019-12-07T09:45:37Z</time>
      </trkpt>
      <trkpt lat="43.89509" lon="7.01698">
        <ele>767</ele>
        <time>2019-12-07T09:45:38Z</time>
      </trkpt>
      <trkpt lat="43.89506" lon="7.01715">
        <ele>767.5999756</ele>
        <time>2019-12-07T09:45:44Z</time>
      </trkpt>
      <trkpt lat="43.89506" lon="7.01734">
        <ele>767.8000488</ele>
        <time>2019-12-07T09:45:51Z</time>
      </trkpt>
      <trkpt lat="43.89506" lon="7.01736">
        <ele>768.1999512</ele>
        <time>2019-12-07T09:45:52Z</time>
      </trkpt>
      <trkpt lat="43.89508" lon="7.0175">
        <ele>769.1999512</ele>
        <time>2019-12-07T09:45:58Z</time>
      </trkpt>
      <trkpt lat="43.8951" lon="7.0176">
        <ele>770.1999512</ele>
        <time>2019-12-07T09:46:02Z</time>
      </trkpt>
      <trkpt lat="43.89511" lon="7.01767">
        <ele>771</ele>
        <time>2019-12-07T09:46:05Z</time>
      </trkpt>
      <trkpt lat="43.89511" lon="7.01769">
        <ele>771.4000244</ele>
        <time>2019-12-07T09:46:06Z</time>
      </trkpt>
      <trkpt lat="43.89512" lon="7.01773">
        <ele>772.4000244</ele>
        <time>2019-12-07T09:46:08Z</time>
      </trkpt>
      <trkpt lat="43.89512" lon="7.0178">
        <ele>773.8000488</ele>
        <time>2019-12-07T09:46:11Z</time>
      </trkpt>
      <trkpt lat="43.89513" lon="7.01782">
        <ele>774.1999512</ele>
        <time>2019-12-07T09:46:12Z</time>
      </trkpt>
      <trkpt lat="43.89514" lon="7.01786">
        <ele>774.8000488</ele>
        <time>2019-12-07T09:46:14Z</time>
      </trkpt>
      <trkpt lat="43.89516" lon="7.01793">
        <ele>776</ele>
        <time>2019-12-07T09:46:17Z</time>
      </trkpt>
      <trkpt lat="43.89518" lon="7.01798">
        <ele>776.4000244</ele>
        <time>2019-12-07T09:46:19Z</time>
      </trkpt>
      <trkpt lat="43.89519" lon="7.01805">
        <ele>777.4000244</ele>
        <time>2019-12-07T09:46:22Z</time>
      </trkpt>
      <trkpt lat="43.89522" lon="7.01815">
        <ele>778.5999756</ele>
        <time>2019-12-07T09:46:26Z</time>
      </trkpt>
      <trkpt lat="43.89522" lon="7.01817">
        <ele>778.8000488</ele>
        <time>2019-12-07T09:46:27Z</time>
      </trkpt>
      <trkpt lat="43.89526" lon="7.01832">
        <ele>779.5999756</ele>
        <time>2019-12-07T09:46:33Z</time>
      </trkpt>
      <trkpt lat="43.89528" lon="7.01837">
        <ele>779.8000488</ele>
        <time>2019-12-07T09:46:35Z</time>
      </trkpt>
      <trkpt lat="43.89531" lon="7.01857">
        <ele>779.5999756</ele>
        <time>2019-12-07T09:46:42Z</time>
      </trkpt>
      <trkpt lat="43.89533" lon="7.01878">
        <ele>778.4000244</ele>
        <time>2019-12-07T09:46:47Z</time>
      </trkpt>
      <trkpt lat="43.89541" lon="7.01891">
        <ele>777.1999512</ele>
        <time>2019-12-07T09:46:51Z</time>
      </trkpt>
      <trkpt lat="43.89544" lon="7.01892">
        <ele>777.1999512</ele>
        <time>2019-12-07T09:46:53Z</time>
      </trkpt>
      <trkpt lat="43.89546" lon="7.01892">
        <ele>777.8000488</ele>
        <time>2019-12-07T09:46:55Z</time>
      </trkpt>
      <trkpt lat="43.89554" lon="7.01895">
        <ele>777.8000488</ele>
        <time>2019-12-07T09:47:01Z</time>
      </trkpt>
      <trkpt lat="43.89555" lon="7.01896">
        <ele>778</ele>
        <time>2019-12-07T09:47:06Z</time>
      </trkpt>
      <trkpt lat="43.89555" lon="7.01896">
        <ele>778</ele>
        <time>2019-12-07T09:47:21Z</time>
      </trkpt>
      <trkpt lat="43.89555" lon="7.01896">
        <ele>778</ele>
        <time>2019-12-07T09:47:34Z</time>
      </trkpt>
      <trkpt lat="43.89561" lon="7.01898">
        <ele>777.5999756</ele>
        <time>2019-12-07T09:47:49Z</time>
      </trkpt>
      <trkpt lat="43.89573" lon="7.01902">
        <ele>777.4000244</ele>
        <time>2019-12-07T09:47:55Z</time>
      </trkpt>
      <trkpt lat="43.89587" lon="7.01907">
        <ele>777.5999756</ele>
        <time>2019-12-07T09:48:02Z</time>
      </trkpt>
      <trkpt lat="43.89602" lon="7.01902">
        <ele>777.4000244</ele>
        <time>2019-12-07T09:48:08Z</time>
      </trkpt>
      <trkpt lat="43.89618" lon="7.01897">
        <ele>776.8000488</ele>
        <time>2019-12-07T09:48:13Z</time>
      </trkpt>
      <trkpt lat="43.89633" lon="7.01901">
        <ele>776.1999512</ele>
        <time>2019-12-07T09:48:18Z</time>
      </trkpt>
      <trkpt lat="43.89635" lon="7.01903">
        <ele>776.4000244</ele>
        <time>2019-12-07T09:48:19Z</time>
      </trkpt>
      <trkpt lat="43.89647" lon="7.01907">
        <ele>777.4000244</ele>
        <time>2019-12-07T09:48:23Z</time>
      </trkpt>
      <trkpt lat="43.89654" lon="7.01906">
        <ele>778</ele>
        <time>2019-12-07T09:48:25Z</time>
      </trkpt>
      <trkpt lat="43.89661" lon="7.01904">
        <ele>778.4000244</ele>
        <time>2019-12-07T09:48:27Z</time>
      </trkpt>
      <trkpt lat="43.89679" lon="7.01898">
        <ele>779.5999756</ele>
        <time>2019-12-07T09:48:32Z</time>
      </trkpt>
      <trkpt lat="43.89692" lon="7.01893">
        <ele>780.8000488</ele>
        <time>2019-12-07T09:48:36Z</time>
      </trkpt>
      <trkpt lat="43.89699" lon="7.01892">
        <ele>781.1999512</ele>
        <time>2019-12-07T09:48:38Z</time>
      </trkpt>
      <trkpt lat="43.8972" lon="7.01894">
        <ele>781.5999756</ele>
        <time>2019-12-07T09:48:44Z</time>
      </trkpt>
      <trkpt lat="43.89727" lon="7.01895">
        <ele>782.1999512</ele>
        <time>2019-12-07T09:48:46Z</time>
      </trkpt>
      <trkpt lat="43.89743" lon="7.01897">
        <ele>782.4000244</ele>
        <time>2019-12-07T09:48:50Z</time>
      </trkpt>
      <trkpt lat="43.89762" lon="7.019">
        <ele>783.1999512</ele>
        <time>2019-12-07T09:48:55Z</time>
      </trkpt>
      <trkpt lat="43.89766" lon="7.019">
        <ele>783.5999756</ele>
        <time>2019-12-07T09:48:56Z</time>
      </trkpt>
      <trkpt lat="43.8978" lon="7.01901">
        <ele>784.5999756</ele>
        <time>2019-12-07T09:49:00Z</time>
      </trkpt>
      <trkpt lat="43.89793" lon="7.019">
        <ele>784.8000488</ele>
        <time>2019-12-07T09:49:04Z</time>
      </trkpt>
      <trkpt lat="43.89801" lon="7.019">
        <ele>786</ele>
        <time>2019-12-07T09:49:07Z</time>
      </trkpt>
      <trkpt lat="43.89805" lon="7.01899">
        <ele>786.5999756</ele>
        <time>2019-12-07T09:49:09Z</time>
      </trkpt>
      <trkpt lat="43.89809" lon="7.01897">
        <ele>787.1999512</ele>
        <time>2019-12-07T09:49:11Z</time>
      </trkpt>
      <trkpt lat="43.89818" lon="7.01894">
        <ele>788.5999756</ele>
        <time>2019-12-07T09:49:16Z</time>
      </trkpt>
      <trkpt lat="43.89829" lon="7.01888">
        <ele>788.8000488</ele>
        <time>2019-12-07T09:49:24Z</time>
      </trkpt>
      <trkpt lat="43.8983" lon="7.01889">
        <ele>788.4000244</ele>
        <time>2019-12-07T09:49:25Z</time>
      </trkpt>
      <trkpt lat="43.89835" lon="7.01883">
        <ele>789</ele>
        <time>2019-12-07T09:49:30Z</time>
      </trkpt>
      <trkpt lat="43.89837" lon="7.01882">
        <ele>789.1999512</ele>
        <time>2019-12-07T09:49:32Z</time>
      </trkpt>
      <trkpt lat="43.89842" lon="7.01881">
        <ele>789.4000244</ele>
        <time>2019-12-07T09:49:36Z</time>
      </trkpt>
      <trkpt lat="43.89843" lon="7.01881">
        <ele>789.5999756</ele>
        <time>2019-12-07T09:49:37Z</time>
      </trkpt>
      <trkpt lat="43.89852" lon="7.01877">
        <ele>790</ele>
        <time>2019-12-07T09:49:43Z</time>
      </trkpt>
      <trkpt lat="43.89853" lon="7.01875">
        <ele>790</ele>
        <time>2019-12-07T09:49:44Z</time>
      </trkpt>
      <trkpt lat="43.89858" lon="7.01877">
        <ele>790.1999512</ele>
        <time>2019-12-07T09:49:48Z</time>
      </trkpt>
      <trkpt lat="43.89859" lon="7.01878">
        <ele>790.1999512</ele>
        <time>2019-12-07T09:49:49Z</time>
      </trkpt>
      <trkpt lat="43.8986" lon="7.01878">
        <ele>790.4000244</ele>
        <time>2019-12-07T09:49:50Z</time>
      </trkpt>
      <trkpt lat="43.89862" lon="7.01876">
        <ele>790.5999756</ele>
        <time>2019-12-07T09:49:52Z</time>
      </trkpt>
      <trkpt lat="43.89865" lon="7.01877">
        <ele>791</ele>
        <time>2019-12-07T09:49:54Z</time>
      </trkpt>
      <trkpt lat="43.89871" lon="7.01876">
        <ele>791.5999756</ele>
        <time>2019-12-07T09:49:58Z</time>
      </trkpt>
      <trkpt lat="43.89874" lon="7.01875">
        <ele>791.8000488</ele>
        <time>2019-12-07T09:50:00Z</time>
      </trkpt>
      <trkpt lat="43.89875" lon="7.01875">
        <ele>791.5999756</ele>
        <time>2019-12-07T09:50:01Z</time>
      </trkpt>
      <trkpt lat="43.89883" lon="7.01872">
        <ele>792.5999756</ele>
        <time>2019-12-07T09:50:08Z</time>
      </trkpt>
      <trkpt lat="43.8989" lon="7.01869">
        <ele>792.8000488</ele>
        <time>2019-12-07T09:50:13Z</time>
      </trkpt>
      <trkpt lat="43.89894" lon="7.01867">
        <ele>793.1999512</ele>
        <time>2019-12-07T09:50:16Z</time>
      </trkpt>
      <trkpt lat="43.89895" lon="7.01866">
        <ele>793.5999756</ele>
        <time>2019-12-07T09:50:17Z</time>
      </trkpt>
      <trkpt lat="43.89896" lon="7.01865">
        <ele>793.8000488</ele>
        <time>2019-12-07T09:50:18Z</time>
      </trkpt>
      <trkpt lat="43.89903" lon="7.01862">
        <ele>794.1999512</ele>
        <time>2019-12-07T09:50:23Z</time>
      </trkpt>
      <trkpt lat="43.89908" lon="7.01859">
        <ele>794.8000488</ele>
        <time>2019-12-07T09:50:27Z</time>
      </trkpt>
      <trkpt lat="43.89914" lon="7.01856">
        <ele>795.4000244</ele>
        <time>2019-12-07T09:50:31Z</time>
      </trkpt>
      <trkpt lat="43.89919" lon="7.01855">
        <ele>795.8000488</ele>
        <time>2019-12-07T09:50:35Z</time>
      </trkpt>
      <trkpt lat="43.89923" lon="7.01854">
        <ele>796.4000244</ele>
        <time>2019-12-07T09:50:38Z</time>
      </trkpt>
      <trkpt lat="43.89925" lon="7.01852">
        <ele>797</ele>
        <time>2019-12-07T09:50:40Z</time>
      </trkpt>
      <trkpt lat="43.89926" lon="7.01851">
        <ele>797</ele>
        <time>2019-12-07T09:50:41Z</time>
      </trkpt>
      <trkpt lat="43.89932" lon="7.01847">
        <ele>797.4000244</ele>
        <time>2019-12-07T09:50:45Z</time>
      </trkpt>
      <trkpt lat="43.89933" lon="7.01846">
        <ele>797.4000244</ele>
        <time>2019-12-07T09:50:46Z</time>
      </trkpt>
      <trkpt lat="43.89938" lon="7.01841">
        <ele>798</ele>
        <time>2019-12-07T09:50:50Z</time>
      </trkpt>
      <trkpt lat="43.8994" lon="7.01839">
        <ele>798.4000244</ele>
        <time>2019-12-07T09:50:52Z</time>
      </trkpt>
      <trkpt lat="43.89943" lon="7.01834">
        <ele>798.5999756</ele>
        <time>2019-12-07T09:50:56Z</time>
      </trkpt>
      <trkpt lat="43.89943" lon="7.01834">
        <ele>798.1999512</ele>
        <time>2019-12-07T09:50:59Z</time>
      </trkpt>
      <trkpt lat="43.89944" lon="7.01832">
        <ele>798</ele>
        <time>2019-12-07T09:51:05Z</time>
      </trkpt>
      <trkpt lat="43.89945" lon="7.01819">
        <ele>797.8000488</ele>
        <time>2019-12-07T09:51:11Z</time>
      </trkpt>
      <trkpt lat="43.89945" lon="7.01818">
        <ele>797.5999756</ele>
        <time>2019-12-07T09:51:16Z</time>
      </trkpt>
      <trkpt lat="43.89945" lon="7.01818">
        <ele>797.5999756</ele>
        <time>2019-12-07T09:51:25Z</time>
      </trkpt>
      <trkpt lat="43.89945" lon="7.01818">
        <ele>797.5999756</ele>
        <time>2019-12-07T09:51:39Z</time>
      </trkpt>
      <trkpt lat="43.89946" lon="7.01816">
        <ele>796.8000488</ele>
        <time>2019-12-07T09:51:47Z</time>
      </trkpt>
      <trkpt lat="43.89946" lon="7.01815">
        <ele>795.8000488</ele>
        <time>2019-12-07T09:51:52Z</time>
      </trkpt>
      <trkpt lat="43.89946" lon="7.01815">
        <ele>795.8000488</ele>
        <time>2019-12-07T09:51:53Z</time>
      </trkpt>
      <trkpt lat="43.89946" lon="7.01815">
        <ele>795.8000488</ele>
        <time>2019-12-07T09:52:10Z</time>
      </trkpt>
      <trkpt lat="43.89946" lon="7.01815">
        <ele>795.8000488</ele>
        <time>2019-12-07T09:52:30Z</time>
      </trkpt>
      <trkpt lat="43.89946" lon="7.01814">
        <ele>795.5999756</ele>
        <time>2019-12-07T09:52:56Z</time>
      </trkpt>
      <trkpt lat="43.89947" lon="7.01814">
        <ele>795.4000244</ele>
        <time>2019-12-07T09:53:14Z</time>
      </trkpt>
      <trkpt lat="43.89947" lon="7.01814">
        <ele>795.4000244</ele>
        <time>2019-12-07T09:53:32Z</time>
      </trkpt>
      <trkpt lat="43.89947" lon="7.01814">
        <ele>795.4000244</ele>
        <time>2019-12-07T09:53:49Z</time>
      </trkpt>
      <trkpt lat="43.89947" lon="7.01814">
        <ele>795</ele>
        <time>2019-12-07T09:53:57Z</time>
      </trkpt>
      <trkpt lat="43.89947" lon="7.01814">
        <ele>795</ele>
        <time>2019-12-07T09:54:03Z</time>
      </trkpt>
      <trkpt lat="43.89947" lon="7.01814">
        <ele>795</ele>
        <time>2019-12-07T09:54:10Z</time>
      </trkpt>
      <trkpt lat="43.89947" lon="7.01814">
        <ele>795</ele>
        <time>2019-12-07T09:54:20Z</time>
      </trkpt>
      <trkpt lat="43.89949" lon="7.01811">
        <ele>795.1999512</ele>
        <time>2019-12-07T09:54:23Z</time>
      </trkpt>
      <trkpt lat="43.8995" lon="7.01806">
        <ele>795.1999512</ele>
        <time>2019-12-07T09:54:25Z</time>
      </trkpt>
      <trkpt lat="43.8995" lon="7.01804">
        <ele>795.4000244</ele>
        <time>2019-12-07T09:54:26Z</time>
      </trkpt>
      <trkpt lat="43.8995" lon="7.01799">
        <ele>795.8000488</ele>
        <time>2019-12-07T09:54:28Z</time>
      </trkpt>
      <trkpt lat="43.89951" lon="7.01794">
        <ele>796.1999512</ele>
        <time>2019-12-07T09:54:30Z</time>
      </trkpt>
      <trkpt lat="43.89952" lon="7.01788">
        <ele>797</ele>
        <time>2019-12-07T09:54:32Z</time>
      </trkpt>
      <trkpt lat="43.89957" lon="7.01775">
        <ele>798.1999512</ele>
        <time>2019-12-07T09:54:36Z</time>
      </trkpt>
      <trkpt lat="43.89962" lon="7.01757">
        <ele>799.1999512</ele>
        <time>2019-12-07T09:54:40Z</time>
      </trkpt>
      <trkpt lat="43.89965" lon="7.01747">
        <ele>799.5999756</ele>
        <time>2019-12-07T09:54:42Z</time>
      </trkpt>
      <trkpt lat="43.89969" lon="7.01736">
        <ele>799.8000488</ele>
        <time>2019-12-07T09:54:44Z</time>
      </trkpt>
      <trkpt lat="43.89977" lon="7.01725">
        <ele>800.1999512</ele>
        <time>2019-12-07T09:54:47Z</time>
      </trkpt>
      <trkpt lat="43.89984" lon="7.0172">
        <ele>800.1999512</ele>
        <time>2019-12-07T09:54:49Z</time>
      </trkpt>
      <trkpt lat="43.89996" lon="7.01718">
        <ele>800.4000244</ele>
        <time>2019-12-07T09:54:52Z</time>
      </trkpt>
      <trkpt lat="43.90002" lon="7.01722">
        <ele>800.5999756</ele>
        <time>2019-12-07T09:54:54Z</time>
      </trkpt>
      <trkpt lat="43.90004" lon="7.01724">
        <ele>800.5999756</ele>
        <time>2019-12-07T09:54:55Z</time>
      </trkpt>
      <trkpt lat="43.90011" lon="7.01733">
        <ele>799</ele>
        <time>2019-12-07T09:54:59Z</time>
      </trkpt>
      <trkpt lat="43.90012" lon="7.01735">
        <ele>798.8000488</ele>
        <time>2019-12-07T09:55:00Z</time>
      </trkpt>
      <trkpt lat="43.90015" lon="7.01737">
        <ele>798.8000488</ele>
        <time>2019-12-07T09:55:02Z</time>
      </trkpt>
      <trkpt lat="43.90018" lon="7.01735">
        <ele>799</ele>
        <time>2019-12-07T09:55:04Z</time>
      </trkpt>
      <trkpt lat="43.90022" lon="7.01727">
        <ele>799</ele>
        <time>2019-12-07T09:55:08Z</time>
      </trkpt>
      <trkpt lat="43.90022" lon="7.01724">
        <ele>798.4000244</ele>
        <time>2019-12-07T09:55:09Z</time>
      </trkpt>
      <trkpt lat="43.90022" lon="7.01703">
        <ele>798.1999512</ele>
        <time>2019-12-07T09:55:17Z</time>
      </trkpt>
      <trkpt lat="43.90021" lon="7.01694">
        <ele>798</ele>
        <time>2019-12-07T09:55:20Z</time>
      </trkpt>
      <trkpt lat="43.90021" lon="7.01682">
        <ele>797.8000488</ele>
        <time>2019-12-07T09:55:24Z</time>
      </trkpt>
      <trkpt lat="43.90027" lon="7.01664">
        <ele>798.8000488</ele>
        <time>2019-12-07T09:55:32Z</time>
      </trkpt>
      <trkpt lat="43.90029" lon="7.0166">
        <ele>799</ele>
        <time>2019-12-07T09:55:34Z</time>
      </trkpt>
      <trkpt lat="43.90034" lon="7.01646">
        <ele>799.8000488</ele>
        <time>2019-12-07T09:55:40Z</time>
      </trkpt>
      <trkpt lat="43.90037" lon="7.01637">
        <ele>800.1999512</ele>
        <time>2019-12-07T09:55:44Z</time>
      </trkpt>
      <trkpt lat="43.90038" lon="7.01632">
        <ele>800.8000488</ele>
        <time>2019-12-07T09:55:46Z</time>
      </trkpt>
      <trkpt lat="43.90039" lon="7.01627">
        <ele>801.5999756</ele>
        <time>2019-12-07T09:55:48Z</time>
      </trkpt>
      <trkpt lat="43.90039" lon="7.01617">
        <ele>802.8000488</ele>
        <time>2019-12-07T09:55:52Z</time>
      </trkpt>
      <trkpt lat="43.90039" lon="7.01614">
        <ele>803</ele>
        <time>2019-12-07T09:55:53Z</time>
      </trkpt>
      <trkpt lat="43.90039" lon="7.01607">
        <ele>804</ele>
        <time>2019-12-07T09:55:56Z</time>
      </trkpt>
      <trkpt lat="43.90039" lon="7.01597">
        <ele>804.8000488</ele>
        <time>2019-12-07T09:56:00Z</time>
      </trkpt>
      <trkpt lat="43.90039" lon="7.01592">
        <ele>805</ele>
        <time>2019-12-07T09:56:02Z</time>
      </trkpt>
      <trkpt lat="43.9004" lon="7.01582">
        <ele>805.5999756</ele>
        <time>2019-12-07T09:56:06Z</time>
      </trkpt>
      <trkpt lat="43.9004" lon="7.01578">
        <ele>806.4000244</ele>
        <time>2019-12-07T09:56:08Z</time>
      </trkpt>
      <trkpt lat="43.90039" lon="7.01571">
        <ele>807.5999756</ele>
        <time>2019-12-07T09:56:11Z</time>
      </trkpt>
      <trkpt lat="43.90038" lon="7.01568">
        <ele>808</ele>
        <time>2019-12-07T09:56:13Z</time>
      </trkpt>
      <trkpt lat="43.90037" lon="7.01562">
        <ele>809</ele>
        <time>2019-12-07T09:56:16Z</time>
      </trkpt>
      <trkpt lat="43.90036" lon="7.01555">
        <ele>810</ele>
        <time>2019-12-07T09:56:19Z</time>
      </trkpt>
      <trkpt lat="43.90033" lon="7.01543">
        <ele>811.1999512</ele>
        <time>2019-12-07T09:56:23Z</time>
      </trkpt>
      <trkpt lat="43.90033" lon="7.01538">
        <ele>812</ele>
        <time>2019-12-07T09:56:25Z</time>
      </trkpt>
      <trkpt lat="43.90033" lon="7.01536">
        <ele>812.1999512</ele>
        <time>2019-12-07T09:56:26Z</time>
      </trkpt>
      <trkpt lat="43.90031" lon="7.01523">
        <ele>813.4000244</ele>
        <time>2019-12-07T09:56:31Z</time>
      </trkpt>
      <trkpt lat="43.90031" lon="7.01521">
        <ele>813.8000488</ele>
        <time>2019-12-07T09:56:32Z</time>
      </trkpt>
      <trkpt lat="43.9003" lon="7.01515">
        <ele>814.5999756</ele>
        <time>2019-12-07T09:56:35Z</time>
      </trkpt>
      <trkpt lat="43.90029" lon="7.015">
        <ele>815.4000244</ele>
        <time>2019-12-07T09:56:41Z</time>
      </trkpt>
      <trkpt lat="43.90027" lon="7.01488">
        <ele>815.5999756</ele>
        <time>2019-12-07T09:56:46Z</time>
      </trkpt>
      <trkpt lat="43.90027" lon="7.01484">
        <ele>816</ele>
        <time>2019-12-07T09:56:48Z</time>
      </trkpt>
      <trkpt lat="43.90026" lon="7.01475">
        <ele>816.8000488</ele>
        <time>2019-12-07T09:56:52Z</time>
      </trkpt>
      <trkpt lat="43.90026" lon="7.01469">
        <ele>817.4000244</ele>
        <time>2019-12-07T09:56:55Z</time>
      </trkpt>
      <trkpt lat="43.90027" lon="7.01464">
        <ele>818</ele>
        <time>2019-12-07T09:56:57Z</time>
      </trkpt>
      <trkpt lat="43.9003" lon="7.0146">
        <ele>817.8000488</ele>
        <time>2019-12-07T09:57:00Z</time>
      </trkpt>
      <trkpt lat="43.90031" lon="7.0146">
        <ele>817.5999756</ele>
        <time>2019-12-07T09:57:01Z</time>
      </trkpt>
      <trkpt lat="43.90037" lon="7.01466">
        <ele>817</ele>
        <time>2019-12-07T09:57:05Z</time>
      </trkpt>
      <trkpt lat="43.90038" lon="7.01468">
        <ele>816.8000488</ele>
        <time>2019-12-07T09:57:06Z</time>
      </trkpt>
      <trkpt lat="43.90041" lon="7.01483">
        <ele>816.4000244</ele>
        <time>2019-12-07T09:57:13Z</time>
      </trkpt>
      <trkpt lat="43.90048" lon="7.01492">
        <ele>817.4000244</ele>
        <time>2019-12-07T09:57:19Z</time>
      </trkpt>
      <trkpt lat="43.9005" lon="7.01492">
        <ele>817.8000488</ele>
        <time>2019-12-07T09:57:20Z</time>
      </trkpt>
      <trkpt lat="43.90057" lon="7.01492">
        <ele>817.8000488</ele>
        <time>2019-12-07T09:57:24Z</time>
      </trkpt>
      <trkpt lat="43.90062" lon="7.0149">
        <ele>818</ele>
        <time>2019-12-07T09:57:27Z</time>
      </trkpt>
      <trkpt lat="43.90075" lon="7.0148">
        <ele>818.1999512</ele>
        <time>2019-12-07T09:57:34Z</time>
      </trkpt>
      <trkpt lat="43.90088" lon="7.01469">
        <ele>819</ele>
        <time>2019-12-07T09:57:42Z</time>
      </trkpt>
      <trkpt lat="43.9009" lon="7.01468">
        <ele>819</ele>
        <time>2019-12-07T09:57:43Z</time>
      </trkpt>
      <trkpt lat="43.90102" lon="7.01457">
        <ele>819.4000244</ele>
        <time>2019-12-07T09:57:51Z</time>
      </trkpt>
      <trkpt lat="43.90107" lon="7.01452">
        <ele>820</ele>
        <time>2019-12-07T09:57:54Z</time>
      </trkpt>
      <trkpt lat="43.90113" lon="7.01443">
        <ele>820.1999512</ele>
        <time>2019-12-07T09:57:59Z</time>
      </trkpt>
      <trkpt lat="43.90122" lon="7.01425">
        <ele>820.8000488</ele>
        <time>2019-12-07T09:58:08Z</time>
      </trkpt>
      <trkpt lat="43.90124" lon="7.0142">
        <ele>821.1999512</ele>
        <time>2019-12-07T09:58:10Z</time>
      </trkpt>
      <trkpt lat="43.90127" lon="7.01412">
        <ele>822.4000244</ele>
        <time>2019-12-07T09:58:14Z</time>
      </trkpt>
      <trkpt lat="43.90129" lon="7.01408">
        <ele>822.8000488</ele>
        <time>2019-12-07T09:58:16Z</time>
      </trkpt>
      <trkpt lat="43.90134" lon="7.01396">
        <ele>823.8000488</ele>
        <time>2019-12-07T09:58:22Z</time>
      </trkpt>
      <trkpt lat="43.90137" lon="7.01388">
        <ele>825</ele>
        <time>2019-12-07T09:58:26Z</time>
      </trkpt>
      <trkpt lat="43.90138" lon="7.01384">
        <ele>825.8000488</ele>
        <time>2019-12-07T09:58:28Z</time>
      </trkpt>
      <trkpt lat="43.90138" lon="7.01382">
        <ele>826.1999512</ele>
        <time>2019-12-07T09:58:29Z</time>
      </trkpt>
      <trkpt lat="43.90138" lon="7.01377">
        <ele>827.4000244</ele>
        <time>2019-12-07T09:58:32Z</time>
      </trkpt>
      <trkpt lat="43.9014" lon="7.01371">
        <ele>828.8000488</ele>
        <time>2019-12-07T09:58:35Z</time>
      </trkpt>
      <trkpt lat="43.90145" lon="7.01357">
        <ele>829.4000244</ele>
        <time>2019-12-07T09:58:42Z</time>
      </trkpt>
      <trkpt lat="43.90146" lon="7.01355">
        <ele>829.8000488</ele>
        <time>2019-12-07T09:58:43Z</time>
      </trkpt>
      <trkpt lat="43.90151" lon="7.01343">
        <ele>830.8000488</ele>
        <time>2019-12-07T09:58:49Z</time>
      </trkpt>
      <trkpt lat="43.90157" lon="7.01337">
        <ele>830.8000488</ele>
        <time>2019-12-07T09:58:54Z</time>
      </trkpt>
      <trkpt lat="43.90167" lon="7.01329">
        <ele>831.5999756</ele>
        <time>2019-12-07T09:59:01Z</time>
      </trkpt>
      <trkpt lat="43.90171" lon="7.01326">
        <ele>832</ele>
        <time>2019-12-07T09:59:04Z</time>
      </trkpt>
      <trkpt lat="43.90176" lon="7.01325">
        <ele>833.1999512</ele>
        <time>2019-12-07T09:59:08Z</time>
      </trkpt>
      <trkpt lat="43.9018" lon="7.01325">
        <ele>834.5999756</ele>
        <time>2019-12-07T09:59:11Z</time>
      </trkpt>
      <trkpt lat="43.90185" lon="7.01327">
        <ele>835.8000488</ele>
        <time>2019-12-07T09:59:15Z</time>
      </trkpt>
      <trkpt lat="43.90187" lon="7.01327">
        <ele>836</ele>
        <time>2019-12-07T09:59:16Z</time>
      </trkpt>
      <trkpt lat="43.90195" lon="7.01324">
        <ele>837</ele>
        <time>2019-12-07T09:59:22Z</time>
      </trkpt>
      <trkpt lat="43.90203" lon="7.0132">
        <ele>837.8000488</ele>
        <time>2019-12-07T09:59:28Z</time>
      </trkpt>
      <trkpt lat="43.90205" lon="7.01319">
        <ele>838</ele>
        <time>2019-12-07T09:59:29Z</time>
      </trkpt>
      <trkpt lat="43.90213" lon="7.01316">
        <ele>839</ele>
        <time>2019-12-07T09:59:34Z</time>
      </trkpt>
      <trkpt lat="43.90218" lon="7.01315">
        <ele>839</ele>
        <time>2019-12-07T09:59:38Z</time>
      </trkpt>
      <trkpt lat="43.90221" lon="7.01313">
        <ele>839.1999512</ele>
        <time>2019-12-07T09:59:40Z</time>
      </trkpt>
      <trkpt lat="43.90223" lon="7.01304">
        <ele>839.8000488</ele>
        <time>2019-12-07T09:59:45Z</time>
      </trkpt>
      <trkpt lat="43.90221" lon="7.01302">
        <ele>840.4000244</ele>
        <time>2019-12-07T09:59:47Z</time>
      </trkpt>
      <trkpt lat="43.90216" lon="7.01299">
        <ele>840.4000244</ele>
        <time>2019-12-07T09:59:51Z</time>
      </trkpt>
      <trkpt lat="43.90211" lon="7.01288">
        <ele>840</ele>
        <time>2019-12-07T09:59:58Z</time>
      </trkpt>
      <trkpt lat="43.90213" lon="7.01273">
        <ele>840.5999756</ele>
        <time>2019-12-07T10:00:05Z</time>
      </trkpt>
      <trkpt lat="43.90214" lon="7.01271">
        <ele>841</ele>
        <time>2019-12-07T10:00:06Z</time>
      </trkpt>
      <trkpt lat="43.90215" lon="7.0127">
        <ele>841.5999756</ele>
        <time>2019-12-07T10:00:07Z</time>
      </trkpt>
      <trkpt lat="43.90218" lon="7.01267">
        <ele>842.8000488</ele>
        <time>2019-12-07T10:00:11Z</time>
      </trkpt>
      <trkpt lat="43.90219" lon="7.01266">
        <ele>843.4000244</ele>
        <time>2019-12-07T10:00:12Z</time>
      </trkpt>
      <trkpt lat="43.9022" lon="7.01266">
        <ele>844.1999512</ele>
        <time>2019-12-07T10:00:13Z</time>
      </trkpt>
      <trkpt lat="43.90221" lon="7.01265">
        <ele>844.8000488</ele>
        <time>2019-12-07T10:00:14Z</time>
      </trkpt>
      <trkpt lat="43.90222" lon="7.01264">
        <ele>845.5999756</ele>
        <time>2019-12-07T10:00:15Z</time>
      </trkpt>
      <trkpt lat="43.90225" lon="7.01262">
        <ele>846.5999756</ele>
        <time>2019-12-07T10:00:17Z</time>
      </trkpt>
      <trkpt lat="43.90226" lon="7.0126">
        <ele>847.1999512</ele>
        <time>2019-12-07T10:00:18Z</time>
      </trkpt>
      <trkpt lat="43.90228" lon="7.01258">
        <ele>847.8000488</ele>
        <time>2019-12-07T10:00:20Z</time>
      </trkpt>
      <trkpt lat="43.90229" lon="7.01254">
        <ele>848.5999756</ele>
        <time>2019-12-07T10:00:22Z</time>
      </trkpt>
      <trkpt lat="43.90229" lon="7.01252">
        <ele>848.5999756</ele>
        <time>2019-12-07T10:00:23Z</time>
      </trkpt>
      <trkpt lat="43.90228" lon="7.01241">
        <ele>848.5999756</ele>
        <time>2019-12-07T10:00:28Z</time>
      </trkpt>
      <trkpt lat="43.90227" lon="7.01239">
        <ele>848.4000244</ele>
        <time>2019-12-07T10:00:29Z</time>
      </trkpt>
      <trkpt lat="43.90224" lon="7.01234">
        <ele>848</ele>
        <time>2019-12-07T10:00:32Z</time>
      </trkpt>
      <trkpt lat="43.90221" lon="7.01224">
        <ele>847.1999512</ele>
        <time>2019-12-07T10:00:37Z</time>
      </trkpt>
      <trkpt lat="43.90218" lon="7.01215">
        <ele>846.8000488</ele>
        <time>2019-12-07T10:00:41Z</time>
      </trkpt>
      <trkpt lat="43.90218" lon="7.01208">
        <ele>846.4000244</ele>
        <time>2019-12-07T10:00:44Z</time>
      </trkpt>
      <trkpt lat="43.90218" lon="7.0119">
        <ele>848.1999512</ele>
        <time>2019-12-07T10:00:51Z</time>
      </trkpt>
      <trkpt lat="43.90221" lon="7.0118">
        <ele>849.1999512</ele>
        <time>2019-12-07T10:00:56Z</time>
      </trkpt>
      <trkpt lat="43.90221" lon="7.01175">
        <ele>849.5999756</ele>
        <time>2019-12-07T10:00:58Z</time>
      </trkpt>
      <trkpt lat="43.90222" lon="7.01168">
        <ele>850.4000244</ele>
        <time>2019-12-07T10:01:01Z</time>
      </trkpt>
      <trkpt lat="43.90222" lon="7.01159">
        <ele>851</ele>
        <time>2019-12-07T10:01:05Z</time>
      </trkpt>
      <trkpt lat="43.90221" lon="7.01154">
        <ele>851.5999756</ele>
        <time>2019-12-07T10:01:07Z</time>
      </trkpt>
      <trkpt lat="43.90221" lon="7.01145">
        <ele>852</ele>
        <time>2019-12-07T10:01:11Z</time>
      </trkpt>
      <trkpt lat="43.90221" lon="7.01133">
        <ele>853</ele>
        <time>2019-12-07T10:01:16Z</time>
      </trkpt>
      <trkpt lat="43.90222" lon="7.01131">
        <ele>853.1999512</ele>
        <time>2019-12-07T10:01:17Z</time>
      </trkpt>
      <trkpt lat="43.90225" lon="7.01129">
        <ele>853.8000488</ele>
        <time>2019-12-07T10:01:19Z</time>
      </trkpt>
      <trkpt lat="43.90227" lon="7.01128">
        <ele>854</ele>
        <time>2019-12-07T10:01:20Z</time>
      </trkpt>
      <trkpt lat="43.90229" lon="7.01131">
        <ele>854.1999512</ele>
        <time>2019-12-07T10:01:22Z</time>
      </trkpt>
      <trkpt lat="43.9023" lon="7.01138">
        <ele>854.4000244</ele>
        <time>2019-12-07T10:01:25Z</time>
      </trkpt>
      <trkpt lat="43.9023" lon="7.01145">
        <ele>854</ele>
        <time>2019-12-07T10:01:28Z</time>
      </trkpt>
      <trkpt lat="43.90232" lon="7.01161">
        <ele>855.1999512</ele>
        <time>2019-12-07T10:01:35Z</time>
      </trkpt>
      <trkpt lat="43.90235" lon="7.01171">
        <ele>856.1999512</ele>
        <time>2019-12-07T10:01:40Z</time>
      </trkpt>
      <trkpt lat="43.90236" lon="7.01175">
        <ele>856.8000488</ele>
        <time>2019-12-07T10:01:42Z</time>
      </trkpt>
      <trkpt lat="43.90238" lon="7.01181">
        <ele>857.4000244</ele>
        <time>2019-12-07T10:01:45Z</time>
      </trkpt>
      <trkpt lat="43.9024" lon="7.01191">
        <ele>858</ele>
        <time>2019-12-07T10:01:49Z</time>
      </trkpt>
      <trkpt lat="43.90241" lon="7.01192">
        <ele>858</ele>
        <time>2019-12-07T10:01:50Z</time>
      </trkpt>
      <trkpt lat="43.90245" lon="7.01198">
        <ele>858.4000244</ele>
        <time>2019-12-07T10:01:54Z</time>
      </trkpt>
      <trkpt lat="43.90246" lon="7.01199">
        <ele>858.8000488</ele>
        <time>2019-12-07T10:01:55Z</time>
      </trkpt>
      <trkpt lat="43.90248" lon="7.01202">
        <ele>859.5999756</ele>
        <time>2019-12-07T10:01:57Z</time>
      </trkpt>
      <trkpt lat="43.90253" lon="7.01208">
        <ele>860.8000488</ele>
        <time>2019-12-07T10:02:02Z</time>
      </trkpt>
      <trkpt lat="43.90255" lon="7.01209">
        <ele>861.4000244</ele>
        <time>2019-12-07T10:02:04Z</time>
      </trkpt>
      <trkpt lat="43.9026" lon="7.0121">
        <ele>862</ele>
        <time>2019-12-07T10:02:08Z</time>
      </trkpt>
      <trkpt lat="43.90261" lon="7.0121">
        <ele>862</ele>
        <time>2019-12-07T10:02:09Z</time>
      </trkpt>
      <trkpt lat="43.90269" lon="7.01213">
        <ele>862.5999756</ele>
        <time>2019-12-07T10:02:15Z</time>
      </trkpt>
      <trkpt lat="43.90272" lon="7.01215">
        <ele>863</ele>
        <time>2019-12-07T10:02:17Z</time>
      </trkpt>
      <trkpt lat="43.90277" lon="7.01218">
        <ele>864.1999512</ele>
        <time>2019-12-07T10:02:20Z</time>
      </trkpt>
      <trkpt lat="43.9028" lon="7.01224">
        <ele>864.5999756</ele>
        <time>2019-12-07T10:02:22Z</time>
      </trkpt>
      <trkpt lat="43.90281" lon="7.01233">
        <ele>864.5999756</ele>
        <time>2019-12-07T10:02:25Z</time>
      </trkpt>
      <trkpt lat="43.90281" lon="7.01238">
        <ele>865</ele>
        <time>2019-12-07T10:02:28Z</time>
      </trkpt>
      <trkpt lat="43.90281" lon="7.0124">
        <ele>865.4000244</ele>
        <time>2019-12-07T10:02:29Z</time>
      </trkpt>
      <trkpt lat="43.90277" lon="7.01253">
        <ele>866</ele>
        <time>2019-12-07T10:02:36Z</time>
      </trkpt>
      <trkpt lat="43.90278" lon="7.01261">
        <ele>866</ele>
        <time>2019-12-07T10:02:40Z</time>
      </trkpt>
      <trkpt lat="43.90279" lon="7.01268">
        <ele>865.8000488</ele>
        <time>2019-12-07T10:02:43Z</time>
      </trkpt>
      <trkpt lat="43.90281" lon="7.01278">
        <ele>865.4000244</ele>
        <time>2019-12-07T10:02:49Z</time>
      </trkpt>
      <trkpt lat="43.90281" lon="7.01282">
        <ele>866.4000244</ele>
        <time>2019-12-07T10:02:51Z</time>
      </trkpt>
      <trkpt lat="43.90281" lon="7.01288">
        <ele>867.4000244</ele>
        <time>2019-12-07T10:02:54Z</time>
      </trkpt>
      <trkpt lat="43.9028" lon="7.01292">
        <ele>867.4000244</ele>
        <time>2019-12-07T10:02:56Z</time>
      </trkpt>
      <trkpt lat="43.9028" lon="7.01294">
        <ele>867.5999756</ele>
        <time>2019-12-07T10:02:57Z</time>
      </trkpt>
      <trkpt lat="43.90277" lon="7.01303">
        <ele>867.5999756</ele>
        <time>2019-12-07T10:03:02Z</time>
      </trkpt>
      <trkpt lat="43.90275" lon="7.01316">
        <ele>867.4000244</ele>
        <time>2019-12-07T10:03:09Z</time>
      </trkpt>
      <trkpt lat="43.90273" lon="7.01325">
        <ele>867.8000488</ele>
        <time>2019-12-07T10:03:13Z</time>
      </trkpt>
      <trkpt lat="43.90273" lon="7.01332">
        <ele>868.4000244</ele>
        <time>2019-12-07T10:03:16Z</time>
      </trkpt>
      <trkpt lat="43.90274" lon="7.01339">
        <ele>868.4000244</ele>
        <time>2019-12-07T10:03:19Z</time>
      </trkpt>
      <trkpt lat="43.90279" lon="7.01342">
        <ele>868.8000488</ele>
        <time>2019-12-07T10:03:22Z</time>
      </trkpt>
      <trkpt lat="43.90282" lon="7.01339">
        <ele>869.8000488</ele>
        <time>2019-12-07T10:03:25Z</time>
      </trkpt>
      <trkpt lat="43.90283" lon="7.01335">
        <ele>870.5999756</ele>
        <time>2019-12-07T10:03:27Z</time>
      </trkpt>
      <trkpt lat="43.90284" lon="7.01334">
        <ele>870.8000488</ele>
        <time>2019-12-07T10:03:28Z</time>
      </trkpt>
      <trkpt lat="43.90284" lon="7.01331">
        <ele>870.8000488</ele>
        <time>2019-12-07T10:03:29Z</time>
      </trkpt>
      <trkpt lat="43.90287" lon="7.01323">
        <ele>872</ele>
        <time>2019-12-07T10:03:34Z</time>
      </trkpt>
      <trkpt lat="43.90288" lon="7.01321">
        <ele>872.4000244</ele>
        <time>2019-12-07T10:03:35Z</time>
      </trkpt>
      <trkpt lat="43.90289" lon="7.01318">
        <ele>873.1999512</ele>
        <time>2019-12-07T10:03:37Z</time>
      </trkpt>
      <trkpt lat="43.90291" lon="7.01311">
        <ele>874</ele>
        <time>2019-12-07T10:03:41Z</time>
      </trkpt>
      <trkpt lat="43.90292" lon="7.01309">
        <ele>874.1999512</ele>
        <time>2019-12-07T10:03:42Z</time>
      </trkpt>
      <trkpt lat="43.90293" lon="7.01306">
        <ele>874.8000488</ele>
        <time>2019-12-07T10:03:44Z</time>
      </trkpt>
      <trkpt lat="43.90293" lon="7.01305">
        <ele>875</ele>
        <time>2019-12-07T10:03:45Z</time>
      </trkpt>
      <trkpt lat="43.90294" lon="7.01303">
        <ele>875.4000244</ele>
        <time>2019-12-07T10:03:46Z</time>
      </trkpt>
      <trkpt lat="43.90297" lon="7.01297">
        <ele>876.4000244</ele>
        <time>2019-12-07T10:03:50Z</time>
      </trkpt>
      <trkpt lat="43.90298" lon="7.01292">
        <ele>877.4000244</ele>
        <time>2019-12-07T10:03:53Z</time>
      </trkpt>
      <trkpt lat="43.90299" lon="7.0129">
        <ele>877.8000488</ele>
        <time>2019-12-07T10:03:54Z</time>
      </trkpt>
      <trkpt lat="43.90301" lon="7.0128">
        <ele>879</ele>
        <time>2019-12-07T10:03:59Z</time>
      </trkpt>
      <trkpt lat="43.90302" lon="7.01276">
        <ele>879.4000244</ele>
        <time>2019-12-07T10:04:01Z</time>
      </trkpt>
      <trkpt lat="43.90304" lon="7.01262">
        <ele>879.1999512</ele>
        <time>2019-12-07T10:04:08Z</time>
      </trkpt>
      <trkpt lat="43.90306" lon="7.01257">
        <ele>880.1999512</ele>
        <time>2019-12-07T10:04:11Z</time>
      </trkpt>
      <trkpt lat="43.90309" lon="7.0125">
        <ele>881</ele>
        <time>2019-12-07T10:04:15Z</time>
      </trkpt>
      <trkpt lat="43.9031" lon="7.01249">
        <ele>881.1999512</ele>
        <time>2019-12-07T10:04:16Z</time>
      </trkpt>
      <trkpt lat="43.90312" lon="7.01249">
        <ele>881.4000244</ele>
        <time>2019-12-07T10:04:18Z</time>
      </trkpt>
      <trkpt lat="43.90313" lon="7.01251">
        <ele>881.8000488</ele>
        <time>2019-12-07T10:04:19Z</time>
      </trkpt>
      <trkpt lat="43.90313" lon="7.01259">
        <ele>882.4000244</ele>
        <time>2019-12-07T10:04:23Z</time>
      </trkpt>
      <trkpt lat="43.90313" lon="7.01261">
        <ele>882.4000244</ele>
        <time>2019-12-07T10:04:24Z</time>
      </trkpt>
      <trkpt lat="43.90312" lon="7.01263">
        <ele>882.4000244</ele>
        <time>2019-12-07T10:04:25Z</time>
      </trkpt>
      <trkpt lat="43.90311" lon="7.01265">
        <ele>882.4000244</ele>
        <time>2019-12-07T10:04:26Z</time>
      </trkpt>
      <trkpt lat="43.9031" lon="7.01272">
        <ele>882.8000488</ele>
        <time>2019-12-07T10:04:30Z</time>
      </trkpt>
      <trkpt lat="43.90309" lon="7.01279">
        <ele>883.4000244</ele>
        <time>2019-12-07T10:04:34Z</time>
      </trkpt>
      <trkpt lat="43.90309" lon="7.01284">
        <ele>883.5999756</ele>
        <time>2019-12-07T10:04:36Z</time>
      </trkpt>
      <trkpt lat="43.90311" lon="7.01293">
        <ele>884.8000488</ele>
        <time>2019-12-07T10:04:41Z</time>
      </trkpt>
      <trkpt lat="43.90312" lon="7.01295">
        <ele>885.5999756</ele>
        <time>2019-12-07T10:04:43Z</time>
      </trkpt>
      <trkpt lat="43.90314" lon="7.01298">
        <ele>886</ele>
        <time>2019-12-07T10:04:45Z</time>
      </trkpt>
      <trkpt lat="43.90318" lon="7.01301">
        <ele>886.8000488</ele>
        <time>2019-12-07T10:04:49Z</time>
      </trkpt>
      <trkpt lat="43.90319" lon="7.01301">
        <ele>887.1999512</ele>
        <time>2019-12-07T10:04:50Z</time>
      </trkpt>
      <trkpt lat="43.90325" lon="7.013">
        <ele>887.5999756</ele>
        <time>2019-12-07T10:04:53Z</time>
      </trkpt>
      <trkpt lat="43.90329" lon="7.01297">
        <ele>887.5999756</ele>
        <time>2019-12-07T10:04:56Z</time>
      </trkpt>
      <trkpt lat="43.90335" lon="7.01285">
        <ele>888</ele>
        <time>2019-12-07T10:05:04Z</time>
      </trkpt>
      <trkpt lat="43.90337" lon="7.01279">
        <ele>888.1999512</ele>
        <time>2019-12-07T10:05:07Z</time>
      </trkpt>
      <trkpt lat="43.90339" lon="7.01271">
        <ele>889.1999512</ele>
        <time>2019-12-07T10:05:11Z</time>
      </trkpt>
      <trkpt lat="43.9034" lon="7.01269">
        <ele>889.4000244</ele>
        <time>2019-12-07T10:05:12Z</time>
      </trkpt>
      <trkpt lat="43.90341" lon="7.01263">
        <ele>890.5999756</ele>
        <time>2019-12-07T10:05:16Z</time>
      </trkpt>
      <trkpt lat="43.90345" lon="7.01255">
        <ele>891.4000244</ele>
        <time>2019-12-07T10:05:21Z</time>
      </trkpt>
      <trkpt lat="43.90346" lon="7.01254">
        <ele>891.5999756</ele>
        <time>2019-12-07T10:05:22Z</time>
      </trkpt>
      <trkpt lat="43.90349" lon="7.01248">
        <ele>892.8000488</ele>
        <time>2019-12-07T10:05:26Z</time>
      </trkpt>
      <trkpt lat="43.90351" lon="7.01244">
        <ele>893.5999756</ele>
        <time>2019-12-07T10:05:28Z</time>
      </trkpt>
      <trkpt lat="43.90352" lon="7.01241">
        <ele>893.8000488</ele>
        <time>2019-12-07T10:05:29Z</time>
      </trkpt>
      <trkpt lat="43.90355" lon="7.01228">
        <ele>894.5999756</ele>
        <time>2019-12-07T10:05:35Z</time>
      </trkpt>
      <trkpt lat="43.90355" lon="7.01226">
        <ele>895</ele>
        <time>2019-12-07T10:05:36Z</time>
      </trkpt>
      <trkpt lat="43.90355" lon="7.01217">
        <ele>896.1999512</ele>
        <time>2019-12-07T10:05:40Z</time>
      </trkpt>
      <trkpt lat="43.90354" lon="7.01213">
        <ele>896.1999512</ele>
        <time>2019-12-07T10:05:42Z</time>
      </trkpt>
      <trkpt lat="43.90351" lon="7.01198">
        <ele>895.8000488</ele>
        <time>2019-12-07T10:05:50Z</time>
      </trkpt>
      <trkpt lat="43.90349" lon="7.01188">
        <ele>895</ele>
        <time>2019-12-07T10:05:55Z</time>
      </trkpt>
      <trkpt lat="43.90347" lon="7.01183">
        <ele>895</ele>
        <time>2019-12-07T10:05:58Z</time>
      </trkpt>
      <trkpt lat="43.90342" lon="7.01175">
        <ele>895</ele>
        <time>2019-12-07T10:06:04Z</time>
      </trkpt>
      <trkpt lat="43.9034" lon="7.01174">
        <ele>895</ele>
        <time>2019-12-07T10:06:05Z</time>
      </trkpt>
      <trkpt lat="43.90333" lon="7.01165">
        <ele>896.4000244</ele>
        <time>2019-12-07T10:06:11Z</time>
      </trkpt>
      <trkpt lat="43.90332" lon="7.01164">
        <ele>896.5999756</ele>
        <time>2019-12-07T10:06:12Z</time>
      </trkpt>
      <trkpt lat="43.90326" lon="7.01156">
        <ele>897.4000244</ele>
        <time>2019-12-07T10:06:18Z</time>
      </trkpt>
      <trkpt lat="43.90324" lon="7.01155">
        <ele>897.4000244</ele>
        <time>2019-12-07T10:06:19Z</time>
      </trkpt>
      <trkpt lat="43.90323" lon="7.01151">
        <ele>897.5999756</ele>
        <time>2019-12-07T10:06:21Z</time>
      </trkpt>
      <trkpt lat="43.90322" lon="7.01141">
        <ele>897.8000488</ele>
        <time>2019-12-07T10:06:26Z</time>
      </trkpt>
      <trkpt lat="43.90322" lon="7.01136">
        <ele>898.5999756</ele>
        <time>2019-12-07T10:06:29Z</time>
      </trkpt>
      <trkpt lat="43.90324" lon="7.01129">
        <ele>899.4000244</ele>
        <time>2019-12-07T10:06:33Z</time>
      </trkpt>
      <trkpt lat="43.90326" lon="7.01126">
        <ele>899.5999756</ele>
        <time>2019-12-07T10:06:35Z</time>
      </trkpt>
      <trkpt lat="43.90331" lon="7.0112">
        <ele>900.1999512</ele>
        <time>2019-12-07T10:06:40Z</time>
      </trkpt>
      <trkpt lat="43.90333" lon="7.01115">
        <ele>900.5999756</ele>
        <time>2019-12-07T10:06:43Z</time>
      </trkpt>
      <trkpt lat="43.90335" lon="7.01108">
        <ele>901.1999512</ele>
        <time>2019-12-07T10:06:46Z</time>
      </trkpt>
      <trkpt lat="43.90339" lon="7.01092">
        <ele>902</ele>
        <time>2019-12-07T10:06:55Z</time>
      </trkpt>
      <trkpt lat="43.90344" lon="7.01088">
        <ele>902.5999756</ele>
        <time>2019-12-07T10:07:00Z</time>
      </trkpt>
      <trkpt lat="43.90345" lon="7.01088">
        <ele>902.4000244</ele>
        <time>2019-12-07T10:07:01Z</time>
      </trkpt>
      <trkpt lat="43.90348" lon="7.01087">
        <ele>902.5999756</ele>
        <time>2019-12-07T10:07:07Z</time>
      </trkpt>
      <trkpt lat="43.90348" lon="7.01087">
        <ele>902.5999756</ele>
        <time>2019-12-07T10:07:08Z</time>
      </trkpt>
      <trkpt lat="43.90351" lon="7.01084">
        <ele>903.1999512</ele>
        <time>2019-12-07T10:07:11Z</time>
      </trkpt>
      <trkpt lat="43.90352" lon="7.01084">
        <ele>903</ele>
        <time>2019-12-07T10:07:12Z</time>
      </trkpt>
      <trkpt lat="43.90353" lon="7.01084">
        <ele>902.8000488</ele>
        <time>2019-12-07T10:07:18Z</time>
      </trkpt>
      <trkpt lat="43.90354" lon="7.01084">
        <ele>903</ele>
        <time>2019-12-07T10:07:25Z</time>
      </trkpt>
      <trkpt lat="43.90354" lon="7.01084">
        <ele>903</ele>
        <time>2019-12-07T10:07:32Z</time>
      </trkpt>
      <trkpt lat="43.90354" lon="7.01084">
        <ele>903</ele>
        <time>2019-12-07T10:07:42Z</time>
      </trkpt>
      <trkpt lat="43.90353" lon="7.01084">
        <ele>902.8000488</ele>
        <time>2019-12-07T10:07:49Z</time>
      </trkpt>
      <trkpt lat="43.90353" lon="7.01084">
        <ele>902.8000488</ele>
        <time>2019-12-07T10:08:01Z</time>
      </trkpt>
      <trkpt lat="43.90353" lon="7.01084">
        <ele>902.8000488</ele>
        <time>2019-12-07T10:08:11Z</time>
      </trkpt>
      <trkpt lat="43.90353" lon="7.01084">
        <ele>902.8000488</ele>
        <time>2019-12-07T10:08:18Z</time>
      </trkpt>
      <trkpt lat="43.90354" lon="7.01084">
        <ele>902.4000244</ele>
        <time>2019-12-07T10:08:29Z</time>
      </trkpt>
      <trkpt lat="43.90354" lon="7.01084">
        <ele>902.4000244</ele>
        <time>2019-12-07T10:08:37Z</time>
      </trkpt>
      <trkpt lat="43.90354" lon="7.01084">
        <ele>902.4000244</ele>
        <time>2019-12-07T10:08:50Z</time>
      </trkpt>
      <trkpt lat="43.90354" lon="7.01084">
        <ele>902.4000244</ele>
        <time>2019-12-07T10:08:59Z</time>
      </trkpt>
      <trkpt lat="43.90353" lon="7.01085">
        <ele>902.5999756</ele>
        <time>2019-12-07T10:09:09Z</time>
      </trkpt>
      <trkpt lat="43.90353" lon="7.01085">
        <ele>902.5999756</ele>
        <time>2019-12-07T10:09:21Z</time>
      </trkpt>
      <trkpt lat="43.90353" lon="7.01085">
        <ele>902.5999756</ele>
        <time>2019-12-07T10:09:32Z</time>
      </trkpt>
      <trkpt lat="43.90353" lon="7.01085">
        <ele>902.5999756</ele>
        <time>2019-12-07T10:09:44Z</time>
      </trkpt>
      <trkpt lat="43.90353" lon="7.01084">
        <ele>902.5999756</ele>
        <time>2019-12-07T10:10:00Z</time>
      </trkpt>
      <trkpt lat="43.90353" lon="7.01084">
        <ele>902.5999756</ele>
        <time>2019-12-07T10:10:09Z</time>
      </trkpt>
      <trkpt lat="43.90354" lon="7.01084">
        <ele>902.4000244</ele>
        <time>2019-12-07T10:10:16Z</time>
      </trkpt>
      <trkpt lat="43.90356" lon="7.01084">
        <ele>902.5999756</ele>
        <time>2019-12-07T10:10:23Z</time>
      </trkpt>
      <trkpt lat="43.90364" lon="7.01078">
        <ele>904.1999512</ele>
        <time>2019-12-07T10:10:29Z</time>
      </trkpt>
      <trkpt lat="43.90374" lon="7.01073">
        <ele>905.4000244</ele>
        <time>2019-12-07T10:10:36Z</time>
      </trkpt>
      <trkpt lat="43.90375" lon="7.01072">
        <ele>905.5999756</ele>
        <time>2019-12-07T10:10:37Z</time>
      </trkpt>
      <trkpt lat="43.90384" lon="7.01067">
        <ele>906.1999512</ele>
        <time>2019-12-07T10:10:43Z</time>
      </trkpt>
      <trkpt lat="43.90386" lon="7.01065">
        <ele>906.4000244</ele>
        <time>2019-12-07T10:10:45Z</time>
      </trkpt>
      <trkpt lat="43.90388" lon="7.01062">
        <ele>906.8000488</ele>
        <time>2019-12-07T10:10:47Z</time>
      </trkpt>
      <trkpt lat="43.90391" lon="7.0106">
        <ele>907.1999512</ele>
        <time>2019-12-07T10:10:49Z</time>
      </trkpt>
      <trkpt lat="43.90394" lon="7.01057">
        <ele>907.4000244</ele>
        <time>2019-12-07T10:10:51Z</time>
      </trkpt>
      <trkpt lat="43.90395" lon="7.01056">
        <ele>907.4000244</ele>
        <time>2019-12-07T10:10:52Z</time>
      </trkpt>
      <trkpt lat="43.90399" lon="7.01052">
        <ele>908</ele>
        <time>2019-12-07T10:10:55Z</time>
      </trkpt>
      <trkpt lat="43.90401" lon="7.0105">
        <ele>908.5999756</ele>
        <time>2019-12-07T10:10:57Z</time>
      </trkpt>
      <trkpt lat="43.90405" lon="7.01044">
        <ele>909.8000488</ele>
        <time>2019-12-07T10:11:01Z</time>
      </trkpt>
      <trkpt lat="43.90406" lon="7.01042">
        <ele>909.8000488</ele>
        <time>2019-12-07T10:11:02Z</time>
      </trkpt>
      <trkpt lat="43.90411" lon="7.01029">
        <ele>910.8000488</ele>
        <time>2019-12-07T10:11:09Z</time>
      </trkpt>
      <trkpt lat="43.90412" lon="7.01026">
        <ele>911.4000244</ele>
        <time>2019-12-07T10:11:11Z</time>
      </trkpt>
      <trkpt lat="43.90414" lon="7.01023">
        <ele>912</ele>
        <time>2019-12-07T10:11:13Z</time>
      </trkpt>
      <trkpt lat="43.90418" lon="7.0102">
        <ele>912.5999756</ele>
        <time>2019-12-07T10:11:16Z</time>
      </trkpt>
      <trkpt lat="43.9042" lon="7.01019">
        <ele>913</ele>
        <time>2019-12-07T10:11:18Z</time>
      </trkpt>
      <trkpt lat="43.90422" lon="7.01019">
        <ele>913.1999512</ele>
        <time>2019-12-07T10:11:19Z</time>
      </trkpt>
      <trkpt lat="43.90428" lon="7.01021">
        <ele>913.5999756</ele>
        <time>2019-12-07T10:11:24Z</time>
      </trkpt>
      <trkpt lat="43.90429" lon="7.01021">
        <ele>913.8000488</ele>
        <time>2019-12-07T10:11:25Z</time>
      </trkpt>
      <trkpt lat="43.90433" lon="7.01023">
        <ele>914.4000244</ele>
        <time>2019-12-07T10:11:28Z</time>
      </trkpt>
      <trkpt lat="43.90437" lon="7.01028">
        <ele>915.4000244</ele>
        <time>2019-12-07T10:11:32Z</time>
      </trkpt>
      <trkpt lat="43.90438" lon="7.01031">
        <ele>916</ele>
        <time>2019-12-07T10:11:34Z</time>
      </trkpt>
      <trkpt lat="43.90442" lon="7.01036">
        <ele>916.4000244</ele>
        <time>2019-12-07T10:11:37Z</time>
      </trkpt>
      <trkpt lat="43.90443" lon="7.01037">
        <ele>916.4000244</ele>
        <time>2019-12-07T10:11:38Z</time>
      </trkpt>
      <trkpt lat="43.90451" lon="7.01043">
        <ele>916.4000244</ele>
        <time>2019-12-07T10:11:44Z</time>
      </trkpt>
      <trkpt lat="43.90454" lon="7.01044">
        <ele>916.8000488</ele>
        <time>2019-12-07T10:11:46Z</time>
      </trkpt>
      <trkpt lat="43.9046" lon="7.01043">
        <ele>917.5999756</ele>
        <time>2019-12-07T10:11:49Z</time>
      </trkpt>
      <trkpt lat="43.90463" lon="7.01043">
        <ele>918.5999756</ele>
        <time>2019-12-07T10:11:51Z</time>
      </trkpt>
      <trkpt lat="43.90467" lon="7.01042">
        <ele>919.8000488</ele>
        <time>2019-12-07T10:11:54Z</time>
      </trkpt>
      <trkpt lat="43.90473" lon="7.01039">
        <ele>920.8000488</ele>
        <time>2019-12-07T10:11:58Z</time>
      </trkpt>
      <trkpt lat="43.90479" lon="7.01035">
        <ele>921.4000244</ele>
        <time>2019-12-07T10:12:02Z</time>
      </trkpt>
      <trkpt lat="43.9049" lon="7.01029">
        <ele>921.5999756</ele>
        <time>2019-12-07T10:12:10Z</time>
      </trkpt>
      <trkpt lat="43.90493" lon="7.01029">
        <ele>922</ele>
        <time>2019-12-07T10:12:12Z</time>
      </trkpt>
      <trkpt lat="43.90502" lon="7.0103">
        <ele>923.1999512</ele>
        <time>2019-12-07T10:12:18Z</time>
      </trkpt>
      <trkpt lat="43.90504" lon="7.01031">
        <ele>923.4000244</ele>
        <time>2019-12-07T10:12:19Z</time>
      </trkpt>
      <trkpt lat="43.90511" lon="7.01033">
        <ele>924.1999512</ele>
        <time>2019-12-07T10:12:24Z</time>
      </trkpt>
      <trkpt lat="43.90514" lon="7.01033">
        <ele>924.5999756</ele>
        <time>2019-12-07T10:12:26Z</time>
      </trkpt>
      <trkpt lat="43.90516" lon="7.01032">
        <ele>925.1999512</ele>
        <time>2019-12-07T10:12:28Z</time>
      </trkpt>
      <trkpt lat="43.90523" lon="7.01029">
        <ele>926</ele>
        <time>2019-12-07T10:12:33Z</time>
      </trkpt>
      <trkpt lat="43.90525" lon="7.01028">
        <ele>926.4000244</ele>
        <time>2019-12-07T10:12:34Z</time>
      </trkpt>
      <trkpt lat="43.90532" lon="7.01026">
        <ele>926.4000244</ele>
        <time>2019-12-07T10:12:38Z</time>
      </trkpt>
      <trkpt lat="43.90534" lon="7.01026">
        <ele>926.4000244</ele>
        <time>2019-12-07T10:12:39Z</time>
      </trkpt>
      <trkpt lat="43.90543" lon="7.01021">
        <ele>927.1999512</ele>
        <time>2019-12-07T10:12:45Z</time>
      </trkpt>
      <trkpt lat="43.90544" lon="7.0102">
        <ele>927.4000244</ele>
        <time>2019-12-07T10:12:46Z</time>
      </trkpt>
      <trkpt lat="43.90545" lon="7.0102">
        <ele>927.4000244</ele>
        <time>2019-12-07T10:12:47Z</time>
      </trkpt>
      <trkpt lat="43.90551" lon="7.01012">
        <ele>928.1999512</ele>
        <time>2019-12-07T10:12:53Z</time>
      </trkpt>
      <trkpt lat="43.90554" lon="7.0101">
        <ele>928.4000244</ele>
        <time>2019-12-07T10:12:55Z</time>
      </trkpt>
      <trkpt lat="43.90559" lon="7.01005">
        <ele>929.4000244</ele>
        <time>2019-12-07T10:12:59Z</time>
      </trkpt>
      <trkpt lat="43.90568" lon="7.00999">
        <ele>929.5999756</ele>
        <time>2019-12-07T10:13:05Z</time>
      </trkpt>
      <trkpt lat="43.9057" lon="7.00997">
        <ele>930.4000244</ele>
        <time>2019-12-07T10:13:07Z</time>
      </trkpt>
      <trkpt lat="43.90572" lon="7.00996">
        <ele>930.8000488</ele>
        <time>2019-12-07T10:13:09Z</time>
      </trkpt>
      <trkpt lat="43.90578" lon="7.00994">
        <ele>931.8000488</ele>
        <time>2019-12-07T10:13:13Z</time>
      </trkpt>
      <trkpt lat="43.90579" lon="7.00994">
        <ele>932.1999512</ele>
        <time>2019-12-07T10:13:14Z</time>
      </trkpt>
      <trkpt lat="43.90586" lon="7.00989">
        <ele>933.1999512</ele>
        <time>2019-12-07T10:13:19Z</time>
      </trkpt>
      <trkpt lat="43.90587" lon="7.00988">
        <ele>933.4000244</ele>
        <time>2019-12-07T10:13:20Z</time>
      </trkpt>
      <trkpt lat="43.90593" lon="7.00981">
        <ele>934.1999512</ele>
        <time>2019-12-07T10:13:25Z</time>
      </trkpt>
      <trkpt lat="43.90594" lon="7.0098">
        <ele>934.1999512</ele>
        <time>2019-12-07T10:13:26Z</time>
      </trkpt>
      <trkpt lat="43.90599" lon="7.00974">
        <ele>935.1999512</ele>
        <time>2019-12-07T10:13:31Z</time>
      </trkpt>
      <trkpt lat="43.90601" lon="7.00971">
        <ele>935.8000488</ele>
        <time>2019-12-07T10:13:33Z</time>
      </trkpt>
      <trkpt lat="43.90613" lon="7.0096">
        <ele>936.1999512</ele>
        <time>2019-12-07T10:13:42Z</time>
      </trkpt>
      <trkpt lat="43.90615" lon="7.00959">
        <ele>936.4000244</ele>
        <time>2019-12-07T10:13:44Z</time>
      </trkpt>
      <trkpt lat="43.90616" lon="7.00958">
        <ele>936.5999756</ele>
        <time>2019-12-07T10:13:45Z</time>
      </trkpt>
      <trkpt lat="43.9062" lon="7.00956">
        <ele>937</ele>
        <time>2019-12-07T10:13:48Z</time>
      </trkpt>
      <trkpt lat="43.90624" lon="7.00952">
        <ele>937.4000244</ele>
        <time>2019-12-07T10:13:51Z</time>
      </trkpt>
      <trkpt lat="43.90628" lon="7.00949">
        <ele>937.8000488</ele>
        <time>2019-12-07T10:13:54Z</time>
      </trkpt>
      <trkpt lat="43.90636" lon="7.0094">
        <ele>937.8000488</ele>
        <time>2019-12-07T10:14:01Z</time>
      </trkpt>
      <trkpt lat="43.90638" lon="7.00937">
        <ele>938.4000244</ele>
        <time>2019-12-07T10:14:03Z</time>
      </trkpt>
      <trkpt lat="43.90639" lon="7.00936">
        <ele>938.5999756</ele>
        <time>2019-12-07T10:14:04Z</time>
      </trkpt>
      <trkpt lat="43.90641" lon="7.00933">
        <ele>938.8000488</ele>
        <time>2019-12-07T10:14:06Z</time>
      </trkpt>
      <trkpt lat="43.90646" lon="7.00923">
        <ele>939.4000244</ele>
        <time>2019-12-07T10:14:12Z</time>
      </trkpt>
      <trkpt lat="43.90646" lon="7.00921">
        <ele>939.5999756</ele>
        <time>2019-12-07T10:14:13Z</time>
      </trkpt>
      <trkpt lat="43.90652" lon="7.00905">
        <ele>940.1999512</ele>
        <time>2019-12-07T10:14:21Z</time>
      </trkpt>
      <trkpt lat="43.90654" lon="7.009">
        <ele>940.8000488</ele>
        <time>2019-12-07T10:14:24Z</time>
      </trkpt>
      <trkpt lat="43.90658" lon="7.00894">
        <ele>941</ele>
        <time>2019-12-07T10:14:28Z</time>
      </trkpt>
      <trkpt lat="43.90664" lon="7.00885">
        <ele>941.8000488</ele>
        <time>2019-12-07T10:14:34Z</time>
      </trkpt>
      <trkpt lat="43.90666" lon="7.00882">
        <ele>942.4000244</ele>
        <time>2019-12-07T10:14:36Z</time>
      </trkpt>
      <trkpt lat="43.9067" lon="7.00878">
        <ele>943.1999512</ele>
        <time>2019-12-07T10:14:39Z</time>
      </trkpt>
      <trkpt lat="43.90676" lon="7.00878">
        <ele>943.5999756</ele>
        <time>2019-12-07T10:14:43Z</time>
      </trkpt>
      <trkpt lat="43.9068" lon="7.0088">
        <ele>944.1999512</ele>
        <time>2019-12-07T10:14:46Z</time>
      </trkpt>
      <trkpt lat="43.90686" lon="7.00883">
        <ele>945</ele>
        <time>2019-12-07T10:14:50Z</time>
      </trkpt>
      <trkpt lat="43.90693" lon="7.00884">
        <ele>945.4000244</ele>
        <time>2019-12-07T10:14:55Z</time>
      </trkpt>
      <trkpt lat="43.90697" lon="7.00883">
        <ele>945.5999756</ele>
        <time>2019-12-07T10:14:57Z</time>
      </trkpt>
      <trkpt lat="43.90709" lon="7.00881">
        <ele>946.4000244</ele>
        <time>2019-12-07T10:15:04Z</time>
      </trkpt>
      <trkpt lat="43.9071" lon="7.00881">
        <ele>946.4000244</ele>
        <time>2019-12-07T10:15:05Z</time>
      </trkpt>
      <trkpt lat="43.90718" lon="7.00882">
        <ele>947.4000244</ele>
        <time>2019-12-07T10:15:10Z</time>
      </trkpt>
      <trkpt lat="43.90719" lon="7.00881">
        <ele>947.8000488</ele>
        <time>2019-12-07T10:15:11Z</time>
      </trkpt>
      <trkpt lat="43.90726" lon="7.00882">
        <ele>948.8000488</ele>
        <time>2019-12-07T10:15:15Z</time>
      </trkpt>
      <trkpt lat="43.90728" lon="7.00881">
        <ele>949.1999512</ele>
        <time>2019-12-07T10:15:16Z</time>
      </trkpt>
      <trkpt lat="43.90735" lon="7.00879">
        <ele>950</ele>
        <time>2019-12-07T10:15:20Z</time>
      </trkpt>
      <trkpt lat="43.90738" lon="7.00878">
        <ele>950.1999512</ele>
        <time>2019-12-07T10:15:22Z</time>
      </trkpt>
      <trkpt lat="43.90747" lon="7.00878">
        <ele>951</ele>
        <time>2019-12-07T10:15:27Z</time>
      </trkpt>
      <trkpt lat="43.9075" lon="7.00877">
        <ele>951</ele>
        <time>2019-12-07T10:15:28Z</time>
      </trkpt>
      <trkpt lat="43.90765" lon="7.00871">
        <ele>951.4000244</ele>
        <time>2019-12-07T10:15:33Z</time>
      </trkpt>
      <trkpt lat="43.90775" lon="7.00863">
        <ele>950.8000488</ele>
        <time>2019-12-07T10:15:36Z</time>
      </trkpt>
      <trkpt lat="43.90784" lon="7.00858">
        <ele>949.8000488</ele>
        <time>2019-12-07T10:15:38Z</time>
      </trkpt>
      <trkpt lat="43.90801" lon="7.00855">
        <ele>948.5999756</ele>
        <time>2019-12-07T10:15:41Z</time>
      </trkpt>
      <trkpt lat="43.90806" lon="7.00854">
        <ele>948.1999512</ele>
        <time>2019-12-07T10:15:42Z</time>
      </trkpt>
      <trkpt lat="43.90811" lon="7.00854">
        <ele>947.8000488</ele>
        <time>2019-12-07T10:15:43Z</time>
      </trkpt>
      <trkpt lat="43.90817" lon="7.00853">
        <ele>947.4000244</ele>
        <time>2019-12-07T10:15:44Z</time>
      </trkpt>
      <trkpt lat="43.90823" lon="7.00852">
        <ele>946.8000488</ele>
        <time>2019-12-07T10:15:45Z</time>
      </trkpt>
      <trkpt lat="43.90836" lon="7.00848">
        <ele>946</ele>
        <time>2019-12-07T10:15:47Z</time>
      </trkpt>
      <trkpt lat="43.90843" lon="7.00846">
        <ele>945.4000244</ele>
        <time>2019-12-07T10:15:48Z</time>
      </trkpt>
      <trkpt lat="43.90858" lon="7.00841">
        <ele>944.5999756</ele>
        <time>2019-12-07T10:15:50Z</time>
      </trkpt>
      <trkpt lat="43.90874" lon="7.00839">
        <ele>943.5999756</ele>
        <time>2019-12-07T10:15:52Z</time>
      </trkpt>
      <trkpt lat="43.90881" lon="7.0084">
        <ele>943.4000244</ele>
        <time>2019-12-07T10:15:53Z</time>
      </trkpt>
      <trkpt lat="43.90907" lon="7.00842">
        <ele>943</ele>
        <time>2019-12-07T10:15:57Z</time>
      </trkpt>
      <trkpt lat="43.90922" lon="7.0084">
        <ele>943.4000244</ele>
        <time>2019-12-07T10:16:01Z</time>
      </trkpt>
      <trkpt lat="43.90928" lon="7.00844">
        <ele>943.4000244</ele>
        <time>2019-12-07T10:16:03Z</time>
      </trkpt>
      <trkpt lat="43.90935" lon="7.00848">
        <ele>943.4000244</ele>
        <time>2019-12-07T10:16:05Z</time>
      </trkpt>
      <trkpt lat="43.90938" lon="7.00851">
        <ele>943.4000244</ele>
        <time>2019-12-07T10:16:06Z</time>
      </trkpt>
      <trkpt lat="43.90949" lon="7.00863">
        <ele>943.5999756</ele>
        <time>2019-12-07T10:16:09Z</time>
      </trkpt>
      <trkpt lat="43.90951" lon="7.00868">
        <ele>943.5999756</ele>
        <time>2019-12-07T10:16:10Z</time>
      </trkpt>
      <trkpt lat="43.90958" lon="7.00886">
        <ele>944</ele>
        <time>2019-12-07T10:16:14Z</time>
      </trkpt>
      <trkpt lat="43.90961" lon="7.00895">
        <ele>944.4000244</ele>
        <time>2019-12-07T10:16:16Z</time>
      </trkpt>
      <trkpt lat="43.9096" lon="7.00899">
        <ele>944.5999756</ele>
        <time>2019-12-07T10:16:17Z</time>
      </trkpt>
      <trkpt lat="43.90961" lon="7.00906">
        <ele>945.1999512</ele>
        <time>2019-12-07T10:16:19Z</time>
      </trkpt>
      <trkpt lat="43.90961" lon="7.00912">
        <ele>945.5999756</ele>
        <time>2019-12-07T10:16:21Z</time>
      </trkpt>
      <trkpt lat="43.90962" lon="7.00926">
        <ele>946.1999512</ele>
        <time>2019-12-07T10:16:26Z</time>
      </trkpt>
      <trkpt lat="43.90964" lon="7.00934">
        <ele>946.5999756</ele>
        <time>2019-12-07T10:16:29Z</time>
      </trkpt>
      <trkpt lat="43.90966" lon="7.00942">
        <ele>946.8000488</ele>
        <time>2019-12-07T10:16:32Z</time>
      </trkpt>
      <trkpt lat="43.90975" lon="7.0096">
        <ele>947.5999756</ele>
        <time>2019-12-07T10:16:40Z</time>
      </trkpt>
      <trkpt lat="43.90988" lon="7.00972">
        <ele>948.4000244</ele>
        <time>2019-12-07T10:16:48Z</time>
      </trkpt>
      <trkpt lat="43.90989" lon="7.00973">
        <ele>948.8000488</ele>
        <time>2019-12-07T10:16:49Z</time>
      </trkpt>
      <trkpt lat="43.90997" lon="7.00979">
        <ele>949.8000488</ele>
        <time>2019-12-07T10:16:54Z</time>
      </trkpt>
      <trkpt lat="43.91007" lon="7.00984">
        <ele>950.8000488</ele>
        <time>2019-12-07T10:17:00Z</time>
      </trkpt>
      <trkpt lat="43.91009" lon="7.00985">
        <ele>951</ele>
        <time>2019-12-07T10:17:01Z</time>
      </trkpt>
      <trkpt lat="43.91019" lon="7.00991">
        <ele>951</ele>
        <time>2019-12-07T10:17:07Z</time>
      </trkpt>
      <trkpt lat="43.91032" lon="7.01001">
        <ele>951.4000244</ele>
        <time>2019-12-07T10:17:15Z</time>
      </trkpt>
      <trkpt lat="43.9104" lon="7.01008">
        <ele>951.8000488</ele>
        <time>2019-12-07T10:17:21Z</time>
      </trkpt>
      <trkpt lat="43.91051" lon="7.01013">
        <ele>952.1999512</ele>
        <time>2019-12-07T10:17:28Z</time>
      </trkpt>
      <trkpt lat="43.91053" lon="7.01013">
        <ele>952.4000244</ele>
        <time>2019-12-07T10:17:29Z</time>
      </trkpt>
      <trkpt lat="43.91057" lon="7.01014">
        <ele>953</ele>
        <time>2019-12-07T10:17:32Z</time>
      </trkpt>
      <trkpt lat="43.91063" lon="7.01016">
        <ele>953.8000488</ele>
        <time>2019-12-07T10:17:35Z</time>
      </trkpt>
      <trkpt lat="43.91067" lon="7.01018">
        <ele>954.1999512</ele>
        <time>2019-12-07T10:17:37Z</time>
      </trkpt>
      <trkpt lat="43.91074" lon="7.01024">
        <ele>955.1999512</ele>
        <time>2019-12-07T10:17:42Z</time>
      </trkpt>
      <trkpt lat="43.91075" lon="7.01025">
        <ele>955.4000244</ele>
        <time>2019-12-07T10:17:43Z</time>
      </trkpt>
      <trkpt lat="43.91085" lon="7.01034">
        <ele>956</ele>
        <time>2019-12-07T10:17:50Z</time>
      </trkpt>
      <trkpt lat="43.91086" lon="7.01035">
        <ele>956.1999512</ele>
        <time>2019-12-07T10:17:51Z</time>
      </trkpt>
      <trkpt lat="43.91093" lon="7.01039">
        <ele>957</ele>
        <time>2019-12-07T10:17:56Z</time>
      </trkpt>
      <trkpt lat="43.91098" lon="7.01043">
        <ele>957.4000244</ele>
        <time>2019-12-07T10:17:59Z</time>
      </trkpt>
      <trkpt lat="43.91103" lon="7.01044">
        <ele>957.5999756</ele>
        <time>2019-12-07T10:18:03Z</time>
      </trkpt>
      <trkpt lat="43.91113" lon="7.01049">
        <ele>958</ele>
        <time>2019-12-07T10:18:10Z</time>
      </trkpt>
      <trkpt lat="43.9112" lon="7.01055">
        <ele>957.5999756</ele>
        <time>2019-12-07T10:18:16Z</time>
      </trkpt>
      <trkpt lat="43.9113" lon="7.01062">
        <ele>956.5999756</ele>
        <time>2019-12-07T10:18:24Z</time>
      </trkpt>
      <trkpt lat="43.91141" lon="7.01059">
        <ele>957.5999756</ele>
        <time>2019-12-07T10:18:32Z</time>
      </trkpt>
      <trkpt lat="43.91146" lon="7.01048">
        <ele>957.4000244</ele>
        <time>2019-12-07T10:18:38Z</time>
      </trkpt>
      <trkpt lat="43.9115" lon="7.01035">
        <ele>958.4000244</ele>
        <time>2019-12-07T10:18:45Z</time>
      </trkpt>
      <trkpt lat="43.91151" lon="7.01034">
        <ele>958.4000244</ele>
        <time>2019-12-07T10:18:46Z</time>
      </trkpt>
      <trkpt lat="43.91155" lon="7.01024">
        <ele>959.4000244</ele>
        <time>2019-12-07T10:18:52Z</time>
      </trkpt>
      <trkpt lat="43.91157" lon="7.01012">
        <ele>959.8000488</ele>
        <time>2019-12-07T10:18:58Z</time>
      </trkpt>
      <trkpt lat="43.9116" lon="7.01002">
        <ele>960.5999756</ele>
        <time>2019-12-07T10:19:03Z</time>
      </trkpt>
      <trkpt lat="43.91162" lon="7.00997">
        <ele>961.4000244</ele>
        <time>2019-12-07T10:19:06Z</time>
      </trkpt>
      <trkpt lat="43.91163" lon="7.00996">
        <ele>961.8000488</ele>
        <time>2019-12-07T10:19:07Z</time>
      </trkpt>
      <trkpt lat="43.91166" lon="7.00988">
        <ele>963</ele>
        <time>2019-12-07T10:19:11Z</time>
      </trkpt>
      <trkpt lat="43.91168" lon="7.00983">
        <ele>963.5999756</ele>
        <time>2019-12-07T10:19:14Z</time>
      </trkpt>
      <trkpt lat="43.9117" lon="7.00971">
        <ele>964</ele>
        <time>2019-12-07T10:19:20Z</time>
      </trkpt>
      <trkpt lat="43.91171" lon="7.00967">
        <ele>964.4000244</ele>
        <time>2019-12-07T10:19:22Z</time>
      </trkpt>
      <trkpt lat="43.91173" lon="7.00961">
        <ele>965.4000244</ele>
        <time>2019-12-07T10:19:25Z</time>
      </trkpt>
      <trkpt lat="43.91176" lon="7.00949">
        <ele>966</ele>
        <time>2019-12-07T10:19:31Z</time>
      </trkpt>
      <trkpt lat="43.91177" lon="7.00945">
        <ele>966.8000488</ele>
        <time>2019-12-07T10:19:33Z</time>
      </trkpt>
      <trkpt lat="43.91178" lon="7.00937">
        <ele>968</ele>
        <time>2019-12-07T10:19:37Z</time>
      </trkpt>
      <trkpt lat="43.91181" lon="7.0093">
        <ele>968.4000244</ele>
        <time>2019-12-07T10:19:40Z</time>
      </trkpt>
      <trkpt lat="43.91192" lon="7.0091">
        <ele>968.8000488</ele>
        <time>2019-12-07T10:19:48Z</time>
      </trkpt>
      <trkpt lat="43.91193" lon="7.00907">
        <ele>969</ele>
        <time>2019-12-07T10:19:49Z</time>
      </trkpt>
      <trkpt lat="43.912" lon="7.00889">
        <ele>968.5999756</ele>
        <time>2019-12-07T10:19:55Z</time>
      </trkpt>
      <trkpt lat="43.91206" lon="7.00874">
        <ele>967.8000488</ele>
        <time>2019-12-07T10:19:59Z</time>
      </trkpt>
      <trkpt lat="43.91206" lon="7.00871">
        <ele>967.8000488</ele>
        <time>2019-12-07T10:20:00Z</time>
      </trkpt>
      <trkpt lat="43.91208" lon="7.00868">
        <ele>967.5999756</ele>
        <time>2019-12-07T10:20:01Z</time>
      </trkpt>
      <trkpt lat="43.91214" lon="7.0086">
        <ele>966.5999756</ele>
        <time>2019-12-07T10:20:04Z</time>
      </trkpt>
      <trkpt lat="43.91218" lon="7.00852">
        <ele>966.1999512</ele>
        <time>2019-12-07T10:20:06Z</time>
      </trkpt>
      <trkpt lat="43.91225" lon="7.00838">
        <ele>965.5999756</ele>
        <time>2019-12-07T10:20:10Z</time>
      </trkpt>
      <trkpt lat="43.91231" lon="7.00828">
        <ele>965</ele>
        <time>2019-12-07T10:20:13Z</time>
      </trkpt>
      <trkpt lat="43.91242" lon="7.00806">
        <ele>964.5999756</ele>
        <time>2019-12-07T10:20:20Z</time>
      </trkpt>
      <trkpt lat="43.91244" lon="7.00799">
        <ele>964.4000244</ele>
        <time>2019-12-07T10:20:22Z</time>
      </trkpt>
      <trkpt lat="43.91255" lon="7.0078">
        <ele>965.4000244</ele>
        <time>2019-12-07T10:20:28Z</time>
      </trkpt>
      <trkpt lat="43.91257" lon="7.00777">
        <ele>965.5999756</ele>
        <time>2019-12-07T10:20:29Z</time>
      </trkpt>
      <trkpt lat="43.91265" lon="7.00762">
        <ele>965.5999756</ele>
        <time>2019-12-07T10:20:35Z</time>
      </trkpt>
      <trkpt lat="43.91273" lon="7.00748">
        <ele>966.8000488</ele>
        <time>2019-12-07T10:20:41Z</time>
      </trkpt>
      <trkpt lat="43.91274" lon="7.00745">
        <ele>967</ele>
        <time>2019-12-07T10:20:42Z</time>
      </trkpt>
      <trkpt lat="43.91281" lon="7.00733">
        <ele>967.4000244</ele>
        <time>2019-12-07T10:20:48Z</time>
      </trkpt>
      <trkpt lat="43.91287" lon="7.00725">
        <ele>968</ele>
        <time>2019-12-07T10:20:52Z</time>
      </trkpt>
      <trkpt lat="43.91293" lon="7.00719">
        <ele>969</ele>
        <time>2019-12-07T10:20:55Z</time>
      </trkpt>
      <trkpt lat="43.91296" lon="7.00717">
        <ele>969.1999512</ele>
        <time>2019-12-07T10:20:56Z</time>
      </trkpt>
      <trkpt lat="43.91305" lon="7.0071">
        <ele>970.5999756</ele>
        <time>2019-12-07T10:21:00Z</time>
      </trkpt>
      <trkpt lat="43.91307" lon="7.00708">
        <ele>971</ele>
        <time>2019-12-07T10:21:01Z</time>
      </trkpt>
      <trkpt lat="43.91311" lon="7.00704">
        <ele>971.5999756</ele>
        <time>2019-12-07T10:21:03Z</time>
      </trkpt>
      <trkpt lat="43.91322" lon="7.007">
        <ele>971.4000244</ele>
        <time>2019-12-07T10:21:07Z</time>
      </trkpt>
      <trkpt lat="43.91337" lon="7.00703">
        <ele>972</ele>
        <time>2019-12-07T10:21:12Z</time>
      </trkpt>
      <trkpt lat="43.91348" lon="7.00706">
        <ele>972.8000488</ele>
        <time>2019-12-07T10:21:15Z</time>
      </trkpt>
      <trkpt lat="43.91357" lon="7.00707">
        <ele>973</ele>
        <time>2019-12-07T10:21:18Z</time>
      </trkpt>
      <trkpt lat="43.91373" lon="7.00705">
        <ele>973.8000488</ele>
        <time>2019-12-07T10:21:23Z</time>
      </trkpt>
      <trkpt lat="43.91389" lon="7.00699">
        <ele>974.5999756</ele>
        <time>2019-12-07T10:21:29Z</time>
      </trkpt>
      <trkpt lat="43.91395" lon="7.00696">
        <ele>975</ele>
        <time>2019-12-07T10:21:31Z</time>
      </trkpt>
      <trkpt lat="43.91405" lon="7.00691">
        <ele>975.8000488</ele>
        <time>2019-12-07T10:21:35Z</time>
      </trkpt>
      <trkpt lat="43.91407" lon="7.0069">
        <ele>976.1999512</ele>
        <time>2019-12-07T10:21:36Z</time>
      </trkpt>
      <trkpt lat="43.91422" lon="7.00683">
        <ele>976.5999756</ele>
        <time>2019-12-07T10:21:42Z</time>
      </trkpt>
      <trkpt lat="43.9143" lon="7.0068">
        <ele>977.1999512</ele>
        <time>2019-12-07T10:21:45Z</time>
      </trkpt>
      <trkpt lat="43.9144" lon="7.00678">
        <ele>978.1999512</ele>
        <time>2019-12-07T10:21:49Z</time>
      </trkpt>
      <trkpt lat="43.91448" lon="7.00676">
        <ele>978.4000244</ele>
        <time>2019-12-07T10:21:52Z</time>
      </trkpt>
      <trkpt lat="43.91456" lon="7.00674">
        <ele>978.8000488</ele>
        <time>2019-12-07T10:21:55Z</time>
      </trkpt>
      <trkpt lat="43.91473" lon="7.0067">
        <ele>979</ele>
        <time>2019-12-07T10:22:01Z</time>
      </trkpt>
      <trkpt lat="43.91493" lon="7.00669">
        <ele>979</ele>
        <time>2019-12-07T10:22:07Z</time>
      </trkpt>
      <trkpt lat="43.91509" lon="7.00665">
        <ele>978.1999512</ele>
        <time>2019-12-07T10:22:13Z</time>
      </trkpt>
      <trkpt lat="43.91526" lon="7.00664">
        <ele>978.1999512</ele>
        <time>2019-12-07T10:22:19Z</time>
      </trkpt>
      <trkpt lat="43.91542" lon="7.00667">
        <ele>977.8000488</ele>
        <time>2019-12-07T10:22:25Z</time>
      </trkpt>
      <trkpt lat="43.91557" lon="7.00677">
        <ele>977.8000488</ele>
        <time>2019-12-07T10:22:32Z</time>
      </trkpt>
      <trkpt lat="43.91567" lon="7.00682">
        <ele>977.8000488</ele>
        <time>2019-12-07T10:22:38Z</time>
      </trkpt>
      <trkpt lat="43.9157" lon="7.00683">
        <ele>978.1999512</ele>
        <time>2019-12-07T10:22:40Z</time>
      </trkpt>
      <trkpt lat="43.91576" lon="7.00683">
        <ele>978.4000244</ele>
        <time>2019-12-07T10:22:43Z</time>
      </trkpt>
      <trkpt lat="43.91587" lon="7.00683">
        <ele>978</ele>
        <time>2019-12-07T10:22:50Z</time>
      </trkpt>
      <trkpt lat="43.91601" lon="7.0068">
        <ele>978.5999756</ele>
        <time>2019-12-07T10:22:59Z</time>
      </trkpt>
      <trkpt lat="43.91603" lon="7.00676">
        <ele>978.5999756</ele>
        <time>2019-12-07T10:23:01Z</time>
      </trkpt>
      <trkpt lat="43.91606" lon="7.00669">
        <ele>979</ele>
        <time>2019-12-07T10:23:04Z</time>
      </trkpt>
      <trkpt lat="43.91608" lon="7.00663">
        <ele>979.4000244</ele>
        <time>2019-12-07T10:23:07Z</time>
      </trkpt>
      <trkpt lat="43.9161" lon="7.00652">
        <ele>980.4000244</ele>
        <time>2019-12-07T10:23:12Z</time>
      </trkpt>
      <trkpt lat="43.91611" lon="7.0065">
        <ele>980.5999756</ele>
        <time>2019-12-07T10:23:13Z</time>
      </trkpt>
      <trkpt lat="43.91617" lon="7.00635">
        <ele>981.8000488</ele>
        <time>2019-12-07T10:23:20Z</time>
      </trkpt>
      <trkpt lat="43.91619" lon="7.00634">
        <ele>981.8000488</ele>
        <time>2019-12-07T10:23:21Z</time>
      </trkpt>
      <trkpt lat="43.91621" lon="7.00638">
        <ele>981.8000488</ele>
        <time>2019-12-07T10:23:24Z</time>
      </trkpt>
      <trkpt lat="43.91619" lon="7.00643">
        <ele>982.1999512</ele>
        <time>2019-12-07T10:23:27Z</time>
      </trkpt>
      <trkpt lat="43.91619" lon="7.00647">
        <ele>981.8000488</ele>
        <time>2019-12-07T10:23:29Z</time>
      </trkpt>
      <trkpt lat="43.91617" lon="7.00664">
        <ele>981.4000244</ele>
        <time>2019-12-07T10:23:37Z</time>
      </trkpt>
      <trkpt lat="43.91617" lon="7.0067">
        <ele>980.8000488</ele>
        <time>2019-12-07T10:23:40Z</time>
      </trkpt>
      <trkpt lat="43.91618" lon="7.0068">
        <ele>981</ele>
        <time>2019-12-07T10:23:45Z</time>
      </trkpt>
      <trkpt lat="43.9162" lon="7.00695">
        <ele>981.1999512</ele>
        <time>2019-12-07T10:23:52Z</time>
      </trkpt>
      <trkpt lat="43.91618" lon="7.00709">
        <ele>981.4000244</ele>
        <time>2019-12-07T10:23:58Z</time>
      </trkpt>
      <trkpt lat="43.91612" lon="7.00719">
        <ele>981.8000488</ele>
        <time>2019-12-07T10:24:03Z</time>
      </trkpt>
      <trkpt lat="43.91611" lon="7.00721">
        <ele>982</ele>
        <time>2019-12-07T10:24:04Z</time>
      </trkpt>
      <trkpt lat="43.91611" lon="7.00723">
        <ele>982.1999512</ele>
        <time>2019-12-07T10:24:05Z</time>
      </trkpt>
      <trkpt lat="43.9161" lon="7.00733">
        <ele>982.5999756</ele>
        <time>2019-12-07T10:24:10Z</time>
      </trkpt>
      <trkpt lat="43.91611" lon="7.00745">
        <ele>982.8000488</ele>
        <time>2019-12-07T10:24:15Z</time>
      </trkpt>
      <trkpt lat="43.91611" lon="7.00757">
        <ele>983.4000244</ele>
        <time>2019-12-07T10:24:20Z</time>
      </trkpt>
      <trkpt lat="43.91612" lon="7.00764">
        <ele>984</ele>
        <time>2019-12-07T10:24:23Z</time>
      </trkpt>
      <trkpt lat="43.91614" lon="7.00778">
        <ele>984</ele>
        <time>2019-12-07T10:24:29Z</time>
      </trkpt>
      <trkpt lat="43.91616" lon="7.00793">
        <ele>984.5999756</ele>
        <time>2019-12-07T10:24:36Z</time>
      </trkpt>
      <trkpt lat="43.91622" lon="7.00807">
        <ele>984.4000244</ele>
        <time>2019-12-07T10:24:44Z</time>
      </trkpt>
      <trkpt lat="43.91627" lon="7.00817">
        <ele>984.5999756</ele>
        <time>2019-12-07T10:24:50Z</time>
      </trkpt>
      <trkpt lat="43.91629" lon="7.00821">
        <ele>984.8000488</ele>
        <time>2019-12-07T10:24:52Z</time>
      </trkpt>
      <trkpt lat="43.9163" lon="7.00823">
        <ele>985</ele>
        <time>2019-12-07T10:24:53Z</time>
      </trkpt>
      <trkpt lat="43.91635" lon="7.00835">
        <ele>986</ele>
        <time>2019-12-07T10:25:00Z</time>
      </trkpt>
      <trkpt lat="43.91638" lon="7.00842">
        <ele>987.1999512</ele>
        <time>2019-12-07T10:25:04Z</time>
      </trkpt>
      <trkpt lat="43.91641" lon="7.0085">
        <ele>988.1999512</ele>
        <time>2019-12-07T10:25:08Z</time>
      </trkpt>
      <trkpt lat="43.91642" lon="7.00852">
        <ele>988.4000244</ele>
        <time>2019-12-07T10:25:09Z</time>
      </trkpt>
      <trkpt lat="43.91644" lon="7.00855">
        <ele>989.5999756</ele>
        <time>2019-12-07T10:25:11Z</time>
      </trkpt>
      <trkpt lat="43.91646" lon="7.0086">
        <ele>991</ele>
        <time>2019-12-07T10:25:14Z</time>
      </trkpt>
      <trkpt lat="43.91648" lon="7.00864">
        <ele>992</ele>
        <time>2019-12-07T10:25:16Z</time>
      </trkpt>
      <trkpt lat="43.9165" lon="7.00869">
        <ele>993.1999512</ele>
        <time>2019-12-07T10:25:19Z</time>
      </trkpt>
      <trkpt lat="43.91652" lon="7.00873">
        <ele>993.8000488</ele>
        <time>2019-12-07T10:25:21Z</time>
      </trkpt>
      <trkpt lat="43.91653" lon="7.00874">
        <ele>994.4000244</ele>
        <time>2019-12-07T10:25:22Z</time>
      </trkpt>
      <trkpt lat="43.91656" lon="7.00878">
        <ele>995.5999756</ele>
        <time>2019-12-07T10:25:25Z</time>
      </trkpt>
      <trkpt lat="43.91657" lon="7.00881">
        <ele>996.1999512</ele>
        <time>2019-12-07T10:25:27Z</time>
      </trkpt>
      <trkpt lat="43.91659" lon="7.00884">
        <ele>996.8000488</ele>
        <time>2019-12-07T10:25:29Z</time>
      </trkpt>
      <trkpt lat="43.91662" lon="7.00891">
        <ele>998</ele>
        <time>2019-12-07T10:25:33Z</time>
      </trkpt>
      <trkpt lat="43.91663" lon="7.00892">
        <ele>998.1999512</ele>
        <time>2019-12-07T10:25:34Z</time>
      </trkpt>
      <trkpt lat="43.91664" lon="7.00895">
        <ele>999</ele>
        <time>2019-12-07T10:25:36Z</time>
      </trkpt>
      <trkpt lat="43.9167" lon="7.00905">
        <ele>999.5999756</ele>
        <time>2019-12-07T10:25:42Z</time>
      </trkpt>
      <trkpt lat="43.91673" lon="7.0091">
        <ele>1000.1999512</ele>
        <time>2019-12-07T10:25:45Z</time>
      </trkpt>
      <trkpt lat="43.91678" lon="7.00914">
        <ele>999.8000488</ele>
        <time>2019-12-07T10:25:49Z</time>
      </trkpt>
      <trkpt lat="43.9168" lon="7.00918">
        <ele>1000.1999512</ele>
        <time>2019-12-07T10:25:52Z</time>
      </trkpt>
      <trkpt lat="43.91684" lon="7.00922">
        <ele>1001.1999512</ele>
        <time>2019-12-07T10:25:55Z</time>
      </trkpt>
      <trkpt lat="43.91685" lon="7.00923">
        <ele>1001.4000244</ele>
        <time>2019-12-07T10:25:56Z</time>
      </trkpt>
      <trkpt lat="43.91693" lon="7.00938">
        <ele>1001.8000488</ele>
        <time>2019-12-07T10:26:04Z</time>
      </trkpt>
      <trkpt lat="43.91695" lon="7.00942">
        <ele>1002.4000244</ele>
        <time>2019-12-07T10:26:07Z</time>
      </trkpt>
      <trkpt lat="43.91698" lon="7.00948">
        <ele>1003</ele>
        <time>2019-12-07T10:26:11Z</time>
      </trkpt>
      <trkpt lat="43.917" lon="7.00951">
        <ele>1003.4000244</ele>
        <time>2019-12-07T10:26:13Z</time>
      </trkpt>
      <trkpt lat="43.91706" lon="7.00959">
        <ele>1004.4000244</ele>
        <time>2019-12-07T10:26:19Z</time>
      </trkpt>
      <trkpt lat="43.91706" lon="7.00961">
        <ele>1004.4000244</ele>
        <time>2019-12-07T10:26:20Z</time>
      </trkpt>
      <trkpt lat="43.91709" lon="7.00969">
        <ele>1005.4000244</ele>
        <time>2019-12-07T10:26:25Z</time>
      </trkpt>
      <trkpt lat="43.91709" lon="7.00971">
        <ele>1005.5999756</ele>
        <time>2019-12-07T10:26:26Z</time>
      </trkpt>
      <trkpt lat="43.91709" lon="7.0098">
        <ele>1006.4000244</ele>
        <time>2019-12-07T10:26:31Z</time>
      </trkpt>
      <trkpt lat="43.91708" lon="7.00995">
        <ele>1006.1999512</ele>
        <time>2019-12-07T10:26:39Z</time>
      </trkpt>
      <trkpt lat="43.91707" lon="7.01012">
        <ele>1005.1999512</ele>
        <time>2019-12-07T10:26:47Z</time>
      </trkpt>
      <trkpt lat="43.91704" lon="7.01029">
        <ele>1005.8000488</ele>
        <time>2019-12-07T10:26:56Z</time>
      </trkpt>
      <trkpt lat="43.91705" lon="7.01044">
        <ele>1006.4000244</ele>
        <time>2019-12-07T10:27:04Z</time>
      </trkpt>
      <trkpt lat="43.91706" lon="7.01045">
        <ele>1006.8000488</ele>
        <time>2019-12-07T10:27:05Z</time>
      </trkpt>
      <trkpt lat="43.91709" lon="7.01057">
        <ele>1007.8000488</ele>
        <time>2019-12-07T10:27:12Z</time>
      </trkpt>
      <trkpt lat="43.9171" lon="7.01059">
        <ele>1008</ele>
        <time>2019-12-07T10:27:13Z</time>
      </trkpt>
      <trkpt lat="43.91713" lon="7.01068">
        <ele>1009.4000244</ele>
        <time>2019-12-07T10:27:18Z</time>
      </trkpt>
      <trkpt lat="43.91714" lon="7.01073">
        <ele>1010.4000244</ele>
        <time>2019-12-07T10:27:21Z</time>
      </trkpt>
      <trkpt lat="43.91715" lon="7.01081">
        <ele>1011.4000244</ele>
        <time>2019-12-07T10:27:25Z</time>
      </trkpt>
      <trkpt lat="43.91714" lon="7.01083">
        <ele>1011.1999512</ele>
        <time>2019-12-07T10:27:26Z</time>
      </trkpt>
      <trkpt lat="43.91713" lon="7.01091">
        <ele>1011.5999756</ele>
        <time>2019-12-07T10:27:29Z</time>
      </trkpt>
      <trkpt lat="43.91712" lon="7.01095">
        <ele>1011.8000488</ele>
        <time>2019-12-07T10:27:31Z</time>
      </trkpt>
      <trkpt lat="43.91711" lon="7.01099">
        <ele>1011.8000488</ele>
        <time>2019-12-07T10:27:33Z</time>
      </trkpt>
      <trkpt lat="43.91708" lon="7.01106">
        <ele>1012.8000488</ele>
        <time>2019-12-07T10:27:36Z</time>
      </trkpt>
      <trkpt lat="43.91706" lon="7.01112">
        <ele>1012.5999756</ele>
        <time>2019-12-07T10:27:38Z</time>
      </trkpt>
      <trkpt lat="43.91702" lon="7.01131">
        <ele>1012.5999756</ele>
        <time>2019-12-07T10:27:43Z</time>
      </trkpt>
      <trkpt lat="43.91698" lon="7.01151">
        <ele>1013.8000488</ele>
        <time>2019-12-07T10:27:47Z</time>
      </trkpt>
      <trkpt lat="43.91696" lon="7.01159">
        <ele>1014</ele>
        <time>2019-12-07T10:27:49Z</time>
      </trkpt>
      <trkpt lat="43.9169" lon="7.01173">
        <ele>1013.4000244</ele>
        <time>2019-12-07T10:27:55Z</time>
      </trkpt>
      <trkpt lat="43.91683" lon="7.01186">
        <ele>1014.4000244</ele>
        <time>2019-12-07T10:28:01Z</time>
      </trkpt>
      <trkpt lat="43.91682" lon="7.0119">
        <ele>1015</ele>
        <time>2019-12-07T10:28:03Z</time>
      </trkpt>
      <trkpt lat="43.91679" lon="7.012">
        <ele>1015.4000244</ele>
        <time>2019-12-07T10:28:08Z</time>
      </trkpt>
      <trkpt lat="43.91678" lon="7.0121">
        <ele>1016</ele>
        <time>2019-12-07T10:28:13Z</time>
      </trkpt>
      <trkpt lat="43.91677" lon="7.01213">
        <ele>1016.4000244</ele>
        <time>2019-12-07T10:28:15Z</time>
      </trkpt>
      <trkpt lat="43.91676" lon="7.01218">
        <ele>1017.1999512</ele>
        <time>2019-12-07T10:28:18Z</time>
      </trkpt>
      <trkpt lat="43.91672" lon="7.01227">
        <ele>1017</ele>
        <time>2019-12-07T10:28:22Z</time>
      </trkpt>
      <trkpt lat="43.91665" lon="7.01243">
        <ele>1017.8000488</ele>
        <time>2019-12-07T10:28:31Z</time>
      </trkpt>
      <trkpt lat="43.91657" lon="7.0125">
        <ele>1018.5999756</ele>
        <time>2019-12-07T10:28:38Z</time>
      </trkpt>
      <trkpt lat="43.91651" lon="7.0125">
        <ele>1019.5999756</ele>
        <time>2019-12-07T10:28:42Z</time>
      </trkpt>
      <trkpt lat="43.91648" lon="7.0125">
        <ele>1020</ele>
        <time>2019-12-07T10:28:44Z</time>
      </trkpt>
      <trkpt lat="43.91644" lon="7.01247">
        <ele>1020.5999756</ele>
        <time>2019-12-07T10:28:47Z</time>
      </trkpt>
      <trkpt lat="43.91638" lon="7.01245">
        <ele>1021.4000244</ele>
        <time>2019-12-07T10:28:52Z</time>
      </trkpt>
      <trkpt lat="43.91637" lon="7.01246">
        <ele>1021.8000488</ele>
        <time>2019-12-07T10:28:53Z</time>
      </trkpt>
      <trkpt lat="43.91637" lon="7.01249">
        <ele>1021.8000488</ele>
        <time>2019-12-07T10:28:54Z</time>
      </trkpt>
      <trkpt lat="43.91638" lon="7.01253">
        <ele>1022.4000244</ele>
        <time>2019-12-07T10:28:56Z</time>
      </trkpt>
      <trkpt lat="43.91639" lon="7.01256">
        <ele>1022.8000488</ele>
        <time>2019-12-07T10:28:58Z</time>
      </trkpt>
      <trkpt lat="43.9164" lon="7.01258">
        <ele>1022.8000488</ele>
        <time>2019-12-07T10:28:59Z</time>
      </trkpt>
      <trkpt lat="43.91644" lon="7.01265">
        <ele>1023.8000488</ele>
        <time>2019-12-07T10:29:03Z</time>
      </trkpt>
      <trkpt lat="43.91646" lon="7.0127">
        <ele>1024.1999512</ele>
        <time>2019-12-07T10:29:06Z</time>
      </trkpt>
      <trkpt lat="43.91647" lon="7.01271">
        <ele>1025</ele>
        <time>2019-12-07T10:29:09Z</time>
      </trkpt>
      <trkpt lat="43.91647" lon="7.01272">
        <ele>1024.8000488</ele>
        <time>2019-12-07T10:29:10Z</time>
      </trkpt>
      <trkpt lat="43.91649" lon="7.01278">
        <ele>1024</ele>
        <time>2019-12-07T10:29:15Z</time>
      </trkpt>
      <trkpt lat="43.91654" lon="7.01288">
        <ele>1024.1999512</ele>
        <time>2019-12-07T10:29:23Z</time>
      </trkpt>
      <trkpt lat="43.91658" lon="7.01295">
        <ele>1025.1999512</ele>
        <time>2019-12-07T10:29:28Z</time>
      </trkpt>
      <trkpt lat="43.91659" lon="7.01298">
        <ele>1025.5999756</ele>
        <time>2019-12-07T10:29:30Z</time>
      </trkpt>
      <trkpt lat="43.91662" lon="7.01303">
        <ele>1026.4000244</ele>
        <time>2019-12-07T10:29:34Z</time>
      </trkpt>
      <trkpt lat="43.91664" lon="7.01307">
        <ele>1027</ele>
        <time>2019-12-07T10:29:37Z</time>
      </trkpt>
      <trkpt lat="43.91668" lon="7.0131">
        <ele>1027.8000488</ele>
        <time>2019-12-07T10:29:40Z</time>
      </trkpt>
      <trkpt lat="43.91672" lon="7.01314">
        <ele>1028.4000244</ele>
        <time>2019-12-07T10:29:44Z</time>
      </trkpt>
      <trkpt lat="43.91677" lon="7.01316">
        <ele>1029</ele>
        <time>2019-12-07T10:29:47Z</time>
      </trkpt>
      <trkpt lat="43.91682" lon="7.01317">
        <ele>1029.8000488</ele>
        <time>2019-12-07T10:29:51Z</time>
      </trkpt>
      <trkpt lat="43.91683" lon="7.01318">
        <ele>1030.4000244</ele>
        <time>2019-12-07T10:29:52Z</time>
      </trkpt>
      <trkpt lat="43.91685" lon="7.01321">
        <ele>1030.5999756</ele>
        <time>2019-12-07T10:29:54Z</time>
      </trkpt>
      <trkpt lat="43.91683" lon="7.01325">
        <ele>1031.1999512</ele>
        <time>2019-12-07T10:29:57Z</time>
      </trkpt>
      <trkpt lat="43.91682" lon="7.01326">
        <ele>1031.4000244</ele>
        <time>2019-12-07T10:29:58Z</time>
      </trkpt>
      <trkpt lat="43.91675" lon="7.01328">
        <ele>1032</ele>
        <time>2019-12-07T10:30:03Z</time>
      </trkpt>
      <trkpt lat="43.91672" lon="7.01328">
        <ele>1032.1999512</ele>
        <time>2019-12-07T10:30:05Z</time>
      </trkpt>
      <trkpt lat="43.91669" lon="7.01328">
        <ele>1032.4000244</ele>
        <time>2019-12-07T10:30:07Z</time>
      </trkpt>
      <trkpt lat="43.91663" lon="7.01329">
        <ele>1033.1999512</ele>
        <time>2019-12-07T10:30:11Z</time>
      </trkpt>
      <trkpt lat="43.91658" lon="7.01332">
        <ele>1033.5999756</ele>
        <time>2019-12-07T10:30:15Z</time>
      </trkpt>
      <trkpt lat="43.91655" lon="7.01336">
        <ele>1034.1999512</ele>
        <time>2019-12-07T10:30:18Z</time>
      </trkpt>
      <trkpt lat="43.91654" lon="7.01348">
        <ele>1034.1999512</ele>
        <time>2019-12-07T10:30:24Z</time>
      </trkpt>
      <trkpt lat="43.91658" lon="7.01365">
        <ele>1033.1999512</ele>
        <time>2019-12-07T10:30:32Z</time>
      </trkpt>
      <trkpt lat="43.91661" lon="7.01378">
        <ele>1032.5999756</ele>
        <time>2019-12-07T10:30:40Z</time>
      </trkpt>
      <trkpt lat="43.91662" lon="7.0138">
        <ele>1032.5999756</ele>
        <time>2019-12-07T10:30:41Z</time>
      </trkpt>
      <trkpt lat="43.91667" lon="7.01395">
        <ele>1032.5999756</ele>
        <time>2019-12-07T10:30:50Z</time>
      </trkpt>
      <trkpt lat="43.91666" lon="7.01407">
        <ele>1033.8000488</ele>
        <time>2019-12-07T10:30:57Z</time>
      </trkpt>
      <trkpt lat="43.91665" lon="7.01408">
        <ele>1034.1999512</ele>
        <time>2019-12-07T10:30:58Z</time>
      </trkpt>
      <trkpt lat="43.91666" lon="7.01416">
        <ele>1035</ele>
        <time>2019-12-07T10:31:02Z</time>
      </trkpt>
      <trkpt lat="43.91665" lon="7.01423">
        <ele>1036.1999512</ele>
        <time>2019-12-07T10:31:06Z</time>
      </trkpt>
      <trkpt lat="43.91665" lon="7.01427">
        <ele>1036.4000244</ele>
        <time>2019-12-07T10:31:08Z</time>
      </trkpt>
      <trkpt lat="43.91666" lon="7.01435">
        <ele>1037.4000244</ele>
        <time>2019-12-07T10:31:12Z</time>
      </trkpt>
      <trkpt lat="43.91665" lon="7.01445">
        <ele>1038.1999512</ele>
        <time>2019-12-07T10:31:18Z</time>
      </trkpt>
      <trkpt lat="43.91664" lon="7.01446">
        <ele>1038.5999756</ele>
        <time>2019-12-07T10:31:19Z</time>
      </trkpt>
      <trkpt lat="43.91662" lon="7.01452">
        <ele>1040</ele>
        <time>2019-12-07T10:31:23Z</time>
      </trkpt>
      <trkpt lat="43.91662" lon="7.01454">
        <ele>1040.1999512</ele>
        <time>2019-12-07T10:31:24Z</time>
      </trkpt>
      <trkpt lat="43.91661" lon="7.01464">
        <ele>1041</ele>
        <time>2019-12-07T10:31:30Z</time>
      </trkpt>
      <trkpt lat="43.9166" lon="7.01469">
        <ele>1042</ele>
        <time>2019-12-07T10:31:33Z</time>
      </trkpt>
      <trkpt lat="43.91659" lon="7.0148">
        <ele>1043.1999512</ele>
        <time>2019-12-07T10:31:39Z</time>
      </trkpt>
      <trkpt lat="43.91658" lon="7.01487">
        <ele>1043</ele>
        <time>2019-12-07T10:31:43Z</time>
      </trkpt>
      <trkpt lat="43.91659" lon="7.015">
        <ele>1043.5999756</ele>
        <time>2019-12-07T10:31:51Z</time>
      </trkpt>
      <trkpt lat="43.91661" lon="7.01513">
        <ele>1043.4000244</ele>
        <time>2019-12-07T10:31:59Z</time>
      </trkpt>
      <trkpt lat="43.91663" lon="7.01522">
        <ele>1044.4000244</ele>
        <time>2019-12-07T10:32:05Z</time>
      </trkpt>
      <trkpt lat="43.91663" lon="7.01526">
        <ele>1045.1999512</ele>
        <time>2019-12-07T10:32:07Z</time>
      </trkpt>
      <trkpt lat="43.91664" lon="7.01534">
        <ele>1045.4000244</ele>
        <time>2019-12-07T10:32:12Z</time>
      </trkpt>
      <trkpt lat="43.91665" lon="7.01539">
        <ele>1045.4000244</ele>
        <time>2019-12-07T10:32:15Z</time>
      </trkpt>
      <trkpt lat="43.91661" lon="7.01557">
        <ele>1046.5999756</ele>
        <time>2019-12-07T10:32:25Z</time>
      </trkpt>
      <trkpt lat="43.91661" lon="7.01568">
        <ele>1047.5999756</ele>
        <time>2019-12-07T10:32:31Z</time>
      </trkpt>
      <trkpt lat="43.91662" lon="7.0157">
        <ele>1047.8000488</ele>
        <time>2019-12-07T10:32:32Z</time>
      </trkpt>
      <trkpt lat="43.91667" lon="7.01568">
        <ele>1049</ele>
        <time>2019-12-07T10:32:36Z</time>
      </trkpt>
      <trkpt lat="43.91668" lon="7.01567">
        <ele>1049.4000244</ele>
        <time>2019-12-07T10:32:37Z</time>
      </trkpt>
      <trkpt lat="43.91671" lon="7.0156">
        <ele>1050</ele>
        <time>2019-12-07T10:32:41Z</time>
      </trkpt>
      <trkpt lat="43.91673" lon="7.01554">
        <ele>1050.5999756</ele>
        <time>2019-12-07T10:32:44Z</time>
      </trkpt>
      <trkpt lat="43.91675" lon="7.01549">
        <ele>1051.1999512</ele>
        <time>2019-12-07T10:32:47Z</time>
      </trkpt>
      <trkpt lat="43.91679" lon="7.01539">
        <ele>1052</ele>
        <time>2019-12-07T10:32:53Z</time>
      </trkpt>
      <trkpt lat="43.9168" lon="7.01536">
        <ele>1052.4000244</ele>
        <time>2019-12-07T10:32:55Z</time>
      </trkpt>
      <trkpt lat="43.91684" lon="7.01525">
        <ele>1053.4000244</ele>
        <time>2019-12-07T10:33:02Z</time>
      </trkpt>
      <trkpt lat="43.91686" lon="7.01512">
        <ele>1054.5999756</ele>
        <time>2019-12-07T10:33:09Z</time>
      </trkpt>
      <trkpt lat="43.91686" lon="7.0151">
        <ele>1055</ele>
        <time>2019-12-07T10:33:10Z</time>
      </trkpt>
      <trkpt lat="43.91688" lon="7.01492">
        <ele>1055.5999756</ele>
        <time>2019-12-07T10:33:19Z</time>
      </trkpt>
      <trkpt lat="43.91688" lon="7.01491">
        <ele>1055.5999756</ele>
        <time>2019-12-07T10:33:20Z</time>
      </trkpt>
      <trkpt lat="43.91691" lon="7.01482">
        <ele>1056.4000244</ele>
        <time>2019-12-07T10:33:26Z</time>
      </trkpt>
      <trkpt lat="43.91692" lon="7.01479">
        <ele>1056.5999756</ele>
        <time>2019-12-07T10:33:28Z</time>
      </trkpt>
      <trkpt lat="43.917" lon="7.01468">
        <ele>1057.8000488</ele>
        <time>2019-12-07T10:33:35Z</time>
      </trkpt>
      <trkpt lat="43.91706" lon="7.01453">
        <ele>1059</ele>
        <time>2019-12-07T10:33:44Z</time>
      </trkpt>
      <trkpt lat="43.9171" lon="7.01441">
        <ele>1060</ele>
        <time>2019-12-07T10:33:52Z</time>
      </trkpt>
      <trkpt lat="43.91713" lon="7.01436">
        <ele>1060.8000488</ele>
        <time>2019-12-07T10:33:55Z</time>
      </trkpt>
      <trkpt lat="43.91714" lon="7.01434">
        <ele>1061.1999512</ele>
        <time>2019-12-07T10:33:56Z</time>
      </trkpt>
      <trkpt lat="43.91718" lon="7.01422">
        <ele>1062.1999512</ele>
        <time>2019-12-07T10:34:04Z</time>
      </trkpt>
      <trkpt lat="43.91719" lon="7.01418">
        <ele>1062.4000244</ele>
        <time>2019-12-07T10:34:06Z</time>
      </trkpt>
      <trkpt lat="43.91722" lon="7.01403">
        <ele>1063.4000244</ele>
        <time>2019-12-07T10:34:14Z</time>
      </trkpt>
      <trkpt lat="43.91729" lon="7.01391">
        <ele>1064.4000244</ele>
        <time>2019-12-07T10:34:23Z</time>
      </trkpt>
      <trkpt lat="43.91733" lon="7.01387">
        <ele>1065.4000244</ele>
        <time>2019-12-07T10:34:28Z</time>
      </trkpt>
      <trkpt lat="43.91734" lon="7.01388">
        <ele>1065.5999756</ele>
        <time>2019-12-07T10:34:29Z</time>
      </trkpt>
      <trkpt lat="43.91735" lon="7.0139">
        <ele>1065.8000488</ele>
        <time>2019-12-07T10:34:30Z</time>
      </trkpt>
      <trkpt lat="43.91735" lon="7.01393">
        <ele>1066</ele>
        <time>2019-12-07T10:34:32Z</time>
      </trkpt>
      <trkpt lat="43.91735" lon="7.01395">
        <ele>1066.5999756</ele>
        <time>2019-12-07T10:34:35Z</time>
      </trkpt>
      <trkpt lat="43.91735" lon="7.01395">
        <ele>1066.5999756</ele>
        <time>2019-12-07T10:34:36Z</time>
      </trkpt>
      <trkpt lat="43.91735" lon="7.01395">
        <ele>1066.5999756</ele>
        <time>2019-12-07T10:34:49Z</time>
      </trkpt>
      <trkpt lat="43.91735" lon="7.01395">
        <ele>1066.5999756</ele>
        <time>2019-12-07T10:35:16Z</time>
      </trkpt>
      <trkpt lat="43.91735" lon="7.01395">
        <ele>1066.5999756</ele>
        <time>2019-12-07T10:35:31Z</time>
      </trkpt>
      <trkpt lat="43.91735" lon="7.01395">
        <ele>1066.5999756</ele>
        <time>2019-12-07T10:35:44Z</time>
      </trkpt>
      <trkpt lat="43.91735" lon="7.01395">
        <ele>1066.5999756</ele>
        <time>2019-12-07T10:36:02Z</time>
      </trkpt>
      <trkpt lat="43.91735" lon="7.01395">
        <ele>1066.5999756</ele>
        <time>2019-12-07T10:36:20Z</time>
      </trkpt>
      <trkpt lat="43.91735" lon="7.01395">
        <ele>1066.5999756</ele>
        <time>2019-12-07T10:36:34Z</time>
      </trkpt>
      <trkpt lat="43.91735" lon="7.01395">
        <ele>1066.8000488</ele>
        <time>2019-12-07T10:36:50Z</time>
      </trkpt>
      <trkpt lat="43.91735" lon="7.01395">
        <ele>1066.8000488</ele>
        <time>2019-12-07T10:37:04Z</time>
      </trkpt>
      <trkpt lat="43.91735" lon="7.01395">
        <ele>1066.8000488</ele>
        <time>2019-12-07T10:37:17Z</time>
      </trkpt>
      <trkpt lat="43.91735" lon="7.01395">
        <ele>1066.8000488</ele>
        <time>2019-12-07T10:37:31Z</time>
      </trkpt>
      <trkpt lat="43.91735" lon="7.01395">
        <ele>1066.8000488</ele>
        <time>2019-12-07T10:37:47Z</time>
      </trkpt>
      <trkpt lat="43.91735" lon="7.01394">
        <ele>1066.5999756</ele>
        <time>2019-12-07T10:37:59Z</time>
      </trkpt>
      <trkpt lat="43.91735" lon="7.01394">
        <ele>1066.5999756</ele>
        <time>2019-12-07T10:38:15Z</time>
      </trkpt>
      <trkpt lat="43.91736" lon="7.01394">
        <ele>1066.5999756</ele>
        <time>2019-12-07T10:38:36Z</time>
      </trkpt>
      <trkpt lat="43.91736" lon="7.01394">
        <ele>1066.5999756</ele>
        <time>2019-12-07T10:38:54Z</time>
      </trkpt>
      <trkpt lat="43.91736" lon="7.01394">
        <ele>1066.5999756</ele>
        <time>2019-12-07T10:39:13Z</time>
      </trkpt>
      <trkpt lat="43.91736" lon="7.01394">
        <ele>1066.4000244</ele>
        <time>2019-12-07T10:39:29Z</time>
      </trkpt>
      <trkpt lat="43.91736" lon="7.01394">
        <ele>1066.4000244</ele>
        <time>2019-12-07T10:39:47Z</time>
      </trkpt>
      <trkpt lat="43.91736" lon="7.01394">
        <ele>1066</ele>
        <time>2019-12-07T10:40:02Z</time>
      </trkpt>
      <trkpt lat="43.91736" lon="7.01394">
        <ele>1066</ele>
        <time>2019-12-07T10:40:17Z</time>
      </trkpt>
      <trkpt lat="43.91736" lon="7.01394">
        <ele>1066</ele>
        <time>2019-12-07T10:40:41Z</time>
      </trkpt>
      <trkpt lat="43.91736" lon="7.01394">
        <ele>1066</ele>
        <time>2019-12-07T10:40:56Z</time>
      </trkpt>
      <trkpt lat="43.91736" lon="7.01394">
        <ele>1066</ele>
        <time>2019-12-07T10:41:10Z</time>
      </trkpt>
      <trkpt lat="43.91736" lon="7.01394">
        <ele>1066</ele>
        <time>2019-12-07T10:41:24Z</time>
      </trkpt>
      <trkpt lat="43.91736" lon="7.01394">
        <ele>1066</ele>
        <time>2019-12-07T10:41:44Z</time>
      </trkpt>
      <trkpt lat="43.91736" lon="7.01394">
        <ele>1065.8000488</ele>
        <time>2019-12-07T10:42:01Z</time>
      </trkpt>
      <trkpt lat="43.91736" lon="7.01394">
        <ele>1065.8000488</ele>
        <time>2019-12-07T10:42:15Z</time>
      </trkpt>
      <trkpt lat="43.91736" lon="7.01394">
        <ele>1065.8000488</ele>
        <time>2019-12-07T10:42:31Z</time>
      </trkpt>
      <trkpt lat="43.91736" lon="7.01394">
        <ele>1065.8000488</ele>
        <time>2019-12-07T10:42:55Z</time>
      </trkpt>
      <trkpt lat="43.91736" lon="7.01394">
        <ele>1065.8000488</ele>
        <time>2019-12-07T10:43:13Z</time>
      </trkpt>
      <trkpt lat="43.91736" lon="7.01394">
        <ele>1066</ele>
        <time>2019-12-07T10:43:35Z</time>
      </trkpt>
      <trkpt lat="43.91736" lon="7.01394">
        <ele>1066</ele>
        <time>2019-12-07T10:43:51Z</time>
      </trkpt>
      <trkpt lat="43.91736" lon="7.01394">
        <ele>1066</ele>
        <time>2019-12-07T10:44:06Z</time>
      </trkpt>
      <trkpt lat="43.91736" lon="7.01394">
        <ele>1066</ele>
        <time>2019-12-07T10:44:19Z</time>
      </trkpt>
      <trkpt lat="43.91736" lon="7.01394">
        <ele>1065.8000488</ele>
        <time>2019-12-07T10:44:36Z</time>
      </trkpt>
      <trkpt lat="43.91735" lon="7.01394">
        <ele>1065.1999512</ele>
        <time>2019-12-07T10:44:43Z</time>
      </trkpt>
      <trkpt lat="43.91733" lon="7.01393">
        <ele>1065</ele>
        <time>2019-12-07T10:44:45Z</time>
      </trkpt>
      <trkpt lat="43.91732" lon="7.01395">
        <ele>1065.5999756</ele>
        <time>2019-12-07T10:44:52Z</time>
      </trkpt>
      <trkpt lat="43.91732" lon="7.01395">
        <ele>1065.5999756</ele>
        <time>2019-12-07T10:45:04Z</time>
      </trkpt>
      <trkpt lat="43.91732" lon="7.01395">
        <ele>1065.5999756</ele>
        <time>2019-12-07T10:45:13Z</time>
      </trkpt>
      <trkpt lat="43.91732" lon="7.01395">
        <ele>1065.5999756</ele>
        <time>2019-12-07T10:45:26Z</time>
      </trkpt>
      <trkpt lat="43.91732" lon="7.01395">
        <ele>1065.5999756</ele>
        <time>2019-12-07T10:45:33Z</time>
      </trkpt>
      <trkpt lat="43.91732" lon="7.01395">
        <ele>1065.5999756</ele>
        <time>2019-12-07T10:45:43Z</time>
      </trkpt>
      <trkpt lat="43.91732" lon="7.01395">
        <ele>1065.5999756</ele>
        <time>2019-12-07T10:45:57Z</time>
      </trkpt>
      <trkpt lat="43.9173" lon="7.01398">
        <ele>1065.8000488</ele>
        <time>2019-12-07T10:46:10Z</time>
      </trkpt>
      <trkpt lat="43.91727" lon="7.01408">
        <ele>1064.5999756</ele>
        <time>2019-12-07T10:46:17Z</time>
      </trkpt>
      <trkpt lat="43.91725" lon="7.01419">
        <ele>1064.1999512</ele>
        <time>2019-12-07T10:46:23Z</time>
      </trkpt>
      <trkpt lat="43.91724" lon="7.01422">
        <ele>1064</ele>
        <time>2019-12-07T10:46:24Z</time>
      </trkpt>
      <trkpt lat="43.91719" lon="7.0144">
        <ele>1063.4000244</ele>
        <time>2019-12-07T10:46:30Z</time>
      </trkpt>
      <trkpt lat="43.91714" lon="7.01456">
        <ele>1063.1999512</ele>
        <time>2019-12-07T10:46:35Z</time>
      </trkpt>
      <trkpt lat="43.91712" lon="7.01462">
        <ele>1063.1999512</ele>
        <time>2019-12-07T10:46:37Z</time>
      </trkpt>
      <trkpt lat="43.91705" lon="7.0149">
        <ele>1063</ele>
        <time>2019-12-07T10:46:44Z</time>
      </trkpt>
      <trkpt lat="43.91704" lon="7.01494">
        <ele>1062.8000488</ele>
        <time>2019-12-07T10:46:45Z</time>
      </trkpt>
      <trkpt lat="43.91703" lon="7.01504">
        <ele>1062.8000488</ele>
        <time>2019-12-07T10:46:48Z</time>
      </trkpt>
      <trkpt lat="43.91699" lon="7.01532">
        <ele>1062.4000244</ele>
        <time>2019-12-07T10:46:54Z</time>
      </trkpt>
      <trkpt lat="43.91695" lon="7.01553">
        <ele>1062.1999512</ele>
        <time>2019-12-07T10:46:58Z</time>
      </trkpt>
      <trkpt lat="43.9169" lon="7.01572">
        <ele>1061.8000488</ele>
        <time>2019-12-07T10:47:02Z</time>
      </trkpt>
      <trkpt lat="43.91679" lon="7.01597">
        <ele>1061.5999756</ele>
        <time>2019-12-07T10:47:08Z</time>
      </trkpt>
      <trkpt lat="43.91664" lon="7.01622">
        <ele>1061.1999512</ele>
        <time>2019-12-07T10:47:16Z</time>
      </trkpt>
      <trkpt lat="43.91662" lon="7.01625">
        <ele>1061.1999512</ele>
        <time>2019-12-07T10:47:17Z</time>
      </trkpt>
      <trkpt lat="43.91649" lon="7.0164">
        <ele>1060.5999756</ele>
        <time>2019-12-07T10:47:22Z</time>
      </trkpt>
      <trkpt lat="43.91629" lon="7.01655">
        <ele>1060.1999512</ele>
        <time>2019-12-07T10:47:28Z</time>
      </trkpt>
      <trkpt lat="43.91626" lon="7.01657">
        <ele>1060</ele>
        <time>2019-12-07T10:47:29Z</time>
      </trkpt>
      <trkpt lat="43.91607" lon="7.01677">
        <ele>1059.4000244</ele>
        <time>2019-12-07T10:47:35Z</time>
      </trkpt>
      <trkpt lat="43.91598" lon="7.01689">
        <ele>1059</ele>
        <time>2019-12-07T10:47:38Z</time>
      </trkpt>
      <trkpt lat="43.91587" lon="7.01705">
        <ele>1058</ele>
        <time>2019-12-07T10:47:42Z</time>
      </trkpt>
      <trkpt lat="43.91585" lon="7.0171">
        <ele>1057.8000488</ele>
        <time>2019-12-07T10:47:43Z</time>
      </trkpt>
      <trkpt lat="43.91574" lon="7.01738">
        <ele>1057.1999512</ele>
        <time>2019-12-07T10:47:49Z</time>
      </trkpt>
      <trkpt lat="43.9157" lon="7.01747">
        <ele>1056.4000244</ele>
        <time>2019-12-07T10:47:51Z</time>
      </trkpt>
      <trkpt lat="43.91564" lon="7.01759">
        <ele>1056.4000244</ele>
        <time>2019-12-07T10:47:54Z</time>
      </trkpt>
      <trkpt lat="43.91559" lon="7.0177">
        <ele>1056.4000244</ele>
        <time>2019-12-07T10:47:57Z</time>
      </trkpt>
      <trkpt lat="43.91555" lon="7.01772">
        <ele>1056.4000244</ele>
        <time>2019-12-07T10:47:58Z</time>
      </trkpt>
      <trkpt lat="43.91545" lon="7.01769">
        <ele>1055.5999756</ele>
        <time>2019-12-07T10:48:02Z</time>
      </trkpt>
      <trkpt lat="43.91541" lon="7.01764">
        <ele>1055.5999756</ele>
        <time>2019-12-07T10:48:04Z</time>
      </trkpt>
      <trkpt lat="43.91538" lon="7.01761">
        <ele>1055.1999512</ele>
        <time>2019-12-07T10:48:05Z</time>
      </trkpt>
      <trkpt lat="43.91536" lon="7.01757">
        <ele>1055</ele>
        <time>2019-12-07T10:48:06Z</time>
      </trkpt>
      <trkpt lat="43.91529" lon="7.01747">
        <ele>1054.1999512</ele>
        <time>2019-12-07T10:48:09Z</time>
      </trkpt>
      <trkpt lat="43.91525" lon="7.01739">
        <ele>1053.8000488</ele>
        <time>2019-12-07T10:48:11Z</time>
      </trkpt>
      <trkpt lat="43.91519" lon="7.0173">
        <ele>1053.5999756</ele>
        <time>2019-12-07T10:48:13Z</time>
      </trkpt>
      <trkpt lat="43.91513" lon="7.01719">
        <ele>1053.1999512</ele>
        <time>2019-12-07T10:48:15Z</time>
      </trkpt>
      <trkpt lat="43.9151" lon="7.01714">
        <ele>1053</ele>
        <time>2019-12-07T10:48:16Z</time>
      </trkpt>
      <trkpt lat="43.91506" lon="7.01705">
        <ele>1052.5999756</ele>
        <time>2019-12-07T10:48:18Z</time>
      </trkpt>
      <trkpt lat="43.91502" lon="7.01697">
        <ele>1052.4000244</ele>
        <time>2019-12-07T10:48:20Z</time>
      </trkpt>
      <trkpt lat="43.91494" lon="7.01685">
        <ele>1051.8000488</ele>
        <time>2019-12-07T10:48:23Z</time>
      </trkpt>
      <trkpt lat="43.91489" lon="7.01677">
        <ele>1051.4000244</ele>
        <time>2019-12-07T10:48:25Z</time>
      </trkpt>
      <trkpt lat="43.91482" lon="7.01665">
        <ele>1051</ele>
        <time>2019-12-07T10:48:29Z</time>
      </trkpt>
      <trkpt lat="43.91479" lon="7.01663">
        <ele>1050.8000488</ele>
        <time>2019-12-07T10:48:30Z</time>
      </trkpt>
      <trkpt lat="43.91472" lon="7.01658">
        <ele>1050</ele>
        <time>2019-12-07T10:48:32Z</time>
      </trkpt>
      <trkpt lat="43.91468" lon="7.01656">
        <ele>1049.4000244</ele>
        <time>2019-12-07T10:48:33Z</time>
      </trkpt>
      <trkpt lat="43.91464" lon="7.01655">
        <ele>1048.1999512</ele>
        <time>2019-12-07T10:48:35Z</time>
      </trkpt>
      <trkpt lat="43.91463" lon="7.01654">
        <ele>1047.5999756</ele>
        <time>2019-12-07T10:48:36Z</time>
      </trkpt>
      <trkpt lat="43.91464" lon="7.01652">
        <ele>1047.1999512</ele>
        <time>2019-12-07T10:48:37Z</time>
      </trkpt>
      <trkpt lat="43.91466" lon="7.0165">
        <ele>1046.1999512</ele>
        <time>2019-12-07T10:48:39Z</time>
      </trkpt>
      <trkpt lat="43.91466" lon="7.0165">
        <ele>1045.5999756</ele>
        <time>2019-12-07T10:48:40Z</time>
      </trkpt>
      <trkpt lat="43.91468" lon="7.01648">
        <ele>1044.4000244</ele>
        <time>2019-12-07T10:48:43Z</time>
      </trkpt>
      <trkpt lat="43.91468" lon="7.01647">
        <ele>1044.1999512</ele>
        <time>2019-12-07T10:48:44Z</time>
      </trkpt>
      <trkpt lat="43.91467" lon="7.01644">
        <ele>1043.8000488</ele>
        <time>2019-12-07T10:48:46Z</time>
      </trkpt>
      <trkpt lat="43.91464" lon="7.01641">
        <ele>1043.4000244</ele>
        <time>2019-12-07T10:48:48Z</time>
      </trkpt>
      <trkpt lat="43.91456" lon="7.01637">
        <ele>1042.1999512</ele>
        <time>2019-12-07T10:48:51Z</time>
      </trkpt>
      <trkpt lat="43.91452" lon="7.0164">
        <ele>1041.5999756</ele>
        <time>2019-12-07T10:48:52Z</time>
      </trkpt>
      <trkpt lat="43.91449" lon="7.01644">
        <ele>1041</ele>
        <time>2019-12-07T10:48:53Z</time>
      </trkpt>
      <trkpt lat="43.91443" lon="7.01653">
        <ele>1039.1999512</ele>
        <time>2019-12-07T10:48:55Z</time>
      </trkpt>
      <trkpt lat="43.91439" lon="7.01657">
        <ele>1038.5999756</ele>
        <time>2019-12-07T10:48:56Z</time>
      </trkpt>
      <trkpt lat="43.91437" lon="7.01661">
        <ele>1037.8000488</ele>
        <time>2019-12-07T10:48:57Z</time>
      </trkpt>
      <trkpt lat="43.91432" lon="7.01671">
        <ele>1036.1999512</ele>
        <time>2019-12-07T10:48:59Z</time>
      </trkpt>
      <trkpt lat="43.91429" lon="7.01676">
        <ele>1035.4000244</ele>
        <time>2019-12-07T10:49:00Z</time>
      </trkpt>
      <trkpt lat="43.91426" lon="7.01682">
        <ele>1034.5999756</ele>
        <time>2019-12-07T10:49:01Z</time>
      </trkpt>
      <trkpt lat="43.91422" lon="7.01691">
        <ele>1033.5999756</ele>
        <time>2019-12-07T10:49:03Z</time>
      </trkpt>
      <trkpt lat="43.9142" lon="7.01695">
        <ele>1032.8000488</ele>
        <time>2019-12-07T10:49:04Z</time>
      </trkpt>
      <trkpt lat="43.91418" lon="7.01699">
        <ele>1032</ele>
        <time>2019-12-07T10:49:05Z</time>
      </trkpt>
      <trkpt lat="43.91415" lon="7.01705">
        <ele>1030.5999756</ele>
        <time>2019-12-07T10:49:07Z</time>
      </trkpt>
      <trkpt lat="43.9141" lon="7.0171">
        <ele>1029.1999512</ele>
        <time>2019-12-07T10:49:09Z</time>
      </trkpt>
      <trkpt lat="43.91406" lon="7.01716">
        <ele>1027.8000488</ele>
        <time>2019-12-07T10:49:11Z</time>
      </trkpt>
      <trkpt lat="43.91402" lon="7.01723">
        <ele>1026</ele>
        <time>2019-12-07T10:49:13Z</time>
      </trkpt>
      <trkpt lat="43.914" lon="7.01728">
        <ele>1025</ele>
        <time>2019-12-07T10:49:14Z</time>
      </trkpt>
      <trkpt lat="43.91397" lon="7.01732">
        <ele>1024</ele>
        <time>2019-12-07T10:49:15Z</time>
      </trkpt>
      <trkpt lat="43.91395" lon="7.01736">
        <ele>1023</ele>
        <time>2019-12-07T10:49:16Z</time>
      </trkpt>
      <trkpt lat="43.91394" lon="7.0174">
        <ele>1022</ele>
        <time>2019-12-07T10:49:17Z</time>
      </trkpt>
      <trkpt lat="43.91393" lon="7.01743">
        <ele>1021</ele>
        <time>2019-12-07T10:49:18Z</time>
      </trkpt>
      <trkpt lat="43.91391" lon="7.01746">
        <ele>1020.1999512</ele>
        <time>2019-12-07T10:49:19Z</time>
      </trkpt>
      <trkpt lat="43.91388" lon="7.01753">
        <ele>1019</ele>
        <time>2019-12-07T10:49:21Z</time>
      </trkpt>
      <trkpt lat="43.91384" lon="7.01759">
        <ele>1017.4000244</ele>
        <time>2019-12-07T10:49:23Z</time>
      </trkpt>
      <trkpt lat="43.91382" lon="7.01764">
        <ele>1016.4000244</ele>
        <time>2019-12-07T10:49:25Z</time>
      </trkpt>
      <trkpt lat="43.9138" lon="7.01766">
        <ele>1015.8000488</ele>
        <time>2019-12-07T10:49:26Z</time>
      </trkpt>
      <trkpt lat="43.9138" lon="7.01766">
        <ele>1014.8000488</ele>
        <time>2019-12-07T10:49:27Z</time>
      </trkpt>
      <trkpt lat="43.9138" lon="7.01764">
        <ele>1014.1999512</ele>
        <time>2019-12-07T10:49:28Z</time>
      </trkpt>
      <trkpt lat="43.9138" lon="7.01763">
        <ele>1013.5999756</ele>
        <time>2019-12-07T10:49:29Z</time>
      </trkpt>
      <trkpt lat="43.91381" lon="7.01759">
        <ele>1013</ele>
        <time>2019-12-07T10:49:31Z</time>
      </trkpt>
      <trkpt lat="43.9138" lon="7.0176">
        <ele>1012.4000244</ele>
        <time>2019-12-07T10:49:33Z</time>
      </trkpt>
      <trkpt lat="43.91379" lon="7.01762">
        <ele>1012</ele>
        <time>2019-12-07T10:49:37Z</time>
      </trkpt>
      <trkpt lat="43.91378" lon="7.01763">
        <ele>1011.8000488</ele>
        <time>2019-12-07T10:49:39Z</time>
      </trkpt>
      <trkpt lat="43.91372" lon="7.01768">
        <ele>1011.1999512</ele>
        <time>2019-12-07T10:49:42Z</time>
      </trkpt>
      <trkpt lat="43.91369" lon="7.01774">
        <ele>1010.4000244</ele>
        <time>2019-12-07T10:49:44Z</time>
      </trkpt>
      <trkpt lat="43.91368" lon="7.01776">
        <ele>1010</ele>
        <time>2019-12-07T10:49:45Z</time>
      </trkpt>
      <trkpt lat="43.91367" lon="7.01779">
        <ele>1009.8000488</ele>
        <time>2019-12-07T10:49:46Z</time>
      </trkpt>
      <trkpt lat="43.91363" lon="7.01784">
        <ele>1008.8000488</ele>
        <time>2019-12-07T10:49:48Z</time>
      </trkpt>
      <trkpt lat="43.9136" lon="7.01789">
        <ele>1007.5999756</ele>
        <time>2019-12-07T10:49:50Z</time>
      </trkpt>
      <trkpt lat="43.91354" lon="7.01799">
        <ele>1006.5999756</ele>
        <time>2019-12-07T10:49:53Z</time>
      </trkpt>
      <trkpt lat="43.91354" lon="7.01801">
        <ele>1006.4000244</ele>
        <time>2019-12-07T10:49:54Z</time>
      </trkpt>
      <trkpt lat="43.91351" lon="7.01806">
        <ele>1006</ele>
        <time>2019-12-07T10:49:56Z</time>
      </trkpt>
      <trkpt lat="43.91348" lon="7.01805">
        <ele>1005.1999512</ele>
        <time>2019-12-07T10:49:58Z</time>
      </trkpt>
      <trkpt lat="43.91347" lon="7.01802">
        <ele>1004</ele>
        <time>2019-12-07T10:50:00Z</time>
      </trkpt>
      <trkpt lat="43.91345" lon="7.01796">
        <ele>1002.8000488</ele>
        <time>2019-12-07T10:50:02Z</time>
      </trkpt>
      <trkpt lat="43.91344" lon="7.01781">
        <ele>1001.4000244</ele>
        <time>2019-12-07T10:50:06Z</time>
      </trkpt>
      <trkpt lat="43.91345" lon="7.01774">
        <ele>1000.4000244</ele>
        <time>2019-12-07T10:50:08Z</time>
      </trkpt>
      <trkpt lat="43.91345" lon="7.01769">
        <ele>999.8000488</ele>
        <time>2019-12-07T10:50:09Z</time>
      </trkpt>
      <trkpt lat="43.91346" lon="7.01761">
        <ele>998.5999756</ele>
        <time>2019-12-07T10:50:11Z</time>
      </trkpt>
      <trkpt lat="43.91349" lon="7.01751">
        <ele>997.4000244</ele>
        <time>2019-12-07T10:50:13Z</time>
      </trkpt>
      <trkpt lat="43.91353" lon="7.01735">
        <ele>996</ele>
        <time>2019-12-07T10:50:16Z</time>
      </trkpt>
      <trkpt lat="43.91355" lon="7.01726">
        <ele>995.1999512</ele>
        <time>2019-12-07T10:50:18Z</time>
      </trkpt>
      <trkpt lat="43.91356" lon="7.01722">
        <ele>994.8000488</ele>
        <time>2019-12-07T10:50:19Z</time>
      </trkpt>
      <trkpt lat="43.91358" lon="7.01714">
        <ele>993.5999756</ele>
        <time>2019-12-07T10:50:21Z</time>
      </trkpt>
      <trkpt lat="43.91357" lon="7.01713">
        <ele>993</ele>
        <time>2019-12-07T10:50:22Z</time>
      </trkpt>
      <trkpt lat="43.91355" lon="7.01713">
        <ele>992.1999512</ele>
        <time>2019-12-07T10:50:23Z</time>
      </trkpt>
      <trkpt lat="43.91353" lon="7.01716">
        <ele>991</ele>
        <time>2019-12-07T10:50:25Z</time>
      </trkpt>
      <trkpt lat="43.91349" lon="7.0172">
        <ele>989.5999756</ele>
        <time>2019-12-07T10:50:27Z</time>
      </trkpt>
      <trkpt lat="43.91344" lon="7.01725">
        <ele>988.4000244</ele>
        <time>2019-12-07T10:50:29Z</time>
      </trkpt>
      <trkpt lat="43.91339" lon="7.01727">
        <ele>987</ele>
        <time>2019-12-07T10:50:31Z</time>
      </trkpt>
      <trkpt lat="43.91336" lon="7.01726">
        <ele>986.1999512</ele>
        <time>2019-12-07T10:50:32Z</time>
      </trkpt>
      <trkpt lat="43.91333" lon="7.01727">
        <ele>985.4000244</ele>
        <time>2019-12-07T10:50:33Z</time>
      </trkpt>
      <trkpt lat="43.91329" lon="7.01732">
        <ele>984</ele>
        <time>2019-12-07T10:50:35Z</time>
      </trkpt>
      <trkpt lat="43.91328" lon="7.01735">
        <ele>983.4000244</ele>
        <time>2019-12-07T10:50:36Z</time>
      </trkpt>
      <trkpt lat="43.91326" lon="7.01738">
        <ele>982.5999756</ele>
        <time>2019-12-07T10:50:37Z</time>
      </trkpt>
      <trkpt lat="43.91324" lon="7.01741">
        <ele>981.8000488</ele>
        <time>2019-12-07T10:50:38Z</time>
      </trkpt>
      <trkpt lat="43.91322" lon="7.01743">
        <ele>981.1999512</ele>
        <time>2019-12-07T10:50:39Z</time>
      </trkpt>
      <trkpt lat="43.91321" lon="7.01748">
        <ele>979.8000488</ele>
        <time>2019-12-07T10:50:41Z</time>
      </trkpt>
      <trkpt lat="43.91321" lon="7.01749">
        <ele>978.8000488</ele>
        <time>2019-12-07T10:50:43Z</time>
      </trkpt>
      <trkpt lat="43.91321" lon="7.01752">
        <ele>978</ele>
        <time>2019-12-07T10:50:45Z</time>
      </trkpt>
      <trkpt lat="43.91319" lon="7.01753">
        <ele>977.5999756</ele>
        <time>2019-12-07T10:50:46Z</time>
      </trkpt>
      <trkpt lat="43.91315" lon="7.01752">
        <ele>977.1999512</ele>
        <time>2019-12-07T10:50:49Z</time>
      </trkpt>
      <trkpt lat="43.91313" lon="7.01752">
        <ele>976.8000488</ele>
        <time>2019-12-07T10:50:50Z</time>
      </trkpt>
      <trkpt lat="43.91311" lon="7.01752">
        <ele>976.5999756</ele>
        <time>2019-12-07T10:50:51Z</time>
      </trkpt>
      <trkpt lat="43.91309" lon="7.01754">
        <ele>975.4000244</ele>
        <time>2019-12-07T10:50:53Z</time>
      </trkpt>
      <trkpt lat="43.91307" lon="7.01757">
        <ele>974.4000244</ele>
        <time>2019-12-07T10:50:55Z</time>
      </trkpt>
      <trkpt lat="43.91307" lon="7.0176">
        <ele>973.5999756</ele>
        <time>2019-12-07T10:50:57Z</time>
      </trkpt>
      <trkpt lat="43.91308" lon="7.01761">
        <ele>973.4000244</ele>
        <time>2019-12-07T10:50:58Z</time>
      </trkpt>
      <trkpt lat="43.91309" lon="7.01763">
        <ele>973</ele>
        <time>2019-12-07T10:51:02Z</time>
      </trkpt>
      <trkpt lat="43.91307" lon="7.01764">
        <ele>972.1999512</ele>
        <time>2019-12-07T10:51:04Z</time>
      </trkpt>
      <trkpt lat="43.91306" lon="7.01765">
        <ele>971.4000244</ele>
        <time>2019-12-07T10:51:07Z</time>
      </trkpt>
      <trkpt lat="43.91305" lon="7.01764">
        <ele>971.4000244</ele>
        <time>2019-12-07T10:51:12Z</time>
      </trkpt>
      <trkpt lat="43.91302" lon="7.01762">
        <ele>971.1999512</ele>
        <time>2019-12-07T10:51:14Z</time>
      </trkpt>
      <trkpt lat="43.91301" lon="7.01762">
        <ele>971</ele>
        <time>2019-12-07T10:51:15Z</time>
      </trkpt>
      <trkpt lat="43.913" lon="7.01762">
        <ele>970.5999756</ele>
        <time>2019-12-07T10:51:17Z</time>
      </trkpt>
      <trkpt lat="43.913" lon="7.01762">
        <ele>970.5999756</ele>
        <time>2019-12-07T10:51:29Z</time>
      </trkpt>
      <trkpt lat="43.913" lon="7.01762">
        <ele>970.5999756</ele>
        <time>2019-12-07T10:51:42Z</time>
      </trkpt>
      <trkpt lat="43.913" lon="7.01763">
        <ele>970.4000244</ele>
        <time>2019-12-07T10:52:00Z</time>
      </trkpt>
      <trkpt lat="43.913" lon="7.01763">
        <ele>970.4000244</ele>
        <time>2019-12-07T10:52:13Z</time>
      </trkpt>
      <trkpt lat="43.913" lon="7.01763">
        <ele>970.4000244</ele>
        <time>2019-12-07T10:52:28Z</time>
      </trkpt>
      <trkpt lat="43.913" lon="7.01762">
        <ele>970.5999756</ele>
        <time>2019-12-07T10:52:39Z</time>
      </trkpt>
      <trkpt lat="43.913" lon="7.01762">
        <ele>970.5999756</ele>
        <time>2019-12-07T10:52:57Z</time>
      </trkpt>
      <trkpt lat="43.913" lon="7.01762">
        <ele>970.5999756</ele>
        <time>2019-12-07T10:53:09Z</time>
      </trkpt>
      <trkpt lat="43.91299" lon="7.01764">
        <ele>970.1999512</ele>
        <time>2019-12-07T10:53:20Z</time>
      </trkpt>
      <trkpt lat="43.91295" lon="7.01767">
        <ele>970</ele>
        <time>2019-12-07T10:53:22Z</time>
      </trkpt>
      <trkpt lat="43.91291" lon="7.01769">
        <ele>969.4000244</ele>
        <time>2019-12-07T10:53:24Z</time>
      </trkpt>
      <trkpt lat="43.91289" lon="7.01768">
        <ele>969</ele>
        <time>2019-12-07T10:53:25Z</time>
      </trkpt>
      <trkpt lat="43.91289" lon="7.01767">
        <ele>968</ele>
        <time>2019-12-07T10:53:27Z</time>
      </trkpt>
      <trkpt lat="43.91289" lon="7.01767">
        <ele>967.5999756</ele>
        <time>2019-12-07T10:53:28Z</time>
      </trkpt>
      <trkpt lat="43.91288" lon="7.01765">
        <ele>967</ele>
        <time>2019-12-07T10:53:32Z</time>
      </trkpt>
      <trkpt lat="43.91288" lon="7.01764">
        <ele>966.4000244</ele>
        <time>2019-12-07T10:53:33Z</time>
      </trkpt>
      <trkpt lat="43.91288" lon="7.01763">
        <ele>965.5999756</ele>
        <time>2019-12-07T10:53:34Z</time>
      </trkpt>
      <trkpt lat="43.91288" lon="7.01762">
        <ele>965</ele>
        <time>2019-12-07T10:53:35Z</time>
      </trkpt>
      <trkpt lat="43.91288" lon="7.0176">
        <ele>963.8000488</ele>
        <time>2019-12-07T10:53:38Z</time>
      </trkpt>
      <trkpt lat="43.91288" lon="7.0176">
        <ele>963.8000488</ele>
        <time>2019-12-07T10:53:40Z</time>
      </trkpt>
      <trkpt lat="43.91287" lon="7.01757">
        <ele>963.5999756</ele>
        <time>2019-12-07T10:53:42Z</time>
      </trkpt>
      <trkpt lat="43.91284" lon="7.01753">
        <ele>963.4000244</ele>
        <time>2019-12-07T10:53:44Z</time>
      </trkpt>
      <trkpt lat="43.91281" lon="7.01755">
        <ele>962.5999756</ele>
        <time>2019-12-07T10:53:46Z</time>
      </trkpt>
      <trkpt lat="43.91281" lon="7.01758">
        <ele>962</ele>
        <time>2019-12-07T10:53:48Z</time>
      </trkpt>
      <trkpt lat="43.91279" lon="7.01768">
        <ele>961.4000244</ele>
        <time>2019-12-07T10:53:51Z</time>
      </trkpt>
      <trkpt lat="43.91277" lon="7.01768">
        <ele>961</ele>
        <time>2019-12-07T10:53:52Z</time>
      </trkpt>
      <trkpt lat="43.91272" lon="7.01765">
        <ele>960.1999512</ele>
        <time>2019-12-07T10:53:54Z</time>
      </trkpt>
      <trkpt lat="43.91269" lon="7.0176">
        <ele>959.1999512</ele>
        <time>2019-12-07T10:53:56Z</time>
      </trkpt>
      <trkpt lat="43.91265" lon="7.01755">
        <ele>957.8000488</ele>
        <time>2019-12-07T10:53:58Z</time>
      </trkpt>
      <trkpt lat="43.91263" lon="7.01753">
        <ele>957</ele>
        <time>2019-12-07T10:54:01Z</time>
      </trkpt>
      <trkpt lat="43.91262" lon="7.01752">
        <ele>956.5999756</ele>
        <time>2019-12-07T10:54:02Z</time>
      </trkpt>
      <trkpt lat="43.91259" lon="7.01746">
        <ele>955.8000488</ele>
        <time>2019-12-07T10:54:05Z</time>
      </trkpt>
      <trkpt lat="43.91258" lon="7.01743">
        <ele>955.1999512</ele>
        <time>2019-12-07T10:54:06Z</time>
      </trkpt>
      <trkpt lat="43.91254" lon="7.01741">
        <ele>954</ele>
        <time>2019-12-07T10:54:09Z</time>
      </trkpt>
      <trkpt lat="43.91253" lon="7.01742">
        <ele>953.8000488</ele>
        <time>2019-12-07T10:54:10Z</time>
      </trkpt>
      <trkpt lat="43.91254" lon="7.01742">
        <ele>953.8000488</ele>
        <time>2019-12-07T10:54:12Z</time>
      </trkpt>
      <trkpt lat="43.91253" lon="7.01744">
        <ele>953.1999512</ele>
        <time>2019-12-07T10:54:18Z</time>
      </trkpt>
      <trkpt lat="43.91252" lon="7.01745">
        <ele>952.8000488</ele>
        <time>2019-12-07T10:54:19Z</time>
      </trkpt>
      <trkpt lat="43.91248" lon="7.01746">
        <ele>952.4000244</ele>
        <time>2019-12-07T10:54:25Z</time>
      </trkpt>
      <trkpt lat="43.91244" lon="7.01749">
        <ele>952.1999512</ele>
        <time>2019-12-07T10:54:31Z</time>
      </trkpt>
      <trkpt lat="43.91243" lon="7.01753">
        <ele>952</ele>
        <time>2019-12-07T10:54:36Z</time>
      </trkpt>
      <trkpt lat="43.91243" lon="7.01755">
        <ele>951.8000488</ele>
        <time>2019-12-07T10:54:37Z</time>
      </trkpt>
      <trkpt lat="43.91244" lon="7.01757">
        <ele>951.8000488</ele>
        <time>2019-12-07T10:54:38Z</time>
      </trkpt>
      <trkpt lat="43.91243" lon="7.01765">
        <ele>950.5999756</ele>
        <time>2019-12-07T10:54:42Z</time>
      </trkpt>
      <trkpt lat="43.91239" lon="7.01772">
        <ele>949</ele>
        <time>2019-12-07T10:54:45Z</time>
      </trkpt>
      <trkpt lat="43.91237" lon="7.01774">
        <ele>948.5999756</ele>
        <time>2019-12-07T10:54:46Z</time>
      </trkpt>
      <trkpt lat="43.91233" lon="7.01774">
        <ele>948</ele>
        <time>2019-12-07T10:54:48Z</time>
      </trkpt>
      <trkpt lat="43.91229" lon="7.01772">
        <ele>946.8000488</ele>
        <time>2019-12-07T10:54:50Z</time>
      </trkpt>
      <trkpt lat="43.91227" lon="7.01771">
        <ele>946.4000244</ele>
        <time>2019-12-07T10:54:51Z</time>
      </trkpt>
      <trkpt lat="43.91222" lon="7.0177">
        <ele>945.8000488</ele>
        <time>2019-12-07T10:54:53Z</time>
      </trkpt>
      <trkpt lat="43.91219" lon="7.01772">
        <ele>945.1999512</ele>
        <time>2019-12-07T10:54:54Z</time>
      </trkpt>
      <trkpt lat="43.91216" lon="7.01776">
        <ele>944.4000244</ele>
        <time>2019-12-07T10:54:55Z</time>
      </trkpt>
      <trkpt lat="43.91211" lon="7.01783">
        <ele>942.8000488</ele>
        <time>2019-12-07T10:54:57Z</time>
      </trkpt>
      <trkpt lat="43.91205" lon="7.01785">
        <ele>941.5999756</ele>
        <time>2019-12-07T10:54:59Z</time>
      </trkpt>
      <trkpt lat="43.91198" lon="7.01783">
        <ele>940</ele>
        <time>2019-12-07T10:55:02Z</time>
      </trkpt>
      <trkpt lat="43.91196" lon="7.01782">
        <ele>939.4000244</ele>
        <time>2019-12-07T10:55:03Z</time>
      </trkpt>
      <trkpt lat="43.91193" lon="7.01783">
        <ele>938.8000488</ele>
        <time>2019-12-07T10:55:04Z</time>
      </trkpt>
      <trkpt lat="43.91191" lon="7.01791">
        <ele>937.4000244</ele>
        <time>2019-12-07T10:55:06Z</time>
      </trkpt>
      <trkpt lat="43.91191" lon="7.01799">
        <ele>935.8000488</ele>
        <time>2019-12-07T10:55:08Z</time>
      </trkpt>
      <trkpt lat="43.91196" lon="7.01805">
        <ele>934.8000488</ele>
        <time>2019-12-07T10:55:10Z</time>
      </trkpt>
      <trkpt lat="43.912" lon="7.01808">
        <ele>933.5999756</ele>
        <time>2019-12-07T10:55:12Z</time>
      </trkpt>
      <trkpt lat="43.91201" lon="7.01809">
        <ele>933.4000244</ele>
        <time>2019-12-07T10:55:13Z</time>
      </trkpt>
      <trkpt lat="43.91202" lon="7.01808">
        <ele>933</ele>
        <time>2019-12-07T10:55:14Z</time>
      </trkpt>
      <trkpt lat="43.91203" lon="7.0181">
        <ele>932.5999756</ele>
        <time>2019-12-07T10:55:18Z</time>
      </trkpt>
      <trkpt lat="43.91203" lon="7.01811">
        <ele>932.4000244</ele>
        <time>2019-12-07T10:55:19Z</time>
      </trkpt>
      <trkpt lat="43.91203" lon="7.01813">
        <ele>932.1999512</ele>
        <time>2019-12-07T10:55:25Z</time>
      </trkpt>
      <trkpt lat="43.91201" lon="7.01814">
        <ele>932.1999512</ele>
        <time>2019-12-07T10:55:31Z</time>
      </trkpt>
      <trkpt lat="43.912" lon="7.01814">
        <ele>932.1999512</ele>
        <time>2019-12-07T10:55:32Z</time>
      </trkpt>
      <trkpt lat="43.91197" lon="7.01815">
        <ele>932</ele>
        <time>2019-12-07T10:55:34Z</time>
      </trkpt>
      <trkpt lat="43.91193" lon="7.01814">
        <ele>932</ele>
        <time>2019-12-07T10:55:36Z</time>
      </trkpt>
      <trkpt lat="43.91183" lon="7.01802">
        <ele>932.1999512</ele>
        <time>2019-12-07T10:55:42Z</time>
      </trkpt>
      <trkpt lat="43.91181" lon="7.018">
        <ele>931.8000488</ele>
        <time>2019-12-07T10:55:43Z</time>
      </trkpt>
      <trkpt lat="43.91177" lon="7.01802">
        <ele>931.1999512</ele>
        <time>2019-12-07T10:55:45Z</time>
      </trkpt>
      <trkpt lat="43.91179" lon="7.01808">
        <ele>930.5999756</ele>
        <time>2019-12-07T10:55:48Z</time>
      </trkpt>
      <trkpt lat="43.91182" lon="7.01815">
        <ele>930.4000244</ele>
        <time>2019-12-07T10:55:51Z</time>
      </trkpt>
      <trkpt lat="43.91183" lon="7.01819">
        <ele>930.1999512</ele>
        <time>2019-12-07T10:55:52Z</time>
      </trkpt>
      <trkpt lat="43.91183" lon="7.01822">
        <ele>929.5999756</ele>
        <time>2019-12-07T10:55:53Z</time>
      </trkpt>
      <trkpt lat="43.91183" lon="7.01828">
        <ele>929</ele>
        <time>2019-12-07T10:55:55Z</time>
      </trkpt>
      <trkpt lat="43.91185" lon="7.01836">
        <ele>928.1999512</ele>
        <time>2019-12-07T10:55:57Z</time>
      </trkpt>
      <trkpt lat="43.91186" lon="7.0184">
        <ele>928</ele>
        <time>2019-12-07T10:55:58Z</time>
      </trkpt>
      <trkpt lat="43.91188" lon="7.01848">
        <ele>927.4000244</ele>
        <time>2019-12-07T10:56:02Z</time>
      </trkpt>
      <trkpt lat="43.91188" lon="7.01848">
        <ele>927.4000244</ele>
        <time>2019-12-07T10:56:10Z</time>
      </trkpt>
      <trkpt lat="43.91187" lon="7.01849">
        <ele>927.1999512</ele>
        <time>2019-12-07T10:56:16Z</time>
      </trkpt>
      <trkpt lat="43.91186" lon="7.01849">
        <ele>927.1999512</ele>
        <time>2019-12-07T10:56:23Z</time>
      </trkpt>
      <trkpt lat="43.91185" lon="7.01847">
        <ele>927.5999756</ele>
        <time>2019-12-07T10:56:28Z</time>
      </trkpt>
      <trkpt lat="43.91184" lon="7.01846">
        <ele>927.8000488</ele>
        <time>2019-12-07T10:56:36Z</time>
      </trkpt>
      <trkpt lat="43.91184" lon="7.01846">
        <ele>927.8000488</ele>
        <time>2019-12-07T10:56:48Z</time>
      </trkpt>
      <trkpt lat="43.91185" lon="7.01846">
        <ele>928</ele>
        <time>2019-12-07T10:56:56Z</time>
      </trkpt>
      <trkpt lat="43.91185" lon="7.01846">
        <ele>928</ele>
        <time>2019-12-07T10:57:09Z</time>
      </trkpt>
      <trkpt lat="43.91185" lon="7.01846">
        <ele>928</ele>
        <time>2019-12-07T10:57:18Z</time>
      </trkpt>
      <trkpt lat="43.91184" lon="7.01846">
        <ele>928.4000244</ele>
        <time>2019-12-07T10:57:26Z</time>
      </trkpt>
      <trkpt lat="43.91184" lon="7.01846">
        <ele>928.4000244</ele>
        <time>2019-12-07T10:57:38Z</time>
      </trkpt>
      <trkpt lat="43.91184" lon="7.01846">
        <ele>928.4000244</ele>
        <time>2019-12-07T10:57:51Z</time>
      </trkpt>
      <trkpt lat="43.91184" lon="7.01845">
        <ele>928.4000244</ele>
        <time>2019-12-07T10:57:53Z</time>
      </trkpt>
      <trkpt lat="43.91183" lon="7.01845">
        <ele>929.1999512</ele>
        <time>2019-12-07T10:57:55Z</time>
      </trkpt>
      <trkpt lat="43.91182" lon="7.01845">
        <ele>929.5999756</ele>
        <time>2019-12-07T10:57:56Z</time>
      </trkpt>
      <trkpt lat="43.91182" lon="7.01845">
        <ele>930.1999512</ele>
        <time>2019-12-07T10:57:57Z</time>
      </trkpt>
      <trkpt lat="43.91182" lon="7.01845">
        <ele>931.8000488</ele>
        <time>2019-12-07T10:57:59Z</time>
      </trkpt>
      <trkpt lat="43.91181" lon="7.01845">
        <ele>933</ele>
        <time>2019-12-07T10:58:02Z</time>
      </trkpt>
      <trkpt lat="43.91181" lon="7.01845">
        <ele>934</ele>
        <time>2019-12-07T10:58:14Z</time>
      </trkpt>
      <trkpt lat="43.91177" lon="7.01844">
        <ele>934.4000244</ele>
        <time>2019-12-07T10:58:22Z</time>
      </trkpt>
      <trkpt lat="43.91176" lon="7.01843">
        <ele>934.4000244</ele>
        <time>2019-12-07T10:58:23Z</time>
      </trkpt>
      <trkpt lat="43.91172" lon="7.0184">
        <ele>934.5999756</ele>
        <time>2019-12-07T10:58:27Z</time>
      </trkpt>
      <trkpt lat="43.9117" lon="7.0184">
        <ele>934</ele>
        <time>2019-12-07T10:58:29Z</time>
      </trkpt>
      <trkpt lat="43.91169" lon="7.01839">
        <ele>933.8000488</ele>
        <time>2019-12-07T10:58:30Z</time>
      </trkpt>
      <trkpt lat="43.91163" lon="7.01833">
        <ele>933.1999512</ele>
        <time>2019-12-07T10:58:34Z</time>
      </trkpt>
      <trkpt lat="43.9116" lon="7.0183">
        <ele>932.8000488</ele>
        <time>2019-12-07T10:58:35Z</time>
      </trkpt>
      <trkpt lat="43.91152" lon="7.01826">
        <ele>931.5999756</ele>
        <time>2019-12-07T10:58:38Z</time>
      </trkpt>
      <trkpt lat="43.9115" lon="7.01826">
        <ele>931.1999512</ele>
        <time>2019-12-07T10:58:39Z</time>
      </trkpt>
      <trkpt lat="43.9114" lon="7.01825">
        <ele>931</ele>
        <time>2019-12-07T10:58:44Z</time>
      </trkpt>
      <trkpt lat="43.91138" lon="7.01825">
        <ele>930.8000488</ele>
        <time>2019-12-07T10:58:45Z</time>
      </trkpt>
      <trkpt lat="43.91137" lon="7.01826">
        <ele>930.5999756</ele>
        <time>2019-12-07T10:58:46Z</time>
      </trkpt>
      <trkpt lat="43.91133" lon="7.01827">
        <ele>930.5999756</ele>
        <time>2019-12-07T10:58:49Z</time>
      </trkpt>
      <trkpt lat="43.91126" lon="7.01826">
        <ele>931.5999756</ele>
        <time>2019-12-07T10:58:53Z</time>
      </trkpt>
      <trkpt lat="43.91124" lon="7.01825">
        <ele>931.5999756</ele>
        <time>2019-12-07T10:58:54Z</time>
      </trkpt>
      <trkpt lat="43.91118" lon="7.01823">
        <ele>932.8000488</ele>
        <time>2019-12-07T10:58:58Z</time>
      </trkpt>
      <trkpt lat="43.91117" lon="7.01823">
        <ele>932.8000488</ele>
        <time>2019-12-07T10:58:59Z</time>
      </trkpt>
      <trkpt lat="43.91114" lon="7.01822">
        <ele>933.4000244</ele>
        <time>2019-12-07T10:59:03Z</time>
      </trkpt>
      <trkpt lat="43.91113" lon="7.01821">
        <ele>933.4000244</ele>
        <time>2019-12-07T10:59:04Z</time>
      </trkpt>
      <trkpt lat="43.91107" lon="7.01821">
        <ele>932.8000488</ele>
        <time>2019-12-07T10:59:08Z</time>
      </trkpt>
      <trkpt lat="43.91104" lon="7.01823">
        <ele>932.5999756</ele>
        <time>2019-12-07T10:59:10Z</time>
      </trkpt>
      <trkpt lat="43.91104" lon="7.01823">
        <ele>932.5999756</ele>
        <time>2019-12-07T10:59:13Z</time>
      </trkpt>
      <trkpt lat="43.91102" lon="7.01823">
        <ele>934</ele>
        <time>2019-12-07T10:59:17Z</time>
      </trkpt>
      <trkpt lat="43.91102" lon="7.01823">
        <ele>934</ele>
        <time>2019-12-07T10:59:19Z</time>
      </trkpt>
      <trkpt lat="43.911" lon="7.01824">
        <ele>934.4000244</ele>
        <time>2019-12-07T10:59:25Z</time>
      </trkpt>
      <trkpt lat="43.91099" lon="7.01823">
        <ele>935</ele>
        <time>2019-12-07T10:59:28Z</time>
      </trkpt>
      <trkpt lat="43.91096" lon="7.01823">
        <ele>935.5999756</ele>
        <time>2019-12-07T10:59:31Z</time>
      </trkpt>
      <trkpt lat="43.91089" lon="7.01824">
        <ele>935.8000488</ele>
        <time>2019-12-07T10:59:36Z</time>
      </trkpt>
      <trkpt lat="43.91087" lon="7.01825">
        <ele>936</ele>
        <time>2019-12-07T10:59:37Z</time>
      </trkpt>
      <trkpt lat="43.91085" lon="7.01824">
        <ele>936.1999512</ele>
        <time>2019-12-07T10:59:38Z</time>
      </trkpt>
      <trkpt lat="43.91073" lon="7.01826">
        <ele>936.5999756</ele>
        <time>2019-12-07T10:59:43Z</time>
      </trkpt>
      <trkpt lat="43.91061" lon="7.01826">
        <ele>936.8000488</ele>
        <time>2019-12-07T10:59:48Z</time>
      </trkpt>
      <trkpt lat="43.91047" lon="7.01822">
        <ele>937.1999512</ele>
        <time>2019-12-07T10:59:52Z</time>
      </trkpt>
      <trkpt lat="43.91044" lon="7.01821">
        <ele>937</ele>
        <time>2019-12-07T10:59:53Z</time>
      </trkpt>
      <trkpt lat="43.91024" lon="7.01818">
        <ele>936.5999756</ele>
        <time>2019-12-07T10:59:59Z</time>
      </trkpt>
      <trkpt lat="43.91018" lon="7.01817">
        <ele>936</ele>
        <time>2019-12-07T11:00:01Z</time>
      </trkpt>
      <trkpt lat="43.9101" lon="7.01816">
        <ele>935</ele>
        <time>2019-12-07T11:00:05Z</time>
      </trkpt>
      <trkpt lat="43.90998" lon="7.01814">
        <ele>933.8000488</ele>
        <time>2019-12-07T11:00:10Z</time>
      </trkpt>
      <trkpt lat="43.90997" lon="7.01814">
        <ele>933.8000488</ele>
        <time>2019-12-07T11:00:11Z</time>
      </trkpt>
      <trkpt lat="43.90993" lon="7.01809">
        <ele>932.5999756</ele>
        <time>2019-12-07T11:00:15Z</time>
      </trkpt>
      <trkpt lat="43.90992" lon="7.01807">
        <ele>932.1999512</ele>
        <time>2019-12-07T11:00:16Z</time>
      </trkpt>
      <trkpt lat="43.9099" lon="7.01799">
        <ele>931.4000244</ele>
        <time>2019-12-07T11:00:19Z</time>
      </trkpt>
      <trkpt lat="43.90985" lon="7.01795">
        <ele>931</ele>
        <time>2019-12-07T11:00:21Z</time>
      </trkpt>
      <trkpt lat="43.90977" lon="7.01793">
        <ele>930</ele>
        <time>2019-12-07T11:00:23Z</time>
      </trkpt>
      <trkpt lat="43.90967" lon="7.01795">
        <ele>929.5999756</ele>
        <time>2019-12-07T11:00:25Z</time>
      </trkpt>
      <trkpt lat="43.90962" lon="7.01794">
        <ele>929.4000244</ele>
        <time>2019-12-07T11:00:26Z</time>
      </trkpt>
      <trkpt lat="43.90955" lon="7.01796">
        <ele>929</ele>
        <time>2019-12-07T11:00:27Z</time>
      </trkpt>
      <trkpt lat="43.90942" lon="7.01798">
        <ele>928.4000244</ele>
        <time>2019-12-07T11:00:30Z</time>
      </trkpt>
      <trkpt lat="43.90939" lon="7.01799">
        <ele>927.8000488</ele>
        <time>2019-12-07T11:00:31Z</time>
      </trkpt>
      <trkpt lat="43.90933" lon="7.01801">
        <ele>926.4000244</ele>
        <time>2019-12-07T11:00:33Z</time>
      </trkpt>
      <trkpt lat="43.9093" lon="7.01802">
        <ele>925.4000244</ele>
        <time>2019-12-07T11:00:34Z</time>
      </trkpt>
      <trkpt lat="43.90927" lon="7.01805">
        <ele>924.8000488</ele>
        <time>2019-12-07T11:00:35Z</time>
      </trkpt>
      <trkpt lat="43.90918" lon="7.01807">
        <ele>924.1999512</ele>
        <time>2019-12-07T11:00:38Z</time>
      </trkpt>
      <trkpt lat="43.90915" lon="7.01808">
        <ele>924.5999756</ele>
        <time>2019-12-07T11:00:39Z</time>
      </trkpt>
      <trkpt lat="43.90897" lon="7.0181">
        <ele>924.1999512</ele>
        <time>2019-12-07T11:00:43Z</time>
      </trkpt>
      <trkpt lat="43.90876" lon="7.0181">
        <ele>923.5999756</ele>
        <time>2019-12-07T11:00:48Z</time>
      </trkpt>
      <trkpt lat="43.90865" lon="7.0181">
        <ele>923.1999512</ele>
        <time>2019-12-07T11:00:51Z</time>
      </trkpt>
      <trkpt lat="43.90857" lon="7.0181">
        <ele>922.5999756</ele>
        <time>2019-12-07T11:00:53Z</time>
      </trkpt>
      <trkpt lat="43.90854" lon="7.01809">
        <ele>921.5999756</ele>
        <time>2019-12-07T11:00:54Z</time>
      </trkpt>
      <trkpt lat="43.90852" lon="7.0181">
        <ele>921</ele>
        <time>2019-12-07T11:00:55Z</time>
      </trkpt>
      <trkpt lat="43.90849" lon="7.0181">
        <ele>920.5999756</ele>
        <time>2019-12-07T11:00:56Z</time>
      </trkpt>
      <trkpt lat="43.90843" lon="7.01814">
        <ele>918.1999512</ele>
        <time>2019-12-07T11:00:58Z</time>
      </trkpt>
      <trkpt lat="43.90841" lon="7.01816">
        <ele>917.1999512</ele>
        <time>2019-12-07T11:00:59Z</time>
      </trkpt>
      <trkpt lat="43.90837" lon="7.0182">
        <ele>915.4000244</ele>
        <time>2019-12-07T11:01:01Z</time>
      </trkpt>
      <trkpt lat="43.90837" lon="7.01822">
        <ele>914.5999756</ele>
        <time>2019-12-07T11:01:02Z</time>
      </trkpt>
      <trkpt lat="43.90835" lon="7.01825">
        <ele>914</ele>
        <time>2019-12-07T11:01:04Z</time>
      </trkpt>
      <trkpt lat="43.90834" lon="7.01825">
        <ele>914</ele>
        <time>2019-12-07T11:01:07Z</time>
      </trkpt>
      <trkpt lat="43.90832" lon="7.01827">
        <ele>913.4000244</ele>
        <time>2019-12-07T11:01:12Z</time>
      </trkpt>
      <trkpt lat="43.90831" lon="7.01828">
        <ele>913.4000244</ele>
        <time>2019-12-07T11:01:17Z</time>
      </trkpt>
      <trkpt lat="43.90827" lon="7.0183">
        <ele>913.5999756</ele>
        <time>2019-12-07T11:01:24Z</time>
      </trkpt>
      <trkpt lat="43.90826" lon="7.01831">
        <ele>914</ele>
        <time>2019-12-07T11:01:25Z</time>
      </trkpt>
      <trkpt lat="43.90821" lon="7.01833">
        <ele>913.5999756</ele>
        <time>2019-12-07T11:01:30Z</time>
      </trkpt>
      <trkpt lat="43.90819" lon="7.01833">
        <ele>914.8000488</ele>
        <time>2019-12-07T11:01:35Z</time>
      </trkpt>
      <trkpt lat="43.90818" lon="7.01832">
        <ele>915.1999512</ele>
        <time>2019-12-07T11:01:36Z</time>
      </trkpt>
      <trkpt lat="43.90817" lon="7.01828">
        <ele>916</ele>
        <time>2019-12-07T11:01:39Z</time>
      </trkpt>
      <trkpt lat="43.90816" lon="7.01824">
        <ele>916</ele>
        <time>2019-12-07T11:01:41Z</time>
      </trkpt>
      <trkpt lat="43.90811" lon="7.01813">
        <ele>915.1999512</ele>
        <time>2019-12-07T11:01:48Z</time>
      </trkpt>
      <trkpt lat="43.90807" lon="7.01809">
        <ele>914.1999512</ele>
        <time>2019-12-07T11:01:51Z</time>
      </trkpt>
      <trkpt lat="43.90803" lon="7.01805">
        <ele>913.1999512</ele>
        <time>2019-12-07T11:01:54Z</time>
      </trkpt>
      <trkpt lat="43.90793" lon="7.01799">
        <ele>912</ele>
        <time>2019-12-07T11:01:59Z</time>
      </trkpt>
      <trkpt lat="43.90791" lon="7.01799">
        <ele>911.4000244</ele>
        <time>2019-12-07T11:02:00Z</time>
      </trkpt>
      <trkpt lat="43.90787" lon="7.01799">
        <ele>910.8000488</ele>
        <time>2019-12-07T11:02:02Z</time>
      </trkpt>
      <trkpt lat="43.90781" lon="7.01799">
        <ele>909.5999756</ele>
        <time>2019-12-07T11:02:05Z</time>
      </trkpt>
      <trkpt lat="43.90777" lon="7.01798">
        <ele>909.4000244</ele>
        <time>2019-12-07T11:02:06Z</time>
      </trkpt>
      <trkpt lat="43.90766" lon="7.01795">
        <ele>908.4000244</ele>
        <time>2019-12-07T11:02:09Z</time>
      </trkpt>
      <trkpt lat="43.90758" lon="7.01793">
        <ele>906.5999756</ele>
        <time>2019-12-07T11:02:11Z</time>
      </trkpt>
      <trkpt lat="43.90755" lon="7.01792">
        <ele>905.8000488</ele>
        <time>2019-12-07T11:02:12Z</time>
      </trkpt>
      <trkpt lat="43.90752" lon="7.01793">
        <ele>905.4000244</ele>
        <time>2019-12-07T11:02:13Z</time>
      </trkpt>
      <trkpt lat="43.90745" lon="7.01793">
        <ele>904.4000244</ele>
        <time>2019-12-07T11:02:17Z</time>
      </trkpt>
      <trkpt lat="43.90744" lon="7.01791">
        <ele>904.1999512</ele>
        <time>2019-12-07T11:02:18Z</time>
      </trkpt>
      <trkpt lat="43.90743" lon="7.01783">
        <ele>903.4000244</ele>
        <time>2019-12-07T11:02:21Z</time>
      </trkpt>
      <trkpt lat="43.90743" lon="7.0178">
        <ele>903</ele>
        <time>2019-12-07T11:02:22Z</time>
      </trkpt>
      <trkpt lat="43.90743" lon="7.01776">
        <ele>902.4000244</ele>
        <time>2019-12-07T11:02:24Z</time>
      </trkpt>
      <trkpt lat="43.90743" lon="7.01774">
        <ele>902</ele>
        <time>2019-12-07T11:02:25Z</time>
      </trkpt>
      <trkpt lat="43.90741" lon="7.01771">
        <ele>901.8000488</ele>
        <time>2019-12-07T11:02:27Z</time>
      </trkpt>
      <trkpt lat="43.9074" lon="7.01766">
        <ele>901.5999756</ele>
        <time>2019-12-07T11:02:29Z</time>
      </trkpt>
      <trkpt lat="43.90735" lon="7.01764">
        <ele>900.8000488</ele>
        <time>2019-12-07T11:02:31Z</time>
      </trkpt>
      <trkpt lat="43.90731" lon="7.01766">
        <ele>900.1999512</ele>
        <time>2019-12-07T11:02:33Z</time>
      </trkpt>
      <trkpt lat="43.90729" lon="7.01767">
        <ele>899.5999756</ele>
        <time>2019-12-07T11:02:34Z</time>
      </trkpt>
      <trkpt lat="43.90724" lon="7.01771">
        <ele>898.5999756</ele>
        <time>2019-12-07T11:02:36Z</time>
      </trkpt>
      <trkpt lat="43.9072" lon="7.01775">
        <ele>897.5999756</ele>
        <time>2019-12-07T11:02:38Z</time>
      </trkpt>
      <trkpt lat="43.90714" lon="7.01778">
        <ele>895.8000488</ele>
        <time>2019-12-07T11:02:41Z</time>
      </trkpt>
      <trkpt lat="43.9071" lon="7.01778">
        <ele>894.5999756</ele>
        <time>2019-12-07T11:02:43Z</time>
      </trkpt>
      <trkpt lat="43.90705" lon="7.01779">
        <ele>893.4000244</ele>
        <time>2019-12-07T11:02:45Z</time>
      </trkpt>
      <trkpt lat="43.90699" lon="7.01784">
        <ele>892</ele>
        <time>2019-12-07T11:02:48Z</time>
      </trkpt>
      <trkpt lat="43.90697" lon="7.01787">
        <ele>891.4000244</ele>
        <time>2019-12-07T11:02:49Z</time>
      </trkpt>
      <trkpt lat="43.90696" lon="7.0179">
        <ele>891</ele>
        <time>2019-12-07T11:02:50Z</time>
      </trkpt>
      <trkpt lat="43.90692" lon="7.01799">
        <ele>889.4000244</ele>
        <time>2019-12-07T11:02:53Z</time>
      </trkpt>
      <trkpt lat="43.90691" lon="7.01802">
        <ele>888.8000488</ele>
        <time>2019-12-07T11:02:54Z</time>
      </trkpt>
      <trkpt lat="43.90689" lon="7.01804">
        <ele>888.4000244</ele>
        <time>2019-12-07T11:02:55Z</time>
      </trkpt>
      <trkpt lat="43.90685" lon="7.0181">
        <ele>887.1999512</ele>
        <time>2019-12-07T11:02:58Z</time>
      </trkpt>
      <trkpt lat="43.9068" lon="7.01813">
        <ele>886</ele>
        <time>2019-12-07T11:03:00Z</time>
      </trkpt>
      <trkpt lat="43.90676" lon="7.01818">
        <ele>885</ele>
        <time>2019-12-07T11:03:02Z</time>
      </trkpt>
      <trkpt lat="43.90671" lon="7.01823">
        <ele>883.5999756</ele>
        <time>2019-12-07T11:03:04Z</time>
      </trkpt>
      <trkpt lat="43.90667" lon="7.01827">
        <ele>882.1999512</ele>
        <time>2019-12-07T11:03:06Z</time>
      </trkpt>
      <trkpt lat="43.90659" lon="7.01832">
        <ele>880.8000488</ele>
        <time>2019-12-07T11:03:09Z</time>
      </trkpt>
      <trkpt lat="43.9065" lon="7.01838">
        <ele>879.8000488</ele>
        <time>2019-12-07T11:03:12Z</time>
      </trkpt>
      <trkpt lat="43.90647" lon="7.01839">
        <ele>879.4000244</ele>
        <time>2019-12-07T11:03:13Z</time>
      </trkpt>
      <trkpt lat="43.90641" lon="7.01841">
        <ele>878.1999512</ele>
        <time>2019-12-07T11:03:15Z</time>
      </trkpt>
      <trkpt lat="43.90635" lon="7.01843">
        <ele>876.8000488</ele>
        <time>2019-12-07T11:03:17Z</time>
      </trkpt>
      <trkpt lat="43.90626" lon="7.01848">
        <ele>875.5999756</ele>
        <time>2019-12-07T11:03:20Z</time>
      </trkpt>
      <trkpt lat="43.9062" lon="7.01853">
        <ele>875</ele>
        <time>2019-12-07T11:03:22Z</time>
      </trkpt>
      <trkpt lat="43.90617" lon="7.01854">
        <ele>874.5999756</ele>
        <time>2019-12-07T11:03:23Z</time>
      </trkpt>
      <trkpt lat="43.90611" lon="7.01857">
        <ele>873.5999756</ele>
        <time>2019-12-07T11:03:25Z</time>
      </trkpt>
      <trkpt lat="43.90607" lon="7.01858">
        <ele>872.1999512</ele>
        <time>2019-12-07T11:03:27Z</time>
      </trkpt>
      <trkpt lat="43.90601" lon="7.01856">
        <ele>871.1999512</ele>
        <time>2019-12-07T11:03:30Z</time>
      </trkpt>
      <trkpt lat="43.90599" lon="7.01855">
        <ele>871</ele>
        <time>2019-12-07T11:03:31Z</time>
      </trkpt>
      <trkpt lat="43.90598" lon="7.01855">
        <ele>870.8000488</ele>
        <time>2019-12-07T11:03:32Z</time>
      </trkpt>
      <trkpt lat="43.90596" lon="7.01856">
        <ele>870</ele>
        <time>2019-12-07T11:03:34Z</time>
      </trkpt>
      <trkpt lat="43.90595" lon="7.01857">
        <ele>869.4000244</ele>
        <time>2019-12-07T11:03:35Z</time>
      </trkpt>
      <trkpt lat="43.90594" lon="7.01858">
        <ele>869</ele>
        <time>2019-12-07T11:03:36Z</time>
      </trkpt>
      <trkpt lat="43.90593" lon="7.01858">
        <ele>868.5999756</ele>
        <time>2019-12-07T11:03:37Z</time>
      </trkpt>
      <trkpt lat="43.9059" lon="7.01855">
        <ele>867.5999756</ele>
        <time>2019-12-07T11:03:39Z</time>
      </trkpt>
      <trkpt lat="43.90589" lon="7.01853">
        <ele>867.1999512</ele>
        <time>2019-12-07T11:03:40Z</time>
      </trkpt>
      <trkpt lat="43.90584" lon="7.01852">
        <ele>866</ele>
        <time>2019-12-07T11:03:42Z</time>
      </trkpt>
      <trkpt lat="43.90582" lon="7.01851">
        <ele>865.5999756</ele>
        <time>2019-12-07T11:03:43Z</time>
      </trkpt>
      <trkpt lat="43.90577" lon="7.01854">
        <ele>864.8000488</ele>
        <time>2019-12-07T11:03:45Z</time>
      </trkpt>
      <trkpt lat="43.90573" lon="7.01856">
        <ele>863.5999756</ele>
        <time>2019-12-07T11:03:47Z</time>
      </trkpt>
      <trkpt lat="43.90567" lon="7.01852">
        <ele>862.4000244</ele>
        <time>2019-12-07T11:03:49Z</time>
      </trkpt>
      <trkpt lat="43.90561" lon="7.0185">
        <ele>861.5999756</ele>
        <time>2019-12-07T11:03:51Z</time>
      </trkpt>
      <trkpt lat="43.90558" lon="7.01849">
        <ele>861.4000244</ele>
        <time>2019-12-07T11:03:52Z</time>
      </trkpt>
      <trkpt lat="43.90547" lon="7.01845">
        <ele>860.8000488</ele>
        <time>2019-12-07T11:03:55Z</time>
      </trkpt>
      <trkpt lat="43.90543" lon="7.01842">
        <ele>860.5999756</ele>
        <time>2019-12-07T11:03:56Z</time>
      </trkpt>
      <trkpt lat="43.90535" lon="7.0184">
        <ele>860</ele>
        <time>2019-12-07T11:03:58Z</time>
      </trkpt>
      <trkpt lat="43.90531" lon="7.01841">
        <ele>859.8000488</ele>
        <time>2019-12-07T11:04:00Z</time>
      </trkpt>
      <trkpt lat="43.90518" lon="7.01842">
        <ele>859.8000488</ele>
        <time>2019-12-07T11:04:04Z</time>
      </trkpt>
      <trkpt lat="43.90514" lon="7.01842">
        <ele>859.8000488</ele>
        <time>2019-12-07T11:04:05Z</time>
      </trkpt>
      <trkpt lat="43.90502" lon="7.01844">
        <ele>860</ele>
        <time>2019-12-07T11:04:09Z</time>
      </trkpt>
      <trkpt lat="43.90497" lon="7.01851">
        <ele>860</ele>
        <time>2019-12-07T11:04:12Z</time>
      </trkpt>
      <trkpt lat="43.90496" lon="7.01853">
        <ele>860</ele>
        <time>2019-12-07T11:04:13Z</time>
      </trkpt>
      <trkpt lat="43.90488" lon="7.01863">
        <ele>858.8000488</ele>
        <time>2019-12-07T11:04:18Z</time>
      </trkpt>
      <trkpt lat="43.90483" lon="7.0187">
        <ele>857.8000488</ele>
        <time>2019-12-07T11:04:20Z</time>
      </trkpt>
      <trkpt lat="43.9048" lon="7.01873">
        <ele>857.4000244</ele>
        <time>2019-12-07T11:04:21Z</time>
      </trkpt>
      <trkpt lat="43.90478" lon="7.01876">
        <ele>857</ele>
        <time>2019-12-07T11:04:22Z</time>
      </trkpt>
      <trkpt lat="43.90478" lon="7.01881">
        <ele>856.5999756</ele>
        <time>2019-12-07T11:04:23Z</time>
      </trkpt>
      <trkpt lat="43.90475" lon="7.01889">
        <ele>855.5999756</ele>
        <time>2019-12-07T11:04:25Z</time>
      </trkpt>
      <trkpt lat="43.90472" lon="7.01891">
        <ele>855.4000244</ele>
        <time>2019-12-07T11:04:26Z</time>
      </trkpt>
      <trkpt lat="43.90466" lon="7.01891">
        <ele>854.5999756</ele>
        <time>2019-12-07T11:04:28Z</time>
      </trkpt>
      <trkpt lat="43.90462" lon="7.01891">
        <ele>854.4000244</ele>
        <time>2019-12-07T11:04:29Z</time>
      </trkpt>
      <trkpt lat="43.90459" lon="7.01891">
        <ele>853.8000488</ele>
        <time>2019-12-07T11:04:30Z</time>
      </trkpt>
      <trkpt lat="43.90452" lon="7.01892">
        <ele>853</ele>
        <time>2019-12-07T11:04:32Z</time>
      </trkpt>
      <trkpt lat="43.90445" lon="7.01892">
        <ele>852.4000244</ele>
        <time>2019-12-07T11:04:34Z</time>
      </trkpt>
      <trkpt lat="43.90437" lon="7.01892">
        <ele>851.8000488</ele>
        <time>2019-12-07T11:04:36Z</time>
      </trkpt>
      <trkpt lat="43.90425" lon="7.01897">
        <ele>850.5999756</ele>
        <time>2019-12-07T11:04:39Z</time>
      </trkpt>
      <trkpt lat="43.90415" lon="7.01901">
        <ele>849.8000488</ele>
        <time>2019-12-07T11:04:41Z</time>
      </trkpt>
      <trkpt lat="43.90408" lon="7.01907">
        <ele>849.1999512</ele>
        <time>2019-12-07T11:04:43Z</time>
      </trkpt>
      <trkpt lat="43.90405" lon="7.0191">
        <ele>848.8000488</ele>
        <time>2019-12-07T11:04:44Z</time>
      </trkpt>
      <trkpt lat="43.90395" lon="7.0192">
        <ele>847.8000488</ele>
        <time>2019-12-07T11:04:47Z</time>
      </trkpt>
      <trkpt lat="43.90383" lon="7.0193">
        <ele>847</ele>
        <time>2019-12-07T11:04:50Z</time>
      </trkpt>
      <trkpt lat="43.90379" lon="7.01934">
        <ele>846.5999756</ele>
        <time>2019-12-07T11:04:51Z</time>
      </trkpt>
      <trkpt lat="43.90366" lon="7.01944">
        <ele>845.5999756</ele>
        <time>2019-12-07T11:04:54Z</time>
      </trkpt>
      <trkpt lat="43.90358" lon="7.01949">
        <ele>845</ele>
        <time>2019-12-07T11:04:56Z</time>
      </trkpt>
      <trkpt lat="43.90353" lon="7.01952">
        <ele>844.5999756</ele>
        <time>2019-12-07T11:04:57Z</time>
      </trkpt>
      <trkpt lat="43.90348" lon="7.01954">
        <ele>844.1999512</ele>
        <time>2019-12-07T11:04:58Z</time>
      </trkpt>
      <trkpt lat="43.9034" lon="7.01956">
        <ele>843.4000244</ele>
        <time>2019-12-07T11:05:00Z</time>
      </trkpt>
      <trkpt lat="43.90335" lon="7.01958">
        <ele>842.1999512</ele>
        <time>2019-12-07T11:05:02Z</time>
      </trkpt>
      <trkpt lat="43.90328" lon="7.0196">
        <ele>840.8000488</ele>
        <time>2019-12-07T11:05:04Z</time>
      </trkpt>
      <trkpt lat="43.90322" lon="7.01958">
        <ele>839.5999756</ele>
        <time>2019-12-07T11:05:06Z</time>
      </trkpt>
      <trkpt lat="43.90318" lon="7.01957">
        <ele>838.5999756</ele>
        <time>2019-12-07T11:05:08Z</time>
      </trkpt>
      <trkpt lat="43.90317" lon="7.01957">
        <ele>838.4000244</ele>
        <time>2019-12-07T11:05:09Z</time>
      </trkpt>
      <trkpt lat="43.90317" lon="7.01957">
        <ele>837.5999756</ele>
        <time>2019-12-07T11:05:12Z</time>
      </trkpt>
      <trkpt lat="43.90317" lon="7.01957">
        <ele>837.1999512</ele>
        <time>2019-12-07T11:05:14Z</time>
      </trkpt>
      <trkpt lat="43.90317" lon="7.01957">
        <ele>836.8000488</ele>
        <time>2019-12-07T11:05:16Z</time>
      </trkpt>
      <trkpt lat="43.90317" lon="7.01957">
        <ele>836.4000244</ele>
        <time>2019-12-07T11:05:26Z</time>
      </trkpt>
      <trkpt lat="43.90317" lon="7.01957">
        <ele>836.4000244</ele>
        <time>2019-12-07T11:05:46Z</time>
      </trkpt>
      <trkpt lat="43.90317" lon="7.01958">
        <ele>835.4000244</ele>
        <time>2019-12-07T11:05:57Z</time>
      </trkpt>
      <trkpt lat="43.90317" lon="7.01958">
        <ele>835.4000244</ele>
        <time>2019-12-07T11:05:59Z</time>
      </trkpt>
      <trkpt lat="43.90317" lon="7.01958">
        <ele>835.4000244</ele>
        <time>2019-12-07T11:06:19Z</time>
      </trkpt>
      <trkpt lat="43.90316" lon="7.01959">
        <ele>835.5999756</ele>
        <time>2019-12-07T11:06:28Z</time>
      </trkpt>
      <trkpt lat="43.90316" lon="7.01959">
        <ele>835.1999512</ele>
        <time>2019-12-07T11:06:34Z</time>
      </trkpt>
      <trkpt lat="43.90316" lon="7.01959">
        <ele>835.1999512</ele>
        <time>2019-12-07T11:06:39Z</time>
      </trkpt>
      <trkpt lat="43.90316" lon="7.01959">
        <ele>835.1999512</ele>
        <time>2019-12-07T11:06:48Z</time>
      </trkpt>
      <trkpt lat="43.90315" lon="7.01959">
        <ele>835.1999512</ele>
        <time>2019-12-07T11:06:50Z</time>
      </trkpt>
      <trkpt lat="43.90313" lon="7.01959">
        <ele>835.1999512</ele>
        <time>2019-12-07T11:06:53Z</time>
      </trkpt>
      <trkpt lat="43.9031" lon="7.0196">
        <ele>835</ele>
        <time>2019-12-07T11:06:58Z</time>
      </trkpt>
      <trkpt lat="43.90301" lon="7.01959">
        <ele>834.1999512</ele>
        <time>2019-12-07T11:07:03Z</time>
      </trkpt>
      <trkpt lat="43.90298" lon="7.0196">
        <ele>834</ele>
        <time>2019-12-07T11:07:04Z</time>
      </trkpt>
      <trkpt lat="43.90289" lon="7.01974">
        <ele>833</ele>
        <time>2019-12-07T11:07:08Z</time>
      </trkpt>
      <trkpt lat="43.90284" lon="7.01982">
        <ele>832</ele>
        <time>2019-12-07T11:07:10Z</time>
      </trkpt>
      <trkpt lat="43.90278" lon="7.0199">
        <ele>830.1999512</ele>
        <time>2019-12-07T11:07:12Z</time>
      </trkpt>
      <trkpt lat="43.90274" lon="7.01992">
        <ele>829.4000244</ele>
        <time>2019-12-07T11:07:13Z</time>
      </trkpt>
      <trkpt lat="43.9027" lon="7.01993">
        <ele>828.5999756</ele>
        <time>2019-12-07T11:07:14Z</time>
      </trkpt>
      <trkpt lat="43.90268" lon="7.0199">
        <ele>828</ele>
        <time>2019-12-07T11:07:15Z</time>
      </trkpt>
      <trkpt lat="43.90265" lon="7.01988">
        <ele>827.4000244</ele>
        <time>2019-12-07T11:07:16Z</time>
      </trkpt>
      <trkpt lat="43.90256" lon="7.01989">
        <ele>826</ele>
        <time>2019-12-07T11:07:19Z</time>
      </trkpt>
      <trkpt lat="43.90251" lon="7.01994">
        <ele>824.5999756</ele>
        <time>2019-12-07T11:07:21Z</time>
      </trkpt>
      <trkpt lat="43.90246" lon="7.01991">
        <ele>822.8000488</ele>
        <time>2019-12-07T11:07:23Z</time>
      </trkpt>
      <trkpt lat="43.9024" lon="7.01986">
        <ele>821</ele>
        <time>2019-12-07T11:07:25Z</time>
      </trkpt>
      <trkpt lat="43.90234" lon="7.01985">
        <ele>819.1999512</ele>
        <time>2019-12-07T11:07:27Z</time>
      </trkpt>
      <trkpt lat="43.9023" lon="7.01988">
        <ele>818.1999512</ele>
        <time>2019-12-07T11:07:28Z</time>
      </trkpt>
      <trkpt lat="43.90226" lon="7.01992">
        <ele>817.1999512</ele>
        <time>2019-12-07T11:07:29Z</time>
      </trkpt>
      <trkpt lat="43.90221" lon="7.01994">
        <ele>816.1999512</ele>
        <time>2019-12-07T11:07:30Z</time>
      </trkpt>
      <trkpt lat="43.90217" lon="7.01996">
        <ele>815</ele>
        <time>2019-12-07T11:07:31Z</time>
      </trkpt>
      <trkpt lat="43.90214" lon="7.01997">
        <ele>814</ele>
        <time>2019-12-07T11:07:32Z</time>
      </trkpt>
      <trkpt lat="43.90206" lon="7.02001">
        <ele>811.8000488</ele>
        <time>2019-12-07T11:07:34Z</time>
      </trkpt>
      <trkpt lat="43.90203" lon="7.02005">
        <ele>810.8000488</ele>
        <time>2019-12-07T11:07:35Z</time>
      </trkpt>
      <trkpt lat="43.902" lon="7.0201">
        <ele>809.5999756</ele>
        <time>2019-12-07T11:07:36Z</time>
      </trkpt>
      <trkpt lat="43.90196" lon="7.02015">
        <ele>808.5999756</ele>
        <time>2019-12-07T11:07:37Z</time>
      </trkpt>
      <trkpt lat="43.90191" lon="7.02017">
        <ele>807.5999756</ele>
        <time>2019-12-07T11:07:38Z</time>
      </trkpt>
      <trkpt lat="43.90185" lon="7.02017">
        <ele>806.5999756</ele>
        <time>2019-12-07T11:07:39Z</time>
      </trkpt>
      <trkpt lat="43.90179" lon="7.02016">
        <ele>805.5999756</ele>
        <time>2019-12-07T11:07:40Z</time>
      </trkpt>
      <trkpt lat="43.90175" lon="7.02015">
        <ele>804.5999756</ele>
        <time>2019-12-07T11:07:41Z</time>
      </trkpt>
      <trkpt lat="43.9017" lon="7.02013">
        <ele>803.5999756</ele>
        <time>2019-12-07T11:07:42Z</time>
      </trkpt>
      <trkpt lat="43.90163" lon="7.02011">
        <ele>801.8000488</ele>
        <time>2019-12-07T11:07:44Z</time>
      </trkpt>
      <trkpt lat="43.90159" lon="7.0201">
        <ele>800.8000488</ele>
        <time>2019-12-07T11:07:45Z</time>
      </trkpt>
      <trkpt lat="43.90156" lon="7.02011">
        <ele>799.8000488</ele>
        <time>2019-12-07T11:07:46Z</time>
      </trkpt>
      <trkpt lat="43.90153" lon="7.02016">
        <ele>798.8000488</ele>
        <time>2019-12-07T11:07:47Z</time>
      </trkpt>
      <trkpt lat="43.90149" lon="7.0202">
        <ele>797.8000488</ele>
        <time>2019-12-07T11:07:48Z</time>
      </trkpt>
      <trkpt lat="43.90145" lon="7.02024">
        <ele>796.5999756</ele>
        <time>2019-12-07T11:07:49Z</time>
      </trkpt>
      <trkpt lat="43.90142" lon="7.02024">
        <ele>794.8000488</ele>
        <time>2019-12-07T11:07:51Z</time>
      </trkpt>
      <trkpt lat="43.9014" lon="7.02022">
        <ele>794</ele>
        <time>2019-12-07T11:07:52Z</time>
      </trkpt>
      <trkpt lat="43.90139" lon="7.02019">
        <ele>793.4000244</ele>
        <time>2019-12-07T11:07:53Z</time>
      </trkpt>
      <trkpt lat="43.90139" lon="7.02017">
        <ele>792.1999512</ele>
        <time>2019-12-07T11:07:55Z</time>
      </trkpt>
      <trkpt lat="43.90139" lon="7.02016">
        <ele>791.8000488</ele>
        <time>2019-12-07T11:08:02Z</time>
      </trkpt>
      <trkpt lat="43.90139" lon="7.02016">
        <ele>791.5999756</ele>
        <time>2019-12-07T11:08:13Z</time>
      </trkpt>
      <trkpt lat="43.9014" lon="7.02013">
        <ele>791.1999512</ele>
        <time>2019-12-07T11:08:14Z</time>
      </trkpt>
      <trkpt lat="43.90139" lon="7.02003">
        <ele>790.4000244</ele>
        <time>2019-12-07T11:08:16Z</time>
      </trkpt>
      <trkpt lat="43.90138" lon="7.02002">
        <ele>789.8000488</ele>
        <time>2019-12-07T11:08:17Z</time>
      </trkpt>
      <trkpt lat="43.90138" lon="7.02002">
        <ele>789.4000244</ele>
        <time>2019-12-07T11:08:18Z</time>
      </trkpt>
      <trkpt lat="43.90138" lon="7.02003">
        <ele>789.1999512</ele>
        <time>2019-12-07T11:08:22Z</time>
      </trkpt>
      <trkpt lat="43.90138" lon="7.02005">
        <ele>788.8000488</ele>
        <time>2019-12-07T11:08:23Z</time>
      </trkpt>
      <trkpt lat="43.90139" lon="7.02007">
        <ele>788.5999756</ele>
        <time>2019-12-07T11:08:24Z</time>
      </trkpt>
      <trkpt lat="43.90137" lon="7.02013">
        <ele>788.8000488</ele>
        <time>2019-12-07T11:08:28Z</time>
      </trkpt>
      <trkpt lat="43.90133" lon="7.02015">
        <ele>789.4000244</ele>
        <time>2019-12-07T11:08:32Z</time>
      </trkpt>
      <trkpt lat="43.90123" lon="7.02017">
        <ele>789.1999512</ele>
        <time>2019-12-07T11:08:34Z</time>
      </trkpt>
      <trkpt lat="43.9012" lon="7.02018">
        <ele>789</ele>
        <time>2019-12-07T11:08:35Z</time>
      </trkpt>
      <trkpt lat="43.90104" lon="7.0202">
        <ele>787.8000488</ele>
        <time>2019-12-07T11:08:39Z</time>
      </trkpt>
      <trkpt lat="43.90099" lon="7.02022">
        <ele>787.1999512</ele>
        <time>2019-12-07T11:08:40Z</time>
      </trkpt>
      <trkpt lat="43.90089" lon="7.0203">
        <ele>786</ele>
        <time>2019-12-07T11:08:42Z</time>
      </trkpt>
      <trkpt lat="43.90083" lon="7.02032">
        <ele>785.1999512</ele>
        <time>2019-12-07T11:08:43Z</time>
      </trkpt>
      <trkpt lat="43.90078" lon="7.02033">
        <ele>784.5999756</ele>
        <time>2019-12-07T11:08:44Z</time>
      </trkpt>
      <trkpt lat="43.90071" lon="7.02029">
        <ele>783</ele>
        <time>2019-12-07T11:08:46Z</time>
      </trkpt>
      <trkpt lat="43.90068" lon="7.02024">
        <ele>782.4000244</ele>
        <time>2019-12-07T11:08:47Z</time>
      </trkpt>
      <trkpt lat="43.90065" lon="7.02022">
        <ele>781.5999756</ele>
        <time>2019-12-07T11:08:48Z</time>
      </trkpt>
      <trkpt lat="43.90065" lon="7.02022">
        <ele>781</ele>
        <time>2019-12-07T11:08:50Z</time>
      </trkpt>
      <trkpt lat="43.90065" lon="7.02022">
        <ele>781</ele>
        <time>2019-12-07T11:08:58Z</time>
      </trkpt>
      <trkpt lat="43.90065" lon="7.02022">
        <ele>781</ele>
        <time>2019-12-07T11:09:09Z</time>
      </trkpt>
      <trkpt lat="43.90065" lon="7.02022">
        <ele>781</ele>
        <time>2019-12-07T11:09:28Z</time>
      </trkpt>
      <trkpt lat="43.90065" lon="7.02021">
        <ele>780.4000244</ele>
        <time>2019-12-07T11:09:29Z</time>
      </trkpt>
      <trkpt lat="43.90065" lon="7.02021">
        <ele>779.8000488</ele>
        <time>2019-12-07T11:09:34Z</time>
      </trkpt>
      <trkpt lat="43.90063" lon="7.02017">
        <ele>779.4000244</ele>
        <time>2019-12-07T11:09:38Z</time>
      </trkpt>
      <trkpt lat="43.90063" lon="7.02015">
        <ele>779.1999512</ele>
        <time>2019-12-07T11:09:39Z</time>
      </trkpt>
      <trkpt lat="43.90062" lon="7.02006">
        <ele>778.1999512</ele>
        <time>2019-12-07T11:09:42Z</time>
      </trkpt>
      <trkpt lat="43.90061" lon="7.02001">
        <ele>777.8000488</ele>
        <time>2019-12-07T11:09:43Z</time>
      </trkpt>
      <trkpt lat="43.90063" lon="7.01986">
        <ele>776.8000488</ele>
        <time>2019-12-07T11:09:46Z</time>
      </trkpt>
      <trkpt lat="43.90062" lon="7.01981">
        <ele>776.4000244</ele>
        <time>2019-12-07T11:09:47Z</time>
      </trkpt>
      <trkpt lat="43.90063" lon="7.01964">
        <ele>775.4000244</ele>
        <time>2019-12-07T11:09:50Z</time>
      </trkpt>
      <trkpt lat="43.90062" lon="7.01961">
        <ele>774.8000488</ele>
        <time>2019-12-07T11:09:52Z</time>
      </trkpt>
      <trkpt lat="43.90063" lon="7.01958">
        <ele>774.1999512</ele>
        <time>2019-12-07T11:09:55Z</time>
      </trkpt>
      <trkpt lat="43.90062" lon="7.01958">
        <ele>773.8000488</ele>
        <time>2019-12-07T11:09:57Z</time>
      </trkpt>
      <trkpt lat="43.90063" lon="7.01955">
        <ele>773.4000244</ele>
        <time>2019-12-07T11:10:04Z</time>
      </trkpt>
      <trkpt lat="43.90063" lon="7.01955">
        <ele>773.1999512</ele>
        <time>2019-12-07T11:10:05Z</time>
      </trkpt>
      <trkpt lat="43.90063" lon="7.01955">
        <ele>773.1999512</ele>
        <time>2019-12-07T11:10:10Z</time>
      </trkpt>
      <trkpt lat="43.90063" lon="7.01954">
        <ele>773</ele>
        <time>2019-12-07T11:10:19Z</time>
      </trkpt>
      <trkpt lat="43.90063" lon="7.01954">
        <ele>773</ele>
        <time>2019-12-07T11:10:33Z</time>
      </trkpt>
      <trkpt lat="43.90062" lon="7.01952">
        <ele>773.5999756</ele>
        <time>2019-12-07T11:10:44Z</time>
      </trkpt>
      <trkpt lat="43.90062" lon="7.01952">
        <ele>773.5999756</ele>
        <time>2019-12-07T11:10:57Z</time>
      </trkpt>
      <trkpt lat="43.90062" lon="7.01947">
        <ele>774.1999512</ele>
        <time>2019-12-07T11:11:02Z</time>
      </trkpt>
      <trkpt lat="43.90062" lon="7.01946">
        <ele>774.4000244</ele>
        <time>2019-12-07T11:11:03Z</time>
      </trkpt>
      <trkpt lat="43.90059" lon="7.01946">
        <ele>774.1999512</ele>
        <time>2019-12-07T11:11:08Z</time>
      </trkpt>
      <trkpt lat="43.90057" lon="7.01947">
        <ele>774.5999756</ele>
        <time>2019-12-07T11:11:14Z</time>
      </trkpt>
      <trkpt lat="43.90056" lon="7.01945">
        <ele>774.8000488</ele>
        <time>2019-12-07T11:11:20Z</time>
      </trkpt>
      <trkpt lat="43.90055" lon="7.01941">
        <ele>775.1999512</ele>
        <time>2019-12-07T11:11:24Z</time>
      </trkpt>
      <trkpt lat="43.90055" lon="7.0194">
        <ele>775.4000244</ele>
        <time>2019-12-07T11:11:26Z</time>
      </trkpt>
      <trkpt lat="43.90055" lon="7.0194">
        <ele>775.4000244</ele>
        <time>2019-12-07T11:11:34Z</time>
      </trkpt>
      <trkpt lat="43.90055" lon="7.0194">
        <ele>775.4000244</ele>
        <time>2019-12-07T11:11:47Z</time>
      </trkpt>
      <trkpt lat="43.90055" lon="7.0194">
        <ele>775.4000244</ele>
        <time>2019-12-07T11:11:59Z</time>
      </trkpt>
      <trkpt lat="43.90055" lon="7.01939">
        <ele>775.5999756</ele>
        <time>2019-12-07T11:12:12Z</time>
      </trkpt>
      <trkpt lat="43.90055" lon="7.01939">
        <ele>775.5999756</ele>
        <time>2019-12-07T11:12:22Z</time>
      </trkpt>
      <trkpt lat="43.90055" lon="7.01939">
        <ele>775.5999756</ele>
        <time>2019-12-07T11:12:36Z</time>
      </trkpt>
      <trkpt lat="43.90054" lon="7.01937">
        <ele>775.5999756</ele>
        <time>2019-12-07T11:12:39Z</time>
      </trkpt>
      <trkpt lat="43.90054" lon="7.01933">
        <ele>775.8000488</ele>
        <time>2019-12-07T11:12:41Z</time>
      </trkpt>
      <trkpt lat="43.90052" lon="7.01931">
        <ele>776.4000244</ele>
        <time>2019-12-07T11:12:43Z</time>
      </trkpt>
      <trkpt lat="43.90047" lon="7.01924">
        <ele>777.5999756</ele>
        <time>2019-12-07T11:12:47Z</time>
      </trkpt>
      <trkpt lat="43.90045" lon="7.01919">
        <ele>778.8000488</ele>
        <time>2019-12-07T11:12:49Z</time>
      </trkpt>
      <trkpt lat="43.90044" lon="7.01916">
        <ele>780.1999512</ele>
        <time>2019-12-07T11:12:51Z</time>
      </trkpt>
      <trkpt lat="43.90044" lon="7.01912">
        <ele>781.1999512</ele>
        <time>2019-12-07T11:12:53Z</time>
      </trkpt>
      <trkpt lat="43.90043" lon="7.0191">
        <ele>781.8000488</ele>
        <time>2019-12-07T11:12:54Z</time>
      </trkpt>
      <trkpt lat="43.90042" lon="7.01908">
        <ele>783</ele>
        <time>2019-12-07T11:12:56Z</time>
      </trkpt>
      <trkpt lat="43.90041" lon="7.01907">
        <ele>783.1999512</ele>
        <time>2019-12-07T11:12:57Z</time>
      </trkpt>
      <trkpt lat="43.90041" lon="7.01907">
        <ele>783.5999756</ele>
        <time>2019-12-07T11:12:59Z</time>
      </trkpt>
      <trkpt lat="43.90041" lon="7.01907">
        <ele>783.5999756</ele>
        <time>2019-12-07T11:13:00Z</time>
      </trkpt>
      <trkpt lat="43.90039" lon="7.01906">
        <ele>784.5999756</ele>
        <time>2019-12-07T11:13:02Z</time>
      </trkpt>
      <trkpt lat="43.90037" lon="7.01904">
        <ele>785</ele>
        <time>2019-12-07T11:13:04Z</time>
      </trkpt>
      <trkpt lat="43.90029" lon="7.01897">
        <ele>784.5999756</ele>
        <time>2019-12-07T11:13:09Z</time>
      </trkpt>
      <trkpt lat="43.90028" lon="7.01896">
        <ele>784.5999756</ele>
        <time>2019-12-07T11:13:10Z</time>
      </trkpt>
      <trkpt lat="43.90022" lon="7.01888">
        <ele>784.5999756</ele>
        <time>2019-12-07T11:13:15Z</time>
      </trkpt>
      <trkpt lat="43.90015" lon="7.01879">
        <ele>785.5999756</ele>
        <time>2019-12-07T11:13:20Z</time>
      </trkpt>
      <trkpt lat="43.90013" lon="7.01877">
        <ele>785.5999756</ele>
        <time>2019-12-07T11:13:22Z</time>
      </trkpt>
      <trkpt lat="43.90009" lon="7.01871">
        <ele>786.1999512</ele>
        <time>2019-12-07T11:13:26Z</time>
      </trkpt>
      <trkpt lat="43.90008" lon="7.0187">
        <ele>786.4000244</ele>
        <time>2019-12-07T11:13:27Z</time>
      </trkpt>
      <trkpt lat="43.90007" lon="7.0187">
        <ele>786.8000488</ele>
        <time>2019-12-07T11:13:28Z</time>
      </trkpt>
      <trkpt lat="43.90007" lon="7.0187">
        <ele>787.1999512</ele>
        <time>2019-12-07T11:13:32Z</time>
      </trkpt>
      <trkpt lat="43.90005" lon="7.01867">
        <ele>787.1999512</ele>
        <time>2019-12-07T11:13:37Z</time>
      </trkpt>
      <trkpt lat="43.90003" lon="7.01867">
        <ele>786.8000488</ele>
        <time>2019-12-07T11:13:45Z</time>
      </trkpt>
      <trkpt lat="43.90001" lon="7.01867">
        <ele>787.1999512</ele>
        <time>2019-12-07T11:13:51Z</time>
      </trkpt>
      <trkpt lat="43.89999" lon="7.01865">
        <ele>787.5999756</ele>
        <time>2019-12-07T11:13:53Z</time>
      </trkpt>
      <trkpt lat="43.89997" lon="7.01864">
        <ele>787.8000488</ele>
        <time>2019-12-07T11:13:55Z</time>
      </trkpt>
      <trkpt lat="43.89992" lon="7.01861">
        <ele>789.4000244</ele>
        <time>2019-12-07T11:14:00Z</time>
      </trkpt>
      <trkpt lat="43.89989" lon="7.01859">
        <ele>790.4000244</ele>
        <time>2019-12-07T11:14:02Z</time>
      </trkpt>
      <trkpt lat="43.89987" lon="7.01858">
        <ele>791.8000488</ele>
        <time>2019-12-07T11:14:04Z</time>
      </trkpt>
      <trkpt lat="43.89985" lon="7.01856">
        <ele>793.1999512</ele>
        <time>2019-12-07T11:14:06Z</time>
      </trkpt>
      <trkpt lat="43.89983" lon="7.01854">
        <ele>794.1999512</ele>
        <time>2019-12-07T11:14:08Z</time>
      </trkpt>
      <trkpt lat="43.89982" lon="7.01853">
        <ele>794.8000488</ele>
        <time>2019-12-07T11:14:09Z</time>
      </trkpt>
      <trkpt lat="43.89978" lon="7.01849">
        <ele>796.1999512</ele>
        <time>2019-12-07T11:14:12Z</time>
      </trkpt>
      <trkpt lat="43.89976" lon="7.01847">
        <ele>797.1999512</ele>
        <time>2019-12-07T11:14:14Z</time>
      </trkpt>
      <trkpt lat="43.89975" lon="7.01846">
        <ele>797.4000244</ele>
        <time>2019-12-07T11:14:15Z</time>
      </trkpt>
      <trkpt lat="43.89973" lon="7.01844">
        <ele>798</ele>
        <time>2019-12-07T11:14:17Z</time>
      </trkpt>
      <trkpt lat="43.89971" lon="7.01844">
        <ele>798.5999756</ele>
        <time>2019-12-07T11:14:18Z</time>
      </trkpt>
      <trkpt lat="43.8997" lon="7.01842">
        <ele>798.8000488</ele>
        <time>2019-12-07T11:14:19Z</time>
      </trkpt>
      <trkpt lat="43.89968" lon="7.0184">
        <ele>799.5999756</ele>
        <time>2019-12-07T11:14:21Z</time>
      </trkpt>
      <trkpt lat="43.89966" lon="7.0184">
        <ele>800</ele>
        <time>2019-12-07T11:14:22Z</time>
      </trkpt>
      <trkpt lat="43.89966" lon="7.01839">
        <ele>800.1999512</ele>
        <time>2019-12-07T11:14:23Z</time>
      </trkpt>
      <trkpt lat="43.89963" lon="7.01837">
        <ele>800.5999756</ele>
        <time>2019-12-07T11:14:25Z</time>
      </trkpt>
      <trkpt lat="43.89959" lon="7.01836">
        <ele>800.1999512</ele>
        <time>2019-12-07T11:14:28Z</time>
      </trkpt>
      <trkpt lat="43.89959" lon="7.01837">
        <ele>799.4000244</ele>
        <time>2019-12-07T11:14:31Z</time>
      </trkpt>
      <trkpt lat="43.89956" lon="7.01836">
        <ele>799.1999512</ele>
        <time>2019-12-07T11:14:33Z</time>
      </trkpt>
      <trkpt lat="43.89953" lon="7.01834">
        <ele>799</ele>
        <time>2019-12-07T11:14:35Z</time>
      </trkpt>
      <trkpt lat="43.89951" lon="7.01831">
        <ele>798.8000488</ele>
        <time>2019-12-07T11:14:36Z</time>
      </trkpt>
      <trkpt lat="43.89944" lon="7.01833">
        <ele>797.8000488</ele>
        <time>2019-12-07T11:14:39Z</time>
      </trkpt>
      <trkpt lat="43.89943" lon="7.01837">
        <ele>797.4000244</ele>
        <time>2019-12-07T11:14:40Z</time>
      </trkpt>
      <trkpt lat="43.8994" lon="7.01844">
        <ele>796.5999756</ele>
        <time>2019-12-07T11:14:42Z</time>
      </trkpt>
      <trkpt lat="43.89937" lon="7.01845">
        <ele>796.4000244</ele>
        <time>2019-12-07T11:14:43Z</time>
      </trkpt>
      <trkpt lat="43.89936" lon="7.0185">
        <ele>796.4000244</ele>
        <time>2019-12-07T11:14:45Z</time>
      </trkpt>
      <trkpt lat="43.89935" lon="7.01851">
        <ele>796.5999756</ele>
        <time>2019-12-07T11:14:50Z</time>
      </trkpt>
      <trkpt lat="43.89935" lon="7.01851">
        <ele>796.5999756</ele>
        <time>2019-12-07T11:15:01Z</time>
      </trkpt>
      <trkpt lat="43.89935" lon="7.01851">
        <ele>796.5999756</ele>
        <time>2019-12-07T11:15:15Z</time>
      </trkpt>
      <trkpt lat="43.89936" lon="7.01853">
        <ele>796.4000244</ele>
        <time>2019-12-07T11:15:31Z</time>
      </trkpt>
      <trkpt lat="43.89936" lon="7.01857">
        <ele>795.8000488</ele>
        <time>2019-12-07T11:15:34Z</time>
      </trkpt>
      <trkpt lat="43.89937" lon="7.01861">
        <ele>795.4000244</ele>
        <time>2019-12-07T11:15:36Z</time>
      </trkpt>
      <trkpt lat="43.89936" lon="7.01865">
        <ele>795.1999512</ele>
        <time>2019-12-07T11:15:38Z</time>
      </trkpt>
      <trkpt lat="43.89936" lon="7.01876">
        <ele>794</ele>
        <time>2019-12-07T11:15:43Z</time>
      </trkpt>
      <trkpt lat="43.89935" lon="7.01878">
        <ele>793.5999756</ele>
        <time>2019-12-07T11:15:44Z</time>
      </trkpt>
      <trkpt lat="43.89935" lon="7.01883">
        <ele>792.8000488</ele>
        <time>2019-12-07T11:15:46Z</time>
      </trkpt>
      <trkpt lat="43.89936" lon="7.01885">
        <ele>792</ele>
        <time>2019-12-07T11:15:47Z</time>
      </trkpt>
      <trkpt lat="43.89936" lon="7.01887">
        <ele>791.5999756</ele>
        <time>2019-12-07T11:15:48Z</time>
      </trkpt>
      <trkpt lat="43.89931" lon="7.01887">
        <ele>790.4000244</ele>
        <time>2019-12-07T11:15:51Z</time>
      </trkpt>
      <trkpt lat="43.89917" lon="7.01881">
        <ele>789.5999756</ele>
        <time>2019-12-07T11:15:54Z</time>
      </trkpt>
      <trkpt lat="43.89913" lon="7.01879">
        <ele>789.4000244</ele>
        <time>2019-12-07T11:15:55Z</time>
      </trkpt>
      <trkpt lat="43.899" lon="7.0188">
        <ele>788.4000244</ele>
        <time>2019-12-07T11:15:58Z</time>
      </trkpt>
      <trkpt lat="43.89896" lon="7.01882">
        <ele>788</ele>
        <time>2019-12-07T11:15:59Z</time>
      </trkpt>
      <trkpt lat="43.89892" lon="7.01885">
        <ele>787.8000488</ele>
        <time>2019-12-07T11:16:00Z</time>
      </trkpt>
      <trkpt lat="43.89885" lon="7.01889">
        <ele>787</ele>
        <time>2019-12-07T11:16:02Z</time>
      </trkpt>
      <trkpt lat="43.89874" lon="7.01891">
        <ele>785.1999512</ele>
        <time>2019-12-07T11:16:05Z</time>
      </trkpt>
      <trkpt lat="43.89871" lon="7.01892">
        <ele>784.5999756</ele>
        <time>2019-12-07T11:16:06Z</time>
      </trkpt>
      <trkpt lat="43.89867" lon="7.01892">
        <ele>784</ele>
        <time>2019-12-07T11:16:07Z</time>
      </trkpt>
      <trkpt lat="43.8986" lon="7.01893">
        <ele>782.8000488</ele>
        <time>2019-12-07T11:16:09Z</time>
      </trkpt>
      <trkpt lat="43.89852" lon="7.01895">
        <ele>781.5999756</ele>
        <time>2019-12-07T11:16:11Z</time>
      </trkpt>
      <trkpt lat="43.89844" lon="7.01899">
        <ele>780</ele>
        <time>2019-12-07T11:16:14Z</time>
      </trkpt>
      <trkpt lat="43.89838" lon="7.01901">
        <ele>778.4000244</ele>
        <time>2019-12-07T11:16:16Z</time>
      </trkpt>
      <trkpt lat="43.89836" lon="7.01902">
        <ele>777.8000488</ele>
        <time>2019-12-07T11:16:17Z</time>
      </trkpt>
      <trkpt lat="43.89833" lon="7.01903">
        <ele>777.1999512</ele>
        <time>2019-12-07T11:16:18Z</time>
      </trkpt>
      <trkpt lat="43.89828" lon="7.01907">
        <ele>776.1999512</ele>
        <time>2019-12-07T11:16:20Z</time>
      </trkpt>
      <trkpt lat="43.89822" lon="7.01909">
        <ele>774.8000488</ele>
        <time>2019-12-07T11:16:22Z</time>
      </trkpt>
      <trkpt lat="43.89816" lon="7.01912">
        <ele>773.4000244</ele>
        <time>2019-12-07T11:16:24Z</time>
      </trkpt>
      <trkpt lat="43.89809" lon="7.01914">
        <ele>772.4000244</ele>
        <time>2019-12-07T11:16:26Z</time>
      </trkpt>
      <trkpt lat="43.89805" lon="7.01915">
        <ele>772</ele>
        <time>2019-12-07T11:16:27Z</time>
      </trkpt>
      <trkpt lat="43.89802" lon="7.01916">
        <ele>771.4000244</ele>
        <time>2019-12-07T11:16:28Z</time>
      </trkpt>
      <trkpt lat="43.89793" lon="7.01922">
        <ele>770</ele>
        <time>2019-12-07T11:16:31Z</time>
      </trkpt>
      <trkpt lat="43.89787" lon="7.01925">
        <ele>769</ele>
        <time>2019-12-07T11:16:33Z</time>
      </trkpt>
      <trkpt lat="43.89775" lon="7.01928">
        <ele>767.8000488</ele>
        <time>2019-12-07T11:16:36Z</time>
      </trkpt>
      <trkpt lat="43.89753" lon="7.01927">
        <ele>766.8000488</ele>
        <time>2019-12-07T11:16:40Z</time>
      </trkpt>
      <trkpt lat="43.89748" lon="7.01928">
        <ele>766.5999756</ele>
        <time>2019-12-07T11:16:41Z</time>
      </trkpt>
      <trkpt lat="43.89744" lon="7.01929">
        <ele>766.5999756</ele>
        <time>2019-12-07T11:16:42Z</time>
      </trkpt>
      <trkpt lat="43.89735" lon="7.01932">
        <ele>766.4000244</ele>
        <time>2019-12-07T11:16:44Z</time>
      </trkpt>
      <trkpt lat="43.89726" lon="7.01935">
        <ele>766.4000244</ele>
        <time>2019-12-07T11:16:46Z</time>
      </trkpt>
      <trkpt lat="43.89713" lon="7.01941">
        <ele>766</ele>
        <time>2019-12-07T11:16:51Z</time>
      </trkpt>
      <trkpt lat="43.89711" lon="7.01942">
        <ele>765.8000488</ele>
        <time>2019-12-07T11:16:57Z</time>
      </trkpt>
      <trkpt lat="43.89709" lon="7.01942">
        <ele>765.8000488</ele>
        <time>2019-12-07T11:17:02Z</time>
      </trkpt>
      <trkpt lat="43.89704" lon="7.01941">
        <ele>765.5999756</ele>
        <time>2019-12-07T11:17:04Z</time>
      </trkpt>
      <trkpt lat="43.89697" lon="7.0194">
        <ele>764.5999756</ele>
        <time>2019-12-07T11:17:09Z</time>
      </trkpt>
      <trkpt lat="43.89689" lon="7.01942">
        <ele>764.5999756</ele>
        <time>2019-12-07T11:17:14Z</time>
      </trkpt>
      <trkpt lat="43.89681" lon="7.01944">
        <ele>765.4000244</ele>
        <time>2019-12-07T11:17:19Z</time>
      </trkpt>
      <trkpt lat="43.89666" lon="7.01943">
        <ele>764.8000488</ele>
        <time>2019-12-07T11:17:26Z</time>
      </trkpt>
      <trkpt lat="43.89647" lon="7.01944">
        <ele>765.4000244</ele>
        <time>2019-12-07T11:17:32Z</time>
      </trkpt>
      <trkpt lat="43.89626" lon="7.0194">
        <ele>764.8000488</ele>
        <time>2019-12-07T11:17:38Z</time>
      </trkpt>
      <trkpt lat="43.89611" lon="7.01938">
        <ele>763.5999756</ele>
        <time>2019-12-07T11:17:42Z</time>
      </trkpt>
      <trkpt lat="43.89606" lon="7.01937">
        <ele>763</ele>
        <time>2019-12-07T11:17:44Z</time>
      </trkpt>
      <trkpt lat="43.89602" lon="7.01936">
        <ele>761.5999756</ele>
        <time>2019-12-07T11:17:46Z</time>
      </trkpt>
      <trkpt lat="43.89597" lon="7.01936">
        <ele>760.8000488</ele>
        <time>2019-12-07T11:17:48Z</time>
      </trkpt>
      <trkpt lat="43.89595" lon="7.01936">
        <ele>760.4000244</ele>
        <time>2019-12-07T11:17:49Z</time>
      </trkpt>
      <trkpt lat="43.89594" lon="7.01934">
        <ele>760.4000244</ele>
        <time>2019-12-07T11:17:50Z</time>
      </trkpt>
      <trkpt lat="43.89589" lon="7.01931">
        <ele>761.5999756</ele>
        <time>2019-12-07T11:17:53Z</time>
      </trkpt>
      <trkpt lat="43.89587" lon="7.01929">
        <ele>761.8000488</ele>
        <time>2019-12-07T11:17:54Z</time>
      </trkpt>
      <trkpt lat="43.89584" lon="7.01926">
        <ele>762.1999512</ele>
        <time>2019-12-07T11:17:57Z</time>
      </trkpt>
      <trkpt lat="43.89583" lon="7.01924">
        <ele>762.8000488</ele>
        <time>2019-12-07T11:17:58Z</time>
      </trkpt>
      <trkpt lat="43.89581" lon="7.01922">
        <ele>763.8000488</ele>
        <time>2019-12-07T11:18:00Z</time>
      </trkpt>
      <trkpt lat="43.89578" lon="7.0192">
        <ele>764.5999756</ele>
        <time>2019-12-07T11:18:02Z</time>
      </trkpt>
      <trkpt lat="43.89577" lon="7.01919">
        <ele>764.8000488</ele>
        <time>2019-12-07T11:18:03Z</time>
      </trkpt>
      <trkpt lat="43.89575" lon="7.01916">
        <ele>765.1999512</ele>
        <time>2019-12-07T11:18:05Z</time>
      </trkpt>
      <trkpt lat="43.89573" lon="7.01915">
        <ele>765</ele>
        <time>2019-12-07T11:18:07Z</time>
      </trkpt>
      <trkpt lat="43.89568" lon="7.0191">
        <ele>764.5999756</ele>
        <time>2019-12-07T11:18:11Z</time>
      </trkpt>
      <trkpt lat="43.89566" lon="7.0191">
        <ele>764.5999756</ele>
        <time>2019-12-07T11:18:12Z</time>
      </trkpt>
      <trkpt lat="43.89559" lon="7.01905">
        <ele>763.8000488</ele>
        <time>2019-12-07T11:18:17Z</time>
      </trkpt>
      <trkpt lat="43.89547" lon="7.01905">
        <ele>764.4000244</ele>
        <time>2019-12-07T11:18:24Z</time>
      </trkpt>
      <trkpt lat="43.89546" lon="7.01905">
        <ele>765</ele>
        <time>2019-12-07T11:18:25Z</time>
      </trkpt>
      <trkpt lat="43.89542" lon="7.01903">
        <ele>766.1999512</ele>
        <time>2019-12-07T11:18:28Z</time>
      </trkpt>
      <trkpt lat="43.89539" lon="7.01901">
        <ele>766.4000244</ele>
        <time>2019-12-07T11:18:31Z</time>
      </trkpt>
      <trkpt lat="43.89537" lon="7.01898">
        <ele>767.5999756</ele>
        <time>2019-12-07T11:18:34Z</time>
      </trkpt>
      <trkpt lat="43.89536" lon="7.01897">
        <ele>768.1999512</ele>
        <time>2019-12-07T11:18:37Z</time>
      </trkpt>
      <trkpt lat="43.89536" lon="7.01896">
        <ele>768</ele>
        <time>2019-12-07T11:18:46Z</time>
      </trkpt>
      <trkpt lat="43.89535" lon="7.01898">
        <ele>769</ele>
        <time>2019-12-07T11:18:55Z</time>
      </trkpt>
      <trkpt lat="43.89535" lon="7.01899">
        <ele>769.4000244</ele>
        <time>2019-12-07T11:18:56Z</time>
      </trkpt>
      <trkpt lat="43.89536" lon="7.019">
        <ele>769.8000488</ele>
        <time>2019-12-07T11:18:57Z</time>
      </trkpt>
      <trkpt lat="43.89536" lon="7.01901">
        <ele>770</ele>
        <time>2019-12-07T11:18:59Z</time>
      </trkpt>
      <trkpt lat="43.89536" lon="7.01901">
        <ele>770.1999512</ele>
        <time>2019-12-07T11:19:00Z</time>
      </trkpt>
      <trkpt lat="43.89536" lon="7.01901">
        <ele>770.1999512</ele>
        <time>2019-12-07T11:19:12Z</time>
      </trkpt>
      <trkpt lat="43.89536" lon="7.01901">
        <ele>770.1999512</ele>
        <time>2019-12-07T11:19:26Z</time>
      </trkpt>
      <trkpt lat="43.89536" lon="7.01901">
        <ele>770.1999512</ele>
        <time>2019-12-07T11:19:38Z</time>
      </trkpt>
      <trkpt lat="43.89536" lon="7.01901">
        <ele>770.4000244</ele>
        <time>2019-12-07T11:19:46Z</time>
      </trkpt>
      <trkpt lat="43.89536" lon="7.01901">
        <ele>770.4000244</ele>
        <time>2019-12-07T11:19:58Z</time>
      </trkpt>
      <trkpt lat="43.89536" lon="7.01901">
        <ele>770.4000244</ele>
        <time>2019-12-07T11:20:09Z</time>
      </trkpt>
      <trkpt lat="43.89536" lon="7.01901">
        <ele>770.1999512</ele>
        <time>2019-12-07T11:20:21Z</time>
      </trkpt>
      <trkpt lat="43.89536" lon="7.01901">
        <ele>770.1999512</ele>
        <time>2019-12-07T11:20:31Z</time>
      </trkpt>
      <trkpt lat="43.89536" lon="7.01901">
        <ele>770.1999512</ele>
        <time>2019-12-07T11:20:40Z</time>
      </trkpt>
      <trkpt lat="43.89536" lon="7.01901">
        <ele>770.1999512</ele>
        <time>2019-12-07T11:20:49Z</time>
      </trkpt>
      <trkpt lat="43.89536" lon="7.01901">
        <ele>770.1999512</ele>
        <time>2019-12-07T11:20:57Z</time>
      </trkpt>
      <trkpt lat="43.89536" lon="7.01901">
        <ele>770</ele>
        <time>2019-12-07T11:21:07Z</time>
      </trkpt>
      <trkpt lat="43.89536" lon="7.01901">
        <ele>770</ele>
        <time>2019-12-07T11:21:15Z</time>
      </trkpt>
      <trkpt lat="43.89536" lon="7.01901">
        <ele>770</ele>
        <time>2019-12-07T11:21:25Z</time>
      </trkpt>
      <trkpt lat="43.89536" lon="7.01901">
        <ele>770</ele>
        <time>2019-12-07T11:21:35Z</time>
      </trkpt>
      <trkpt lat="43.89536" lon="7.01901">
        <ele>769.8000488</ele>
        <time>2019-12-07T11:21:45Z</time>
      </trkpt>
      <trkpt lat="43.89536" lon="7.01901">
        <ele>769.8000488</ele>
        <time>2019-12-07T11:21:54Z</time>
      </trkpt>
      <trkpt lat="43.89536" lon="7.01901">
        <ele>769.8000488</ele>
        <time>2019-12-07T11:22:04Z</time>
      </trkpt>
      <trkpt lat="43.89536" lon="7.01901">
        <ele>769.8000488</ele>
        <time>2019-12-07T11:22:17Z</time>
      </trkpt>
      <trkpt lat="43.89536" lon="7.01901">
        <ele>769.5999756</ele>
        <time>2019-12-07T11:22:28Z</time>
      </trkpt>
      <trkpt lat="43.89536" lon="7.01901">
        <ele>769.5999756</ele>
        <time>2019-12-07T11:22:39Z</time>
      </trkpt>
      <trkpt lat="43.89536" lon="7.01901">
        <ele>769.5999756</ele>
        <time>2019-12-07T11:22:52Z</time>
      </trkpt>
      <trkpt lat="43.89537" lon="7.01901">
        <ele>769.5999756</ele>
        <time>2019-12-07T11:23:01Z</time>
      </trkpt>
      <trkpt lat="43.89537" lon="7.01901">
        <ele>769.5999756</ele>
        <time>2019-12-07T11:23:12Z</time>
      </trkpt>
      <trkpt lat="43.89537" lon="7.01901">
        <ele>769.5999756</ele>
        <time>2019-12-07T11:23:23Z</time>
      </trkpt>
      <trkpt lat="43.89537" lon="7.01901">
        <ele>769.5999756</ele>
        <time>2019-12-07T11:23:34Z</time>
      </trkpt>
      <trkpt lat="43.89536" lon="7.01901">
        <ele>769.5999756</ele>
        <time>2019-12-07T11:23:47Z</time>
      </trkpt>
      <trkpt lat="43.89536" lon="7.01901">
        <ele>769.5999756</ele>
        <time>2019-12-07T11:24:01Z</time>
      </trkpt>
      <trkpt lat="43.89536" lon="7.01901">
        <ele>769.5999756</ele>
        <time>2019-12-07T11:24:10Z</time>
      </trkpt>
      <trkpt lat="43.89536" lon="7.019">
        <ele>769.8000488</ele>
        <time>2019-12-07T11:24:23Z</time>
      </trkpt>
      <trkpt lat="43.89536" lon="7.019">
        <ele>769.8000488</ele>
        <time>2019-12-07T11:24:35Z</time>
      </trkpt>
      <trkpt lat="43.89536" lon="7.019">
        <ele>769.8000488</ele>
        <time>2019-12-07T11:24:45Z</time>
      </trkpt>
      <trkpt lat="43.89536" lon="7.019">
        <ele>769.4000244</ele>
        <time>2019-12-07T11:25:02Z</time>
      </trkpt>
      <trkpt lat="43.89536" lon="7.019">
        <ele>769.4000244</ele>
        <time>2019-12-07T11:25:13Z</time>
      </trkpt>
      <trkpt lat="43.89536" lon="7.019">
        <ele>769.4000244</ele>
        <time>2019-12-07T11:25:24Z</time>
      </trkpt>
      <trkpt lat="43.89536" lon="7.019">
        <ele>769.4000244</ele>
        <time>2019-12-07T11:25:37Z</time>
      </trkpt>
      <trkpt lat="43.89536" lon="7.01901">
        <ele>769</ele>
        <time>2019-12-07T11:25:39Z</time>
      </trkpt>
      <trkpt lat="43.89536" lon="7.01901">
        <ele>769</ele>
        <time>2019-12-07T11:25:50Z</time>
      </trkpt>
      <trkpt lat="43.89536" lon="7.01901">
        <ele>769</ele>
        <time>2019-12-07T11:26:06Z</time>
      </trkpt>
      <trkpt lat="43.89536" lon="7.01901">
        <ele>768.8000488</ele>
        <time>2019-12-07T11:26:22Z</time>
      </trkpt>
      <trkpt lat="43.89536" lon="7.01901">
        <ele>768.8000488</ele>
        <time>2019-12-07T11:26:34Z</time>
      </trkpt>
      <trkpt lat="43.89536" lon="7.01901">
        <ele>768.8000488</ele>
        <time>2019-12-07T11:26:50Z</time>
      </trkpt>
      <trkpt lat="43.89536" lon="7.01901">
        <ele>769</ele>
        <time>2019-12-07T11:27:05Z</time>
      </trkpt>
      <trkpt lat="43.89536" lon="7.01901">
        <ele>769</ele>
        <time>2019-12-07T11:27:17Z</time>
      </trkpt>
      <trkpt lat="43.89536" lon="7.01901">
        <ele>769</ele>
        <time>2019-12-07T11:27:29Z</time>
      </trkpt>
      <trkpt lat="43.89536" lon="7.01901">
        <ele>768.8000488</ele>
        <time>2019-12-07T11:27:41Z</time>
      </trkpt>
      <trkpt lat="43.89536" lon="7.01901">
        <ele>768.8000488</ele>
        <time>2019-12-07T11:27:58Z</time>
      </trkpt>
      <trkpt lat="43.89536" lon="7.01901">
        <ele>768.8000488</ele>
        <time>2019-12-07T11:28:14Z</time>
      </trkpt>
      <trkpt lat="43.89536" lon="7.01901">
        <ele>768.8000488</ele>
        <time>2019-12-07T11:28:29Z</time>
      </trkpt>
      <trkpt lat="43.89536" lon="7.01901">
        <ele>768.8000488</ele>
        <time>2019-12-07T11:28:38Z</time>
      </trkpt>
      <trkpt lat="43.89536" lon="7.01901">
        <ele>768.8000488</ele>
        <time>2019-12-07T11:28:53Z</time>
      </trkpt>
      <trkpt lat="43.89536" lon="7.01901">
        <ele>768.5999756</ele>
        <time>2019-12-07T11:29:03Z</time>
      </trkpt>
      <trkpt lat="43.89536" lon="7.01901">
        <ele>768.5999756</ele>
        <time>2019-12-07T11:29:15Z</time>
      </trkpt>
      <trkpt lat="43.89536" lon="7.01901">
        <ele>768.5999756</ele>
        <time>2019-12-07T11:29:26Z</time>
      </trkpt>
      <trkpt lat="43.89536" lon="7.019">
        <ele>768.5999756</ele>
        <time>2019-12-07T11:29:39Z</time>
      </trkpt>
      <trkpt lat="43.89536" lon="7.019">
        <ele>768.5999756</ele>
        <time>2019-12-07T11:29:50Z</time>
      </trkpt>
      <trkpt lat="43.89536" lon="7.019">
        <ele>768.5999756</ele>
        <time>2019-12-07T11:30:03Z</time>
      </trkpt>
      <trkpt lat="43.89536" lon="7.019">
        <ele>768.5999756</ele>
        <time>2019-12-07T11:30:15Z</time>
      </trkpt>
      <trkpt lat="43.89535" lon="7.019">
        <ele>768.1999512</ele>
        <time>2019-12-07T11:30:26Z</time>
      </trkpt>
      <trkpt lat="43.89535" lon="7.019">
        <ele>768.1999512</ele>
        <time>2019-12-07T11:30:38Z</time>
      </trkpt>
      <trkpt lat="43.89535" lon="7.019">
        <ele>768.1999512</ele>
        <time>2019-12-07T11:30:51Z</time>
      </trkpt>
      <trkpt lat="43.89535" lon="7.01901">
        <ele>768</ele>
        <time>2019-12-07T11:31:03Z</time>
      </trkpt>
      <trkpt lat="43.89535" lon="7.01901">
        <ele>768</ele>
        <time>2019-12-07T11:31:15Z</time>
      </trkpt>
      <trkpt lat="43.89535" lon="7.01901">
        <ele>768</ele>
        <time>2019-12-07T11:31:26Z</time>
      </trkpt>
      <trkpt lat="43.89535" lon="7.01901">
        <ele>768</ele>
        <time>2019-12-07T11:31:39Z</time>
      </trkpt>
      <trkpt lat="43.89535" lon="7.01901">
        <ele>768</ele>
        <time>2019-12-07T11:31:42Z</time>
      </trkpt>
      <trkpt lat="43.89535" lon="7.01901">
        <ele>768</ele>
        <time>2019-12-07T11:31:53Z</time>
      </trkpt>
      <trkpt lat="43.89535" lon="7.01901">
        <ele>768</ele>
        <time>2019-12-07T11:32:06Z</time>
      </trkpt>
      <trkpt lat="43.89535" lon="7.019">
        <ele>768.4000244</ele>
        <time>2019-12-07T11:32:19Z</time>
      </trkpt>
      <trkpt lat="43.89535" lon="7.019">
        <ele>768.4000244</ele>
        <time>2019-12-07T11:32:34Z</time>
      </trkpt>
      <trkpt lat="43.89535" lon="7.019">
        <ele>768.4000244</ele>
        <time>2019-12-07T11:32:48Z</time>
      </trkpt>
      <trkpt lat="43.89535" lon="7.019">
        <ele>767.8000488</ele>
        <time>2019-12-07T11:33:01Z</time>
      </trkpt>
      <trkpt lat="43.89535" lon="7.019">
        <ele>767.8000488</ele>
        <time>2019-12-07T11:33:19Z</time>
      </trkpt>
      <trkpt lat="43.89535" lon="7.019">
        <ele>767.8000488</ele>
        <time>2019-12-07T11:33:33Z</time>
      </trkpt>
      <trkpt lat="43.89536" lon="7.019">
        <ele>767.8000488</ele>
        <time>2019-12-07T11:33:52Z</time>
      </trkpt>
      <trkpt lat="43.89536" lon="7.019">
        <ele>767.8000488</ele>
        <time>2019-12-07T11:34:10Z</time>
      </trkpt>
      <trkpt lat="43.89536" lon="7.01901">
        <ele>767.8000488</ele>
        <time>2019-12-07T11:34:29Z</time>
      </trkpt>
      <trkpt lat="43.89536" lon="7.01901">
        <ele>767.8000488</ele>
        <time>2019-12-07T11:34:45Z</time>
      </trkpt>
      <trkpt lat="43.89536" lon="7.019">
        <ele>767.8000488</ele>
        <time>2019-12-07T11:35:03Z</time>
      </trkpt>
      <trkpt lat="43.89536" lon="7.019">
        <ele>767.8000488</ele>
        <time>2019-12-07T11:35:18Z</time>
      </trkpt>
      <trkpt lat="43.89536" lon="7.019">
        <ele>767.8000488</ele>
        <time>2019-12-07T11:35:37Z</time>
      </trkpt>
      <trkpt lat="43.89536" lon="7.019">
        <ele>767.8000488</ele>
        <time>2019-12-07T11:35:52Z</time>
      </trkpt>
      <trkpt lat="43.89536" lon="7.019">
        <ele>767.8000488</ele>
        <time>2019-12-07T11:36:13Z</time>
      </trkpt>
      <trkpt lat="43.89536" lon="7.019">
        <ele>768</ele>
        <time>2019-12-07T11:36:31Z</time>
      </trkpt>
      <trkpt lat="43.89536" lon="7.019">
        <ele>768</ele>
        <time>2019-12-07T11:36:47Z</time>
      </trkpt>
      <trkpt lat="43.89536" lon="7.01899">
        <ele>768.8000488</ele>
        <time>2019-12-07T11:37:10Z</time>
      </trkpt>
      <trkpt lat="43.89536" lon="7.01899">
        <ele>768.8000488</ele>
        <time>2019-12-07T11:37:26Z</time>
      </trkpt>
      <trkpt lat="43.89536" lon="7.01899">
        <ele>768.5999756</ele>
        <time>2019-12-07T11:37:48Z</time>
      </trkpt>
      <trkpt lat="43.89536" lon="7.01899">
        <ele>768.5999756</ele>
        <time>2019-12-07T11:38:08Z</time>
      </trkpt>
      <trkpt lat="43.89537" lon="7.019">
        <ele>769.1999512</ele>
        <time>2019-12-07T11:38:19Z</time>
      </trkpt>
      <trkpt lat="43.89537" lon="7.019">
        <ele>769.1999512</ele>
        <time>2019-12-07T11:38:21Z</time>
      </trkpt>
      <trkpt lat="43.89537" lon="7.019">
        <ele>769.1999512</ele>
        <time>2019-12-07T11:38:36Z</time>
      </trkpt>
      <trkpt lat="43.89537" lon="7.019">
        <ele>769.1999512</ele>
        <time>2019-12-07T11:38:51Z</time>
      </trkpt>
      <trkpt lat="43.89537" lon="7.019">
        <ele>769.1999512</ele>
        <time>2019-12-07T11:39:04Z</time>
      </trkpt>
      <trkpt lat="43.89537" lon="7.019">
        <ele>769.1999512</ele>
        <time>2019-12-07T11:39:14Z</time>
      </trkpt>
      <trkpt lat="43.89537" lon="7.019">
        <ele>769.1999512</ele>
        <time>2019-12-07T11:39:29Z</time>
      </trkpt>
      <trkpt lat="43.89536" lon="7.019">
        <ele>769.5999756</ele>
        <time>2019-12-07T11:39:50Z</time>
      </trkpt>
      <trkpt lat="43.89536" lon="7.019">
        <ele>769.5999756</ele>
        <time>2019-12-07T11:40:05Z</time>
      </trkpt>
      <trkpt lat="43.89536" lon="7.019">
        <ele>769.4000244</ele>
        <time>2019-12-07T11:40:19Z</time>
      </trkpt>
      <trkpt lat="43.89536" lon="7.019">
        <ele>769.4000244</ele>
        <time>2019-12-07T11:40:38Z</time>
      </trkpt>
      <trkpt lat="43.89536" lon="7.019">
        <ele>769.4000244</ele>
        <time>2019-12-07T11:40:51Z</time>
      </trkpt>
      <trkpt lat="43.89536" lon="7.019">
        <ele>768.8000488</ele>
        <time>2019-12-07T11:41:04Z</time>
      </trkpt>
      <trkpt lat="43.89536" lon="7.019">
        <ele>768.8000488</ele>
        <time>2019-12-07T11:41:22Z</time>
      </trkpt>
      <trkpt lat="43.89536" lon="7.019">
        <ele>768.8000488</ele>
        <time>2019-12-07T11:41:34Z</time>
      </trkpt>
      <trkpt lat="43.89536" lon="7.01899">
        <ele>768.8000488</ele>
        <time>2019-12-07T11:41:36Z</time>
      </trkpt>
      <trkpt lat="43.89536" lon="7.01897">
        <ele>769.5999756</ele>
        <time>2019-12-07T11:41:39Z</time>
      </trkpt>
      <trkpt lat="43.89535" lon="7.01895">
        <ele>770.1999512</ele>
        <time>2019-12-07T11:41:41Z</time>
      </trkpt>
      <trkpt lat="43.89535" lon="7.01895">
        <ele>770.5999756</ele>
        <time>2019-12-07T11:41:44Z</time>
      </trkpt>
      <trkpt lat="43.89535" lon="7.01895">
        <ele>770.5999756</ele>
        <time>2019-12-07T11:41:56Z</time>
      </trkpt>
      <trkpt lat="43.89535" lon="7.01891">
        <ele>772.1999512</ele>
        <time>2019-12-07T11:42:02Z</time>
      </trkpt>
      <trkpt lat="43.89535" lon="7.0189">
        <ele>772.8000488</ele>
        <time>2019-12-07T11:42:04Z</time>
      </trkpt>
      <trkpt lat="43.89533" lon="7.01885">
        <ele>773.5999756</ele>
        <time>2019-12-07T11:42:06Z</time>
      </trkpt>
      <trkpt lat="43.89533" lon="7.01879">
        <ele>774.8000488</ele>
        <time>2019-12-07T11:42:09Z</time>
      </trkpt>
      <trkpt lat="43.89532" lon="7.01877">
        <ele>775.4000244</ele>
        <time>2019-12-07T11:42:10Z</time>
      </trkpt>
      <trkpt lat="43.89532" lon="7.01871">
        <ele>776.1999512</ele>
        <time>2019-12-07T11:42:12Z</time>
      </trkpt>
      <trkpt lat="43.89532" lon="7.0186">
        <ele>776.5999756</ele>
        <time>2019-12-07T11:42:16Z</time>
      </trkpt>
      <trkpt lat="43.89529" lon="7.01845">
        <ele>777</ele>
        <time>2019-12-07T11:42:22Z</time>
      </trkpt>
      <trkpt lat="43.89528" lon="7.01842">
        <ele>777.4000244</ele>
        <time>2019-12-07T11:42:23Z</time>
      </trkpt>
      <trkpt lat="43.89522" lon="7.01825">
        <ele>778.1999512</ele>
        <time>2019-12-07T11:42:29Z</time>
      </trkpt>
      <trkpt lat="43.89516" lon="7.01809">
        <ele>778.4000244</ele>
        <time>2019-12-07T11:42:33Z</time>
      </trkpt>
      <trkpt lat="43.89514" lon="7.01797">
        <ele>778.4000244</ele>
        <time>2019-12-07T11:42:36Z</time>
      </trkpt>
      <trkpt lat="43.89511" lon="7.01767">
        <ele>777.5999756</ele>
        <time>2019-12-07T11:42:43Z</time>
      </trkpt>
      <trkpt lat="43.89507" lon="7.01746">
        <ele>777.5999756</ele>
        <time>2019-12-07T11:42:48Z</time>
      </trkpt>
      <trkpt lat="43.89507" lon="7.0174">
        <ele>777.1999512</ele>
        <time>2019-12-07T11:42:49Z</time>
      </trkpt>
      <trkpt lat="43.89506" lon="7.01727">
        <ele>776.4000244</ele>
        <time>2019-12-07T11:42:51Z</time>
      </trkpt>
      <trkpt lat="43.89507" lon="7.01718">
        <ele>775.8000488</ele>
        <time>2019-12-07T11:42:52Z</time>
      </trkpt>
      <trkpt lat="43.89508" lon="7.01711">
        <ele>775.4000244</ele>
        <time>2019-12-07T11:42:53Z</time>
      </trkpt>
      <trkpt lat="43.89512" lon="7.01692">
        <ele>774.8000488</ele>
        <time>2019-12-07T11:42:56Z</time>
      </trkpt>
      <trkpt lat="43.89514" lon="7.01681">
        <ele>774</ele>
        <time>2019-12-07T11:42:58Z</time>
      </trkpt>
      <trkpt lat="43.89516" lon="7.01674">
        <ele>773.8000488</ele>
        <time>2019-12-07T11:42:59Z</time>
      </trkpt>
      <trkpt lat="43.89517" lon="7.01668">
        <ele>773.4000244</ele>
        <time>2019-12-07T11:43:00Z</time>
      </trkpt>
      <trkpt lat="43.89519" lon="7.01655">
        <ele>772.8000488</ele>
        <time>2019-12-07T11:43:02Z</time>
      </trkpt>
      <trkpt lat="43.8952" lon="7.01648">
        <ele>772.4000244</ele>
        <time>2019-12-07T11:43:03Z</time>
      </trkpt>
      <trkpt lat="43.89519" lon="7.01642">
        <ele>772</ele>
        <time>2019-12-07T11:43:04Z</time>
      </trkpt>
      <trkpt lat="43.89519" lon="7.01635">
        <ele>771.8000488</ele>
        <time>2019-12-07T11:43:05Z</time>
      </trkpt>
      <trkpt lat="43.89518" lon="7.01629">
        <ele>771.5999756</ele>
        <time>2019-12-07T11:43:06Z</time>
      </trkpt>
      <trkpt lat="43.89512" lon="7.0161">
        <ele>771.4000244</ele>
        <time>2019-12-07T11:43:09Z</time>
      </trkpt>
      <trkpt lat="43.89511" lon="7.01603">
        <ele>771</ele>
        <time>2019-12-07T11:43:10Z</time>
      </trkpt>
      <trkpt lat="43.89514" lon="7.01589">
        <ele>770.1999512</ele>
        <time>2019-12-07T11:43:12Z</time>
      </trkpt>
      <trkpt lat="43.89515" lon="7.01581">
        <ele>770</ele>
        <time>2019-12-07T11:43:13Z</time>
      </trkpt>
      <trkpt lat="43.89515" lon="7.01574">
        <ele>769.5999756</ele>
        <time>2019-12-07T11:43:14Z</time>
      </trkpt>
      <trkpt lat="43.89517" lon="7.01568">
        <ele>769.1999512</ele>
        <time>2019-12-07T11:43:15Z</time>
      </trkpt>
      <trkpt lat="43.89518" lon="7.0156">
        <ele>768.8000488</ele>
        <time>2019-12-07T11:43:16Z</time>
      </trkpt>
      <trkpt lat="43.89512" lon="7.01539">
        <ele>768.1999512</ele>
        <time>2019-12-07T11:43:19Z</time>
      </trkpt>
      <trkpt lat="43.89505" lon="7.01528">
        <ele>767.8000488</ele>
        <time>2019-12-07T11:43:21Z</time>
      </trkpt>
      <trkpt lat="43.89502" lon="7.01524">
        <ele>767.4000244</ele>
        <time>2019-12-07T11:43:22Z</time>
      </trkpt>
      <trkpt lat="43.89498" lon="7.01519">
        <ele>766.8000488</ele>
        <time>2019-12-07T11:43:23Z</time>
      </trkpt>
      <trkpt lat="43.89494" lon="7.01515">
        <ele>766.4000244</ele>
        <time>2019-12-07T11:43:24Z</time>
      </trkpt>
      <trkpt lat="43.89483" lon="7.01502">
        <ele>765.4000244</ele>
        <time>2019-12-07T11:43:27Z</time>
      </trkpt>
      <trkpt lat="43.89475" lon="7.01487">
        <ele>764.1999512</ele>
        <time>2019-12-07T11:43:30Z</time>
      </trkpt>
      <trkpt lat="43.89469" lon="7.01476">
        <ele>763</ele>
        <time>2019-12-07T11:43:32Z</time>
      </trkpt>
      <trkpt lat="43.89463" lon="7.01464">
        <ele>761.8000488</ele>
        <time>2019-12-07T11:43:34Z</time>
      </trkpt>
      <trkpt lat="43.89459" lon="7.01459">
        <ele>761.4000244</ele>
        <time>2019-12-07T11:43:35Z</time>
      </trkpt>
      <trkpt lat="43.89454" lon="7.01455">
        <ele>760.8000488</ele>
        <time>2019-12-07T11:43:36Z</time>
      </trkpt>
      <trkpt lat="43.89449" lon="7.01452">
        <ele>760.4000244</ele>
        <time>2019-12-07T11:43:37Z</time>
      </trkpt>
      <trkpt lat="43.89432" lon="7.0145">
        <ele>759.4000244</ele>
        <time>2019-12-07T11:43:40Z</time>
      </trkpt>
      <trkpt lat="43.89427" lon="7.0145">
        <ele>759.1999512</ele>
        <time>2019-12-07T11:43:41Z</time>
      </trkpt>
      <trkpt lat="43.89411" lon="7.01452">
        <ele>758.5999756</ele>
        <time>2019-12-07T11:43:44Z</time>
      </trkpt>
      <trkpt lat="43.89406" lon="7.01449">
        <ele>758.4000244</ele>
        <time>2019-12-07T11:43:45Z</time>
      </trkpt>
      <trkpt lat="43.89399" lon="7.01431">
        <ele>756.8000488</ele>
        <time>2019-12-07T11:43:48Z</time>
      </trkpt>
      <trkpt lat="43.89399" lon="7.01416">
        <ele>755.4000244</ele>
        <time>2019-12-07T11:43:50Z</time>
      </trkpt>
      <trkpt lat="43.89399" lon="7.01409">
        <ele>754.8000488</ele>
        <time>2019-12-07T11:43:51Z</time>
      </trkpt>
      <trkpt lat="43.894" lon="7.014">
        <ele>754.1999512</ele>
        <time>2019-12-07T11:43:52Z</time>
      </trkpt>
      <trkpt lat="43.89401" lon="7.01384">
        <ele>753.1999512</ele>
        <time>2019-12-07T11:43:54Z</time>
      </trkpt>
      <trkpt lat="43.89402" lon="7.0137">
        <ele>751.8000488</ele>
        <time>2019-12-07T11:43:56Z</time>
      </trkpt>
      <trkpt lat="43.89403" lon="7.01356">
        <ele>750.5999756</ele>
        <time>2019-12-07T11:43:58Z</time>
      </trkpt>
      <trkpt lat="43.89406" lon="7.01341">
        <ele>749.4000244</ele>
        <time>2019-12-07T11:44:00Z</time>
      </trkpt>
      <trkpt lat="43.89413" lon="7.01326">
        <ele>748</ele>
        <time>2019-12-07T11:44:02Z</time>
      </trkpt>
      <trkpt lat="43.89427" lon="7.01311">
        <ele>746.8000488</ele>
        <time>2019-12-07T11:44:05Z</time>
      </trkpt>
      <trkpt lat="43.89431" lon="7.01306">
        <ele>746.1999512</ele>
        <time>2019-12-07T11:44:06Z</time>
      </trkpt>
      <trkpt lat="43.89435" lon="7.01301">
        <ele>745.4000244</ele>
        <time>2019-12-07T11:44:07Z</time>
      </trkpt>
      <trkpt lat="43.89444" lon="7.0129">
        <ele>744</ele>
        <time>2019-12-07T11:44:09Z</time>
      </trkpt>
      <trkpt lat="43.89453" lon="7.01276">
        <ele>743</ele>
        <time>2019-12-07T11:44:11Z</time>
      </trkpt>
      <trkpt lat="43.89456" lon="7.01269">
        <ele>742.4000244</ele>
        <time>2019-12-07T11:44:12Z</time>
      </trkpt>
      <trkpt lat="43.89461" lon="7.01253">
        <ele>741.5999756</ele>
        <time>2019-12-07T11:44:14Z</time>
      </trkpt>
      <trkpt lat="43.89463" lon="7.01246">
        <ele>741.1999512</ele>
        <time>2019-12-07T11:44:15Z</time>
      </trkpt>
      <trkpt lat="43.89468" lon="7.01231">
        <ele>740.4000244</ele>
        <time>2019-12-07T11:44:17Z</time>
      </trkpt>
      <trkpt lat="43.8947" lon="7.01222">
        <ele>739.8000488</ele>
        <time>2019-12-07T11:44:18Z</time>
      </trkpt>
      <trkpt lat="43.89471" lon="7.01206">
        <ele>739</ele>
        <time>2019-12-07T11:44:20Z</time>
      </trkpt>
      <trkpt lat="43.8947" lon="7.01194">
        <ele>739</ele>
        <time>2019-12-07T11:44:22Z</time>
      </trkpt>
      <trkpt lat="43.89466" lon="7.0117">
        <ele>738.4000244</ele>
        <time>2019-12-07T11:44:26Z</time>
      </trkpt>
      <trkpt lat="43.89464" lon="7.01164">
        <ele>738</ele>
        <time>2019-12-07T11:44:27Z</time>
      </trkpt>
      <trkpt lat="43.8946" lon="7.01157">
        <ele>737.5999756</ele>
        <time>2019-12-07T11:44:28Z</time>
      </trkpt>
      <trkpt lat="43.8945" lon="7.01139">
        <ele>736.4000244</ele>
        <time>2019-12-07T11:44:31Z</time>
      </trkpt>
      <trkpt lat="43.89444" lon="7.01127">
        <ele>735.4000244</ele>
        <time>2019-12-07T11:44:33Z</time>
      </trkpt>
      <trkpt lat="43.89442" lon="7.0112">
        <ele>734.5999756</ele>
        <time>2019-12-07T11:44:34Z</time>
      </trkpt>
      <trkpt lat="43.89442" lon="7.01112">
        <ele>733.8000488</ele>
        <time>2019-12-07T11:44:35Z</time>
      </trkpt>
      <trkpt lat="43.89441" lon="7.01098">
        <ele>732.5999756</ele>
        <time>2019-12-07T11:44:37Z</time>
      </trkpt>
      <trkpt lat="43.8944" lon="7.01092">
        <ele>732.1999512</ele>
        <time>2019-12-07T11:44:38Z</time>
      </trkpt>
      <trkpt lat="43.8944" lon="7.01089">
        <ele>731.5999756</ele>
        <time>2019-12-07T11:44:39Z</time>
      </trkpt>
      <trkpt lat="43.89441" lon="7.01081">
        <ele>730.5999756</ele>
        <time>2019-12-07T11:44:41Z</time>
      </trkpt>
      <trkpt lat="43.8944" lon="7.01078">
        <ele>730.4000244</ele>
        <time>2019-12-07T11:44:42Z</time>
      </trkpt>
      <trkpt lat="43.89435" lon="7.0107">
        <ele>730.5999756</ele>
        <time>2019-12-07T11:44:45Z</time>
      </trkpt>
      <trkpt lat="43.89419" lon="7.01063">
        <ele>730.8000488</ele>
        <time>2019-12-07T11:44:50Z</time>
      </trkpt>
      <trkpt lat="43.89403" lon="7.01061">
        <ele>731.5999756</ele>
        <time>2019-12-07T11:44:54Z</time>
      </trkpt>
      <trkpt lat="43.89399" lon="7.01059">
        <ele>731.5999756</ele>
        <time>2019-12-07T11:44:55Z</time>
      </trkpt>
      <trkpt lat="43.8939" lon="7.01042">
        <ele>730.8000488</ele>
        <time>2019-12-07T11:44:58Z</time>
      </trkpt>
      <trkpt lat="43.89388" lon="7.01036">
        <ele>730.4000244</ele>
        <time>2019-12-07T11:44:59Z</time>
      </trkpt>
      <trkpt lat="43.89386" lon="7.01018">
        <ele>729.4000244</ele>
        <time>2019-12-07T11:45:02Z</time>
      </trkpt>
      <trkpt lat="43.89385" lon="7.01011">
        <ele>729</ele>
        <time>2019-12-07T11:45:03Z</time>
      </trkpt>
      <trkpt lat="43.89385" lon="7.01005">
        <ele>728.5999756</ele>
        <time>2019-12-07T11:45:04Z</time>
      </trkpt>
      <trkpt lat="43.89385" lon="7.00998">
        <ele>728.1999512</ele>
        <time>2019-12-07T11:45:05Z</time>
      </trkpt>
      <trkpt lat="43.89384" lon="7.0098">
        <ele>727.1999512</ele>
        <time>2019-12-07T11:45:08Z</time>
      </trkpt>
      <trkpt lat="43.89383" lon="7.00962">
        <ele>726.5999756</ele>
        <time>2019-12-07T11:45:10Z</time>
      </trkpt>
      <trkpt lat="43.8938" lon="7.00956">
        <ele>726.1999512</ele>
        <time>2019-12-07T11:45:11Z</time>
      </trkpt>
      <trkpt lat="43.89376" lon="7.00952">
        <ele>725.8000488</ele>
        <time>2019-12-07T11:45:12Z</time>
      </trkpt>
      <trkpt lat="43.89368" lon="7.00947">
        <ele>725.5999756</ele>
        <time>2019-12-07T11:45:14Z</time>
      </trkpt>
      <trkpt lat="43.89363" lon="7.00947">
        <ele>725.4000244</ele>
        <time>2019-12-07T11:45:15Z</time>
      </trkpt>
      <trkpt lat="43.8934" lon="7.00949">
        <ele>725</ele>
        <time>2019-12-07T11:45:19Z</time>
      </trkpt>
      <trkpt lat="43.89334" lon="7.00949">
        <ele>724.8000488</ele>
        <time>2019-12-07T11:45:20Z</time>
      </trkpt>
      <trkpt lat="43.89311" lon="7.00951">
        <ele>723.8000488</ele>
        <time>2019-12-07T11:45:24Z</time>
      </trkpt>
      <trkpt lat="43.893" lon="7.00952">
        <ele>723.1999512</ele>
        <time>2019-12-07T11:45:26Z</time>
      </trkpt>
      <trkpt lat="43.89295" lon="7.00954">
        <ele>722.8000488</ele>
        <time>2019-12-07T11:45:27Z</time>
      </trkpt>
      <trkpt lat="43.8929" lon="7.00958">
        <ele>722.5999756</ele>
        <time>2019-12-07T11:45:28Z</time>
      </trkpt>
      <trkpt lat="43.89287" lon="7.00962">
        <ele>722.5999756</ele>
        <time>2019-12-07T11:45:29Z</time>
      </trkpt>
      <trkpt lat="43.89282" lon="7.00975">
        <ele>722.5999756</ele>
        <time>2019-12-07T11:45:31Z</time>
      </trkpt>
      <trkpt lat="43.89277" lon="7.00987">
        <ele>722.4000244</ele>
        <time>2019-12-07T11:45:33Z</time>
      </trkpt>
      <trkpt lat="43.89274" lon="7.00993">
        <ele>722.1999512</ele>
        <time>2019-12-07T11:45:34Z</time>
      </trkpt>
      <trkpt lat="43.89261" lon="7.01008">
        <ele>721.8000488</ele>
        <time>2019-12-07T11:45:37Z</time>
      </trkpt>
      <trkpt lat="43.8925" lon="7.01016">
        <ele>721.5999756</ele>
        <time>2019-12-07T11:45:39Z</time>
      </trkpt>
      <trkpt lat="43.89244" lon="7.01019">
        <ele>721.5999756</ele>
        <time>2019-12-07T11:45:40Z</time>
      </trkpt>
      <trkpt lat="43.89239" lon="7.01019">
        <ele>721.4000244</ele>
        <time>2019-12-07T11:45:41Z</time>
      </trkpt>
      <trkpt lat="43.89222" lon="7.01018">
        <ele>720.8000488</ele>
        <time>2019-12-07T11:45:44Z</time>
      </trkpt>
      <trkpt lat="43.89216" lon="7.01016">
        <ele>720.4000244</ele>
        <time>2019-12-07T11:45:45Z</time>
      </trkpt>
      <trkpt lat="43.89199" lon="7.01011">
        <ele>718.8000488</ele>
        <time>2019-12-07T11:45:48Z</time>
      </trkpt>
      <trkpt lat="43.89188" lon="7.01007">
        <ele>717.5999756</ele>
        <time>2019-12-07T11:45:50Z</time>
      </trkpt>
      <trkpt lat="43.89183" lon="7.01005">
        <ele>716.8000488</ele>
        <time>2019-12-07T11:45:51Z</time>
      </trkpt>
      <trkpt lat="43.89177" lon="7.01003">
        <ele>716.4000244</ele>
        <time>2019-12-07T11:45:52Z</time>
      </trkpt>
      <trkpt lat="43.89171" lon="7.01">
        <ele>715.8000488</ele>
        <time>2019-12-07T11:45:53Z</time>
      </trkpt>
      <trkpt lat="43.89165" lon="7.00997">
        <ele>715.1999512</ele>
        <time>2019-12-07T11:45:54Z</time>
      </trkpt>
      <trkpt lat="43.89159" lon="7.00993">
        <ele>714.4000244</ele>
        <time>2019-12-07T11:45:55Z</time>
      </trkpt>
      <trkpt lat="43.89153" lon="7.00989">
        <ele>713.8000488</ele>
        <time>2019-12-07T11:45:56Z</time>
      </trkpt>
      <trkpt lat="43.89141" lon="7.00979">
        <ele>711.8000488</ele>
        <time>2019-12-07T11:45:58Z</time>
      </trkpt>
      <trkpt lat="43.89133" lon="7.00969">
        <ele>710</ele>
        <time>2019-12-07T11:46:00Z</time>
      </trkpt>
      <trkpt lat="43.89129" lon="7.00966">
        <ele>709.1999512</ele>
        <time>2019-12-07T11:46:01Z</time>
      </trkpt>
      <trkpt lat="43.89126" lon="7.00962">
        <ele>708.5999756</ele>
        <time>2019-12-07T11:46:02Z</time>
      </trkpt>
      <trkpt lat="43.89119" lon="7.00955">
        <ele>707.4000244</ele>
        <time>2019-12-07T11:46:04Z</time>
      </trkpt>
      <trkpt lat="43.89116" lon="7.0095">
        <ele>706.5999756</ele>
        <time>2019-12-07T11:46:05Z</time>
      </trkpt>
      <trkpt lat="43.89115" lon="7.00946">
        <ele>706</ele>
        <time>2019-12-07T11:46:06Z</time>
      </trkpt>
      <trkpt lat="43.89112" lon="7.00937">
        <ele>704.8000488</ele>
        <time>2019-12-07T11:46:08Z</time>
      </trkpt>
      <trkpt lat="43.89111" lon="7.00926">
        <ele>703.8000488</ele>
        <time>2019-12-07T11:46:10Z</time>
      </trkpt>
      <trkpt lat="43.8911" lon="7.0092">
        <ele>703.1999512</ele>
        <time>2019-12-07T11:46:11Z</time>
      </trkpt>
      <trkpt lat="43.89109" lon="7.00902">
        <ele>702.1999512</ele>
        <time>2019-12-07T11:46:13Z</time>
      </trkpt>
      <trkpt lat="43.89109" lon="7.00891">
        <ele>701.5999756</ele>
        <time>2019-12-07T11:46:14Z</time>
      </trkpt>
      <trkpt lat="43.89109" lon="7.00881">
        <ele>701</ele>
        <time>2019-12-07T11:46:15Z</time>
      </trkpt>
      <trkpt lat="43.89108" lon="7.00864">
        <ele>699.8000488</ele>
        <time>2019-12-07T11:46:17Z</time>
      </trkpt>
      <trkpt lat="43.89108" lon="7.00856">
        <ele>699.4000244</ele>
        <time>2019-12-07T11:46:18Z</time>
      </trkpt>
      <trkpt lat="43.89108" lon="7.00849">
        <ele>698.8000488</ele>
        <time>2019-12-07T11:46:19Z</time>
      </trkpt>
      <trkpt lat="43.89109" lon="7.00836">
        <ele>697.5999756</ele>
        <time>2019-12-07T11:46:21Z</time>
      </trkpt>
      <trkpt lat="43.89113" lon="7.0082">
        <ele>696.5999756</ele>
        <time>2019-12-07T11:46:23Z</time>
      </trkpt>
      <trkpt lat="43.89117" lon="7.00803">
        <ele>695.4000244</ele>
        <time>2019-12-07T11:46:25Z</time>
      </trkpt>
      <trkpt lat="43.89118" lon="7.00792">
        <ele>694.4000244</ele>
        <time>2019-12-07T11:46:27Z</time>
      </trkpt>
      <trkpt lat="43.89117" lon="7.00785">
        <ele>693.4000244</ele>
        <time>2019-12-07T11:46:29Z</time>
      </trkpt>
      <trkpt lat="43.89117" lon="7.00781">
        <ele>692.8000488</ele>
        <time>2019-12-07T11:46:30Z</time>
      </trkpt>
      <trkpt lat="43.89117" lon="7.00778">
        <ele>691.4000244</ele>
        <time>2019-12-07T11:46:32Z</time>
      </trkpt>
      <trkpt lat="43.89117" lon="7.00778">
        <ele>691.4000244</ele>
        <time>2019-12-07T11:46:34Z</time>
      </trkpt>
      <trkpt lat="43.89118" lon="7.00769">
        <ele>690.5999756</ele>
        <time>2019-12-07T11:46:40Z</time>
      </trkpt>
      <trkpt lat="43.89119" lon="7.00765">
        <ele>690.4000244</ele>
        <time>2019-12-07T11:46:41Z</time>
      </trkpt>
      <trkpt lat="43.89123" lon="7.00751">
        <ele>689.1999512</ele>
        <time>2019-12-07T11:46:45Z</time>
      </trkpt>
      <trkpt lat="43.89123" lon="7.00748">
        <ele>689</ele>
        <time>2019-12-07T11:46:46Z</time>
      </trkpt>
      <trkpt lat="43.89125" lon="7.0074">
        <ele>688.1999512</ele>
        <time>2019-12-07T11:46:49Z</time>
      </trkpt>
      <trkpt lat="43.89125" lon="7.00727">
        <ele>686.8000488</ele>
        <time>2019-12-07T11:46:54Z</time>
      </trkpt>
      <trkpt lat="43.89126" lon="7.0071">
        <ele>686.4000244</ele>
        <time>2019-12-07T11:47:01Z</time>
      </trkpt>
      <trkpt lat="43.89129" lon="7.0069">
        <ele>687</ele>
        <time>2019-12-07T11:47:09Z</time>
      </trkpt>
      <trkpt lat="43.89134" lon="7.00681">
        <ele>686.5999756</ele>
        <time>2019-12-07T11:47:15Z</time>
      </trkpt>
      <trkpt lat="43.89138" lon="7.00667">
        <ele>686</ele>
        <time>2019-12-07T11:47:22Z</time>
      </trkpt>
      <trkpt lat="43.89145" lon="7.00655">
        <ele>686.8000488</ele>
        <time>2019-12-07T11:47:29Z</time>
      </trkpt>
      <trkpt lat="43.89148" lon="7.00648">
        <ele>688.5999756</ele>
        <time>2019-12-07T11:47:33Z</time>
      </trkpt>
      <trkpt lat="43.8915" lon="7.00643">
        <ele>689.1999512</ele>
        <time>2019-12-07T11:47:36Z</time>
      </trkpt>
      <trkpt lat="43.89151" lon="7.0064">
        <ele>689.5999756</ele>
        <time>2019-12-07T11:47:37Z</time>
      </trkpt>
      <trkpt lat="43.89153" lon="7.0063">
        <ele>691</ele>
        <time>2019-12-07T11:47:41Z</time>
      </trkpt>
      <trkpt lat="43.89155" lon="7.00626">
        <ele>692.1999512</ele>
        <time>2019-12-07T11:47:43Z</time>
      </trkpt>
      <trkpt lat="43.89155" lon="7.00623">
        <ele>693</ele>
        <time>2019-12-07T11:47:44Z</time>
      </trkpt>
      <trkpt lat="43.89156" lon="7.00619">
        <ele>693.5999756</ele>
        <time>2019-12-07T11:47:46Z</time>
      </trkpt>
      <trkpt lat="43.89157" lon="7.00614">
        <ele>694.5999756</ele>
        <time>2019-12-07T11:47:49Z</time>
      </trkpt>
      <trkpt lat="43.89157" lon="7.00612">
        <ele>695</ele>
        <time>2019-12-07T11:47:50Z</time>
      </trkpt>
      <trkpt lat="43.89158" lon="7.0061">
        <ele>695.4000244</ele>
        <time>2019-12-07T11:47:51Z</time>
      </trkpt>
      <trkpt lat="43.89158" lon="7.00607">
        <ele>696.1999512</ele>
        <time>2019-12-07T11:47:52Z</time>
      </trkpt>
      <trkpt lat="43.8916" lon="7.00603">
        <ele>697.1999512</ele>
        <time>2019-12-07T11:47:54Z</time>
      </trkpt>
      <trkpt lat="43.89162" lon="7.00596">
        <ele>698</ele>
        <time>2019-12-07T11:47:57Z</time>
      </trkpt>
      <trkpt lat="43.89163" lon="7.00594">
        <ele>698.4000244</ele>
        <time>2019-12-07T11:47:58Z</time>
      </trkpt>
      <trkpt lat="43.89168" lon="7.0058">
        <ele>699</ele>
        <time>2019-12-07T11:48:06Z</time>
      </trkpt>
      <trkpt lat="43.89169" lon="7.00577">
        <ele>699.4000244</ele>
        <time>2019-12-07T11:48:08Z</time>
      </trkpt>
      <trkpt lat="43.89173" lon="7.00571">
        <ele>699.8000488</ele>
        <time>2019-12-07T11:48:12Z</time>
      </trkpt>
      <trkpt lat="43.89177" lon="7.00564">
        <ele>700.8000488</ele>
        <time>2019-12-07T11:48:16Z</time>
      </trkpt>
      <trkpt lat="43.8918" lon="7.00559">
        <ele>701.5999756</ele>
        <time>2019-12-07T11:48:19Z</time>
      </trkpt>
      <trkpt lat="43.89181" lon="7.00557">
        <ele>701.8000488</ele>
        <time>2019-12-07T11:48:20Z</time>
      </trkpt>
      <trkpt lat="43.89181" lon="7.00546">
        <ele>702.8000488</ele>
        <time>2019-12-07T11:48:25Z</time>
      </trkpt>
      <trkpt lat="43.8918" lon="7.00539">
        <ele>703.8000488</ele>
        <time>2019-12-07T11:48:28Z</time>
      </trkpt>
      <trkpt lat="43.8918" lon="7.00535">
        <ele>705</ele>
        <time>2019-12-07T11:48:30Z</time>
      </trkpt>
      <trkpt lat="43.89179" lon="7.00531">
        <ele>705.5999756</ele>
        <time>2019-12-07T11:48:32Z</time>
      </trkpt>
      <trkpt lat="43.8918" lon="7.00526">
        <ele>706.4000244</ele>
        <time>2019-12-07T11:48:34Z</time>
      </trkpt>
      <trkpt lat="43.8918" lon="7.00519">
        <ele>707.5999756</ele>
        <time>2019-12-07T11:48:37Z</time>
      </trkpt>
      <trkpt lat="43.8918" lon="7.00513">
        <ele>707.8000488</ele>
        <time>2019-12-07T11:48:39Z</time>
      </trkpt>
      <trkpt lat="43.89179" lon="7.00503">
        <ele>708.5999756</ele>
        <time>2019-12-07T11:48:43Z</time>
      </trkpt>
      <trkpt lat="43.89178" lon="7.00497">
        <ele>708.8000488</ele>
        <time>2019-12-07T11:48:46Z</time>
      </trkpt>
      <trkpt lat="43.89181" lon="7.00483">
        <ele>709.8000488</ele>
        <time>2019-12-07T11:48:53Z</time>
      </trkpt>
      <trkpt lat="43.89187" lon="7.00465">
        <ele>710.5999756</ele>
        <time>2019-12-07T11:49:01Z</time>
      </trkpt>
      <trkpt lat="43.89187" lon="7.00463">
        <ele>710.8000488</ele>
        <time>2019-12-07T11:49:02Z</time>
      </trkpt>
      <trkpt lat="43.89191" lon="7.00456">
        <ele>710.8000488</ele>
        <time>2019-12-07T11:49:06Z</time>
      </trkpt>
      <trkpt lat="43.89191" lon="7.00453">
        <ele>710.8000488</ele>
        <time>2019-12-07T11:49:07Z</time>
      </trkpt>
      <trkpt lat="43.89194" lon="7.00447">
        <ele>710.8000488</ele>
        <time>2019-12-07T11:49:10Z</time>
      </trkpt>
      <trkpt lat="43.89195" lon="7.00443">
        <ele>711.4000244</ele>
        <time>2019-12-07T11:49:12Z</time>
      </trkpt>
      <trkpt lat="43.89196" lon="7.00438">
        <ele>711.8000488</ele>
        <time>2019-12-07T11:49:14Z</time>
      </trkpt>
      <trkpt lat="43.89198" lon="7.00434">
        <ele>712.5999756</ele>
        <time>2019-12-07T11:49:16Z</time>
      </trkpt>
      <trkpt lat="43.89198" lon="7.00432">
        <ele>713</ele>
        <time>2019-12-07T11:49:17Z</time>
      </trkpt>
      <trkpt lat="43.89199" lon="7.00429">
        <ele>713.1999512</ele>
        <time>2019-12-07T11:49:18Z</time>
      </trkpt>
      <trkpt lat="43.89198" lon="7.00419">
        <ele>714</ele>
        <time>2019-12-07T11:49:22Z</time>
      </trkpt>
      <trkpt lat="43.89197" lon="7.00415">
        <ele>715</ele>
        <time>2019-12-07T11:49:25Z</time>
      </trkpt>
      <trkpt lat="43.89194" lon="7.00413">
        <ele>715.8000488</ele>
        <time>2019-12-07T11:49:27Z</time>
      </trkpt>
      <trkpt lat="43.89192" lon="7.0041">
        <ele>716.1999512</ele>
        <time>2019-12-07T11:49:29Z</time>
      </trkpt>
      <trkpt lat="43.89187" lon="7.00404">
        <ele>717.5999756</ele>
        <time>2019-12-07T11:49:33Z</time>
      </trkpt>
      <trkpt lat="43.89186" lon="7.00402">
        <ele>717.8000488</ele>
        <time>2019-12-07T11:49:34Z</time>
      </trkpt>
      <trkpt lat="43.89183" lon="7.00395">
        <ele>718.5999756</ele>
        <time>2019-12-07T11:49:38Z</time>
      </trkpt>
      <trkpt lat="43.89182" lon="7.0039">
        <ele>718.8000488</ele>
        <time>2019-12-07T11:49:40Z</time>
      </trkpt>
      <trkpt lat="43.89182" lon="7.00377">
        <ele>719.8000488</ele>
        <time>2019-12-07T11:49:46Z</time>
      </trkpt>
      <trkpt lat="43.89182" lon="7.00373">
        <ele>720</ele>
        <time>2019-12-07T11:49:48Z</time>
      </trkpt>
      <trkpt lat="43.89181" lon="7.00359">
        <ele>720.4000244</ele>
        <time>2019-12-07T11:49:55Z</time>
      </trkpt>
      <trkpt lat="43.89181" lon="7.00355">
        <ele>720.8000488</ele>
        <time>2019-12-07T11:49:57Z</time>
      </trkpt>
      <trkpt lat="43.8918" lon="7.00348">
        <ele>722</ele>
        <time>2019-12-07T11:50:01Z</time>
      </trkpt>
      <trkpt lat="43.8918" lon="7.00344">
        <ele>722</ele>
        <time>2019-12-07T11:50:03Z</time>
      </trkpt>
      <trkpt lat="43.89179" lon="7.00328">
        <ele>722.8000488</ele>
        <time>2019-12-07T11:50:11Z</time>
      </trkpt>
      <trkpt lat="43.89179" lon="7.00325">
        <ele>723</ele>
        <time>2019-12-07T11:50:13Z</time>
      </trkpt>
      <trkpt lat="43.89178" lon="7.00316">
        <ele>722.5999756</ele>
        <time>2019-12-07T11:50:18Z</time>
      </trkpt>
      <trkpt lat="43.89177" lon="7.00307">
        <ele>723.4000244</ele>
        <time>2019-12-07T11:50:24Z</time>
      </trkpt>
      <trkpt lat="43.89176" lon="7.00304">
        <ele>723.1999512</ele>
        <time>2019-12-07T11:50:26Z</time>
      </trkpt>
      <trkpt lat="43.89175" lon="7.00301">
        <ele>723.4000244</ele>
        <time>2019-12-07T11:50:28Z</time>
      </trkpt>
      <trkpt lat="43.89174" lon="7.00296">
        <ele>724.1999512</ele>
        <time>2019-12-07T11:50:31Z</time>
      </trkpt>
      <trkpt lat="43.89172" lon="7.00292">
        <ele>724.4000244</ele>
        <time>2019-12-07T11:50:34Z</time>
      </trkpt>
      <trkpt lat="43.89171" lon="7.00276">
        <ele>724.8000488</ele>
        <time>2019-12-07T11:50:42Z</time>
      </trkpt>
      <trkpt lat="43.8917" lon="7.00273">
        <ele>725.1999512</ele>
        <time>2019-12-07T11:50:44Z</time>
      </trkpt>
      <trkpt lat="43.89167" lon="7.00269">
        <ele>725.5999756</ele>
        <time>2019-12-07T11:50:47Z</time>
      </trkpt>
      <trkpt lat="43.89167" lon="7.00267">
        <ele>725.5999756</ele>
        <time>2019-12-07T11:50:48Z</time>
      </trkpt>
      <trkpt lat="43.89167" lon="7.00265">
        <ele>725.5999756</ele>
        <time>2019-12-07T11:50:49Z</time>
      </trkpt>
      <trkpt lat="43.89168" lon="7.00255">
        <ele>726.5999756</ele>
        <time>2019-12-07T11:50:54Z</time>
      </trkpt>
      <trkpt lat="43.89168" lon="7.00251">
        <ele>727.1999512</ele>
        <time>2019-12-07T11:50:56Z</time>
      </trkpt>
      <trkpt lat="43.89167" lon="7.00245">
        <ele>727.5999756</ele>
        <time>2019-12-07T11:50:59Z</time>
      </trkpt>
      <trkpt lat="43.89166" lon="7.00235">
        <ele>728.8000488</ele>
        <time>2019-12-07T11:51:04Z</time>
      </trkpt>
      <trkpt lat="43.89164" lon="7.00219">
        <ele>729.4000244</ele>
        <time>2019-12-07T11:51:12Z</time>
      </trkpt>
      <trkpt lat="43.89163" lon="7.00215">
        <ele>730</ele>
        <time>2019-12-07T11:51:14Z</time>
      </trkpt>
      <trkpt lat="43.89163" lon="7.00206">
        <ele>731</ele>
        <time>2019-12-07T11:51:19Z</time>
      </trkpt>
      <trkpt lat="43.89162" lon="7.00201">
        <ele>731.4000244</ele>
        <time>2019-12-07T11:51:21Z</time>
      </trkpt>
      <trkpt lat="43.89162" lon="7.00189">
        <ele>732.5999756</ele>
        <time>2019-12-07T11:51:26Z</time>
      </trkpt>
      <trkpt lat="43.89163" lon="7.00182">
        <ele>733.8000488</ele>
        <time>2019-12-07T11:51:29Z</time>
      </trkpt>
      <trkpt lat="43.89164" lon="7.0018">
        <ele>734</ele>
        <time>2019-12-07T11:51:30Z</time>
      </trkpt>
      <trkpt lat="43.89164" lon="7.00177">
        <ele>734.1999512</ele>
        <time>2019-12-07T11:51:31Z</time>
      </trkpt>
      <trkpt lat="43.89165" lon="7.00167">
        <ele>735</ele>
        <time>2019-12-07T11:51:35Z</time>
      </trkpt>
      <trkpt lat="43.89165" lon="7.00161">
        <ele>735.4000244</ele>
        <time>2019-12-07T11:51:38Z</time>
      </trkpt>
      <trkpt lat="43.89164" lon="7.00154">
        <ele>736.1999512</ele>
        <time>2019-12-07T11:51:41Z</time>
      </trkpt>
      <trkpt lat="43.89164" lon="7.00143">
        <ele>736.5999756</ele>
        <time>2019-12-07T11:51:45Z</time>
      </trkpt>
      <trkpt lat="43.89158" lon="7.00123">
        <ele>737.1999512</ele>
        <time>2019-12-07T11:51:52Z</time>
      </trkpt>
      <trkpt lat="43.89153" lon="7.00114">
        <ele>736.1999512</ele>
        <time>2019-12-07T11:51:55Z</time>
      </trkpt>
      <trkpt lat="43.89147" lon="7.00106">
        <ele>735.4000244</ele>
        <time>2019-12-07T11:51:58Z</time>
      </trkpt>
      <trkpt lat="43.89142" lon="7.00103">
        <ele>735</ele>
        <time>2019-12-07T11:52:00Z</time>
      </trkpt>
      <trkpt lat="43.89137" lon="7.00095">
        <ele>735</ele>
        <time>2019-12-07T11:52:03Z</time>
      </trkpt>
      <trkpt lat="43.89132" lon="7.00086">
        <ele>734</ele>
        <time>2019-12-07T11:52:06Z</time>
      </trkpt>
      <trkpt lat="43.89134" lon="7.00078">
        <ele>733.4000244</ele>
        <time>2019-12-07T11:52:08Z</time>
      </trkpt>
      <trkpt lat="43.89138" lon="7.00071">
        <ele>732.8000488</ele>
        <time>2019-12-07T11:52:10Z</time>
      </trkpt>
      <trkpt lat="43.89143" lon="7.00059">
        <ele>732.1999512</ele>
        <time>2019-12-07T11:52:14Z</time>
      </trkpt>
      <trkpt lat="43.89147" lon="7.00044">
        <ele>732.1999512</ele>
        <time>2019-12-07T11:52:20Z</time>
      </trkpt>
      <trkpt lat="43.89151" lon="7.00032">
        <ele>733.4000244</ele>
        <time>2019-12-07T11:52:27Z</time>
      </trkpt>
      <trkpt lat="43.89153" lon="7.00026">
        <ele>734</ele>
        <time>2019-12-07T11:52:31Z</time>
      </trkpt>
      <trkpt lat="43.89154" lon="7.00023">
        <ele>734.8000488</ele>
        <time>2019-12-07T11:52:33Z</time>
      </trkpt>
      <trkpt lat="43.89155" lon="7.00022">
        <ele>735</ele>
        <time>2019-12-07T11:52:34Z</time>
      </trkpt>
      <trkpt lat="43.89158" lon="7.00015">
        <ele>736</ele>
        <time>2019-12-07T11:52:39Z</time>
      </trkpt>
      <trkpt lat="43.89159" lon="7.00014">
        <ele>736.1999512</ele>
        <time>2019-12-07T11:52:40Z</time>
      </trkpt>
      <trkpt lat="43.89164" lon="7.00008">
        <ele>737</ele>
        <time>2019-12-07T11:52:46Z</time>
      </trkpt>
      <trkpt lat="43.89165" lon="7.00007">
        <ele>737.4000244</ele>
        <time>2019-12-07T11:52:47Z</time>
      </trkpt>
      <trkpt lat="43.89171" lon="7">
        <ele>737.8000488</ele>
        <time>2019-12-07T11:52:51Z</time>
      </trkpt>
      <trkpt lat="43.89175" lon="6.99996">
        <ele>738.4000244</ele>
        <time>2019-12-07T11:52:53Z</time>
      </trkpt>
      <trkpt lat="43.89176" lon="6.99995">
        <ele>738.5999756</ele>
        <time>2019-12-07T11:52:54Z</time>
      </trkpt>
      <trkpt lat="43.89184" lon="6.99986">
        <ele>739.1999512</ele>
        <time>2019-12-07T11:53:00Z</time>
      </trkpt>
      <trkpt lat="43.89187" lon="6.99984">
        <ele>739.8000488</ele>
        <time>2019-12-07T11:53:03Z</time>
      </trkpt>
      <trkpt lat="43.8919" lon="6.99983">
        <ele>740.8000488</ele>
        <time>2019-12-07T11:53:06Z</time>
      </trkpt>
      <trkpt lat="43.89191" lon="6.99983">
        <ele>741.1999512</ele>
        <time>2019-12-07T11:53:07Z</time>
      </trkpt>
      <trkpt lat="43.89196" lon="6.99977">
        <ele>741.8000488</ele>
        <time>2019-12-07T11:53:10Z</time>
      </trkpt>
      <trkpt lat="43.892" lon="6.99973">
        <ele>742.1999512</ele>
        <time>2019-12-07T11:53:13Z</time>
      </trkpt>
      <trkpt lat="43.89206" lon="6.99966">
        <ele>743</ele>
        <time>2019-12-07T11:53:18Z</time>
      </trkpt>
      <trkpt lat="43.8921" lon="6.9996">
        <ele>743.8000488</ele>
        <time>2019-12-07T11:53:21Z</time>
      </trkpt>
      <trkpt lat="43.89212" lon="6.99957">
        <ele>744</ele>
        <time>2019-12-07T11:53:23Z</time>
      </trkpt>
      <trkpt lat="43.89215" lon="6.9995">
        <ele>745</ele>
        <time>2019-12-07T11:53:27Z</time>
      </trkpt>
      <trkpt lat="43.89216" lon="6.99945">
        <ele>745.4000244</ele>
        <time>2019-12-07T11:53:30Z</time>
      </trkpt>
      <trkpt lat="43.89214" lon="6.99939">
        <ele>746.1999512</ele>
        <time>2019-12-07T11:53:33Z</time>
      </trkpt>
      <trkpt lat="43.89214" lon="6.99936">
        <ele>746.5999756</ele>
        <time>2019-12-07T11:53:35Z</time>
      </trkpt>
      <trkpt lat="43.89214" lon="6.99932">
        <ele>747.5999756</ele>
        <time>2019-12-07T11:53:37Z</time>
      </trkpt>
      <trkpt lat="43.89215" lon="6.99928">
        <ele>748.4000244</ele>
        <time>2019-12-07T11:53:39Z</time>
      </trkpt>
      <trkpt lat="43.89215" lon="6.99926">
        <ele>748.8000488</ele>
        <time>2019-12-07T11:53:40Z</time>
      </trkpt>
      <trkpt lat="43.89219" lon="6.99916">
        <ele>749.5999756</ele>
        <time>2019-12-07T11:53:46Z</time>
      </trkpt>
      <trkpt lat="43.8922" lon="6.99915">
        <ele>749.4000244</ele>
        <time>2019-12-07T11:53:47Z</time>
      </trkpt>
      <trkpt lat="43.89221" lon="6.99913">
        <ele>749.5999756</ele>
        <time>2019-12-07T11:53:49Z</time>
      </trkpt>
      <trkpt lat="43.89223" lon="6.9991">
        <ele>749.8000488</ele>
        <time>2019-12-07T11:53:51Z</time>
      </trkpt>
      <trkpt lat="43.89226" lon="6.99907">
        <ele>749.8000488</ele>
        <time>2019-12-07T11:53:54Z</time>
      </trkpt>
      <trkpt lat="43.89235" lon="6.99898">
        <ele>750.8000488</ele>
        <time>2019-12-07T11:54:02Z</time>
      </trkpt>
      <trkpt lat="43.89237" lon="6.99896">
        <ele>750.8000488</ele>
        <time>2019-12-07T11:54:03Z</time>
      </trkpt>
      <trkpt lat="43.89242" lon="6.99885">
        <ele>750.1999512</ele>
        <time>2019-12-07T11:54:07Z</time>
      </trkpt>
      <trkpt lat="43.89243" lon="6.99884">
        <ele>750</ele>
        <time>2019-12-07T11:54:08Z</time>
      </trkpt>
      <trkpt lat="43.89244" lon="6.99882">
        <ele>749.5999756</ele>
        <time>2019-12-07T11:54:10Z</time>
      </trkpt>
      <trkpt lat="43.89245" lon="6.99881">
        <ele>749.4000244</ele>
        <time>2019-12-07T11:54:11Z</time>
      </trkpt>
      <trkpt lat="43.89245" lon="6.99881">
        <ele>749.1999512</ele>
        <time>2019-12-07T11:54:17Z</time>
      </trkpt>
      <trkpt lat="43.89245" lon="6.99881">
        <ele>749.1999512</ele>
        <time>2019-12-07T11:54:32Z</time>
      </trkpt>
      <trkpt lat="43.89245" lon="6.99881">
        <ele>749.1999512</ele>
        <time>2019-12-07T11:54:48Z</time>
      </trkpt>
      <trkpt lat="43.89245" lon="6.99881">
        <ele>749.1999512</ele>
        <time>2019-12-07T11:55:01Z</time>
      </trkpt>
      <trkpt lat="43.89245" lon="6.99881">
        <ele>748.4000244</ele>
        <time>2019-12-07T11:55:03Z</time>
      </trkpt>
      <trkpt lat="43.89245" lon="6.99881">
        <ele>748.4000244</ele>
        <time>2019-12-07T11:55:11Z</time>
      </trkpt>
      <trkpt lat="43.89244" lon="6.99878">
        <ele>747.5999756</ele>
        <time>2019-12-07T11:55:16Z</time>
      </trkpt>
      <trkpt lat="43.89244" lon="6.99877">
        <ele>748.1999512</ele>
        <time>2019-12-07T11:55:21Z</time>
      </trkpt>
      <trkpt lat="43.89242" lon="6.99873">
        <ele>748.1999512</ele>
        <time>2019-12-07T11:55:24Z</time>
      </trkpt>
      <trkpt lat="43.8924" lon="6.9987">
        <ele>747.8000488</ele>
        <time>2019-12-07T11:55:26Z</time>
      </trkpt>
      <trkpt lat="43.89238" lon="6.99855">
        <ele>748.1999512</ele>
        <time>2019-12-07T11:55:33Z</time>
      </trkpt>
      <trkpt lat="43.89238" lon="6.99848">
        <ele>749</ele>
        <time>2019-12-07T11:55:36Z</time>
      </trkpt>
      <trkpt lat="43.89238" lon="6.9984">
        <ele>749.4000244</ele>
        <time>2019-12-07T11:55:39Z</time>
      </trkpt>
      <trkpt lat="43.89237" lon="6.99838">
        <ele>749.5999756</ele>
        <time>2019-12-07T11:55:40Z</time>
      </trkpt>
      <trkpt lat="43.89237" lon="6.99832">
        <ele>750.8000488</ele>
        <time>2019-12-07T11:55:42Z</time>
      </trkpt>
      <trkpt lat="43.89235" lon="6.99826">
        <ele>751.8000488</ele>
        <time>2019-12-07T11:55:45Z</time>
      </trkpt>
      <trkpt lat="43.89233" lon="6.99807">
        <ele>751.8000488</ele>
        <time>2019-12-07T11:55:51Z</time>
      </trkpt>
      <trkpt lat="43.89236" lon="6.99774">
        <ele>751.5999756</ele>
        <time>2019-12-07T11:55:56Z</time>
      </trkpt>
      <trkpt lat="43.89242" lon="6.99745">
        <ele>750.8000488</ele>
        <time>2019-12-07T11:56:00Z</time>
      </trkpt>
      <trkpt lat="43.89243" lon="6.99738">
        <ele>750.4000244</ele>
        <time>2019-12-07T11:56:01Z</time>
      </trkpt>
      <trkpt lat="43.89242" lon="6.99729">
        <ele>749.4000244</ele>
        <time>2019-12-07T11:56:04Z</time>
      </trkpt>
      <trkpt lat="43.89236" lon="6.99719">
        <ele>748.4000244</ele>
        <time>2019-12-07T11:56:09Z</time>
      </trkpt>
      <trkpt lat="43.89235" lon="6.99718">
        <ele>748</ele>
        <time>2019-12-07T11:56:10Z</time>
      </trkpt>
      <trkpt lat="43.89227" lon="6.99716">
        <ele>747.8000488</ele>
        <time>2019-12-07T11:56:14Z</time>
      </trkpt>
      <trkpt lat="43.89211" lon="6.99718">
        <ele>749</ele>
        <time>2019-12-07T11:56:21Z</time>
      </trkpt>
      <trkpt lat="43.89209" lon="6.99718">
        <ele>749.1999512</ele>
        <time>2019-12-07T11:56:22Z</time>
      </trkpt>
      <trkpt lat="43.892" lon="6.99717">
        <ele>750.4000244</ele>
        <time>2019-12-07T11:56:26Z</time>
      </trkpt>
      <trkpt lat="43.89194" lon="6.99715">
        <ele>750.5999756</ele>
        <time>2019-12-07T11:56:29Z</time>
      </trkpt>
      <trkpt lat="43.89183" lon="6.99713">
        <ele>751.4000244</ele>
        <time>2019-12-07T11:56:34Z</time>
      </trkpt>
      <trkpt lat="43.89181" lon="6.99712">
        <ele>751.5999756</ele>
        <time>2019-12-07T11:56:35Z</time>
      </trkpt>
      <trkpt lat="43.89176" lon="6.99699">
        <ele>752.4000244</ele>
        <time>2019-12-07T11:56:40Z</time>
      </trkpt>
      <trkpt lat="43.89169" lon="6.99679">
        <ele>752.4000244</ele>
        <time>2019-12-07T11:56:47Z</time>
      </trkpt>
      <trkpt lat="43.89162" lon="6.99666">
        <ele>752.4000244</ele>
        <time>2019-12-07T11:56:53Z</time>
      </trkpt>
      <trkpt lat="43.89157" lon="6.99655">
        <ele>751.8000488</ele>
        <time>2019-12-07T11:56:59Z</time>
      </trkpt>
      <trkpt lat="43.89155" lon="6.9965">
        <ele>752</ele>
        <time>2019-12-07T11:57:02Z</time>
      </trkpt>
      <trkpt lat="43.89153" lon="6.99642">
        <ele>753</ele>
        <time>2019-12-07T11:57:06Z</time>
      </trkpt>
      <trkpt lat="43.89153" lon="6.99634">
        <ele>753.5999756</ele>
        <time>2019-12-07T11:57:09Z</time>
      </trkpt>
      <trkpt lat="43.89151" lon="6.99623">
        <ele>754.5999756</ele>
        <time>2019-12-07T11:57:14Z</time>
      </trkpt>
      <trkpt lat="43.89151" lon="6.99621">
        <ele>754.8000488</ele>
        <time>2019-12-07T11:57:15Z</time>
      </trkpt>
      <trkpt lat="43.89148" lon="6.99616">
        <ele>755.1999512</ele>
        <time>2019-12-07T11:57:18Z</time>
      </trkpt>
      <trkpt lat="43.89146" lon="6.9961">
        <ele>755.4000244</ele>
        <time>2019-12-07T11:57:21Z</time>
      </trkpt>
      <trkpt lat="43.89144" lon="6.99603">
        <ele>756</ele>
        <time>2019-12-07T11:57:25Z</time>
      </trkpt>
      <trkpt lat="43.89143" lon="6.99599">
        <ele>756.5999756</ele>
        <time>2019-12-07T11:57:27Z</time>
      </trkpt>
      <trkpt lat="43.89142" lon="6.99595">
        <ele>756.8000488</ele>
        <time>2019-12-07T11:57:29Z</time>
      </trkpt>
      <trkpt lat="43.89142" lon="6.99593">
        <ele>757</ele>
        <time>2019-12-07T11:57:30Z</time>
      </trkpt>
      <trkpt lat="43.89142" lon="6.99588">
        <ele>758</ele>
        <time>2019-12-07T11:57:33Z</time>
      </trkpt>
      <trkpt lat="43.89142" lon="6.99586">
        <ele>758.1999512</ele>
        <time>2019-12-07T11:57:34Z</time>
      </trkpt>
      <trkpt lat="43.89139" lon="6.99581">
        <ele>759.4000244</ele>
        <time>2019-12-07T11:57:37Z</time>
      </trkpt>
      <trkpt lat="43.89137" lon="6.99572">
        <ele>760.5999756</ele>
        <time>2019-12-07T11:57:42Z</time>
      </trkpt>
      <trkpt lat="43.89135" lon="6.99565">
        <ele>761.8000488</ele>
        <time>2019-12-07T11:57:46Z</time>
      </trkpt>
      <trkpt lat="43.89132" lon="6.99558">
        <ele>762.1999512</ele>
        <time>2019-12-07T11:57:50Z</time>
      </trkpt>
      <trkpt lat="43.8913" lon="6.9955">
        <ele>762.8000488</ele>
        <time>2019-12-07T11:57:54Z</time>
      </trkpt>
      <trkpt lat="43.89129" lon="6.99543">
        <ele>764</ele>
        <time>2019-12-07T11:57:58Z</time>
      </trkpt>
      <trkpt lat="43.89129" lon="6.99541">
        <ele>764.1999512</ele>
        <time>2019-12-07T11:57:59Z</time>
      </trkpt>
      <trkpt lat="43.89129" lon="6.99528">
        <ele>765</ele>
        <time>2019-12-07T11:58:06Z</time>
      </trkpt>
      <trkpt lat="43.8913" lon="6.99526">
        <ele>765.4000244</ele>
        <time>2019-12-07T11:58:07Z</time>
      </trkpt>
      <trkpt lat="43.89135" lon="6.99514">
        <ele>766</ele>
        <time>2019-12-07T11:58:13Z</time>
      </trkpt>
      <trkpt lat="43.89139" lon="6.99501">
        <ele>766.1999512</ele>
        <time>2019-12-07T11:58:19Z</time>
      </trkpt>
      <trkpt lat="43.8914" lon="6.99482">
        <ele>765.4000244</ele>
        <time>2019-12-07T11:58:25Z</time>
      </trkpt>
      <trkpt lat="43.89137" lon="6.9948">
        <ele>765.4000244</ele>
        <time>2019-12-07T11:58:26Z</time>
      </trkpt>
      <trkpt lat="43.8913" lon="6.99478">
        <ele>766</ele>
        <time>2019-12-07T11:58:29Z</time>
      </trkpt>
      <trkpt lat="43.89125" lon="6.99477">
        <ele>766.4000244</ele>
        <time>2019-12-07T11:58:31Z</time>
      </trkpt>
      <trkpt lat="43.8912" lon="6.99477">
        <ele>766.4000244</ele>
        <time>2019-12-07T11:58:33Z</time>
      </trkpt>
      <trkpt lat="43.89115" lon="6.99476">
        <ele>766.1999512</ele>
        <time>2019-12-07T11:58:35Z</time>
      </trkpt>
      <trkpt lat="43.89092" lon="6.99476">
        <ele>766.8000488</ele>
        <time>2019-12-07T11:58:41Z</time>
      </trkpt>
      <trkpt lat="43.89082" lon="6.99478">
        <ele>765.8000488</ele>
        <time>2019-12-07T11:58:45Z</time>
      </trkpt>
      <trkpt lat="43.89082" lon="6.99479">
        <ele>765.1999512</ele>
        <time>2019-12-07T11:58:47Z</time>
      </trkpt>
      <trkpt lat="43.89082" lon="6.99479">
        <ele>765.1999512</ele>
        <time>2019-12-07T11:58:50Z</time>
      </trkpt>
      <trkpt lat="43.89081" lon="6.99478">
        <ele>765.1999512</ele>
        <time>2019-12-07T11:59:04Z</time>
      </trkpt>
      <trkpt lat="43.89079" lon="6.99478">
        <ele>765.1999512</ele>
        <time>2019-12-07T11:59:05Z</time>
      </trkpt>
      <trkpt lat="43.8907" lon="6.99472">
        <ele>764.5999756</ele>
        <time>2019-12-07T11:59:08Z</time>
      </trkpt>
      <trkpt lat="43.89068" lon="6.99469">
        <ele>764.5999756</ele>
        <time>2019-12-07T11:59:09Z</time>
      </trkpt>
      <trkpt lat="43.89059" lon="6.99449">
        <ele>767</ele>
        <time>2019-12-07T11:59:14Z</time>
      </trkpt>
      <trkpt lat="43.89056" lon="6.99444">
        <ele>768.8000488</ele>
        <time>2019-12-07T11:59:16Z</time>
      </trkpt>
      <trkpt lat="43.89054" lon="6.99439">
        <ele>770</ele>
        <time>2019-12-07T11:59:18Z</time>
      </trkpt>
      <trkpt lat="43.89052" lon="6.99434">
        <ele>771.4000244</ele>
        <time>2019-12-07T11:59:20Z</time>
      </trkpt>
      <trkpt lat="43.8905" lon="6.99428">
        <ele>772.8000488</ele>
        <time>2019-12-07T11:59:22Z</time>
      </trkpt>
      <trkpt lat="43.89048" lon="6.99421">
        <ele>774.1999512</ele>
        <time>2019-12-07T11:59:24Z</time>
      </trkpt>
      <trkpt lat="43.89045" lon="6.99415">
        <ele>775.5999756</ele>
        <time>2019-12-07T11:59:26Z</time>
      </trkpt>
      <trkpt lat="43.89038" lon="6.99403">
        <ele>776.8000488</ele>
        <time>2019-12-07T11:59:30Z</time>
      </trkpt>
      <trkpt lat="43.89034" lon="6.99398">
        <ele>777</ele>
        <time>2019-12-07T11:59:32Z</time>
      </trkpt>
      <trkpt lat="43.89026" lon="6.99379">
        <ele>776.5999756</ele>
        <time>2019-12-07T11:59:38Z</time>
      </trkpt>
      <trkpt lat="43.89025" lon="6.99372">
        <ele>775.5999756</ele>
        <time>2019-12-07T11:59:40Z</time>
      </trkpt>
      <trkpt lat="43.89025" lon="6.99363">
        <ele>775.1999512</ele>
        <time>2019-12-07T11:59:43Z</time>
      </trkpt>
      <trkpt lat="43.89027" lon="6.99342">
        <ele>775.4000244</ele>
        <time>2019-12-07T11:59:49Z</time>
      </trkpt>
      <trkpt lat="43.89033" lon="6.99317">
        <ele>775.5999756</ele>
        <time>2019-12-07T11:59:55Z</time>
      </trkpt>
      <trkpt lat="43.89041" lon="6.99297">
        <ele>776.4000244</ele>
        <time>2019-12-07T12:00:01Z</time>
      </trkpt>
      <trkpt lat="43.89045" lon="6.99283">
        <ele>776.5999756</ele>
        <time>2019-12-07T12:00:05Z</time>
      </trkpt>
      <trkpt lat="43.89047" lon="6.99276">
        <ele>776.8000488</ele>
        <time>2019-12-07T12:00:07Z</time>
      </trkpt>
      <trkpt lat="43.89052" lon="6.99264">
        <ele>777.8000488</ele>
        <time>2019-12-07T12:00:12Z</time>
      </trkpt>
      <trkpt lat="43.89053" lon="6.99261">
        <ele>777.8000488</ele>
        <time>2019-12-07T12:00:13Z</time>
      </trkpt>
      <trkpt lat="43.89055" lon="6.99247">
        <ele>778.1999512</ele>
        <time>2019-12-07T12:00:20Z</time>
      </trkpt>
      <trkpt lat="43.89056" lon="6.99245">
        <ele>778.4000244</ele>
        <time>2019-12-07T12:00:21Z</time>
      </trkpt>
      <trkpt lat="43.89057" lon="6.99242">
        <ele>778.8000488</ele>
        <time>2019-12-07T12:00:23Z</time>
      </trkpt>
      <trkpt lat="43.89059" lon="6.99237">
        <ele>779.1999512</ele>
        <time>2019-12-07T12:00:25Z</time>
      </trkpt>
      <trkpt lat="43.89059" lon="6.99234">
        <ele>779.4000244</ele>
        <time>2019-12-07T12:00:26Z</time>
      </trkpt>
      <trkpt lat="43.89059" lon="6.99226">
        <ele>780</ele>
        <time>2019-12-07T12:00:29Z</time>
      </trkpt>
      <trkpt lat="43.89058" lon="6.99224">
        <ele>779.8000488</ele>
        <time>2019-12-07T12:00:30Z</time>
      </trkpt>
      <trkpt lat="43.89056" lon="6.99223">
        <ele>780</ele>
        <time>2019-12-07T12:00:31Z</time>
      </trkpt>
      <trkpt lat="43.8905" lon="6.99218">
        <ele>780.4000244</ele>
        <time>2019-12-07T12:00:35Z</time>
      </trkpt>
      <trkpt lat="43.89048" lon="6.99215">
        <ele>780.4000244</ele>
        <time>2019-12-07T12:00:37Z</time>
      </trkpt>
      <trkpt lat="43.89043" lon="6.99198">
        <ele>780</ele>
        <time>2019-12-07T12:00:44Z</time>
      </trkpt>
      <trkpt lat="43.89039" lon="6.99179">
        <ele>779.4000244</ele>
        <time>2019-12-07T12:00:51Z</time>
      </trkpt>
      <trkpt lat="43.89036" lon="6.9916">
        <ele>778.8000488</ele>
        <time>2019-12-07T12:00:58Z</time>
      </trkpt>
      <trkpt lat="43.89035" lon="6.99158">
        <ele>778.8000488</ele>
        <time>2019-12-07T12:00:59Z</time>
      </trkpt>
      <trkpt lat="43.89033" lon="6.99147">
        <ele>778.1999512</ele>
        <time>2019-12-07T12:01:05Z</time>
      </trkpt>
      <trkpt lat="43.89033" lon="6.99141">
        <ele>777.4000244</ele>
        <time>2019-12-07T12:01:07Z</time>
      </trkpt>
      <trkpt lat="43.89034" lon="6.99136">
        <ele>776.8000488</ele>
        <time>2019-12-07T12:01:09Z</time>
      </trkpt>
      <trkpt lat="43.89034" lon="6.99121">
        <ele>776.8000488</ele>
        <time>2019-12-07T12:01:15Z</time>
      </trkpt>
      <trkpt lat="43.89034" lon="6.99102">
        <ele>777.5999756</ele>
        <time>2019-12-07T12:01:23Z</time>
      </trkpt>
      <trkpt lat="43.89034" lon="6.99092">
        <ele>778.4000244</ele>
        <time>2019-12-07T12:01:28Z</time>
      </trkpt>
      <trkpt lat="43.89034" lon="6.9909">
        <ele>778.8000488</ele>
        <time>2019-12-07T12:01:29Z</time>
      </trkpt>
      <trkpt lat="43.89034" lon="6.99077">
        <ele>779.5999756</ele>
        <time>2019-12-07T12:01:36Z</time>
      </trkpt>
      <trkpt lat="43.89034" lon="6.99075">
        <ele>779.8000488</ele>
        <time>2019-12-07T12:01:37Z</time>
      </trkpt>
      <trkpt lat="43.89032" lon="6.99062">
        <ele>780.1999512</ele>
        <time>2019-12-07T12:01:43Z</time>
      </trkpt>
      <trkpt lat="43.89025" lon="6.99061">
        <ele>780.1999512</ele>
        <time>2019-12-07T12:01:48Z</time>
      </trkpt>
      <trkpt lat="43.8902" lon="6.99063">
        <ele>781</ele>
        <time>2019-12-07T12:01:52Z</time>
      </trkpt>
      <trkpt lat="43.89018" lon="6.99066">
        <ele>781.5999756</ele>
        <time>2019-12-07T12:01:54Z</time>
      </trkpt>
      <trkpt lat="43.89017" lon="6.99068">
        <ele>782</ele>
        <time>2019-12-07T12:01:55Z</time>
      </trkpt>
      <trkpt lat="43.89014" lon="6.99071">
        <ele>783.5999756</ele>
        <time>2019-12-07T12:01:58Z</time>
      </trkpt>
      <trkpt lat="43.8901" lon="6.99074">
        <ele>784.8000488</ele>
        <time>2019-12-07T12:02:01Z</time>
      </trkpt>
      <trkpt lat="43.89008" lon="6.99074">
        <ele>785</ele>
        <time>2019-12-07T12:02:02Z</time>
      </trkpt>
      <trkpt lat="43.89005" lon="6.99075">
        <ele>785.8000488</ele>
        <time>2019-12-07T12:02:04Z</time>
      </trkpt>
      <trkpt lat="43.89" lon="6.99076">
        <ele>787</ele>
        <time>2019-12-07T12:02:07Z</time>
      </trkpt>
      <trkpt lat="43.88996" lon="6.99076">
        <ele>787.4000244</ele>
        <time>2019-12-07T12:02:10Z</time>
      </trkpt>
      <trkpt lat="43.88986" lon="6.99076">
        <ele>788.1999512</ele>
        <time>2019-12-07T12:02:16Z</time>
      </trkpt>
      <trkpt lat="43.88979" lon="6.99073">
        <ele>788.4000244</ele>
        <time>2019-12-07T12:02:24Z</time>
      </trkpt>
      <trkpt lat="43.88977" lon="6.99068">
        <ele>789</ele>
        <time>2019-12-07T12:02:31Z</time>
      </trkpt>
      <trkpt lat="43.88976" lon="6.99066">
        <ele>789.1999512</ele>
        <time>2019-12-07T12:02:32Z</time>
      </trkpt>
      <trkpt lat="43.88973" lon="6.99062">
        <ele>790.4000244</ele>
        <time>2019-12-07T12:02:37Z</time>
      </trkpt>
      <trkpt lat="43.88972" lon="6.99061">
        <ele>790.5999756</ele>
        <time>2019-12-07T12:02:38Z</time>
      </trkpt>
      <trkpt lat="43.8897" lon="6.99058">
        <ele>791.4000244</ele>
        <time>2019-12-07T12:02:40Z</time>
      </trkpt>
      <trkpt lat="43.88967" lon="6.99054">
        <ele>792.5999756</ele>
        <time>2019-12-07T12:02:45Z</time>
      </trkpt>
      <trkpt lat="43.88967" lon="6.99054">
        <ele>792.5999756</ele>
        <time>2019-12-07T12:02:46Z</time>
      </trkpt>
      <trkpt lat="43.88963" lon="6.99051">
        <ele>793</ele>
        <time>2019-12-07T12:02:57Z</time>
      </trkpt>
      <trkpt lat="43.88954" lon="6.99044">
        <ele>793.4000244</ele>
        <time>2019-12-07T12:03:04Z</time>
      </trkpt>
      <trkpt lat="43.88954" lon="6.99043">
        <ele>793.5999756</ele>
        <time>2019-12-07T12:03:05Z</time>
      </trkpt>
      <trkpt lat="43.88953" lon="6.99041">
        <ele>793.8000488</ele>
        <time>2019-12-07T12:03:06Z</time>
      </trkpt>
      <trkpt lat="43.88954" lon="6.99035">
        <ele>793</ele>
        <time>2019-12-07T12:03:09Z</time>
      </trkpt>
      <trkpt lat="43.88954" lon="6.99034">
        <ele>792.5999756</ele>
        <time>2019-12-07T12:03:10Z</time>
      </trkpt>
      <trkpt lat="43.88956" lon="6.99033">
        <ele>791.8000488</ele>
        <time>2019-12-07T12:03:14Z</time>
      </trkpt>
      <trkpt lat="43.88959" lon="6.99037">
        <ele>792.5999756</ele>
        <time>2019-12-07T12:03:21Z</time>
      </trkpt>
      <trkpt lat="43.88968" lon="6.99042">
        <ele>793</ele>
        <time>2019-12-07T12:03:29Z</time>
      </trkpt>
      <trkpt lat="43.88974" lon="6.99043">
        <ele>793.5999756</ele>
        <time>2019-12-07T12:03:33Z</time>
      </trkpt>
      <trkpt lat="43.8898" lon="6.99045">
        <ele>793.5999756</ele>
        <time>2019-12-07T12:03:37Z</time>
      </trkpt>
      <trkpt lat="43.88989" lon="6.99048">
        <ele>793.1999512</ele>
        <time>2019-12-07T12:03:44Z</time>
      </trkpt>
      <trkpt lat="43.8899" lon="6.99047">
        <ele>793.1999512</ele>
        <time>2019-12-07T12:03:45Z</time>
      </trkpt>
      <trkpt lat="43.88994" lon="6.99037">
        <ele>793</ele>
        <time>2019-12-07T12:03:50Z</time>
      </trkpt>
      <trkpt lat="43.88989" lon="6.99029">
        <ele>794.4000244</ele>
        <time>2019-12-07T12:03:55Z</time>
      </trkpt>
      <trkpt lat="43.88988" lon="6.99029">
        <ele>794.8000488</ele>
        <time>2019-12-07T12:03:56Z</time>
      </trkpt>
      <trkpt lat="43.88987" lon="6.99027">
        <ele>795.1999512</ele>
        <time>2019-12-07T12:03:57Z</time>
      </trkpt>
      <trkpt lat="43.88981" lon="6.99023">
        <ele>796</ele>
        <time>2019-12-07T12:04:02Z</time>
      </trkpt>
      <trkpt lat="43.88974" lon="6.99016">
        <ele>796.8000488</ele>
        <time>2019-12-07T12:04:10Z</time>
      </trkpt>
      <trkpt lat="43.88965" lon="6.99009">
        <ele>796.4000244</ele>
        <time>2019-12-07T12:04:17Z</time>
      </trkpt>
      <trkpt lat="43.88957" lon="6.99002">
        <ele>797.1999512</ele>
        <time>2019-12-07T12:04:22Z</time>
      </trkpt>
      <trkpt lat="43.88956" lon="6.98998">
        <ele>797.8000488</ele>
        <time>2019-12-07T12:04:24Z</time>
      </trkpt>
      <trkpt lat="43.88957" lon="6.98997">
        <ele>798.4000244</ele>
        <time>2019-12-07T12:04:25Z</time>
      </trkpt>
      <trkpt lat="43.8896" lon="6.98996">
        <ele>798.4000244</ele>
        <time>2019-12-07T12:04:28Z</time>
      </trkpt>
      <trkpt lat="43.88962" lon="6.98996">
        <ele>798.4000244</ele>
        <time>2019-12-07T12:04:29Z</time>
      </trkpt>
      <trkpt lat="43.88967" lon="6.99">
        <ele>799.5999756</ele>
        <time>2019-12-07T12:04:34Z</time>
      </trkpt>
      <trkpt lat="43.88967" lon="6.99002">
        <ele>799.8000488</ele>
        <time>2019-12-07T12:04:35Z</time>
      </trkpt>
      <trkpt lat="43.88971" lon="6.9901">
        <ele>801</ele>
        <time>2019-12-07T12:04:41Z</time>
      </trkpt>
      <trkpt lat="43.88975" lon="6.99013">
        <ele>802.1999512</ele>
        <time>2019-12-07T12:04:45Z</time>
      </trkpt>
      <trkpt lat="43.88977" lon="6.99014">
        <ele>802.5999756</ele>
        <time>2019-12-07T12:04:47Z</time>
      </trkpt>
      <trkpt lat="43.88988" lon="6.99015">
        <ele>803.1999512</ele>
        <time>2019-12-07T12:04:55Z</time>
      </trkpt>
      <trkpt lat="43.88989" lon="6.99015">
        <ele>803.4000244</ele>
        <time>2019-12-07T12:04:56Z</time>
      </trkpt>
      <trkpt lat="43.89002" lon="6.99012">
        <ele>803.5999756</ele>
        <time>2019-12-07T12:05:03Z</time>
      </trkpt>
      <trkpt lat="43.89009" lon="6.99008">
        <ele>804.5999756</ele>
        <time>2019-12-07T12:05:08Z</time>
      </trkpt>
      <trkpt lat="43.8901" lon="6.99004">
        <ele>804.5999756</ele>
        <time>2019-12-07T12:05:10Z</time>
      </trkpt>
      <trkpt lat="43.89009" lon="6.99">
        <ele>804.4000244</ele>
        <time>2019-12-07T12:05:12Z</time>
      </trkpt>
      <trkpt lat="43.89004" lon="6.98998">
        <ele>804.5999756</ele>
        <time>2019-12-07T12:05:15Z</time>
      </trkpt>
      <trkpt lat="43.88999" lon="6.98996">
        <ele>805.5999756</ele>
        <time>2019-12-07T12:05:19Z</time>
      </trkpt>
      <trkpt lat="43.88996" lon="6.98995">
        <ele>806</ele>
        <time>2019-12-07T12:05:22Z</time>
      </trkpt>
      <trkpt lat="43.88989" lon="6.98992">
        <ele>806.8000488</ele>
        <time>2019-12-07T12:05:28Z</time>
      </trkpt>
      <trkpt lat="43.88983" lon="6.98987">
        <ele>807.1999512</ele>
        <time>2019-12-07T12:05:33Z</time>
      </trkpt>
      <trkpt lat="43.88981" lon="6.98985">
        <ele>808</ele>
        <time>2019-12-07T12:05:35Z</time>
      </trkpt>
      <trkpt lat="43.8898" lon="6.98981">
        <ele>808.1999512</ele>
        <time>2019-12-07T12:05:38Z</time>
      </trkpt>
      <trkpt lat="43.88981" lon="6.9898">
        <ele>808.1999512</ele>
        <time>2019-12-07T12:05:39Z</time>
      </trkpt>
      <trkpt lat="43.88981" lon="6.9898">
        <ele>808.1999512</ele>
        <time>2019-12-07T12:05:40Z</time>
      </trkpt>
      <trkpt lat="43.88985" lon="6.9898">
        <ele>808.4000244</ele>
        <time>2019-12-07T12:05:43Z</time>
      </trkpt>
      <trkpt lat="43.88988" lon="6.98982">
        <ele>808.5999756</ele>
        <time>2019-12-07T12:05:45Z</time>
      </trkpt>
      <trkpt lat="43.8899" lon="6.98983">
        <ele>809</ele>
        <time>2019-12-07T12:05:47Z</time>
      </trkpt>
      <trkpt lat="43.88998" lon="6.9899">
        <ele>809.5999756</ele>
        <time>2019-12-07T12:05:55Z</time>
      </trkpt>
      <trkpt lat="43.89001" lon="6.98991">
        <ele>810.4000244</ele>
        <time>2019-12-07T12:05:57Z</time>
      </trkpt>
      <trkpt lat="43.8901" lon="6.9899">
        <ele>810.8000488</ele>
        <time>2019-12-07T12:06:04Z</time>
      </trkpt>
      <trkpt lat="43.89019" lon="6.98986">
        <ele>810.8000488</ele>
        <time>2019-12-07T12:06:11Z</time>
      </trkpt>
      <trkpt lat="43.89021" lon="6.98979">
        <ele>810.4000244</ele>
        <time>2019-12-07T12:06:15Z</time>
      </trkpt>
      <trkpt lat="43.89019" lon="6.98976">
        <ele>811</ele>
        <time>2019-12-07T12:06:17Z</time>
      </trkpt>
      <trkpt lat="43.89018" lon="6.98975">
        <ele>811.4000244</ele>
        <time>2019-12-07T12:06:18Z</time>
      </trkpt>
      <trkpt lat="43.89016" lon="6.98973">
        <ele>812.4000244</ele>
        <time>2019-12-07T12:06:20Z</time>
      </trkpt>
      <trkpt lat="43.89014" lon="6.98973">
        <ele>813.4000244</ele>
        <time>2019-12-07T12:06:22Z</time>
      </trkpt>
      <trkpt lat="43.8901" lon="6.98971">
        <ele>814.8000488</ele>
        <time>2019-12-07T12:06:25Z</time>
      </trkpt>
      <trkpt lat="43.89008" lon="6.98971">
        <ele>815.5999756</ele>
        <time>2019-12-07T12:06:27Z</time>
      </trkpt>
      <trkpt lat="43.89006" lon="6.98971">
        <ele>816</ele>
        <time>2019-12-07T12:06:28Z</time>
      </trkpt>
      <trkpt lat="43.88999" lon="6.98969">
        <ele>816.8000488</ele>
        <time>2019-12-07T12:06:34Z</time>
      </trkpt>
      <trkpt lat="43.88998" lon="6.98969">
        <ele>817.1999512</ele>
        <time>2019-12-07T12:06:35Z</time>
      </trkpt>
      <trkpt lat="43.88991" lon="6.98966">
        <ele>816.8000488</ele>
        <time>2019-12-07T12:06:41Z</time>
      </trkpt>
      <trkpt lat="43.88984" lon="6.9896">
        <ele>817.4000244</ele>
        <time>2019-12-07T12:06:49Z</time>
      </trkpt>
      <trkpt lat="43.88979" lon="6.98955">
        <ele>818.4000244</ele>
        <time>2019-12-07T12:06:54Z</time>
      </trkpt>
      <trkpt lat="43.88976" lon="6.98951">
        <ele>819</ele>
        <time>2019-12-07T12:06:57Z</time>
      </trkpt>
      <trkpt lat="43.88976" lon="6.9895">
        <ele>819.4000244</ele>
        <time>2019-12-07T12:06:58Z</time>
      </trkpt>
      <trkpt lat="43.88967" lon="6.98943">
        <ele>820</ele>
        <time>2019-12-07T12:07:05Z</time>
      </trkpt>
      <trkpt lat="43.88963" lon="6.98941">
        <ele>820.5999756</ele>
        <time>2019-12-07T12:07:09Z</time>
      </trkpt>
      <trkpt lat="43.88962" lon="6.98937">
        <ele>821.1999512</ele>
        <time>2019-12-07T12:07:12Z</time>
      </trkpt>
      <trkpt lat="43.88961" lon="6.98933">
        <ele>822</ele>
        <time>2019-12-07T12:07:15Z</time>
      </trkpt>
      <trkpt lat="43.8896" lon="6.9893">
        <ele>823.4000244</ele>
        <time>2019-12-07T12:07:18Z</time>
      </trkpt>
      <trkpt lat="43.88959" lon="6.98929">
        <ele>824</ele>
        <time>2019-12-07T12:07:19Z</time>
      </trkpt>
      <trkpt lat="43.88959" lon="6.98929">
        <ele>824.8000488</ele>
        <time>2019-12-07T12:07:20Z</time>
      </trkpt>
      <trkpt lat="43.88959" lon="6.98929">
        <ele>824.8000488</ele>
        <time>2019-12-07T12:07:26Z</time>
      </trkpt>
      <trkpt lat="43.88955" lon="6.98923">
        <ele>826</ele>
        <time>2019-12-07T12:07:31Z</time>
      </trkpt>
      <trkpt lat="43.88954" lon="6.98922">
        <ele>826</ele>
        <time>2019-12-07T12:07:32Z</time>
      </trkpt>
      <trkpt lat="43.88953" lon="6.98912">
        <ele>826.1999512</ele>
        <time>2019-12-07T12:07:38Z</time>
      </trkpt>
      <trkpt lat="43.88953" lon="6.98908">
        <ele>826.4000244</ele>
        <time>2019-12-07T12:07:40Z</time>
      </trkpt>
      <trkpt lat="43.88953" lon="6.98907">
        <ele>826.4000244</ele>
        <time>2019-12-07T12:07:44Z</time>
      </trkpt>
      <trkpt lat="43.88953" lon="6.98902">
        <ele>826.5999756</ele>
        <time>2019-12-07T12:07:51Z</time>
      </trkpt>
      <trkpt lat="43.88953" lon="6.98898">
        <ele>827</ele>
        <time>2019-12-07T12:07:53Z</time>
      </trkpt>
      <trkpt lat="43.88952" lon="6.98894">
        <ele>827.5999756</ele>
        <time>2019-12-07T12:07:55Z</time>
      </trkpt>
      <trkpt lat="43.88949" lon="6.9889">
        <ele>827.5999756</ele>
        <time>2019-12-07T12:07:57Z</time>
      </trkpt>
      <trkpt lat="43.88946" lon="6.98886">
        <ele>827.5999756</ele>
        <time>2019-12-07T12:08:00Z</time>
      </trkpt>
      <trkpt lat="43.88943" lon="6.98881">
        <ele>828</ele>
        <time>2019-12-07T12:08:03Z</time>
      </trkpt>
      <trkpt lat="43.88938" lon="6.98875">
        <ele>828.5999756</ele>
        <time>2019-12-07T12:08:07Z</time>
      </trkpt>
      <trkpt lat="43.88935" lon="6.98872">
        <ele>828.5999756</ele>
        <time>2019-12-07T12:08:09Z</time>
      </trkpt>
      <trkpt lat="43.88932" lon="6.98866">
        <ele>829.4000244</ele>
        <time>2019-12-07T12:08:13Z</time>
      </trkpt>
      <trkpt lat="43.88931" lon="6.98864">
        <ele>829.8000488</ele>
        <time>2019-12-07T12:08:14Z</time>
      </trkpt>
      <trkpt lat="43.88925" lon="6.98849">
        <ele>830.4000244</ele>
        <time>2019-12-07T12:08:22Z</time>
      </trkpt>
      <trkpt lat="43.88924" lon="6.98847">
        <ele>830.5999756</ele>
        <time>2019-12-07T12:08:23Z</time>
      </trkpt>
      <trkpt lat="43.88923" lon="6.98839">
        <ele>831.5999756</ele>
        <time>2019-12-07T12:08:27Z</time>
      </trkpt>
      <trkpt lat="43.88924" lon="6.98829">
        <ele>832</ele>
        <time>2019-12-07T12:08:31Z</time>
      </trkpt>
      <trkpt lat="43.88927" lon="6.98823">
        <ele>832.5999756</ele>
        <time>2019-12-07T12:08:34Z</time>
      </trkpt>
      <trkpt lat="43.88931" lon="6.98817">
        <ele>833.1999512</ele>
        <time>2019-12-07T12:08:37Z</time>
      </trkpt>
      <trkpt lat="43.88933" lon="6.98814">
        <ele>833.5999756</ele>
        <time>2019-12-07T12:08:39Z</time>
      </trkpt>
      <trkpt lat="43.88934" lon="6.98802">
        <ele>834.4000244</ele>
        <time>2019-12-07T12:08:44Z</time>
      </trkpt>
      <trkpt lat="43.88928" lon="6.98795">
        <ele>834</ele>
        <time>2019-12-07T12:08:49Z</time>
      </trkpt>
      <trkpt lat="43.88913" lon="6.98792">
        <ele>834.1999512</ele>
        <time>2019-12-07T12:08:57Z</time>
      </trkpt>
      <trkpt lat="43.8891" lon="6.98789">
        <ele>834.8000488</ele>
        <time>2019-12-07T12:08:59Z</time>
      </trkpt>
      <trkpt lat="43.88905" lon="6.98778">
        <ele>835</ele>
        <time>2019-12-07T12:09:03Z</time>
      </trkpt>
      <trkpt lat="43.88903" lon="6.98759">
        <ele>834.1999512</ele>
        <time>2019-12-07T12:09:08Z</time>
      </trkpt>
      <trkpt lat="43.88901" lon="6.98756">
        <ele>834.4000244</ele>
        <time>2019-12-07T12:09:09Z</time>
      </trkpt>
      <trkpt lat="43.88892" lon="6.98748">
        <ele>834.1999512</ele>
        <time>2019-12-07T12:09:12Z</time>
      </trkpt>
      <trkpt lat="43.88888" lon="6.98746">
        <ele>834</ele>
        <time>2019-12-07T12:09:13Z</time>
      </trkpt>
      <trkpt lat="43.88882" lon="6.98741">
        <ele>833.5999756</ele>
        <time>2019-12-07T12:09:15Z</time>
      </trkpt>
      <trkpt lat="43.88878" lon="6.98739">
        <ele>833.8000488</ele>
        <time>2019-12-07T12:09:17Z</time>
      </trkpt>
      <trkpt lat="43.88865" lon="6.98729">
        <ele>834.5999756</ele>
        <time>2019-12-07T12:09:24Z</time>
      </trkpt>
      <trkpt lat="43.8886" lon="6.98715">
        <ele>834.5999756</ele>
        <time>2019-12-07T12:09:31Z</time>
      </trkpt>
      <trkpt lat="43.88859" lon="6.98713">
        <ele>834.8000488</ele>
        <time>2019-12-07T12:09:32Z</time>
      </trkpt>
      <trkpt lat="43.88858" lon="6.98701">
        <ele>834.8000488</ele>
        <time>2019-12-07T12:09:37Z</time>
      </trkpt>
      <trkpt lat="43.88858" lon="6.98689">
        <ele>835.8000488</ele>
        <time>2019-12-07T12:09:42Z</time>
      </trkpt>
      <trkpt lat="43.88859" lon="6.98683">
        <ele>836</ele>
        <time>2019-12-07T12:09:45Z</time>
      </trkpt>
      <trkpt lat="43.88855" lon="6.98672">
        <ele>835.8000488</ele>
        <time>2019-12-07T12:09:50Z</time>
      </trkpt>
      <trkpt lat="43.88847" lon="6.98662">
        <ele>836.1999512</ele>
        <time>2019-12-07T12:09:56Z</time>
      </trkpt>
      <trkpt lat="43.88842" lon="6.98649">
        <ele>836.1999512</ele>
        <time>2019-12-07T12:10:02Z</time>
      </trkpt>
      <trkpt lat="43.88841" lon="6.98641">
        <ele>837</ele>
        <time>2019-12-07T12:10:05Z</time>
      </trkpt>
      <trkpt lat="43.88839" lon="6.98631">
        <ele>837.8000488</ele>
        <time>2019-12-07T12:10:08Z</time>
      </trkpt>
      <trkpt lat="43.88838" lon="6.9862">
        <ele>838.1999512</ele>
        <time>2019-12-07T12:10:12Z</time>
      </trkpt>
      <trkpt lat="43.88838" lon="6.98617">
        <ele>838.4000244</ele>
        <time>2019-12-07T12:10:13Z</time>
      </trkpt>
      <trkpt lat="43.88835" lon="6.98607">
        <ele>839.1999512</ele>
        <time>2019-12-07T12:10:16Z</time>
      </trkpt>
      <trkpt lat="43.88833" lon="6.98591">
        <ele>840</ele>
        <time>2019-12-07T12:10:20Z</time>
      </trkpt>
      <trkpt lat="43.88827" lon="6.98582">
        <ele>840.4000244</ele>
        <time>2019-12-07T12:10:24Z</time>
      </trkpt>
      <trkpt lat="43.88825" lon="6.9858">
        <ele>840.8000488</ele>
        <time>2019-12-07T12:10:25Z</time>
      </trkpt>
      <trkpt lat="43.88822" lon="6.98577">
        <ele>841.5999756</ele>
        <time>2019-12-07T12:10:27Z</time>
      </trkpt>
      <trkpt lat="43.88818" lon="6.98573">
        <ele>842.5999756</ele>
        <time>2019-12-07T12:10:30Z</time>
      </trkpt>
      <trkpt lat="43.88815" lon="6.98569">
        <ele>843.5999756</ele>
        <time>2019-12-07T12:10:33Z</time>
      </trkpt>
      <trkpt lat="43.88812" lon="6.98562">
        <ele>844.8000488</ele>
        <time>2019-12-07T12:10:37Z</time>
      </trkpt>
      <trkpt lat="43.88809" lon="6.98558">
        <ele>845.8000488</ele>
        <time>2019-12-07T12:10:40Z</time>
      </trkpt>
      <trkpt lat="43.88809" lon="6.98557">
        <ele>846</ele>
        <time>2019-12-07T12:10:41Z</time>
      </trkpt>
      <trkpt lat="43.88808" lon="6.98552">
        <ele>847.4000244</ele>
        <time>2019-12-07T12:10:44Z</time>
      </trkpt>
      <trkpt lat="43.88808" lon="6.98548">
        <ele>848.1999512</ele>
        <time>2019-12-07T12:10:46Z</time>
      </trkpt>
      <trkpt lat="43.88809" lon="6.98546">
        <ele>848.5999756</ele>
        <time>2019-12-07T12:10:47Z</time>
      </trkpt>
      <trkpt lat="43.88809" lon="6.98541">
        <ele>849.8000488</ele>
        <time>2019-12-07T12:10:50Z</time>
      </trkpt>
      <trkpt lat="43.8881" lon="6.98536">
        <ele>850.5999756</ele>
        <time>2019-12-07T12:10:52Z</time>
      </trkpt>
      <trkpt lat="43.8881" lon="6.98532">
        <ele>851</ele>
        <time>2019-12-07T12:10:54Z</time>
      </trkpt>
      <trkpt lat="43.88806" lon="6.98526">
        <ele>851.5999756</ele>
        <time>2019-12-07T12:10:58Z</time>
      </trkpt>
      <trkpt lat="43.88806" lon="6.98525">
        <ele>852.1999512</ele>
        <time>2019-12-07T12:10:59Z</time>
      </trkpt>
      <trkpt lat="43.88804" lon="6.98525">
        <ele>853.5999756</ele>
        <time>2019-12-07T12:11:01Z</time>
      </trkpt>
      <trkpt lat="43.88804" lon="6.98524">
        <ele>853.4000244</ele>
        <time>2019-12-07T12:11:03Z</time>
      </trkpt>
      <trkpt lat="43.88802" lon="6.98521">
        <ele>854.8000488</ele>
        <time>2019-12-07T12:11:11Z</time>
      </trkpt>
      <trkpt lat="43.88801" lon="6.9852">
        <ele>855</ele>
        <time>2019-12-07T12:11:12Z</time>
      </trkpt>
      <trkpt lat="43.88801" lon="6.98518">
        <ele>855.8000488</ele>
        <time>2019-12-07T12:11:14Z</time>
      </trkpt>
      <trkpt lat="43.88797" lon="6.98511">
        <ele>856.8000488</ele>
        <time>2019-12-07T12:11:18Z</time>
      </trkpt>
      <trkpt lat="43.88793" lon="6.98505">
        <ele>858</ele>
        <time>2019-12-07T12:11:22Z</time>
      </trkpt>
      <trkpt lat="43.88791" lon="6.98502">
        <ele>858.4000244</ele>
        <time>2019-12-07T12:11:24Z</time>
      </trkpt>
      <trkpt lat="43.88788" lon="6.98496">
        <ele>859</ele>
        <time>2019-12-07T12:11:29Z</time>
      </trkpt>
      <trkpt lat="43.88787" lon="6.98491">
        <ele>859.4000244</ele>
        <time>2019-12-07T12:11:32Z</time>
      </trkpt>
      <trkpt lat="43.88784" lon="6.98487">
        <ele>860</ele>
        <time>2019-12-07T12:11:36Z</time>
      </trkpt>
      <trkpt lat="43.88781" lon="6.98483">
        <ele>860.5999756</ele>
        <time>2019-12-07T12:11:39Z</time>
      </trkpt>
      <trkpt lat="43.88779" lon="6.98481">
        <ele>861.1999512</ele>
        <time>2019-12-07T12:11:41Z</time>
      </trkpt>
      <trkpt lat="43.88775" lon="6.98477">
        <ele>861.1999512</ele>
        <time>2019-12-07T12:11:45Z</time>
      </trkpt>
      <trkpt lat="43.8877" lon="6.9847">
        <ele>860.8000488</ele>
        <time>2019-12-07T12:11:53Z</time>
      </trkpt>
      <trkpt lat="43.88763" lon="6.98464">
        <ele>860.8000488</ele>
        <time>2019-12-07T12:12:00Z</time>
      </trkpt>
      <trkpt lat="43.88754" lon="6.98456">
        <ele>861</ele>
        <time>2019-12-07T12:12:09Z</time>
      </trkpt>
      <trkpt lat="43.8875" lon="6.9845">
        <ele>860.4000244</ele>
        <time>2019-12-07T12:12:16Z</time>
      </trkpt>
      <trkpt lat="43.88749" lon="6.98449">
        <ele>860</ele>
        <time>2019-12-07T12:12:17Z</time>
      </trkpt>
      <trkpt lat="43.88747" lon="6.98448">
        <ele>859.8000488</ele>
        <time>2019-12-07T12:12:18Z</time>
      </trkpt>
      <trkpt lat="43.88742" lon="6.98444">
        <ele>860.1999512</ele>
        <time>2019-12-07T12:12:21Z</time>
      </trkpt>
      <trkpt lat="43.8874" lon="6.98443">
        <ele>860</ele>
        <time>2019-12-07T12:12:22Z</time>
      </trkpt>
      <trkpt lat="43.88736" lon="6.9844">
        <ele>860.4000244</ele>
        <time>2019-12-07T12:12:28Z</time>
      </trkpt>
      <trkpt lat="43.88734" lon="6.98435">
        <ele>861</ele>
        <time>2019-12-07T12:12:36Z</time>
      </trkpt>
      <trkpt lat="43.88733" lon="6.98425">
        <ele>861.4000244</ele>
        <time>2019-12-07T12:12:41Z</time>
      </trkpt>
      <trkpt lat="43.88733" lon="6.98423">
        <ele>861.1999512</ele>
        <time>2019-12-07T12:12:42Z</time>
      </trkpt>
      <trkpt lat="43.8873" lon="6.98412">
        <ele>860.4000244</ele>
        <time>2019-12-07T12:12:48Z</time>
      </trkpt>
      <trkpt lat="43.88729" lon="6.98399">
        <ele>859.5999756</ele>
        <time>2019-12-07T12:12:52Z</time>
      </trkpt>
      <trkpt lat="43.88729" lon="6.98393">
        <ele>859.1999512</ele>
        <time>2019-12-07T12:12:54Z</time>
      </trkpt>
      <trkpt lat="43.88728" lon="6.98375">
        <ele>858.5999756</ele>
        <time>2019-12-07T12:12:59Z</time>
      </trkpt>
      <trkpt lat="43.8872" lon="6.98347">
        <ele>857.1999512</ele>
        <time>2019-12-07T12:13:04Z</time>
      </trkpt>
      <trkpt lat="43.88718" lon="6.98342">
        <ele>856.5999756</ele>
        <time>2019-12-07T12:13:05Z</time>
      </trkpt>
      <trkpt lat="43.88716" lon="6.98332">
        <ele>855.8000488</ele>
        <time>2019-12-07T12:13:07Z</time>
      </trkpt>
      <trkpt lat="43.88714" lon="6.98316">
        <ele>854.8000488</ele>
        <time>2019-12-07T12:13:10Z</time>
      </trkpt>
      <trkpt lat="43.88715" lon="6.983">
        <ele>853.1999512</ele>
        <time>2019-12-07T12:13:13Z</time>
      </trkpt>
      <trkpt lat="43.88715" lon="6.98294">
        <ele>852.8000488</ele>
        <time>2019-12-07T12:13:14Z</time>
      </trkpt>
      <trkpt lat="43.88714" lon="6.98288">
        <ele>852.1999512</ele>
        <time>2019-12-07T12:13:15Z</time>
      </trkpt>
      <trkpt lat="43.88712" lon="6.98275">
        <ele>850.8000488</ele>
        <time>2019-12-07T12:13:17Z</time>
      </trkpt>
      <trkpt lat="43.88708" lon="6.98265">
        <ele>849.5999756</ele>
        <time>2019-12-07T12:13:19Z</time>
      </trkpt>
      <trkpt lat="43.88705" lon="6.9826">
        <ele>849</ele>
        <time>2019-12-07T12:13:20Z</time>
      </trkpt>
      <trkpt lat="43.88701" lon="6.98255">
        <ele>848.4000244</ele>
        <time>2019-12-07T12:13:21Z</time>
      </trkpt>
      <trkpt lat="43.88689" lon="6.9824">
        <ele>847.1999512</ele>
        <time>2019-12-07T12:13:24Z</time>
      </trkpt>
      <trkpt lat="43.88685" lon="6.98236">
        <ele>846.5999756</ele>
        <time>2019-12-07T12:13:25Z</time>
      </trkpt>
      <trkpt lat="43.88682" lon="6.98232">
        <ele>846</ele>
        <time>2019-12-07T12:13:26Z</time>
      </trkpt>
      <trkpt lat="43.88678" lon="6.98222">
        <ele>844.5999756</ele>
        <time>2019-12-07T12:13:28Z</time>
      </trkpt>
      <trkpt lat="43.88677" lon="6.98217">
        <ele>844</ele>
        <time>2019-12-07T12:13:29Z</time>
      </trkpt>
      <trkpt lat="43.88676" lon="6.98211">
        <ele>843.4000244</ele>
        <time>2019-12-07T12:13:30Z</time>
      </trkpt>
      <trkpt lat="43.88674" lon="6.98198">
        <ele>842.1999512</ele>
        <time>2019-12-07T12:13:32Z</time>
      </trkpt>
      <trkpt lat="43.88672" lon="6.98185">
        <ele>841</ele>
        <time>2019-12-07T12:13:34Z</time>
      </trkpt>
      <trkpt lat="43.8867" lon="6.98178">
        <ele>839.8000488</ele>
        <time>2019-12-07T12:13:36Z</time>
      </trkpt>
      <trkpt lat="43.88669" lon="6.98176">
        <ele>839.5999756</ele>
        <time>2019-12-07T12:13:37Z</time>
      </trkpt>
      <trkpt lat="43.88669" lon="6.98175">
        <ele>839</ele>
        <time>2019-12-07T12:13:42Z</time>
      </trkpt>
      <trkpt lat="43.88669" lon="6.98176">
        <ele>839.1999512</ele>
        <time>2019-12-07T12:13:59Z</time>
      </trkpt>
      <trkpt lat="43.88669" lon="6.98179">
        <ele>841.1999512</ele>
        <time>2019-12-07T12:14:02Z</time>
      </trkpt>
      <trkpt lat="43.8867" lon="6.98183">
        <ele>842.4000244</ele>
        <time>2019-12-07T12:14:04Z</time>
      </trkpt>
      <trkpt lat="43.8867" lon="6.98186">
        <ele>844.1999512</ele>
        <time>2019-12-07T12:14:06Z</time>
      </trkpt>
      <trkpt lat="43.8867" lon="6.98188">
        <ele>845.8000488</ele>
        <time>2019-12-07T12:14:08Z</time>
      </trkpt>
      <trkpt lat="43.8867" lon="6.98189">
        <ele>846.8000488</ele>
        <time>2019-12-07T12:14:10Z</time>
      </trkpt>
      <trkpt lat="43.88669" lon="6.98188">
        <ele>847.4000244</ele>
        <time>2019-12-07T12:14:13Z</time>
      </trkpt>
      <trkpt lat="43.88669" lon="6.98188">
        <ele>848.1999512</ele>
        <time>2019-12-07T12:14:14Z</time>
      </trkpt>
      <trkpt lat="43.88668" lon="6.98187">
        <ele>848.8000488</ele>
        <time>2019-12-07T12:14:15Z</time>
      </trkpt>
      <trkpt lat="43.88668" lon="6.98187">
        <ele>849.4000244</ele>
        <time>2019-12-07T12:14:16Z</time>
      </trkpt>
      <trkpt lat="43.88668" lon="6.98187">
        <ele>849.4000244</ele>
        <time>2019-12-07T12:14:23Z</time>
      </trkpt>
      <trkpt lat="43.88668" lon="6.98187">
        <ele>849.4000244</ele>
        <time>2019-12-07T12:14:38Z</time>
      </trkpt>
      <trkpt lat="43.88668" lon="6.98187">
        <ele>849.4000244</ele>
        <time>2019-12-07T12:14:54Z</time>
      </trkpt>
      <trkpt lat="43.88668" lon="6.98186">
        <ele>849.8000488</ele>
        <time>2019-12-07T12:15:12Z</time>
      </trkpt>
      <trkpt lat="43.88668" lon="6.98186">
        <ele>849.8000488</ele>
        <time>2019-12-07T12:15:25Z</time>
      </trkpt>
      <trkpt lat="43.88668" lon="6.98186">
        <ele>849.8000488</ele>
        <time>2019-12-07T12:15:35Z</time>
      </trkpt>
      <trkpt lat="43.88665" lon="6.98178">
        <ele>850.5999756</ele>
        <time>2019-12-07T12:15:40Z</time>
      </trkpt>
      <trkpt lat="43.88663" lon="6.98176">
        <ele>850.8000488</ele>
        <time>2019-12-07T12:15:41Z</time>
      </trkpt>
      <trkpt lat="43.88656" lon="6.98164">
        <ele>850.4000244</ele>
        <time>2019-12-07T12:15:47Z</time>
      </trkpt>
      <trkpt lat="43.88653" lon="6.98158">
        <ele>849.5999756</ele>
        <time>2019-12-07T12:15:50Z</time>
      </trkpt>
      <trkpt lat="43.88652" lon="6.98156">
        <ele>849.4000244</ele>
        <time>2019-12-07T12:15:51Z</time>
      </trkpt>
      <trkpt lat="43.88649" lon="6.98152">
        <ele>849.1999512</ele>
        <time>2019-12-07T12:15:53Z</time>
      </trkpt>
      <trkpt lat="43.88647" lon="6.98149">
        <ele>849</ele>
        <time>2019-12-07T12:15:55Z</time>
      </trkpt>
      <trkpt lat="43.88642" lon="6.98141">
        <ele>848.5999756</ele>
        <time>2019-12-07T12:15:59Z</time>
      </trkpt>
      <trkpt lat="43.88641" lon="6.98137">
        <ele>848.1999512</ele>
        <time>2019-12-07T12:16:01Z</time>
      </trkpt>
      <trkpt lat="43.88638" lon="6.98129">
        <ele>847.4000244</ele>
        <time>2019-12-07T12:16:04Z</time>
      </trkpt>
      <trkpt lat="43.88632" lon="6.98118">
        <ele>846.4000244</ele>
        <time>2019-12-07T12:16:08Z</time>
      </trkpt>
      <trkpt lat="43.8863" lon="6.98115">
        <ele>846.1999512</ele>
        <time>2019-12-07T12:16:09Z</time>
      </trkpt>
      <trkpt lat="43.88624" lon="6.98099">
        <ele>845.1999512</ele>
        <time>2019-12-07T12:16:14Z</time>
      </trkpt>
      <trkpt lat="43.88622" lon="6.98095">
        <ele>845</ele>
        <time>2019-12-07T12:16:15Z</time>
      </trkpt>
      <trkpt lat="43.8862" lon="6.98091">
        <ele>844.5999756</ele>
        <time>2019-12-07T12:16:16Z</time>
      </trkpt>
      <trkpt lat="43.88611" lon="6.98076">
        <ele>844.1999512</ele>
        <time>2019-12-07T12:16:19Z</time>
      </trkpt>
      <trkpt lat="43.88609" lon="6.98072">
        <ele>843.8000488</ele>
        <time>2019-12-07T12:16:20Z</time>
      </trkpt>
      <trkpt lat="43.88607" lon="6.98064">
        <ele>842.1999512</ele>
        <time>2019-12-07T12:16:22Z</time>
      </trkpt>
      <trkpt lat="43.88603" lon="6.98056">
        <ele>841.4000244</ele>
        <time>2019-12-07T12:16:25Z</time>
      </trkpt>
      <trkpt lat="43.886" lon="6.98041">
        <ele>842.4000244</ele>
        <time>2019-12-07T12:16:31Z</time>
      </trkpt>
      <trkpt lat="43.88599" lon="6.9803">
        <ele>843.4000244</ele>
        <time>2019-12-07T12:16:36Z</time>
      </trkpt>
      <trkpt lat="43.88597" lon="6.98025">
        <ele>844.1999512</ele>
        <time>2019-12-07T12:16:38Z</time>
      </trkpt>
      <trkpt lat="43.88595" lon="6.98018">
        <ele>844.5999756</ele>
        <time>2019-12-07T12:16:41Z</time>
      </trkpt>
      <trkpt lat="43.88592" lon="6.98009">
        <ele>845.4000244</ele>
        <time>2019-12-07T12:16:45Z</time>
      </trkpt>
      <trkpt lat="43.88591" lon="6.98007">
        <ele>845.5999756</ele>
        <time>2019-12-07T12:16:46Z</time>
      </trkpt>
      <trkpt lat="43.88587" lon="6.97994">
        <ele>846.1999512</ele>
        <time>2019-12-07T12:16:51Z</time>
      </trkpt>
      <trkpt lat="43.88583" lon="6.97981">
        <ele>846.8000488</ele>
        <time>2019-12-07T12:16:57Z</time>
      </trkpt>
      <trkpt lat="43.88581" lon="6.97978">
        <ele>847.4000244</ele>
        <time>2019-12-07T12:16:59Z</time>
      </trkpt>
      <trkpt lat="43.88578" lon="6.9797">
        <ele>847.8000488</ele>
        <time>2019-12-07T12:17:03Z</time>
      </trkpt>
      <trkpt lat="43.88576" lon="6.97964">
        <ele>847.5999756</ele>
        <time>2019-12-07T12:17:06Z</time>
      </trkpt>
      <trkpt lat="43.88573" lon="6.97953">
        <ele>849.1999512</ele>
        <time>2019-12-07T12:17:12Z</time>
      </trkpt>
      <trkpt lat="43.88572" lon="6.97951">
        <ele>849.4000244</ele>
        <time>2019-12-07T12:17:13Z</time>
      </trkpt>
      <trkpt lat="43.88566" lon="6.97935">
        <ele>849</ele>
        <time>2019-12-07T12:17:20Z</time>
      </trkpt>
      <trkpt lat="43.8856" lon="6.97921">
        <ele>849.1999512</ele>
        <time>2019-12-07T12:17:27Z</time>
      </trkpt>
      <trkpt lat="43.88557" lon="6.97907">
        <ele>849.8000488</ele>
        <time>2019-12-07T12:17:34Z</time>
      </trkpt>
      <trkpt lat="43.88554" lon="6.97897">
        <ele>850</ele>
        <time>2019-12-07T12:17:39Z</time>
      </trkpt>
      <trkpt lat="43.88553" lon="6.97895">
        <ele>850.4000244</ele>
        <time>2019-12-07T12:17:40Z</time>
      </trkpt>
      <trkpt lat="43.88552" lon="6.97883">
        <ele>851</ele>
        <time>2019-12-07T12:17:45Z</time>
      </trkpt>
      <trkpt lat="43.8855" lon="6.97879">
        <ele>851.4000244</ele>
        <time>2019-12-07T12:17:47Z</time>
      </trkpt>
      <trkpt lat="43.88548" lon="6.97875">
        <ele>851</ele>
        <time>2019-12-07T12:17:49Z</time>
      </trkpt>
      <trkpt lat="43.88546" lon="6.97871">
        <ele>850.5999756</ele>
        <time>2019-12-07T12:17:51Z</time>
      </trkpt>
      <trkpt lat="43.88545" lon="6.97869">
        <ele>850.1999512</ele>
        <time>2019-12-07T12:17:52Z</time>
      </trkpt>
      <trkpt lat="43.88543" lon="6.97859">
        <ele>850.4000244</ele>
        <time>2019-12-07T12:17:57Z</time>
      </trkpt>
      <trkpt lat="43.88543" lon="6.97855">
        <ele>851.4000244</ele>
        <time>2019-12-07T12:18:01Z</time>
      </trkpt>
      <trkpt lat="43.88543" lon="6.97852">
        <ele>852.1999512</ele>
        <time>2019-12-07T12:18:03Z</time>
      </trkpt>
      <trkpt lat="43.88542" lon="6.97851">
        <ele>852.5999756</ele>
        <time>2019-12-07T12:18:04Z</time>
      </trkpt>
      <trkpt lat="43.88542" lon="6.97848">
        <ele>854.1999512</ele>
        <time>2019-12-07T12:18:06Z</time>
      </trkpt>
      <trkpt lat="43.88541" lon="6.97844">
        <ele>855.4000244</ele>
        <time>2019-12-07T12:18:10Z</time>
      </trkpt>
      <trkpt lat="43.88539" lon="6.97838">
        <ele>856.8000488</ele>
        <time>2019-12-07T12:18:14Z</time>
      </trkpt>
      <trkpt lat="43.88539" lon="6.97833">
        <ele>858.1999512</ele>
        <time>2019-12-07T12:18:17Z</time>
      </trkpt>
      <trkpt lat="43.88538" lon="6.97829">
        <ele>859.4000244</ele>
        <time>2019-12-07T12:18:19Z</time>
      </trkpt>
      <trkpt lat="43.88539" lon="6.97826">
        <ele>860.8000488</ele>
        <time>2019-12-07T12:18:21Z</time>
      </trkpt>
      <trkpt lat="43.88538" lon="6.97823">
        <ele>861.8000488</ele>
        <time>2019-12-07T12:18:23Z</time>
      </trkpt>
      <trkpt lat="43.88538" lon="6.97819">
        <ele>863</ele>
        <time>2019-12-07T12:18:27Z</time>
      </trkpt>
      <trkpt lat="43.88537" lon="6.97816">
        <ele>864.5999756</ele>
        <time>2019-12-07T12:18:30Z</time>
      </trkpt>
      <trkpt lat="43.88536" lon="6.9781">
        <ele>865.5999756</ele>
        <time>2019-12-07T12:18:35Z</time>
      </trkpt>
      <trkpt lat="43.88536" lon="6.97807">
        <ele>865.8000488</ele>
        <time>2019-12-07T12:18:37Z</time>
      </trkpt>
      <trkpt lat="43.88533" lon="6.97803">
        <ele>866.1999512</ele>
        <time>2019-12-07T12:18:43Z</time>
      </trkpt>
      <trkpt lat="43.8853" lon="6.97796">
        <ele>866.1999512</ele>
        <time>2019-12-07T12:18:50Z</time>
      </trkpt>
      <trkpt lat="43.88528" lon="6.97787">
        <ele>866.8000488</ele>
        <time>2019-12-07T12:18:55Z</time>
      </trkpt>
      <trkpt lat="43.88527" lon="6.97784">
        <ele>867.4000244</ele>
        <time>2019-12-07T12:18:57Z</time>
      </trkpt>
      <trkpt lat="43.88528" lon="6.97776">
        <ele>867.4000244</ele>
        <time>2019-12-07T12:19:03Z</time>
      </trkpt>
      <trkpt lat="43.88523" lon="6.97763">
        <ele>867.5999756</ele>
        <time>2019-12-07T12:19:12Z</time>
      </trkpt>
      <trkpt lat="43.88521" lon="6.97759">
        <ele>868</ele>
        <time>2019-12-07T12:19:14Z</time>
      </trkpt>
      <trkpt lat="43.88517" lon="6.97752">
        <ele>868.8000488</ele>
        <time>2019-12-07T12:19:20Z</time>
      </trkpt>
      <trkpt lat="43.88515" lon="6.97749">
        <ele>868.5999756</ele>
        <time>2019-12-07T12:19:30Z</time>
      </trkpt>
      <trkpt lat="43.88514" lon="6.97747">
        <ele>869</ele>
        <time>2019-12-07T12:19:33Z</time>
      </trkpt>
      <trkpt lat="43.88514" lon="6.97746">
        <ele>870.1999512</ele>
        <time>2019-12-07T12:19:35Z</time>
      </trkpt>
      <trkpt lat="43.88514" lon="6.97746">
        <ele>870.1999512</ele>
        <time>2019-12-07T12:19:36Z</time>
      </trkpt>
      <trkpt lat="43.88512" lon="6.97742">
        <ele>870.4000244</ele>
        <time>2019-12-07T12:19:45Z</time>
      </trkpt>
      <trkpt lat="43.88509" lon="6.97739">
        <ele>870.1999512</ele>
        <time>2019-12-07T12:19:52Z</time>
      </trkpt>
      <trkpt lat="43.88507" lon="6.97736">
        <ele>870.8000488</ele>
        <time>2019-12-07T12:19:57Z</time>
      </trkpt>
      <trkpt lat="43.88506" lon="6.97734">
        <ele>871.1999512</ele>
        <time>2019-12-07T12:20:00Z</time>
      </trkpt>
      <trkpt lat="43.88505" lon="6.97733">
        <ele>871.8000488</ele>
        <time>2019-12-07T12:20:03Z</time>
      </trkpt>
      <trkpt lat="43.88503" lon="6.97731">
        <ele>872.8000488</ele>
        <time>2019-12-07T12:20:05Z</time>
      </trkpt>
      <trkpt lat="43.88502" lon="6.9773">
        <ele>873.5999756</ele>
        <time>2019-12-07T12:20:08Z</time>
      </trkpt>
      <trkpt lat="43.885" lon="6.97726">
        <ele>873.5999756</ele>
        <time>2019-12-07T12:20:13Z</time>
      </trkpt>
      <trkpt lat="43.88498" lon="6.97725">
        <ele>874</ele>
        <time>2019-12-07T12:20:15Z</time>
      </trkpt>
      <trkpt lat="43.88498" lon="6.97724">
        <ele>874.1999512</ele>
        <time>2019-12-07T12:20:19Z</time>
      </trkpt>
      <trkpt lat="43.88498" lon="6.97724">
        <ele>874.1999512</ele>
        <time>2019-12-07T12:20:33Z</time>
      </trkpt>
      <trkpt lat="43.88495" lon="6.97721">
        <ele>874.5999756</ele>
        <time>2019-12-07T12:20:39Z</time>
      </trkpt>
      <trkpt lat="43.88494" lon="6.97721">
        <ele>874.8000488</ele>
        <time>2019-12-07T12:20:40Z</time>
      </trkpt>
      <trkpt lat="43.88493" lon="6.9772">
        <ele>875.1999512</ele>
        <time>2019-12-07T12:20:41Z</time>
      </trkpt>
      <trkpt lat="43.88492" lon="6.97719">
        <ele>875.5999756</ele>
        <time>2019-12-07T12:20:42Z</time>
      </trkpt>
      <trkpt lat="43.88492" lon="6.97718">
        <ele>875.5999756</ele>
        <time>2019-12-07T12:20:43Z</time>
      </trkpt>
      <trkpt lat="43.88486" lon="6.97713">
        <ele>876.1999512</ele>
        <time>2019-12-07T12:20:51Z</time>
      </trkpt>
      <trkpt lat="43.88485" lon="6.97713">
        <ele>876.4000244</ele>
        <time>2019-12-07T12:20:52Z</time>
      </trkpt>
      <trkpt lat="43.88482" lon="6.97709">
        <ele>877</ele>
        <time>2019-12-07T12:20:59Z</time>
      </trkpt>
      <trkpt lat="43.88481" lon="6.97708">
        <ele>877.4000244</ele>
        <time>2019-12-07T12:21:02Z</time>
      </trkpt>
      <trkpt lat="43.88477" lon="6.97705">
        <ele>877.5999756</ele>
        <time>2019-12-07T12:21:06Z</time>
      </trkpt>
      <trkpt lat="43.88474" lon="6.97703">
        <ele>878.1999512</ele>
        <time>2019-12-07T12:21:12Z</time>
      </trkpt>
      <trkpt lat="43.88472" lon="6.97701">
        <ele>878.4000244</ele>
        <time>2019-12-07T12:21:17Z</time>
      </trkpt>
      <trkpt lat="43.88471" lon="6.97699">
        <ele>878.5999756</ele>
        <time>2019-12-07T12:21:18Z</time>
      </trkpt>
      <trkpt lat="43.88469" lon="6.97686">
        <ele>878.4000244</ele>
        <time>2019-12-07T12:21:24Z</time>
      </trkpt>
      <trkpt lat="43.88468" lon="6.97678">
        <ele>878</ele>
        <time>2019-12-07T12:21:27Z</time>
      </trkpt>
      <trkpt lat="43.88468" lon="6.97671">
        <ele>877.8000488</ele>
        <time>2019-12-07T12:21:29Z</time>
      </trkpt>
      <trkpt lat="43.88467" lon="6.9766">
        <ele>877.8000488</ele>
        <time>2019-12-07T12:21:34Z</time>
      </trkpt>
      <trkpt lat="43.88466" lon="6.97644">
        <ele>878.1999512</ele>
        <time>2019-12-07T12:21:41Z</time>
      </trkpt>
      <trkpt lat="43.88464" lon="6.97635">
        <ele>878.4000244</ele>
        <time>2019-12-07T12:21:46Z</time>
      </trkpt>
      <trkpt lat="43.88464" lon="6.97632">
        <ele>878.8000488</ele>
        <time>2019-12-07T12:21:48Z</time>
      </trkpt>
      <trkpt lat="43.88463" lon="6.97626">
        <ele>879</ele>
        <time>2019-12-07T12:21:53Z</time>
      </trkpt>
      <trkpt lat="43.88462" lon="6.97618">
        <ele>879.5999756</ele>
        <time>2019-12-07T12:22:00Z</time>
      </trkpt>
      <trkpt lat="43.88462" lon="6.97613">
        <ele>880</ele>
        <time>2019-12-07T12:22:06Z</time>
      </trkpt>
      <trkpt lat="43.88462" lon="6.97605">
        <ele>879</ele>
        <time>2019-12-07T12:22:12Z</time>
      </trkpt>
      <trkpt lat="43.88461" lon="6.97601">
        <ele>878.5999756</ele>
        <time>2019-12-07T12:22:16Z</time>
      </trkpt>
      <trkpt lat="43.8846" lon="6.97598">
        <ele>879</ele>
        <time>2019-12-07T12:22:19Z</time>
      </trkpt>
      <trkpt lat="43.88459" lon="6.97597">
        <ele>879.5999756</ele>
        <time>2019-12-07T12:22:20Z</time>
      </trkpt>
      <trkpt lat="43.88456" lon="6.97592">
        <ele>880.5999756</ele>
        <time>2019-12-07T12:22:24Z</time>
      </trkpt>
      <trkpt lat="43.88455" lon="6.9759">
        <ele>881.5999756</ele>
        <time>2019-12-07T12:22:26Z</time>
      </trkpt>
      <trkpt lat="43.88455" lon="6.9759">
        <ele>882</ele>
        <time>2019-12-07T12:22:27Z</time>
      </trkpt>
      <trkpt lat="43.88455" lon="6.9759">
        <ele>882</ele>
        <time>2019-12-07T12:22:32Z</time>
      </trkpt>
      <trkpt lat="43.88452" lon="6.97581">
        <ele>882.8000488</ele>
        <time>2019-12-07T12:22:38Z</time>
      </trkpt>
      <trkpt lat="43.88451" lon="6.9758">
        <ele>883</ele>
        <time>2019-12-07T12:22:39Z</time>
      </trkpt>
      <trkpt lat="43.88445" lon="6.97568">
        <ele>883.4000244</ele>
        <time>2019-12-07T12:22:46Z</time>
      </trkpt>
      <trkpt lat="43.88443" lon="6.97558">
        <ele>883.5999756</ele>
        <time>2019-12-07T12:22:52Z</time>
      </trkpt>
      <trkpt lat="43.88441" lon="6.97551">
        <ele>884.1999512</ele>
        <time>2019-12-07T12:22:56Z</time>
      </trkpt>
      <trkpt lat="43.8844" lon="6.97549">
        <ele>884.8000488</ele>
        <time>2019-12-07T12:22:58Z</time>
      </trkpt>
      <trkpt lat="43.8844" lon="6.97549">
        <ele>884.8000488</ele>
        <time>2019-12-07T12:23:07Z</time>
      </trkpt>
      <trkpt lat="43.8844" lon="6.97545">
        <ele>885.1999512</ele>
        <time>2019-12-07T12:23:15Z</time>
      </trkpt>
      <trkpt lat="43.88439" lon="6.97544">
        <ele>885.5999756</ele>
        <time>2019-12-07T12:23:16Z</time>
      </trkpt>
      <trkpt lat="43.88436" lon="6.97539">
        <ele>886.4000244</ele>
        <time>2019-12-07T12:23:21Z</time>
      </trkpt>
      <trkpt lat="43.88434" lon="6.97535">
        <ele>887</ele>
        <time>2019-12-07T12:23:24Z</time>
      </trkpt>
      <trkpt lat="43.88433" lon="6.97532">
        <ele>887.5999756</ele>
        <time>2019-12-07T12:23:26Z</time>
      </trkpt>
      <trkpt lat="43.88432" lon="6.97527">
        <ele>887.5999756</ele>
        <time>2019-12-07T12:23:30Z</time>
      </trkpt>
      <trkpt lat="43.88431" lon="6.97525">
        <ele>887.8000488</ele>
        <time>2019-12-07T12:23:32Z</time>
      </trkpt>
      <trkpt lat="43.88429" lon="6.97521">
        <ele>888.8000488</ele>
        <time>2019-12-07T12:23:35Z</time>
      </trkpt>
      <trkpt lat="43.88428" lon="6.9752">
        <ele>889</ele>
        <time>2019-12-07T12:23:37Z</time>
      </trkpt>
      <trkpt lat="43.88425" lon="6.97513">
        <ele>889.4000244</ele>
        <time>2019-12-07T12:23:44Z</time>
      </trkpt>
      <trkpt lat="43.88423" lon="6.97506">
        <ele>888.5999756</ele>
        <time>2019-12-07T12:23:51Z</time>
      </trkpt>
      <trkpt lat="43.8842" lon="6.97503">
        <ele>888</ele>
        <time>2019-12-07T12:23:57Z</time>
      </trkpt>
      <trkpt lat="43.88417" lon="6.97497">
        <ele>888.8000488</ele>
        <time>2019-12-07T12:24:03Z</time>
      </trkpt>
      <trkpt lat="43.88415" lon="6.97494">
        <ele>890</ele>
        <time>2019-12-07T12:24:06Z</time>
      </trkpt>
      <trkpt lat="43.88414" lon="6.97491">
        <ele>891</ele>
        <time>2019-12-07T12:24:08Z</time>
      </trkpt>
      <trkpt lat="43.88414" lon="6.9749">
        <ele>891.4000244</ele>
        <time>2019-12-07T12:24:10Z</time>
      </trkpt>
      <trkpt lat="43.88414" lon="6.97488">
        <ele>892.1999512</ele>
        <time>2019-12-07T12:24:12Z</time>
      </trkpt>
      <trkpt lat="43.88411" lon="6.97485">
        <ele>893.4000244</ele>
        <time>2019-12-07T12:24:15Z</time>
      </trkpt>
      <trkpt lat="43.8841" lon="6.97485">
        <ele>894.1999512</ele>
        <time>2019-12-07T12:24:17Z</time>
      </trkpt>
      <trkpt lat="43.8841" lon="6.97482">
        <ele>894.8000488</ele>
        <time>2019-12-07T12:24:23Z</time>
      </trkpt>
      <trkpt lat="43.8841" lon="6.97478">
        <ele>896</ele>
        <time>2019-12-07T12:24:25Z</time>
      </trkpt>
      <trkpt lat="43.8841" lon="6.97478">
        <ele>896.4000244</ele>
        <time>2019-12-07T12:24:26Z</time>
      </trkpt>
      <trkpt lat="43.88409" lon="6.97476">
        <ele>897.1999512</ele>
        <time>2019-12-07T12:24:28Z</time>
      </trkpt>
      <trkpt lat="43.88407" lon="6.97472">
        <ele>898.4000244</ele>
        <time>2019-12-07T12:24:31Z</time>
      </trkpt>
      <trkpt lat="43.88406" lon="6.97467">
        <ele>899.1999512</ele>
        <time>2019-12-07T12:24:34Z</time>
      </trkpt>
      <trkpt lat="43.88406" lon="6.97466">
        <ele>899.5999756</ele>
        <time>2019-12-07T12:24:35Z</time>
      </trkpt>
      <trkpt lat="43.88405" lon="6.97462">
        <ele>901.1999512</ele>
        <time>2019-12-07T12:24:39Z</time>
      </trkpt>
      <trkpt lat="43.88404" lon="6.9746">
        <ele>902.4000244</ele>
        <time>2019-12-07T12:24:41Z</time>
      </trkpt>
      <trkpt lat="43.88403" lon="6.97459">
        <ele>903.4000244</ele>
        <time>2019-12-07T12:24:43Z</time>
      </trkpt>
      <trkpt lat="43.88403" lon="6.97457">
        <ele>903.5999756</ele>
        <time>2019-12-07T12:24:45Z</time>
      </trkpt>
      <trkpt lat="43.88401" lon="6.97453">
        <ele>904</ele>
        <time>2019-12-07T12:24:50Z</time>
      </trkpt>
      <trkpt lat="43.88397" lon="6.97443">
        <ele>903.5999756</ele>
        <time>2019-12-07T12:24:58Z</time>
      </trkpt>
      <trkpt lat="43.88397" lon="6.97438">
        <ele>903.8000488</ele>
        <time>2019-12-07T12:25:03Z</time>
      </trkpt>
      <trkpt lat="43.88397" lon="6.97436">
        <ele>903.5999756</ele>
        <time>2019-12-07T12:25:04Z</time>
      </trkpt>
      <trkpt lat="43.88394" lon="6.97431">
        <ele>903.8000488</ele>
        <time>2019-12-07T12:25:09Z</time>
      </trkpt>
      <trkpt lat="43.88393" lon="6.97427">
        <ele>904.8000488</ele>
        <time>2019-12-07T12:25:13Z</time>
      </trkpt>
      <trkpt lat="43.88391" lon="6.97422">
        <ele>904.8000488</ele>
        <time>2019-12-07T12:25:17Z</time>
      </trkpt>
      <trkpt lat="43.8839" lon="6.97416">
        <ele>905.1999512</ele>
        <time>2019-12-07T12:25:21Z</time>
      </trkpt>
      <trkpt lat="43.8839" lon="6.97414">
        <ele>905.8000488</ele>
        <time>2019-12-07T12:25:23Z</time>
      </trkpt>
      <trkpt lat="43.88389" lon="6.97413">
        <ele>906.8000488</ele>
        <time>2019-12-07T12:25:25Z</time>
      </trkpt>
      <trkpt lat="43.88387" lon="6.97407">
        <ele>907.8000488</ele>
        <time>2019-12-07T12:25:30Z</time>
      </trkpt>
      <trkpt lat="43.88387" lon="6.97406">
        <ele>907.8000488</ele>
        <time>2019-12-07T12:25:31Z</time>
      </trkpt>
      <trkpt lat="43.88386" lon="6.97403">
        <ele>908.5999756</ele>
        <time>2019-12-07T12:25:36Z</time>
      </trkpt>
      <trkpt lat="43.88386" lon="6.97401">
        <ele>909</ele>
        <time>2019-12-07T12:25:41Z</time>
      </trkpt>
      <trkpt lat="43.88385" lon="6.97398">
        <ele>909.1999512</ele>
        <time>2019-12-07T12:25:43Z</time>
      </trkpt>
      <trkpt lat="43.88383" lon="6.97392">
        <ele>910</ele>
        <time>2019-12-07T12:25:50Z</time>
      </trkpt>
      <trkpt lat="43.88382" lon="6.97389">
        <ele>910.5999756</ele>
        <time>2019-12-07T12:25:53Z</time>
      </trkpt>
      <trkpt lat="43.88382" lon="6.97387">
        <ele>911</ele>
        <time>2019-12-07T12:25:55Z</time>
      </trkpt>
      <trkpt lat="43.88382" lon="6.97386">
        <ele>911.4000244</ele>
        <time>2019-12-07T12:25:56Z</time>
      </trkpt>
      <trkpt lat="43.88382" lon="6.97385">
        <ele>911.5999756</ele>
        <time>2019-12-07T12:26:02Z</time>
      </trkpt>
      <trkpt lat="43.88381" lon="6.97384">
        <ele>912.1999512</ele>
        <time>2019-12-07T12:26:06Z</time>
      </trkpt>
      <trkpt lat="43.88381" lon="6.97382">
        <ele>912.4000244</ele>
        <time>2019-12-07T12:26:08Z</time>
      </trkpt>
      <trkpt lat="43.88379" lon="6.97378">
        <ele>913.4000244</ele>
        <time>2019-12-07T12:26:12Z</time>
      </trkpt>
      <trkpt lat="43.88379" lon="6.97376">
        <ele>914.5999756</ele>
        <time>2019-12-07T12:26:15Z</time>
      </trkpt>
      <trkpt lat="43.88377" lon="6.97371">
        <ele>915.5999756</ele>
        <time>2019-12-07T12:26:20Z</time>
      </trkpt>
      <trkpt lat="43.88377" lon="6.97368">
        <ele>916</ele>
        <time>2019-12-07T12:26:22Z</time>
      </trkpt>
      <trkpt lat="43.88375" lon="6.97366">
        <ele>917</ele>
        <time>2019-12-07T12:26:26Z</time>
      </trkpt>
      <trkpt lat="43.88374" lon="6.97364">
        <ele>917.1999512</ele>
        <time>2019-12-07T12:26:29Z</time>
      </trkpt>
      <trkpt lat="43.88371" lon="6.97356">
        <ele>917.4000244</ele>
        <time>2019-12-07T12:26:36Z</time>
      </trkpt>
      <trkpt lat="43.8837" lon="6.97352">
        <ele>917.8000488</ele>
        <time>2019-12-07T12:26:39Z</time>
      </trkpt>
      <trkpt lat="43.88369" lon="6.9735">
        <ele>918</ele>
        <time>2019-12-07T12:26:41Z</time>
      </trkpt>
      <trkpt lat="43.88369" lon="6.97349">
        <ele>917.8000488</ele>
        <time>2019-12-07T12:26:42Z</time>
      </trkpt>
      <trkpt lat="43.88368" lon="6.97344">
        <ele>919</ele>
        <time>2019-12-07T12:26:48Z</time>
      </trkpt>
      <trkpt lat="43.88367" lon="6.97343">
        <ele>919</ele>
        <time>2019-12-07T12:26:58Z</time>
      </trkpt>
      <trkpt lat="43.88367" lon="6.97342">
        <ele>919.1999512</ele>
        <time>2019-12-07T12:26:59Z</time>
      </trkpt>
      <trkpt lat="43.88363" lon="6.97336">
        <ele>919.8000488</ele>
        <time>2019-12-07T12:27:05Z</time>
      </trkpt>
      <trkpt lat="43.88363" lon="6.97335">
        <ele>920</ele>
        <time>2019-12-07T12:27:06Z</time>
      </trkpt>
      <trkpt lat="43.88362" lon="6.97329">
        <ele>920</ele>
        <time>2019-12-07T12:27:10Z</time>
      </trkpt>
      <trkpt lat="43.88359" lon="6.97321">
        <ele>920.8000488</ele>
        <time>2019-12-07T12:27:17Z</time>
      </trkpt>
      <trkpt lat="43.88358" lon="6.97319">
        <ele>921.1999512</ele>
        <time>2019-12-07T12:27:19Z</time>
      </trkpt>
      <trkpt lat="43.88356" lon="6.97312">
        <ele>921.8000488</ele>
        <time>2019-12-07T12:27:25Z</time>
      </trkpt>
      <trkpt lat="43.88353" lon="6.97303">
        <ele>921.8000488</ele>
        <time>2019-12-07T12:27:33Z</time>
      </trkpt>
      <trkpt lat="43.88351" lon="6.97294">
        <ele>921.4000244</ele>
        <time>2019-12-07T12:27:40Z</time>
      </trkpt>
      <trkpt lat="43.88348" lon="6.97283">
        <ele>921.8000488</ele>
        <time>2019-12-07T12:27:47Z</time>
      </trkpt>
      <trkpt lat="43.88348" lon="6.97278">
        <ele>922.4000244</ele>
        <time>2019-12-07T12:27:51Z</time>
      </trkpt>
      <trkpt lat="43.88348" lon="6.97273">
        <ele>923.4000244</ele>
        <time>2019-12-07T12:27:55Z</time>
      </trkpt>
      <trkpt lat="43.88348" lon="6.97273">
        <ele>923.5999756</ele>
        <time>2019-12-07T12:27:56Z</time>
      </trkpt>
      <trkpt lat="43.88346" lon="6.97266">
        <ele>924.5999756</ele>
        <time>2019-12-07T12:28:00Z</time>
      </trkpt>
      <trkpt lat="43.88347" lon="6.97263">
        <ele>925.5999756</ele>
        <time>2019-12-07T12:28:04Z</time>
      </trkpt>
      <trkpt lat="43.88347" lon="6.97261">
        <ele>926</ele>
        <time>2019-12-07T12:28:06Z</time>
      </trkpt>
      <trkpt lat="43.88346" lon="6.97258">
        <ele>926.5999756</ele>
        <time>2019-12-07T12:28:08Z</time>
      </trkpt>
      <trkpt lat="43.88346" lon="6.97257">
        <ele>927</ele>
        <time>2019-12-07T12:28:12Z</time>
      </trkpt>
      <trkpt lat="43.88346" lon="6.97255">
        <ele>927.8000488</ele>
        <time>2019-12-07T12:28:15Z</time>
      </trkpt>
      <trkpt lat="43.88346" lon="6.97251">
        <ele>928.1999512</ele>
        <time>2019-12-07T12:28:18Z</time>
      </trkpt>
      <trkpt lat="43.88346" lon="6.97248">
        <ele>928.8000488</ele>
        <time>2019-12-07T12:28:21Z</time>
      </trkpt>
      <trkpt lat="43.88347" lon="6.97244">
        <ele>929</ele>
        <time>2019-12-07T12:28:26Z</time>
      </trkpt>
      <trkpt lat="43.88346" lon="6.97234">
        <ele>930</ele>
        <time>2019-12-07T12:28:35Z</time>
      </trkpt>
      <trkpt lat="43.88346" lon="6.97232">
        <ele>930</ele>
        <time>2019-12-07T12:28:36Z</time>
      </trkpt>
      <trkpt lat="43.88346" lon="6.97226">
        <ele>931.1999512</ele>
        <time>2019-12-07T12:28:40Z</time>
      </trkpt>
      <trkpt lat="43.88346" lon="6.97223">
        <ele>931.1999512</ele>
        <time>2019-12-07T12:28:43Z</time>
      </trkpt>
      <trkpt lat="43.88346" lon="6.97222">
        <ele>931.4000244</ele>
        <time>2019-12-07T12:28:44Z</time>
      </trkpt>
      <trkpt lat="43.88344" lon="6.97211">
        <ele>932.4000244</ele>
        <time>2019-12-07T12:28:52Z</time>
      </trkpt>
      <trkpt lat="43.88344" lon="6.97203">
        <ele>932.8000488</ele>
        <time>2019-12-07T12:28:58Z</time>
      </trkpt>
      <trkpt lat="43.88344" lon="6.97201">
        <ele>933.4000244</ele>
        <time>2019-12-07T12:29:00Z</time>
      </trkpt>
      <trkpt lat="43.88345" lon="6.97197">
        <ele>934.5999756</ele>
        <time>2019-12-07T12:29:04Z</time>
      </trkpt>
      <trkpt lat="43.88345" lon="6.97196">
        <ele>935</ele>
        <time>2019-12-07T12:29:05Z</time>
      </trkpt>
      <trkpt lat="43.88345" lon="6.97189">
        <ele>935.4000244</ele>
        <time>2019-12-07T12:29:11Z</time>
      </trkpt>
      <trkpt lat="43.88345" lon="6.97186">
        <ele>935.8000488</ele>
        <time>2019-12-07T12:29:13Z</time>
      </trkpt>
      <trkpt lat="43.88345" lon="6.97179">
        <ele>935.8000488</ele>
        <time>2019-12-07T12:29:18Z</time>
      </trkpt>
      <trkpt lat="43.88344" lon="6.97177">
        <ele>935.8000488</ele>
        <time>2019-12-07T12:29:19Z</time>
      </trkpt>
      <trkpt lat="43.88346" lon="6.9717">
        <ele>936</ele>
        <time>2019-12-07T12:29:25Z</time>
      </trkpt>
      <trkpt lat="43.88346" lon="6.97167">
        <ele>936.1999512</ele>
        <time>2019-12-07T12:29:27Z</time>
      </trkpt>
      <trkpt lat="43.88345" lon="6.97161">
        <ele>936.4000244</ele>
        <time>2019-12-07T12:29:31Z</time>
      </trkpt>
      <trkpt lat="43.88345" lon="6.97158">
        <ele>936.8000488</ele>
        <time>2019-12-07T12:29:33Z</time>
      </trkpt>
      <trkpt lat="43.88343" lon="6.9715">
        <ele>938</ele>
        <time>2019-12-07T12:29:40Z</time>
      </trkpt>
      <trkpt lat="43.88342" lon="6.97143">
        <ele>939</ele>
        <time>2019-12-07T12:29:45Z</time>
      </trkpt>
      <trkpt lat="43.88342" lon="6.97141">
        <ele>939.1999512</ele>
        <time>2019-12-07T12:29:46Z</time>
      </trkpt>
      <trkpt lat="43.88341" lon="6.97136">
        <ele>939.4000244</ele>
        <time>2019-12-07T12:29:50Z</time>
      </trkpt>
      <trkpt lat="43.88341" lon="6.97136">
        <ele>939.8000488</ele>
        <time>2019-12-07T12:29:52Z</time>
      </trkpt>
      <trkpt lat="43.88341" lon="6.97132">
        <ele>940.1999512</ele>
        <time>2019-12-07T12:29:58Z</time>
      </trkpt>
      <trkpt lat="43.88342" lon="6.9713">
        <ele>940.4000244</ele>
        <time>2019-12-07T12:29:59Z</time>
      </trkpt>
      <trkpt lat="43.8834" lon="6.97114">
        <ele>940.1999512</ele>
        <time>2019-12-07T12:30:05Z</time>
      </trkpt>
      <trkpt lat="43.88339" lon="6.9711">
        <ele>940</ele>
        <time>2019-12-07T12:30:07Z</time>
      </trkpt>
      <trkpt lat="43.88338" lon="6.97102">
        <ele>940.1999512</ele>
        <time>2019-12-07T12:30:10Z</time>
      </trkpt>
      <trkpt lat="43.88335" lon="6.97086">
        <ele>940</ele>
        <time>2019-12-07T12:30:16Z</time>
      </trkpt>
      <trkpt lat="43.88334" lon="6.9707">
        <ele>939.1999512</ele>
        <time>2019-12-07T12:30:22Z</time>
      </trkpt>
      <trkpt lat="43.88334" lon="6.97067">
        <ele>939</ele>
        <time>2019-12-07T12:30:23Z</time>
      </trkpt>
      <trkpt lat="43.88329" lon="6.97052">
        <ele>938</ele>
        <time>2019-12-07T12:30:29Z</time>
      </trkpt>
      <trkpt lat="43.88327" lon="6.97036">
        <ele>938</ele>
        <time>2019-12-07T12:30:35Z</time>
      </trkpt>
      <trkpt lat="43.88325" lon="6.97033">
        <ele>937.8000488</ele>
        <time>2019-12-07T12:30:40Z</time>
      </trkpt>
      <trkpt lat="43.88324" lon="6.97032">
        <ele>937.5999756</ele>
        <time>2019-12-07T12:30:41Z</time>
      </trkpt>
      <trkpt lat="43.88321" lon="6.97023">
        <ele>937.1999512</ele>
        <time>2019-12-07T12:30:45Z</time>
      </trkpt>
      <trkpt lat="43.88321" lon="6.97021">
        <ele>937</ele>
        <time>2019-12-07T12:30:46Z</time>
      </trkpt>
      <trkpt lat="43.88321" lon="6.9701">
        <ele>935.8000488</ele>
        <time>2019-12-07T12:30:50Z</time>
      </trkpt>
      <trkpt lat="43.8832" lon="6.97005">
        <ele>935.1999512</ele>
        <time>2019-12-07T12:30:52Z</time>
      </trkpt>
      <trkpt lat="43.8832" lon="6.97002">
        <ele>934.8000488</ele>
        <time>2019-12-07T12:30:53Z</time>
      </trkpt>
      <trkpt lat="43.88318" lon="6.96995">
        <ele>933.8000488</ele>
        <time>2019-12-07T12:30:56Z</time>
      </trkpt>
      <trkpt lat="43.88317" lon="6.96993">
        <ele>933.1999512</ele>
        <time>2019-12-07T12:30:57Z</time>
      </trkpt>
      <trkpt lat="43.88315" lon="6.96986">
        <ele>932.8000488</ele>
        <time>2019-12-07T12:31:00Z</time>
      </trkpt>
      <trkpt lat="43.88315" lon="6.96983">
        <ele>932.8000488</ele>
        <time>2019-12-07T12:31:01Z</time>
      </trkpt>
      <trkpt lat="43.88315" lon="6.96978">
        <ele>932.4000244</ele>
        <time>2019-12-07T12:31:03Z</time>
      </trkpt>
      <trkpt lat="43.88314" lon="6.96976">
        <ele>932.1999512</ele>
        <time>2019-12-07T12:31:04Z</time>
      </trkpt>
      <trkpt lat="43.88313" lon="6.96973">
        <ele>931.5999756</ele>
        <time>2019-12-07T12:31:06Z</time>
      </trkpt>
      <trkpt lat="43.8831" lon="6.96964">
        <ele>931</ele>
        <time>2019-12-07T12:31:10Z</time>
      </trkpt>
      <trkpt lat="43.8831" lon="6.96961">
        <ele>931</ele>
        <time>2019-12-07T12:31:11Z</time>
      </trkpt>
      <trkpt lat="43.8831" lon="6.96953">
        <ele>931.1999512</ele>
        <time>2019-12-07T12:31:15Z</time>
      </trkpt>
      <trkpt lat="43.88309" lon="6.96938">
        <ele>932.5999756</ele>
        <time>2019-12-07T12:31:21Z</time>
      </trkpt>
      <trkpt lat="43.88308" lon="6.96935">
        <ele>932.8000488</ele>
        <time>2019-12-07T12:31:22Z</time>
      </trkpt>
      <trkpt lat="43.88306" lon="6.96927">
        <ele>934</ele>
        <time>2019-12-07T12:31:27Z</time>
      </trkpt>
      <trkpt lat="43.88305" lon="6.96918">
        <ele>935</ele>
        <time>2019-12-07T12:31:31Z</time>
      </trkpt>
      <trkpt lat="43.88304" lon="6.96916">
        <ele>935.4000244</ele>
        <time>2019-12-07T12:31:33Z</time>
      </trkpt>
      <trkpt lat="43.88305" lon="6.96913">
        <ele>936.4000244</ele>
        <time>2019-12-07T12:31:35Z</time>
      </trkpt>
      <trkpt lat="43.88304" lon="6.9691">
        <ele>936.4000244</ele>
        <time>2019-12-07T12:31:40Z</time>
      </trkpt>
      <trkpt lat="43.88301" lon="6.96902">
        <ele>937.8000488</ele>
        <time>2019-12-07T12:31:44Z</time>
      </trkpt>
      <trkpt lat="43.883" lon="6.96901">
        <ele>938.1999512</ele>
        <time>2019-12-07T12:31:45Z</time>
      </trkpt>
      <trkpt lat="43.88298" lon="6.96895">
        <ele>938.8000488</ele>
        <time>2019-12-07T12:31:48Z</time>
      </trkpt>
      <trkpt lat="43.88298" lon="6.96892">
        <ele>938.8000488</ele>
        <time>2019-12-07T12:31:49Z</time>
      </trkpt>
      <trkpt lat="43.88297" lon="6.96887">
        <ele>938.8000488</ele>
        <time>2019-12-07T12:31:51Z</time>
      </trkpt>
      <trkpt lat="43.88295" lon="6.96883">
        <ele>939.1999512</ele>
        <time>2019-12-07T12:31:53Z</time>
      </trkpt>
      <trkpt lat="43.88295" lon="6.96879">
        <ele>939.4000244</ele>
        <time>2019-12-07T12:31:54Z</time>
      </trkpt>
      <trkpt lat="43.88295" lon="6.96873">
        <ele>940</ele>
        <time>2019-12-07T12:31:56Z</time>
      </trkpt>
      <trkpt lat="43.88294" lon="6.96856">
        <ele>941</ele>
        <time>2019-12-07T12:32:02Z</time>
      </trkpt>
      <trkpt lat="43.88295" lon="6.96853">
        <ele>940.8000488</ele>
        <time>2019-12-07T12:32:03Z</time>
      </trkpt>
      <trkpt lat="43.88294" lon="6.96845">
        <ele>940.5999756</ele>
        <time>2019-12-07T12:32:06Z</time>
      </trkpt>
      <trkpt lat="43.88294" lon="6.96839">
        <ele>940.8000488</ele>
        <time>2019-12-07T12:32:08Z</time>
      </trkpt>
      <trkpt lat="43.88293" lon="6.96834">
        <ele>941</ele>
        <time>2019-12-07T12:32:10Z</time>
      </trkpt>
      <trkpt lat="43.88292" lon="6.96826">
        <ele>940.8000488</ele>
        <time>2019-12-07T12:32:13Z</time>
      </trkpt>
      <trkpt lat="43.88291" lon="6.96824">
        <ele>940.5999756</ele>
        <time>2019-12-07T12:32:14Z</time>
      </trkpt>
      <trkpt lat="43.88291" lon="6.96817">
        <ele>941.1999512</ele>
        <time>2019-12-07T12:32:17Z</time>
      </trkpt>
      <trkpt lat="43.88291" lon="6.96807">
        <ele>942.4000244</ele>
        <time>2019-12-07T12:32:21Z</time>
      </trkpt>
      <trkpt lat="43.88289" lon="6.96789">
        <ele>941.4000244</ele>
        <time>2019-12-07T12:32:26Z</time>
      </trkpt>
      <trkpt lat="43.88287" lon="6.96765">
        <ele>942</ele>
        <time>2019-12-07T12:32:33Z</time>
      </trkpt>
      <trkpt lat="43.88284" lon="6.96756">
        <ele>941.1999512</ele>
        <time>2019-12-07T12:32:36Z</time>
      </trkpt>
      <trkpt lat="43.8828" lon="6.96743">
        <ele>941</ele>
        <time>2019-12-07T12:32:40Z</time>
      </trkpt>
      <trkpt lat="43.88277" lon="6.96723">
        <ele>941</ele>
        <time>2019-12-07T12:32:46Z</time>
      </trkpt>
      <trkpt lat="43.88273" lon="6.96711">
        <ele>940.4000244</ele>
        <time>2019-12-07T12:32:50Z</time>
      </trkpt>
      <trkpt lat="43.88272" lon="6.96709">
        <ele>940.1999512</ele>
        <time>2019-12-07T12:32:51Z</time>
      </trkpt>
      <trkpt lat="43.8827" lon="6.96695">
        <ele>940</ele>
        <time>2019-12-07T12:32:56Z</time>
      </trkpt>
      <trkpt lat="43.88268" lon="6.96679">
        <ele>939.8000488</ele>
        <time>2019-12-07T12:33:02Z</time>
      </trkpt>
      <trkpt lat="43.88267" lon="6.96676">
        <ele>939.5999756</ele>
        <time>2019-12-07T12:33:03Z</time>
      </trkpt>
      <trkpt lat="43.88266" lon="6.96671">
        <ele>939.1999512</ele>
        <time>2019-12-07T12:33:05Z</time>
      </trkpt>
      <trkpt lat="43.88264" lon="6.96656">
        <ele>938.4000244</ele>
        <time>2019-12-07T12:33:10Z</time>
      </trkpt>
      <trkpt lat="43.88264" lon="6.96649">
        <ele>938.1999512</ele>
        <time>2019-12-07T12:33:12Z</time>
      </trkpt>
      <trkpt lat="43.88263" lon="6.96639">
        <ele>938.5999756</ele>
        <time>2019-12-07T12:33:15Z</time>
      </trkpt>
      <trkpt lat="43.8826" lon="6.96624">
        <ele>939</ele>
        <time>2019-12-07T12:33:20Z</time>
      </trkpt>
      <trkpt lat="43.88257" lon="6.96603">
        <ele>938.4000244</ele>
        <time>2019-12-07T12:33:28Z</time>
      </trkpt>
      <trkpt lat="43.88255" lon="6.96583">
        <ele>937.8000488</ele>
        <time>2019-12-07T12:33:35Z</time>
      </trkpt>
      <trkpt lat="43.88251" lon="6.96567">
        <ele>937.5999756</ele>
        <time>2019-12-07T12:33:41Z</time>
      </trkpt>
      <trkpt lat="43.88251" lon="6.96557">
        <ele>937.4000244</ele>
        <time>2019-12-07T12:33:47Z</time>
      </trkpt>
      <trkpt lat="43.8825" lon="6.96547">
        <ele>937.4000244</ele>
        <time>2019-12-07T12:33:54Z</time>
      </trkpt>
      <trkpt lat="43.88249" lon="6.96545">
        <ele>937.1999512</ele>
        <time>2019-12-07T12:33:57Z</time>
      </trkpt>
      <trkpt lat="43.88248" lon="6.96539">
        <ele>937.4000244</ele>
        <time>2019-12-07T12:34:00Z</time>
      </trkpt>
      <trkpt lat="43.88247" lon="6.96534">
        <ele>938.1999512</ele>
        <time>2019-12-07T12:34:02Z</time>
      </trkpt>
      <trkpt lat="43.88247" lon="6.96526">
        <ele>938.5999756</ele>
        <time>2019-12-07T12:34:05Z</time>
      </trkpt>
      <trkpt lat="43.88247" lon="6.96524">
        <ele>938.8000488</ele>
        <time>2019-12-07T12:34:06Z</time>
      </trkpt>
      <trkpt lat="43.88246" lon="6.96517">
        <ele>938.5999756</ele>
        <time>2019-12-07T12:34:09Z</time>
      </trkpt>
      <trkpt lat="43.88243" lon="6.96507">
        <ele>938.4000244</ele>
        <time>2019-12-07T12:34:13Z</time>
      </trkpt>
      <trkpt lat="43.88241" lon="6.9649">
        <ele>938</ele>
        <time>2019-12-07T12:34:19Z</time>
      </trkpt>
      <trkpt lat="43.88237" lon="6.96472">
        <ele>938.4000244</ele>
        <time>2019-12-07T12:34:25Z</time>
      </trkpt>
      <trkpt lat="43.88234" lon="6.96455">
        <ele>937.8000488</ele>
        <time>2019-12-07T12:34:32Z</time>
      </trkpt>
      <trkpt lat="43.88229" lon="6.96438">
        <ele>937.8000488</ele>
        <time>2019-12-07T12:34:38Z</time>
      </trkpt>
      <trkpt lat="43.88227" lon="6.96424">
        <ele>937</ele>
        <time>2019-12-07T12:34:43Z</time>
      </trkpt>
      <trkpt lat="43.88225" lon="6.96414">
        <ele>936.5999756</ele>
        <time>2019-12-07T12:34:47Z</time>
      </trkpt>
      <trkpt lat="43.88224" lon="6.96407">
        <ele>936.4000244</ele>
        <time>2019-12-07T12:34:50Z</time>
      </trkpt>
      <trkpt lat="43.88224" lon="6.96403">
        <ele>936.1999512</ele>
        <time>2019-12-07T12:34:52Z</time>
      </trkpt>
      <trkpt lat="43.88222" lon="6.96399">
        <ele>935.5999756</ele>
        <time>2019-12-07T12:34:54Z</time>
      </trkpt>
      <trkpt lat="43.88222" lon="6.96392">
        <ele>935.5999756</ele>
        <time>2019-12-07T12:34:57Z</time>
      </trkpt>
      <trkpt lat="43.88221" lon="6.96378">
        <ele>937</ele>
        <time>2019-12-07T12:35:03Z</time>
      </trkpt>
      <trkpt lat="43.88221" lon="6.96376">
        <ele>937.4000244</ele>
        <time>2019-12-07T12:35:04Z</time>
      </trkpt>
      <trkpt lat="43.88218" lon="6.96363">
        <ele>938.1999512</ele>
        <time>2019-12-07T12:35:10Z</time>
      </trkpt>
      <trkpt lat="43.88216" lon="6.96355">
        <ele>939</ele>
        <time>2019-12-07T12:35:14Z</time>
      </trkpt>
      <trkpt lat="43.88214" lon="6.96347">
        <ele>939</ele>
        <time>2019-12-07T12:35:17Z</time>
      </trkpt>
      <trkpt lat="43.88213" lon="6.96346">
        <ele>939</ele>
        <time>2019-12-07T12:35:18Z</time>
      </trkpt>
      <trkpt lat="43.88213" lon="6.96343">
        <ele>939</ele>
        <time>2019-12-07T12:35:21Z</time>
      </trkpt>
      <trkpt lat="43.88213" lon="6.96342">
        <ele>939.4000244</ele>
        <time>2019-12-07T12:35:22Z</time>
      </trkpt>
      <trkpt lat="43.88212" lon="6.96337">
        <ele>940.1999512</ele>
        <time>2019-12-07T12:35:26Z</time>
      </trkpt>
      <trkpt lat="43.88211" lon="6.96336">
        <ele>940.5999756</ele>
        <time>2019-12-07T12:35:30Z</time>
      </trkpt>
      <trkpt lat="43.88211" lon="6.96335">
        <ele>940.8000488</ele>
        <time>2019-12-07T12:35:31Z</time>
      </trkpt>
      <trkpt lat="43.8821" lon="6.96333">
        <ele>941.8000488</ele>
        <time>2019-12-07T12:35:34Z</time>
      </trkpt>
      <trkpt lat="43.8821" lon="6.9633">
        <ele>942.8000488</ele>
        <time>2019-12-07T12:35:37Z</time>
      </trkpt>
      <trkpt lat="43.8821" lon="6.9633">
        <ele>943.1999512</ele>
        <time>2019-12-07T12:35:39Z</time>
      </trkpt>
      <trkpt lat="43.8821" lon="6.96329">
        <ele>943.5999756</ele>
        <time>2019-12-07T12:35:45Z</time>
      </trkpt>
      <trkpt lat="43.88209" lon="6.96328">
        <ele>944.1999512</ele>
        <time>2019-12-07T12:35:50Z</time>
      </trkpt>
      <trkpt lat="43.88208" lon="6.96327">
        <ele>945.8000488</ele>
        <time>2019-12-07T12:35:52Z</time>
      </trkpt>
      <trkpt lat="43.88207" lon="6.96326">
        <ele>947.4000244</ele>
        <time>2019-12-07T12:35:54Z</time>
      </trkpt>
      <trkpt lat="43.88206" lon="6.96323">
        <ele>948.5999756</ele>
        <time>2019-12-07T12:35:59Z</time>
      </trkpt>
      <trkpt lat="43.88206" lon="6.96321">
        <ele>949.5999756</ele>
        <time>2019-12-07T12:36:02Z</time>
      </trkpt>
      <trkpt lat="43.88205" lon="6.96319">
        <ele>950.4000244</ele>
        <time>2019-12-07T12:36:06Z</time>
      </trkpt>
      <trkpt lat="43.88205" lon="6.96317">
        <ele>950.8000488</ele>
        <time>2019-12-07T12:36:07Z</time>
      </trkpt>
      <trkpt lat="43.88204" lon="6.96316">
        <ele>951.1999512</ele>
        <time>2019-12-07T12:36:08Z</time>
      </trkpt>
      <trkpt lat="43.88202" lon="6.96312">
        <ele>950.5999756</ele>
        <time>2019-12-07T12:36:12Z</time>
      </trkpt>
      <trkpt lat="43.88199" lon="6.9631">
        <ele>950.1999512</ele>
        <time>2019-12-07T12:36:19Z</time>
      </trkpt>
      <trkpt lat="43.88198" lon="6.96309">
        <ele>949.8000488</ele>
        <time>2019-12-07T12:36:21Z</time>
      </trkpt>
      <trkpt lat="43.88197" lon="6.96309">
        <ele>950</ele>
        <time>2019-12-07T12:36:25Z</time>
      </trkpt>
      <trkpt lat="43.88195" lon="6.96305">
        <ele>951.1999512</ele>
        <time>2019-12-07T12:36:30Z</time>
      </trkpt>
      <trkpt lat="43.88193" lon="6.96302">
        <ele>952</ele>
        <time>2019-12-07T12:36:37Z</time>
      </trkpt>
      <trkpt lat="43.88193" lon="6.96301">
        <ele>952.1999512</ele>
        <time>2019-12-07T12:36:38Z</time>
      </trkpt>
      <trkpt lat="43.88192" lon="6.96297">
        <ele>953.4000244</ele>
        <time>2019-12-07T12:36:42Z</time>
      </trkpt>
      <trkpt lat="43.88192" lon="6.96294">
        <ele>954.4000244</ele>
        <time>2019-12-07T12:36:45Z</time>
      </trkpt>
      <trkpt lat="43.88191" lon="6.96294">
        <ele>954.8000488</ele>
        <time>2019-12-07T12:36:46Z</time>
      </trkpt>
      <trkpt lat="43.8819" lon="6.96291">
        <ele>956</ele>
        <time>2019-12-07T12:36:49Z</time>
      </trkpt>
      <trkpt lat="43.88189" lon="6.96288">
        <ele>956.5999756</ele>
        <time>2019-12-07T12:36:52Z</time>
      </trkpt>
      <trkpt lat="43.88188" lon="6.96283">
        <ele>957.4000244</ele>
        <time>2019-12-07T12:36:57Z</time>
      </trkpt>
      <trkpt lat="43.88188" lon="6.96282">
        <ele>958</ele>
        <time>2019-12-07T12:36:59Z</time>
      </trkpt>
      <trkpt lat="43.88188" lon="6.96281">
        <ele>958.8000488</ele>
        <time>2019-12-07T12:37:01Z</time>
      </trkpt>
      <trkpt lat="43.88187" lon="6.96279">
        <ele>959.5999756</ele>
        <time>2019-12-07T12:37:04Z</time>
      </trkpt>
      <trkpt lat="43.88187" lon="6.96279">
        <ele>959.8000488</ele>
        <time>2019-12-07T12:37:05Z</time>
      </trkpt>
      <trkpt lat="43.88186" lon="6.96276">
        <ele>960.5999756</ele>
        <time>2019-12-07T12:37:09Z</time>
      </trkpt>
      <trkpt lat="43.88186" lon="6.96274">
        <ele>961</ele>
        <time>2019-12-07T12:37:12Z</time>
      </trkpt>
      <trkpt lat="43.88186" lon="6.96269">
        <ele>961.1999512</ele>
        <time>2019-12-07T12:37:14Z</time>
      </trkpt>
      <trkpt lat="43.88185" lon="6.96263">
        <ele>961.4000244</ele>
        <time>2019-12-07T12:37:18Z</time>
      </trkpt>
      <trkpt lat="43.88184" lon="6.96258">
        <ele>962</ele>
        <time>2019-12-07T12:37:21Z</time>
      </trkpt>
      <trkpt lat="43.88183" lon="6.96254">
        <ele>962.8000488</ele>
        <time>2019-12-07T12:37:25Z</time>
      </trkpt>
      <trkpt lat="43.88182" lon="6.96252">
        <ele>963</ele>
        <time>2019-12-07T12:37:30Z</time>
      </trkpt>
      <trkpt lat="43.88181" lon="6.9625">
        <ele>964</ele>
        <time>2019-12-07T12:37:33Z</time>
      </trkpt>
      <trkpt lat="43.88181" lon="6.9625">
        <ele>964.1999512</ele>
        <time>2019-12-07T12:37:34Z</time>
      </trkpt>
      <trkpt lat="43.8818" lon="6.96252">
        <ele>964.4000244</ele>
        <time>2019-12-07T12:37:39Z</time>
      </trkpt>
      <trkpt lat="43.88179" lon="6.96252">
        <ele>964.5999756</ele>
        <time>2019-12-07T12:37:45Z</time>
      </trkpt>
      <trkpt lat="43.88179" lon="6.96249">
        <ele>965.1999512</ele>
        <time>2019-12-07T12:37:48Z</time>
      </trkpt>
      <trkpt lat="43.88179" lon="6.96249">
        <ele>965.1999512</ele>
        <time>2019-12-07T12:37:49Z</time>
      </trkpt>
      <trkpt lat="43.88179" lon="6.96248">
        <ele>965.5999756</ele>
        <time>2019-12-07T12:37:50Z</time>
      </trkpt>
      <trkpt lat="43.88178" lon="6.96241">
        <ele>964.4000244</ele>
        <time>2019-12-07T12:37:57Z</time>
      </trkpt>
      <trkpt lat="43.88178" lon="6.9624">
        <ele>964.1999512</ele>
        <time>2019-12-07T12:37:58Z</time>
      </trkpt>
      <trkpt lat="43.88178" lon="6.96236">
        <ele>963.4000244</ele>
        <time>2019-12-07T12:38:02Z</time>
      </trkpt>
      <trkpt lat="43.88176" lon="6.96232">
        <ele>964</ele>
        <time>2019-12-07T12:38:08Z</time>
      </trkpt>
      <trkpt lat="43.88175" lon="6.96225">
        <ele>964.1999512</ele>
        <time>2019-12-07T12:38:15Z</time>
      </trkpt>
      <trkpt lat="43.88176" lon="6.96222">
        <ele>965.1999512</ele>
        <time>2019-12-07T12:38:19Z</time>
      </trkpt>
      <trkpt lat="43.88175" lon="6.96217">
        <ele>966.1999512</ele>
        <time>2019-12-07T12:38:24Z</time>
      </trkpt>
      <trkpt lat="43.88173" lon="6.96214">
        <ele>967</ele>
        <time>2019-12-07T12:38:29Z</time>
      </trkpt>
      <trkpt lat="43.88173" lon="6.96215">
        <ele>967</ele>
        <time>2019-12-07T12:38:30Z</time>
      </trkpt>
      <trkpt lat="43.88172" lon="6.96217">
        <ele>967.4000244</ele>
        <time>2019-12-07T12:38:32Z</time>
      </trkpt>
      <trkpt lat="43.88172" lon="6.96222">
        <ele>968.4000244</ele>
        <time>2019-12-07T12:38:36Z</time>
      </trkpt>
      <trkpt lat="43.88171" lon="6.96226">
        <ele>968.5999756</ele>
        <time>2019-12-07T12:38:42Z</time>
      </trkpt>
      <trkpt lat="43.8817" lon="6.96228">
        <ele>969.4000244</ele>
        <time>2019-12-07T12:38:45Z</time>
      </trkpt>
      <trkpt lat="43.88169" lon="6.96228">
        <ele>969.5999756</ele>
        <time>2019-12-07T12:38:48Z</time>
      </trkpt>
      <trkpt lat="43.8817" lon="6.96225">
        <ele>970.4000244</ele>
        <time>2019-12-07T12:38:53Z</time>
      </trkpt>
      <trkpt lat="43.88169" lon="6.96223">
        <ele>970.4000244</ele>
        <time>2019-12-07T12:38:54Z</time>
      </trkpt>
      <trkpt lat="43.88169" lon="6.96219">
        <ele>970.8000488</ele>
        <time>2019-12-07T12:38:59Z</time>
      </trkpt>
      <trkpt lat="43.88169" lon="6.96216">
        <ele>971.1999512</ele>
        <time>2019-12-07T12:39:02Z</time>
      </trkpt>
      <trkpt lat="43.88169" lon="6.96213">
        <ele>971.4000244</ele>
        <time>2019-12-07T12:39:05Z</time>
      </trkpt>
      <trkpt lat="43.88169" lon="6.96212">
        <ele>971.5999756</ele>
        <time>2019-12-07T12:39:06Z</time>
      </trkpt>
      <trkpt lat="43.88169" lon="6.96209">
        <ele>972.5999756</ele>
        <time>2019-12-07T12:39:11Z</time>
      </trkpt>
      <trkpt lat="43.88169" lon="6.96208">
        <ele>972.8000488</ele>
        <time>2019-12-07T12:39:12Z</time>
      </trkpt>
      <trkpt lat="43.88166" lon="6.9621">
        <ele>973.5999756</ele>
        <time>2019-12-07T12:39:17Z</time>
      </trkpt>
      <trkpt lat="43.88166" lon="6.96211">
        <ele>974</ele>
        <time>2019-12-07T12:39:18Z</time>
      </trkpt>
      <trkpt lat="43.88166" lon="6.96208">
        <ele>974.8000488</ele>
        <time>2019-12-07T12:39:25Z</time>
      </trkpt>
      <trkpt lat="43.88166" lon="6.96207">
        <ele>975.1999512</ele>
        <time>2019-12-07T12:39:27Z</time>
      </trkpt>
      <trkpt lat="43.88165" lon="6.96206">
        <ele>976</ele>
        <time>2019-12-07T12:39:31Z</time>
      </trkpt>
      <trkpt lat="43.88164" lon="6.96205">
        <ele>976.4000244</ele>
        <time>2019-12-07T12:39:32Z</time>
      </trkpt>
      <trkpt lat="43.88163" lon="6.96202">
        <ele>977</ele>
        <time>2019-12-07T12:39:38Z</time>
      </trkpt>
      <trkpt lat="43.88163" lon="6.962">
        <ele>977.5999756</ele>
        <time>2019-12-07T12:39:40Z</time>
      </trkpt>
      <trkpt lat="43.88163" lon="6.96197">
        <ele>978.8000488</ele>
        <time>2019-12-07T12:39:44Z</time>
      </trkpt>
      <trkpt lat="43.88163" lon="6.96189">
        <ele>979.5999756</ele>
        <time>2019-12-07T12:39:52Z</time>
      </trkpt>
      <trkpt lat="43.88163" lon="6.96182">
        <ele>979.5999756</ele>
        <time>2019-12-07T12:39:57Z</time>
      </trkpt>
      <trkpt lat="43.88162" lon="6.96176">
        <ele>979.8000488</ele>
        <time>2019-12-07T12:40:04Z</time>
      </trkpt>
      <trkpt lat="43.88162" lon="6.96176">
        <ele>980</ele>
        <time>2019-12-07T12:40:05Z</time>
      </trkpt>
      <trkpt lat="43.88161" lon="6.96173">
        <ele>981.1999512</ele>
        <time>2019-12-07T12:40:11Z</time>
      </trkpt>
      <trkpt lat="43.88161" lon="6.96172">
        <ele>981.4000244</ele>
        <time>2019-12-07T12:40:12Z</time>
      </trkpt>
      <trkpt lat="43.88161" lon="6.9617">
        <ele>982.1999512</ele>
        <time>2019-12-07T12:40:15Z</time>
      </trkpt>
      <trkpt lat="43.88162" lon="6.96169">
        <ele>983.1999512</ele>
        <time>2019-12-07T12:40:17Z</time>
      </trkpt>
      <trkpt lat="43.88161" lon="6.96168">
        <ele>983.5999756</ele>
        <time>2019-12-07T12:40:19Z</time>
      </trkpt>
      <trkpt lat="43.88161" lon="6.96164">
        <ele>984.1999512</ele>
        <time>2019-12-07T12:40:26Z</time>
      </trkpt>
      <trkpt lat="43.88161" lon="6.96163">
        <ele>984.5999756</ele>
        <time>2019-12-07T12:40:27Z</time>
      </trkpt>
      <trkpt lat="43.8816" lon="6.96158">
        <ele>985.1999512</ele>
        <time>2019-12-07T12:40:34Z</time>
      </trkpt>
      <trkpt lat="43.8816" lon="6.96157">
        <ele>985.8000488</ele>
        <time>2019-12-07T12:40:37Z</time>
      </trkpt>
      <trkpt lat="43.8816" lon="6.96153">
        <ele>986.4000244</ele>
        <time>2019-12-07T12:40:41Z</time>
      </trkpt>
      <trkpt lat="43.88159" lon="6.9615">
        <ele>987</ele>
        <time>2019-12-07T12:40:48Z</time>
      </trkpt>
      <trkpt lat="43.88158" lon="6.96147">
        <ele>987.8000488</ele>
        <time>2019-12-07T12:40:54Z</time>
      </trkpt>
      <trkpt lat="43.88158" lon="6.96146">
        <ele>988</ele>
        <time>2019-12-07T12:40:57Z</time>
      </trkpt>
      <trkpt lat="43.88158" lon="6.96144">
        <ele>989</ele>
        <time>2019-12-07T12:41:01Z</time>
      </trkpt>
      <trkpt lat="43.88158" lon="6.96143">
        <ele>989.1999512</ele>
        <time>2019-12-07T12:41:02Z</time>
      </trkpt>
      <trkpt lat="43.88157" lon="6.96141">
        <ele>989.8000488</ele>
        <time>2019-12-07T12:41:07Z</time>
      </trkpt>
      <trkpt lat="43.88156" lon="6.9614">
        <ele>990</ele>
        <time>2019-12-07T12:41:15Z</time>
      </trkpt>
      <trkpt lat="43.88156" lon="6.96138">
        <ele>990.1999512</ele>
        <time>2019-12-07T12:41:18Z</time>
      </trkpt>
      <trkpt lat="43.88155" lon="6.96137">
        <ele>991.1999512</ele>
        <time>2019-12-07T12:41:21Z</time>
      </trkpt>
      <trkpt lat="43.88155" lon="6.96137">
        <ele>991.5999756</ele>
        <time>2019-12-07T12:41:23Z</time>
      </trkpt>
      <trkpt lat="43.88154" lon="6.96133">
        <ele>992.1999512</ele>
        <time>2019-12-07T12:41:29Z</time>
      </trkpt>
      <trkpt lat="43.88154" lon="6.96132">
        <ele>992.4000244</ele>
        <time>2019-12-07T12:41:30Z</time>
      </trkpt>
      <trkpt lat="43.88153" lon="6.96131">
        <ele>993.4000244</ele>
        <time>2019-12-07T12:41:35Z</time>
      </trkpt>
      <trkpt lat="43.88153" lon="6.96131">
        <ele>993.4000244</ele>
        <time>2019-12-07T12:41:36Z</time>
      </trkpt>
      <trkpt lat="43.88153" lon="6.96128">
        <ele>993.5999756</ele>
        <time>2019-12-07T12:41:41Z</time>
      </trkpt>
      <trkpt lat="43.88152" lon="6.96121">
        <ele>994.4000244</ele>
        <time>2019-12-07T12:41:50Z</time>
      </trkpt>
      <trkpt lat="43.88152" lon="6.96119">
        <ele>994.5999756</ele>
        <time>2019-12-07T12:41:51Z</time>
      </trkpt>
      <trkpt lat="43.88152" lon="6.96117">
        <ele>995.4000244</ele>
        <time>2019-12-07T12:41:55Z</time>
      </trkpt>
      <trkpt lat="43.88152" lon="6.96112">
        <ele>994.8000488</ele>
        <time>2019-12-07T12:42:02Z</time>
      </trkpt>
      <trkpt lat="43.88151" lon="6.96111">
        <ele>994.5999756</ele>
        <time>2019-12-07T12:42:07Z</time>
      </trkpt>
      <trkpt lat="43.88151" lon="6.96104">
        <ele>994.4000244</ele>
        <time>2019-12-07T12:42:13Z</time>
      </trkpt>
      <trkpt lat="43.88151" lon="6.96097">
        <ele>994.8000488</ele>
        <time>2019-12-07T12:42:19Z</time>
      </trkpt>
      <trkpt lat="43.8815" lon="6.96095">
        <ele>995</ele>
        <time>2019-12-07T12:42:26Z</time>
      </trkpt>
      <trkpt lat="43.88148" lon="6.96089">
        <ele>995.5999756</ele>
        <time>2019-12-07T12:42:32Z</time>
      </trkpt>
      <trkpt lat="43.88148" lon="6.96087">
        <ele>996</ele>
        <time>2019-12-07T12:42:34Z</time>
      </trkpt>
      <trkpt lat="43.88146" lon="6.96078">
        <ele>996.1999512</ele>
        <time>2019-12-07T12:42:41Z</time>
      </trkpt>
      <trkpt lat="43.88145" lon="6.96075">
        <ele>996.8000488</ele>
        <time>2019-12-07T12:42:44Z</time>
      </trkpt>
      <trkpt lat="43.88146" lon="6.96074">
        <ele>997.1999512</ele>
        <time>2019-12-07T12:42:48Z</time>
      </trkpt>
      <trkpt lat="43.88145" lon="6.96073">
        <ele>997.5999756</ele>
        <time>2019-12-07T12:42:56Z</time>
      </trkpt>
      <trkpt lat="43.88145" lon="6.96073">
        <ele>997.5999756</ele>
        <time>2019-12-07T12:43:12Z</time>
      </trkpt>
      <trkpt lat="43.88145" lon="6.96073">
        <ele>997.5999756</ele>
        <time>2019-12-07T12:43:26Z</time>
      </trkpt>
      <trkpt lat="43.88145" lon="6.96073">
        <ele>997.5999756</ele>
        <time>2019-12-07T12:43:36Z</time>
      </trkpt>
      <trkpt lat="43.88145" lon="6.96073">
        <ele>997.5999756</ele>
        <time>2019-12-07T12:43:47Z</time>
      </trkpt>
      <trkpt lat="43.88145" lon="6.96073">
        <ele>997.5999756</ele>
        <time>2019-12-07T12:44:05Z</time>
      </trkpt>
      <trkpt lat="43.88146" lon="6.96073">
        <ele>997.5999756</ele>
        <time>2019-12-07T12:44:20Z</time>
      </trkpt>
      <trkpt lat="43.88146" lon="6.96073">
        <ele>997.5999756</ele>
        <time>2019-12-07T12:44:29Z</time>
      </trkpt>
      <trkpt lat="43.88146" lon="6.96073">
        <ele>997.5999756</ele>
        <time>2019-12-07T12:44:36Z</time>
      </trkpt>
      <trkpt lat="43.88145" lon="6.96071">
        <ele>997.5999756</ele>
        <time>2019-12-07T12:44:44Z</time>
      </trkpt>
      <trkpt lat="43.88141" lon="6.96065">
        <ele>996.5999756</ele>
        <time>2019-12-07T12:44:51Z</time>
      </trkpt>
      <trkpt lat="43.8814" lon="6.96066">
        <ele>996</ele>
        <time>2019-12-07T12:44:54Z</time>
      </trkpt>
      <trkpt lat="43.88139" lon="6.96069">
        <ele>996</ele>
        <time>2019-12-07T12:44:57Z</time>
      </trkpt>
      <trkpt lat="43.8814" lon="6.96071">
        <ele>996</ele>
        <time>2019-12-07T12:44:58Z</time>
      </trkpt>
      <trkpt lat="43.8814" lon="6.96077">
        <ele>997.5999756</ele>
        <time>2019-12-07T12:45:04Z</time>
      </trkpt>
      <trkpt lat="43.88141" lon="6.96076">
        <ele>997.8000488</ele>
        <time>2019-12-07T12:45:05Z</time>
      </trkpt>
      <trkpt lat="43.8814" lon="6.96074">
        <ele>998.8000488</ele>
        <time>2019-12-07T12:45:09Z</time>
      </trkpt>
      <trkpt lat="43.8814" lon="6.96072">
        <ele>999</ele>
        <time>2019-12-07T12:45:10Z</time>
      </trkpt>
      <trkpt lat="43.88139" lon="6.96068">
        <ele>1000.4000244</ele>
        <time>2019-12-07T12:45:14Z</time>
      </trkpt>
      <trkpt lat="43.88139" lon="6.96066">
        <ele>1001.4000244</ele>
        <time>2019-12-07T12:45:17Z</time>
      </trkpt>
      <trkpt lat="43.88139" lon="6.96065">
        <ele>1001.8000488</ele>
        <time>2019-12-07T12:45:18Z</time>
      </trkpt>
      <trkpt lat="43.88137" lon="6.96062">
        <ele>1002.8000488</ele>
        <time>2019-12-07T12:45:21Z</time>
      </trkpt>
      <trkpt lat="43.88137" lon="6.9606">
        <ele>1003.8000488</ele>
        <time>2019-12-07T12:45:24Z</time>
      </trkpt>
      <trkpt lat="43.88136" lon="6.96058">
        <ele>1004.8000488</ele>
        <time>2019-12-07T12:45:27Z</time>
      </trkpt>
      <trkpt lat="43.88135" lon="6.96055">
        <ele>1006</ele>
        <time>2019-12-07T12:45:30Z</time>
      </trkpt>
      <trkpt lat="43.88135" lon="6.96054">
        <ele>1006.1999512</ele>
        <time>2019-12-07T12:45:31Z</time>
      </trkpt>
      <trkpt lat="43.88134" lon="6.96053">
        <ele>1007</ele>
        <time>2019-12-07T12:45:34Z</time>
      </trkpt>
      <trkpt lat="43.88134" lon="6.96051">
        <ele>1007.5999756</ele>
        <time>2019-12-07T12:45:37Z</time>
      </trkpt>
      <trkpt lat="43.88133" lon="6.96049">
        <ele>1008.4000244</ele>
        <time>2019-12-07T12:45:40Z</time>
      </trkpt>
      <trkpt lat="43.88132" lon="6.96047">
        <ele>1009.4000244</ele>
        <time>2019-12-07T12:45:44Z</time>
      </trkpt>
      <trkpt lat="43.88131" lon="6.96045">
        <ele>1010</ele>
        <time>2019-12-07T12:45:46Z</time>
      </trkpt>
      <trkpt lat="43.88131" lon="6.96045">
        <ele>1010.5999756</ele>
        <time>2019-12-07T12:45:48Z</time>
      </trkpt>
      <trkpt lat="43.8813" lon="6.96042">
        <ele>1011.4000244</ele>
        <time>2019-12-07T12:45:53Z</time>
      </trkpt>
      <trkpt lat="43.8813" lon="6.96041">
        <ele>1011.5999756</ele>
        <time>2019-12-07T12:45:54Z</time>
      </trkpt>
      <trkpt lat="43.88128" lon="6.96037">
        <ele>1013</ele>
        <time>2019-12-07T12:46:00Z</time>
      </trkpt>
      <trkpt lat="43.88128" lon="6.96036">
        <ele>1013</ele>
        <time>2019-12-07T12:46:01Z</time>
      </trkpt>
      <trkpt lat="43.88127" lon="6.96035">
        <ele>1013.5999756</ele>
        <time>2019-12-07T12:46:08Z</time>
      </trkpt>
      <trkpt lat="43.88126" lon="6.96034">
        <ele>1014</ele>
        <time>2019-12-07T12:46:11Z</time>
      </trkpt>
      <trkpt lat="43.88126" lon="6.96035">
        <ele>1014.4000244</ele>
        <time>2019-12-07T12:46:14Z</time>
      </trkpt>
      <trkpt lat="43.88125" lon="6.96038">
        <ele>1015.1999512</ele>
        <time>2019-12-07T12:46:18Z</time>
      </trkpt>
      <trkpt lat="43.88125" lon="6.96037">
        <ele>1015.8000488</ele>
        <time>2019-12-07T12:46:23Z</time>
      </trkpt>
      <trkpt lat="43.88124" lon="6.96036">
        <ele>1016</ele>
        <time>2019-12-07T12:46:24Z</time>
      </trkpt>
      <trkpt lat="43.88124" lon="6.96034">
        <ele>1016.1999512</ele>
        <time>2019-12-07T12:46:25Z</time>
      </trkpt>
      <trkpt lat="43.88123" lon="6.96031">
        <ele>1016.1999512</ele>
        <time>2019-12-07T12:46:29Z</time>
      </trkpt>
      <trkpt lat="43.8812" lon="6.96023">
        <ele>1016.4000244</ele>
        <time>2019-12-07T12:46:37Z</time>
      </trkpt>
      <trkpt lat="43.88117" lon="6.96016">
        <ele>1017.1999512</ele>
        <time>2019-12-07T12:46:45Z</time>
      </trkpt>
      <trkpt lat="43.88116" lon="6.96012">
        <ele>1017.4000244</ele>
        <time>2019-12-07T12:46:49Z</time>
      </trkpt>
      <trkpt lat="43.88115" lon="6.9601">
        <ele>1017.5999756</ele>
        <time>2019-12-07T12:46:52Z</time>
      </trkpt>
      <trkpt lat="43.88114" lon="6.96008">
        <ele>1018.5999756</ele>
        <time>2019-12-07T12:46:55Z</time>
      </trkpt>
      <trkpt lat="43.88113" lon="6.96005">
        <ele>1019.8000488</ele>
        <time>2019-12-07T12:46:59Z</time>
      </trkpt>
      <trkpt lat="43.88111" lon="6.96003">
        <ele>1021</ele>
        <time>2019-12-07T12:47:03Z</time>
      </trkpt>
      <trkpt lat="43.88109" lon="6.96001">
        <ele>1021.5999756</ele>
        <time>2019-12-07T12:47:06Z</time>
      </trkpt>
      <trkpt lat="43.88108" lon="6.95999">
        <ele>1022.1999512</ele>
        <time>2019-12-07T12:47:10Z</time>
      </trkpt>
      <trkpt lat="43.88107" lon="6.95998">
        <ele>1023.4000244</ele>
        <time>2019-12-07T12:47:13Z</time>
      </trkpt>
      <trkpt lat="43.88105" lon="6.95996">
        <ele>1024.4000244</ele>
        <time>2019-12-07T12:47:19Z</time>
      </trkpt>
      <trkpt lat="43.88104" lon="6.95995">
        <ele>1024.5999756</ele>
        <time>2019-12-07T12:47:20Z</time>
      </trkpt>
      <trkpt lat="43.88103" lon="6.95992">
        <ele>1025.5999756</ele>
        <time>2019-12-07T12:47:26Z</time>
      </trkpt>
      <trkpt lat="43.88102" lon="6.9599">
        <ele>1025.8000488</ele>
        <time>2019-12-07T12:47:28Z</time>
      </trkpt>
      <trkpt lat="43.881" lon="6.95985">
        <ele>1026.8000488</ele>
        <time>2019-12-07T12:47:34Z</time>
      </trkpt>
      <trkpt lat="43.88098" lon="6.95983">
        <ele>1027.4000244</ele>
        <time>2019-12-07T12:47:36Z</time>
      </trkpt>
      <trkpt lat="43.88098" lon="6.95983">
        <ele>1027.8000488</ele>
        <time>2019-12-07T12:47:37Z</time>
      </trkpt>
      <trkpt lat="43.88096" lon="6.95982">
        <ele>1028.5999756</ele>
        <time>2019-12-07T12:47:42Z</time>
      </trkpt>
      <trkpt lat="43.88096" lon="6.9598">
        <ele>1029</ele>
        <time>2019-12-07T12:47:44Z</time>
      </trkpt>
      <trkpt lat="43.88094" lon="6.95978">
        <ele>1030.1999512</ele>
        <time>2019-12-07T12:47:48Z</time>
      </trkpt>
      <trkpt lat="43.88093" lon="6.95972">
        <ele>1030.1999512</ele>
        <time>2019-12-07T12:47:54Z</time>
      </trkpt>
      <trkpt lat="43.8809" lon="6.95967">
        <ele>1031.4000244</ele>
        <time>2019-12-07T12:47:59Z</time>
      </trkpt>
      <trkpt lat="43.8809" lon="6.95966">
        <ele>1031.5999756</ele>
        <time>2019-12-07T12:48:00Z</time>
      </trkpt>
      <trkpt lat="43.88088" lon="6.95964">
        <ele>1031.4000244</ele>
        <time>2019-12-07T12:48:03Z</time>
      </trkpt>
      <trkpt lat="43.88087" lon="6.95962">
        <ele>1031.5999756</ele>
        <time>2019-12-07T12:48:06Z</time>
      </trkpt>
      <trkpt lat="43.88086" lon="6.95958">
        <ele>1032.4000244</ele>
        <time>2019-12-07T12:48:09Z</time>
      </trkpt>
      <trkpt lat="43.88085" lon="6.95957">
        <ele>1032.8000488</ele>
        <time>2019-12-07T12:48:12Z</time>
      </trkpt>
      <trkpt lat="43.88083" lon="6.95955">
        <ele>1033.4000244</ele>
        <time>2019-12-07T12:48:18Z</time>
      </trkpt>
      <trkpt lat="43.88082" lon="6.95954">
        <ele>1033.5999756</ele>
        <time>2019-12-07T12:48:19Z</time>
      </trkpt>
      <trkpt lat="43.88081" lon="6.95952">
        <ele>1034.5999756</ele>
        <time>2019-12-07T12:48:22Z</time>
      </trkpt>
      <trkpt lat="43.8808" lon="6.95951">
        <ele>1034.4000244</ele>
        <time>2019-12-07T12:48:25Z</time>
      </trkpt>
      <trkpt lat="43.88077" lon="6.95946">
        <ele>1035.1999512</ele>
        <time>2019-12-07T12:48:31Z</time>
      </trkpt>
      <trkpt lat="43.88074" lon="6.95943">
        <ele>1034.8000488</ele>
        <time>2019-12-07T12:48:37Z</time>
      </trkpt>
      <trkpt lat="43.88073" lon="6.95942">
        <ele>1034.4000244</ele>
        <time>2019-12-07T12:48:43Z</time>
      </trkpt>
      <trkpt lat="43.8807" lon="6.95939">
        <ele>1033.5999756</ele>
        <time>2019-12-07T12:48:50Z</time>
      </trkpt>
      <trkpt lat="43.88068" lon="6.95941">
        <ele>1035.4000244</ele>
        <time>2019-12-07T12:48:56Z</time>
      </trkpt>
      <trkpt lat="43.88068" lon="6.95943">
        <ele>1035.5999756</ele>
        <time>2019-12-07T12:48:58Z</time>
      </trkpt>
      <trkpt lat="43.88067" lon="6.95944">
        <ele>1036.5999756</ele>
        <time>2019-12-07T12:49:02Z</time>
      </trkpt>
      <trkpt lat="43.88065" lon="6.95946">
        <ele>1037.8000488</ele>
        <time>2019-12-07T12:49:06Z</time>
      </trkpt>
      <trkpt lat="43.88063" lon="6.95948">
        <ele>1038.8000488</ele>
        <time>2019-12-07T12:49:10Z</time>
      </trkpt>
      <trkpt lat="43.88063" lon="6.95949">
        <ele>1039</ele>
        <time>2019-12-07T12:49:11Z</time>
      </trkpt>
      <trkpt lat="43.88061" lon="6.9595">
        <ele>1040</ele>
        <time>2019-12-07T12:49:15Z</time>
      </trkpt>
      <trkpt lat="43.88061" lon="6.95951">
        <ele>1040.4000244</ele>
        <time>2019-12-07T12:49:16Z</time>
      </trkpt>
      <trkpt lat="43.8806" lon="6.95952">
        <ele>1041</ele>
        <time>2019-12-07T12:49:18Z</time>
      </trkpt>
      <trkpt lat="43.88059" lon="6.95956">
        <ele>1040.5999756</ele>
        <time>2019-12-07T12:49:22Z</time>
      </trkpt>
      <trkpt lat="43.88059" lon="6.95957">
        <ele>1040.4000244</ele>
        <time>2019-12-07T12:49:23Z</time>
      </trkpt>
      <trkpt lat="43.88059" lon="6.95959">
        <ele>1039.8000488</ele>
        <time>2019-12-07T12:49:24Z</time>
      </trkpt>
      <trkpt lat="43.88059" lon="6.95961">
        <ele>1038.8000488</ele>
        <time>2019-12-07T12:49:26Z</time>
      </trkpt>
      <trkpt lat="43.8806" lon="6.95964">
        <ele>1037.4000244</ele>
        <time>2019-12-07T12:49:28Z</time>
      </trkpt>
      <trkpt lat="43.8806" lon="6.95965">
        <ele>1036.5999756</ele>
        <time>2019-12-07T12:49:29Z</time>
      </trkpt>
      <trkpt lat="43.8806" lon="6.95966">
        <ele>1036</ele>
        <time>2019-12-07T12:49:30Z</time>
      </trkpt>
      <trkpt lat="43.88061" lon="6.95967">
        <ele>1034.1999512</ele>
        <time>2019-12-07T12:49:32Z</time>
      </trkpt>
      <trkpt lat="43.88062" lon="6.95968">
        <ele>1033.1999512</ele>
        <time>2019-12-07T12:49:33Z</time>
      </trkpt>
      <trkpt lat="43.88062" lon="6.95969">
        <ele>1032.4000244</ele>
        <time>2019-12-07T12:49:34Z</time>
      </trkpt>
      <trkpt lat="43.88063" lon="6.9597">
        <ele>1030.4000244</ele>
        <time>2019-12-07T12:49:36Z</time>
      </trkpt>
      <trkpt lat="43.88064" lon="6.95972">
        <ele>1028.8000488</ele>
        <time>2019-12-07T12:49:38Z</time>
      </trkpt>
      <trkpt lat="43.88065" lon="6.95974">
        <ele>1027.1999512</ele>
        <time>2019-12-07T12:49:40Z</time>
      </trkpt>
      <trkpt lat="43.88066" lon="6.95975">
        <ele>1025.4000244</ele>
        <time>2019-12-07T12:49:42Z</time>
      </trkpt>
      <trkpt lat="43.88066" lon="6.95977">
        <ele>1023.5999756</ele>
        <time>2019-12-07T12:49:44Z</time>
      </trkpt>
      <trkpt lat="43.88067" lon="6.95979">
        <ele>1021.8000488</ele>
        <time>2019-12-07T12:49:46Z</time>
      </trkpt>
      <trkpt lat="43.88068" lon="6.95981">
        <ele>1020.5999756</ele>
        <time>2019-12-07T12:49:48Z</time>
      </trkpt>
      <trkpt lat="43.88069" lon="6.95982">
        <ele>1019.1999512</ele>
        <time>2019-12-07T12:49:50Z</time>
      </trkpt>
      <trkpt lat="43.8807" lon="6.95984">
        <ele>1018.1999512</ele>
        <time>2019-12-07T12:49:52Z</time>
      </trkpt>
      <trkpt lat="43.88071" lon="6.95985">
        <ele>1017</ele>
        <time>2019-12-07T12:49:54Z</time>
      </trkpt>
      <trkpt lat="43.88071" lon="6.95987">
        <ele>1015.5999756</ele>
        <time>2019-12-07T12:49:56Z</time>
      </trkpt>
      <trkpt lat="43.88072" lon="6.95987">
        <ele>1015</ele>
        <time>2019-12-07T12:49:57Z</time>
      </trkpt>
      <trkpt lat="43.88071" lon="6.95982">
        <ele>1018</ele>
        <time>2019-12-07T12:49:59Z</time>
      </trkpt>
      <trkpt lat="43.88071" lon="6.9598">
        <ele>1019.1999512</ele>
        <time>2019-12-07T12:50:00Z</time>
      </trkpt>
      <trkpt lat="43.88071" lon="6.9598">
        <ele>1019.1999512</ele>
        <time>2019-12-07T12:50:05Z</time>
      </trkpt>
      <trkpt lat="43.88071" lon="6.9598">
        <ele>1019.1999512</ele>
        <time>2019-12-07T12:50:18Z</time>
      </trkpt>
      <trkpt lat="43.88071" lon="6.9598">
        <ele>1019.1999512</ele>
        <time>2019-12-07T12:50:31Z</time>
      </trkpt>
      <trkpt lat="43.88069" lon="6.95977">
        <ele>1020.5999756</ele>
        <time>2019-12-07T12:50:40Z</time>
      </trkpt>
      <trkpt lat="43.88069" lon="6.95977">
        <ele>1020.5999756</ele>
        <time>2019-12-07T12:50:46Z</time>
      </trkpt>
      <trkpt lat="43.88069" lon="6.95977">
        <ele>1020.5999756</ele>
        <time>2019-12-07T12:51:00Z</time>
      </trkpt>
      <trkpt lat="43.88069" lon="6.95977">
        <ele>1020.5999756</ele>
        <time>2019-12-07T12:51:15Z</time>
      </trkpt>
      <trkpt lat="43.88068" lon="6.95975">
        <ele>1021.8000488</ele>
        <time>2019-12-07T12:51:20Z</time>
      </trkpt>
      <trkpt lat="43.88068" lon="6.95975">
        <ele>1021.8000488</ele>
        <time>2019-12-07T12:51:29Z</time>
      </trkpt>
      <trkpt lat="43.88068" lon="6.95975">
        <ele>1021.8000488</ele>
        <time>2019-12-07T12:51:42Z</time>
      </trkpt>
      <trkpt lat="43.88068" lon="6.95975">
        <ele>1021.8000488</ele>
        <time>2019-12-07T12:51:52Z</time>
      </trkpt>
      <trkpt lat="43.88068" lon="6.95973">
        <ele>1022.4000244</ele>
        <time>2019-12-07T12:52:07Z</time>
      </trkpt>
      <trkpt lat="43.88068" lon="6.95973">
        <ele>1022.4000244</ele>
        <time>2019-12-07T12:52:20Z</time>
      </trkpt>
      <trkpt lat="43.88068" lon="6.95973">
        <ele>1022.4000244</ele>
        <time>2019-12-07T12:52:36Z</time>
      </trkpt>
      <trkpt lat="43.88067" lon="6.95972">
        <ele>1023.1999512</ele>
        <time>2019-12-07T12:52:40Z</time>
      </trkpt>
      <trkpt lat="43.88067" lon="6.95972">
        <ele>1023.1999512</ele>
        <time>2019-12-07T12:52:49Z</time>
      </trkpt>
      <trkpt lat="43.88067" lon="6.95972">
        <ele>1023.1999512</ele>
        <time>2019-12-07T12:53:03Z</time>
      </trkpt>
      <trkpt lat="43.88067" lon="6.95972">
        <ele>1023.1999512</ele>
        <time>2019-12-07T12:53:19Z</time>
      </trkpt>
      <trkpt lat="43.88066" lon="6.95969">
        <ele>1024.4000244</ele>
        <time>2019-12-07T12:53:20Z</time>
      </trkpt>
      <trkpt lat="43.88066" lon="6.95969">
        <ele>1024.4000244</ele>
        <time>2019-12-07T12:53:35Z</time>
      </trkpt>
      <trkpt lat="43.88066" lon="6.95969">
        <ele>1024.4000244</ele>
        <time>2019-12-07T12:53:50Z</time>
      </trkpt>
      <trkpt lat="43.88066" lon="6.95969">
        <ele>1025.1999512</ele>
        <time>2019-12-07T12:54:03Z</time>
      </trkpt>
      <trkpt lat="43.88066" lon="6.95969">
        <ele>1025.1999512</ele>
        <time>2019-12-07T12:54:18Z</time>
      </trkpt>
      <trkpt lat="43.88066" lon="6.95969">
        <ele>1025.1999512</ele>
        <time>2019-12-07T12:54:34Z</time>
      </trkpt>
      <trkpt lat="43.88065" lon="6.95968">
        <ele>1026</ele>
        <time>2019-12-07T12:54:40Z</time>
      </trkpt>
      <trkpt lat="43.88065" lon="6.95968">
        <ele>1026</ele>
        <time>2019-12-07T12:54:48Z</time>
      </trkpt>
      <trkpt lat="43.88065" lon="6.95968">
        <ele>1026</ele>
        <time>2019-12-07T12:55:06Z</time>
      </trkpt>
      <trkpt lat="43.88065" lon="6.95968">
        <ele>1026</ele>
        <time>2019-12-07T12:55:19Z</time>
      </trkpt>
      <trkpt lat="43.88065" lon="6.95967">
        <ele>1026.4000244</ele>
        <time>2019-12-07T12:55:35Z</time>
      </trkpt>
      <trkpt lat="43.88065" lon="6.95967">
        <ele>1026.4000244</ele>
        <time>2019-12-07T12:55:51Z</time>
      </trkpt>
      <trkpt lat="43.88065" lon="6.95966">
        <ele>1027.1999512</ele>
        <time>2019-12-07T12:56:00Z</time>
      </trkpt>
      <trkpt lat="43.88065" lon="6.95966">
        <ele>1027.1999512</ele>
        <time>2019-12-07T12:56:06Z</time>
      </trkpt>
      <trkpt lat="43.88065" lon="6.95966">
        <ele>1027.1999512</ele>
        <time>2019-12-07T12:56:22Z</time>
      </trkpt>
      <trkpt lat="43.88065" lon="6.95966">
        <ele>1027.1999512</ele>
        <time>2019-12-07T12:56:38Z</time>
      </trkpt>
      <trkpt lat="43.88064" lon="6.95965">
        <ele>1028</ele>
        <time>2019-12-07T12:56:54Z</time>
      </trkpt>
      <trkpt lat="43.88064" lon="6.95965">
        <ele>1028</ele>
        <time>2019-12-07T12:57:14Z</time>
      </trkpt>
      <trkpt lat="43.88064" lon="6.95964">
        <ele>1028.4000244</ele>
        <time>2019-12-07T12:57:20Z</time>
      </trkpt>
      <trkpt lat="43.88064" lon="6.95964">
        <ele>1028.4000244</ele>
        <time>2019-12-07T12:57:36Z</time>
      </trkpt>
      <trkpt lat="43.88064" lon="6.95964">
        <ele>1028.4000244</ele>
        <time>2019-12-07T12:57:55Z</time>
      </trkpt>
      <trkpt lat="43.88063" lon="6.95963">
        <ele>1029.4000244</ele>
        <time>2019-12-07T12:58:14Z</time>
      </trkpt>
      <trkpt lat="43.88063" lon="6.95963">
        <ele>1029.4000244</ele>
        <time>2019-12-07T12:58:33Z</time>
      </trkpt>
      <trkpt lat="43.88063" lon="6.95962">
        <ele>1030.5999756</ele>
        <time>2019-12-07T12:58:40Z</time>
      </trkpt>
      <trkpt lat="43.88063" lon="6.95962">
        <ele>1030.5999756</ele>
        <time>2019-12-07T12:58:52Z</time>
      </trkpt>
      <trkpt lat="43.88063" lon="6.95962">
        <ele>1030.5999756</ele>
        <time>2019-12-07T12:59:13Z</time>
      </trkpt>
      <trkpt lat="43.88062" lon="6.95961">
        <ele>1031.5999756</ele>
        <time>2019-12-07T12:59:20Z</time>
      </trkpt>
      <trkpt lat="43.88062" lon="6.95961">
        <ele>1031.5999756</ele>
        <time>2019-12-07T12:59:32Z</time>
      </trkpt>
      <trkpt lat="43.88062" lon="6.9596">
        <ele>1031.5999756</ele>
        <time>2019-12-07T12:59:48Z</time>
      </trkpt>
      <trkpt lat="43.88061" lon="6.95963">
        <ele>1033.4000244</ele>
        <time>2019-12-07T12:59:50Z</time>
      </trkpt>
      <trkpt lat="43.88061" lon="6.95963">
        <ele>1034</ele>
        <time>2019-12-07T12:59:52Z</time>
      </trkpt>
      <trkpt lat="43.8806" lon="6.95964">
        <ele>1034.5999756</ele>
        <time>2019-12-07T12:59:56Z</time>
      </trkpt>
      <trkpt lat="43.88059" lon="6.95967">
        <ele>1035.1999512</ele>
        <time>2019-12-07T12:59:58Z</time>
      </trkpt>
      <trkpt lat="43.88059" lon="6.95968">
        <ele>1035.5999756</ele>
        <time>2019-12-07T12:59:59Z</time>
      </trkpt>
      <trkpt lat="43.88059" lon="6.95973">
        <ele>1037</ele>
        <time>2019-12-07T13:00:03Z</time>
      </trkpt>
      <trkpt lat="43.88059" lon="6.95973">
        <ele>1037.1999512</ele>
        <time>2019-12-07T13:00:04Z</time>
      </trkpt>
      <trkpt lat="43.88059" lon="6.95977">
        <ele>1038</ele>
        <time>2019-12-07T13:00:08Z</time>
      </trkpt>
      <trkpt lat="43.88059" lon="6.95977">
        <ele>1038</ele>
        <time>2019-12-07T13:00:09Z</time>
      </trkpt>
      <trkpt lat="43.88059" lon="6.95977">
        <ele>1038</ele>
        <time>2019-12-07T13:00:17Z</time>
      </trkpt>
      <trkpt lat="43.88059" lon="6.95977">
        <ele>1038</ele>
        <time>2019-12-07T13:00:24Z</time>
      </trkpt>
      <trkpt lat="43.88059" lon="6.95977">
        <ele>1038</ele>
        <time>2019-12-07T13:00:30Z</time>
      </trkpt>
      <trkpt lat="43.88058" lon="6.95979">
        <ele>1038.4000244</ele>
        <time>2019-12-07T13:00:41Z</time>
      </trkpt>
      <trkpt lat="43.88054" lon="6.95981">
        <ele>1039</ele>
        <time>2019-12-07T13:00:45Z</time>
      </trkpt>
      <trkpt lat="43.88053" lon="6.95981">
        <ele>1039</ele>
        <time>2019-12-07T13:00:46Z</time>
      </trkpt>
      <trkpt lat="43.88053" lon="6.95981">
        <ele>1039</ele>
        <time>2019-12-07T13:00:52Z</time>
      </trkpt>
      <trkpt lat="43.8805" lon="6.9598">
        <ele>1037.8000488</ele>
        <time>2019-12-07T13:00:57Z</time>
      </trkpt>
      <trkpt lat="43.88047" lon="6.95979">
        <ele>1037.4000244</ele>
        <time>2019-12-07T13:01:02Z</time>
      </trkpt>
      <trkpt lat="43.88045" lon="6.95976">
        <ele>1036.5999756</ele>
        <time>2019-12-07T13:01:04Z</time>
      </trkpt>
      <trkpt lat="43.88043" lon="6.95976">
        <ele>1036</ele>
        <time>2019-12-07T13:01:05Z</time>
      </trkpt>
      <trkpt lat="43.88041" lon="6.95977">
        <ele>1035.8000488</ele>
        <time>2019-12-07T13:01:06Z</time>
      </trkpt>
      <trkpt lat="43.88039" lon="6.95979">
        <ele>1035.4000244</ele>
        <time>2019-12-07T13:01:07Z</time>
      </trkpt>
      <trkpt lat="43.88033" lon="6.95983">
        <ele>1034.4000244</ele>
        <time>2019-12-07T13:01:10Z</time>
      </trkpt>
      <trkpt lat="43.8803" lon="6.95983">
        <ele>1033.8000488</ele>
        <time>2019-12-07T13:01:12Z</time>
      </trkpt>
      <trkpt lat="43.88028" lon="6.95982">
        <ele>1033.1999512</ele>
        <time>2019-12-07T13:01:13Z</time>
      </trkpt>
      <trkpt lat="43.88025" lon="6.95983">
        <ele>1032.4000244</ele>
        <time>2019-12-07T13:01:15Z</time>
      </trkpt>
      <trkpt lat="43.88025" lon="6.95984">
        <ele>1031.8000488</ele>
        <time>2019-12-07T13:01:16Z</time>
      </trkpt>
      <trkpt lat="43.88022" lon="6.95982">
        <ele>1030.5999756</ele>
        <time>2019-12-07T13:01:18Z</time>
      </trkpt>
      <trkpt lat="43.88021" lon="6.95981">
        <ele>1030.1999512</ele>
        <time>2019-12-07T13:01:19Z</time>
      </trkpt>
      <trkpt lat="43.88021" lon="6.95981">
        <ele>1029.8000488</ele>
        <time>2019-12-07T13:01:23Z</time>
      </trkpt>
      <trkpt lat="43.8802" lon="6.95981">
        <ele>1029.4000244</ele>
        <time>2019-12-07T13:01:24Z</time>
      </trkpt>
      <trkpt lat="43.8802" lon="6.95979">
        <ele>1029</ele>
        <time>2019-12-07T13:01:31Z</time>
      </trkpt>
      <trkpt lat="43.88018" lon="6.95978">
        <ele>1028.4000244</ele>
        <time>2019-12-07T13:01:35Z</time>
      </trkpt>
      <trkpt lat="43.88017" lon="6.95978">
        <ele>1028.1999512</ele>
        <time>2019-12-07T13:01:36Z</time>
      </trkpt>
      <trkpt lat="43.88016" lon="6.95978">
        <ele>1027.5999756</ele>
        <time>2019-12-07T13:01:41Z</time>
      </trkpt>
      <trkpt lat="43.88016" lon="6.95979">
        <ele>1027.5999756</ele>
        <time>2019-12-07T13:01:52Z</time>
      </trkpt>
      <trkpt lat="43.88016" lon="6.95979">
        <ele>1027.5999756</ele>
        <time>2019-12-07T13:02:05Z</time>
      </trkpt>
      <trkpt lat="43.88016" lon="6.95979">
        <ele>1027.5999756</ele>
        <time>2019-12-07T13:02:17Z</time>
      </trkpt>
      <trkpt lat="43.88015" lon="6.95979">
        <ele>1027.1999512</ele>
        <time>2019-12-07T13:02:25Z</time>
      </trkpt>
      <trkpt lat="43.88012" lon="6.95982">
        <ele>1026.8000488</ele>
        <time>2019-12-07T13:02:28Z</time>
      </trkpt>
      <trkpt lat="43.88009" lon="6.95983">
        <ele>1026</ele>
        <time>2019-12-07T13:02:34Z</time>
      </trkpt>
      <trkpt lat="43.88009" lon="6.9598">
        <ele>1025.1999512</ele>
        <time>2019-12-07T13:02:38Z</time>
      </trkpt>
      <trkpt lat="43.88009" lon="6.95979">
        <ele>1025.1999512</ele>
        <time>2019-12-07T13:02:39Z</time>
      </trkpt>
      <trkpt lat="43.88007" lon="6.95977">
        <ele>1024.8000488</ele>
        <time>2019-12-07T13:02:41Z</time>
      </trkpt>
      <trkpt lat="43.88007" lon="6.95976">
        <ele>1024</ele>
        <time>2019-12-07T13:02:44Z</time>
      </trkpt>
      <trkpt lat="43.88006" lon="6.95972">
        <ele>1023.4000244</ele>
        <time>2019-12-07T13:02:54Z</time>
      </trkpt>
      <trkpt lat="43.88005" lon="6.95972">
        <ele>1023.1999512</ele>
        <time>2019-12-07T13:02:55Z</time>
      </trkpt>
      <trkpt lat="43.88005" lon="6.95973">
        <ele>1022.8000488</ele>
        <time>2019-12-07T13:02:56Z</time>
      </trkpt>
      <trkpt lat="43.88004" lon="6.95974">
        <ele>1022.4000244</ele>
        <time>2019-12-07T13:02:58Z</time>
      </trkpt>
      <trkpt lat="43.88003" lon="6.95975">
        <ele>1022</ele>
        <time>2019-12-07T13:02:59Z</time>
      </trkpt>
      <trkpt lat="43.88003" lon="6.95975">
        <ele>1021.8000488</ele>
        <time>2019-12-07T13:03:03Z</time>
      </trkpt>
      <trkpt lat="43.88002" lon="6.95975">
        <ele>1021.1999512</ele>
        <time>2019-12-07T13:03:08Z</time>
      </trkpt>
      <trkpt lat="43.88001" lon="6.95977">
        <ele>1020.4000244</ele>
        <time>2019-12-07T13:03:14Z</time>
      </trkpt>
      <trkpt lat="43.87999" lon="6.95978">
        <ele>1020</ele>
        <time>2019-12-07T13:03:15Z</time>
      </trkpt>
      <trkpt lat="43.87998" lon="6.95981">
        <ele>1018.8000488</ele>
        <time>2019-12-07T13:03:17Z</time>
      </trkpt>
      <trkpt lat="43.87997" lon="6.95981">
        <ele>1017.8000488</ele>
        <time>2019-12-07T13:03:19Z</time>
      </trkpt>
      <trkpt lat="43.87996" lon="6.9598">
        <ele>1017.4000244</ele>
        <time>2019-12-07T13:03:20Z</time>
      </trkpt>
      <trkpt lat="43.87992" lon="6.95974">
        <ele>1016.1999512</ele>
        <time>2019-12-07T13:03:22Z</time>
      </trkpt>
      <trkpt lat="43.87991" lon="6.9597">
        <ele>1015.5999756</ele>
        <time>2019-12-07T13:03:23Z</time>
      </trkpt>
      <trkpt lat="43.87989" lon="6.95967">
        <ele>1015.1999512</ele>
        <time>2019-12-07T13:03:24Z</time>
      </trkpt>
      <trkpt lat="43.87988" lon="6.95962">
        <ele>1014</ele>
        <time>2019-12-07T13:03:26Z</time>
      </trkpt>
      <trkpt lat="43.87987" lon="6.95958">
        <ele>1013</ele>
        <time>2019-12-07T13:03:27Z</time>
      </trkpt>
      <trkpt lat="43.87985" lon="6.95955">
        <ele>1012.1999512</ele>
        <time>2019-12-07T13:03:28Z</time>
      </trkpt>
      <trkpt lat="43.8798" lon="6.95945">
        <ele>1010.5999756</ele>
        <time>2019-12-07T13:03:30Z</time>
      </trkpt>
      <trkpt lat="43.87977" lon="6.95939">
        <ele>1009.5999756</ele>
        <time>2019-12-07T13:03:31Z</time>
      </trkpt>
      <trkpt lat="43.87975" lon="6.95931">
        <ele>1008.5999756</ele>
        <time>2019-12-07T13:03:32Z</time>
      </trkpt>
      <trkpt lat="43.87971" lon="6.95918">
        <ele>1007</ele>
        <time>2019-12-07T13:03:34Z</time>
      </trkpt>
      <trkpt lat="43.87968" lon="6.95907">
        <ele>1005.4000244</ele>
        <time>2019-12-07T13:03:36Z</time>
      </trkpt>
      <trkpt lat="43.87965" lon="6.95893">
        <ele>1003.4000244</ele>
        <time>2019-12-07T13:03:38Z</time>
      </trkpt>
      <trkpt lat="43.87963" lon="6.95886">
        <ele>1002.4000244</ele>
        <time>2019-12-07T13:03:39Z</time>
      </trkpt>
      <trkpt lat="43.87962" lon="6.95878">
        <ele>1001.4000244</ele>
        <time>2019-12-07T13:03:40Z</time>
      </trkpt>
      <trkpt lat="43.87961" lon="6.95865">
        <ele>999.4000244</ele>
        <time>2019-12-07T13:03:42Z</time>
      </trkpt>
      <trkpt lat="43.87959" lon="6.95856">
        <ele>997.5999756</ele>
        <time>2019-12-07T13:03:44Z</time>
      </trkpt>
      <trkpt lat="43.87958" lon="6.95845">
        <ele>996</ele>
        <time>2019-12-07T13:03:46Z</time>
      </trkpt>
      <trkpt lat="43.87957" lon="6.9583">
        <ele>994.4000244</ele>
        <time>2019-12-07T13:03:48Z</time>
      </trkpt>
      <trkpt lat="43.87956" lon="6.95824">
        <ele>993.5999756</ele>
        <time>2019-12-07T13:03:49Z</time>
      </trkpt>
      <trkpt lat="43.87955" lon="6.95817">
        <ele>992.8000488</ele>
        <time>2019-12-07T13:03:50Z</time>
      </trkpt>
      <trkpt lat="43.87952" lon="6.95806">
        <ele>991.1999512</ele>
        <time>2019-12-07T13:03:52Z</time>
      </trkpt>
      <trkpt lat="43.8795" lon="6.958">
        <ele>990.4000244</ele>
        <time>2019-12-07T13:03:53Z</time>
      </trkpt>
      <trkpt lat="43.87948" lon="6.95792">
        <ele>989.5999756</ele>
        <time>2019-12-07T13:03:54Z</time>
      </trkpt>
      <trkpt lat="43.87946" lon="6.95785">
        <ele>988.8000488</ele>
        <time>2019-12-07T13:03:55Z</time>
      </trkpt>
      <trkpt lat="43.87945" lon="6.95778">
        <ele>988.1999512</ele>
        <time>2019-12-07T13:03:56Z</time>
      </trkpt>
      <trkpt lat="43.87943" lon="6.95771">
        <ele>987.4000244</ele>
        <time>2019-12-07T13:03:57Z</time>
      </trkpt>
      <trkpt lat="43.87941" lon="6.95766">
        <ele>986.5999756</ele>
        <time>2019-12-07T13:03:58Z</time>
      </trkpt>
      <trkpt lat="43.87937" lon="6.9576">
        <ele>984.8000488</ele>
        <time>2019-12-07T13:04:00Z</time>
      </trkpt>
      <trkpt lat="43.87937" lon="6.95755">
        <ele>984</ele>
        <time>2019-12-07T13:04:01Z</time>
      </trkpt>
      <trkpt lat="43.87937" lon="6.9575">
        <ele>983.4000244</ele>
        <time>2019-12-07T13:04:02Z</time>
      </trkpt>
      <trkpt lat="43.87936" lon="6.95744">
        <ele>982.5999756</ele>
        <time>2019-12-07T13:04:03Z</time>
      </trkpt>
      <trkpt lat="43.87937" lon="6.95738">
        <ele>982</ele>
        <time>2019-12-07T13:04:04Z</time>
      </trkpt>
      <trkpt lat="43.87937" lon="6.95734">
        <ele>981.1999512</ele>
        <time>2019-12-07T13:04:05Z</time>
      </trkpt>
      <trkpt lat="43.87936" lon="6.9573">
        <ele>980.4000244</ele>
        <time>2019-12-07T13:04:06Z</time>
      </trkpt>
      <trkpt lat="43.87934" lon="6.95724">
        <ele>978.8000488</ele>
        <time>2019-12-07T13:04:08Z</time>
      </trkpt>
      <trkpt lat="43.87933" lon="6.9572">
        <ele>978</ele>
        <time>2019-12-07T13:04:09Z</time>
      </trkpt>
      <trkpt lat="43.87932" lon="6.95717">
        <ele>977.1999512</ele>
        <time>2019-12-07T13:04:10Z</time>
      </trkpt>
      <trkpt lat="43.87932" lon="6.95712">
        <ele>976</ele>
        <time>2019-12-07T13:04:11Z</time>
      </trkpt>
      <trkpt lat="43.87932" lon="6.95707">
        <ele>974.8000488</ele>
        <time>2019-12-07T13:04:12Z</time>
      </trkpt>
      <trkpt lat="43.87931" lon="6.95701">
        <ele>973.5999756</ele>
        <time>2019-12-07T13:04:13Z</time>
      </trkpt>
      <trkpt lat="43.87931" lon="6.95697">
        <ele>972.4000244</ele>
        <time>2019-12-07T13:04:14Z</time>
      </trkpt>
      <trkpt lat="43.87931" lon="6.95691">
        <ele>971.1999512</ele>
        <time>2019-12-07T13:04:15Z</time>
      </trkpt>
      <trkpt lat="43.8793" lon="6.95685">
        <ele>970</ele>
        <time>2019-12-07T13:04:16Z</time>
      </trkpt>
      <trkpt lat="43.87931" lon="6.95679">
        <ele>969</ele>
        <time>2019-12-07T13:04:17Z</time>
      </trkpt>
      <trkpt lat="43.87932" lon="6.95673">
        <ele>968</ele>
        <time>2019-12-07T13:04:18Z</time>
      </trkpt>
      <trkpt lat="43.87931" lon="6.95667">
        <ele>967</ele>
        <time>2019-12-07T13:04:19Z</time>
      </trkpt>
      <trkpt lat="43.87931" lon="6.95661">
        <ele>966</ele>
        <time>2019-12-07T13:04:20Z</time>
      </trkpt>
      <trkpt lat="43.87932" lon="6.95654">
        <ele>964.8000488</ele>
        <time>2019-12-07T13:04:21Z</time>
      </trkpt>
      <trkpt lat="43.87934" lon="6.95648">
        <ele>963.5999756</ele>
        <time>2019-12-07T13:04:22Z</time>
      </trkpt>
      <trkpt lat="43.87935" lon="6.95643">
        <ele>962.5999756</ele>
        <time>2019-12-07T13:04:23Z</time>
      </trkpt>
      <trkpt lat="43.87936" lon="6.95638">
        <ele>961.4000244</ele>
        <time>2019-12-07T13:04:24Z</time>
      </trkpt>
      <trkpt lat="43.87937" lon="6.95634">
        <ele>960.4000244</ele>
        <time>2019-12-07T13:04:25Z</time>
      </trkpt>
      <trkpt lat="43.87939" lon="6.95629">
        <ele>959.4000244</ele>
        <time>2019-12-07T13:04:26Z</time>
      </trkpt>
      <trkpt lat="43.87941" lon="6.95625">
        <ele>958.5999756</ele>
        <time>2019-12-07T13:04:27Z</time>
      </trkpt>
      <trkpt lat="43.87942" lon="6.95622">
        <ele>957.5999756</ele>
        <time>2019-12-07T13:04:28Z</time>
      </trkpt>
      <trkpt lat="43.87943" lon="6.95618">
        <ele>956.8000488</ele>
        <time>2019-12-07T13:04:29Z</time>
      </trkpt>
      <trkpt lat="43.87945" lon="6.95608">
        <ele>954.8000488</ele>
        <time>2019-12-07T13:04:31Z</time>
      </trkpt>
      <trkpt lat="43.87947" lon="6.95602">
        <ele>953.5999756</ele>
        <time>2019-12-07T13:04:32Z</time>
      </trkpt>
      <trkpt lat="43.87949" lon="6.95597">
        <ele>952.5999756</ele>
        <time>2019-12-07T13:04:33Z</time>
      </trkpt>
      <trkpt lat="43.87951" lon="6.95592">
        <ele>951.5999756</ele>
        <time>2019-12-07T13:04:34Z</time>
      </trkpt>
      <trkpt lat="43.87953" lon="6.95587">
        <ele>950.5999756</ele>
        <time>2019-12-07T13:04:35Z</time>
      </trkpt>
      <trkpt lat="43.87954" lon="6.95583">
        <ele>949.5999756</ele>
        <time>2019-12-07T13:04:36Z</time>
      </trkpt>
      <trkpt lat="43.87954" lon="6.95579">
        <ele>948.5999756</ele>
        <time>2019-12-07T13:04:37Z</time>
      </trkpt>
      <trkpt lat="43.87955" lon="6.95574">
        <ele>947.8000488</ele>
        <time>2019-12-07T13:04:38Z</time>
      </trkpt>
      <trkpt lat="43.87956" lon="6.95566">
        <ele>946</ele>
        <time>2019-12-07T13:04:40Z</time>
      </trkpt>
      <trkpt lat="43.87955" lon="6.95559">
        <ele>944.1999512</ele>
        <time>2019-12-07T13:04:42Z</time>
      </trkpt>
      <trkpt lat="43.87955" lon="6.95555">
        <ele>943.1999512</ele>
        <time>2019-12-07T13:04:43Z</time>
      </trkpt>
      <trkpt lat="43.87956" lon="6.95552">
        <ele>942</ele>
        <time>2019-12-07T13:04:44Z</time>
      </trkpt>
      <trkpt lat="43.87956" lon="6.95548">
        <ele>941</ele>
        <time>2019-12-07T13:04:45Z</time>
      </trkpt>
      <trkpt lat="43.87957" lon="6.95545">
        <ele>939.8000488</ele>
        <time>2019-12-07T13:04:46Z</time>
      </trkpt>
      <trkpt lat="43.87958" lon="6.95541">
        <ele>938.8000488</ele>
        <time>2019-12-07T13:04:47Z</time>
      </trkpt>
      <trkpt lat="43.87958" lon="6.95537">
        <ele>937.8000488</ele>
        <time>2019-12-07T13:04:48Z</time>
      </trkpt>
      <trkpt lat="43.87958" lon="6.95533">
        <ele>936.8000488</ele>
        <time>2019-12-07T13:04:49Z</time>
      </trkpt>
      <trkpt lat="43.87959" lon="6.95529">
        <ele>935.5999756</ele>
        <time>2019-12-07T13:04:50Z</time>
      </trkpt>
      <trkpt lat="43.87961" lon="6.9552">
        <ele>933.8000488</ele>
        <time>2019-12-07T13:04:52Z</time>
      </trkpt>
      <trkpt lat="43.87962" lon="6.95516">
        <ele>932.8000488</ele>
        <time>2019-12-07T13:04:53Z</time>
      </trkpt>
      <trkpt lat="43.87962" lon="6.95512">
        <ele>931.8000488</ele>
        <time>2019-12-07T13:04:54Z</time>
      </trkpt>
      <trkpt lat="43.87962" lon="6.95508">
        <ele>930.8000488</ele>
        <time>2019-12-07T13:04:55Z</time>
      </trkpt>
      <trkpt lat="43.87963" lon="6.95504">
        <ele>929.5999756</ele>
        <time>2019-12-07T13:04:56Z</time>
      </trkpt>
      <trkpt lat="43.87964" lon="6.95501">
        <ele>928.8000488</ele>
        <time>2019-12-07T13:04:57Z</time>
      </trkpt>
      <trkpt lat="43.87964" lon="6.95499">
        <ele>928</ele>
        <time>2019-12-07T13:04:58Z</time>
      </trkpt>
      <trkpt lat="43.87964" lon="6.9549">
        <ele>926.1999512</ele>
        <time>2019-12-07T13:05:00Z</time>
      </trkpt>
      <trkpt lat="43.87964" lon="6.95483">
        <ele>924.4000244</ele>
        <time>2019-12-07T13:05:02Z</time>
      </trkpt>
      <trkpt lat="43.87966" lon="6.95474">
        <ele>922.8000488</ele>
        <time>2019-12-07T13:05:04Z</time>
      </trkpt>
      <trkpt lat="43.87969" lon="6.95468">
        <ele>921</ele>
        <time>2019-12-07T13:05:06Z</time>
      </trkpt>
      <trkpt lat="43.8797" lon="6.95464">
        <ele>919.4000244</ele>
        <time>2019-12-07T13:05:08Z</time>
      </trkpt>
      <trkpt lat="43.87971" lon="6.95461">
        <ele>917.8000488</ele>
        <time>2019-12-07T13:05:10Z</time>
      </trkpt>
      <trkpt lat="43.87973" lon="6.95459">
        <ele>916.5999756</ele>
        <time>2019-12-07T13:05:12Z</time>
      </trkpt>
      <trkpt lat="43.87974" lon="6.95458">
        <ele>915.8000488</ele>
        <time>2019-12-07T13:05:13Z</time>
      </trkpt>
      <trkpt lat="43.87973" lon="6.95458">
        <ele>915.4000244</ele>
        <time>2019-12-07T13:05:14Z</time>
      </trkpt>
      <trkpt lat="43.87974" lon="6.95459">
        <ele>914.4000244</ele>
        <time>2019-12-07T13:05:18Z</time>
      </trkpt>
      <trkpt lat="43.87974" lon="6.95458">
        <ele>914.1999512</ele>
        <time>2019-12-07T13:05:21Z</time>
      </trkpt>
      <trkpt lat="43.87974" lon="6.95458">
        <ele>914.1999512</ele>
        <time>2019-12-07T13:05:24Z</time>
      </trkpt>
      <trkpt lat="43.87974" lon="6.95458">
        <ele>913.8000488</ele>
        <time>2019-12-07T13:05:32Z</time>
      </trkpt>
      <trkpt lat="43.87974" lon="6.95458">
        <ele>913.8000488</ele>
        <time>2019-12-07T13:05:46Z</time>
      </trkpt>
      <trkpt lat="43.87974" lon="6.95458">
        <ele>913.8000488</ele>
        <time>2019-12-07T13:06:01Z</time>
      </trkpt>
      <trkpt lat="43.87974" lon="6.95457">
        <ele>913.4000244</ele>
        <time>2019-12-07T13:06:08Z</time>
      </trkpt>
      <trkpt lat="43.87974" lon="6.95457">
        <ele>913.4000244</ele>
        <time>2019-12-07T13:06:21Z</time>
      </trkpt>
      <trkpt lat="43.87974" lon="6.95457">
        <ele>913.4000244</ele>
        <time>2019-12-07T13:06:35Z</time>
      </trkpt>
      <trkpt lat="43.87974" lon="6.95457">
        <ele>913.4000244</ele>
        <time>2019-12-07T13:06:48Z</time>
      </trkpt>
      <trkpt lat="43.87974" lon="6.95457">
        <ele>913.4000244</ele>
        <time>2019-12-07T13:07:01Z</time>
      </trkpt>
      <trkpt lat="43.87974" lon="6.95457">
        <ele>913.4000244</ele>
        <time>2019-12-07T13:07:14Z</time>
      </trkpt>
      <trkpt lat="43.87974" lon="6.95457">
        <ele>913.4000244</ele>
        <time>2019-12-07T13:07:24Z</time>
      </trkpt>
      <trkpt lat="43.87974" lon="6.95457">
        <ele>913.4000244</ele>
        <time>2019-12-07T13:07:37Z</time>
      </trkpt>
      <trkpt lat="43.87974" lon="6.95457">
        <ele>913.4000244</ele>
        <time>2019-12-07T13:07:48Z</time>
      </trkpt>
      <trkpt lat="43.87974" lon="6.95457">
        <ele>913.4000244</ele>
        <time>2019-12-07T13:07:57Z</time>
      </trkpt>
      <trkpt lat="43.87974" lon="6.95457">
        <ele>913.5999756</ele>
        <time>2019-12-07T13:08:07Z</time>
      </trkpt>
      <trkpt lat="43.87974" lon="6.95457">
        <ele>913.5999756</ele>
        <time>2019-12-07T13:08:26Z</time>
      </trkpt>
      <trkpt lat="43.87974" lon="6.95457">
        <ele>913.5999756</ele>
        <time>2019-12-07T13:08:38Z</time>
      </trkpt>
      <trkpt lat="43.87974" lon="6.95457">
        <ele>913.4000244</ele>
        <time>2019-12-07T13:08:51Z</time>
      </trkpt>
      <trkpt lat="43.87974" lon="6.95456">
        <ele>913.1999512</ele>
        <time>2019-12-07T13:08:52Z</time>
      </trkpt>
      <trkpt lat="43.87975" lon="6.95451">
        <ele>913.4000244</ele>
        <time>2019-12-07T13:08:56Z</time>
      </trkpt>
      <trkpt lat="43.87972" lon="6.95436">
        <ele>913.5999756</ele>
        <time>2019-12-07T13:09:00Z</time>
      </trkpt>
      <trkpt lat="43.87971" lon="6.95433">
        <ele>913.5999756</ele>
        <time>2019-12-07T13:09:01Z</time>
      </trkpt>
      <trkpt lat="43.8797" lon="6.95428">
        <ele>913.4000244</ele>
        <time>2019-12-07T13:09:04Z</time>
      </trkpt>
      <trkpt lat="43.87971" lon="6.95425">
        <ele>913.5999756</ele>
        <time>2019-12-07T13:09:10Z</time>
      </trkpt>
      <trkpt lat="43.8797" lon="6.95422">
        <ele>914.4000244</ele>
        <time>2019-12-07T13:09:14Z</time>
      </trkpt>
      <trkpt lat="43.8797" lon="6.95421">
        <ele>914.5999756</ele>
        <time>2019-12-07T13:09:15Z</time>
      </trkpt>
      <trkpt lat="43.8797" lon="6.95417">
        <ele>915.4000244</ele>
        <time>2019-12-07T13:09:23Z</time>
      </trkpt>
      <trkpt lat="43.8797" lon="6.95417">
        <ele>915.8000488</ele>
        <time>2019-12-07T13:09:25Z</time>
      </trkpt>
      <trkpt lat="43.8797" lon="6.95416">
        <ele>916</ele>
        <time>2019-12-07T13:09:29Z</time>
      </trkpt>
      <trkpt lat="43.8797" lon="6.95413">
        <ele>916.5999756</ele>
        <time>2019-12-07T13:09:34Z</time>
      </trkpt>
      <trkpt lat="43.87971" lon="6.95412">
        <ele>916.8000488</ele>
        <time>2019-12-07T13:09:35Z</time>
      </trkpt>
      <trkpt lat="43.87971" lon="6.95409">
        <ele>916.5999756</ele>
        <time>2019-12-07T13:09:41Z</time>
      </trkpt>
      <trkpt lat="43.87972" lon="6.95406">
        <ele>916.4000244</ele>
        <time>2019-12-07T13:09:48Z</time>
      </trkpt>
      <trkpt lat="43.87972" lon="6.95406">
        <ele>916.4000244</ele>
        <time>2019-12-07T13:09:59Z</time>
      </trkpt>
      <trkpt lat="43.87972" lon="6.95404">
        <ele>916.1999512</ele>
        <time>2019-12-07T13:10:07Z</time>
      </trkpt>
      <trkpt lat="43.87972" lon="6.95401">
        <ele>916.4000244</ele>
        <time>2019-12-07T13:10:15Z</time>
      </trkpt>
      <trkpt lat="43.87972" lon="6.95401">
        <ele>916.4000244</ele>
        <time>2019-12-07T13:10:25Z</time>
      </trkpt>
      <trkpt lat="43.87972" lon="6.95401">
        <ele>916.4000244</ele>
        <time>2019-12-07T13:10:41Z</time>
      </trkpt>
      <trkpt lat="43.87972" lon="6.95401">
        <ele>916</ele>
        <time>2019-12-07T13:10:59Z</time>
      </trkpt>
      <trkpt lat="43.87972" lon="6.95401">
        <ele>916</ele>
        <time>2019-12-07T13:11:15Z</time>
      </trkpt>
      <trkpt lat="43.87972" lon="6.95401">
        <ele>915.8000488</ele>
        <time>2019-12-07T13:11:32Z</time>
      </trkpt>
      <trkpt lat="43.87972" lon="6.95399">
        <ele>915.5999756</ele>
        <time>2019-12-07T13:11:45Z</time>
      </trkpt>
      <trkpt lat="43.87973" lon="6.95397">
        <ele>915.1999512</ele>
        <time>2019-12-07T13:11:52Z</time>
      </trkpt>
      <trkpt lat="43.87973" lon="6.95397">
        <ele>915.1999512</ele>
        <time>2019-12-07T13:12:04Z</time>
      </trkpt>
      <trkpt lat="43.87974" lon="6.95394">
        <ele>915</ele>
        <time>2019-12-07T13:12:09Z</time>
      </trkpt>
      <trkpt lat="43.87974" lon="6.95391">
        <ele>914.8000488</ele>
        <time>2019-12-07T13:12:10Z</time>
      </trkpt>
      <trkpt lat="43.87975" lon="6.95387">
        <ele>914.5999756</ele>
        <time>2019-12-07T13:12:12Z</time>
      </trkpt>
      <trkpt lat="43.87974" lon="6.9538">
        <ele>913.5999756</ele>
        <time>2019-12-07T13:12:15Z</time>
      </trkpt>
      <trkpt lat="43.87974" lon="6.95379">
        <ele>913.1999512</ele>
        <time>2019-12-07T13:12:16Z</time>
      </trkpt>
      <trkpt lat="43.87974" lon="6.95378">
        <ele>912.1999512</ele>
        <time>2019-12-07T13:12:19Z</time>
      </trkpt>
      <trkpt lat="43.87974" lon="6.95377">
        <ele>911.8000488</ele>
        <time>2019-12-07T13:12:20Z</time>
      </trkpt>
      <trkpt lat="43.87973" lon="6.95373">
        <ele>911.5999756</ele>
        <time>2019-12-07T13:12:22Z</time>
      </trkpt>
      <trkpt lat="43.87974" lon="6.95369">
        <ele>910.5999756</ele>
        <time>2019-12-07T13:12:24Z</time>
      </trkpt>
      <trkpt lat="43.87973" lon="6.95363">
        <ele>910.1999512</ele>
        <time>2019-12-07T13:12:26Z</time>
      </trkpt>
      <trkpt lat="43.87974" lon="6.95359">
        <ele>909.1999512</ele>
        <time>2019-12-07T13:12:28Z</time>
      </trkpt>
      <trkpt lat="43.87974" lon="6.95357">
        <ele>908.8000488</ele>
        <time>2019-12-07T13:12:29Z</time>
      </trkpt>
      <trkpt lat="43.87974" lon="6.95355">
        <ele>908.1999512</ele>
        <time>2019-12-07T13:12:30Z</time>
      </trkpt>
      <trkpt lat="43.87973" lon="6.9535">
        <ele>907.1999512</ele>
        <time>2019-12-07T13:12:33Z</time>
      </trkpt>
      <trkpt lat="43.8797" lon="6.95345">
        <ele>906.1999512</ele>
        <time>2019-12-07T13:12:35Z</time>
      </trkpt>
      <trkpt lat="43.87969" lon="6.95343">
        <ele>905.8000488</ele>
        <time>2019-12-07T13:12:36Z</time>
      </trkpt>
      <trkpt lat="43.87968" lon="6.95338">
        <ele>904</ele>
        <time>2019-12-07T13:12:39Z</time>
      </trkpt>
      <trkpt lat="43.87969" lon="6.95334">
        <ele>902.5999756</ele>
        <time>2019-12-07T13:12:41Z</time>
      </trkpt>
      <trkpt lat="43.8797" lon="6.95331">
        <ele>901.4000244</ele>
        <time>2019-12-07T13:12:44Z</time>
      </trkpt>
      <trkpt lat="43.87971" lon="6.95328">
        <ele>900.4000244</ele>
        <time>2019-12-07T13:12:46Z</time>
      </trkpt>
      <trkpt lat="43.8797" lon="6.95326">
        <ele>900</ele>
        <time>2019-12-07T13:12:47Z</time>
      </trkpt>
      <trkpt lat="43.87971" lon="6.95322">
        <ele>899</ele>
        <time>2019-12-07T13:12:49Z</time>
      </trkpt>
      <trkpt lat="43.8797" lon="6.95318">
        <ele>897.8000488</ele>
        <time>2019-12-07T13:12:51Z</time>
      </trkpt>
      <trkpt lat="43.8797" lon="6.95316">
        <ele>896.8000488</ele>
        <time>2019-12-07T13:12:53Z</time>
      </trkpt>
      <trkpt lat="43.87971" lon="6.95315">
        <ele>895.4000244</ele>
        <time>2019-12-07T13:13:00Z</time>
      </trkpt>
      <trkpt lat="43.87972" lon="6.95313">
        <ele>894</ele>
        <time>2019-12-07T13:13:06Z</time>
      </trkpt>
      <trkpt lat="43.87973" lon="6.95312">
        <ele>893.4000244</ele>
        <time>2019-12-07T13:13:09Z</time>
      </trkpt>
      <trkpt lat="43.87973" lon="6.9531">
        <ele>893</ele>
        <time>2019-12-07T13:13:16Z</time>
      </trkpt>
      <trkpt lat="43.87973" lon="6.95309">
        <ele>892.4000244</ele>
        <time>2019-12-07T13:13:17Z</time>
      </trkpt>
      <trkpt lat="43.87974" lon="6.95307">
        <ele>891.8000488</ele>
        <time>2019-12-07T13:13:19Z</time>
      </trkpt>
      <trkpt lat="43.87972" lon="6.95304">
        <ele>890.5999756</ele>
        <time>2019-12-07T13:13:22Z</time>
      </trkpt>
      <trkpt lat="43.87968" lon="6.95306">
        <ele>889.5999756</ele>
        <time>2019-12-07T13:13:26Z</time>
      </trkpt>
      <trkpt lat="43.87966" lon="6.95306">
        <ele>888.8000488</ele>
        <time>2019-12-07T13:13:27Z</time>
      </trkpt>
      <trkpt lat="43.87964" lon="6.95306">
        <ele>888.4000244</ele>
        <time>2019-12-07T13:13:28Z</time>
      </trkpt>
      <trkpt lat="43.87963" lon="6.95306">
        <ele>887.4000244</ele>
        <time>2019-12-07T13:13:30Z</time>
      </trkpt>
      <trkpt lat="43.87962" lon="6.95304">
        <ele>887.4000244</ele>
        <time>2019-12-07T13:13:32Z</time>
      </trkpt>
      <trkpt lat="43.87961" lon="6.95301">
        <ele>887.1999512</ele>
        <time>2019-12-07T13:13:33Z</time>
      </trkpt>
      <trkpt lat="43.87961" lon="6.953">
        <ele>886.4000244</ele>
        <time>2019-12-07T13:13:35Z</time>
      </trkpt>
      <trkpt lat="43.8796" lon="6.953">
        <ele>886.1999512</ele>
        <time>2019-12-07T13:13:36Z</time>
      </trkpt>
      <trkpt lat="43.8796" lon="6.953">
        <ele>886.1999512</ele>
        <time>2019-12-07T13:13:38Z</time>
      </trkpt>
      <trkpt lat="43.87959" lon="6.95299">
        <ele>885.4000244</ele>
        <time>2019-12-07T13:13:41Z</time>
      </trkpt>
      <trkpt lat="43.87959" lon="6.95296">
        <ele>885</ele>
        <time>2019-12-07T13:13:48Z</time>
      </trkpt>
      <trkpt lat="43.87959" lon="6.95294">
        <ele>884.5999756</ele>
        <time>2019-12-07T13:13:49Z</time>
      </trkpt>
      <trkpt lat="43.8796" lon="6.95291">
        <ele>883.8000488</ele>
        <time>2019-12-07T13:13:51Z</time>
      </trkpt>
      <trkpt lat="43.87961" lon="6.95289">
        <ele>883.4000244</ele>
        <time>2019-12-07T13:13:52Z</time>
      </trkpt>
      <trkpt lat="43.87961" lon="6.95289">
        <ele>882.5999756</ele>
        <time>2019-12-07T13:13:54Z</time>
      </trkpt>
      <trkpt lat="43.8796" lon="6.95286">
        <ele>881.5999756</ele>
        <time>2019-12-07T13:14:01Z</time>
      </trkpt>
      <trkpt lat="43.87959" lon="6.95284">
        <ele>881.5999756</ele>
        <time>2019-12-07T13:14:06Z</time>
      </trkpt>
      <trkpt lat="43.87959" lon="6.9528">
        <ele>880.8000488</ele>
        <time>2019-12-07T13:14:08Z</time>
      </trkpt>
      <trkpt lat="43.87958" lon="6.95278">
        <ele>880.4000244</ele>
        <time>2019-12-07T13:14:09Z</time>
      </trkpt>
      <trkpt lat="43.87956" lon="6.95268">
        <ele>879</ele>
        <time>2019-12-07T13:14:12Z</time>
      </trkpt>
      <trkpt lat="43.87956" lon="6.95261">
        <ele>877.8000488</ele>
        <time>2019-12-07T13:14:14Z</time>
      </trkpt>
      <trkpt lat="43.87956" lon="6.95251">
        <ele>876.4000244</ele>
        <time>2019-12-07T13:14:17Z</time>
      </trkpt>
      <trkpt lat="43.87955" lon="6.95248">
        <ele>875.4000244</ele>
        <time>2019-12-07T13:14:18Z</time>
      </trkpt>
      <trkpt lat="43.87954" lon="6.95246">
        <ele>874.1999512</ele>
        <time>2019-12-07T13:14:19Z</time>
      </trkpt>
      <trkpt lat="43.87953" lon="6.95243">
        <ele>872.8000488</ele>
        <time>2019-12-07T13:14:21Z</time>
      </trkpt>
      <trkpt lat="43.87953" lon="6.95241">
        <ele>871.4000244</ele>
        <time>2019-12-07T13:14:23Z</time>
      </trkpt>
      <trkpt lat="43.87953" lon="6.95241">
        <ele>870.5999756</ele>
        <time>2019-12-07T13:14:29Z</time>
      </trkpt>
      <trkpt lat="43.87952" lon="6.95241">
        <ele>870.1999512</ele>
        <time>2019-12-07T13:14:31Z</time>
      </trkpt>
      <trkpt lat="43.87951" lon="6.95244">
        <ele>869.8000488</ele>
        <time>2019-12-07T13:14:35Z</time>
      </trkpt>
      <trkpt lat="43.87949" lon="6.95245">
        <ele>869.5999756</ele>
        <time>2019-12-07T13:14:36Z</time>
      </trkpt>
      <trkpt lat="43.87946" lon="6.95249">
        <ele>869</ele>
        <time>2019-12-07T13:14:38Z</time>
      </trkpt>
      <trkpt lat="43.87942" lon="6.95252">
        <ele>867.8000488</ele>
        <time>2019-12-07T13:14:40Z</time>
      </trkpt>
      <trkpt lat="43.87938" lon="6.95254">
        <ele>866.1999512</ele>
        <time>2019-12-07T13:14:42Z</time>
      </trkpt>
      <trkpt lat="43.87933" lon="6.95258">
        <ele>864.5999756</ele>
        <time>2019-12-07T13:14:44Z</time>
      </trkpt>
      <trkpt lat="43.87928" lon="6.95262">
        <ele>862.5999756</ele>
        <time>2019-12-07T13:14:46Z</time>
      </trkpt>
      <trkpt lat="43.87925" lon="6.95263">
        <ele>861.8000488</ele>
        <time>2019-12-07T13:14:47Z</time>
      </trkpt>
      <trkpt lat="43.87922" lon="6.95264">
        <ele>861</ele>
        <time>2019-12-07T13:14:48Z</time>
      </trkpt>
      <trkpt lat="43.87919" lon="6.95269">
        <ele>859.1999512</ele>
        <time>2019-12-07T13:14:50Z</time>
      </trkpt>
      <trkpt lat="43.87916" lon="6.95271">
        <ele>858.1999512</ele>
        <time>2019-12-07T13:14:51Z</time>
      </trkpt>
      <trkpt lat="43.87914" lon="6.95273">
        <ele>857.1999512</ele>
        <time>2019-12-07T13:14:52Z</time>
      </trkpt>
      <trkpt lat="43.87909" lon="6.95278">
        <ele>855.8000488</ele>
        <time>2019-12-07T13:14:54Z</time>
      </trkpt>
      <trkpt lat="43.87905" lon="6.95282">
        <ele>854.4000244</ele>
        <time>2019-12-07T13:14:56Z</time>
      </trkpt>
      <trkpt lat="43.87903" lon="6.95286">
        <ele>853.1999512</ele>
        <time>2019-12-07T13:14:58Z</time>
      </trkpt>
      <trkpt lat="43.87902" lon="6.95288">
        <ele>852.1999512</ele>
        <time>2019-12-07T13:15:00Z</time>
      </trkpt>
      <trkpt lat="43.87901" lon="6.95287">
        <ele>851.1999512</ele>
        <time>2019-12-07T13:15:02Z</time>
      </trkpt>
      <trkpt lat="43.87901" lon="6.95285">
        <ele>850.5999756</ele>
        <time>2019-12-07T13:15:03Z</time>
      </trkpt>
      <trkpt lat="43.87902" lon="6.95284">
        <ele>850.1999512</ele>
        <time>2019-12-07T13:15:04Z</time>
      </trkpt>
      <trkpt lat="43.87902" lon="6.95285">
        <ele>849.8000488</ele>
        <time>2019-12-07T13:15:05Z</time>
      </trkpt>
      <trkpt lat="43.87902" lon="6.95285">
        <ele>849.8000488</ele>
        <time>2019-12-07T13:15:09Z</time>
      </trkpt>
      <trkpt lat="43.87902" lon="6.95285">
        <ele>849.8000488</ele>
        <time>2019-12-07T13:15:21Z</time>
      </trkpt>
      <trkpt lat="43.87902" lon="6.95285">
        <ele>849.8000488</ele>
        <time>2019-12-07T13:15:39Z</time>
      </trkpt>
      <trkpt lat="43.87902" lon="6.95281">
        <ele>849.5999756</ele>
        <time>2019-12-07T13:15:49Z</time>
      </trkpt>
      <trkpt lat="43.87902" lon="6.95272">
        <ele>848.4000244</ele>
        <time>2019-12-07T13:15:52Z</time>
      </trkpt>
      <trkpt lat="43.87901" lon="6.95264">
        <ele>847.5999756</ele>
        <time>2019-12-07T13:15:55Z</time>
      </trkpt>
      <trkpt lat="43.87901" lon="6.95261">
        <ele>847</ele>
        <time>2019-12-07T13:15:56Z</time>
      </trkpt>
      <trkpt lat="43.87901" lon="6.95252">
        <ele>845.4000244</ele>
        <time>2019-12-07T13:15:58Z</time>
      </trkpt>
      <trkpt lat="43.87901" lon="6.95249">
        <ele>844.5999756</ele>
        <time>2019-12-07T13:15:59Z</time>
      </trkpt>
      <trkpt lat="43.87901" lon="6.95246">
        <ele>844</ele>
        <time>2019-12-07T13:16:00Z</time>
      </trkpt>
      <trkpt lat="43.87901" lon="6.95242">
        <ele>842.8000488</ele>
        <time>2019-12-07T13:16:02Z</time>
      </trkpt>
      <trkpt lat="43.87899" lon="6.95242">
        <ele>841.4000244</ele>
        <time>2019-12-07T13:16:04Z</time>
      </trkpt>
      <trkpt lat="43.87896" lon="6.95246">
        <ele>840.1999512</ele>
        <time>2019-12-07T13:16:06Z</time>
      </trkpt>
      <trkpt lat="43.8789" lon="6.95252">
        <ele>839</ele>
        <time>2019-12-07T13:16:08Z</time>
      </trkpt>
      <trkpt lat="43.87886" lon="6.95261">
        <ele>837.5999756</ele>
        <time>2019-12-07T13:16:10Z</time>
      </trkpt>
      <trkpt lat="43.87881" lon="6.95269">
        <ele>836.1999512</ele>
        <time>2019-12-07T13:16:12Z</time>
      </trkpt>
      <trkpt lat="43.87876" lon="6.95276">
        <ele>834.8000488</ele>
        <time>2019-12-07T13:16:14Z</time>
      </trkpt>
      <trkpt lat="43.87873" lon="6.95283">
        <ele>833.5999756</ele>
        <time>2019-12-07T13:16:16Z</time>
      </trkpt>
      <trkpt lat="43.87872" lon="6.95285">
        <ele>833.1999512</ele>
        <time>2019-12-07T13:16:17Z</time>
      </trkpt>
      <trkpt lat="43.87869" lon="6.95291">
        <ele>832.1999512</ele>
        <time>2019-12-07T13:16:19Z</time>
      </trkpt>
      <trkpt lat="43.87867" lon="6.95297">
        <ele>830.8000488</ele>
        <time>2019-12-07T13:16:21Z</time>
      </trkpt>
      <trkpt lat="43.87864" lon="6.95302">
        <ele>829.4000244</ele>
        <time>2019-12-07T13:16:23Z</time>
      </trkpt>
      <trkpt lat="43.87861" lon="6.95306">
        <ele>828</ele>
        <time>2019-12-07T13:16:25Z</time>
      </trkpt>
      <trkpt lat="43.87857" lon="6.95313">
        <ele>826.5999756</ele>
        <time>2019-12-07T13:16:27Z</time>
      </trkpt>
      <trkpt lat="43.87855" lon="6.95316">
        <ele>826</ele>
        <time>2019-12-07T13:16:28Z</time>
      </trkpt>
      <trkpt lat="43.87854" lon="6.95319">
        <ele>825.4000244</ele>
        <time>2019-12-07T13:16:29Z</time>
      </trkpt>
      <trkpt lat="43.87851" lon="6.95323">
        <ele>823.8000488</ele>
        <time>2019-12-07T13:16:31Z</time>
      </trkpt>
      <trkpt lat="43.87847" lon="6.95327">
        <ele>822.4000244</ele>
        <time>2019-12-07T13:16:33Z</time>
      </trkpt>
      <trkpt lat="43.87846" lon="6.9533">
        <ele>820.8000488</ele>
        <time>2019-12-07T13:16:35Z</time>
      </trkpt>
      <trkpt lat="43.87845" lon="6.95333">
        <ele>819.8000488</ele>
        <time>2019-12-07T13:16:37Z</time>
      </trkpt>
      <trkpt lat="43.87845" lon="6.95333">
        <ele>818.4000244</ele>
        <time>2019-12-07T13:16:41Z</time>
      </trkpt>
      <trkpt lat="43.87845" lon="6.95333">
        <ele>818.4000244</ele>
        <time>2019-12-07T13:16:42Z</time>
      </trkpt>
      <trkpt lat="43.87846" lon="6.95334">
        <ele>818.4000244</ele>
        <time>2019-12-07T13:16:43Z</time>
      </trkpt>
      <trkpt lat="43.87845" lon="6.95336">
        <ele>818</ele>
        <time>2019-12-07T13:16:46Z</time>
      </trkpt>
      <trkpt lat="43.87845" lon="6.9534">
        <ele>818.1999512</ele>
        <time>2019-12-07T13:16:53Z</time>
      </trkpt>
      <trkpt lat="43.87845" lon="6.95343">
        <ele>818.1999512</ele>
        <time>2019-12-07T13:17:00Z</time>
      </trkpt>
      <trkpt lat="43.87845" lon="6.95346">
        <ele>817.5999756</ele>
        <time>2019-12-07T13:17:06Z</time>
      </trkpt>
      <trkpt lat="43.87844" lon="6.9535">
        <ele>817</ele>
        <time>2019-12-07T13:17:14Z</time>
      </trkpt>
      <trkpt lat="43.87843" lon="6.95354">
        <ele>816</ele>
        <time>2019-12-07T13:17:18Z</time>
      </trkpt>
      <trkpt lat="43.87842" lon="6.95354">
        <ele>815.5999756</ele>
        <time>2019-12-07T13:17:19Z</time>
      </trkpt>
      <trkpt lat="43.8784" lon="6.95359">
        <ele>815</ele>
        <time>2019-12-07T13:17:23Z</time>
      </trkpt>
      <trkpt lat="43.87839" lon="6.95361">
        <ele>814.8000488</ele>
        <time>2019-12-07T13:17:24Z</time>
      </trkpt>
      <trkpt lat="43.87834" lon="6.95367">
        <ele>813.8000488</ele>
        <time>2019-12-07T13:17:26Z</time>
      </trkpt>
      <trkpt lat="43.87833" lon="6.95371">
        <ele>813.1999512</ele>
        <time>2019-12-07T13:17:27Z</time>
      </trkpt>
      <trkpt lat="43.87833" lon="6.95376">
        <ele>812.4000244</ele>
        <time>2019-12-07T13:17:28Z</time>
      </trkpt>
      <trkpt lat="43.87831" lon="6.95388">
        <ele>811.4000244</ele>
        <time>2019-12-07T13:17:30Z</time>
      </trkpt>
      <trkpt lat="43.8783" lon="6.95393">
        <ele>811</ele>
        <time>2019-12-07T13:17:31Z</time>
      </trkpt>
      <trkpt lat="43.87829" lon="6.95398">
        <ele>810.4000244</ele>
        <time>2019-12-07T13:17:32Z</time>
      </trkpt>
      <trkpt lat="43.87829" lon="6.9541">
        <ele>809</ele>
        <time>2019-12-07T13:17:34Z</time>
      </trkpt>
      <trkpt lat="43.87828" lon="6.95418">
        <ele>807.8000488</ele>
        <time>2019-12-07T13:17:36Z</time>
      </trkpt>
      <trkpt lat="43.87825" lon="6.95425">
        <ele>806.1999512</ele>
        <time>2019-12-07T13:17:38Z</time>
      </trkpt>
      <trkpt lat="43.87824" lon="6.95428">
        <ele>805.5999756</ele>
        <time>2019-12-07T13:17:39Z</time>
      </trkpt>
      <trkpt lat="43.87823" lon="6.9543">
        <ele>805</ele>
        <time>2019-12-07T13:17:40Z</time>
      </trkpt>
      <trkpt lat="43.87822" lon="6.95433">
        <ele>804</ele>
        <time>2019-12-07T13:17:42Z</time>
      </trkpt>
      <trkpt lat="43.87818" lon="6.95446">
        <ele>802.8000488</ele>
        <time>2019-12-07T13:17:45Z</time>
      </trkpt>
      <trkpt lat="43.87813" lon="6.95464">
        <ele>802.1999512</ele>
        <time>2019-12-07T13:17:49Z</time>
      </trkpt>
      <trkpt lat="43.87808" lon="6.95476">
        <ele>802</ele>
        <time>2019-12-07T13:17:53Z</time>
      </trkpt>
      <trkpt lat="43.87803" lon="6.95487">
        <ele>801.8000488</ele>
        <time>2019-12-07T13:17:57Z</time>
      </trkpt>
      <trkpt lat="43.87803" lon="6.95487">
        <ele>801.5999756</ele>
        <time>2019-12-07T13:17:58Z</time>
      </trkpt>
      <trkpt lat="43.87803" lon="6.95487">
        <ele>801.5999756</ele>
        <time>2019-12-07T13:18:00Z</time>
      </trkpt>
      <trkpt lat="43.87803" lon="6.95489">
        <ele>801.5999756</ele>
        <time>2019-12-07T13:18:01Z</time>
      </trkpt>
      <trkpt lat="43.87802" lon="6.95493">
        <ele>802</ele>
        <time>2019-12-07T13:18:05Z</time>
      </trkpt>
      <trkpt lat="43.87795" lon="6.95507">
        <ele>802</ele>
        <time>2019-12-07T13:18:08Z</time>
      </trkpt>
      <trkpt lat="43.87781" lon="6.9552">
        <ele>800.8000488</ele>
        <time>2019-12-07T13:18:12Z</time>
      </trkpt>
      <trkpt lat="43.87779" lon="6.95523">
        <ele>800.5999756</ele>
        <time>2019-12-07T13:18:13Z</time>
      </trkpt>
      <trkpt lat="43.87775" lon="6.95538">
        <ele>799.5999756</ele>
        <time>2019-12-07T13:18:16Z</time>
      </trkpt>
      <trkpt lat="43.87774" lon="6.95542">
        <ele>799.4000244</ele>
        <time>2019-12-07T13:18:17Z</time>
      </trkpt>
      <trkpt lat="43.87773" lon="6.95548">
        <ele>798.1999512</ele>
        <time>2019-12-07T13:18:20Z</time>
      </trkpt>
      <trkpt lat="43.8777" lon="6.95551">
        <ele>797</ele>
        <time>2019-12-07T13:18:22Z</time>
      </trkpt>
      <trkpt lat="43.87766" lon="6.95556">
        <ele>795.4000244</ele>
        <time>2019-12-07T13:18:24Z</time>
      </trkpt>
      <trkpt lat="43.87763" lon="6.95561">
        <ele>793.8000488</ele>
        <time>2019-12-07T13:18:26Z</time>
      </trkpt>
      <trkpt lat="43.8776" lon="6.95567">
        <ele>792.1999512</ele>
        <time>2019-12-07T13:18:28Z</time>
      </trkpt>
      <trkpt lat="43.87758" lon="6.95573">
        <ele>790.8000488</ele>
        <time>2019-12-07T13:18:30Z</time>
      </trkpt>
      <trkpt lat="43.87755" lon="6.95581">
        <ele>789.5999756</ele>
        <time>2019-12-07T13:18:32Z</time>
      </trkpt>
      <trkpt lat="43.87754" lon="6.95584">
        <ele>789</ele>
        <time>2019-12-07T13:18:33Z</time>
      </trkpt>
      <trkpt lat="43.87753" lon="6.95588">
        <ele>788.4000244</ele>
        <time>2019-12-07T13:18:34Z</time>
      </trkpt>
      <trkpt lat="43.87749" lon="6.95599">
        <ele>787.1999512</ele>
        <time>2019-12-07T13:18:37Z</time>
      </trkpt>
      <trkpt lat="43.87746" lon="6.95608">
        <ele>786.5999756</ele>
        <time>2019-12-07T13:18:39Z</time>
      </trkpt>
      <trkpt lat="43.87744" lon="6.95618">
        <ele>786</ele>
        <time>2019-12-07T13:18:41Z</time>
      </trkpt>
      <trkpt lat="43.87739" lon="6.95633">
        <ele>784.8000488</ele>
        <time>2019-12-07T13:18:44Z</time>
      </trkpt>
      <trkpt lat="43.87731" lon="6.95649">
        <ele>784</ele>
        <time>2019-12-07T13:18:48Z</time>
      </trkpt>
      <trkpt lat="43.87719" lon="6.95661">
        <ele>783.8000488</ele>
        <time>2019-12-07T13:18:51Z</time>
      </trkpt>
      <trkpt lat="43.87715" lon="6.95665">
        <ele>783.4000244</ele>
        <time>2019-12-07T13:18:52Z</time>
      </trkpt>
      <trkpt lat="43.87707" lon="6.95675">
        <ele>783</ele>
        <time>2019-12-07T13:18:54Z</time>
      </trkpt>
      <trkpt lat="43.87696" lon="6.95681">
        <ele>782.5999756</ele>
        <time>2019-12-07T13:18:56Z</time>
      </trkpt>
      <trkpt lat="43.87691" lon="6.95684">
        <ele>782.4000244</ele>
        <time>2019-12-07T13:18:57Z</time>
      </trkpt>
      <trkpt lat="43.87686" lon="6.95685">
        <ele>782.1999512</ele>
        <time>2019-12-07T13:18:58Z</time>
      </trkpt>
      <trkpt lat="43.87677" lon="6.95688">
        <ele>782</ele>
        <time>2019-12-07T13:19:01Z</time>
      </trkpt>
      <trkpt lat="43.87675" lon="6.95691">
        <ele>781.8000488</ele>
        <time>2019-12-07T13:19:02Z</time>
      </trkpt>
      <trkpt lat="43.87672" lon="6.95698">
        <ele>781.8000488</ele>
        <time>2019-12-07T13:19:04Z</time>
      </trkpt>
      <trkpt lat="43.87668" lon="6.9571">
        <ele>781.5999756</ele>
        <time>2019-12-07T13:19:08Z</time>
      </trkpt>
      <trkpt lat="43.87666" lon="6.95714">
        <ele>781.5999756</ele>
        <time>2019-12-07T13:19:09Z</time>
      </trkpt>
      <trkpt lat="43.87661" lon="6.95722">
        <ele>781.4000244</ele>
        <time>2019-12-07T13:19:11Z</time>
      </trkpt>
      <trkpt lat="43.87657" lon="6.95731">
        <ele>781</ele>
        <time>2019-12-07T13:19:13Z</time>
      </trkpt>
      <trkpt lat="43.87652" lon="6.95747">
        <ele>780.1999512</ele>
        <time>2019-12-07T13:19:16Z</time>
      </trkpt>
      <trkpt lat="43.87649" lon="6.9576">
        <ele>779</ele>
        <time>2019-12-07T13:19:19Z</time>
      </trkpt>
      <trkpt lat="43.87641" lon="6.95768">
        <ele>777.8000488</ele>
        <time>2019-12-07T13:19:23Z</time>
      </trkpt>
      <trkpt lat="43.87638" lon="6.95769">
        <ele>777.4000244</ele>
        <time>2019-12-07T13:19:24Z</time>
      </trkpt>
      <trkpt lat="43.87633" lon="6.95772">
        <ele>776.1999512</ele>
        <time>2019-12-07T13:19:26Z</time>
      </trkpt>
      <trkpt lat="43.8763" lon="6.95774">
        <ele>774.8000488</ele>
        <time>2019-12-07T13:19:28Z</time>
      </trkpt>
      <trkpt lat="43.87625" lon="6.95777">
        <ele>773</ele>
        <time>2019-12-07T13:19:30Z</time>
      </trkpt>
      <trkpt lat="43.87623" lon="6.95777">
        <ele>772</ele>
        <time>2019-12-07T13:19:31Z</time>
      </trkpt>
      <trkpt lat="43.8762" lon="6.95781">
        <ele>770.1999512</ele>
        <time>2019-12-07T13:19:33Z</time>
      </trkpt>
      <trkpt lat="43.87619" lon="6.95782">
        <ele>769.4000244</ele>
        <time>2019-12-07T13:19:34Z</time>
      </trkpt>
      <trkpt lat="43.87617" lon="6.95783">
        <ele>768.5999756</ele>
        <time>2019-12-07T13:19:35Z</time>
      </trkpt>
      <trkpt lat="43.87615" lon="6.95784">
        <ele>766.5999756</ele>
        <time>2019-12-07T13:19:37Z</time>
      </trkpt>
      <trkpt lat="43.87614" lon="6.95785">
        <ele>765</ele>
        <time>2019-12-07T13:19:39Z</time>
      </trkpt>
      <trkpt lat="43.87614" lon="6.95785">
        <ele>765</ele>
        <time>2019-12-07T13:19:40Z</time>
      </trkpt>
      <trkpt lat="43.87613" lon="6.95783">
        <ele>763.5999756</ele>
        <time>2019-12-07T13:19:44Z</time>
      </trkpt>
      <trkpt lat="43.87613" lon="6.95783">
        <ele>762</ele>
        <time>2019-12-07T13:19:46Z</time>
      </trkpt>
      <trkpt lat="43.87612" lon="6.95783">
        <ele>761.5999756</ele>
        <time>2019-12-07T13:19:53Z</time>
      </trkpt>
      <trkpt lat="43.87611" lon="6.95784">
        <ele>761.4000244</ele>
        <time>2019-12-07T13:20:00Z</time>
      </trkpt>
      <trkpt lat="43.87611" lon="6.95784">
        <ele>761.4000244</ele>
        <time>2019-12-07T13:20:09Z</time>
      </trkpt>
      <trkpt lat="43.87611" lon="6.95784">
        <ele>761.4000244</ele>
        <time>2019-12-07T13:20:21Z</time>
      </trkpt>
      <trkpt lat="43.87611" lon="6.95784">
        <ele>761.4000244</ele>
        <time>2019-12-07T13:20:38Z</time>
      </trkpt>
      <trkpt lat="43.8761" lon="6.95785">
        <ele>761.1999512</ele>
        <time>2019-12-07T13:20:53Z</time>
      </trkpt>
      <trkpt lat="43.87609" lon="6.95786">
        <ele>761</ele>
        <time>2019-12-07T13:20:54Z</time>
      </trkpt>
      <trkpt lat="43.87608" lon="6.95786">
        <ele>760.8000488</ele>
        <time>2019-12-07T13:20:59Z</time>
      </trkpt>
      <trkpt lat="43.87608" lon="6.95786">
        <ele>760.8000488</ele>
        <time>2019-12-07T13:21:13Z</time>
      </trkpt>
      <trkpt lat="43.87608" lon="6.95786">
        <ele>760.5999756</ele>
        <time>2019-12-07T13:21:35Z</time>
      </trkpt>
      <trkpt lat="43.87607" lon="6.95787">
        <ele>760.5999756</ele>
        <time>2019-12-07T13:22:00Z</time>
      </trkpt>
      <trkpt lat="43.87607" lon="6.95787">
        <ele>760.5999756</ele>
        <time>2019-12-07T13:22:09Z</time>
      </trkpt>
      <trkpt lat="43.87603" lon="6.95789">
        <ele>759.8000488</ele>
        <time>2019-12-07T13:22:15Z</time>
      </trkpt>
      <trkpt lat="43.876" lon="6.95789">
        <ele>759</ele>
        <time>2019-12-07T13:22:17Z</time>
      </trkpt>
      <trkpt lat="43.87598" lon="6.9579">
        <ele>758.8000488</ele>
        <time>2019-12-07T13:22:18Z</time>
      </trkpt>
      <trkpt lat="43.87592" lon="6.95798">
        <ele>757.5999756</ele>
        <time>2019-12-07T13:22:21Z</time>
      </trkpt>
      <trkpt lat="43.8759" lon="6.95801">
        <ele>756.4000244</ele>
        <time>2019-12-07T13:22:22Z</time>
      </trkpt>
      <trkpt lat="43.87587" lon="6.958">
        <ele>755</ele>
        <time>2019-12-07T13:22:23Z</time>
      </trkpt>
      <trkpt lat="43.87586" lon="6.95798">
        <ele>752.5999756</ele>
        <time>2019-12-07T13:22:24Z</time>
      </trkpt>
      <trkpt lat="43.87584" lon="6.95795">
        <ele>751.1999512</ele>
        <time>2019-12-07T13:22:25Z</time>
      </trkpt>
      <trkpt lat="43.87583" lon="6.95789">
        <ele>750.1999512</ele>
        <time>2019-12-07T13:22:26Z</time>
      </trkpt>
      <trkpt lat="43.87581" lon="6.95785">
        <ele>749</ele>
        <time>2019-12-07T13:22:27Z</time>
      </trkpt>
      <trkpt lat="43.87576" lon="6.95777">
        <ele>747</ele>
        <time>2019-12-07T13:22:29Z</time>
      </trkpt>
      <trkpt lat="43.87573" lon="6.95776">
        <ele>746.1999512</ele>
        <time>2019-12-07T13:22:30Z</time>
      </trkpt>
      <trkpt lat="43.87571" lon="6.95777">
        <ele>745.5999756</ele>
        <time>2019-12-07T13:22:31Z</time>
      </trkpt>
      <trkpt lat="43.87566" lon="6.9578">
        <ele>744.4000244</ele>
        <time>2019-12-07T13:22:33Z</time>
      </trkpt>
      <trkpt lat="43.87561" lon="6.95781">
        <ele>743</ele>
        <time>2019-12-07T13:22:35Z</time>
      </trkpt>
      <trkpt lat="43.87557" lon="6.95782">
        <ele>742.4000244</ele>
        <time>2019-12-07T13:22:36Z</time>
      </trkpt>
      <trkpt lat="43.87551" lon="6.95781">
        <ele>742</ele>
        <time>2019-12-07T13:22:37Z</time>
      </trkpt>
      <trkpt lat="43.87545" lon="6.95781">
        <ele>741.4000244</ele>
        <time>2019-12-07T13:22:38Z</time>
      </trkpt>
      <trkpt lat="43.8753" lon="6.95781">
        <ele>739.8000488</ele>
        <time>2019-12-07T13:22:40Z</time>
      </trkpt>
      <trkpt lat="43.87515" lon="6.95781">
        <ele>738.1999512</ele>
        <time>2019-12-07T13:22:42Z</time>
      </trkpt>
      <trkpt lat="43.87501" lon="6.95782">
        <ele>737</ele>
        <time>2019-12-07T13:22:45Z</time>
      </trkpt>
      <trkpt lat="43.87499" lon="6.95785">
        <ele>737</ele>
        <time>2019-12-07T13:22:46Z</time>
      </trkpt>
      <trkpt lat="43.87494" lon="6.95801">
        <ele>736</ele>
        <time>2019-12-07T13:22:50Z</time>
      </trkpt>
      <trkpt lat="43.87492" lon="6.95806">
        <ele>736</ele>
        <time>2019-12-07T13:22:51Z</time>
      </trkpt>
      <trkpt lat="43.87487" lon="6.95823">
        <ele>735.1999512</ele>
        <time>2019-12-07T13:22:54Z</time>
      </trkpt>
      <trkpt lat="43.87487" lon="6.95831">
        <ele>734.5999756</ele>
        <time>2019-12-07T13:22:55Z</time>
      </trkpt>
      <trkpt lat="43.87487" lon="6.95837">
        <ele>734</ele>
        <time>2019-12-07T13:22:56Z</time>
      </trkpt>
      <trkpt lat="43.87486" lon="6.95844">
        <ele>733.4000244</ele>
        <time>2019-12-07T13:22:57Z</time>
      </trkpt>
      <trkpt lat="43.87485" lon="6.95851">
        <ele>732.5999756</ele>
        <time>2019-12-07T13:22:58Z</time>
      </trkpt>
      <trkpt lat="43.87484" lon="6.95859">
        <ele>731.8000488</ele>
        <time>2019-12-07T13:22:59Z</time>
      </trkpt>
      <trkpt lat="43.87482" lon="6.95867">
        <ele>731.1999512</ele>
        <time>2019-12-07T13:23:00Z</time>
      </trkpt>
      <trkpt lat="43.87479" lon="6.95875">
        <ele>730.4000244</ele>
        <time>2019-12-07T13:23:01Z</time>
      </trkpt>
      <trkpt lat="43.87473" lon="6.95893">
        <ele>729</ele>
        <time>2019-12-07T13:23:03Z</time>
      </trkpt>
      <trkpt lat="43.87469" lon="6.95901">
        <ele>728</ele>
        <time>2019-12-07T13:23:04Z</time>
      </trkpt>
      <trkpt lat="43.87464" lon="6.95908">
        <ele>727.1999512</ele>
        <time>2019-12-07T13:23:05Z</time>
      </trkpt>
      <trkpt lat="43.87456" lon="6.95922">
        <ele>725.4000244</ele>
        <time>2019-12-07T13:23:07Z</time>
      </trkpt>
      <trkpt lat="43.87449" lon="6.95938">
        <ele>723.4000244</ele>
        <time>2019-12-07T13:23:09Z</time>
      </trkpt>
      <trkpt lat="43.87446" lon="6.95947">
        <ele>723.1999512</ele>
        <time>2019-12-07T13:23:10Z</time>
      </trkpt>
      <trkpt lat="43.87433" lon="6.95977">
        <ele>723</ele>
        <time>2019-12-07T13:23:14Z</time>
      </trkpt>
      <trkpt lat="43.87418" lon="6.9601">
        <ele>723</ele>
        <time>2019-12-07T13:23:19Z</time>
      </trkpt>
      <trkpt lat="43.87409" lon="6.96028">
        <ele>723.1999512</ele>
        <time>2019-12-07T13:23:23Z</time>
      </trkpt>
      <trkpt lat="43.87401" lon="6.9605">
        <ele>723.1999512</ele>
        <time>2019-12-07T13:23:28Z</time>
      </trkpt>
      <trkpt lat="43.87396" lon="6.96072">
        <ele>723</ele>
        <time>2019-12-07T13:23:33Z</time>
      </trkpt>
      <trkpt lat="43.87389" lon="6.96091">
        <ele>722.5999756</ele>
        <time>2019-12-07T13:23:37Z</time>
      </trkpt>
      <trkpt lat="43.87388" lon="6.96094">
        <ele>722.1999512</ele>
        <time>2019-12-07T13:23:38Z</time>
      </trkpt>
      <trkpt lat="43.87384" lon="6.96105">
        <ele>721.4000244</ele>
        <time>2019-12-07T13:23:42Z</time>
      </trkpt>
      <trkpt lat="43.87384" lon="6.96107">
        <ele>721</ele>
        <time>2019-12-07T13:23:43Z</time>
      </trkpt>
      <trkpt lat="43.8738" lon="6.96115">
        <ele>719.8000488</ele>
        <time>2019-12-07T13:23:46Z</time>
      </trkpt>
      <trkpt lat="43.87378" lon="6.96118">
        <ele>719.5999756</ele>
        <time>2019-12-07T13:23:47Z</time>
      </trkpt>
      <trkpt lat="43.8737" lon="6.96135">
        <ele>718.5999756</ele>
        <time>2019-12-07T13:23:51Z</time>
      </trkpt>
      <trkpt lat="43.87367" lon="6.96141">
        <ele>718.4000244</ele>
        <time>2019-12-07T13:23:52Z</time>
      </trkpt>
      <trkpt lat="43.87355" lon="6.96161">
        <ele>717.4000244</ele>
        <time>2019-12-07T13:23:56Z</time>
      </trkpt>
      <trkpt lat="43.87352" lon="6.96166">
        <ele>717.1999512</ele>
        <time>2019-12-07T13:23:57Z</time>
      </trkpt>
      <trkpt lat="43.87338" lon="6.96185">
        <ele>716.1999512</ele>
        <time>2019-12-07T13:24:01Z</time>
      </trkpt>
      <trkpt lat="43.87331" lon="6.9619">
        <ele>714.5999756</ele>
        <time>2019-12-07T13:24:03Z</time>
      </trkpt>
      <trkpt lat="43.87322" lon="6.96196">
        <ele>713.1999512</ele>
        <time>2019-12-07T13:24:05Z</time>
      </trkpt>
      <trkpt lat="43.87316" lon="6.96194">
        <ele>711.8000488</ele>
        <time>2019-12-07T13:24:07Z</time>
      </trkpt>
      <trkpt lat="43.87314" lon="6.96192">
        <ele>710.5999756</ele>
        <time>2019-12-07T13:24:08Z</time>
      </trkpt>
      <trkpt lat="43.87311" lon="6.9619">
        <ele>708.8000488</ele>
        <time>2019-12-07T13:24:10Z</time>
      </trkpt>
      <trkpt lat="43.87309" lon="6.96188">
        <ele>707.4000244</ele>
        <time>2019-12-07T13:24:12Z</time>
      </trkpt>
      <trkpt lat="43.87304" lon="6.96186">
        <ele>706</ele>
        <time>2019-12-07T13:24:14Z</time>
      </trkpt>
      <trkpt lat="43.873" lon="6.96182">
        <ele>704.5999756</ele>
        <time>2019-12-07T13:24:15Z</time>
      </trkpt>
      <trkpt lat="43.87298" lon="6.96179">
        <ele>703.4000244</ele>
        <time>2019-12-07T13:24:16Z</time>
      </trkpt>
      <trkpt lat="43.87294" lon="6.96181">
        <ele>702.1999512</ele>
        <time>2019-12-07T13:24:17Z</time>
      </trkpt>
      <trkpt lat="43.87293" lon="6.96186">
        <ele>700.5999756</ele>
        <time>2019-12-07T13:24:19Z</time>
      </trkpt>
      <trkpt lat="43.87292" lon="6.96184">
        <ele>699.5999756</ele>
        <time>2019-12-07T13:24:20Z</time>
      </trkpt>
      <trkpt lat="43.87292" lon="6.96185">
        <ele>699</ele>
        <time>2019-12-07T13:24:28Z</time>
      </trkpt>
      <trkpt lat="43.87292" lon="6.96185">
        <ele>698.4000244</ele>
        <time>2019-12-07T13:24:30Z</time>
      </trkpt>
      <trkpt lat="43.87292" lon="6.96185">
        <ele>698.4000244</ele>
        <time>2019-12-07T13:24:33Z</time>
      </trkpt>
      <trkpt lat="43.87291" lon="6.96194">
        <ele>696.8000488</ele>
        <time>2019-12-07T13:24:43Z</time>
      </trkpt>
      <trkpt lat="43.87293" lon="6.96202">
        <ele>695.5999756</ele>
        <time>2019-12-07T13:24:45Z</time>
      </trkpt>
      <trkpt lat="43.87294" lon="6.96218">
        <ele>694.8000488</ele>
        <time>2019-12-07T13:24:49Z</time>
      </trkpt>
      <trkpt lat="43.87293" lon="6.9624">
        <ele>696.8000488</ele>
        <time>2019-12-07T13:24:55Z</time>
      </trkpt>
      <trkpt lat="43.87292" lon="6.96246">
        <ele>696.8000488</ele>
        <time>2019-12-07T13:24:56Z</time>
      </trkpt>
      <trkpt lat="43.87285" lon="6.96267">
        <ele>696.8000488</ele>
        <time>2019-12-07T13:24:59Z</time>
      </trkpt>
      <trkpt lat="43.87275" lon="6.96286">
        <ele>695.8000488</ele>
        <time>2019-12-07T13:25:02Z</time>
      </trkpt>
      <trkpt lat="43.87265" lon="6.96303">
        <ele>694.4000244</ele>
        <time>2019-12-07T13:25:05Z</time>
      </trkpt>
      <trkpt lat="43.87265" lon="6.96307">
        <ele>693.8000488</ele>
        <time>2019-12-07T13:25:06Z</time>
      </trkpt>
      <trkpt lat="43.87268" lon="6.96308">
        <ele>693.1999512</ele>
        <time>2019-12-07T13:25:07Z</time>
      </trkpt>
      <trkpt lat="43.87271" lon="6.96305">
        <ele>692</ele>
        <time>2019-12-07T13:25:09Z</time>
      </trkpt>
      <trkpt lat="43.8727" lon="6.96305">
        <ele>691.8000488</ele>
        <time>2019-12-07T13:25:10Z</time>
      </trkpt>
      <trkpt lat="43.87268" lon="6.96305">
        <ele>691.5999756</ele>
        <time>2019-12-07T13:25:13Z</time>
      </trkpt>
      <trkpt lat="43.87266" lon="6.96303">
        <ele>691</ele>
        <time>2019-12-07T13:25:15Z</time>
      </trkpt>
      <trkpt lat="43.87265" lon="6.96303">
        <ele>690.5999756</ele>
        <time>2019-12-07T13:25:16Z</time>
      </trkpt>
      <trkpt lat="43.87265" lon="6.96302">
        <ele>690</ele>
        <time>2019-12-07T13:25:20Z</time>
      </trkpt>
      <trkpt lat="43.87266" lon="6.96304">
        <ele>689.5999756</ele>
        <time>2019-12-07T13:25:25Z</time>
      </trkpt>
      <trkpt lat="43.87266" lon="6.96304">
        <ele>689.1999512</ele>
        <time>2019-12-07T13:25:28Z</time>
      </trkpt>
      <trkpt lat="43.87265" lon="6.96304">
        <ele>689.1999512</ele>
        <time>2019-12-07T13:25:44Z</time>
      </trkpt>
      <trkpt lat="43.87265" lon="6.96304">
        <ele>689.1999512</ele>
        <time>2019-12-07T13:25:45Z</time>
      </trkpt>
      <trkpt lat="43.87263" lon="6.96305">
        <ele>688.5999756</ele>
        <time>2019-12-07T13:25:46Z</time>
      </trkpt>
      <trkpt lat="43.8726" lon="6.96307">
        <ele>687.4000244</ele>
        <time>2019-12-07T13:25:48Z</time>
      </trkpt>
      <trkpt lat="43.87259" lon="6.96308">
        <ele>686.8000488</ele>
        <time>2019-12-07T13:25:49Z</time>
      </trkpt>
      <trkpt lat="43.87259" lon="6.96308">
        <ele>686.4000244</ele>
        <time>2019-12-07T13:25:50Z</time>
      </trkpt>
      <trkpt lat="43.87256" lon="6.96311">
        <ele>686.1999512</ele>
        <time>2019-12-07T13:25:52Z</time>
      </trkpt>
      <trkpt lat="43.87256" lon="6.96314">
        <ele>686.4000244</ele>
        <time>2019-12-07T13:25:53Z</time>
      </trkpt>
      <trkpt lat="43.8725" lon="6.9633">
        <ele>685.5999756</ele>
        <time>2019-12-07T13:25:57Z</time>
      </trkpt>
      <trkpt lat="43.87247" lon="6.96329">
        <ele>685.5999756</ele>
        <time>2019-12-07T13:25:58Z</time>
      </trkpt>
      <trkpt lat="43.87246" lon="6.96331">
        <ele>686</ele>
        <time>2019-12-07T13:26:00Z</time>
      </trkpt>
      <trkpt lat="43.87244" lon="6.96327">
        <ele>686</ele>
        <time>2019-12-07T13:26:03Z</time>
      </trkpt>
      <trkpt lat="43.87243" lon="6.96327">
        <ele>685.8000488</ele>
        <time>2019-12-07T13:26:05Z</time>
      </trkpt>
      <trkpt lat="43.87244" lon="6.96328">
        <ele>685.1999512</ele>
        <time>2019-12-07T13:26:11Z</time>
      </trkpt>
      <trkpt lat="43.87244" lon="6.96329">
        <ele>684.4000244</ele>
        <time>2019-12-07T13:26:13Z</time>
      </trkpt>
      <trkpt lat="43.87245" lon="6.96331">
        <ele>684.1999512</ele>
        <time>2019-12-07T13:26:16Z</time>
      </trkpt>
      <trkpt lat="43.87245" lon="6.96333">
        <ele>683.5999756</ele>
        <time>2019-12-07T13:26:18Z</time>
      </trkpt>
      <trkpt lat="43.87244" lon="6.96335">
        <ele>683.4000244</ele>
        <time>2019-12-07T13:26:19Z</time>
      </trkpt>
      <trkpt lat="43.87243" lon="6.96336">
        <ele>683.1999512</ele>
        <time>2019-12-07T13:26:21Z</time>
      </trkpt>
      <trkpt lat="43.87241" lon="6.96336">
        <ele>683</ele>
        <time>2019-12-07T13:26:22Z</time>
      </trkpt>
      <trkpt lat="43.8724" lon="6.96337">
        <ele>682.8000488</ele>
        <time>2019-12-07T13:26:24Z</time>
      </trkpt>
      <trkpt lat="43.87237" lon="6.96343">
        <ele>682.5999756</ele>
        <time>2019-12-07T13:26:31Z</time>
      </trkpt>
      <trkpt lat="43.87237" lon="6.96344">
        <ele>682.4000244</ele>
        <time>2019-12-07T13:26:37Z</time>
      </trkpt>
      <trkpt lat="43.87237" lon="6.96344">
        <ele>682.4000244</ele>
        <time>2019-12-07T13:26:49Z</time>
      </trkpt>
      <trkpt lat="43.87237" lon="6.96344">
        <ele>682.4000244</ele>
        <time>2019-12-07T13:26:58Z</time>
      </trkpt>
      <trkpt lat="43.87237" lon="6.96344">
        <ele>682.4000244</ele>
        <time>2019-12-07T13:27:10Z</time>
      </trkpt>
      <trkpt lat="43.87237" lon="6.96345">
        <ele>682.1999512</ele>
        <time>2019-12-07T13:27:14Z</time>
      </trkpt>
      <trkpt lat="43.87237" lon="6.96345">
        <ele>682.1999512</ele>
        <time>2019-12-07T13:27:22Z</time>
      </trkpt>
      <trkpt lat="43.87235" lon="6.96353">
        <ele>681</ele>
        <time>2019-12-07T13:27:26Z</time>
      </trkpt>
      <trkpt lat="43.87233" lon="6.96355">
        <ele>680.1999512</ele>
        <time>2019-12-07T13:27:28Z</time>
      </trkpt>
      <trkpt lat="43.87234" lon="6.96355">
        <ele>679.8000488</ele>
        <time>2019-12-07T13:27:29Z</time>
      </trkpt>
      <trkpt lat="43.87232" lon="6.96359">
        <ele>679.5999756</ele>
        <time>2019-12-07T13:27:33Z</time>
      </trkpt>
      <trkpt lat="43.87232" lon="6.96363">
        <ele>678.8000488</ele>
        <time>2019-12-07T13:27:36Z</time>
      </trkpt>
      <trkpt lat="43.87231" lon="6.96367">
        <ele>678.1999512</ele>
        <time>2019-12-07T13:27:38Z</time>
      </trkpt>
      <trkpt lat="43.8723" lon="6.96368">
        <ele>677.5999756</ele>
        <time>2019-12-07T13:27:39Z</time>
      </trkpt>
      <trkpt lat="43.87228" lon="6.96371">
        <ele>676.5999756</ele>
        <time>2019-12-07T13:27:44Z</time>
      </trkpt>
      <trkpt lat="43.87227" lon="6.96376">
        <ele>677.5999756</ele>
        <time>2019-12-07T13:27:48Z</time>
      </trkpt>
      <trkpt lat="43.87223" lon="6.96382">
        <ele>677.4000244</ele>
        <time>2019-12-07T13:27:52Z</time>
      </trkpt>
      <trkpt lat="43.8722" lon="6.96386">
        <ele>676.8000488</ele>
        <time>2019-12-07T13:27:56Z</time>
      </trkpt>
      <trkpt lat="43.87215" lon="6.96392">
        <ele>676.5999756</ele>
        <time>2019-12-07T13:28:01Z</time>
      </trkpt>
      <trkpt lat="43.87213" lon="6.96395">
        <ele>675.8000488</ele>
        <time>2019-12-07T13:28:07Z</time>
      </trkpt>
      <trkpt lat="43.87213" lon="6.96395">
        <ele>675.8000488</ele>
        <time>2019-12-07T13:28:15Z</time>
      </trkpt>
      <trkpt lat="43.87212" lon="6.96398">
        <ele>675.8000488</ele>
        <time>2019-12-07T13:28:16Z</time>
      </trkpt>
      <trkpt lat="43.87213" lon="6.96398">
        <ele>675.5999756</ele>
        <time>2019-12-07T13:28:17Z</time>
      </trkpt>
      <trkpt lat="43.87214" lon="6.964">
        <ele>675.5999756</ele>
        <time>2019-12-07T13:28:18Z</time>
      </trkpt>
      <trkpt lat="43.87217" lon="6.96403">
        <ele>674.8000488</ele>
        <time>2019-12-07T13:28:23Z</time>
      </trkpt>
      <trkpt lat="43.87219" lon="6.96405">
        <ele>674.4000244</ele>
        <time>2019-12-07T13:28:24Z</time>
      </trkpt>
      <trkpt lat="43.87219" lon="6.96407">
        <ele>674</ele>
        <time>2019-12-07T13:28:25Z</time>
      </trkpt>
      <trkpt lat="43.87219" lon="6.96412">
        <ele>673</ele>
        <time>2019-12-07T13:28:27Z</time>
      </trkpt>
      <trkpt lat="43.8722" lon="6.96413">
        <ele>671.5999756</ele>
        <time>2019-12-07T13:28:31Z</time>
      </trkpt>
      <trkpt lat="43.8722" lon="6.96413">
        <ele>671.5999756</ele>
        <time>2019-12-07T13:28:32Z</time>
      </trkpt>
      <trkpt lat="43.87222" lon="6.96412">
        <ele>670.4000244</ele>
        <time>2019-12-07T13:28:35Z</time>
      </trkpt>
      <trkpt lat="43.87224" lon="6.96411">
        <ele>669.8000488</ele>
        <time>2019-12-07T13:28:40Z</time>
      </trkpt>
      <trkpt lat="43.87226" lon="6.9641">
        <ele>669.4000244</ele>
        <time>2019-12-07T13:28:41Z</time>
      </trkpt>
      <trkpt lat="43.87226" lon="6.96409">
        <ele>668.8000488</ele>
        <time>2019-12-07T13:28:42Z</time>
      </trkpt>
      <trkpt lat="43.87226" lon="6.96408">
        <ele>667.8000488</ele>
        <time>2019-12-07T13:28:44Z</time>
      </trkpt>
      <trkpt lat="43.87227" lon="6.96408">
        <ele>667.1999512</ele>
        <time>2019-12-07T13:28:45Z</time>
      </trkpt>
      <trkpt lat="43.87226" lon="6.9641">
        <ele>666.5999756</ele>
        <time>2019-12-07T13:28:46Z</time>
      </trkpt>
      <trkpt lat="43.87225" lon="6.96414">
        <ele>665.1999512</ele>
        <time>2019-12-07T13:28:48Z</time>
      </trkpt>
      <trkpt lat="43.87225" lon="6.96415">
        <ele>664.8000488</ele>
        <time>2019-12-07T13:28:49Z</time>
      </trkpt>
      <trkpt lat="43.87224" lon="6.96417">
        <ele>664.4000244</ele>
        <time>2019-12-07T13:28:50Z</time>
      </trkpt>
      <trkpt lat="43.87224" lon="6.96418">
        <ele>664</ele>
        <time>2019-12-07T13:28:51Z</time>
      </trkpt>
      <trkpt lat="43.87224" lon="6.96421">
        <ele>663.4000244</ele>
        <time>2019-12-07T13:28:54Z</time>
      </trkpt>
      <trkpt lat="43.87225" lon="6.96421">
        <ele>662.5999756</ele>
        <time>2019-12-07T13:28:55Z</time>
      </trkpt>
      <trkpt lat="43.87228" lon="6.96424">
        <ele>661.8000488</ele>
        <time>2019-12-07T13:28:58Z</time>
      </trkpt>
      <trkpt lat="43.87229" lon="6.96425">
        <ele>661.4000244</ele>
        <time>2019-12-07T13:28:59Z</time>
      </trkpt>
      <trkpt lat="43.87231" lon="6.96425">
        <ele>660.4000244</ele>
        <time>2019-12-07T13:29:01Z</time>
      </trkpt>
      <trkpt lat="43.87232" lon="6.96424">
        <ele>660</ele>
        <time>2019-12-07T13:29:02Z</time>
      </trkpt>
      <trkpt lat="43.87232" lon="6.96422">
        <ele>658.8000488</ele>
        <time>2019-12-07T13:29:04Z</time>
      </trkpt>
      <trkpt lat="43.87233" lon="6.96422">
        <ele>657.8000488</ele>
        <time>2019-12-07T13:29:06Z</time>
      </trkpt>
      <trkpt lat="43.87234" lon="6.96422">
        <ele>657.8000488</ele>
        <time>2019-12-07T13:29:07Z</time>
      </trkpt>
      <trkpt lat="43.87235" lon="6.9642">
        <ele>657.4000244</ele>
        <time>2019-12-07T13:29:08Z</time>
      </trkpt>
      <trkpt lat="43.87237" lon="6.96418">
        <ele>656.8000488</ele>
        <time>2019-12-07T13:29:10Z</time>
      </trkpt>
      <trkpt lat="43.87239" lon="6.96417">
        <ele>656.1999512</ele>
        <time>2019-12-07T13:29:11Z</time>
      </trkpt>
      <trkpt lat="43.87242" lon="6.96414">
        <ele>655</ele>
        <time>2019-12-07T13:29:14Z</time>
      </trkpt>
      <trkpt lat="43.87242" lon="6.96414">
        <ele>654.5999756</ele>
        <time>2019-12-07T13:29:16Z</time>
      </trkpt>
      <trkpt lat="43.87243" lon="6.96417">
        <ele>653.8000488</ele>
        <time>2019-12-07T13:29:18Z</time>
      </trkpt>
      <trkpt lat="43.87243" lon="6.96419">
        <ele>652.8000488</ele>
        <time>2019-12-07T13:29:20Z</time>
      </trkpt>
      <trkpt lat="43.87243" lon="6.9642">
        <ele>652.5999756</ele>
        <time>2019-12-07T13:29:21Z</time>
      </trkpt>
      <trkpt lat="43.87244" lon="6.9642">
        <ele>652</ele>
        <time>2019-12-07T13:29:24Z</time>
      </trkpt>
      <trkpt lat="43.87246" lon="6.96419">
        <ele>652.1999512</ele>
        <time>2019-12-07T13:29:30Z</time>
      </trkpt>
      <trkpt lat="43.87248" lon="6.9642">
        <ele>653</ele>
        <time>2019-12-07T13:29:32Z</time>
      </trkpt>
      <trkpt lat="43.87251" lon="6.96421">
        <ele>653.5999756</ele>
        <time>2019-12-07T13:29:35Z</time>
      </trkpt>
      <trkpt lat="43.8725" lon="6.96423">
        <ele>653.8000488</ele>
        <time>2019-12-07T13:29:36Z</time>
      </trkpt>
      <trkpt lat="43.87245" lon="6.96435">
        <ele>653.8000488</ele>
        <time>2019-12-07T13:29:41Z</time>
      </trkpt>
      <trkpt lat="43.87242" lon="6.96438">
        <ele>654.1999512</ele>
        <time>2019-12-07T13:29:43Z</time>
      </trkpt>
      <trkpt lat="43.87239" lon="6.96443">
        <ele>654.8000488</ele>
        <time>2019-12-07T13:29:46Z</time>
      </trkpt>
      <trkpt lat="43.87237" lon="6.96445">
        <ele>655.1999512</ele>
        <time>2019-12-07T13:29:47Z</time>
      </trkpt>
      <trkpt lat="43.8723" lon="6.96455">
        <ele>656.1999512</ele>
        <time>2019-12-07T13:29:52Z</time>
      </trkpt>
      <trkpt lat="43.87229" lon="6.96457">
        <ele>656.1999512</ele>
        <time>2019-12-07T13:29:53Z</time>
      </trkpt>
      <trkpt lat="43.87225" lon="6.96471">
        <ele>655</ele>
        <time>2019-12-07T13:29:56Z</time>
      </trkpt>
      <trkpt lat="43.87226" lon="6.96479">
        <ele>654</ele>
        <time>2019-12-07T13:29:57Z</time>
      </trkpt>
      <trkpt lat="43.87225" lon="6.96482">
        <ele>653.5999756</ele>
        <time>2019-12-07T13:29:58Z</time>
      </trkpt>
      <trkpt lat="43.87225" lon="6.96491">
        <ele>652.5999756</ele>
        <time>2019-12-07T13:30:00Z</time>
      </trkpt>
      <trkpt lat="43.87225" lon="6.96493">
        <ele>652.1999512</ele>
        <time>2019-12-07T13:30:01Z</time>
      </trkpt>
      <trkpt lat="43.87224" lon="6.96494">
        <ele>651.8000488</ele>
        <time>2019-12-07T13:30:02Z</time>
      </trkpt>
      <trkpt lat="43.87223" lon="6.96496">
        <ele>652</ele>
        <time>2019-12-07T13:30:05Z</time>
      </trkpt>
      <trkpt lat="43.87222" lon="6.96492">
        <ele>651.5999756</ele>
        <time>2019-12-07T13:30:08Z</time>
      </trkpt>
      <trkpt lat="43.87221" lon="6.96488">
        <ele>651.5999756</ele>
        <time>2019-12-07T13:30:11Z</time>
      </trkpt>
      <trkpt lat="43.87221" lon="6.96488">
        <ele>651.5999756</ele>
        <time>2019-12-07T13:30:24Z</time>
      </trkpt>
      <trkpt lat="43.87221" lon="6.96484">
        <ele>651.5999756</ele>
        <time>2019-12-07T13:30:35Z</time>
      </trkpt>
      <trkpt lat="43.87221" lon="6.96484">
        <ele>651.5999756</ele>
        <time>2019-12-07T13:30:45Z</time>
      </trkpt>
      <trkpt lat="43.87221" lon="6.96484">
        <ele>651.5999756</ele>
        <time>2019-12-07T13:30:58Z</time>
      </trkpt>
      <trkpt lat="43.87221" lon="6.96483">
        <ele>651.5999756</ele>
        <time>2019-12-07T13:31:17Z</time>
      </trkpt>
      <trkpt lat="43.87218" lon="6.96481">
        <ele>651.4000244</ele>
        <time>2019-12-07T13:31:26Z</time>
      </trkpt>
      <trkpt lat="43.87217" lon="6.96479">
        <ele>650.4000244</ele>
        <time>2019-12-07T13:31:28Z</time>
      </trkpt>
      <trkpt lat="43.87216" lon="6.96478">
        <ele>649.8000488</ele>
        <time>2019-12-07T13:31:29Z</time>
      </trkpt>
      <trkpt lat="43.87214" lon="6.96476">
        <ele>648.8000488</ele>
        <time>2019-12-07T13:31:30Z</time>
      </trkpt>
      <trkpt lat="43.87212" lon="6.96475">
        <ele>647.8000488</ele>
        <time>2019-12-07T13:31:31Z</time>
      </trkpt>
      <trkpt lat="43.87211" lon="6.96474">
        <ele>646.8000488</ele>
        <time>2019-12-07T13:31:32Z</time>
      </trkpt>
      <trkpt lat="43.87209" lon="6.96473">
        <ele>645.5999756</ele>
        <time>2019-12-07T13:31:33Z</time>
      </trkpt>
      <trkpt lat="43.87207" lon="6.96471">
        <ele>644.1999512</ele>
        <time>2019-12-07T13:31:35Z</time>
      </trkpt>
      <trkpt lat="43.87202" lon="6.96466">
        <ele>643</ele>
        <time>2019-12-07T13:31:39Z</time>
      </trkpt>
      <trkpt lat="43.872" lon="6.96464">
        <ele>642</ele>
        <time>2019-12-07T13:31:41Z</time>
      </trkpt>
      <trkpt lat="43.872" lon="6.96463">
        <ele>641.5999756</ele>
        <time>2019-12-07T13:31:42Z</time>
      </trkpt>
      <trkpt lat="43.87196" lon="6.96458">
        <ele>640.5999756</ele>
        <time>2019-12-07T13:31:46Z</time>
      </trkpt>
      <trkpt lat="43.87195" lon="6.96456">
        <ele>640.4000244</ele>
        <time>2019-12-07T13:31:47Z</time>
      </trkpt>
      <trkpt lat="43.87194" lon="6.96447">
        <ele>639.1999512</ele>
        <time>2019-12-07T13:31:51Z</time>
      </trkpt>
      <trkpt lat="43.87196" lon="6.96442">
        <ele>637.8000488</ele>
        <time>2019-12-07T13:31:53Z</time>
      </trkpt>
      <trkpt lat="43.87195" lon="6.96437">
        <ele>636.8000488</ele>
        <time>2019-12-07T13:31:56Z</time>
      </trkpt>
      <trkpt lat="43.87193" lon="6.96435">
        <ele>637.1999512</ele>
        <time>2019-12-07T13:31:58Z</time>
      </trkpt>
      <trkpt lat="43.87188" lon="6.9643">
        <ele>636.8000488</ele>
        <time>2019-12-07T13:32:03Z</time>
      </trkpt>
      <trkpt lat="43.87187" lon="6.9643">
        <ele>636.4000244</ele>
        <time>2019-12-07T13:32:04Z</time>
      </trkpt>
      <trkpt lat="43.87185" lon="6.96426">
        <ele>635.8000488</ele>
        <time>2019-12-07T13:32:07Z</time>
      </trkpt>
      <trkpt lat="43.87176" lon="6.96421">
        <ele>634.8000488</ele>
        <time>2019-12-07T13:32:10Z</time>
      </trkpt>
      <trkpt lat="43.87176" lon="6.96421">
        <ele>634.8000488</ele>
        <time>2019-12-07T13:32:18Z</time>
      </trkpt>
      <trkpt lat="43.87174" lon="6.9642">
        <ele>634.5999756</ele>
        <time>2019-12-07T13:32:20Z</time>
      </trkpt>
      <trkpt lat="43.87173" lon="6.96416">
        <ele>634</ele>
        <time>2019-12-07T13:32:23Z</time>
      </trkpt>
      <trkpt lat="43.87173" lon="6.96412">
        <ele>633.4000244</ele>
        <time>2019-12-07T13:32:25Z</time>
      </trkpt>
      <trkpt lat="43.87175" lon="6.96406">
        <ele>633</ele>
        <time>2019-12-07T13:32:28Z</time>
      </trkpt>
      <trkpt lat="43.87175" lon="6.96403">
        <ele>633</ele>
        <time>2019-12-07T13:32:29Z</time>
      </trkpt>
      <trkpt lat="43.87174" lon="6.9638">
        <ele>633</ele>
        <time>2019-12-07T13:32:37Z</time>
      </trkpt>
      <trkpt lat="43.8717" lon="6.96373">
        <ele>632.8000488</ele>
        <time>2019-12-07T13:32:40Z</time>
      </trkpt>
      <trkpt lat="43.87168" lon="6.96373">
        <ele>632.8000488</ele>
        <time>2019-12-07T13:32:41Z</time>
      </trkpt>
      <trkpt lat="43.87163" lon="6.96377">
        <ele>632.5999756</ele>
        <time>2019-12-07T13:32:44Z</time>
      </trkpt>
      <trkpt lat="43.87161" lon="6.96379">
        <ele>632.4000244</ele>
        <time>2019-12-07T13:32:45Z</time>
      </trkpt>
      <trkpt lat="43.87157" lon="6.96381">
        <ele>631.8000488</ele>
        <time>2019-12-07T13:32:47Z</time>
      </trkpt>
      <trkpt lat="43.87153" lon="6.96382">
        <ele>631</ele>
        <time>2019-12-07T13:32:49Z</time>
      </trkpt>
      <trkpt lat="43.87145" lon="6.96384">
        <ele>629.5999756</ele>
        <time>2019-12-07T13:32:52Z</time>
      </trkpt>
      <trkpt lat="43.87138" lon="6.96383">
        <ele>628.4000244</ele>
        <time>2019-12-07T13:32:54Z</time>
      </trkpt>
      <trkpt lat="43.87135" lon="6.96384">
        <ele>627.4000244</ele>
        <time>2019-12-07T13:32:55Z</time>
      </trkpt>
      <trkpt lat="43.87129" lon="6.96383">
        <ele>625.4000244</ele>
        <time>2019-12-07T13:32:57Z</time>
      </trkpt>
      <trkpt lat="43.87124" lon="6.96383">
        <ele>624</ele>
        <time>2019-12-07T13:32:59Z</time>
      </trkpt>
      <trkpt lat="43.87122" lon="6.96384">
        <ele>623.4000244</ele>
        <time>2019-12-07T13:33:00Z</time>
      </trkpt>
      <trkpt lat="43.87121" lon="6.96385">
        <ele>622.5999756</ele>
        <time>2019-12-07T13:33:01Z</time>
      </trkpt>
      <trkpt lat="43.87117" lon="6.96385">
        <ele>621.1999512</ele>
        <time>2019-12-07T13:33:03Z</time>
      </trkpt>
      <trkpt lat="43.87112" lon="6.96386">
        <ele>620</ele>
        <time>2019-12-07T13:33:05Z</time>
      </trkpt>
      <trkpt lat="43.87109" lon="6.96386">
        <ele>619.1999512</ele>
        <time>2019-12-07T13:33:06Z</time>
      </trkpt>
      <trkpt lat="43.87106" lon="6.96387">
        <ele>618.5999756</ele>
        <time>2019-12-07T13:33:07Z</time>
      </trkpt>
      <trkpt lat="43.87101" lon="6.96387">
        <ele>617</ele>
        <time>2019-12-07T13:33:09Z</time>
      </trkpt>
      <trkpt lat="43.87096" lon="6.96387">
        <ele>615.5999756</ele>
        <time>2019-12-07T13:33:11Z</time>
      </trkpt>
      <trkpt lat="43.87093" lon="6.96386">
        <ele>614.4000244</ele>
        <time>2019-12-07T13:33:13Z</time>
      </trkpt>
      <trkpt lat="43.87085" lon="6.96385">
        <ele>613.1999512</ele>
        <time>2019-12-07T13:33:16Z</time>
      </trkpt>
      <trkpt lat="43.87078" lon="6.96385">
        <ele>612.4000244</ele>
        <time>2019-12-07T13:33:18Z</time>
      </trkpt>
      <trkpt lat="43.87076" lon="6.96385">
        <ele>612</ele>
        <time>2019-12-07T13:33:19Z</time>
      </trkpt>
      <trkpt lat="43.87074" lon="6.96383">
        <ele>611.4000244</ele>
        <time>2019-12-07T13:33:20Z</time>
      </trkpt>
      <trkpt lat="43.87074" lon="6.96381">
        <ele>610.8000488</ele>
        <time>2019-12-07T13:33:21Z</time>
      </trkpt>
      <trkpt lat="43.87076" lon="6.96376">
        <ele>609.5999756</ele>
        <time>2019-12-07T13:33:23Z</time>
      </trkpt>
      <trkpt lat="43.87076" lon="6.96374">
        <ele>608.4000244</ele>
        <time>2019-12-07T13:33:24Z</time>
      </trkpt>
      <trkpt lat="43.87075" lon="6.96374">
        <ele>606.5999756</ele>
        <time>2019-12-07T13:33:25Z</time>
      </trkpt>
      <trkpt lat="43.87075" lon="6.96375">
        <ele>604.8000488</ele>
        <time>2019-12-07T13:33:26Z</time>
      </trkpt>
      <trkpt lat="43.87073" lon="6.96374">
        <ele>603.4000244</ele>
        <time>2019-12-07T13:33:27Z</time>
      </trkpt>
      <trkpt lat="43.87069" lon="6.96373">
        <ele>601.4000244</ele>
        <time>2019-12-07T13:33:29Z</time>
      </trkpt>
      <trkpt lat="43.87067" lon="6.96372">
        <ele>600.1999512</ele>
        <time>2019-12-07T13:33:30Z</time>
      </trkpt>
      <trkpt lat="43.87066" lon="6.96371">
        <ele>599.4000244</ele>
        <time>2019-12-07T13:33:31Z</time>
      </trkpt>
      <trkpt lat="43.87066" lon="6.9637">
        <ele>599</ele>
        <time>2019-12-07T13:33:32Z</time>
      </trkpt>
      <trkpt lat="43.87066" lon="6.96369">
        <ele>598.8000488</ele>
        <time>2019-12-07T13:33:33Z</time>
      </trkpt>
      <trkpt lat="43.87069" lon="6.96366">
        <ele>598.4000244</ele>
        <time>2019-12-07T13:33:34Z</time>
      </trkpt>
      <trkpt lat="43.87074" lon="6.96362">
        <ele>597.8000488</ele>
        <time>2019-12-07T13:33:36Z</time>
      </trkpt>
      <trkpt lat="43.87079" lon="6.96355">
        <ele>596.5999756</ele>
        <time>2019-12-07T13:33:39Z</time>
      </trkpt>
      <trkpt lat="43.8708" lon="6.96347">
        <ele>595.4000244</ele>
        <time>2019-12-07T13:33:42Z</time>
      </trkpt>
      <trkpt lat="43.87083" lon="6.96344">
        <ele>594.8000488</ele>
        <time>2019-12-07T13:33:44Z</time>
      </trkpt>
      <trkpt lat="43.87086" lon="6.96342">
        <ele>594.4000244</ele>
        <time>2019-12-07T13:33:45Z</time>
      </trkpt>
      <trkpt lat="43.87089" lon="6.96339">
        <ele>594</ele>
        <time>2019-12-07T13:33:46Z</time>
      </trkpt>
      <trkpt lat="43.87094" lon="6.96332">
        <ele>593</ele>
        <time>2019-12-07T13:33:48Z</time>
      </trkpt>
      <trkpt lat="43.87096" lon="6.96325">
        <ele>591.5999756</ele>
        <time>2019-12-07T13:33:50Z</time>
      </trkpt>
      <trkpt lat="43.87096" lon="6.96317">
        <ele>589.8000488</ele>
        <time>2019-12-07T13:33:53Z</time>
      </trkpt>
      <trkpt lat="43.87094" lon="6.96317">
        <ele>589</ele>
        <time>2019-12-07T13:33:54Z</time>
      </trkpt>
      <trkpt lat="43.87092" lon="6.96318">
        <ele>587.8000488</ele>
        <time>2019-12-07T13:33:55Z</time>
      </trkpt>
      <trkpt lat="43.87088" lon="6.9632">
        <ele>587.1999512</ele>
        <time>2019-12-07T13:33:56Z</time>
      </trkpt>
      <trkpt lat="43.87084" lon="6.96321">
        <ele>586.5999756</ele>
        <time>2019-12-07T13:33:57Z</time>
      </trkpt>
      <trkpt lat="43.87082" lon="6.96319">
        <ele>585.1999512</ele>
        <time>2019-12-07T13:33:59Z</time>
      </trkpt>
      <trkpt lat="43.87083" lon="6.96318">
        <ele>584.4000244</ele>
        <time>2019-12-07T13:34:00Z</time>
      </trkpt>
      <trkpt lat="43.87083" lon="6.96318">
        <ele>583.5999756</ele>
        <time>2019-12-07T13:34:01Z</time>
      </trkpt>
      <trkpt lat="43.87083" lon="6.96316">
        <ele>582.5999756</ele>
        <time>2019-12-07T13:34:05Z</time>
      </trkpt>
      <trkpt lat="43.87084" lon="6.96313">
        <ele>581.4000244</ele>
        <time>2019-12-07T13:34:06Z</time>
      </trkpt>
      <trkpt lat="43.87087" lon="6.96306">
        <ele>579.4000244</ele>
        <time>2019-12-07T13:34:08Z</time>
      </trkpt>
      <trkpt lat="43.87088" lon="6.96302">
        <ele>578.4000244</ele>
        <time>2019-12-07T13:34:09Z</time>
      </trkpt>
      <trkpt lat="43.87089" lon="6.96298">
        <ele>577.4000244</ele>
        <time>2019-12-07T13:34:10Z</time>
      </trkpt>
      <trkpt lat="43.8709" lon="6.96295">
        <ele>576.1999512</ele>
        <time>2019-12-07T13:34:11Z</time>
      </trkpt>
      <trkpt lat="43.87094" lon="6.96289">
        <ele>574.1999512</ele>
        <time>2019-12-07T13:34:13Z</time>
      </trkpt>
      <trkpt lat="43.87099" lon="6.96281">
        <ele>572.8000488</ele>
        <time>2019-12-07T13:34:15Z</time>
      </trkpt>
      <trkpt lat="43.87102" lon="6.96279">
        <ele>571.8000488</ele>
        <time>2019-12-07T13:34:16Z</time>
      </trkpt>
      <trkpt lat="43.87103" lon="6.96276">
        <ele>571.1999512</ele>
        <time>2019-12-07T13:34:17Z</time>
      </trkpt>
      <trkpt lat="43.87106" lon="6.96269">
        <ele>569.4000244</ele>
        <time>2019-12-07T13:34:19Z</time>
      </trkpt>
      <trkpt lat="43.87109" lon="6.96264">
        <ele>568</ele>
        <time>2019-12-07T13:34:21Z</time>
      </trkpt>
      <trkpt lat="43.8711" lon="6.96261">
        <ele>567.1999512</ele>
        <time>2019-12-07T13:34:22Z</time>
      </trkpt>
      <trkpt lat="43.87107" lon="6.96259">
        <ele>566</ele>
        <time>2019-12-07T13:34:23Z</time>
      </trkpt>
      <trkpt lat="43.87104" lon="6.96256">
        <ele>565</ele>
        <time>2019-12-07T13:34:24Z</time>
      </trkpt>
      <trkpt lat="43.87099" lon="6.96248">
        <ele>563.1999512</ele>
        <time>2019-12-07T13:34:26Z</time>
      </trkpt>
      <trkpt lat="43.87095" lon="6.96241">
        <ele>561.8000488</ele>
        <time>2019-12-07T13:34:28Z</time>
      </trkpt>
      <trkpt lat="43.87094" lon="6.96237">
        <ele>561.4000244</ele>
        <time>2019-12-07T13:34:29Z</time>
      </trkpt>
      <trkpt lat="43.87094" lon="6.96229">
        <ele>560.4000244</ele>
        <time>2019-12-07T13:34:31Z</time>
      </trkpt>
      <trkpt lat="43.87094" lon="6.96221">
        <ele>559.1999512</ele>
        <time>2019-12-07T13:34:33Z</time>
      </trkpt>
      <trkpt lat="43.87094" lon="6.9621">
        <ele>558.1999512</ele>
        <time>2019-12-07T13:34:36Z</time>
      </trkpt>
      <trkpt lat="43.87096" lon="6.96194">
        <ele>556.8000488</ele>
        <time>2019-12-07T13:34:41Z</time>
      </trkpt>
      <trkpt lat="43.87096" lon="6.96189">
        <ele>556.4000244</ele>
        <time>2019-12-07T13:34:42Z</time>
      </trkpt>
      <trkpt lat="43.87096" lon="6.9618">
        <ele>555.8000488</ele>
        <time>2019-12-07T13:34:44Z</time>
      </trkpt>
      <trkpt lat="43.87098" lon="6.96166">
        <ele>554.8000488</ele>
        <time>2019-12-07T13:34:47Z</time>
      </trkpt>
      <trkpt lat="43.871" lon="6.96162">
        <ele>554.5999756</ele>
        <time>2019-12-07T13:34:48Z</time>
      </trkpt>
      <trkpt lat="43.87101" lon="6.9615">
        <ele>553.4000244</ele>
        <time>2019-12-07T13:34:51Z</time>
      </trkpt>
      <trkpt lat="43.87099" lon="6.96145">
        <ele>553</ele>
        <time>2019-12-07T13:34:52Z</time>
      </trkpt>
      <trkpt lat="43.87096" lon="6.96137">
        <ele>552</ele>
        <time>2019-12-07T13:34:54Z</time>
      </trkpt>
      <trkpt lat="43.87092" lon="6.96127">
        <ele>550.5999756</ele>
        <time>2019-12-07T13:34:56Z</time>
      </trkpt>
      <trkpt lat="43.87091" lon="6.96121">
        <ele>549.8000488</ele>
        <time>2019-12-07T13:34:57Z</time>
      </trkpt>
      <trkpt lat="43.87089" lon="6.96115">
        <ele>549.4000244</ele>
        <time>2019-12-07T13:34:58Z</time>
      </trkpt>
      <trkpt lat="43.87084" lon="6.96096">
        <ele>547.8000488</ele>
        <time>2019-12-07T13:35:01Z</time>
      </trkpt>
      <trkpt lat="43.87083" lon="6.9609">
        <ele>547.1999512</ele>
        <time>2019-12-07T13:35:02Z</time>
      </trkpt>
      <trkpt lat="43.87082" lon="6.96083">
        <ele>546.4000244</ele>
        <time>2019-12-07T13:35:03Z</time>
      </trkpt>
      <trkpt lat="43.87077" lon="6.9607">
        <ele>544.8000488</ele>
        <time>2019-12-07T13:35:05Z</time>
      </trkpt>
      <trkpt lat="43.87074" lon="6.96065">
        <ele>544.1999512</ele>
        <time>2019-12-07T13:35:06Z</time>
      </trkpt>
      <trkpt lat="43.87071" lon="6.96059">
        <ele>543.5999756</ele>
        <time>2019-12-07T13:35:07Z</time>
      </trkpt>
      <trkpt lat="43.87065" lon="6.9605">
        <ele>542.4000244</ele>
        <time>2019-12-07T13:35:09Z</time>
      </trkpt>
      <trkpt lat="43.87059" lon="6.96041">
        <ele>540.8000488</ele>
        <time>2019-12-07T13:35:11Z</time>
      </trkpt>
      <trkpt lat="43.87054" lon="6.96034">
        <ele>539.5999756</ele>
        <time>2019-12-07T13:35:13Z</time>
      </trkpt>
      <trkpt lat="43.8705" lon="6.96027">
        <ele>538.1999512</ele>
        <time>2019-12-07T13:35:15Z</time>
      </trkpt>
      <trkpt lat="43.87046" lon="6.96024">
        <ele>537.1999512</ele>
        <time>2019-12-07T13:35:16Z</time>
      </trkpt>
      <trkpt lat="43.87042" lon="6.9602">
        <ele>536.1999512</ele>
        <time>2019-12-07T13:35:17Z</time>
      </trkpt>
      <trkpt lat="43.87038" lon="6.96016">
        <ele>535.1999512</ele>
        <time>2019-12-07T13:35:18Z</time>
      </trkpt>
      <trkpt lat="43.87035" lon="6.96012">
        <ele>534.1999512</ele>
        <time>2019-12-07T13:35:19Z</time>
      </trkpt>
      <trkpt lat="43.87032" lon="6.96009">
        <ele>533.1999512</ele>
        <time>2019-12-07T13:35:20Z</time>
      </trkpt>
      <trkpt lat="43.87028" lon="6.96002">
        <ele>531.8000488</ele>
        <time>2019-12-07T13:35:22Z</time>
      </trkpt>
      <trkpt lat="43.87027" lon="6.95999">
        <ele>531</ele>
        <time>2019-12-07T13:35:23Z</time>
      </trkpt>
      <trkpt lat="43.87025" lon="6.95996">
        <ele>530.1999512</ele>
        <time>2019-12-07T13:35:24Z</time>
      </trkpt>
      <trkpt lat="43.87024" lon="6.95994">
        <ele>529.4000244</ele>
        <time>2019-12-07T13:35:25Z</time>
      </trkpt>
      <trkpt lat="43.87024" lon="6.95994">
        <ele>528.8000488</ele>
        <time>2019-12-07T13:35:26Z</time>
      </trkpt>
      <trkpt lat="43.87024" lon="6.95994">
        <ele>528.8000488</ele>
        <time>2019-12-07T13:35:27Z</time>
      </trkpt>
      <trkpt lat="43.87024" lon="6.95994">
        <ele>528.8000488</ele>
        <time>2019-12-07T13:35:41Z</time>
      </trkpt>
      <trkpt lat="43.87024" lon="6.95994">
        <ele>528.8000488</ele>
        <time>2019-12-07T13:35:53Z</time>
      </trkpt>
      <trkpt lat="43.87023" lon="6.95994">
        <ele>528.8000488</ele>
        <time>2019-12-07T13:36:10Z</time>
      </trkpt>
      <trkpt lat="43.87023" lon="6.95994">
        <ele>528.8000488</ele>
        <time>2019-12-07T13:36:24Z</time>
      </trkpt>
      <trkpt lat="43.87023" lon="6.95994">
        <ele>528.8000488</ele>
        <time>2019-12-07T13:36:39Z</time>
      </trkpt>
      <trkpt lat="43.87023" lon="6.95994">
        <ele>528.8000488</ele>
        <time>2019-12-07T13:36:53Z</time>
      </trkpt>
      <trkpt lat="43.87023" lon="6.95994">
        <ele>528.8000488</ele>
        <time>2019-12-07T13:37:08Z</time>
      </trkpt>
      <trkpt lat="43.87024" lon="6.95994">
        <ele>528.8000488</ele>
        <time>2019-12-07T13:37:26Z</time>
      </trkpt>
      <trkpt lat="43.87023" lon="6.95992">
        <ele>528.1999512</ele>
        <time>2019-12-07T13:37:30Z</time>
      </trkpt>
      <trkpt lat="43.87021" lon="6.9599">
        <ele>527.8000488</ele>
        <time>2019-12-07T13:37:31Z</time>
      </trkpt>
      <trkpt lat="43.87019" lon="6.95987">
        <ele>527.1999512</ele>
        <time>2019-12-07T13:37:32Z</time>
      </trkpt>
      <trkpt lat="43.87017" lon="6.95985">
        <ele>526.5999756</ele>
        <time>2019-12-07T13:37:33Z</time>
      </trkpt>
      <trkpt lat="43.87013" lon="6.95979">
        <ele>525.1999512</ele>
        <time>2019-12-07T13:37:35Z</time>
      </trkpt>
      <trkpt lat="43.87011" lon="6.95972">
        <ele>523.4000244</ele>
        <time>2019-12-07T13:37:37Z</time>
      </trkpt>
      <trkpt lat="43.8701" lon="6.95968">
        <ele>522.4000244</ele>
        <time>2019-12-07T13:37:38Z</time>
      </trkpt>
      <trkpt lat="43.87008" lon="6.95963">
        <ele>520.4000244</ele>
        <time>2019-12-07T13:37:40Z</time>
      </trkpt>
      <trkpt lat="43.87006" lon="6.95961">
        <ele>518.4000244</ele>
        <time>2019-12-07T13:37:42Z</time>
      </trkpt>
      <trkpt lat="43.87006" lon="6.95959">
        <ele>516.4000244</ele>
        <time>2019-12-07T13:37:44Z</time>
      </trkpt>
      <trkpt lat="43.87006" lon="6.95957">
        <ele>514.5999756</ele>
        <time>2019-12-07T13:37:46Z</time>
      </trkpt>
      <trkpt lat="43.87006" lon="6.95955">
        <ele>513.7999878</ele>
        <time>2019-12-07T13:37:47Z</time>
      </trkpt>
      <trkpt lat="43.87004" lon="6.95955">
        <ele>513.2000122</ele>
        <time>2019-12-07T13:37:48Z</time>
      </trkpt>
      <trkpt lat="43.87001" lon="6.9595">
        <ele>511.7999878</ele>
        <time>2019-12-07T13:37:50Z</time>
      </trkpt>
      <trkpt lat="43.86997" lon="6.95943">
        <ele>510.2000122</ele>
        <time>2019-12-07T13:37:52Z</time>
      </trkpt>
      <trkpt lat="43.86994" lon="6.95935">
        <ele>508.7999878</ele>
        <time>2019-12-07T13:37:54Z</time>
      </trkpt>
      <trkpt lat="43.86992" lon="6.95929">
        <ele>508.2000122</ele>
        <time>2019-12-07T13:37:55Z</time>
      </trkpt>
      <trkpt lat="43.86993" lon="6.95925">
        <ele>507.4000244</ele>
        <time>2019-12-07T13:37:56Z</time>
      </trkpt>
      <trkpt lat="43.86997" lon="6.95915">
        <ele>505.7999878</ele>
        <time>2019-12-07T13:37:58Z</time>
      </trkpt>
      <trkpt lat="43.86998" lon="6.95907">
        <ele>504</ele>
        <time>2019-12-07T13:38:00Z</time>
      </trkpt>
      <trkpt lat="43.86997" lon="6.95905">
        <ele>503</ele>
        <time>2019-12-07T13:38:01Z</time>
      </trkpt>
      <trkpt lat="43.86994" lon="6.95904">
        <ele>502.2000122</ele>
        <time>2019-12-07T13:38:02Z</time>
      </trkpt>
      <trkpt lat="43.8699" lon="6.95905">
        <ele>500.4000244</ele>
        <time>2019-12-07T13:38:04Z</time>
      </trkpt>
      <trkpt lat="43.86987" lon="6.95906">
        <ele>499.5999756</ele>
        <time>2019-12-07T13:38:05Z</time>
      </trkpt>
      <trkpt lat="43.86984" lon="6.95904">
        <ele>498.5999756</ele>
        <time>2019-12-07T13:38:06Z</time>
      </trkpt>
      <trkpt lat="43.86982" lon="6.95898">
        <ele>497</ele>
        <time>2019-12-07T13:38:08Z</time>
      </trkpt>
      <trkpt lat="43.86977" lon="6.95893">
        <ele>495.2000122</ele>
        <time>2019-12-07T13:38:10Z</time>
      </trkpt>
      <trkpt lat="43.86973" lon="6.95891">
        <ele>494.5999756</ele>
        <time>2019-12-07T13:38:11Z</time>
      </trkpt>
      <trkpt lat="43.86968" lon="6.95888">
        <ele>493.7999878</ele>
        <time>2019-12-07T13:38:12Z</time>
      </trkpt>
      <trkpt lat="43.86961" lon="6.95883">
        <ele>492</ele>
        <time>2019-12-07T13:38:14Z</time>
      </trkpt>
      <trkpt lat="43.86957" lon="6.95878">
        <ele>490.4000244</ele>
        <time>2019-12-07T13:38:16Z</time>
      </trkpt>
      <trkpt lat="43.86956" lon="6.95875">
        <ele>489.4000244</ele>
        <time>2019-12-07T13:38:17Z</time>
      </trkpt>
      <trkpt lat="43.86955" lon="6.95871">
        <ele>488.7999878</ele>
        <time>2019-12-07T13:38:18Z</time>
      </trkpt>
      <trkpt lat="43.86955" lon="6.95867">
        <ele>488.2000122</ele>
        <time>2019-12-07T13:38:19Z</time>
      </trkpt>
      <trkpt lat="43.86954" lon="6.95863">
        <ele>487</ele>
        <time>2019-12-07T13:38:20Z</time>
      </trkpt>
      <trkpt lat="43.86951" lon="6.95858">
        <ele>485</ele>
        <time>2019-12-07T13:38:22Z</time>
      </trkpt>
      <trkpt lat="43.86949" lon="6.95859">
        <ele>484</ele>
        <time>2019-12-07T13:38:23Z</time>
      </trkpt>
      <trkpt lat="43.86948" lon="6.95861">
        <ele>483.2000122</ele>
        <time>2019-12-07T13:38:24Z</time>
      </trkpt>
      <trkpt lat="43.86945" lon="6.95863">
        <ele>482</ele>
        <time>2019-12-07T13:38:26Z</time>
      </trkpt>
      <trkpt lat="43.8694" lon="6.9586">
        <ele>481</ele>
        <time>2019-12-07T13:38:29Z</time>
      </trkpt>
      <trkpt lat="43.86936" lon="6.95866">
        <ele>479.7999878</ele>
        <time>2019-12-07T13:38:32Z</time>
      </trkpt>
      <trkpt lat="43.86931" lon="6.95864">
        <ele>478.4000244</ele>
        <time>2019-12-07T13:38:34Z</time>
      </trkpt>
      <trkpt lat="43.86929" lon="6.95866">
        <ele>477.7999878</ele>
        <time>2019-12-07T13:38:35Z</time>
      </trkpt>
      <trkpt lat="43.86924" lon="6.95866">
        <ele>477</ele>
        <time>2019-12-07T13:38:37Z</time>
      </trkpt>
      <trkpt lat="43.86922" lon="6.95864">
        <ele>476.4000244</ele>
        <time>2019-12-07T13:38:38Z</time>
      </trkpt>
      <trkpt lat="43.8692" lon="6.95861">
        <ele>475.7999878</ele>
        <time>2019-12-07T13:38:39Z</time>
      </trkpt>
      <trkpt lat="43.86918" lon="6.95855">
        <ele>475</ele>
        <time>2019-12-07T13:38:41Z</time>
      </trkpt>
      <trkpt lat="43.86918" lon="6.95852">
        <ele>474.4000244</ele>
        <time>2019-12-07T13:38:42Z</time>
      </trkpt>
      <trkpt lat="43.86914" lon="6.95851">
        <ele>472.7999878</ele>
        <time>2019-12-07T13:38:44Z</time>
      </trkpt>
      <trkpt lat="43.86909" lon="6.95849">
        <ele>471.4000244</ele>
        <time>2019-12-07T13:38:46Z</time>
      </trkpt>
      <trkpt lat="43.86904" lon="6.95844">
        <ele>470.4000244</ele>
        <time>2019-12-07T13:38:48Z</time>
      </trkpt>
      <trkpt lat="43.869" lon="6.95841">
        <ele>469.7999878</ele>
        <time>2019-12-07T13:38:50Z</time>
      </trkpt>
      <trkpt lat="43.869" lon="6.95839">
        <ele>469.4000244</ele>
        <time>2019-12-07T13:38:51Z</time>
      </trkpt>
      <trkpt lat="43.869" lon="6.95836">
        <ele>469.2000122</ele>
        <time>2019-12-07T13:38:52Z</time>
      </trkpt>
      <trkpt lat="43.86899" lon="6.95832">
        <ele>468</ele>
        <time>2019-12-07T13:38:54Z</time>
      </trkpt>
      <trkpt lat="43.86898" lon="6.95831">
        <ele>467.2000122</ele>
        <time>2019-12-07T13:38:55Z</time>
      </trkpt>
      <trkpt lat="43.86896" lon="6.9583">
        <ele>466.4000244</ele>
        <time>2019-12-07T13:38:56Z</time>
      </trkpt>
      <trkpt lat="43.86891" lon="6.95833">
        <ele>465.4000244</ele>
        <time>2019-12-07T13:38:58Z</time>
      </trkpt>
      <trkpt lat="43.86886" lon="6.95838">
        <ele>464.7999878</ele>
        <time>2019-12-07T13:39:00Z</time>
      </trkpt>
      <trkpt lat="43.86883" lon="6.95841">
        <ele>464.4000244</ele>
        <time>2019-12-07T13:39:01Z</time>
      </trkpt>
      <trkpt lat="43.86881" lon="6.95844">
        <ele>464.2000122</ele>
        <time>2019-12-07T13:39:02Z</time>
      </trkpt>
      <trkpt lat="43.86875" lon="6.95857">
        <ele>462.5999756</ele>
        <time>2019-12-07T13:39:05Z</time>
      </trkpt>
      <trkpt lat="43.8687" lon="6.95867">
        <ele>461.2000122</ele>
        <time>2019-12-07T13:39:07Z</time>
      </trkpt>
      <trkpt lat="43.86866" lon="6.95877">
        <ele>459.7999878</ele>
        <time>2019-12-07T13:39:09Z</time>
      </trkpt>
      <trkpt lat="43.86863" lon="6.95881">
        <ele>459.2000122</ele>
        <time>2019-12-07T13:39:10Z</time>
      </trkpt>
      <trkpt lat="43.8686" lon="6.95885">
        <ele>458.4000244</ele>
        <time>2019-12-07T13:39:11Z</time>
      </trkpt>
      <trkpt lat="43.86852" lon="6.95891">
        <ele>457</ele>
        <time>2019-12-07T13:39:13Z</time>
      </trkpt>
      <trkpt lat="43.86844" lon="6.95895">
        <ele>455.5999756</ele>
        <time>2019-12-07T13:39:15Z</time>
      </trkpt>
      <trkpt lat="43.8684" lon="6.95897">
        <ele>454.5999756</ele>
        <time>2019-12-07T13:39:16Z</time>
      </trkpt>
      <trkpt lat="43.86836" lon="6.95898">
        <ele>453.7999878</ele>
        <time>2019-12-07T13:39:17Z</time>
      </trkpt>
      <trkpt lat="43.86828" lon="6.95899">
        <ele>452.4000244</ele>
        <time>2019-12-07T13:39:19Z</time>
      </trkpt>
      <trkpt lat="43.8682" lon="6.95899">
        <ele>451.2000122</ele>
        <time>2019-12-07T13:39:21Z</time>
      </trkpt>
      <trkpt lat="43.86812" lon="6.95895">
        <ele>449.7999878</ele>
        <time>2019-12-07T13:39:23Z</time>
      </trkpt>
      <trkpt lat="43.86806" lon="6.9589">
        <ele>448.2000122</ele>
        <time>2019-12-07T13:39:25Z</time>
      </trkpt>
      <trkpt lat="43.86803" lon="6.9589">
        <ele>447.2000122</ele>
        <time>2019-12-07T13:39:27Z</time>
      </trkpt>
      <trkpt lat="43.86803" lon="6.95889">
        <ele>446.7999878</ele>
        <time>2019-12-07T13:39:28Z</time>
      </trkpt>
      <trkpt lat="43.86802" lon="6.95886">
        <ele>446.7999878</ele>
        <time>2019-12-07T13:39:30Z</time>
      </trkpt>
      <trkpt lat="43.86805" lon="6.95876">
        <ele>447.7999878</ele>
        <time>2019-12-07T13:39:33Z</time>
      </trkpt>
      <trkpt lat="43.86805" lon="6.95873">
        <ele>448.2000122</ele>
        <time>2019-12-07T13:39:34Z</time>
      </trkpt>
      <trkpt lat="43.86805" lon="6.95871">
        <ele>449</ele>
        <time>2019-12-07T13:39:35Z</time>
      </trkpt>
      <trkpt lat="43.86805" lon="6.9587">
        <ele>449.5999756</ele>
        <time>2019-12-07T13:39:36Z</time>
      </trkpt>
      <trkpt lat="43.86804" lon="6.95869">
        <ele>449.7999878</ele>
        <time>2019-12-07T13:39:37Z</time>
      </trkpt>
      <trkpt lat="43.86803" lon="6.9587">
        <ele>451</ele>
        <time>2019-12-07T13:39:42Z</time>
      </trkpt>
      <trkpt lat="43.86802" lon="6.95871">
        <ele>451.2000122</ele>
        <time>2019-12-07T13:39:52Z</time>
      </trkpt>
      <trkpt lat="43.86802" lon="6.95871">
        <ele>451.2000122</ele>
        <time>2019-12-07T13:40:00Z</time>
      </trkpt>
      <trkpt lat="43.868" lon="6.95874">
        <ele>451.5999756</ele>
        <time>2019-12-07T13:40:03Z</time>
      </trkpt>
      <trkpt lat="43.86796" lon="6.95877">
        <ele>452</ele>
        <time>2019-12-07T13:40:05Z</time>
      </trkpt>
      <trkpt lat="43.86784" lon="6.95882">
        <ele>451.4000244</ele>
        <time>2019-12-07T13:40:09Z</time>
      </trkpt>
      <trkpt lat="43.86775" lon="6.95879">
        <ele>449.7999878</ele>
        <time>2019-12-07T13:40:11Z</time>
      </trkpt>
      <trkpt lat="43.86771" lon="6.95878">
        <ele>449</ele>
        <time>2019-12-07T13:40:12Z</time>
      </trkpt>
      <trkpt lat="43.86766" lon="6.95875">
        <ele>448</ele>
        <time>2019-12-07T13:40:13Z</time>
      </trkpt>
      <trkpt lat="43.86761" lon="6.95874">
        <ele>447</ele>
        <time>2019-12-07T13:40:14Z</time>
      </trkpt>
      <trkpt lat="43.86758" lon="6.95872">
        <ele>446.2000122</ele>
        <time>2019-12-07T13:40:15Z</time>
      </trkpt>
      <trkpt lat="43.86751" lon="6.95865">
        <ele>444.4000244</ele>
        <time>2019-12-07T13:40:17Z</time>
      </trkpt>
      <trkpt lat="43.86747" lon="6.95857">
        <ele>442.5999756</ele>
        <time>2019-12-07T13:40:19Z</time>
      </trkpt>
      <trkpt lat="43.86745" lon="6.95852">
        <ele>441.7999878</ele>
        <time>2019-12-07T13:40:20Z</time>
      </trkpt>
      <trkpt lat="43.86743" lon="6.95846">
        <ele>440.7999878</ele>
        <time>2019-12-07T13:40:21Z</time>
      </trkpt>
      <trkpt lat="43.8674" lon="6.9584">
        <ele>439.5999756</ele>
        <time>2019-12-07T13:40:22Z</time>
      </trkpt>
      <trkpt lat="43.86738" lon="6.95835">
        <ele>438.4000244</ele>
        <time>2019-12-07T13:40:23Z</time>
      </trkpt>
      <trkpt lat="43.86736" lon="6.95832">
        <ele>437.2000122</ele>
        <time>2019-12-07T13:40:24Z</time>
      </trkpt>
      <trkpt lat="43.86734" lon="6.9583">
        <ele>436</ele>
        <time>2019-12-07T13:40:25Z</time>
      </trkpt>
      <trkpt lat="43.86733" lon="6.9583">
        <ele>434.4000244</ele>
        <time>2019-12-07T13:40:27Z</time>
      </trkpt>
      <trkpt lat="43.86733" lon="6.9583">
        <ele>434.4000244</ele>
        <time>2019-12-07T13:40:29Z</time>
      </trkpt>
      <trkpt lat="43.86734" lon="6.9583">
        <ele>433.2000122</ele>
        <time>2019-12-07T13:40:32Z</time>
      </trkpt>
      <trkpt lat="43.86733" lon="6.9583">
        <ele>432.7999878</ele>
        <time>2019-12-07T13:40:35Z</time>
      </trkpt>
      <trkpt lat="43.86732" lon="6.95831">
        <ele>432.2000122</ele>
        <time>2019-12-07T13:40:37Z</time>
      </trkpt>
      <trkpt lat="43.8673" lon="6.95834">
        <ele>431.5999756</ele>
        <time>2019-12-07T13:40:42Z</time>
      </trkpt>
      <trkpt lat="43.86729" lon="6.95837">
        <ele>431.2000122</ele>
        <time>2019-12-07T13:40:44Z</time>
      </trkpt>
      <trkpt lat="43.86728" lon="6.95838">
        <ele>430.7999878</ele>
        <time>2019-12-07T13:40:45Z</time>
      </trkpt>
      <trkpt lat="43.86728" lon="6.95838">
        <ele>430.5999756</ele>
        <time>2019-12-07T13:40:47Z</time>
      </trkpt>
      <trkpt lat="43.86727" lon="6.95843">
        <ele>429.7999878</ele>
        <time>2019-12-07T13:40:49Z</time>
      </trkpt>
      <trkpt lat="43.86727" lon="6.95851">
        <ele>429.4000244</ele>
        <time>2019-12-07T13:40:52Z</time>
      </trkpt>
      <trkpt lat="43.86726" lon="6.95854">
        <ele>429.4000244</ele>
        <time>2019-12-07T13:40:53Z</time>
      </trkpt>
      <trkpt lat="43.86723" lon="6.95862">
        <ele>428.7999878</ele>
        <time>2019-12-07T13:40:56Z</time>
      </trkpt>
      <trkpt lat="43.86722" lon="6.95865">
        <ele>428.4000244</ele>
        <time>2019-12-07T13:40:57Z</time>
      </trkpt>
      <trkpt lat="43.86713" lon="6.95889">
        <ele>428.2000122</ele>
        <time>2019-12-07T13:41:02Z</time>
      </trkpt>
      <trkpt lat="43.86702" lon="6.95905">
        <ele>427.5999756</ele>
        <time>2019-12-07T13:41:07Z</time>
      </trkpt>
      <trkpt lat="43.86699" lon="6.95907">
        <ele>427.4000244</ele>
        <time>2019-12-07T13:41:08Z</time>
      </trkpt>
      <trkpt lat="43.86692" lon="6.95913">
        <ele>426.2000122</ele>
        <time>2019-12-07T13:41:11Z</time>
      </trkpt>
      <trkpt lat="43.86687" lon="6.95921">
        <ele>425</ele>
        <time>2019-12-07T13:41:13Z</time>
      </trkpt>
      <trkpt lat="43.86681" lon="6.95927">
        <ele>424</ele>
        <time>2019-12-07T13:41:15Z</time>
      </trkpt>
      <trkpt lat="43.86676" lon="6.95931">
        <ele>422.5999756</ele>
        <time>2019-12-07T13:41:17Z</time>
      </trkpt>
      <trkpt lat="43.86674" lon="6.95932">
        <ele>422</ele>
        <time>2019-12-07T13:41:18Z</time>
      </trkpt>
      <trkpt lat="43.86672" lon="6.95934">
        <ele>421.4000244</ele>
        <time>2019-12-07T13:41:19Z</time>
      </trkpt>
      <trkpt lat="43.86668" lon="6.95937">
        <ele>420</ele>
        <time>2019-12-07T13:41:22Z</time>
      </trkpt>
      <trkpt lat="43.86666" lon="6.95939">
        <ele>419.4000244</ele>
        <time>2019-12-07T13:41:23Z</time>
      </trkpt>
      <trkpt lat="43.86664" lon="6.9594">
        <ele>419</ele>
        <time>2019-12-07T13:41:24Z</time>
      </trkpt>
      <trkpt lat="43.86661" lon="6.95945">
        <ele>417.5999756</ele>
        <time>2019-12-07T13:41:26Z</time>
      </trkpt>
      <trkpt lat="43.86659" lon="6.95948">
        <ele>416.5999756</ele>
        <time>2019-12-07T13:41:27Z</time>
      </trkpt>
      <trkpt lat="43.86657" lon="6.95953">
        <ele>415</ele>
        <time>2019-12-07T13:41:29Z</time>
      </trkpt>
      <trkpt lat="43.86657" lon="6.95958">
        <ele>413.7999878</ele>
        <time>2019-12-07T13:41:31Z</time>
      </trkpt>
      <trkpt lat="43.86658" lon="6.95963">
        <ele>412.2000122</ele>
        <time>2019-12-07T13:41:33Z</time>
      </trkpt>
      <trkpt lat="43.86658" lon="6.9597">
        <ele>410.7999878</ele>
        <time>2019-12-07T13:41:35Z</time>
      </trkpt>
      <trkpt lat="43.86655" lon="6.95978">
        <ele>409.2000122</ele>
        <time>2019-12-07T13:41:37Z</time>
      </trkpt>
      <trkpt lat="43.86652" lon="6.95984">
        <ele>407.4000244</ele>
        <time>2019-12-07T13:41:39Z</time>
      </trkpt>
      <trkpt lat="43.86651" lon="6.95987">
        <ele>406.5999756</ele>
        <time>2019-12-07T13:41:40Z</time>
      </trkpt>
      <trkpt lat="43.8665" lon="6.9599">
        <ele>405.7999878</ele>
        <time>2019-12-07T13:41:41Z</time>
      </trkpt>
      <trkpt lat="43.86648" lon="6.95994">
        <ele>404.4000244</ele>
        <time>2019-12-07T13:41:43Z</time>
      </trkpt>
      <trkpt lat="43.86647" lon="6.95996">
        <ele>404.2000122</ele>
        <time>2019-12-07T13:41:45Z</time>
      </trkpt>
      <trkpt lat="43.86644" lon="6.96">
        <ele>403.4000244</ele>
        <time>2019-12-07T13:41:49Z</time>
      </trkpt>
      <trkpt lat="43.86645" lon="6.96004">
        <ele>402.7999878</ele>
        <time>2019-12-07T13:41:51Z</time>
      </trkpt>
      <trkpt lat="43.86644" lon="6.96009">
        <ele>402</ele>
        <time>2019-12-07T13:41:54Z</time>
      </trkpt>
      <trkpt lat="43.86643" lon="6.9601">
        <ele>402</ele>
        <time>2019-12-07T13:41:55Z</time>
      </trkpt>
      <trkpt lat="43.86642" lon="6.9601">
        <ele>401.7999878</ele>
        <time>2019-12-07T13:41:56Z</time>
      </trkpt>
      <trkpt lat="43.86637" lon="6.96006">
        <ele>401.2000122</ele>
        <time>2019-12-07T13:42:01Z</time>
      </trkpt>
      <trkpt lat="43.86636" lon="6.96005">
        <ele>401</ele>
        <time>2019-12-07T13:42:02Z</time>
      </trkpt>
      <trkpt lat="43.86629" lon="6.95999">
        <ele>400.4000244</ele>
        <time>2019-12-07T13:42:05Z</time>
      </trkpt>
      <trkpt lat="43.86628" lon="6.95998">
        <ele>400.2000122</ele>
        <time>2019-12-07T13:42:06Z</time>
      </trkpt>
      <trkpt lat="43.86625" lon="6.95995">
        <ele>399.7999878</ele>
        <time>2019-12-07T13:42:08Z</time>
      </trkpt>
      <trkpt lat="43.8662" lon="6.95991">
        <ele>399.4000244</ele>
        <time>2019-12-07T13:42:11Z</time>
      </trkpt>
      <trkpt lat="43.86613" lon="6.95988">
        <ele>399.2000122</ele>
        <time>2019-12-07T13:42:14Z</time>
      </trkpt>
      <trkpt lat="43.86606" lon="6.95988">
        <ele>399.2000122</ele>
        <time>2019-12-07T13:42:16Z</time>
      </trkpt>
      <trkpt lat="43.8659" lon="6.95977">
        <ele>398.7999878</ele>
        <time>2019-12-07T13:42:21Z</time>
      </trkpt>
      <trkpt lat="43.86587" lon="6.95974">
        <ele>398.7999878</ele>
        <time>2019-12-07T13:42:22Z</time>
      </trkpt>
      <trkpt lat="43.86582" lon="6.95976">
        <ele>398.7999878</ele>
        <time>2019-12-07T13:42:23Z</time>
      </trkpt>
      <trkpt lat="43.86579" lon="6.95978">
        <ele>398.7999878</ele>
        <time>2019-12-07T13:42:24Z</time>
      </trkpt>
      <trkpt lat="43.86556" lon="6.95991">
        <ele>397.5999756</ele>
        <time>2019-12-07T13:42:28Z</time>
      </trkpt>
      <trkpt lat="43.86546" lon="6.95994">
        <ele>397.4000244</ele>
        <time>2019-12-07T13:42:30Z</time>
      </trkpt>
      <trkpt lat="43.86532" lon="6.95999">
        <ele>396.4000244</ele>
        <time>2019-12-07T13:42:33Z</time>
      </trkpt>
      <trkpt lat="43.86524" lon="6.96007">
        <ele>396.2000122</ele>
        <time>2019-12-07T13:42:35Z</time>
      </trkpt>
      <trkpt lat="43.86518" lon="6.96024">
        <ele>396.2000122</ele>
        <time>2019-12-07T13:42:39Z</time>
      </trkpt>
      <trkpt lat="43.86521" lon="6.96038">
        <ele>396.2000122</ele>
        <time>2019-12-07T13:42:42Z</time>
      </trkpt>
      <trkpt lat="43.86523" lon="6.96043">
        <ele>396</ele>
        <time>2019-12-07T13:42:43Z</time>
      </trkpt>
      <trkpt lat="43.86529" lon="6.96065">
        <ele>396</ele>
        <time>2019-12-07T13:42:48Z</time>
      </trkpt>
      <trkpt lat="43.86533" lon="6.96086">
        <ele>396</ele>
        <time>2019-12-07T13:42:53Z</time>
      </trkpt>
      <trkpt lat="43.86534" lon="6.96089">
        <ele>395.7999878</ele>
        <time>2019-12-07T13:42:54Z</time>
      </trkpt>
      <trkpt lat="43.86539" lon="6.96096">
        <ele>395.5999756</ele>
        <time>2019-12-07T13:42:58Z</time>
      </trkpt>
      <trkpt lat="43.86541" lon="6.96097">
        <ele>395.4000244</ele>
        <time>2019-12-07T13:43:00Z</time>
      </trkpt>
      <trkpt lat="43.86541" lon="6.96099">
        <ele>395.2000122</ele>
        <time>2019-12-07T13:43:03Z</time>
      </trkpt>
      <trkpt lat="43.86541" lon="6.96099">
        <ele>395.2000122</ele>
        <time>2019-12-07T13:43:11Z</time>
      </trkpt>
      <trkpt lat="43.8654" lon="6.961">
        <ele>395.2000122</ele>
        <time>2019-12-07T13:43:12Z</time>
      </trkpt>
      <trkpt lat="43.8654" lon="6.96103">
        <ele>395.4000244</ele>
        <time>2019-12-07T13:43:14Z</time>
      </trkpt>
      <trkpt lat="43.86541" lon="6.96106">
        <ele>396</ele>
        <time>2019-12-07T13:43:17Z</time>
      </trkpt>
      <trkpt lat="43.86542" lon="6.96107">
        <ele>396.4000244</ele>
        <time>2019-12-07T13:43:18Z</time>
      </trkpt>
      <trkpt lat="43.86543" lon="6.96113">
        <ele>397.7999878</ele>
        <time>2019-12-07T13:43:21Z</time>
      </trkpt>
      <trkpt lat="43.86543" lon="6.96117">
        <ele>399</ele>
        <time>2019-12-07T13:43:23Z</time>
      </trkpt>
      <trkpt lat="43.86544" lon="6.96121">
        <ele>400.4000244</ele>
        <time>2019-12-07T13:43:26Z</time>
      </trkpt>
      <trkpt lat="43.86545" lon="6.96126">
        <ele>401</ele>
        <time>2019-12-07T13:43:29Z</time>
      </trkpt>
      <trkpt lat="43.86552" lon="6.96134">
        <ele>400.5999756</ele>
        <time>2019-12-07T13:43:34Z</time>
      </trkpt>
      <trkpt lat="43.86554" lon="6.96136">
        <ele>400.5999756</ele>
        <time>2019-12-07T13:43:35Z</time>
      </trkpt>
      <trkpt lat="43.86555" lon="6.96137">
        <ele>400.4000244</ele>
        <time>2019-12-07T13:43:39Z</time>
      </trkpt>
      <trkpt lat="43.86555" lon="6.9615">
        <ele>399.4000244</ele>
        <time>2019-12-07T13:43:44Z</time>
      </trkpt>
      <trkpt lat="43.86554" lon="6.96154">
        <ele>399.4000244</ele>
        <time>2019-12-07T13:43:46Z</time>
      </trkpt>
      <trkpt lat="43.86552" lon="6.9616">
        <ele>399.2000122</ele>
        <time>2019-12-07T13:43:50Z</time>
      </trkpt>
      <trkpt lat="43.86549" lon="6.96167">
        <ele>399.2000122</ele>
        <time>2019-12-07T13:43:53Z</time>
      </trkpt>
      <trkpt lat="43.86545" lon="6.96176">
        <ele>400.2000122</ele>
        <time>2019-12-07T13:43:57Z</time>
      </trkpt>
      <trkpt lat="43.86541" lon="6.96181">
        <ele>400.2000122</ele>
        <time>2019-12-07T13:44:00Z</time>
      </trkpt>
      <trkpt lat="43.8654" lon="6.96184">
        <ele>400.4000244</ele>
        <time>2019-12-07T13:44:02Z</time>
      </trkpt>
      <trkpt lat="43.86537" lon="6.96189">
        <ele>400.5999756</ele>
        <time>2019-12-07T13:44:05Z</time>
      </trkpt>
      <trkpt lat="43.86531" lon="6.96198">
        <ele>400.7999878</ele>
        <time>2019-12-07T13:44:12Z</time>
      </trkpt>
      <trkpt lat="43.86525" lon="6.96206">
        <ele>400.5999756</ele>
        <time>2019-12-07T13:44:19Z</time>
      </trkpt>
      <trkpt lat="43.86521" lon="6.96209">
        <ele>400.7999878</ele>
        <time>2019-12-07T13:44:25Z</time>
      </trkpt>
      <trkpt lat="43.86518" lon="6.96211">
        <ele>400.5999756</ele>
        <time>2019-12-07T13:44:34Z</time>
      </trkpt>
      <trkpt lat="43.86512" lon="6.96215">
        <ele>400.2000122</ele>
        <time>2019-12-07T13:44:42Z</time>
      </trkpt>
      <trkpt lat="43.86506" lon="6.9622">
        <ele>399.4000244</ele>
        <time>2019-12-07T13:44:48Z</time>
      </trkpt>
      <trkpt lat="43.86505" lon="6.96221">
        <ele>399.4000244</ele>
        <time>2019-12-07T13:44:49Z</time>
      </trkpt>
      <trkpt lat="43.865" lon="6.96226">
        <ele>399.4000244</ele>
        <time>2019-12-07T13:44:57Z</time>
      </trkpt>
      <trkpt lat="43.86493" lon="6.96229">
        <ele>399</ele>
        <time>2019-12-07T13:45:05Z</time>
      </trkpt>
      <trkpt lat="43.86489" lon="6.96231">
        <ele>399.4000244</ele>
        <time>2019-12-07T13:45:13Z</time>
      </trkpt>
      <trkpt lat="43.86486" lon="6.96233">
        <ele>400.4000244</ele>
        <time>2019-12-07T13:45:18Z</time>
      </trkpt>
      <trkpt lat="43.86486" lon="6.96233">
        <ele>400.4000244</ele>
        <time>2019-12-07T13:45:22Z</time>
      </trkpt>
      <trkpt lat="43.86485" lon="6.96234">
        <ele>401.5999756</ele>
        <time>2019-12-07T13:45:26Z</time>
      </trkpt>
      <trkpt lat="43.86484" lon="6.96235">
        <ele>402</ele>
        <time>2019-12-07T13:45:29Z</time>
      </trkpt>
      <trkpt lat="43.86483" lon="6.96236">
        <ele>402.5999756</ele>
        <time>2019-12-07T13:45:35Z</time>
      </trkpt>
      <trkpt lat="43.86481" lon="6.96239">
        <ele>403.4000244</ele>
        <time>2019-12-07T13:45:38Z</time>
      </trkpt>
      <trkpt lat="43.86478" lon="6.96245">
        <ele>403.7999878</ele>
        <time>2019-12-07T13:45:44Z</time>
      </trkpt>
      <trkpt lat="43.86475" lon="6.96247">
        <ele>404</ele>
        <time>2019-12-07T13:45:47Z</time>
      </trkpt>
      <trkpt lat="43.8647" lon="6.9625">
        <ele>403.5999756</ele>
        <time>2019-12-07T13:45:53Z</time>
      </trkpt>
      <trkpt lat="43.86468" lon="6.96254">
        <ele>403.5999756</ele>
        <time>2019-12-07T13:46:02Z</time>
      </trkpt>
      <trkpt lat="43.86467" lon="6.96256">
        <ele>403.5999756</ele>
        <time>2019-12-07T13:46:10Z</time>
      </trkpt>
      <trkpt lat="43.86466" lon="6.96259">
        <ele>405</ele>
        <time>2019-12-07T13:46:17Z</time>
      </trkpt>
      <trkpt lat="43.86465" lon="6.96261">
        <ele>405.7999878</ele>
        <time>2019-12-07T13:46:20Z</time>
      </trkpt>
      <trkpt lat="43.86465" lon="6.96261">
        <ele>406.2000122</ele>
        <time>2019-12-07T13:46:21Z</time>
      </trkpt>
      <trkpt lat="43.86463" lon="6.96263">
        <ele>407.5999756</ele>
        <time>2019-12-07T13:46:27Z</time>
      </trkpt>
      <trkpt lat="43.86461" lon="6.96266">
        <ele>408.5999756</ele>
        <time>2019-12-07T13:46:29Z</time>
      </trkpt>
      <trkpt lat="43.86461" lon="6.96266">
        <ele>409.2000122</ele>
        <time>2019-12-07T13:46:30Z</time>
      </trkpt>
      <trkpt lat="43.86459" lon="6.96268">
        <ele>410.5999756</ele>
        <time>2019-12-07T13:46:33Z</time>
      </trkpt>
      <trkpt lat="43.86459" lon="6.9627">
        <ele>411.7999878</ele>
        <time>2019-12-07T13:46:37Z</time>
      </trkpt>
      <trkpt lat="43.86457" lon="6.9627">
        <ele>413</ele>
        <time>2019-12-07T13:46:40Z</time>
      </trkpt>
      <trkpt lat="43.86455" lon="6.96269">
        <ele>414.2000122</ele>
        <time>2019-12-07T13:46:44Z</time>
      </trkpt>
      <trkpt lat="43.86453" lon="6.96269">
        <ele>415</ele>
        <time>2019-12-07T13:46:46Z</time>
      </trkpt>
      <trkpt lat="43.86453" lon="6.9627">
        <ele>415.2000122</ele>
        <time>2019-12-07T13:46:49Z</time>
      </trkpt>
      <trkpt lat="43.86449" lon="6.96271">
        <ele>416.4000244</ele>
        <time>2019-12-07T13:46:53Z</time>
      </trkpt>
      <trkpt lat="43.86449" lon="6.96272">
        <ele>416.7999878</ele>
        <time>2019-12-07T13:46:54Z</time>
      </trkpt>
      <trkpt lat="43.86447" lon="6.96271">
        <ele>417.4000244</ele>
        <time>2019-12-07T13:46:56Z</time>
      </trkpt>
      <trkpt lat="43.86444" lon="6.96271">
        <ele>417.5999756</ele>
        <time>2019-12-07T13:47:02Z</time>
      </trkpt>
      <trkpt lat="43.8644" lon="6.96273">
        <ele>418</ele>
        <time>2019-12-07T13:47:09Z</time>
      </trkpt>
      <trkpt lat="43.86437" lon="6.96274">
        <ele>418.5999756</ele>
        <time>2019-12-07T13:47:12Z</time>
      </trkpt>
      <trkpt lat="43.86433" lon="6.96278">
        <ele>418.7999878</ele>
        <time>2019-12-07T13:47:17Z</time>
      </trkpt>
      <trkpt lat="43.8643" lon="6.96281">
        <ele>420.2000122</ele>
        <time>2019-12-07T13:47:21Z</time>
      </trkpt>
      <trkpt lat="43.86429" lon="6.96283">
        <ele>421.4000244</ele>
        <time>2019-12-07T13:47:23Z</time>
      </trkpt>
      <trkpt lat="43.86428" lon="6.96283">
        <ele>421.5999756</ele>
        <time>2019-12-07T13:47:26Z</time>
      </trkpt>
      <trkpt lat="43.86425" lon="6.96286">
        <ele>421.5999756</ele>
        <time>2019-12-07T13:47:32Z</time>
      </trkpt>
      <trkpt lat="43.86428" lon="6.96292">
        <ele>422.4000244</ele>
        <time>2019-12-07T13:47:40Z</time>
      </trkpt>
      <trkpt lat="43.86429" lon="6.96293">
        <ele>422.5999756</ele>
        <time>2019-12-07T13:47:42Z</time>
      </trkpt>
      <trkpt lat="43.86426" lon="6.96295">
        <ele>422</ele>
        <time>2019-12-07T13:47:46Z</time>
      </trkpt>
      <trkpt lat="43.86422" lon="6.96299">
        <ele>421.4000244</ele>
        <time>2019-12-07T13:47:51Z</time>
      </trkpt>
      <trkpt lat="43.86421" lon="6.96299">
        <ele>421.2000122</ele>
        <time>2019-12-07T13:47:53Z</time>
      </trkpt>
      <trkpt lat="43.86416" lon="6.96306">
        <ele>420.5999756</ele>
        <time>2019-12-07T13:48:03Z</time>
      </trkpt>
      <trkpt lat="43.86415" lon="6.96309">
        <ele>421</ele>
        <time>2019-12-07T13:48:11Z</time>
      </trkpt>
      <trkpt lat="43.86413" lon="6.96313">
        <ele>422</ele>
        <time>2019-12-07T13:48:18Z</time>
      </trkpt>
      <trkpt lat="43.86413" lon="6.96315">
        <ele>422.4000244</ele>
        <time>2019-12-07T13:48:20Z</time>
      </trkpt>
      <trkpt lat="43.86411" lon="6.96319">
        <ele>423.5999756</ele>
        <time>2019-12-07T13:48:24Z</time>
      </trkpt>
      <trkpt lat="43.86409" lon="6.96321">
        <ele>424.2000122</ele>
        <time>2019-12-07T13:48:27Z</time>
      </trkpt>
      <trkpt lat="43.86408" lon="6.96322">
        <ele>424.7999878</ele>
        <time>2019-12-07T13:48:32Z</time>
      </trkpt>
      <trkpt lat="43.86405" lon="6.96324">
        <ele>426</ele>
        <time>2019-12-07T13:48:36Z</time>
      </trkpt>
      <trkpt lat="43.86402" lon="6.96326">
        <ele>427.2000122</ele>
        <time>2019-12-07T13:48:42Z</time>
      </trkpt>
      <trkpt lat="43.86398" lon="6.96327">
        <ele>427.5999756</ele>
        <time>2019-12-07T13:48:45Z</time>
      </trkpt>
      <trkpt lat="43.86391" lon="6.96331">
        <ele>428.2000122</ele>
        <time>2019-12-07T13:48:51Z</time>
      </trkpt>
      <trkpt lat="43.8639" lon="6.96333">
        <ele>428.5999756</ele>
        <time>2019-12-07T13:48:53Z</time>
      </trkpt>
      <trkpt lat="43.86389" lon="6.96334">
        <ele>429</ele>
        <time>2019-12-07T13:49:00Z</time>
      </trkpt>
      <trkpt lat="43.86386" lon="6.96335">
        <ele>429.2000122</ele>
        <time>2019-12-07T13:49:08Z</time>
      </trkpt>
      <trkpt lat="43.86385" lon="6.96336">
        <ele>429.4000244</ele>
        <time>2019-12-07T13:49:09Z</time>
      </trkpt>
      <trkpt lat="43.86383" lon="6.96339">
        <ele>430.2000122</ele>
        <time>2019-12-07T13:49:18Z</time>
      </trkpt>
      <trkpt lat="43.86382" lon="6.9634">
        <ele>430.5999756</ele>
        <time>2019-12-07T13:49:19Z</time>
      </trkpt>
      <trkpt lat="43.86381" lon="6.96343">
        <ele>431.7999878</ele>
        <time>2019-12-07T13:49:22Z</time>
      </trkpt>
      <trkpt lat="43.8638" lon="6.96347">
        <ele>432</ele>
        <time>2019-12-07T13:49:26Z</time>
      </trkpt>
      <trkpt lat="43.86379" lon="6.96348">
        <ele>432.7999878</ele>
        <time>2019-12-07T13:49:35Z</time>
      </trkpt>
      <trkpt lat="43.86379" lon="6.96348">
        <ele>432.7999878</ele>
        <time>2019-12-07T13:49:36Z</time>
      </trkpt>
      <trkpt lat="43.86371" lon="6.96352">
        <ele>433.7999878</ele>
        <time>2019-12-07T13:49:43Z</time>
      </trkpt>
      <trkpt lat="43.8637" lon="6.96353">
        <ele>434.2000122</ele>
        <time>2019-12-07T13:49:44Z</time>
      </trkpt>
      <trkpt lat="43.86369" lon="6.96353">
        <ele>434.7999878</ele>
        <time>2019-12-07T13:49:46Z</time>
      </trkpt>
      <trkpt lat="43.86365" lon="6.96353">
        <ele>436.2000122</ele>
        <time>2019-12-07T13:49:50Z</time>
      </trkpt>
      <trkpt lat="43.86363" lon="6.96352">
        <ele>437</ele>
        <time>2019-12-07T13:49:53Z</time>
      </trkpt>
      <trkpt lat="43.86362" lon="6.96352">
        <ele>437.4000244</ele>
        <time>2019-12-07T13:49:54Z</time>
      </trkpt>
      <trkpt lat="43.86358" lon="6.96351">
        <ele>438.5999756</ele>
        <time>2019-12-07T13:50:00Z</time>
      </trkpt>
      <trkpt lat="43.86357" lon="6.9635">
        <ele>439</ele>
        <time>2019-12-07T13:50:01Z</time>
      </trkpt>
      <trkpt lat="43.86354" lon="6.9635">
        <ele>439.7999878</ele>
        <time>2019-12-07T13:50:04Z</time>
      </trkpt>
      <trkpt lat="43.86353" lon="6.96349">
        <ele>440.5999756</ele>
        <time>2019-12-07T13:50:09Z</time>
      </trkpt>
      <trkpt lat="43.86352" lon="6.96349">
        <ele>440.7999878</ele>
        <time>2019-12-07T13:50:14Z</time>
      </trkpt>
      <trkpt lat="43.86351" lon="6.96349">
        <ele>441.2000122</ele>
        <time>2019-12-07T13:50:17Z</time>
      </trkpt>
      <trkpt lat="43.86346" lon="6.96346">
        <ele>442</ele>
        <time>2019-12-07T13:50:24Z</time>
      </trkpt>
      <trkpt lat="43.86344" lon="6.96345">
        <ele>442.5999756</ele>
        <time>2019-12-07T13:50:26Z</time>
      </trkpt>
      <trkpt lat="43.86343" lon="6.96345">
        <ele>443</ele>
        <time>2019-12-07T13:50:27Z</time>
      </trkpt>
      <trkpt lat="43.86342" lon="6.96343">
        <ele>443.5999756</ele>
        <time>2019-12-07T13:50:32Z</time>
      </trkpt>
      <trkpt lat="43.86339" lon="6.96343">
        <ele>444.2000122</ele>
        <time>2019-12-07T13:50:35Z</time>
      </trkpt>
      <trkpt lat="43.86337" lon="6.96347">
        <ele>445.4000244</ele>
        <time>2019-12-07T13:50:38Z</time>
      </trkpt>
      <trkpt lat="43.86337" lon="6.96351">
        <ele>446.5999756</ele>
        <time>2019-12-07T13:50:42Z</time>
      </trkpt>
      <trkpt lat="43.86337" lon="6.96352">
        <ele>447</ele>
        <time>2019-12-07T13:50:43Z</time>
      </trkpt>
      <trkpt lat="43.86337" lon="6.96356">
        <ele>447.7999878</ele>
        <time>2019-12-07T13:50:46Z</time>
      </trkpt>
      <trkpt lat="43.86336" lon="6.96358">
        <ele>449</ele>
        <time>2019-12-07T13:50:49Z</time>
      </trkpt>
      <trkpt lat="43.86336" lon="6.96359">
        <ele>450.4000244</ele>
        <time>2019-12-07T13:50:52Z</time>
      </trkpt>
      <trkpt lat="43.86336" lon="6.96359">
        <ele>450.4000244</ele>
        <time>2019-12-07T13:50:54Z</time>
      </trkpt>
      <trkpt lat="43.86336" lon="6.96364">
        <ele>451.2000122</ele>
        <time>2019-12-07T13:51:01Z</time>
      </trkpt>
      <trkpt lat="43.86335" lon="6.96366">
        <ele>451.5999756</ele>
        <time>2019-12-07T13:51:02Z</time>
      </trkpt>
      <trkpt lat="43.86334" lon="6.9637">
        <ele>453</ele>
        <time>2019-12-07T13:51:05Z</time>
      </trkpt>
      <trkpt lat="43.86334" lon="6.96372">
        <ele>453.4000244</ele>
        <time>2019-12-07T13:51:06Z</time>
      </trkpt>
      <trkpt lat="43.86334" lon="6.96373">
        <ele>454.2000122</ele>
        <time>2019-12-07T13:51:07Z</time>
      </trkpt>
      <trkpt lat="43.86334" lon="6.96376">
        <ele>456</ele>
        <time>2019-12-07T13:51:09Z</time>
      </trkpt>
      <trkpt lat="43.86334" lon="6.96378">
        <ele>457.4000244</ele>
        <time>2019-12-07T13:51:11Z</time>
      </trkpt>
      <trkpt lat="43.86334" lon="6.96381">
        <ele>458.7999878</ele>
        <time>2019-12-07T13:51:13Z</time>
      </trkpt>
      <trkpt lat="43.86333" lon="6.96384">
        <ele>459.7999878</ele>
        <time>2019-12-07T13:51:15Z</time>
      </trkpt>
      <trkpt lat="43.86332" lon="6.96388">
        <ele>461</ele>
        <time>2019-12-07T13:51:17Z</time>
      </trkpt>
      <trkpt lat="43.86332" lon="6.96391">
        <ele>462.2000122</ele>
        <time>2019-12-07T13:51:19Z</time>
      </trkpt>
      <trkpt lat="43.86332" lon="6.96393">
        <ele>462.7999878</ele>
        <time>2019-12-07T13:51:20Z</time>
      </trkpt>
      <trkpt lat="43.86332" lon="6.96394">
        <ele>463.4000244</ele>
        <time>2019-12-07T13:51:21Z</time>
      </trkpt>
      <trkpt lat="43.86332" lon="6.96394">
        <ele>463.4000244</ele>
        <time>2019-12-07T13:51:29Z</time>
      </trkpt>
      <trkpt lat="43.86332" lon="6.96394">
        <ele>463.4000244</ele>
        <time>2019-12-07T13:51:46Z</time>
      </trkpt>
      <trkpt lat="43.86331" lon="6.96395">
        <ele>462.7999878</ele>
        <time>2019-12-07T13:52:02Z</time>
      </trkpt>
      <trkpt lat="43.86331" lon="6.96395">
        <ele>462.7999878</ele>
        <time>2019-12-07T13:52:21Z</time>
      </trkpt>
      <trkpt lat="43.86331" lon="6.96395">
        <ele>462.7999878</ele>
        <time>2019-12-07T13:52:40Z</time>
      </trkpt>
      <trkpt lat="43.86328" lon="6.96395">
        <ele>461.4000244</ele>
        <time>2019-12-07T13:52:41Z</time>
      </trkpt>
      <trkpt lat="43.86328" lon="6.96396">
        <ele>461.2000122</ele>
        <time>2019-12-07T13:52:50Z</time>
      </trkpt>
      <trkpt lat="43.86328" lon="6.96396">
        <ele>461.2000122</ele>
        <time>2019-12-07T13:53:01Z</time>
      </trkpt>
      <trkpt lat="43.86328" lon="6.96401">
        <ele>463.7999878</ele>
        <time>2019-12-07T13:53:08Z</time>
      </trkpt>
      <trkpt lat="43.86327" lon="6.96406">
        <ele>465</ele>
        <time>2019-12-07T13:53:10Z</time>
      </trkpt>
      <trkpt lat="43.86327" lon="6.96409">
        <ele>465.7999878</ele>
        <time>2019-12-07T13:53:11Z</time>
      </trkpt>
      <trkpt lat="43.86328" lon="6.96413">
        <ele>466.2000122</ele>
        <time>2019-12-07T13:53:12Z</time>
      </trkpt>
      <trkpt lat="43.86329" lon="6.9642">
        <ele>466.2000122</ele>
        <time>2019-12-07T13:53:14Z</time>
      </trkpt>
      <trkpt lat="43.86331" lon="6.96437">
        <ele>466.7999878</ele>
        <time>2019-12-07T13:53:18Z</time>
      </trkpt>
      <trkpt lat="43.86333" lon="6.96446">
        <ele>466.7999878</ele>
        <time>2019-12-07T13:53:20Z</time>
      </trkpt>
      <trkpt lat="43.86335" lon="6.96462">
        <ele>467.4000244</ele>
        <time>2019-12-07T13:53:24Z</time>
      </trkpt>
      <trkpt lat="43.86337" lon="6.96473">
        <ele>467.7999878</ele>
        <time>2019-12-07T13:53:27Z</time>
      </trkpt>
      <trkpt lat="43.86338" lon="6.96481">
        <ele>468.4000244</ele>
        <time>2019-12-07T13:53:29Z</time>
      </trkpt>
      <trkpt lat="43.86338" lon="6.96489">
        <ele>469.2000122</ele>
        <time>2019-12-07T13:53:32Z</time>
      </trkpt>
      <trkpt lat="43.86337" lon="6.96493">
        <ele>469.5999756</ele>
        <time>2019-12-07T13:53:33Z</time>
      </trkpt>
      <trkpt lat="43.86337" lon="6.965">
        <ele>470.7999878</ele>
        <time>2019-12-07T13:53:36Z</time>
      </trkpt>
      <trkpt lat="43.86334" lon="6.96506">
        <ele>471.7999878</ele>
        <time>2019-12-07T13:53:39Z</time>
      </trkpt>
      <trkpt lat="43.86333" lon="6.96508">
        <ele>472.2000122</ele>
        <time>2019-12-07T13:53:40Z</time>
      </trkpt>
      <trkpt lat="43.86331" lon="6.96513">
        <ele>473.4000244</ele>
        <time>2019-12-07T13:53:43Z</time>
      </trkpt>
      <trkpt lat="43.8633" lon="6.96516">
        <ele>474.2000122</ele>
        <time>2019-12-07T13:53:45Z</time>
      </trkpt>
      <trkpt lat="43.86329" lon="6.96518">
        <ele>474.4000244</ele>
        <time>2019-12-07T13:53:46Z</time>
      </trkpt>
      <trkpt lat="43.86322" lon="6.96529">
        <ele>475.5999756</ele>
        <time>2019-12-07T13:53:53Z</time>
      </trkpt>
      <trkpt lat="43.8632" lon="6.96533">
        <ele>476.5999756</ele>
        <time>2019-12-07T13:53:56Z</time>
      </trkpt>
      <trkpt lat="43.8632" lon="6.96539">
        <ele>478</ele>
        <time>2019-12-07T13:53:59Z</time>
      </trkpt>
      <trkpt lat="43.8632" lon="6.96539">
        <ele>478</ele>
        <time>2019-12-07T13:54:00Z</time>
      </trkpt>
      <trkpt lat="43.86317" lon="6.96548">
        <ele>479.4000244</ele>
        <time>2019-12-07T13:54:04Z</time>
      </trkpt>
      <trkpt lat="43.86317" lon="6.96551">
        <ele>479.7999878</ele>
        <time>2019-12-07T13:54:05Z</time>
      </trkpt>
      <trkpt lat="43.86317" lon="6.96553">
        <ele>480.4000244</ele>
        <time>2019-12-07T13:54:06Z</time>
      </trkpt>
      <trkpt lat="43.86318" lon="6.9656">
        <ele>481.5999756</ele>
        <time>2019-12-07T13:54:08Z</time>
      </trkpt>
      <trkpt lat="43.86319" lon="6.96563">
        <ele>482</ele>
        <time>2019-12-07T13:54:09Z</time>
      </trkpt>
      <trkpt lat="43.86322" lon="6.96568">
        <ele>483</ele>
        <time>2019-12-07T13:54:12Z</time>
      </trkpt>
      <trkpt lat="43.86324" lon="6.96571">
        <ele>484</ele>
        <time>2019-12-07T13:54:14Z</time>
      </trkpt>
      <trkpt lat="43.86325" lon="6.96573">
        <ele>484.4000244</ele>
        <time>2019-12-07T13:54:15Z</time>
      </trkpt>
      <trkpt lat="43.86331" lon="6.96581">
        <ele>485.5999756</ele>
        <time>2019-12-07T13:54:20Z</time>
      </trkpt>
      <trkpt lat="43.86333" lon="6.96589">
        <ele>486</ele>
        <time>2019-12-07T13:54:25Z</time>
      </trkpt>
      <trkpt lat="43.86332" lon="6.96595">
        <ele>486.2000122</ele>
        <time>2019-12-07T13:54:28Z</time>
      </trkpt>
      <trkpt lat="43.8633" lon="6.96601">
        <ele>486.4000244</ele>
        <time>2019-12-07T13:54:31Z</time>
      </trkpt>
      <trkpt lat="43.8633" lon="6.96601">
        <ele>486.5999756</ele>
        <time>2019-12-07T13:54:32Z</time>
      </trkpt>
      <trkpt lat="43.8633" lon="6.96609">
        <ele>486.7999878</ele>
        <time>2019-12-07T13:54:36Z</time>
      </trkpt>
      <trkpt lat="43.86329" lon="6.96611">
        <ele>486.7999878</ele>
        <time>2019-12-07T13:54:37Z</time>
      </trkpt>
      <trkpt lat="43.86323" lon="6.96623">
        <ele>487.2000122</ele>
        <time>2019-12-07T13:54:41Z</time>
      </trkpt>
      <trkpt lat="43.86322" lon="6.96626">
        <ele>487.7999878</ele>
        <time>2019-12-07T13:54:42Z</time>
      </trkpt>
      <trkpt lat="43.8632" lon="6.96631">
        <ele>489</ele>
        <time>2019-12-07T13:54:44Z</time>
      </trkpt>
      <trkpt lat="43.86315" lon="6.96644">
        <ele>489.2000122</ele>
        <time>2019-12-07T13:54:47Z</time>
      </trkpt>
      <trkpt lat="43.86314" lon="6.96648">
        <ele>489</ele>
        <time>2019-12-07T13:54:48Z</time>
      </trkpt>
      <trkpt lat="43.86315" lon="6.96659">
        <ele>489</ele>
        <time>2019-12-07T13:54:51Z</time>
      </trkpt>
      <trkpt lat="43.86319" lon="6.96663">
        <ele>489.4000244</ele>
        <time>2019-12-07T13:54:53Z</time>
      </trkpt>
      <trkpt lat="43.86322" lon="6.96667">
        <ele>490.4000244</ele>
        <time>2019-12-07T13:54:55Z</time>
      </trkpt>
      <trkpt lat="43.86324" lon="6.96668">
        <ele>490.5999756</ele>
        <time>2019-12-07T13:54:56Z</time>
      </trkpt>
      <trkpt lat="43.86332" lon="6.96676">
        <ele>490.2000122</ele>
        <time>2019-12-07T13:55:01Z</time>
      </trkpt>
      <trkpt lat="43.86336" lon="6.96682">
        <ele>489.2000122</ele>
        <time>2019-12-07T13:55:04Z</time>
      </trkpt>
      <trkpt lat="43.86337" lon="6.96687">
        <ele>489</ele>
        <time>2019-12-07T13:55:06Z</time>
      </trkpt>
      <trkpt lat="43.86341" lon="6.96698">
        <ele>489.4000244</ele>
        <time>2019-12-07T13:55:12Z</time>
      </trkpt>
      <trkpt lat="43.86344" lon="6.96707">
        <ele>490.4000244</ele>
        <time>2019-12-07T13:55:16Z</time>
      </trkpt>
      <trkpt lat="43.86346" lon="6.96714">
        <ele>490.7999878</ele>
        <time>2019-12-07T13:55:19Z</time>
      </trkpt>
      <trkpt lat="43.86349" lon="6.96731">
        <ele>490.5999756</ele>
        <time>2019-12-07T13:55:25Z</time>
      </trkpt>
      <trkpt lat="43.86352" lon="6.96745">
        <ele>490.7999878</ele>
        <time>2019-12-07T13:55:30Z</time>
      </trkpt>
      <trkpt lat="43.86357" lon="6.96761">
        <ele>489.4000244</ele>
        <time>2019-12-07T13:55:35Z</time>
      </trkpt>
      <trkpt lat="43.86357" lon="6.96777">
        <ele>488.7999878</ele>
        <time>2019-12-07T13:55:41Z</time>
      </trkpt>
      <trkpt lat="43.86358" lon="6.96793">
        <ele>490.4000244</ele>
        <time>2019-12-07T13:55:47Z</time>
      </trkpt>
      <trkpt lat="43.86359" lon="6.96803">
        <ele>491.4000244</ele>
        <time>2019-12-07T13:55:50Z</time>
      </trkpt>
      <trkpt lat="43.86361" lon="6.96809">
        <ele>491.4000244</ele>
        <time>2019-12-07T13:55:52Z</time>
      </trkpt>
      <trkpt lat="43.86361" lon="6.96822">
        <ele>490.5999756</ele>
        <time>2019-12-07T13:55:57Z</time>
      </trkpt>
      <trkpt lat="43.86359" lon="6.96825">
        <ele>490.5999756</ele>
        <time>2019-12-07T13:55:58Z</time>
      </trkpt>
      <trkpt lat="43.86358" lon="6.96827">
        <ele>490.7999878</ele>
        <time>2019-12-07T13:55:59Z</time>
      </trkpt>
      <trkpt lat="43.86356" lon="6.96837">
        <ele>491.7999878</ele>
        <time>2019-12-07T13:56:03Z</time>
      </trkpt>
      <trkpt lat="43.86355" lon="6.9684">
        <ele>492.2000122</ele>
        <time>2019-12-07T13:56:04Z</time>
      </trkpt>
      <trkpt lat="43.86354" lon="6.96843">
        <ele>492.5999756</ele>
        <time>2019-12-07T13:56:06Z</time>
      </trkpt>
      <trkpt lat="43.86352" lon="6.96849">
        <ele>494.2000122</ele>
        <time>2019-12-07T13:56:09Z</time>
      </trkpt>
      <trkpt lat="43.86352" lon="6.96854">
        <ele>495</ele>
        <time>2019-12-07T13:56:11Z</time>
      </trkpt>
      <trkpt lat="43.86352" lon="6.96855">
        <ele>495.5999756</ele>
        <time>2019-12-07T13:56:12Z</time>
      </trkpt>
      <trkpt lat="43.86353" lon="6.9686">
        <ele>496</ele>
        <time>2019-12-07T13:56:14Z</time>
      </trkpt>
      <trkpt lat="43.86355" lon="6.96862">
        <ele>496.4000244</ele>
        <time>2019-12-07T13:56:15Z</time>
      </trkpt>
      <trkpt lat="43.86356" lon="6.96863">
        <ele>496.5999756</ele>
        <time>2019-12-07T13:56:16Z</time>
      </trkpt>
      <trkpt lat="43.86362" lon="6.9687">
        <ele>497.5999756</ele>
        <time>2019-12-07T13:56:20Z</time>
      </trkpt>
      <trkpt lat="43.86365" lon="6.96878">
        <ele>497.5999756</ele>
        <time>2019-12-07T13:56:23Z</time>
      </trkpt>
      <trkpt lat="43.86367" lon="6.96883">
        <ele>496.7999878</ele>
        <time>2019-12-07T13:56:25Z</time>
      </trkpt>
      <trkpt lat="43.86368" lon="6.96885">
        <ele>496.5999756</ele>
        <time>2019-12-07T13:56:26Z</time>
      </trkpt>
      <trkpt lat="43.86369" lon="6.9689">
        <ele>495.4000244</ele>
        <time>2019-12-07T13:56:29Z</time>
      </trkpt>
      <trkpt lat="43.86369" lon="6.96893">
        <ele>494.4000244</ele>
        <time>2019-12-07T13:56:31Z</time>
      </trkpt>
      <trkpt lat="43.86369" lon="6.96896">
        <ele>494.2000122</ele>
        <time>2019-12-07T13:56:32Z</time>
      </trkpt>
      <trkpt lat="43.86372" lon="6.96906">
        <ele>493.4000244</ele>
        <time>2019-12-07T13:56:37Z</time>
      </trkpt>
      <trkpt lat="43.86372" lon="6.96917">
        <ele>493.7999878</ele>
        <time>2019-12-07T13:56:43Z</time>
      </trkpt>
      <trkpt lat="43.86371" lon="6.96924">
        <ele>493.4000244</ele>
        <time>2019-12-07T13:56:46Z</time>
      </trkpt>
      <trkpt lat="43.8637" lon="6.9693">
        <ele>493.7999878</ele>
        <time>2019-12-07T13:56:49Z</time>
      </trkpt>
      <trkpt lat="43.86366" lon="6.96942">
        <ele>494.4000244</ele>
        <time>2019-12-07T13:56:54Z</time>
      </trkpt>
      <trkpt lat="43.86362" lon="6.9696">
        <ele>495</ele>
        <time>2019-12-07T13:56:59Z</time>
      </trkpt>
      <trkpt lat="43.86361" lon="6.96964">
        <ele>495.2000122</ele>
        <time>2019-12-07T13:57:00Z</time>
      </trkpt>
      <trkpt lat="43.86355" lon="6.96984">
        <ele>495.7999878</ele>
        <time>2019-12-07T13:57:05Z</time>
      </trkpt>
      <trkpt lat="43.86352" lon="6.96994">
        <ele>496.2000122</ele>
        <time>2019-12-07T13:57:07Z</time>
      </trkpt>
      <trkpt lat="43.86346" lon="6.9701">
        <ele>496.5999756</ele>
        <time>2019-12-07T13:57:10Z</time>
      </trkpt>
      <trkpt lat="43.86337" lon="6.97049">
        <ele>496.4000244</ele>
        <time>2019-12-07T13:57:16Z</time>
      </trkpt>
      <trkpt lat="43.86335" lon="6.97062">
        <ele>496.4000244</ele>
        <time>2019-12-07T13:57:20Z</time>
      </trkpt>
      <trkpt lat="43.86335" lon="6.97066">
        <ele>496.5999756</ele>
        <time>2019-12-07T13:57:21Z</time>
      </trkpt>
      <trkpt lat="43.86337" lon="6.97071">
        <ele>497.4000244</ele>
        <time>2019-12-07T13:57:23Z</time>
      </trkpt>
      <trkpt lat="43.86341" lon="6.97074">
        <ele>498.7999878</ele>
        <time>2019-12-07T13:57:25Z</time>
      </trkpt>
      <trkpt lat="43.86342" lon="6.97075">
        <ele>499.5999756</ele>
        <time>2019-12-07T13:57:26Z</time>
      </trkpt>
      <trkpt lat="43.86344" lon="6.97076">
        <ele>500.2000122</ele>
        <time>2019-12-07T13:57:27Z</time>
      </trkpt>
      <trkpt lat="43.86345" lon="6.97076">
        <ele>500.4000244</ele>
        <time>2019-12-07T13:57:28Z</time>
      </trkpt>
      <trkpt lat="43.86351" lon="6.97077">
        <ele>501</ele>
        <time>2019-12-07T13:57:32Z</time>
      </trkpt>
      <trkpt lat="43.86355" lon="6.97078">
        <ele>501.4000244</ele>
        <time>2019-12-07T13:57:34Z</time>
      </trkpt>
      <trkpt lat="43.8636" lon="6.97079">
        <ele>502.5999756</ele>
        <time>2019-12-07T13:57:37Z</time>
      </trkpt>
      <trkpt lat="43.86363" lon="6.9708">
        <ele>503</ele>
        <time>2019-12-07T13:57:38Z</time>
      </trkpt>
      <trkpt lat="43.86366" lon="6.9708">
        <ele>503.5999756</ele>
        <time>2019-12-07T13:57:40Z</time>
      </trkpt>
      <trkpt lat="43.86368" lon="6.9708">
        <ele>503.5999756</ele>
        <time>2019-12-07T13:57:41Z</time>
      </trkpt>
      <trkpt lat="43.86372" lon="6.97082">
        <ele>504</ele>
        <time>2019-12-07T13:57:44Z</time>
      </trkpt>
      <trkpt lat="43.86373" lon="6.97083">
        <ele>504</ele>
        <time>2019-12-07T13:57:45Z</time>
      </trkpt>
      <trkpt lat="43.8638" lon="6.97089">
        <ele>502.5999756</ele>
        <time>2019-12-07T13:57:50Z</time>
      </trkpt>
      <trkpt lat="43.86382" lon="6.97091">
        <ele>501.4000244</ele>
        <time>2019-12-07T13:57:52Z</time>
      </trkpt>
      <trkpt lat="43.86386" lon="6.97094">
        <ele>502</ele>
        <time>2019-12-07T13:57:58Z</time>
      </trkpt>
      <trkpt lat="43.86393" lon="6.97099">
        <ele>502</ele>
        <time>2019-12-07T13:58:03Z</time>
      </trkpt>
      <trkpt lat="43.86398" lon="6.97105">
        <ele>500.5999756</ele>
        <time>2019-12-07T13:58:09Z</time>
      </trkpt>
      <trkpt lat="43.86399" lon="6.97107">
        <ele>500.2000122</ele>
        <time>2019-12-07T13:58:10Z</time>
      </trkpt>
      <trkpt lat="43.86406" lon="6.97113">
        <ele>499.7999878</ele>
        <time>2019-12-07T13:58:15Z</time>
      </trkpt>
      <trkpt lat="43.86408" lon="6.97118">
        <ele>499.2000122</ele>
        <time>2019-12-07T13:58:17Z</time>
      </trkpt>
      <trkpt lat="43.86413" lon="6.97125">
        <ele>498.7999878</ele>
        <time>2019-12-07T13:58:22Z</time>
      </trkpt>
      <trkpt lat="43.86414" lon="6.97128">
        <ele>497.7999878</ele>
        <time>2019-12-07T13:58:24Z</time>
      </trkpt>
      <trkpt lat="43.86417" lon="6.97136">
        <ele>497.4000244</ele>
        <time>2019-12-07T13:58:29Z</time>
      </trkpt>
      <trkpt lat="43.86421" lon="6.97147">
        <ele>496.5999756</ele>
        <time>2019-12-07T13:58:35Z</time>
      </trkpt>
      <trkpt lat="43.86422" lon="6.97148">
        <ele>496.4000244</ele>
        <time>2019-12-07T13:58:36Z</time>
      </trkpt>
      <trkpt lat="43.86427" lon="6.97158">
        <ele>496.2000122</ele>
        <time>2019-12-07T13:58:42Z</time>
      </trkpt>
      <trkpt lat="43.8643" lon="6.97169">
        <ele>497.2000122</ele>
        <time>2019-12-07T13:58:49Z</time>
      </trkpt>
      <trkpt lat="43.86432" lon="6.97175">
        <ele>497.7999878</ele>
        <time>2019-12-07T13:58:53Z</time>
      </trkpt>
      <trkpt lat="43.86433" lon="6.97177">
        <ele>497.7999878</ele>
        <time>2019-12-07T13:58:54Z</time>
      </trkpt>
      <trkpt lat="43.86434" lon="6.97178">
        <ele>497.7999878</ele>
        <time>2019-12-07T13:58:55Z</time>
      </trkpt>
      <trkpt lat="43.86435" lon="6.97183">
        <ele>499.2000122</ele>
        <time>2019-12-07T13:58:58Z</time>
      </trkpt>
      <trkpt lat="43.86438" lon="6.97189">
        <ele>500.2000122</ele>
        <time>2019-12-07T13:59:01Z</time>
      </trkpt>
      <trkpt lat="43.8644" lon="6.97198">
        <ele>501.2000122</ele>
        <time>2019-12-07T13:59:05Z</time>
      </trkpt>
      <trkpt lat="43.86442" lon="6.97203">
        <ele>501</ele>
        <time>2019-12-07T13:59:07Z</time>
      </trkpt>
      <trkpt lat="43.86444" lon="6.9721">
        <ele>501</ele>
        <time>2019-12-07T13:59:11Z</time>
      </trkpt>
      <trkpt lat="43.86445" lon="6.97213">
        <ele>500.7999878</ele>
        <time>2019-12-07T13:59:12Z</time>
      </trkpt>
      <trkpt lat="43.86446" lon="6.97217">
        <ele>500.7999878</ele>
        <time>2019-12-07T13:59:14Z</time>
      </trkpt>
      <trkpt lat="43.86449" lon="6.97224">
        <ele>500</ele>
        <time>2019-12-07T13:59:17Z</time>
      </trkpt>
      <trkpt lat="43.86449" lon="6.97227">
        <ele>499.4000244</ele>
        <time>2019-12-07T13:59:18Z</time>
      </trkpt>
      <trkpt lat="43.8645" lon="6.97234">
        <ele>499</ele>
        <time>2019-12-07T13:59:20Z</time>
      </trkpt>
      <trkpt lat="43.86452" lon="6.97242">
        <ele>498.5999756</ele>
        <time>2019-12-07T13:59:23Z</time>
      </trkpt>
      <trkpt lat="43.86453" lon="6.97255">
        <ele>498.7999878</ele>
        <time>2019-12-07T13:59:28Z</time>
      </trkpt>
      <trkpt lat="43.8646" lon="6.97268">
        <ele>499</ele>
        <time>2019-12-07T13:59:34Z</time>
      </trkpt>
      <trkpt lat="43.86467" lon="6.97286">
        <ele>498.5999756</ele>
        <time>2019-12-07T13:59:40Z</time>
      </trkpt>
      <trkpt lat="43.86469" lon="6.97291">
        <ele>497.5999756</ele>
        <time>2019-12-07T13:59:42Z</time>
      </trkpt>
      <trkpt lat="43.86471" lon="6.973">
        <ele>496.7999878</ele>
        <time>2019-12-07T13:59:45Z</time>
      </trkpt>
      <trkpt lat="43.86473" lon="6.97307">
        <ele>496.5999756</ele>
        <time>2019-12-07T13:59:47Z</time>
      </trkpt>
      <trkpt lat="43.86474" lon="6.97315">
        <ele>496</ele>
        <time>2019-12-07T13:59:50Z</time>
      </trkpt>
      <trkpt lat="43.8648" lon="6.97334">
        <ele>497</ele>
        <time>2019-12-07T13:59:57Z</time>
      </trkpt>
      <trkpt lat="43.86483" lon="6.97353">
        <ele>496.4000244</ele>
        <time>2019-12-07T14:00:03Z</time>
      </trkpt>
      <trkpt lat="43.86485" lon="6.97369">
        <ele>496</ele>
        <time>2019-12-07T14:00:09Z</time>
      </trkpt>
      <trkpt lat="43.86488" lon="6.97385">
        <ele>495.5999756</ele>
        <time>2019-12-07T14:00:14Z</time>
      </trkpt>
      <trkpt lat="43.86488" lon="6.97393">
        <ele>495.5999756</ele>
        <time>2019-12-07T14:00:16Z</time>
      </trkpt>
      <trkpt lat="43.86488" lon="6.97407">
        <ele>495.7999878</ele>
        <time>2019-12-07T14:00:19Z</time>
      </trkpt>
      <trkpt lat="43.86494" lon="6.97424">
        <ele>495.2000122</ele>
        <time>2019-12-07T14:00:24Z</time>
      </trkpt>
      <trkpt lat="43.86503" lon="6.97433">
        <ele>495.5999756</ele>
        <time>2019-12-07T14:00:29Z</time>
      </trkpt>
      <trkpt lat="43.86507" lon="6.97443">
        <ele>495.2000122</ele>
        <time>2019-12-07T14:00:32Z</time>
      </trkpt>
      <trkpt lat="43.86509" lon="6.97452">
        <ele>495</ele>
        <time>2019-12-07T14:00:35Z</time>
      </trkpt>
      <trkpt lat="43.86501" lon="6.97463">
        <ele>495</ele>
        <time>2019-12-07T14:00:40Z</time>
      </trkpt>
      <trkpt lat="43.86496" lon="6.9747">
        <ele>494.7999878</ele>
        <time>2019-12-07T14:00:45Z</time>
      </trkpt>
      <trkpt lat="43.86489" lon="6.97481">
        <ele>496.7999878</ele>
        <time>2019-12-07T14:00:51Z</time>
      </trkpt>
      <trkpt lat="43.86489" lon="6.97484">
        <ele>497.2000122</ele>
        <time>2019-12-07T14:00:52Z</time>
      </trkpt>
      <trkpt lat="43.86492" lon="6.97487">
        <ele>497.5999756</ele>
        <time>2019-12-07T14:00:55Z</time>
      </trkpt>
      <trkpt lat="43.86493" lon="6.97489">
        <ele>497.7999878</ele>
        <time>2019-12-07T14:00:56Z</time>
      </trkpt>
      <trkpt lat="43.86497" lon="6.97491">
        <ele>498.7999878</ele>
        <time>2019-12-07T14:00:59Z</time>
      </trkpt>
      <trkpt lat="43.86503" lon="6.97493">
        <ele>499.7999878</ele>
        <time>2019-12-07T14:01:01Z</time>
      </trkpt>
      <trkpt lat="43.86507" lon="6.97494">
        <ele>500</ele>
        <time>2019-12-07T14:01:02Z</time>
      </trkpt>
      <trkpt lat="43.86515" lon="6.975">
        <ele>500.2000122</ele>
        <time>2019-12-07T14:01:04Z</time>
      </trkpt>
      <trkpt lat="43.86522" lon="6.97512">
        <ele>499.7999878</ele>
        <time>2019-12-07T14:01:06Z</time>
      </trkpt>
      <trkpt lat="43.86534" lon="6.97537">
        <ele>499</ele>
        <time>2019-12-07T14:01:10Z</time>
      </trkpt>
      <trkpt lat="43.86535" lon="6.97545">
        <ele>498.7999878</ele>
        <time>2019-12-07T14:01:11Z</time>
      </trkpt>
      <trkpt lat="43.86535" lon="6.97551">
        <ele>498.5999756</ele>
        <time>2019-12-07T14:01:12Z</time>
      </trkpt>
      <trkpt lat="43.86537" lon="6.97565">
        <ele>498</ele>
        <time>2019-12-07T14:01:14Z</time>
      </trkpt>
      <trkpt lat="43.86539" lon="6.97568">
        <ele>497.7999878</ele>
        <time>2019-12-07T14:01:15Z</time>
      </trkpt>
      <trkpt lat="43.86542" lon="6.97571">
        <ele>497.4000244</ele>
        <time>2019-12-07T14:01:16Z</time>
      </trkpt>
      <trkpt lat="43.86551" lon="6.9758">
        <ele>497.2000122</ele>
        <time>2019-12-07T14:01:19Z</time>
      </trkpt>
      <trkpt lat="43.86556" lon="6.97584">
        <ele>497.2000122</ele>
        <time>2019-12-07T14:01:21Z</time>
      </trkpt>
      <trkpt lat="43.86572" lon="6.97598">
        <ele>497.2000122</ele>
        <time>2019-12-07T14:01:27Z</time>
      </trkpt>
      <trkpt lat="43.86587" lon="6.97618">
        <ele>497.2000122</ele>
        <time>2019-12-07T14:01:33Z</time>
      </trkpt>
      <trkpt lat="43.86594" lon="6.97633">
        <ele>496.7999878</ele>
        <time>2019-12-07T14:01:37Z</time>
      </trkpt>
      <trkpt lat="43.86597" lon="6.9764">
        <ele>496.5999756</ele>
        <time>2019-12-07T14:01:39Z</time>
      </trkpt>
      <trkpt lat="43.86605" lon="6.97657">
        <ele>497</ele>
        <time>2019-12-07T14:01:44Z</time>
      </trkpt>
      <trkpt lat="43.86613" lon="6.97667">
        <ele>497.2000122</ele>
        <time>2019-12-07T14:01:48Z</time>
      </trkpt>
      <trkpt lat="43.86625" lon="6.97691">
        <ele>497.4000244</ele>
        <time>2019-12-07T14:01:54Z</time>
      </trkpt>
      <trkpt lat="43.86633" lon="6.97704">
        <ele>497.4000244</ele>
        <time>2019-12-07T14:01:57Z</time>
      </trkpt>
      <trkpt lat="43.86638" lon="6.97713">
        <ele>497.2000122</ele>
        <time>2019-12-07T14:01:59Z</time>
      </trkpt>
      <trkpt lat="43.86656" lon="6.97742">
        <ele>495.7999878</ele>
        <time>2019-12-07T14:02:05Z</time>
      </trkpt>
      <trkpt lat="43.86659" lon="6.97749">
        <ele>495.4000244</ele>
        <time>2019-12-07T14:02:06Z</time>
      </trkpt>
      <trkpt lat="43.86667" lon="6.97771">
        <ele>494.7999878</ele>
        <time>2019-12-07T14:02:09Z</time>
      </trkpt>
      <trkpt lat="43.86669" lon="6.97779">
        <ele>494.4000244</ele>
        <time>2019-12-07T14:02:10Z</time>
      </trkpt>
      <trkpt lat="43.86672" lon="6.97801">
        <ele>493.4000244</ele>
        <time>2019-12-07T14:02:13Z</time>
      </trkpt>
      <trkpt lat="43.86675" lon="6.97806">
        <ele>493.2000122</ele>
        <time>2019-12-07T14:02:14Z</time>
      </trkpt>
      <trkpt lat="43.86678" lon="6.97813">
        <ele>492.7999878</ele>
        <time>2019-12-07T14:02:15Z</time>
      </trkpt>
      <trkpt lat="43.86681" lon="6.9782">
        <ele>492.5999756</ele>
        <time>2019-12-07T14:02:16Z</time>
      </trkpt>
      <trkpt lat="43.86686" lon="6.97832">
        <ele>492</ele>
        <time>2019-12-07T14:02:18Z</time>
      </trkpt>
      <trkpt lat="43.86692" lon="6.97846">
        <ele>491.4000244</ele>
        <time>2019-12-07T14:02:20Z</time>
      </trkpt>
      <trkpt lat="43.86695" lon="6.9785">
        <ele>491</ele>
        <time>2019-12-07T14:02:21Z</time>
      </trkpt>
      <trkpt lat="43.86708" lon="6.97865">
        <ele>489.5999756</ele>
        <time>2019-12-07T14:02:24Z</time>
      </trkpt>
      <trkpt lat="43.86716" lon="6.97875">
        <ele>489</ele>
        <time>2019-12-07T14:02:26Z</time>
      </trkpt>
      <trkpt lat="43.8672" lon="6.97881">
        <ele>488.5999756</ele>
        <time>2019-12-07T14:02:27Z</time>
      </trkpt>
      <trkpt lat="43.86733" lon="6.97901">
        <ele>487.7999878</ele>
        <time>2019-12-07T14:02:31Z</time>
      </trkpt>
      <trkpt lat="43.86739" lon="6.97913">
        <ele>487.4000244</ele>
        <time>2019-12-07T14:02:33Z</time>
      </trkpt>
      <trkpt lat="43.86752" lon="6.97937">
        <ele>486.5999756</ele>
        <time>2019-12-07T14:02:37Z</time>
      </trkpt>
      <trkpt lat="43.86754" lon="6.97942">
        <ele>486.4000244</ele>
        <time>2019-12-07T14:02:38Z</time>
      </trkpt>
      <trkpt lat="43.86765" lon="6.97966">
        <ele>485.5999756</ele>
        <time>2019-12-07T14:02:42Z</time>
      </trkpt>
      <trkpt lat="43.86767" lon="6.97971">
        <ele>485.4000244</ele>
        <time>2019-12-07T14:02:43Z</time>
      </trkpt>
      <trkpt lat="43.86775" lon="6.97991">
        <ele>485</ele>
        <time>2019-12-07T14:02:47Z</time>
      </trkpt>
      <trkpt lat="43.8678" lon="6.98018">
        <ele>484.2000122</ele>
        <time>2019-12-07T14:02:52Z</time>
      </trkpt>
      <trkpt lat="43.86782" lon="6.98023">
        <ele>484</ele>
        <time>2019-12-07T14:02:53Z</time>
      </trkpt>
      <trkpt lat="43.86785" lon="6.9803">
        <ele>483.2000122</ele>
        <time>2019-12-07T14:02:55Z</time>
      </trkpt>
      <trkpt lat="43.86788" lon="6.9804">
        <ele>482.4000244</ele>
        <time>2019-12-07T14:02:58Z</time>
      </trkpt>
      <trkpt lat="43.8679" lon="6.98046">
        <ele>482</ele>
        <time>2019-12-07T14:03:00Z</time>
      </trkpt>
      <trkpt lat="43.86796" lon="6.9806">
        <ele>481</ele>
        <time>2019-12-07T14:03:05Z</time>
      </trkpt>
      <trkpt lat="43.86797" lon="6.98063">
        <ele>480.5999756</ele>
        <time>2019-12-07T14:03:06Z</time>
      </trkpt>
      <trkpt lat="43.86801" lon="6.98074">
        <ele>479.7999878</ele>
        <time>2019-12-07T14:03:11Z</time>
      </trkpt>
      <trkpt lat="43.86803" lon="6.98086">
        <ele>480.2000122</ele>
        <time>2019-12-07T14:03:16Z</time>
      </trkpt>
      <trkpt lat="43.86807" lon="6.98095">
        <ele>481</ele>
        <time>2019-12-07T14:03:21Z</time>
      </trkpt>
      <trkpt lat="43.86807" lon="6.98098">
        <ele>481</ele>
        <time>2019-12-07T14:03:22Z</time>
      </trkpt>
      <trkpt lat="43.8681" lon="6.98107">
        <ele>480.7999878</ele>
        <time>2019-12-07T14:03:26Z</time>
      </trkpt>
      <trkpt lat="43.86811" lon="6.98109">
        <ele>480.7999878</ele>
        <time>2019-12-07T14:03:27Z</time>
      </trkpt>
      <trkpt lat="43.86814" lon="6.98117">
        <ele>480.4000244</ele>
        <time>2019-12-07T14:03:30Z</time>
      </trkpt>
      <trkpt lat="43.86818" lon="6.9813">
        <ele>480.2000122</ele>
        <time>2019-12-07T14:03:35Z</time>
      </trkpt>
      <trkpt lat="43.86823" lon="6.98143">
        <ele>480</ele>
        <time>2019-12-07T14:03:41Z</time>
      </trkpt>
      <trkpt lat="43.86828" lon="6.98162">
        <ele>480.2000122</ele>
        <time>2019-12-07T14:03:47Z</time>
      </trkpt>
      <trkpt lat="43.86827" lon="6.9818">
        <ele>480.2000122</ele>
        <time>2019-12-07T14:03:53Z</time>
      </trkpt>
      <trkpt lat="43.86822" lon="6.98196">
        <ele>480.7999878</ele>
        <time>2019-12-07T14:03:56Z</time>
      </trkpt>
      <trkpt lat="43.8682" lon="6.98202">
        <ele>481</ele>
        <time>2019-12-07T14:03:58Z</time>
      </trkpt>
      <trkpt lat="43.86821" lon="6.98204">
        <ele>481.2000122</ele>
        <time>2019-12-07T14:03:59Z</time>
      </trkpt>
      <trkpt lat="43.86827" lon="6.98216">
        <ele>481.4000244</ele>
        <time>2019-12-07T14:04:02Z</time>
      </trkpt>
      <trkpt lat="43.86828" lon="6.98221">
        <ele>481.4000244</ele>
        <time>2019-12-07T14:04:03Z</time>
      </trkpt>
      <trkpt lat="43.86827" lon="6.98239">
        <ele>481.5999756</ele>
        <time>2019-12-07T14:04:06Z</time>
      </trkpt>
      <trkpt lat="43.86829" lon="6.98256">
        <ele>481.2000122</ele>
        <time>2019-12-07T14:04:09Z</time>
      </trkpt>
      <trkpt lat="43.86828" lon="6.98259">
        <ele>481.2000122</ele>
        <time>2019-12-07T14:04:10Z</time>
      </trkpt>
      <trkpt lat="43.86825" lon="6.98261">
        <ele>481</ele>
        <time>2019-12-07T14:04:11Z</time>
      </trkpt>
      <trkpt lat="43.86813" lon="6.98269">
        <ele>480.2000122</ele>
        <time>2019-12-07T14:04:16Z</time>
      </trkpt>
      <trkpt lat="43.86814" lon="6.98273">
        <ele>480</ele>
        <time>2019-12-07T14:04:17Z</time>
      </trkpt>
      <trkpt lat="43.86817" lon="6.98283">
        <ele>479.7999878</ele>
        <time>2019-12-07T14:04:19Z</time>
      </trkpt>
      <trkpt lat="43.8682" lon="6.98289">
        <ele>479.7999878</ele>
        <time>2019-12-07T14:04:20Z</time>
      </trkpt>
      <trkpt lat="43.86824" lon="6.98306">
        <ele>479.5999756</ele>
        <time>2019-12-07T14:04:23Z</time>
      </trkpt>
      <trkpt lat="43.86824" lon="6.98311">
        <ele>479.4000244</ele>
        <time>2019-12-07T14:04:24Z</time>
      </trkpt>
      <trkpt lat="43.86827" lon="6.98322">
        <ele>479</ele>
        <time>2019-12-07T14:04:26Z</time>
      </trkpt>
      <trkpt lat="43.86829" lon="6.98338">
        <ele>478.4000244</ele>
        <time>2019-12-07T14:04:28Z</time>
      </trkpt>
      <trkpt lat="43.86829" lon="6.98345">
        <ele>478.2000122</ele>
        <time>2019-12-07T14:04:29Z</time>
      </trkpt>
      <trkpt lat="43.86827" lon="6.98353">
        <ele>478</ele>
        <time>2019-12-07T14:04:30Z</time>
      </trkpt>
      <trkpt lat="43.86825" lon="6.98368">
        <ele>477.5999756</ele>
        <time>2019-12-07T14:04:32Z</time>
      </trkpt>
      <trkpt lat="43.86822" lon="6.98384">
        <ele>477</ele>
        <time>2019-12-07T14:04:34Z</time>
      </trkpt>
      <trkpt lat="43.8682" lon="6.98387">
        <ele>476.7999878</ele>
        <time>2019-12-07T14:04:35Z</time>
      </trkpt>
      <trkpt lat="43.86819" lon="6.9839">
        <ele>476.5999756</ele>
        <time>2019-12-07T14:04:36Z</time>
      </trkpt>
      <trkpt lat="43.86819" lon="6.98394">
        <ele>476.4000244</ele>
        <time>2019-12-07T14:04:37Z</time>
      </trkpt>
      <trkpt lat="43.86821" lon="6.98393">
        <ele>475.5999756</ele>
        <time>2019-12-07T14:04:39Z</time>
      </trkpt>
      <trkpt lat="43.86824" lon="6.98384">
        <ele>474.2000122</ele>
        <time>2019-12-07T14:04:42Z</time>
      </trkpt>
      <trkpt lat="43.86826" lon="6.98385">
        <ele>473.5999756</ele>
        <time>2019-12-07T14:04:43Z</time>
      </trkpt>
      <trkpt lat="43.86831" lon="6.98393">
        <ele>472.7999878</ele>
        <time>2019-12-07T14:04:45Z</time>
      </trkpt>
      <trkpt lat="43.8683" lon="6.98399">
        <ele>472.4000244</ele>
        <time>2019-12-07T14:04:46Z</time>
      </trkpt>
      <trkpt lat="43.86827" lon="6.9842">
        <ele>471.5999756</ele>
        <time>2019-12-07T14:04:49Z</time>
      </trkpt>
      <trkpt lat="43.86824" lon="6.9843">
        <ele>471</ele>
        <time>2019-12-07T14:04:51Z</time>
      </trkpt>
      <trkpt lat="43.86822" lon="6.98434">
        <ele>470.5999756</ele>
        <time>2019-12-07T14:04:52Z</time>
      </trkpt>
      <trkpt lat="43.86822" lon="6.98436">
        <ele>470.2000122</ele>
        <time>2019-12-07T14:04:53Z</time>
      </trkpt>
      <trkpt lat="43.86822" lon="6.98437">
        <ele>469.5999756</ele>
        <time>2019-12-07T14:04:55Z</time>
      </trkpt>
      <trkpt lat="43.86822" lon="6.98437">
        <ele>469.2000122</ele>
        <time>2019-12-07T14:04:56Z</time>
      </trkpt>
      <trkpt lat="43.86828" lon="6.98431">
        <ele>469</ele>
        <time>2019-12-07T14:04:59Z</time>
      </trkpt>
      <trkpt lat="43.86832" lon="6.98433">
        <ele>469</ele>
        <time>2019-12-07T14:05:01Z</time>
      </trkpt>
      <trkpt lat="43.86827" lon="6.98446">
        <ele>468.4000244</ele>
        <time>2019-12-07T14:05:04Z</time>
      </trkpt>
      <trkpt lat="43.86825" lon="6.98452">
        <ele>468.4000244</ele>
        <time>2019-12-07T14:05:05Z</time>
      </trkpt>
      <trkpt lat="43.86818" lon="6.9847">
        <ele>468.2000122</ele>
        <time>2019-12-07T14:05:08Z</time>
      </trkpt>
      <trkpt lat="43.86817" lon="6.98474">
        <ele>468</ele>
        <time>2019-12-07T14:05:09Z</time>
      </trkpt>
      <trkpt lat="43.86814" lon="6.98476">
        <ele>467.7999878</ele>
        <time>2019-12-07T14:05:10Z</time>
      </trkpt>
      <trkpt lat="43.86814" lon="6.98482">
        <ele>467.4000244</ele>
        <time>2019-12-07T14:05:12Z</time>
      </trkpt>
      <trkpt lat="43.86813" lon="6.98485">
        <ele>467</ele>
        <time>2019-12-07T14:05:14Z</time>
      </trkpt>
      <trkpt lat="43.86813" lon="6.98487">
        <ele>466.5999756</ele>
        <time>2019-12-07T14:05:15Z</time>
      </trkpt>
      <trkpt lat="43.86814" lon="6.98489">
        <ele>466.4000244</ele>
        <time>2019-12-07T14:05:16Z</time>
      </trkpt>
      <trkpt lat="43.86818" lon="6.98484">
        <ele>466</ele>
        <time>2019-12-07T14:05:18Z</time>
      </trkpt>
      <trkpt lat="43.86823" lon="6.98476">
        <ele>466</ele>
        <time>2019-12-07T14:05:19Z</time>
      </trkpt>
      <trkpt lat="43.86832" lon="6.9847">
        <ele>465.5999756</ele>
        <time>2019-12-07T14:05:21Z</time>
      </trkpt>
      <trkpt lat="43.86836" lon="6.98478">
        <ele>465</ele>
        <time>2019-12-07T14:05:24Z</time>
      </trkpt>
      <trkpt lat="43.86836" lon="6.98482">
        <ele>464.5999756</ele>
        <time>2019-12-07T14:05:25Z</time>
      </trkpt>
      <trkpt lat="43.86835" lon="6.98493">
        <ele>464.2000122</ele>
        <time>2019-12-07T14:05:27Z</time>
      </trkpt>
      <trkpt lat="43.86834" lon="6.98497">
        <ele>463.7999878</ele>
        <time>2019-12-07T14:05:28Z</time>
      </trkpt>
      <trkpt lat="43.86833" lon="6.98501">
        <ele>463.5999756</ele>
        <time>2019-12-07T14:05:29Z</time>
      </trkpt>
      <trkpt lat="43.86828" lon="6.98517">
        <ele>462.7999878</ele>
        <time>2019-12-07T14:05:32Z</time>
      </trkpt>
      <trkpt lat="43.86827" lon="6.98521">
        <ele>462.4000244</ele>
        <time>2019-12-07T14:05:33Z</time>
      </trkpt>
      <trkpt lat="43.86823" lon="6.98529">
        <ele>461.7999878</ele>
        <time>2019-12-07T14:05:36Z</time>
      </trkpt>
      <trkpt lat="43.86824" lon="6.98532">
        <ele>461.4000244</ele>
        <time>2019-12-07T14:05:37Z</time>
      </trkpt>
      <trkpt lat="43.86824" lon="6.98533">
        <ele>460</ele>
        <time>2019-12-07T14:05:39Z</time>
      </trkpt>
      <trkpt lat="43.86824" lon="6.98534">
        <ele>459.4000244</ele>
        <time>2019-12-07T14:05:40Z</time>
      </trkpt>
      <trkpt lat="43.86824" lon="6.98534">
        <ele>458.7999878</ele>
        <time>2019-12-07T14:05:45Z</time>
      </trkpt>
      <trkpt lat="43.86824" lon="6.98534">
        <ele>458.7999878</ele>
        <time>2019-12-07T14:05:47Z</time>
      </trkpt>
      <trkpt lat="43.86828" lon="6.98533">
        <ele>458.2000122</ele>
        <time>2019-12-07T14:05:50Z</time>
      </trkpt>
      <trkpt lat="43.86833" lon="6.98527">
        <ele>457.5999756</ele>
        <time>2019-12-07T14:05:52Z</time>
      </trkpt>
      <trkpt lat="43.86845" lon="6.98521">
        <ele>456.4000244</ele>
        <time>2019-12-07T14:05:55Z</time>
      </trkpt>
      <trkpt lat="43.86847" lon="6.9852">
        <ele>456</ele>
        <time>2019-12-07T14:05:56Z</time>
      </trkpt>
      <trkpt lat="43.86852" lon="6.98514">
        <ele>455.4000244</ele>
        <time>2019-12-07T14:05:58Z</time>
      </trkpt>
      <trkpt lat="43.86858" lon="6.98509">
        <ele>455</ele>
        <time>2019-12-07T14:06:00Z</time>
      </trkpt>
      <trkpt lat="43.86866" lon="6.98501">
        <ele>454.2000122</ele>
        <time>2019-12-07T14:06:03Z</time>
      </trkpt>
      <trkpt lat="43.86869" lon="6.98502">
        <ele>453.7999878</ele>
        <time>2019-12-07T14:06:04Z</time>
      </trkpt>
      <trkpt lat="43.86871" lon="6.98507">
        <ele>453</ele>
        <time>2019-12-07T14:06:07Z</time>
      </trkpt>
      <trkpt lat="43.86871" lon="6.98509">
        <ele>452.7999878</ele>
        <time>2019-12-07T14:06:08Z</time>
      </trkpt>
      <trkpt lat="43.86869" lon="6.98518">
        <ele>451.5999756</ele>
        <time>2019-12-07T14:06:11Z</time>
      </trkpt>
      <trkpt lat="43.86869" lon="6.98521">
        <ele>451.4000244</ele>
        <time>2019-12-07T14:06:12Z</time>
      </trkpt>
      <trkpt lat="43.86872" lon="6.98524">
        <ele>450.4000244</ele>
        <time>2019-12-07T14:06:14Z</time>
      </trkpt>
      <trkpt lat="43.86875" lon="6.98524">
        <ele>449.7999878</ele>
        <time>2019-12-07T14:06:15Z</time>
      </trkpt>
      <trkpt lat="43.86878" lon="6.98524">
        <ele>449.2000122</ele>
        <time>2019-12-07T14:06:16Z</time>
      </trkpt>
      <trkpt lat="43.86885" lon="6.98521">
        <ele>447.7999878</ele>
        <time>2019-12-07T14:06:18Z</time>
      </trkpt>
      <trkpt lat="43.86888" lon="6.9852">
        <ele>447.4000244</ele>
        <time>2019-12-07T14:06:19Z</time>
      </trkpt>
      <trkpt lat="43.86889" lon="6.98522">
        <ele>446.2000122</ele>
        <time>2019-12-07T14:06:21Z</time>
      </trkpt>
      <trkpt lat="43.86888" lon="6.98523">
        <ele>445.5999756</ele>
        <time>2019-12-07T14:06:22Z</time>
      </trkpt>
      <trkpt lat="43.8689" lon="6.98525">
        <ele>445.5999756</ele>
        <time>2019-12-07T14:06:23Z</time>
      </trkpt>
      <trkpt lat="43.86891" lon="6.98525">
        <ele>444.7999878</ele>
        <time>2019-12-07T14:06:24Z</time>
      </trkpt>
      <trkpt lat="43.86893" lon="6.98525">
        <ele>443.5999756</ele>
        <time>2019-12-07T14:06:25Z</time>
      </trkpt>
      <trkpt lat="43.86892" lon="6.98525">
        <ele>442</ele>
        <time>2019-12-07T14:06:26Z</time>
      </trkpt>
      <trkpt lat="43.86894" lon="6.98525">
        <ele>440.5999756</ele>
        <time>2019-12-07T14:06:27Z</time>
      </trkpt>
      <trkpt lat="43.86893" lon="6.98528">
        <ele>439.7999878</ele>
        <time>2019-12-07T14:06:33Z</time>
      </trkpt>
      <trkpt lat="43.86893" lon="6.98529">
        <ele>436.7999878</ele>
        <time>2019-12-07T14:06:34Z</time>
      </trkpt>
      <trkpt lat="43.86894" lon="6.9853">
        <ele>434.7999878</ele>
        <time>2019-12-07T14:06:35Z</time>
      </trkpt>
      <trkpt lat="43.86896" lon="6.98531">
        <ele>433.4000244</ele>
        <time>2019-12-07T14:06:36Z</time>
      </trkpt>
      <trkpt lat="43.86898" lon="6.98531">
        <ele>431.7999878</ele>
        <time>2019-12-07T14:06:37Z</time>
      </trkpt>
      <trkpt lat="43.86899" lon="6.98533">
        <ele>430.5999756</ele>
        <time>2019-12-07T14:06:38Z</time>
      </trkpt>
      <trkpt lat="43.86901" lon="6.98536">
        <ele>429</ele>
        <time>2019-12-07T14:06:39Z</time>
      </trkpt>
      <trkpt lat="43.86901" lon="6.9854">
        <ele>427.4000244</ele>
        <time>2019-12-07T14:06:40Z</time>
      </trkpt>
      <trkpt lat="43.86903" lon="6.98545">
        <ele>425.5999756</ele>
        <time>2019-12-07T14:06:41Z</time>
      </trkpt>
      <trkpt lat="43.86904" lon="6.98551">
        <ele>424.2000122</ele>
        <time>2019-12-07T14:06:42Z</time>
      </trkpt>
      <trkpt lat="43.86905" lon="6.98558">
        <ele>423.2000122</ele>
        <time>2019-12-07T14:06:43Z</time>
      </trkpt>
      <trkpt lat="43.86907" lon="6.98559">
        <ele>422.2000122</ele>
        <time>2019-12-07T14:06:44Z</time>
      </trkpt>
      <trkpt lat="43.86909" lon="6.98559">
        <ele>421</ele>
        <time>2019-12-07T14:06:45Z</time>
      </trkpt>
      <trkpt lat="43.86913" lon="6.98562">
        <ele>419.4000244</ele>
        <time>2019-12-07T14:06:47Z</time>
      </trkpt>
      <trkpt lat="43.86913" lon="6.98567">
        <ele>418.2000122</ele>
        <time>2019-12-07T14:06:49Z</time>
      </trkpt>
      <trkpt lat="43.86912" lon="6.98569">
        <ele>418</ele>
        <time>2019-12-07T14:06:50Z</time>
      </trkpt>
      <trkpt lat="43.8691" lon="6.98576">
        <ele>417</ele>
        <time>2019-12-07T14:06:52Z</time>
      </trkpt>
      <trkpt lat="43.8691" lon="6.98581">
        <ele>416</ele>
        <time>2019-12-07T14:06:54Z</time>
      </trkpt>
      <trkpt lat="43.86911" lon="6.98582">
        <ele>415.5999756</ele>
        <time>2019-12-07T14:06:55Z</time>
      </trkpt>
      <trkpt lat="43.86913" lon="6.98581">
        <ele>414.4000244</ele>
        <time>2019-12-07T14:06:58Z</time>
      </trkpt>
      <trkpt lat="43.86913" lon="6.98581">
        <ele>413.7999878</ele>
        <time>2019-12-07T14:07:01Z</time>
      </trkpt>
      <trkpt lat="43.86913" lon="6.98581">
        <ele>413.7999878</ele>
        <time>2019-12-07T14:07:15Z</time>
      </trkpt>
      <trkpt lat="43.86913" lon="6.98581">
        <ele>413.7999878</ele>
        <time>2019-12-07T14:07:27Z</time>
      </trkpt>
      <trkpt lat="43.86915" lon="6.98581">
        <ele>413.2000122</ele>
        <time>2019-12-07T14:07:31Z</time>
      </trkpt>
      <trkpt lat="43.8692" lon="6.9858">
        <ele>411.5999756</ele>
        <time>2019-12-07T14:07:33Z</time>
      </trkpt>
      <trkpt lat="43.86924" lon="6.98574">
        <ele>410.2000122</ele>
        <time>2019-12-07T14:07:35Z</time>
      </trkpt>
      <trkpt lat="43.86924" lon="6.98565">
        <ele>408.7999878</ele>
        <time>2019-12-07T14:07:37Z</time>
      </trkpt>
      <trkpt lat="43.86922" lon="6.98555">
        <ele>408</ele>
        <time>2019-12-07T14:07:39Z</time>
      </trkpt>
      <trkpt lat="43.86922" lon="6.98552">
        <ele>407.5999756</ele>
        <time>2019-12-07T14:07:40Z</time>
      </trkpt>
      <trkpt lat="43.86922" lon="6.98546">
        <ele>406</ele>
        <time>2019-12-07T14:07:42Z</time>
      </trkpt>
      <trkpt lat="43.86927" lon="6.98547">
        <ele>404.7999878</ele>
        <time>2019-12-07T14:07:44Z</time>
      </trkpt>
      <trkpt lat="43.8693" lon="6.9855">
        <ele>404</ele>
        <time>2019-12-07T14:07:45Z</time>
      </trkpt>
      <trkpt lat="43.86933" lon="6.98554">
        <ele>403.4000244</ele>
        <time>2019-12-07T14:07:46Z</time>
      </trkpt>
      <trkpt lat="43.86933" lon="6.98562">
        <ele>401.4000244</ele>
        <time>2019-12-07T14:07:48Z</time>
      </trkpt>
      <trkpt lat="43.86933" lon="6.98568">
        <ele>400.2000122</ele>
        <time>2019-12-07T14:07:50Z</time>
      </trkpt>
      <trkpt lat="43.86933" lon="6.98575">
        <ele>398.7999878</ele>
        <time>2019-12-07T14:07:52Z</time>
      </trkpt>
      <trkpt lat="43.86932" lon="6.98579">
        <ele>397.4000244</ele>
        <time>2019-12-07T14:07:54Z</time>
      </trkpt>
      <trkpt lat="43.86932" lon="6.98582">
        <ele>396.2000122</ele>
        <time>2019-12-07T14:07:56Z</time>
      </trkpt>
      <trkpt lat="43.86932" lon="6.98586">
        <ele>395.4000244</ele>
        <time>2019-12-07T14:07:58Z</time>
      </trkpt>
      <trkpt lat="43.86933" lon="6.98586">
        <ele>395</ele>
        <time>2019-12-07T14:07:59Z</time>
      </trkpt>
      <trkpt lat="43.86936" lon="6.98583">
        <ele>394.5999756</ele>
        <time>2019-12-07T14:08:02Z</time>
      </trkpt>
      <trkpt lat="43.86937" lon="6.98581">
        <ele>394.4000244</ele>
        <time>2019-12-07T14:08:03Z</time>
      </trkpt>
      <trkpt lat="43.86942" lon="6.98585">
        <ele>393.7999878</ele>
        <time>2019-12-07T14:08:06Z</time>
      </trkpt>
      <trkpt lat="43.86943" lon="6.98586">
        <ele>393.7999878</ele>
        <time>2019-12-07T14:08:07Z</time>
      </trkpt>
      <trkpt lat="43.86945" lon="6.98589">
        <ele>393.7999878</ele>
        <time>2019-12-07T14:08:10Z</time>
      </trkpt>
      <trkpt lat="43.86947" lon="6.9859">
        <ele>393.7999878</ele>
        <time>2019-12-07T14:08:11Z</time>
      </trkpt>
      <trkpt lat="43.86948" lon="6.98615">
        <ele>392.7999878</ele>
        <time>2019-12-07T14:08:17Z</time>
      </trkpt>
      <trkpt lat="43.86941" lon="6.98629">
        <ele>391.4000244</ele>
        <time>2019-12-07T14:08:21Z</time>
      </trkpt>
      <trkpt lat="43.86945" lon="6.98631">
        <ele>390.4000244</ele>
        <time>2019-12-07T14:08:24Z</time>
      </trkpt>
      <trkpt lat="43.8695" lon="6.98632">
        <ele>389.7999878</ele>
        <time>2019-12-07T14:08:26Z</time>
      </trkpt>
      <trkpt lat="43.86954" lon="6.98633">
        <ele>389.4000244</ele>
        <time>2019-12-07T14:08:28Z</time>
      </trkpt>
      <trkpt lat="43.86955" lon="6.98634">
        <ele>389.4000244</ele>
        <time>2019-12-07T14:08:32Z</time>
      </trkpt>
      <trkpt lat="43.86955" lon="6.98634">
        <ele>389.4000244</ele>
        <time>2019-12-07T14:08:49Z</time>
      </trkpt>
      <trkpt lat="43.86958" lon="6.98634">
        <ele>388.5999756</ele>
        <time>2019-12-07T14:09:02Z</time>
      </trkpt>
      <trkpt lat="43.86961" lon="6.98636">
        <ele>388.2000122</ele>
        <time>2019-12-07T14:09:04Z</time>
      </trkpt>
      <trkpt lat="43.86966" lon="6.98637">
        <ele>387.2000122</ele>
        <time>2019-12-07T14:09:07Z</time>
      </trkpt>
      <trkpt lat="43.86968" lon="6.98638">
        <ele>387.2000122</ele>
        <time>2019-12-07T14:09:08Z</time>
      </trkpt>
      <trkpt lat="43.86971" lon="6.98639">
        <ele>388.7999878</ele>
        <time>2019-12-07T14:09:12Z</time>
      </trkpt>
      <trkpt lat="43.86972" lon="6.9864">
        <ele>389</ele>
        <time>2019-12-07T14:09:15Z</time>
      </trkpt>
      <trkpt lat="43.86972" lon="6.9864">
        <ele>389</ele>
        <time>2019-12-07T14:09:25Z</time>
      </trkpt>
      <trkpt lat="43.86972" lon="6.9864">
        <ele>389.4000244</ele>
        <time>2019-12-07T14:09:33Z</time>
      </trkpt>
      <trkpt lat="43.86972" lon="6.9864">
        <ele>389.4000244</ele>
        <time>2019-12-07T14:09:49Z</time>
      </trkpt>
      <trkpt lat="43.86972" lon="6.9864">
        <ele>389.4000244</ele>
        <time>2019-12-07T14:10:05Z</time>
      </trkpt>
      <trkpt lat="43.86973" lon="6.9864">
        <ele>389.7999878</ele>
        <time>2019-12-07T14:10:10Z</time>
      </trkpt>
      <trkpt lat="43.86973" lon="6.9864">
        <ele>389.7999878</ele>
        <time>2019-12-07T14:10:17Z</time>
      </trkpt>
      <trkpt lat="43.86973" lon="6.9864">
        <ele>389.7999878</ele>
        <time>2019-12-07T14:10:30Z</time>
      </trkpt>
      <trkpt lat="43.86973" lon="6.9864">
        <ele>389.7999878</ele>
        <time>2019-12-07T14:10:42Z</time>
      </trkpt>
      <trkpt lat="43.86973" lon="6.9864">
        <ele>389.5999756</ele>
        <time>2019-12-07T14:10:55Z</time>
      </trkpt>
      <trkpt lat="43.86973" lon="6.9864">
        <ele>389.5999756</ele>
        <time>2019-12-07T14:11:11Z</time>
      </trkpt>
      <trkpt lat="43.86973" lon="6.9864">
        <ele>389.5999756</ele>
        <time>2019-12-07T14:11:22Z</time>
      </trkpt>
      <trkpt lat="43.86974" lon="6.9864">
        <ele>389</ele>
        <time>2019-12-07T14:11:31Z</time>
      </trkpt>
      <trkpt lat="43.86974" lon="6.9864">
        <ele>389</ele>
        <time>2019-12-07T14:11:43Z</time>
      </trkpt>
      <trkpt lat="43.86974" lon="6.9864">
        <ele>389</ele>
        <time>2019-12-07T14:11:56Z</time>
      </trkpt>
      <trkpt lat="43.86974" lon="6.9864">
        <ele>389</ele>
        <time>2019-12-07T14:12:07Z</time>
      </trkpt>
      <trkpt lat="43.86974" lon="6.9864">
        <ele>388.5999756</ele>
        <time>2019-12-07T14:12:09Z</time>
      </trkpt>
      <trkpt lat="43.86974" lon="6.9864">
        <ele>388.5999756</ele>
        <time>2019-12-07T14:12:29Z</time>
      </trkpt>
      <trkpt lat="43.86974" lon="6.9864">
        <ele>388.5999756</ele>
        <time>2019-12-07T14:12:39Z</time>
      </trkpt>
      <trkpt lat="43.86976" lon="6.98641">
        <ele>388.4000244</ele>
        <time>2019-12-07T14:12:49Z</time>
      </trkpt>
      <trkpt lat="43.86991" lon="6.98649">
        <ele>388.5999756</ele>
        <time>2019-12-07T14:12:54Z</time>
      </trkpt>
      <trkpt lat="43.87015" lon="6.98666">
        <ele>388.7999878</ele>
        <time>2019-12-07T14:13:00Z</time>
      </trkpt>
      <trkpt lat="43.87041" lon="6.98684">
        <ele>388.2000122</ele>
        <time>2019-12-07T14:13:07Z</time>
      </trkpt>
      <trkpt lat="43.87066" lon="6.98711">
        <ele>388.7999878</ele>
        <time>2019-12-07T14:13:14Z</time>
      </trkpt>
      <trkpt lat="43.87085" lon="6.98738">
        <ele>388.7999878</ele>
        <time>2019-12-07T14:13:20Z</time>
      </trkpt>
      <trkpt lat="43.87102" lon="6.98751">
        <ele>389.7999878</ele>
        <time>2019-12-07T14:13:25Z</time>
      </trkpt>
      <trkpt lat="43.87114" lon="6.98759">
        <ele>391</ele>
        <time>2019-12-07T14:13:29Z</time>
      </trkpt>
      <trkpt lat="43.87122" lon="6.98766">
        <ele>391.7999878</ele>
        <time>2019-12-07T14:13:31Z</time>
      </trkpt>
      <trkpt lat="43.87125" lon="6.98769">
        <ele>392</ele>
        <time>2019-12-07T14:13:32Z</time>
      </trkpt>
      <trkpt lat="43.87131" lon="6.98776">
        <ele>392.7999878</ele>
        <time>2019-12-07T14:13:34Z</time>
      </trkpt>
      <trkpt lat="43.87135" lon="6.98779">
        <ele>393.2000122</ele>
        <time>2019-12-07T14:13:35Z</time>
      </trkpt>
      <trkpt lat="43.87147" lon="6.98788">
        <ele>394.4000244</ele>
        <time>2019-12-07T14:13:38Z</time>
      </trkpt>
      <trkpt lat="43.87158" lon="6.98795">
        <ele>395.7999878</ele>
        <time>2019-12-07T14:13:41Z</time>
      </trkpt>
      <trkpt lat="43.87162" lon="6.98796">
        <ele>396.2000122</ele>
        <time>2019-12-07T14:13:42Z</time>
      </trkpt>
      <trkpt lat="43.8717" lon="6.98798">
        <ele>397.2000122</ele>
        <time>2019-12-07T14:13:44Z</time>
      </trkpt>
      <trkpt lat="43.87181" lon="6.98799">
        <ele>398.2000122</ele>
        <time>2019-12-07T14:13:47Z</time>
      </trkpt>
      <trkpt lat="43.87185" lon="6.988">
        <ele>398.4000244</ele>
        <time>2019-12-07T14:13:48Z</time>
      </trkpt>
      <trkpt lat="43.87203" lon="6.98807">
        <ele>397.5999756</ele>
        <time>2019-12-07T14:13:53Z</time>
      </trkpt>
      <trkpt lat="43.87206" lon="6.98808">
        <ele>397.2000122</ele>
        <time>2019-12-07T14:13:54Z</time>
      </trkpt>
      <trkpt lat="43.87215" lon="6.98811">
        <ele>396</ele>
        <time>2019-12-07T14:13:57Z</time>
      </trkpt>
      <trkpt lat="43.8722" lon="6.98813">
        <ele>395.4000244</ele>
        <time>2019-12-07T14:13:59Z</time>
      </trkpt>
      <trkpt lat="43.87222" lon="6.98814">
        <ele>395</ele>
        <time>2019-12-07T14:14:00Z</time>
      </trkpt>
      <trkpt lat="43.87233" lon="6.98818">
        <ele>394.5999756</ele>
        <time>2019-12-07T14:14:05Z</time>
      </trkpt>
      <trkpt lat="43.87242" lon="6.98821">
        <ele>394</ele>
        <time>2019-12-07T14:14:09Z</time>
      </trkpt>
      <trkpt lat="43.87244" lon="6.98822">
        <ele>393.7999878</ele>
        <time>2019-12-07T14:14:10Z</time>
      </trkpt>
      <trkpt lat="43.87262" lon="6.98827">
        <ele>393.2000122</ele>
        <time>2019-12-07T14:14:16Z</time>
      </trkpt>
      <trkpt lat="43.87272" lon="6.98827">
        <ele>392.7999878</ele>
        <time>2019-12-07T14:14:19Z</time>
      </trkpt>
      <trkpt lat="43.8728" lon="6.98828">
        <ele>392.5999756</ele>
        <time>2019-12-07T14:14:21Z</time>
      </trkpt>
      <trkpt lat="43.87291" lon="6.98831">
        <ele>392.5999756</ele>
        <time>2019-12-07T14:14:25Z</time>
      </trkpt>
      <trkpt lat="43.87301" lon="6.98835">
        <ele>392.4000244</ele>
        <time>2019-12-07T14:14:29Z</time>
      </trkpt>
      <trkpt lat="43.87307" lon="6.98841">
        <ele>391.5999756</ele>
        <time>2019-12-07T14:14:32Z</time>
      </trkpt>
      <trkpt lat="43.87314" lon="6.98845">
        <ele>390.7999878</ele>
        <time>2019-12-07T14:14:34Z</time>
      </trkpt>
      <trkpt lat="43.87317" lon="6.98847">
        <ele>390.4000244</ele>
        <time>2019-12-07T14:14:35Z</time>
      </trkpt>
      <trkpt lat="43.87327" lon="6.98851">
        <ele>389</ele>
        <time>2019-12-07T14:14:38Z</time>
      </trkpt>
      <trkpt lat="43.8733" lon="6.98852">
        <ele>388.2000122</ele>
        <time>2019-12-07T14:14:39Z</time>
      </trkpt>
      <trkpt lat="43.87332" lon="6.98853">
        <ele>387.7999878</ele>
        <time>2019-12-07T14:14:40Z</time>
      </trkpt>
      <trkpt lat="43.87343" lon="6.9886">
        <ele>387.4000244</ele>
        <time>2019-12-07T14:14:45Z</time>
      </trkpt>
      <trkpt lat="43.87347" lon="6.98865">
        <ele>387.2000122</ele>
        <time>2019-12-07T14:14:47Z</time>
      </trkpt>
      <trkpt lat="43.8735" lon="6.98871">
        <ele>386.4000244</ele>
        <time>2019-12-07T14:14:49Z</time>
      </trkpt>
      <trkpt lat="43.8735" lon="6.98874">
        <ele>386</ele>
        <time>2019-12-07T14:14:50Z</time>
      </trkpt>
      <trkpt lat="43.87353" lon="6.98884">
        <ele>385.4000244</ele>
        <time>2019-12-07T14:14:54Z</time>
      </trkpt>
      <trkpt lat="43.87356" lon="6.98892">
        <ele>384.7999878</ele>
        <time>2019-12-07T14:14:57Z</time>
      </trkpt>
      <trkpt lat="43.8736" lon="6.98901">
        <ele>384.2000122</ele>
        <time>2019-12-07T14:15:00Z</time>
      </trkpt>
      <trkpt lat="43.87365" lon="6.98913">
        <ele>384</ele>
        <time>2019-12-07T14:15:05Z</time>
      </trkpt>
      <trkpt lat="43.87374" lon="6.98931">
        <ele>384.4000244</ele>
        <time>2019-12-07T14:15:12Z</time>
      </trkpt>
      <trkpt lat="43.87385" lon="6.98954">
        <ele>384.5999756</ele>
        <time>2019-12-07T14:15:19Z</time>
      </trkpt>
      <trkpt lat="43.87392" lon="6.98975">
        <ele>384</ele>
        <time>2019-12-07T14:15:25Z</time>
      </trkpt>
      <trkpt lat="43.87395" lon="6.98993">
        <ele>383.5999756</ele>
        <time>2019-12-07T14:15:31Z</time>
      </trkpt>
      <trkpt lat="43.87398" lon="6.99013">
        <ele>383.5999756</ele>
        <time>2019-12-07T14:15:38Z</time>
      </trkpt>
      <trkpt lat="43.87404" lon="6.99033">
        <ele>384</ele>
        <time>2019-12-07T14:15:44Z</time>
      </trkpt>
      <trkpt lat="43.87419" lon="6.99056">
        <ele>384.7999878</ele>
        <time>2019-12-07T14:15:51Z</time>
      </trkpt>
      <trkpt lat="43.87423" lon="6.99065">
        <ele>385.2000122</ele>
        <time>2019-12-07T14:15:53Z</time>
      </trkpt>
      <trkpt lat="43.87427" lon="6.99078">
        <ele>385.7999878</ele>
        <time>2019-12-07T14:15:56Z</time>
      </trkpt>
      <trkpt lat="43.87434" lon="6.99107">
        <ele>384.7999878</ele>
        <time>2019-12-07T14:16:00Z</time>
      </trkpt>
      <trkpt lat="43.87439" lon="6.99124">
        <ele>383.7999878</ele>
        <time>2019-12-07T14:16:02Z</time>
      </trkpt>
      <trkpt lat="43.87445" lon="6.9914">
        <ele>382.7999878</ele>
        <time>2019-12-07T14:16:04Z</time>
      </trkpt>
      <trkpt lat="43.8745" lon="6.99153">
        <ele>381.5999756</ele>
        <time>2019-12-07T14:16:06Z</time>
      </trkpt>
      <trkpt lat="43.87451" lon="6.99159">
        <ele>381.2000122</ele>
        <time>2019-12-07T14:16:07Z</time>
      </trkpt>
      <trkpt lat="43.87452" lon="6.99165">
        <ele>380.5999756</ele>
        <time>2019-12-07T14:16:08Z</time>
      </trkpt>
      <trkpt lat="43.87453" lon="6.99178">
        <ele>379.4000244</ele>
        <time>2019-12-07T14:16:10Z</time>
      </trkpt>
      <trkpt lat="43.87453" lon="6.99186">
        <ele>379</ele>
        <time>2019-12-07T14:16:11Z</time>
      </trkpt>
      <trkpt lat="43.87452" lon="6.99194">
        <ele>378.5999756</ele>
        <time>2019-12-07T14:16:12Z</time>
      </trkpt>
      <trkpt lat="43.8745" lon="6.99202">
        <ele>378</ele>
        <time>2019-12-07T14:16:13Z</time>
      </trkpt>
      <trkpt lat="43.87448" lon="6.9921">
        <ele>377.4000244</ele>
        <time>2019-12-07T14:16:14Z</time>
      </trkpt>
      <trkpt lat="43.87447" lon="6.99218">
        <ele>376.5999756</ele>
        <time>2019-12-07T14:16:15Z</time>
      </trkpt>
      <trkpt lat="43.87444" lon="6.99235">
        <ele>375</ele>
        <time>2019-12-07T14:16:17Z</time>
      </trkpt>
      <trkpt lat="43.87443" lon="6.99251">
        <ele>373.4000244</ele>
        <time>2019-12-07T14:16:19Z</time>
      </trkpt>
      <trkpt lat="43.87443" lon="6.99259">
        <ele>372.4000244</ele>
        <time>2019-12-07T14:16:20Z</time>
      </trkpt>
      <trkpt lat="43.87442" lon="6.99266">
        <ele>371.5999756</ele>
        <time>2019-12-07T14:16:21Z</time>
      </trkpt>
      <trkpt lat="43.87442" lon="6.99281">
        <ele>369.5999756</ele>
        <time>2019-12-07T14:16:23Z</time>
      </trkpt>
      <trkpt lat="43.87442" lon="6.99287">
        <ele>368.4000244</ele>
        <time>2019-12-07T14:16:24Z</time>
      </trkpt>
      <trkpt lat="43.87441" lon="6.99294">
        <ele>367.2000122</ele>
        <time>2019-12-07T14:16:25Z</time>
      </trkpt>
      <trkpt lat="43.87441" lon="6.993">
        <ele>366</ele>
        <time>2019-12-07T14:16:26Z</time>
      </trkpt>
      <trkpt lat="43.87442" lon="6.99306">
        <ele>364.7999878</ele>
        <time>2019-12-07T14:16:27Z</time>
      </trkpt>
      <trkpt lat="43.87447" lon="6.99308">
        <ele>363.2000122</ele>
        <time>2019-12-07T14:16:29Z</time>
      </trkpt>
      <trkpt lat="43.87451" lon="6.99303">
        <ele>361.4000244</ele>
        <time>2019-12-07T14:16:31Z</time>
      </trkpt>
      <trkpt lat="43.87452" lon="6.99299">
        <ele>360.4000244</ele>
        <time>2019-12-07T14:16:32Z</time>
      </trkpt>
      <trkpt lat="43.87454" lon="6.99296">
        <ele>359.5999756</ele>
        <time>2019-12-07T14:16:33Z</time>
      </trkpt>
      <trkpt lat="43.8746" lon="6.99293">
        <ele>357.7999878</ele>
        <time>2019-12-07T14:16:35Z</time>
      </trkpt>
      <trkpt lat="43.87463" lon="6.993">
        <ele>356.4000244</ele>
        <time>2019-12-07T14:16:37Z</time>
      </trkpt>
      <trkpt lat="43.87461" lon="6.99312">
        <ele>355</ele>
        <time>2019-12-07T14:16:39Z</time>
      </trkpt>
      <trkpt lat="43.8746" lon="6.9932">
        <ele>354.2000122</ele>
        <time>2019-12-07T14:16:40Z</time>
      </trkpt>
      <trkpt lat="43.87458" lon="6.99328">
        <ele>353.5999756</ele>
        <time>2019-12-07T14:16:41Z</time>
      </trkpt>
      <trkpt lat="43.87455" lon="6.99346">
        <ele>352.4000244</ele>
        <time>2019-12-07T14:16:43Z</time>
      </trkpt>
      <trkpt lat="43.87451" lon="6.99361">
        <ele>351</ele>
        <time>2019-12-07T14:16:45Z</time>
      </trkpt>
      <trkpt lat="43.87445" lon="6.9938">
        <ele>350</ele>
        <time>2019-12-07T14:16:48Z</time>
      </trkpt>
      <trkpt lat="43.8744" lon="6.994">
        <ele>350</ele>
        <time>2019-12-07T14:16:51Z</time>
      </trkpt>
      <trkpt lat="43.87437" lon="6.99428">
        <ele>349.4000244</ele>
        <time>2019-12-07T14:16:56Z</time>
      </trkpt>
      <trkpt lat="43.87429" lon="6.99457">
        <ele>349</ele>
        <time>2019-12-07T14:17:00Z</time>
      </trkpt>
      <trkpt lat="43.87427" lon="6.99466">
        <ele>349</ele>
        <time>2019-12-07T14:17:01Z</time>
      </trkpt>
      <trkpt lat="43.8742" lon="6.99492">
        <ele>348.4000244</ele>
        <time>2019-12-07T14:17:04Z</time>
      </trkpt>
      <trkpt lat="43.87414" lon="6.99508">
        <ele>348</ele>
        <time>2019-12-07T14:17:06Z</time>
      </trkpt>
      <trkpt lat="43.87411" lon="6.99515">
        <ele>348</ele>
        <time>2019-12-07T14:17:07Z</time>
      </trkpt>
      <trkpt lat="43.87396" lon="6.99545">
        <ele>347.2000122</ele>
        <time>2019-12-07T14:17:12Z</time>
      </trkpt>
      <trkpt lat="43.87391" lon="6.99557">
        <ele>347</ele>
        <time>2019-12-07T14:17:14Z</time>
      </trkpt>
      <trkpt lat="43.87388" lon="6.99562">
        <ele>346.7999878</ele>
        <time>2019-12-07T14:17:15Z</time>
      </trkpt>
      <trkpt lat="43.87384" lon="6.99572">
        <ele>346.4000244</ele>
        <time>2019-12-07T14:17:17Z</time>
      </trkpt>
      <trkpt lat="43.87372" lon="6.99604">
        <ele>345.7999878</ele>
        <time>2019-12-07T14:17:23Z</time>
      </trkpt>
      <trkpt lat="43.87361" lon="6.9965">
        <ele>345.7999878</ele>
        <time>2019-12-07T14:17:31Z</time>
      </trkpt>
      <trkpt lat="43.87359" lon="6.99668">
        <ele>345.7999878</ele>
        <time>2019-12-07T14:17:34Z</time>
      </trkpt>
      <trkpt lat="43.87358" lon="6.99685">
        <ele>346</ele>
        <time>2019-12-07T14:17:37Z</time>
      </trkpt>
      <trkpt lat="43.87357" lon="6.99697">
        <ele>345.5999756</ele>
        <time>2019-12-07T14:17:39Z</time>
      </trkpt>
      <trkpt lat="43.87354" lon="6.99726">
        <ele>344.7999878</ele>
        <time>2019-12-07T14:17:43Z</time>
      </trkpt>
      <trkpt lat="43.87354" lon="6.99734">
        <ele>344.4000244</ele>
        <time>2019-12-07T14:17:44Z</time>
      </trkpt>
      <trkpt lat="43.87353" lon="6.9976">
        <ele>343.2000122</ele>
        <time>2019-12-07T14:17:48Z</time>
      </trkpt>
      <trkpt lat="43.87352" lon="6.99766">
        <ele>342.7999878</ele>
        <time>2019-12-07T14:17:49Z</time>
      </trkpt>
      <trkpt lat="43.87352" lon="6.99777">
        <ele>342</ele>
        <time>2019-12-07T14:17:51Z</time>
      </trkpt>
      <trkpt lat="43.8735" lon="6.99791">
        <ele>340.7999878</ele>
        <time>2019-12-07T14:17:54Z</time>
      </trkpt>
      <trkpt lat="43.87344" lon="6.99817">
        <ele>339.7999878</ele>
        <time>2019-12-07T14:17:59Z</time>
      </trkpt>
      <trkpt lat="43.87343" lon="6.99829">
        <ele>339.4000244</ele>
        <time>2019-12-07T14:18:01Z</time>
      </trkpt>
      <trkpt lat="43.87341" lon="6.99846">
        <ele>338.7999878</ele>
        <time>2019-12-07T14:18:04Z</time>
      </trkpt>
      <trkpt lat="43.8734" lon="6.99863">
        <ele>338.4000244</ele>
        <time>2019-12-07T14:18:07Z</time>
      </trkpt>
      <trkpt lat="43.87337" lon="6.9989">
        <ele>337.5999756</ele>
        <time>2019-12-07T14:18:11Z</time>
      </trkpt>
      <trkpt lat="43.87336" lon="6.99904">
        <ele>337</ele>
        <time>2019-12-07T14:18:13Z</time>
      </trkpt>
      <trkpt lat="43.87333" lon="6.99924">
        <ele>336.4000244</ele>
        <time>2019-12-07T14:18:16Z</time>
      </trkpt>
      <trkpt lat="43.87331" lon="6.9994">
        <ele>336.2000122</ele>
        <time>2019-12-07T14:18:19Z</time>
      </trkpt>
      <trkpt lat="43.87324" lon="6.99968">
        <ele>336</ele>
        <time>2019-12-07T14:18:25Z</time>
      </trkpt>
      <trkpt lat="43.87316" lon="6.99996">
        <ele>335.7999878</ele>
        <time>2019-12-07T14:18:30Z</time>
      </trkpt>
      <trkpt lat="43.87315" lon="7.00002">
        <ele>335.7999878</ele>
        <time>2019-12-07T14:18:31Z</time>
      </trkpt>
      <trkpt lat="43.87314" lon="7.00017">
        <ele>335.2000122</ele>
        <time>2019-12-07T14:18:34Z</time>
      </trkpt>
      <trkpt lat="43.87313" lon="7.00028">
        <ele>335</ele>
        <time>2019-12-07T14:18:36Z</time>
      </trkpt>
      <trkpt lat="43.87307" lon="7.00051">
        <ele>334.2000122</ele>
        <time>2019-12-07T14:18:40Z</time>
      </trkpt>
      <trkpt lat="43.87303" lon="7.00062">
        <ele>333.5999756</ele>
        <time>2019-12-07T14:18:42Z</time>
      </trkpt>
      <trkpt lat="43.87298" lon="7.0007">
        <ele>333</ele>
        <time>2019-12-07T14:18:44Z</time>
      </trkpt>
      <trkpt lat="43.8729" lon="7.00085">
        <ele>332.2000122</ele>
        <time>2019-12-07T14:18:47Z</time>
      </trkpt>
      <trkpt lat="43.87285" lon="7.001">
        <ele>331.7999878</ele>
        <time>2019-12-07T14:18:50Z</time>
      </trkpt>
      <trkpt lat="43.87283" lon="7.00114">
        <ele>331</ele>
        <time>2019-12-07T14:18:52Z</time>
      </trkpt>
      <trkpt lat="43.87282" lon="7.00121">
        <ele>330.7999878</ele>
        <time>2019-12-07T14:18:53Z</time>
      </trkpt>
      <trkpt lat="43.87274" lon="7.00166">
        <ele>330.5999756</ele>
        <time>2019-12-07T14:18:59Z</time>
      </trkpt>
      <trkpt lat="43.8727" lon="7.00204">
        <ele>330.2000122</ele>
        <time>2019-12-07T14:19:03Z</time>
      </trkpt>
      <trkpt lat="43.8727" lon="7.00211">
        <ele>330.4000244</ele>
        <time>2019-12-07T14:19:04Z</time>
      </trkpt>
      <trkpt lat="43.87268" lon="7.00254">
        <ele>330</ele>
        <time>2019-12-07T14:19:11Z</time>
      </trkpt>
      <trkpt lat="43.87264" lon="7.00285">
        <ele>330.7999878</ele>
        <time>2019-12-07T14:19:17Z</time>
      </trkpt>
      <trkpt lat="43.8726" lon="7.00314">
        <ele>331.4000244</ele>
        <time>2019-12-07T14:19:23Z</time>
      </trkpt>
      <trkpt lat="43.87259" lon="7.00346">
        <ele>331.2000122</ele>
        <time>2019-12-07T14:19:28Z</time>
      </trkpt>
      <trkpt lat="43.87259" lon="7.00353">
        <ele>331.2000122</ele>
        <time>2019-12-07T14:19:29Z</time>
      </trkpt>
      <trkpt lat="43.87261" lon="7.00369">
        <ele>331.2000122</ele>
        <time>2019-12-07T14:19:31Z</time>
      </trkpt>
      <trkpt lat="43.87263" lon="7.00395">
        <ele>331.4000244</ele>
        <time>2019-12-07T14:19:34Z</time>
      </trkpt>
      <trkpt lat="43.87265" lon="7.00437">
        <ele>331.4000244</ele>
        <time>2019-12-07T14:19:39Z</time>
      </trkpt>
      <trkpt lat="43.87263" lon="7.00445">
        <ele>331.2000122</ele>
        <time>2019-12-07T14:19:40Z</time>
      </trkpt>
      <trkpt lat="43.8726" lon="7.00469">
        <ele>331.2000122</ele>
        <time>2019-12-07T14:19:43Z</time>
      </trkpt>
      <trkpt lat="43.87258" lon="7.0049">
        <ele>330.7999878</ele>
        <time>2019-12-07T14:19:46Z</time>
      </trkpt>
      <trkpt lat="43.87257" lon="7.00496">
        <ele>330.5999756</ele>
        <time>2019-12-07T14:19:47Z</time>
      </trkpt>
      <trkpt lat="43.87255" lon="7.00519">
        <ele>330.7999878</ele>
        <time>2019-12-07T14:19:51Z</time>
      </trkpt>
      <trkpt lat="43.87254" lon="7.00542">
        <ele>330.4000244</ele>
        <time>2019-12-07T14:19:56Z</time>
      </trkpt>
      <trkpt lat="43.8725" lon="7.00555">
        <ele>330.2000122</ele>
        <time>2019-12-07T14:20:03Z</time>
      </trkpt>
      <trkpt lat="43.87249" lon="7.00556">
        <ele>330</ele>
        <time>2019-12-07T14:20:09Z</time>
      </trkpt>
      <trkpt lat="43.87252" lon="7.00554">
        <ele>330</ele>
        <time>2019-12-07T14:20:17Z</time>
      </trkpt>
      <trkpt lat="43.87254" lon="7.00549">
        <ele>330.2000122</ele>
        <time>2019-12-07T14:20:19Z</time>
      </trkpt>
      <trkpt lat="43.87253" lon="7.00532">
        <ele>330.4000244</ele>
        <time>2019-12-07T14:20:22Z</time>
      </trkpt>
      <trkpt lat="43.87251" lon="7.00515">
        <ele>330.5999756</ele>
        <time>2019-12-07T14:20:24Z</time>
      </trkpt>
      <trkpt lat="43.87252" lon="7.00509">
        <ele>330.4000244</ele>
        <time>2019-12-07T14:20:25Z</time>
      </trkpt>
      <trkpt lat="43.87258" lon="7.00486">
        <ele>330.4000244</ele>
        <time>2019-12-07T14:20:30Z</time>
      </trkpt>
      <trkpt lat="43.87261" lon="7.00467">
        <ele>330.4000244</ele>
        <time>2019-12-07T14:20:34Z</time>
      </trkpt>
      <trkpt lat="43.87261" lon="7.00466">
        <ele>330.5999756</ele>
        <time>2019-12-07T14:20:35Z</time>
      </trkpt>
      <trkpt lat="43.87262" lon="7.00468">
        <ele>330.4000244</ele>
        <time>2019-12-07T14:20:36Z</time>
      </trkpt>
      <trkpt lat="43.87264" lon="7.00473">
        <ele>329.7999878</ele>
        <time>2019-12-07T14:20:38Z</time>
      </trkpt>
      <trkpt lat="43.87265" lon="7.00481">
        <ele>329.5999756</ele>
        <time>2019-12-07T14:20:40Z</time>
      </trkpt>
      <trkpt lat="43.87265" lon="7.00495">
        <ele>329</ele>
        <time>2019-12-07T14:20:42Z</time>
      </trkpt>
      <trkpt lat="43.87268" lon="7.0054">
        <ele>328.7999878</ele>
        <time>2019-12-07T14:20:47Z</time>
      </trkpt>
      <trkpt lat="43.8727" lon="7.00557">
        <ele>328.5999756</ele>
        <time>2019-12-07T14:20:49Z</time>
      </trkpt>
      <trkpt lat="43.87271" lon="7.00586">
        <ele>328</ele>
        <time>2019-12-07T14:20:53Z</time>
      </trkpt>
      <trkpt lat="43.87267" lon="7.00599">
        <ele>327.5999756</ele>
        <time>2019-12-07T14:20:57Z</time>
      </trkpt>
      <trkpt lat="43.8725" lon="7.00612">
        <ele>327</ele>
        <time>2019-12-07T14:21:02Z</time>
      </trkpt>
      <trkpt lat="43.87244" lon="7.00613">
        <ele>326.7999878</ele>
        <time>2019-12-07T14:21:04Z</time>
      </trkpt>
      <trkpt lat="43.87237" lon="7.00609">
        <ele>326.5999756</ele>
        <time>2019-12-07T14:21:06Z</time>
      </trkpt>
      <trkpt lat="43.87231" lon="7.00604">
        <ele>326.5999756</ele>
        <time>2019-12-07T14:21:08Z</time>
      </trkpt>
      <trkpt lat="43.87212" lon="7.00592">
        <ele>327</ele>
        <time>2019-12-07T14:21:14Z</time>
      </trkpt>
      <trkpt lat="43.87202" lon="7.00586">
        <ele>327.2000122</ele>
        <time>2019-12-07T14:21:20Z</time>
      </trkpt>
      <trkpt lat="43.87202" lon="7.00586">
        <ele>327.4000244</ele>
        <time>2019-12-07T14:21:21Z</time>
      </trkpt>
      <trkpt lat="43.87202" lon="7.00593">
        <ele>326.7999878</ele>
        <time>2019-12-07T14:21:24Z</time>
      </trkpt>
      <trkpt lat="43.87201" lon="7.00597">
        <ele>326.7999878</ele>
        <time>2019-12-07T14:21:25Z</time>
      </trkpt>
      <trkpt lat="43.87198" lon="7.00621">
        <ele>326.7999878</ele>
        <time>2019-12-07T14:21:31Z</time>
      </trkpt>
      <trkpt lat="43.87195" lon="7.00629">
        <ele>327</ele>
        <time>2019-12-07T14:21:35Z</time>
      </trkpt>
      <trkpt lat="43.87192" lon="7.0063">
        <ele>326.7999878</ele>
        <time>2019-12-07T14:21:40Z</time>
      </trkpt>
      <trkpt lat="43.87191" lon="7.0063">
        <ele>326.7999878</ele>
        <time>2019-12-07T14:21:41Z</time>
      </trkpt>
      <trkpt lat="43.87183" lon="7.00632">
        <ele>327</ele>
        <time>2019-12-07T14:21:47Z</time>
      </trkpt>
      <trkpt lat="43.8718" lon="7.00634">
        <ele>327.4000244</ele>
        <time>2019-12-07T14:21:54Z</time>
      </trkpt>
      <trkpt lat="43.8718" lon="7.00634">
        <ele>327.4000244</ele>
        <time>2019-12-07T14:22:02Z</time>
      </trkpt>
      <trkpt lat="43.87181" lon="7.00634">
        <ele>327.5999756</ele>
        <time>2019-12-07T14:22:04Z</time>
      </trkpt>
      <trkpt lat="43.87186" lon="7.00634">
        <ele>328.5999756</ele>
        <time>2019-12-07T14:22:10Z</time>
      </trkpt>
      <trkpt lat="43.87191" lon="7.00643">
        <ele>327.5999756</ele>
        <time>2019-12-07T14:22:16Z</time>
      </trkpt>
      <trkpt lat="43.87192" lon="7.00653">
        <ele>329.4000244</ele>
        <time>2019-12-07T14:22:23Z</time>
      </trkpt>
      <trkpt lat="43.87192" lon="7.00654">
        <ele>330.2000122</ele>
        <time>2019-12-07T14:22:24Z</time>
      </trkpt>
      <trkpt lat="43.87186" lon="7.00658">
        <ele>331.2000122</ele>
        <time>2019-12-07T14:22:29Z</time>
      </trkpt>
      <trkpt lat="43.87186" lon="7.00658">
        <ele>332.4000244</ele>
        <time>2019-12-07T14:22:31Z</time>
      </trkpt>
      <trkpt lat="43.87184" lon="7.00657">
        <ele>332.5999756</ele>
        <time>2019-12-07T14:22:35Z</time>
      </trkpt>
      <trkpt lat="43.87173" lon="7.00652">
        <ele>333.5999756</ele>
        <time>2019-12-07T14:22:39Z</time>
      </trkpt>
      <trkpt lat="43.87159" lon="7.00651">
        <ele>334.5999756</ele>
        <time>2019-12-07T14:22:43Z</time>
      </trkpt>
      <trkpt lat="43.87149" lon="7.00652">
        <ele>335</ele>
        <time>2019-12-07T14:22:46Z</time>
      </trkpt>
      <trkpt lat="43.87131" lon="7.00662">
        <ele>334.4000244</ele>
        <time>2019-12-07T14:22:52Z</time>
      </trkpt>
      <trkpt lat="43.87123" lon="7.00671">
        <ele>333.4000244</ele>
        <time>2019-12-07T14:22:55Z</time>
      </trkpt>
      <trkpt lat="43.87114" lon="7.00682">
        <ele>332.7999878</ele>
        <time>2019-12-07T14:22:58Z</time>
      </trkpt>
      <trkpt lat="43.87109" lon="7.0069">
        <ele>332.2000122</ele>
        <time>2019-12-07T14:23:00Z</time>
      </trkpt>
      <trkpt lat="43.87091" lon="7.00718">
        <ele>331.5999756</ele>
        <time>2019-12-07T14:23:07Z</time>
      </trkpt>
      <trkpt lat="43.8708" lon="7.00734">
        <ele>330.7999878</ele>
        <time>2019-12-07T14:23:11Z</time>
      </trkpt>
      <trkpt lat="43.87075" lon="7.00743">
        <ele>330.4000244</ele>
        <time>2019-12-07T14:23:13Z</time>
      </trkpt>
      <trkpt lat="43.87057" lon="7.00779">
        <ele>329.7999878</ele>
        <time>2019-12-07T14:23:22Z</time>
      </trkpt>
      <trkpt lat="43.87045" lon="7.00816">
        <ele>330.2000122</ele>
        <time>2019-12-07T14:23:30Z</time>
      </trkpt>
      <trkpt lat="43.87035" lon="7.00851">
        <ele>330</ele>
        <time>2019-12-07T14:23:37Z</time>
      </trkpt>
      <trkpt lat="43.87026" lon="7.009">
        <ele>329.7999878</ele>
        <time>2019-12-07T14:23:46Z</time>
      </trkpt>
      <trkpt lat="43.87026" lon="7.00906">
        <ele>329.5999756</ele>
        <time>2019-12-07T14:23:47Z</time>
      </trkpt>
      <trkpt lat="43.87023" lon="7.00928">
        <ele>329.5999756</ele>
        <time>2019-12-07T14:23:51Z</time>
      </trkpt>
      <trkpt lat="43.87022" lon="7.00933">
        <ele>329.5999756</ele>
        <time>2019-12-07T14:23:52Z</time>
      </trkpt>
      <trkpt lat="43.8702" lon="7.00938">
        <ele>329.4000244</ele>
        <time>2019-12-07T14:23:53Z</time>
      </trkpt>
      <trkpt lat="43.87011" lon="7.00952">
        <ele>329.2000122</ele>
        <time>2019-12-07T14:23:56Z</time>
      </trkpt>
      <trkpt lat="43.87009" lon="7.00957">
        <ele>329</ele>
        <time>2019-12-07T14:23:57Z</time>
      </trkpt>
      <trkpt lat="43.87004" lon="7.00973">
        <ele>328.5999756</ele>
        <time>2019-12-07T14:24:00Z</time>
      </trkpt>
      <trkpt lat="43.87001" lon="7.00983">
        <ele>328.4000244</ele>
        <time>2019-12-07T14:24:02Z</time>
      </trkpt>
      <trkpt lat="43.86992" lon="7.01003">
        <ele>328</ele>
        <time>2019-12-07T14:24:06Z</time>
      </trkpt>
      <trkpt lat="43.86987" lon="7.01013">
        <ele>328</ele>
        <time>2019-12-07T14:24:08Z</time>
      </trkpt>
      <trkpt lat="43.86984" lon="7.01029">
        <ele>328.2000122</ele>
        <time>2019-12-07T14:24:12Z</time>
      </trkpt>
      <trkpt lat="43.86983" lon="7.01026">
        <ele>328.2000122</ele>
        <time>2019-12-07T14:24:13Z</time>
      </trkpt>
      <trkpt lat="43.86983" lon="7.01021">
        <ele>328.2000122</ele>
        <time>2019-12-07T14:24:14Z</time>
      </trkpt>
      <trkpt lat="43.86988" lon="7.00999">
        <ele>328</ele>
        <time>2019-12-07T14:24:17Z</time>
      </trkpt>
      <trkpt lat="43.86991" lon="7.0099">
        <ele>328</ele>
        <time>2019-12-07T14:24:18Z</time>
      </trkpt>
      <trkpt lat="43.87" lon="7.00958">
        <ele>327.7999878</ele>
        <time>2019-12-07T14:24:21Z</time>
      </trkpt>
      <trkpt lat="43.87006" lon="7.00933">
        <ele>327.7999878</ele>
        <time>2019-12-07T14:24:24Z</time>
      </trkpt>
      <trkpt lat="43.87005" lon="7.00925">
        <ele>327.7999878</ele>
        <time>2019-12-07T14:24:25Z</time>
      </trkpt>
      <trkpt lat="43.86996" lon="7.00908">
        <ele>328</ele>
        <time>2019-12-07T14:24:28Z</time>
      </trkpt>
      <trkpt lat="43.86986" lon="7.00912">
        <ele>327.5999756</ele>
        <time>2019-12-07T14:24:30Z</time>
      </trkpt>
      <trkpt lat="43.86981" lon="7.00918">
        <ele>327.5999756</ele>
        <time>2019-12-07T14:24:31Z</time>
      </trkpt>
      <trkpt lat="43.86974" lon="7.00932">
        <ele>327.4000244</ele>
        <time>2019-12-07T14:24:33Z</time>
      </trkpt>
      <trkpt lat="43.86971" lon="7.00937">
        <ele>327.4000244</ele>
        <time>2019-12-07T14:24:34Z</time>
      </trkpt>
      <trkpt lat="43.86962" lon="7.00945">
        <ele>327.2000122</ele>
        <time>2019-12-07T14:24:36Z</time>
      </trkpt>
      <trkpt lat="43.86944" lon="7.0094">
        <ele>326.7999878</ele>
        <time>2019-12-07T14:24:39Z</time>
      </trkpt>
      <trkpt lat="43.86937" lon="7.0093">
        <ele>326.2000122</ele>
        <time>2019-12-07T14:24:41Z</time>
      </trkpt>
      <trkpt lat="43.86935" lon="7.00924">
        <ele>326</ele>
        <time>2019-12-07T14:24:42Z</time>
      </trkpt>
      <trkpt lat="43.86932" lon="7.00912">
        <ele>325.5999756</ele>
        <time>2019-12-07T14:24:46Z</time>
      </trkpt>
      <trkpt lat="43.86931" lon="7.0091">
        <ele>325.2000122</ele>
        <time>2019-12-07T14:24:49Z</time>
      </trkpt>
      <trkpt lat="43.86931" lon="7.0091">
        <ele>325.2000122</ele>
        <time>2019-12-07T14:24:52Z</time>
      </trkpt>
    </trkseg>
  </trk>
</gpx>